<?xml version='1.0' encoding='UTF-8'?><gpx version="1.1" creator="JPX - https://github.com/jenetics/jpx" xmlns="http://www.topografix.com/GPX/1/1"><trk><trkseg><trkpt lat="44.14733614256872" lon="11.688788113546291"><ele>211.0</ele><time>2026-04-25T07:26:06Z</time></trkpt><trkpt lat="44.14744704809279" lon="11.6887520375621"><ele>211.0</ele><time>2026-04-25T07:26:08Z</time></trkpt><trkpt lat="44.147373817692134" lon="11.688728499116788"><ele>211.0</ele><time>2026-04-25T07:26:11Z</time></trkpt><trkpt lat="44.147350488837866" lon="11.688627041317124"><ele>211.0</ele><time>2026-04-25T07:27:00Z</time></trkpt><trkpt lat="44.14746280661628" lon="11.688646260081049"><ele>211.0</ele><time>2026-04-25T07:27:02Z</time></trkpt><trkpt lat="44.14753265962565" lon="11.688706056950096"><ele>214.20000000000002</ele><time>2026-04-25T07:27:03Z</time></trkpt><trkpt lat="44.14762413582384" lon="11.688732577550397"><ele>217.4</ele><time>2026-04-25T07:27:04Z</time></trkpt><trkpt lat="44.14771523549226" lon="11.688755671704381"><ele>220.6</ele><time>2026-04-25T07:27:05Z</time></trkpt><trkpt lat="44.14777748006372" lon="11.688791525085986"><ele>223.8</ele><time>2026-04-25T07:27:06Z</time></trkpt><trkpt lat="44.147848904501615" lon="11.68864090317197"><ele>227.0</ele><time>2026-04-25T07:27:07Z</time></trkpt><trkpt lat="44.14792072797511" lon="11.688570181385566"><ele>227.8</ele><time>2026-04-25T07:27:08Z</time></trkpt><trkpt lat="44.147991355598045" lon="11.68848219705742"><ele>228.6</ele><time>2026-04-25T07:27:09Z</time></trkpt><trkpt lat="44.148063330253734" lon="11.688392534325539"><ele>229.40000000000003</ele><time>2026-04-25T07:27:10Z</time></trkpt><trkpt lat="44.14813235927329" lon="11.688291247134853"><ele>230.20000000000002</ele><time>2026-04-25T07:27:11Z</time></trkpt><trkpt lat="44.148183662648314" lon="11.688190687134048"><ele>231.0</ele><time>2026-04-25T07:27:12Z</time></trkpt><trkpt lat="44.148236191554666" lon="11.688064028442911"><ele>231.0</ele><time>2026-04-25T07:27:13Z</time></trkpt><trkpt lat="44.14827512482496" lon="11.687934511672653"><ele>231.0</ele><time>2026-04-25T07:27:14Z</time></trkpt><trkpt lat="44.14830622162706" lon="11.68781736947946"><ele>231.0</ele><time>2026-04-25T07:27:15Z</time></trkpt><trkpt lat="44.14833162248379" lon="11.687715901433323"><ele>231.0</ele><time>2026-04-25T07:27:16Z</time></trkpt><trkpt lat="44.14836346312098" lon="11.687569058902518"><ele>231.0</ele><time>2026-04-25T07:27:18Z</time></trkpt><trkpt lat="44.14838074665285" lon="11.687478189307715"><ele>231.0</ele><time>2026-04-25T07:27:19Z</time></trkpt><trkpt lat="44.14839528417741" lon="11.687369934193635"><ele>233.20000000000002</ele><time>2026-04-25T07:27:20Z</time></trkpt><trkpt lat="44.148404874628035" lon="11.68722113353983"><ele>235.40000000000003</ele><time>2026-04-25T07:27:21Z</time></trkpt><trkpt lat="44.14840034902721" lon="11.687078155928665"><ele>237.6</ele><time>2026-04-25T07:27:22Z</time></trkpt><trkpt lat="44.14839584770046" lon="11.686926652592806"><ele>239.8</ele><time>2026-04-25T07:27:23Z</time></trkpt><trkpt lat="44.14838809280805" lon="11.686791029706502"><ele>242.0</ele><time>2026-04-25T07:27:24Z</time></trkpt><trkpt lat="44.14838073715044" lon="11.686663332505244"><ele>243.33333333333334</ele><time>2026-04-25T07:27:25Z</time></trkpt><trkpt lat="44.14837346001583" lon="11.686548489996627"><ele>244.66666666666669</ele><time>2026-04-25T07:27:26Z</time></trkpt><trkpt lat="44.148368401664605" lon="11.686451058035045"><ele>246.0</ele><time>2026-04-25T07:27:27Z</time></trkpt><trkpt lat="44.14836420781277" lon="11.686336268835385"><ele>247.33333333333331</ele><time>2026-04-25T07:27:28Z</time></trkpt><trkpt lat="44.14836341980709" lon="11.686210176358989"><ele>248.66666666666666</ele><time>2026-04-25T07:27:29Z</time></trkpt><trkpt lat="44.14836406626636" lon="11.686105254127606"><ele>250.0</ele><time>2026-04-25T07:27:30Z</time></trkpt><trkpt lat="44.148364048729015" lon="11.685991498111031"><ele>251.33333333333331</ele><time>2026-04-25T07:27:31Z</time></trkpt><trkpt lat="44.148364048724595" lon="11.685898212910255"><ele>252.66666666666666</ele><time>2026-04-25T07:27:32Z</time></trkpt><trkpt lat="44.14835605560075" lon="11.685777749130061"><ele>254.0</ele><time>2026-04-25T07:27:33Z</time></trkpt><trkpt lat="44.148324772737396" lon="11.685642470591702"><ele>255.33333333333331</ele><time>2026-04-25T07:27:34Z</time></trkpt><trkpt lat="44.148298403514566" lon="11.68552825358242"><ele>256.6666666666667</ele><time>2026-04-25T07:27:35Z</time></trkpt><trkpt lat="44.14827157153957" lon="11.68540388337478"><ele>258.0</ele><time>2026-04-25T07:27:36Z</time></trkpt><trkpt lat="44.148252906008494" lon="11.685290750065953"><ele>259.0</ele><time>2026-04-25T07:27:37Z</time></trkpt><trkpt lat="44.14823493566054" lon="11.68517012101953"><ele>260.0</ele><time>2026-04-25T07:27:38Z</time></trkpt><trkpt lat="44.14822199147945" lon="11.685052920671591"><ele>261.0</ele><time>2026-04-25T07:27:39Z</time></trkpt><trkpt lat="44.148214732668926" lon="11.68493125475231"><ele>262.0</ele><time>2026-04-25T07:27:40Z</time></trkpt><trkpt lat="44.148217018214694" lon="11.684787462746188"><ele>263.0</ele><time>2026-04-25T07:27:41Z</time></trkpt><trkpt lat="44.14820369040022" lon="11.68463143996739"><ele>263.75</ele><time>2026-04-25T07:27:42Z</time></trkpt><trkpt lat="44.14820765877543" lon="11.684462748314774"><ele>264.5</ele><time>2026-04-25T07:27:43Z</time></trkpt><trkpt lat="44.148214966027446" lon="11.68428821905981"><ele>265.25</ele><time>2026-04-25T07:27:44Z</time></trkpt><trkpt lat="44.14823593139615" lon="11.68411428454216"><ele>266.0</ele><time>2026-04-25T07:27:45Z</time></trkpt><trkpt lat="44.148249904410854" lon="11.683898809368108"><ele>266.0</ele><time>2026-04-25T07:27:46Z</time></trkpt><trkpt lat="44.148264794858676" lon="11.683679959339251"><ele>266.0</ele><time>2026-04-25T07:27:47Z</time></trkpt><trkpt lat="44.14827413857472" lon="11.6835360905896"><ele>266.0</ele><time>2026-04-25T07:27:48Z</time></trkpt><trkpt lat="44.148283233425715" lon="11.68339605311019"><ele>266.0</ele><time>2026-04-25T07:27:49Z</time></trkpt><trkpt lat="44.148293504573736" lon="11.683237904296218"><ele>268.0</ele><time>2026-04-25T07:27:50Z</time></trkpt><trkpt lat="44.14830361961698" lon="11.68308306527122"><ele>270.0</ele><time>2026-04-25T07:27:51Z</time></trkpt><trkpt lat="44.148313471476044" lon="11.6829335301582"><ele>272.0</ele><time>2026-04-25T07:27:52Z</time></trkpt><trkpt lat="44.148320659968626" lon="11.68282442106094"><ele>274.0</ele><time>2026-04-25T07:27:53Z</time></trkpt><trkpt lat="44.148328003944435" lon="11.682712951886337"><ele>276.0</ele><time>2026-04-25T07:27:54Z</time></trkpt><trkpt lat="44.148320057432045" lon="11.6825833054118"><ele>276.8</ele><time>2026-04-25T07:27:55Z</time></trkpt><trkpt lat="44.14834482630667" lon="11.682457616156977"><ele>277.6</ele><time>2026-04-25T07:27:56Z</time></trkpt><trkpt lat="44.14835239103637" lon="11.68232409789724"><ele>278.4</ele><time>2026-04-25T07:27:57Z</time></trkpt><trkpt lat="44.148360420074056" lon="11.682176343634268"><ele>279.2</ele><time>2026-04-25T07:27:58Z</time></trkpt><trkpt lat="44.14836870392922" lon="11.682016664581123"><ele>280.0</ele><time>2026-04-25T07:27:59Z</time></trkpt><trkpt lat="44.14837652134567" lon="11.681862880604653"><ele>280.6</ele><time>2026-04-25T07:28:00Z</time></trkpt><trkpt lat="44.14837018916814" lon="11.681713832742538"><ele>281.2</ele><time>2026-04-25T07:28:01Z</time></trkpt><trkpt lat="44.148398435997805" lon="11.681571614133043"><ele>281.8</ele><time>2026-04-25T07:28:02Z</time></trkpt><trkpt lat="44.14838902128245" lon="11.681439811427166"><ele>282.4</ele><time>2026-04-25T07:28:03Z</time></trkpt><trkpt lat="44.14839507353591" lon="11.681295307064074"><ele>283.0</ele><time>2026-04-25T07:28:04Z</time></trkpt><trkpt lat="44.14842249867185" lon="11.68115470117157"><ele>284.8</ele><time>2026-04-25T07:28:05Z</time></trkpt><trkpt lat="44.14844496796384" lon="11.681019622913457"><ele>286.6</ele><time>2026-04-25T07:28:06Z</time></trkpt><trkpt lat="44.1484939707274" lon="11.680913145954518"><ele>288.4</ele><time>2026-04-25T07:28:07Z</time></trkpt><trkpt lat="44.14855465326879" lon="11.68083983527003"><ele>290.2</ele><time>2026-04-25T07:28:08Z</time></trkpt><trkpt lat="44.14862803106828" lon="11.680750475806194"><ele>292.0</ele><time>2026-04-25T07:28:08.999Z</time></trkpt><trkpt lat="44.14869043747033" lon="11.68066266243498"><ele>292.0</ele><time>2026-04-25T07:28:09.999Z</time></trkpt><trkpt lat="44.14873576319003" lon="11.680596560702057"><ele>292.0</ele><time>2026-04-25T07:28:10.999Z</time></trkpt><trkpt lat="44.14879827060238" lon="11.68049645896507"><ele>292.0</ele><time>2026-04-25T07:28:12.999Z</time></trkpt><trkpt lat="44.1488486482636" lon="11.680408688151617"><ele>292.0</ele><time>2026-04-25T07:28:26.999Z</time></trkpt><trkpt lat="44.14890170662504" lon="11.680301437807316"><ele>292.0</ele><time>2026-04-25T07:28:28.999Z</time></trkpt><trkpt lat="44.1489398392106" lon="11.680228119007467"><ele>292.0</ele><time>2026-04-25T07:28:29.999Z</time></trkpt><trkpt lat="44.149031633734104" lon="11.68006631803205"><ele>289.0</ele><time>2026-04-25T07:28:32Z</time></trkpt><trkpt lat="44.149086865216205" lon="11.679977671439243"><ele>286.0</ele><time>2026-04-25T07:28:33Z</time></trkpt><trkpt lat="44.14916347258949" lon="11.679870155455337"><ele>283.0</ele><time>2026-04-25T07:28:34Z</time></trkpt><trkpt lat="44.149249051019396" lon="11.679770334401603"><ele>280.0</ele><time>2026-04-25T07:28:35Z</time></trkpt><trkpt lat="44.149328871377506" lon="11.679673115606652"><ele>277.0</ele><time>2026-04-25T07:28:36Z</time></trkpt><trkpt lat="44.1494105975292" lon="11.679571501421119"><ele>277.0</ele><time>2026-04-25T07:28:37Z</time></trkpt><trkpt lat="44.14948208632164" lon="11.679454605812111"><ele>277.0</ele><time>2026-04-25T07:28:38Z</time></trkpt><trkpt lat="44.149533423790245" lon="11.679337962960933"><ele>277.0</ele><time>2026-04-25T07:28:39Z</time></trkpt><trkpt lat="44.14957809097299" lon="11.67918130991359"><ele>277.0</ele><time>2026-04-25T07:28:40Z</time></trkpt><trkpt lat="44.14963801910241" lon="11.679035681729454"><ele>275.6</ele><time>2026-04-25T07:28:41Z</time></trkpt><trkpt lat="44.149705208639624" lon="11.678903120002934"><ele>274.2</ele><time>2026-04-25T07:28:42Z</time></trkpt><trkpt lat="44.149769891039654" lon="11.678813193902162"><ele>272.8</ele><time>2026-04-25T07:28:43Z</time></trkpt><trkpt lat="44.149816506310316" lon="11.678726026185913"><ele>271.4</ele><time>2026-04-25T07:28:44Z</time></trkpt><trkpt lat="44.14988402987724" lon="11.678665406338034"><ele>270.0</ele><time>2026-04-25T07:28:45Z</time></trkpt><trkpt lat="44.149941961044185" lon="11.678573038566011"><ele>273.6</ele><time>2026-04-25T07:28:46Z</time></trkpt><trkpt lat="44.149987912161805" lon="11.678451505136636"><ele>277.2</ele><time>2026-04-25T07:28:47Z</time></trkpt><trkpt lat="44.15002832960511" lon="11.678317382382959"><ele>280.8</ele><time>2026-04-25T07:28:48Z</time></trkpt><trkpt lat="44.150068838126515" lon="11.678213701875874"><ele>284.4</ele><time>2026-04-25T07:28:49Z</time></trkpt><trkpt lat="44.15010281486063" lon="11.678109238867421"><ele>288.0</ele><time>2026-04-25T07:28:50Z</time></trkpt><trkpt lat="44.15014202411687" lon="11.677988251081441"><ele>288.0</ele><time>2026-04-25T07:28:51Z</time></trkpt><trkpt lat="44.15017572389979" lon="11.677875076454622"><ele>288.0</ele><time>2026-04-25T07:28:52Z</time></trkpt><trkpt lat="44.15019731006736" lon="11.677758229605468"><ele>288.0</ele><time>2026-04-25T07:28:53Z</time></trkpt><trkpt lat="44.15021610857754" lon="11.677634621297667"><ele>288.0</ele><time>2026-04-25T07:28:54Z</time></trkpt><trkpt lat="44.15024859581997" lon="11.677513674268711"><ele>288.0</ele><time>2026-04-25T07:28:55Z</time></trkpt><trkpt lat="44.15027634364541" lon="11.677360239691577"><ele>290.4</ele><time>2026-04-25T07:28:56Z</time></trkpt><trkpt lat="44.150315694612466" lon="11.677212768435947"><ele>292.8</ele><time>2026-04-25T07:28:57Z</time></trkpt><trkpt lat="44.15036606385569" lon="11.677078433795412"><ele>295.2</ele><time>2026-04-25T07:28:58Z</time></trkpt><trkpt lat="44.15039483343477" lon="11.676955810153693"><ele>297.6</ele><time>2026-04-25T07:28:59Z</time></trkpt><trkpt lat="44.150411433883974" lon="11.676818807750964"><ele>300.0</ele><time>2026-04-25T07:29:00Z</time></trkpt><trkpt lat="44.15041036582752" lon="11.676657788228969"><ele>302.2</ele><time>2026-04-25T07:29:01Z</time></trkpt><trkpt lat="44.150404109214065" lon="11.676514290792017"><ele>304.4</ele><time>2026-04-25T07:29:02Z</time></trkpt><trkpt lat="44.15039854908199" lon="11.676384501000696"><ele>306.6</ele><time>2026-04-25T07:29:03Z</time></trkpt><trkpt lat="44.15041076425928" lon="11.676243295294572"><ele>308.8</ele><time>2026-04-25T07:29:04Z</time></trkpt><trkpt lat="44.15043042548003" lon="11.676093805356373"><ele>311.0</ele><time>2026-04-25T07:29:05Z</time></trkpt><trkpt lat="44.15042463090191" lon="11.675933200276319"><ele>312.6</ele><time>2026-04-25T07:29:06Z</time></trkpt><trkpt lat="44.15041791411165" lon="11.675793902618079"><ele>314.20000000000005</ele><time>2026-04-25T07:29:07Z</time></trkpt><trkpt lat="44.1504388659552" lon="11.675667191125337"><ele>315.79999999999995</ele><time>2026-04-25T07:29:08Z</time></trkpt><trkpt lat="44.150447098891554" lon="11.6755421134279"><ele>317.4</ele><time>2026-04-25T07:29:09Z</time></trkpt><trkpt lat="44.15045417814951" lon="11.67535174532162"><ele>319.0</ele><time>2026-04-25T07:29:10Z</time></trkpt><trkpt lat="44.15045658374985" lon="11.675198256837103"><ele>319.5</ele><time>2026-04-25T07:29:11Z</time></trkpt><trkpt lat="44.15044270114036" lon="11.67503781071133"><ele>320.0</ele><time>2026-04-25T07:29:12Z</time></trkpt><trkpt lat="44.150418240836196" lon="11.674886003236677"><ele>320.5</ele><time>2026-04-25T07:29:13Z</time></trkpt><trkpt lat="44.15036451774269" lon="11.674726370617156"><ele>321.0</ele><time>2026-04-25T07:29:14Z</time></trkpt><trkpt lat="44.15031750566366" lon="11.674555380207522"><ele>319.0</ele><time>2026-04-25T07:29:15Z</time></trkpt><trkpt lat="44.15027156625635" lon="11.674387289886447"><ele>317.0</ele><time>2026-04-25T07:29:16Z</time></trkpt><trkpt lat="44.15023042828179" lon="11.674232259902995"><ele>315.0</ele><time>2026-04-25T07:29:17Z</time></trkpt><trkpt lat="44.15019904475416" lon="11.674083812682566"><ele>313.0</ele><time>2026-04-25T07:29:18Z</time></trkpt><trkpt lat="44.150178411588364" lon="11.673955117139274"><ele>313.0</ele><time>2026-04-25T07:29:19Z</time></trkpt><trkpt lat="44.15013111590167" lon="11.673774964024897"><ele>313.0</ele><time>2026-04-25T07:29:20Z</time></trkpt><trkpt lat="44.15008286280671" lon="11.673574714640422"><ele>313.0</ele><time>2026-04-25T07:29:21Z</time></trkpt><trkpt lat="44.15002765668131" lon="11.673365519899265"><ele>313.0</ele><time>2026-04-25T07:29:22Z</time></trkpt><trkpt lat="44.149972922291575" lon="11.673151224084343"><ele>310.0</ele><time>2026-04-25T07:29:23Z</time></trkpt><trkpt lat="44.14992028649791" lon="11.672952557444122"><ele>307.0</ele><time>2026-04-25T07:29:24Z</time></trkpt><trkpt lat="44.149895977437396" lon="11.672741975193043"><ele>304.0</ele><time>2026-04-25T07:29:25Z</time></trkpt><trkpt lat="44.14986255547549" lon="11.672541636828672"><ele>312.0</ele><time>2026-04-25T07:29:26Z</time></trkpt><trkpt lat="44.149824552138945" lon="11.672377549155092"><ele>320.0</ele><time>2026-04-25T07:29:27Z</time></trkpt><trkpt lat="44.14979918419064" lon="11.672192978312168"><ele>328.0</ele><time>2026-04-25T07:29:28Z</time></trkpt><trkpt lat="44.14976767550369" lon="11.67199861631529"><ele>336.0</ele><time>2026-04-25T07:29:29Z</time></trkpt><trkpt lat="44.149739581595604" lon="11.671804907966413"><ele>336.0</ele><time>2026-04-25T07:29:30Z</time></trkpt><trkpt lat="44.14970801250502" lon="11.67160146702792"><ele>336.0</ele><time>2026-04-25T07:29:31Z</time></trkpt><trkpt lat="44.14971817463714" lon="11.671442546033985"><ele>336.0</ele><time>2026-04-25T07:29:32Z</time></trkpt><trkpt lat="44.14968274088895" lon="11.671279230917902"><ele>336.0</ele><time>2026-04-25T07:29:33Z</time></trkpt><trkpt lat="44.14965421789962" lon="11.67114499198333"><ele>333.0</ele><time>2026-04-25T07:29:34Z</time></trkpt><trkpt lat="44.14963323218215" lon="11.670999900692255"><ele>330.0</ele><time>2026-04-25T07:29:35Z</time></trkpt><trkpt lat="44.149608649986014" lon="11.6708577712165"><ele>327.0</ele><time>2026-04-25T07:29:36Z</time></trkpt><trkpt lat="44.149631153362634" lon="11.670761202389201"><ele>324.0</ele><time>2026-04-25T07:29:37Z</time></trkpt><trkpt lat="44.14968681811232" lon="11.670669935478381"><ele>321.0</ele><time>2026-04-25T07:29:38Z</time></trkpt><trkpt lat="44.149787282625184" lon="11.670650265338013"><ele>317.6</ele><time>2026-04-25T07:29:39Z</time></trkpt><trkpt lat="44.149883417203945" lon="11.670586541983557"><ele>314.20000000000005</ele><time>2026-04-25T07:29:40Z</time></trkpt><trkpt lat="44.14996980818842" lon="11.670516417642903"><ele>310.79999999999995</ele><time>2026-04-25T07:29:41Z</time></trkpt><trkpt lat="44.15007689403226" lon="11.67046008891694"><ele>307.4</ele><time>2026-04-25T07:29:42Z</time></trkpt><trkpt lat="44.150194885865815" lon="11.670407070197454"><ele>304.0</ele><time>2026-04-25T07:29:43Z</time></trkpt><trkpt lat="44.1502571167007" lon="11.670296457100786"><ele>308.6</ele><time>2026-04-25T07:29:45Z</time></trkpt><trkpt lat="44.15036922861742" lon="11.670234726920414"><ele>313.2</ele><time>2026-04-25T07:29:46Z</time></trkpt><trkpt lat="44.15046283562022" lon="11.670166210395598"><ele>317.8</ele><time>2026-04-25T07:29:47Z</time></trkpt><trkpt lat="44.1505156225853" lon="11.670040074106618"><ele>322.40000000000003</ele><time>2026-04-25T07:29:48Z</time></trkpt><trkpt lat="44.150557670158605" lon="11.669928619898153"><ele>327.0</ele><time>2026-04-25T07:29:49Z</time></trkpt><trkpt lat="44.15063733455132" lon="11.66985415276694"><ele>323.20000000000005</ele><time>2026-04-25T07:29:50Z</time></trkpt><trkpt lat="44.15072119365763" lon="11.66979433218835"><ele>319.40000000000003</ele><time>2026-04-25T07:29:51Z</time></trkpt><trkpt lat="44.150817383684355" lon="11.669713613806906"><ele>315.6</ele><time>2026-04-25T07:29:52Z</time></trkpt><trkpt lat="44.15091286331104" lon="11.669643202408238"><ele>311.8</ele><time>2026-04-25T07:29:53Z</time></trkpt><trkpt lat="44.150996470192126" lon="11.66958462226915"><ele>308.0</ele><time>2026-04-25T07:29:54Z</time></trkpt><trkpt lat="44.151092291328084" lon="11.669512221255715"><ele>308.0</ele><time>2026-04-25T07:29:55Z</time></trkpt><trkpt lat="44.15117936398344" lon="11.669446711787806"><ele>308.0</ele><time>2026-04-25T07:29:56Z</time></trkpt><trkpt lat="44.15127063157247" lon="11.669396566502295"><ele>308.0</ele><time>2026-04-25T07:29:57Z</time></trkpt><trkpt lat="44.15138091510687" lon="11.66935330945789"><ele>308.0</ele><time>2026-04-25T07:29:58Z</time></trkpt><trkpt lat="44.15149484887917" lon="11.669327750305984"><ele>308.0</ele><time>2026-04-25T07:29:59Z</time></trkpt><trkpt lat="44.15158113388899" lon="11.669327563466592"><ele>309.83333333333337</ele><time>2026-04-25T07:30:00Z</time></trkpt><trkpt lat="44.15165537815096" lon="11.669313655188498"><ele>311.6666666666667</ele><time>2026-04-25T07:30:01Z</time></trkpt><trkpt lat="44.15172014777035" lon="11.669271778948634"><ele>313.5</ele><time>2026-04-25T07:30:02Z</time></trkpt><trkpt lat="44.151777697590475" lon="11.66919196472775"><ele>315.3333333333333</ele><time>2026-04-25T07:30:03Z</time></trkpt><trkpt lat="44.151803701401676" lon="11.669076096225556"><ele>317.16666666666663</ele><time>2026-04-25T07:30:04Z</time></trkpt><trkpt lat="44.151824121495125" lon="11.668941407987376"><ele>319.0</ele><time>2026-04-25T07:30:05Z</time></trkpt><trkpt lat="44.15186106659437" lon="11.668795979439691"><ele>319.0</ele><time>2026-04-25T07:30:06Z</time></trkpt><trkpt lat="44.151900957243654" lon="11.668651948487744"><ele>319.0</ele><time>2026-04-25T07:30:07Z</time></trkpt><trkpt lat="44.151926249061574" lon="11.668515945467245"><ele>319.0</ele><time>2026-04-25T07:30:08Z</time></trkpt><trkpt lat="44.15194691049667" lon="11.668387578101601"><ele>319.0</ele><time>2026-04-25T07:30:09Z</time></trkpt><trkpt lat="44.15193393316418" lon="11.668256189673377"><ele>319.0</ele><time>2026-04-25T07:30:10Z</time></trkpt><trkpt lat="44.151924610821304" lon="11.668131220216608"><ele>320.4</ele><time>2026-04-25T07:30:11Z</time></trkpt><trkpt lat="44.1518925086262" lon="11.66801592507116"><ele>321.79999999999995</ele><time>2026-04-25T07:30:12Z</time></trkpt><trkpt lat="44.15180997199114" lon="11.667935613609373"><ele>323.20000000000005</ele><time>2026-04-25T07:30:13Z</time></trkpt><trkpt lat="44.15174932344884" lon="11.667842978782883"><ele>324.6</ele><time>2026-04-25T07:30:14Z</time></trkpt><trkpt lat="44.15167703575289" lon="11.667750663729075"><ele>326.0</ele><time>2026-04-25T07:30:14.999Z</time></trkpt><trkpt lat="44.15162249293795" lon="11.667652832323462"><ele>326.0</ele><time>2026-04-25T07:30:15.999Z</time></trkpt><trkpt lat="44.151588670485054" lon="11.667547498150956"><ele>326.0</ele><time>2026-04-25T07:30:16.999Z</time></trkpt><trkpt lat="44.1515689374412" lon="11.667424184417577"><ele>326.0</ele><time>2026-04-25T07:30:17.999Z</time></trkpt><trkpt lat="44.1515631497724" lon="11.667283928557122"><ele>326.0</ele><time>2026-04-25T07:30:18.999Z</time></trkpt><trkpt lat="44.151587106113396" lon="11.667136376476906"><ele>326.0</ele><time>2026-04-25T07:30:19.999Z</time></trkpt><trkpt lat="44.15162620408126" lon="11.666988339113662"><ele>325.83333333333337</ele><time>2026-04-25T07:30:20.999Z</time></trkpt><trkpt lat="44.15166399308736" lon="11.666841113837371"><ele>325.6666666666667</ele><time>2026-04-25T07:30:21.999Z</time></trkpt><trkpt lat="44.15171309374054" lon="11.666719337172461"><ele>325.5</ele><time>2026-04-25T07:30:22.999Z</time></trkpt><trkpt lat="44.151744490055876" lon="11.666619488079752"><ele>325.3333333333333</ele><time>2026-04-25T07:30:23.999Z</time></trkpt><trkpt lat="44.15175911431658" lon="11.66652337622449"><ele>325.16666666666663</ele><time>2026-04-25T07:30:24.999Z</time></trkpt><trkpt lat="44.151740030147636" lon="11.666405890054579"><ele>325.0</ele><time>2026-04-25T07:30:25.999Z</time></trkpt><trkpt lat="44.151692793486056" lon="11.666307208765987"><ele>325.0</ele><time>2026-04-25T07:30:26.999Z</time></trkpt><trkpt lat="44.15159450334415" lon="11.666250685319381"><ele>325.0</ele><time>2026-04-25T07:30:27.999Z</time></trkpt><trkpt lat="44.15150863379898" lon="11.666205103618456"><ele>325.0</ele><time>2026-04-25T07:30:28.999Z</time></trkpt><trkpt lat="44.15144301965854" lon="11.666157117654995"><ele>325.0</ele><time>2026-04-25T07:30:29.999Z</time></trkpt><trkpt lat="44.15139865144574" lon="11.666082328258094"><ele>325.0</ele><time>2026-04-25T07:30:31.999Z</time></trkpt><trkpt lat="44.15143544837228" lon="11.6659175406174"><ele>327.16666666666663</ele><time>2026-04-25T07:30:33.999Z</time></trkpt><trkpt lat="44.15144174857876" lon="11.665819256194572"><ele>329.3333333333333</ele><time>2026-04-25T07:30:34.999Z</time></trkpt><trkpt lat="44.15139618585119" lon="11.6657195489237"><ele>331.5</ele><time>2026-04-25T07:30:35.999Z</time></trkpt><trkpt lat="44.15130900706074" lon="11.66565902456701"><ele>333.6666666666667</ele><time>2026-04-25T07:30:36.999Z</time></trkpt><trkpt lat="44.15122263794456" lon="11.665604301436765"><ele>335.83333333333337</ele><time>2026-04-25T07:30:37.999Z</time></trkpt><trkpt lat="44.15117298741937" lon="11.66552045683285"><ele>338.0</ele><time>2026-04-25T07:30:38.999Z</time></trkpt><trkpt lat="44.151134989232844" lon="11.66543337872022"><ele>338.0</ele><time>2026-04-25T07:30:39.999Z</time></trkpt><trkpt lat="44.151113895835536" lon="11.665341659091581"><ele>338.0</ele><time>2026-04-25T07:30:40.999Z</time></trkpt><trkpt lat="44.15106345024405" lon="11.665211254051417"><ele>338.0</ele><time>2026-04-25T07:30:41.999Z</time></trkpt><trkpt lat="44.151036588122025" lon="11.665085071608747"><ele>338.0</ele><time>2026-04-25T07:30:42.999Z</time></trkpt><trkpt lat="44.15099014778063" lon="11.66497695551124"><ele>338.0</ele><time>2026-04-25T07:30:43.999Z</time></trkpt><trkpt lat="44.15095224461248" lon="11.66485366572495"><ele>337.6666666666667</ele><time>2026-04-25T07:30:44.999Z</time></trkpt><trkpt lat="44.15093368350802" lon="11.66474184756539"><ele>337.33333333333337</ele><time>2026-04-25T07:30:45.999Z</time></trkpt><trkpt lat="44.15091342127397" lon="11.664626007615414"><ele>337.0</ele><time>2026-04-25T07:30:46.999Z</time></trkpt><trkpt lat="44.150902613037594" lon="11.66449597019049"><ele>336.6666666666667</ele><time>2026-04-25T07:30:47.999Z</time></trkpt><trkpt lat="44.150894067603865" lon="11.664378626019479"><ele>336.3333333333333</ele><time>2026-04-25T07:30:48.999Z</time></trkpt><trkpt lat="44.15083580304446" lon="11.66426952857523"><ele>336.0</ele><time>2026-04-25T07:30:49.999Z</time></trkpt><trkpt lat="44.15081366082733" lon="11.664152927341856"><ele>336.0</ele><time>2026-04-25T07:30:51Z</time></trkpt><trkpt lat="44.15080086621431" lon="11.664045156603423"><ele>336.0</ele><time>2026-04-25T07:30:52Z</time></trkpt><trkpt lat="44.150811886716426" lon="11.663949734355768"><ele>336.0</ele><time>2026-04-25T07:30:53Z</time></trkpt><trkpt lat="44.15082760029316" lon="11.663804487714536"><ele>336.0</ele><time>2026-04-25T07:30:54Z</time></trkpt><trkpt lat="44.15082491668439" lon="11.663653616267853"><ele>336.0</ele><time>2026-04-25T07:30:55Z</time></trkpt><trkpt lat="44.15083934995089" lon="11.663486505324691"><ele>337.25</ele><time>2026-04-25T07:30:56Z</time></trkpt><trkpt lat="44.15085073635644" lon="11.66331618921366"><ele>338.5</ele><time>2026-04-25T07:30:57Z</time></trkpt><trkpt lat="44.15084967909457" lon="11.663153177141131"><ele>339.75</ele><time>2026-04-25T07:30:58Z</time></trkpt><trkpt lat="44.15085616059796" lon="11.663021686455568"><ele>341.0</ele><time>2026-04-25T07:30:59Z</time></trkpt><trkpt lat="44.15091006965294" lon="11.662831834165825"><ele>342.0</ele><time>2026-04-25T07:31:01Z</time></trkpt><trkpt lat="44.15094483511116" lon="11.662703221054954"><ele>343.0</ele><time>2026-04-25T07:31:02Z</time></trkpt><trkpt lat="44.15099140205616" lon="11.662555853197057"><ele>344.0</ele><time>2026-04-25T07:31:03Z</time></trkpt><trkpt lat="44.15101741934235" lon="11.66240325865546"><ele>345.0</ele><time>2026-04-25T07:31:04Z</time></trkpt><trkpt lat="44.15106356520052" lon="11.662276974337997"><ele>346.0</ele><time>2026-04-25T07:31:05Z</time></trkpt><trkpt lat="44.1510536468413" lon="11.662144036705062"><ele>346.0</ele><time>2026-04-25T07:31:06Z</time></trkpt><trkpt lat="44.15103615348006" lon="11.662018187766675"><ele>346.0</ele><time>2026-04-25T07:31:07Z</time></trkpt><trkpt lat="44.15102696302872" lon="11.661880436037631"><ele>346.0</ele><time>2026-04-25T07:31:08Z</time></trkpt><trkpt lat="44.151002942036506" lon="11.661749084351204"><ele>346.0</ele><time>2026-04-25T07:31:09Z</time></trkpt><trkpt lat="44.150994218619594" lon="11.661632348378639"><ele>346.0</ele><time>2026-04-25T07:31:10Z</time></trkpt><trkpt lat="44.151006089648696" lon="11.661486507794578"><ele>347.20000000000005</ele><time>2026-04-25T07:31:12Z</time></trkpt><trkpt lat="44.15106572002678" lon="11.661331157640829"><ele>348.40000000000003</ele><time>2026-04-25T07:31:14Z</time></trkpt><trkpt lat="44.15114289528612" lon="11.66127339862309"><ele>349.6</ele><time>2026-04-25T07:31:15Z</time></trkpt><trkpt lat="44.15121456310805" lon="11.661164801175564"><ele>350.8</ele><time>2026-04-25T07:31:16Z</time></trkpt><trkpt lat="44.15131124029654" lon="11.661064041590537"><ele>352.0</ele><time>2026-04-25T07:31:17Z</time></trkpt><trkpt lat="44.15140323247253" lon="11.660954455217263"><ele>352.0</ele><time>2026-04-25T07:31:18Z</time></trkpt><trkpt lat="44.151491667037504" lon="11.660853269572595"><ele>352.0</ele><time>2026-04-25T07:31:19Z</time></trkpt><trkpt lat="44.15156437089904" lon="11.660723068501893"><ele>352.0</ele><time>2026-04-25T07:31:20Z</time></trkpt><trkpt lat="44.151645216398464" lon="11.660610005175762"><ele>352.0</ele><time>2026-04-25T07:31:21Z</time></trkpt><trkpt lat="44.15169856472836" lon="11.660470700321687"><ele>352.8</ele><time>2026-04-25T07:31:22Z</time></trkpt><trkpt lat="44.15177971506209" lon="11.660370531440387"><ele>353.6</ele><time>2026-04-25T07:31:23Z</time></trkpt><trkpt lat="44.15185320614427" lon="11.6602343481821"><ele>354.40000000000003</ele><time>2026-04-25T07:31:24Z</time></trkpt><trkpt lat="44.15188599398178" lon="11.6601210948583"><ele>355.20000000000005</ele><time>2026-04-25T07:31:25Z</time></trkpt><trkpt lat="44.151911052932626" lon="11.660012024655021"><ele>356.0</ele><time>2026-04-25T07:31:26Z</time></trkpt><trkpt lat="44.15194086681807" lon="11.65990940546274"><ele>356.0</ele><time>2026-04-25T07:31:27Z</time></trkpt><trkpt lat="44.15200327789719" lon="11.659826818086945"><ele>356.0</ele><time>2026-04-25T07:31:28Z</time></trkpt><trkpt lat="44.152073713386095" lon="11.659809562085064"><ele>356.0</ele><time>2026-04-25T07:31:29Z</time></trkpt><trkpt lat="44.15214641368324" lon="11.659863820638547"><ele>356.0</ele><time>2026-04-25T07:31:30Z</time></trkpt><trkpt lat="44.15222263143071" lon="11.659896630783004"><ele>356.0</ele><time>2026-04-25T07:31:31Z</time></trkpt><trkpt lat="44.15232789183718" lon="11.659901302311079"><ele>356.0</ele><time>2026-04-25T07:31:32Z</time></trkpt><trkpt lat="44.152432955675664" lon="11.659888235530286"><ele>361.0</ele><time>2026-04-25T07:31:33Z</time></trkpt><trkpt lat="44.1525320823114" lon="11.659853993750026"><ele>366.0</ele><time>2026-04-25T07:31:34Z</time></trkpt><trkpt lat="44.152631788418645" lon="11.659801354983667"><ele>371.0</ele><time>2026-04-25T07:31:35Z</time></trkpt><trkpt lat="44.15271170190812" lon="11.65975688630972"><ele>376.0</ele><time>2026-04-25T07:31:36Z</time></trkpt><trkpt lat="44.15279837794061" lon="11.65971763251517"><ele>381.0</ele><time>2026-04-25T07:31:37Z</time></trkpt><trkpt lat="44.15289771984263" lon="11.659683933227772"><ele>381.0</ele><time>2026-04-25T07:31:38Z</time></trkpt><trkpt lat="44.15298410725489" lon="11.659689818682292"><ele>381.0</ele><time>2026-04-25T07:31:39Z</time></trkpt><trkpt lat="44.1530784343982" lon="11.659716771418212"><ele>381.0</ele><time>2026-04-25T07:31:40Z</time></trkpt><trkpt lat="44.153194629234186" lon="11.659750055967823"><ele>381.0</ele><time>2026-04-25T07:31:41Z</time></trkpt><trkpt lat="44.15333525013419" lon="11.659771420971627"><ele>381.0</ele><time>2026-04-25T07:31:42Z</time></trkpt><trkpt lat="44.15346877081963" lon="11.659810597137085"><ele>382.20000000000005</ele><time>2026-04-25T07:31:43Z</time></trkpt><trkpt lat="44.153597466520694" lon="11.65982920587839"><ele>383.40000000000003</ele><time>2026-04-25T07:31:44Z</time></trkpt><trkpt lat="44.15371065384087" lon="11.659854620223005"><ele>384.6</ele><time>2026-04-25T07:31:45Z</time></trkpt><trkpt lat="44.153801407175294" lon="11.659861197744313"><ele>385.8</ele><time>2026-04-25T07:31:46Z</time></trkpt><trkpt lat="44.153880558135555" lon="11.659902082857803"><ele>387.0</ele><time>2026-04-25T07:31:47Z</time></trkpt><trkpt lat="44.15394756316644" lon="11.659909250415962"><ele>387.0</ele><time>2026-04-25T07:31:48Z</time></trkpt><trkpt lat="44.15400458153562" lon="11.659948056272565"><ele>387.0</ele><time>2026-04-25T07:31:49Z</time></trkpt><trkpt lat="44.15413205135689" lon="11.659894119439114"><ele>387.0</ele><time>2026-04-25T07:31:51Z</time></trkpt><trkpt lat="44.154201785526155" lon="11.659785187330963"><ele>387.0</ele><time>2026-04-25T07:31:53Z</time></trkpt><trkpt lat="44.154080127436735" lon="11.659538976384193"><ele>387.0</ele><time>2026-04-25T07:31:55Z</time></trkpt><trkpt lat="44.15401645071279" lon="11.659495586734668"><ele>387.0</ele><time>2026-04-25T07:31:56Z</time></trkpt><trkpt lat="44.153914669331115" lon="11.659436801529335"><ele>387.0</ele><time>2026-04-25T07:31:57Z</time></trkpt><trkpt lat="44.15378642145036" lon="11.659376560271532"><ele>387.0</ele><time>2026-04-25T07:31:58Z</time></trkpt><trkpt lat="44.153683832588385" lon="11.659303017431759"><ele>387.0</ele><time>2026-04-25T07:31:59Z</time></trkpt><trkpt lat="44.15357796147378" lon="11.659213407251395"><ele>386.6</ele><time>2026-04-25T07:32:00Z</time></trkpt><trkpt lat="44.153502112413236" lon="11.659156320162149"><ele>386.20000000000005</ele><time>2026-04-25T07:32:01Z</time></trkpt><trkpt lat="44.15340089377914" lon="11.659031781967863"><ele>385.8</ele><time>2026-04-25T07:32:03Z</time></trkpt><trkpt lat="44.15336766572052" lon="11.658908493625631"><ele>385.4</ele><time>2026-04-25T07:32:04Z</time></trkpt><trkpt lat="44.15333370612644" lon="11.658742893900866"><ele>385.0</ele><time>2026-04-25T07:32:05Z</time></trkpt><trkpt lat="44.153301832432696" lon="11.658564477768458"><ele>385.0</ele><time>2026-04-25T07:32:06Z</time></trkpt><trkpt lat="44.153276432871984" lon="11.658372865178018"><ele>385.0</ele><time>2026-04-25T07:32:07Z</time></trkpt><trkpt lat="44.15324681306761" lon="11.658199124868036"><ele>385.0</ele><time>2026-04-25T07:32:08Z</time></trkpt><trkpt lat="44.15320997526537" lon="11.658055508017922"><ele>385.0</ele><time>2026-04-25T07:32:09Z</time></trkpt><trkpt lat="44.1531910965489" lon="11.657862488137848"><ele>385.00000000000006</ele><time>2026-04-25T07:32:11Z</time></trkpt><trkpt lat="44.15320516340807" lon="11.657731380550679"><ele>385.0</ele><time>2026-04-25T07:32:12Z</time></trkpt><trkpt lat="44.153227315462594" lon="11.657628689853857"><ele>385.0</ele><time>2026-04-25T07:32:13Z</time></trkpt><trkpt lat="44.15324203628245" lon="11.657499796546798"><ele>385.0</ele><time>2026-04-25T07:32:15Z</time></trkpt><trkpt lat="44.15329146595365" lon="11.657399322832324"><ele>385.00000000000006</ele><time>2026-04-25T07:33:00Z</time></trkpt><trkpt lat="44.15329230283602" lon="11.65730674612697"><ele>385.0</ele><time>2026-04-25T07:33:01Z</time></trkpt><trkpt lat="44.153290073462756" lon="11.657196477955642"><ele>385.2</ele><time>2026-04-25T07:33:02Z</time></trkpt><trkpt lat="44.153281216260524" lon="11.657055257695092"><ele>385.4</ele><time>2026-04-25T07:33:03Z</time></trkpt><trkpt lat="44.153266969456084" lon="11.65692106217046"><ele>385.6</ele><time>2026-04-25T07:33:04Z</time></trkpt><trkpt lat="44.15325501923886" lon="11.6567851722242"><ele>385.8</ele><time>2026-04-25T07:33:05Z</time></trkpt><trkpt lat="44.15323950705559" lon="11.656685031001299"><ele>386.0</ele><time>2026-04-25T07:33:06Z</time></trkpt><trkpt lat="44.15320484591187" lon="11.656585312804735"><ele>386.0</ele><time>2026-04-25T07:33:07Z</time></trkpt><trkpt lat="44.153153339982616" lon="11.656479595105846"><ele>386.0</ele><time>2026-04-25T07:33:08Z</time></trkpt><trkpt lat="44.15308391884915" lon="11.656367397272524"><ele>386.0</ele><time>2026-04-25T07:33:09Z</time></trkpt><trkpt lat="44.153013181179894" lon="11.65625804162506"><ele>386.0</ele><time>2026-04-25T07:33:10Z</time></trkpt><trkpt lat="44.15296453494637" lon="11.656167440326076"><ele>386.0</ele><time>2026-04-25T07:33:11Z</time></trkpt><trkpt lat="44.15293805252473" lon="11.656080757168747"><ele>385.49999999999994</ele><time>2026-04-25T07:33:12Z</time></trkpt><trkpt lat="44.15294809522597" lon="11.655990334850404"><ele>385.0</ele><time>2026-04-25T07:33:13Z</time></trkpt><trkpt lat="44.15297890978642" lon="11.65589001285494"><ele>384.5</ele><time>2026-04-25T07:33:14Z</time></trkpt><trkpt lat="44.15303631313793" lon="11.65576850407287"><ele>384.0</ele><time>2026-04-25T07:33:15Z</time></trkpt><trkpt lat="44.15307221975265" lon="11.65565446552414"><ele>383.5</ele><time>2026-04-25T07:33:16Z</time></trkpt><trkpt lat="44.15308560351199" lon="11.655554453766623"><ele>383.0</ele><time>2026-04-25T07:33:17Z</time></trkpt><trkpt lat="44.15307581558906" lon="11.65546308068775"><ele>383.0</ele><time>2026-04-25T07:33:18Z</time></trkpt><trkpt lat="44.15304522314124" lon="11.65538025100274"><ele>383.0</ele><time>2026-04-25T07:33:19Z</time></trkpt><trkpt lat="44.15299908571541" lon="11.655314189572488"><ele>383.0</ele><time>2026-04-25T07:33:20Z</time></trkpt><trkpt lat="44.152890502632054" lon="11.6552567762463"><ele>383.0</ele><time>2026-04-25T07:33:22Z</time></trkpt><trkpt lat="44.15279182949566" lon="11.655187065775856"><ele>383.0</ele><time>2026-04-25T07:34:13Z</time></trkpt><trkpt lat="44.1527660381446" lon="11.655090682815892"><ele>383.0</ele><time>2026-04-25T07:34:14Z</time></trkpt><trkpt lat="44.15271179148216" lon="11.654987841160803"><ele>385.0</ele><time>2026-04-25T07:34:15Z</time></trkpt><trkpt lat="44.15266812918751" lon="11.654852638730084"><ele>387.0</ele><time>2026-04-25T07:34:16Z</time></trkpt><trkpt lat="44.15261056399775" lon="11.654704387394657"><ele>389.0</ele><time>2026-04-25T07:34:17Z</time></trkpt><trkpt lat="44.15256018843044" lon="11.654585135751898"><ele>391.0</ele><time>2026-04-25T07:34:18Z</time></trkpt><trkpt lat="44.15252123459727" lon="11.654469768070058"><ele>393.0</ele><time>2026-04-25T07:34:19Z</time></trkpt><trkpt lat="44.1525059063185" lon="11.654378109463234"><ele>394.6666666666667</ele><time>2026-04-25T07:34:20Z</time></trkpt><trkpt lat="44.152511861099256" lon="11.654279017046122"><ele>396.33333333333337</ele><time>2026-04-25T07:34:21Z</time></trkpt><trkpt lat="44.15253141052816" lon="11.654176371363539"><ele>398.0</ele><time>2026-04-25T07:34:22Z</time></trkpt><trkpt lat="44.15256467037699" lon="11.65405752739601"><ele>399.6666666666667</ele><time>2026-04-25T07:34:23Z</time></trkpt><trkpt lat="44.15260599576902" lon="11.65392211799072"><ele>401.33333333333337</ele><time>2026-04-25T07:34:24Z</time></trkpt><trkpt lat="44.152641329926624" lon="11.653793011062614"><ele>403.0</ele><time>2026-04-25T07:34:25Z</time></trkpt><trkpt lat="44.15265888063103" lon="11.65364796298925"><ele>404.2</ele><time>2026-04-25T07:34:26Z</time></trkpt><trkpt lat="44.15267032248001" lon="11.653500902049823"><ele>405.4</ele><time>2026-04-25T07:34:27Z</time></trkpt><trkpt lat="44.15267592465986" lon="11.653340733679258"><ele>406.59999999999997</ele><time>2026-04-25T07:34:28Z</time></trkpt><trkpt lat="44.15268628649022" lon="11.653197893851697"><ele>407.79999999999995</ele><time>2026-04-25T07:34:29Z</time></trkpt><trkpt lat="44.152692446262606" lon="11.653100564213535"><ele>409.0</ele><time>2026-04-25T07:34:30Z</time></trkpt><trkpt lat="44.1526995100906" lon="11.652975327800966"><ele>409.0</ele><time>2026-04-25T07:34:31Z</time></trkpt><trkpt lat="44.15272749056589" lon="11.652880640709915"><ele>409.0</ele><time>2026-04-25T07:34:32Z</time></trkpt><trkpt lat="44.152770160947405" lon="11.652791985805658"><ele>409.0</ele><time>2026-04-25T07:34:33Z</time></trkpt><trkpt lat="44.152835681240596" lon="11.652709064605778"><ele>409.0</ele><time>2026-04-25T07:34:34Z</time></trkpt><trkpt lat="44.15292827372204" lon="11.652640616452798"><ele>409.0</ele><time>2026-04-25T07:34:35Z</time></trkpt><trkpt lat="44.15304885416424" lon="11.652582890752072"><ele>410.4</ele><time>2026-04-25T07:34:36Z</time></trkpt><trkpt lat="44.15315243701987" lon="11.65254355658652"><ele>411.79999999999995</ele><time>2026-04-25T07:34:37Z</time></trkpt><trkpt lat="44.1532278442072" lon="11.652493021575651"><ele>413.20000000000005</ele><time>2026-04-25T07:34:38Z</time></trkpt><trkpt lat="44.15328880551544" lon="11.652420431456763"><ele>414.6</ele><time>2026-04-25T07:34:39Z</time></trkpt><trkpt lat="44.15331755712338" lon="11.652332417827852"><ele>416.0</ele><time>2026-04-25T07:34:40Z</time></trkpt><trkpt lat="44.15330525733852" lon="11.652181035199131"><ele>416.0</ele><time>2026-04-25T07:34:42Z</time></trkpt><trkpt lat="44.15324869121494" lon="11.6521228104159"><ele>416.0</ele><time>2026-04-25T07:34:43Z</time></trkpt><trkpt lat="44.15317057693979" lon="11.65209906318278"><ele>416.0</ele><time>2026-04-25T07:34:44Z</time></trkpt><trkpt lat="44.15308192087838" lon="11.652094075640674"><ele>416.0</ele><time>2026-04-25T07:34:45Z</time></trkpt><trkpt lat="44.152977849044774" lon="11.652102098655769"><ele>416.0</ele><time>2026-04-25T07:34:46Z</time></trkpt><trkpt lat="44.15287067830585" lon="11.652097756002131"><ele>416.0</ele><time>2026-04-25T07:34:47Z</time></trkpt><trkpt lat="44.15277954207615" lon="11.652080764189995"><ele>416.0</ele><time>2026-04-25T07:34:48Z</time></trkpt><trkpt lat="44.15269920066266" lon="11.652059303885274"><ele>416.0</ele><time>2026-04-25T07:34:49Z</time></trkpt><trkpt lat="44.15258748728914" lon="11.652024996214344"><ele>416.0</ele><time>2026-04-25T07:34:50Z</time></trkpt><trkpt lat="44.15248332845574" lon="11.652010779886488"><ele>416.0</ele><time>2026-04-25T07:34:51Z</time></trkpt><trkpt lat="44.152376235435774" lon="11.651983669946963"><ele>419.99999999999994</ele><time>2026-04-25T07:34:52Z</time></trkpt><trkpt lat="44.15228482137958" lon="11.651954441716018"><ele>424.0</ele><time>2026-04-25T07:34:53Z</time></trkpt><trkpt lat="44.152202785495035" lon="11.651919340282491"><ele>428.0</ele><time>2026-04-25T07:34:54Z</time></trkpt><trkpt lat="44.15212924659977" lon="11.651899218204012"><ele>432.0</ele><time>2026-04-25T07:34:55Z</time></trkpt><trkpt lat="44.152047901700726" lon="11.651824732067428"><ele>435.99999999999994</ele><time>2026-04-25T07:34:56Z</time></trkpt><trkpt lat="44.1520024769678" lon="11.651763276631934"><ele>440.0</ele><time>2026-04-25T07:34:57Z</time></trkpt><trkpt lat="44.15189058584906" lon="11.651717467873592"><ele>439.99999999999994</ele><time>2026-04-25T07:34:59Z</time></trkpt><trkpt lat="44.15179515586055" lon="11.651716099096298"><ele>440.0</ele><time>2026-04-25T07:35:00Z</time></trkpt><trkpt lat="44.151730666467174" lon="11.651709210946079"><ele>440.0</ele><time>2026-04-25T07:35:01Z</time></trkpt><trkpt lat="44.151613581645115" lon="11.65177588228707"><ele>440.0</ele><time>2026-04-25T07:35:02Z</time></trkpt><trkpt lat="44.151539354172336" lon="11.651805887328832"><ele>439.99999999999994</ele><time>2026-04-25T07:35:03Z</time></trkpt><trkpt lat="44.15146412007191" lon="11.651802720968176"><ele>440.0</ele><time>2026-04-25T07:35:04Z</time></trkpt><trkpt lat="44.15137714376628" lon="11.651769362754141"><ele>437.16666666666663</ele><time>2026-04-25T07:35:05Z</time></trkpt><trkpt lat="44.15129042588418" lon="11.651715792204588"><ele>434.3333333333333</ele><time>2026-04-25T07:35:06Z</time></trkpt><trkpt lat="44.15121650113847" lon="11.65165317438455"><ele>431.5</ele><time>2026-04-25T07:35:07Z</time></trkpt><trkpt lat="44.15116381559821" lon="11.651578252907898"><ele>428.66666666666663</ele><time>2026-04-25T07:35:08Z</time></trkpt><trkpt lat="44.15111609035739" lon="11.651484421239573"><ele>425.8333333333333</ele><time>2026-04-25T07:35:09Z</time></trkpt><trkpt lat="44.15107628389539" lon="11.651364787881027"><ele>423.0</ele><time>2026-04-25T07:35:10Z</time></trkpt><trkpt lat="44.15103543201654" lon="11.651237766752715"><ele>423.0</ele><time>2026-04-25T07:35:11Z</time></trkpt><trkpt lat="44.150978266208334" lon="11.651132089082495"><ele>423.0</ele><time>2026-04-25T07:35:12Z</time></trkpt><trkpt lat="44.15090944708209" lon="11.65106558061104"><ele>423.0</ele><time>2026-04-25T07:35:13Z</time></trkpt><trkpt lat="44.15081490167882" lon="11.651008487653215"><ele>423.0</ele><time>2026-04-25T07:35:14Z</time></trkpt><trkpt lat="44.15069472957423" lon="11.650946951630694"><ele>423.0</ele><time>2026-04-25T07:35:15Z</time></trkpt><trkpt lat="44.15059119186912" lon="11.650861229651305"><ele>425.0</ele><time>2026-04-25T07:35:16Z</time></trkpt><trkpt lat="44.15049083454664" lon="11.650820502165196"><ele>427.0</ele><time>2026-04-25T07:35:17Z</time></trkpt><trkpt lat="44.15038098399615" lon="11.65080282030687"><ele>428.99999999999994</ele><time>2026-04-25T07:35:18Z</time></trkpt><trkpt lat="44.150279054457535" lon="11.650790844428984"><ele>431.0</ele><time>2026-04-25T07:35:19Z</time></trkpt><trkpt lat="44.15021365556474" lon="11.650783858664708"><ele>433.0</ele><time>2026-04-25T07:35:20Z</time></trkpt><trkpt lat="44.15011909802923" lon="11.65069392491713"><ele>433.0</ele><time>2026-04-25T07:35:22Z</time></trkpt><trkpt lat="44.15005256647307" lon="11.650619658422714"><ele>432.99999999999994</ele><time>2026-04-25T07:35:23Z</time></trkpt><trkpt lat="44.15008400635901" lon="11.650444844558582"><ele>432.99999999999994</ele><time>2026-04-25T07:35:25Z</time></trkpt><trkpt lat="44.15011717499068" lon="11.650342862644447"><ele>433.0</ele><time>2026-04-25T07:35:26Z</time></trkpt><trkpt lat="44.15016058087894" lon="11.650242702824118"><ele>433.0</ele><time>2026-04-25T07:35:27Z</time></trkpt><trkpt lat="44.15022498867153" lon="11.650156716107578"><ele>434.2</ele><time>2026-04-25T07:35:28Z</time></trkpt><trkpt lat="44.15029661101059" lon="11.650067953131993"><ele>435.4</ele><time>2026-04-25T07:35:29Z</time></trkpt><trkpt lat="44.15038561068997" lon="11.649966224221851"><ele>436.59999999999997</ele><time>2026-04-25T07:35:30Z</time></trkpt><trkpt lat="44.150476439608916" lon="11.649872570569746"><ele>437.79999999999995</ele><time>2026-04-25T07:35:31Z</time></trkpt><trkpt lat="44.150563493334104" lon="11.649787833023646"><ele>439.0</ele><time>2026-04-25T07:35:32Z</time></trkpt><trkpt lat="44.150615366684804" lon="11.649673985535305"><ele>439.0</ele><time>2026-04-25T07:35:33Z</time></trkpt><trkpt lat="44.15066016435745" lon="11.649543693000632"><ele>439.0</ele><time>2026-04-25T07:35:34Z</time></trkpt><trkpt lat="44.1507066275523" lon="11.64940179728189"><ele>439.0</ele><time>2026-04-25T07:35:35Z</time></trkpt><trkpt lat="44.15076052928496" lon="11.649287204956423"><ele>439.0</ele><time>2026-04-25T07:35:36Z</time></trkpt><trkpt lat="44.15082526645521" lon="11.649159410363428"><ele>439.0</ele><time>2026-04-25T07:35:37Z</time></trkpt><trkpt lat="44.15089636105285" lon="11.649046360510326"><ele>442.79999999999995</ele><time>2026-04-25T07:35:38Z</time></trkpt><trkpt lat="44.15096705756983" lon="11.64892978155716"><ele>446.59999999999997</ele><time>2026-04-25T07:35:39Z</time></trkpt><trkpt lat="44.151038650743715" lon="11.64883749049449"><ele>450.4</ele><time>2026-04-25T07:35:40Z</time></trkpt><trkpt lat="44.15109161230467" lon="11.64872696460868"><ele>454.2</ele><time>2026-04-25T07:35:41Z</time></trkpt><trkpt lat="44.151137004646046" lon="11.64860857459446"><ele>458.0</ele><time>2026-04-25T07:35:42Z</time></trkpt><trkpt lat="44.151177630316624" lon="11.64850053296308"><ele>458.8333333333333</ele><time>2026-04-25T07:35:43Z</time></trkpt><trkpt lat="44.15120675314783" lon="11.648393938640858"><ele>459.66666666666663</ele><time>2026-04-25T07:35:44Z</time></trkpt><trkpt lat="44.15121864757605" lon="11.648288234182665"><ele>460.5</ele><time>2026-04-25T07:35:45Z</time></trkpt><trkpt lat="44.1512000268166" lon="11.648180092398704"><ele>461.33333333333337</ele><time>2026-04-25T07:35:46Z</time></trkpt><trkpt lat="44.151160059815574" lon="11.648061439503289"><ele>462.1666666666667</ele><time>2026-04-25T07:35:47Z</time></trkpt><trkpt lat="44.15111875217995" lon="11.647976650165752"><ele>463.0</ele><time>2026-04-25T07:35:48Z</time></trkpt><trkpt lat="44.151052774698485" lon="11.647927172149311"><ele>463.00000000000006</ele><time>2026-04-25T07:35:49Z</time></trkpt><trkpt lat="44.150972593036705" lon="11.647891179138107"><ele>463.0</ele><time>2026-04-25T07:35:50Z</time></trkpt><trkpt lat="44.150908202903985" lon="11.647873870210269"><ele>463.0</ele><time>2026-04-25T07:35:51Z</time></trkpt><trkpt lat="44.150846501709246" lon="11.647914777763225"><ele>463.0</ele><time>2026-04-25T07:35:52Z</time></trkpt><trkpt lat="44.15079934679254" lon="11.647988048631225"><ele>463.00000000000006</ele><time>2026-04-25T07:35:53Z</time></trkpt><trkpt lat="44.15074915493331" lon="11.648090669075431"><ele>463.0</ele><time>2026-04-25T07:35:54Z</time></trkpt><trkpt lat="44.15070247109967" lon="11.648216677236144"><ele>461.59999999999997</ele><time>2026-04-25T07:35:55Z</time></trkpt><trkpt lat="44.15065782038481" lon="11.648338634150495"><ele>460.19999999999993</ele><time>2026-04-25T07:35:56Z</time></trkpt><trkpt lat="44.150594258060174" lon="11.648402045417429"><ele>458.8</ele><time>2026-04-25T07:35:57Z</time></trkpt><trkpt lat="44.150508563878795" lon="11.648466733423852"><ele>457.4</ele><time>2026-04-25T07:35:58Z</time></trkpt><trkpt lat="44.15042891030782" lon="11.64855122548259"><ele>456.0</ele><time>2026-04-25T07:35:59Z</time></trkpt><trkpt lat="44.150367508282265" lon="11.648639967977163"><ele>456.0</ele><time>2026-04-25T07:36:00Z</time></trkpt><trkpt lat="44.15031316840504" lon="11.648724839150903"><ele>456.0</ele><time>2026-04-25T07:36:01.001Z</time></trkpt><trkpt lat="44.150255270418484" lon="11.648805807163697"><ele>456.0</ele><time>2026-04-25T07:36:02.001Z</time></trkpt><trkpt lat="44.15012678547684" lon="11.648910419836113"><ele>456.0</ele><time>2026-04-25T07:36:04.001Z</time></trkpt><trkpt lat="44.15005140966698" lon="11.6489949771867"><ele>456.0</ele><time>2026-04-25T07:36:05.001Z</time></trkpt><trkpt lat="44.14996743364037" lon="11.64910520882662"><ele>456.0</ele><time>2026-04-25T07:36:06.001Z</time></trkpt><trkpt lat="44.149896319601766" lon="11.64921220715769"><ele>456.0</ele><time>2026-04-25T07:36:07.001Z</time></trkpt><trkpt lat="44.14984154591535" lon="11.649312915825629"><ele>456.0</ele><time>2026-04-25T07:36:08.001Z</time></trkpt><trkpt lat="44.149789145111946" lon="11.649407728334415"><ele>456.0</ele><time>2026-04-25T07:36:09.001Z</time></trkpt><trkpt lat="44.14973179139145" lon="11.64945266241043"><ele>456.0</ele><time>2026-04-25T07:36:10.001Z</time></trkpt><trkpt lat="44.14971260613868" lon="11.649549741038038"><ele>456.0</ele><time>2026-04-25T07:36:11.001Z</time></trkpt><trkpt lat="44.14965493148266" lon="11.649677552810179"><ele>451.4</ele><time>2026-04-25T07:36:13.001Z</time></trkpt><trkpt lat="44.14954027404398" lon="11.649741663521565"><ele>446.8</ele><time>2026-04-25T07:36:15.001Z</time></trkpt><trkpt lat="44.14944035653633" lon="11.649733998081876"><ele>442.19999999999993</ele><time>2026-04-25T07:36:16.001Z</time></trkpt><trkpt lat="44.149346003523" lon="11.649708234232408"><ele>437.59999999999997</ele><time>2026-04-25T07:36:17.001Z</time></trkpt><trkpt lat="44.14925739719222" lon="11.649658947513325"><ele>433.0</ele><time>2026-04-25T07:36:18.001Z</time></trkpt><trkpt lat="44.1491707425704" lon="11.64960729095441"><ele>433.0</ele><time>2026-04-25T07:36:19.001Z</time></trkpt><trkpt lat="44.1491040073088" lon="11.649544913988652"><ele>432.99999999999994</ele><time>2026-04-25T07:36:20.001Z</time></trkpt><trkpt lat="44.14904478500709" lon="11.649448995344322"><ele>432.99999999999994</ele><time>2026-04-25T07:36:21.001Z</time></trkpt><trkpt lat="44.14898492123587" lon="11.649310196265484"><ele>433.0</ele><time>2026-04-25T07:36:22.001Z</time></trkpt><trkpt lat="44.14890681249009" lon="11.649165774123688"><ele>433.0</ele><time>2026-04-25T07:36:23.001Z</time></trkpt><trkpt lat="44.14880448620584" lon="11.6490462689033"><ele>434.83333333333337</ele><time>2026-04-25T07:36:24.001Z</time></trkpt><trkpt lat="44.14873703808213" lon="11.648948761215324"><ele>436.6666666666667</ele><time>2026-04-25T07:36:25.001Z</time></trkpt><trkpt lat="44.14866724256913" lon="11.648866093656139"><ele>438.5</ele><time>2026-04-25T07:36:26.001Z</time></trkpt><trkpt lat="44.1486090663562" lon="11.648801415304002"><ele>440.33333333333337</ele><time>2026-04-25T07:36:27.001Z</time></trkpt><trkpt lat="44.14852349405916" lon="11.648755326964105"><ele>442.1666666666667</ele><time>2026-04-25T07:36:29.001Z</time></trkpt><trkpt lat="44.14846162972064" lon="11.648721697109606"><ele>444.0</ele><time>2026-04-25T07:36:30.001Z</time></trkpt><trkpt lat="44.14838625641964" lon="11.64870117351632"><ele>444.0</ele><time>2026-04-25T07:36:31.001Z</time></trkpt><trkpt lat="44.14830540212444" lon="11.648689325847"><ele>444.0</ele><time>2026-04-25T07:36:32.001Z</time></trkpt><trkpt lat="44.14822155673908" lon="11.648691884424773"><ele>444.0</ele><time>2026-04-25T07:36:33Z</time></trkpt><trkpt lat="44.14815856026598" lon="11.648672593802765"><ele>444.0</ele><time>2026-04-25T07:36:34Z</time></trkpt><trkpt lat="44.148111522764495" lon="11.648601481107105"><ele>444.0</ele><time>2026-04-25T07:36:35Z</time></trkpt><trkpt lat="44.14807987143315" lon="11.64851095083888"><ele>444.0</ele><time>2026-04-25T07:36:36Z</time></trkpt><trkpt lat="44.148080450287694" lon="11.64838665828319"><ele>446.1666666666667</ele><time>2026-04-25T07:36:37Z</time></trkpt><trkpt lat="44.14807994179107" lon="11.648269550795787"><ele>448.33333333333337</ele><time>2026-04-25T07:36:38Z</time></trkpt><trkpt lat="44.14806402539401" lon="11.648175286040598"><ele>450.5</ele><time>2026-04-25T07:36:39Z</time></trkpt><trkpt lat="44.14805110212633" lon="11.648075295638698"><ele>452.6666666666667</ele><time>2026-04-25T07:36:40Z</time></trkpt><trkpt lat="44.148037365338" lon="11.647969974463765"><ele>454.83333333333337</ele><time>2026-04-25T07:36:41Z</time></trkpt><trkpt lat="44.14804256857387" lon="11.647842484621995"><ele>457.0</ele><time>2026-04-25T07:36:42Z</time></trkpt><trkpt lat="44.14803889085128" lon="11.647725860422272"><ele>457.50000000000006</ele><time>2026-04-25T07:36:43Z</time></trkpt><trkpt lat="44.1480463564325" lon="11.647633495861008"><ele>458.0</ele><time>2026-04-25T07:36:44Z</time></trkpt><trkpt lat="44.14806111378006" lon="11.64753107476972"><ele>458.5</ele><time>2026-04-25T07:36:45Z</time></trkpt><trkpt lat="44.148086521814264" lon="11.647430728596506"><ele>459.0</ele><time>2026-04-25T07:36:46Z</time></trkpt><trkpt lat="44.14812725119023" lon="11.647355861921092"><ele>459.50000000000006</ele><time>2026-04-25T07:36:47Z</time></trkpt><trkpt lat="44.14818094673362" lon="11.64726233632366"><ele>460.0</ele><time>2026-04-25T07:36:48Z</time></trkpt><trkpt lat="44.14824277836298" lon="11.647124178991133"><ele>463.0</ele><time>2026-04-25T07:36:49Z</time></trkpt><trkpt lat="44.14830267403857" lon="11.647007404715612"><ele>466.0</ele><time>2026-04-25T07:36:50Z</time></trkpt><trkpt lat="44.14836521380095" lon="11.646909459103268"><ele>469.0</ele><time>2026-04-25T07:36:51Z</time></trkpt><trkpt lat="44.1484139478383" lon="11.64680550769712"><ele>472.0</ele><time>2026-04-25T07:36:52Z</time></trkpt><trkpt lat="44.14845015739099" lon="11.646684158590684"><ele>475.0</ele><time>2026-04-25T07:36:53Z</time></trkpt><trkpt lat="44.14848648184879" lon="11.646572584367577"><ele>475.83333333333337</ele><time>2026-04-25T07:36:54Z</time></trkpt><trkpt lat="44.148541140540274" lon="11.646475895220837"><ele>476.6666666666667</ele><time>2026-04-25T07:36:55Z</time></trkpt><trkpt lat="44.148594486478935" lon="11.646411326558276"><ele>477.5</ele><time>2026-04-25T07:36:56Z</time></trkpt><trkpt lat="44.14864250139229" lon="11.646345786881607"><ele>478.33333333333337</ele><time>2026-04-25T07:36:57Z</time></trkpt><trkpt lat="44.14865286493052" lon="11.646206451157285"><ele>479.1666666666667</ele><time>2026-04-25T07:36:59Z</time></trkpt><trkpt lat="44.14860951573069" lon="11.646123998057222"><ele>480.0</ele><time>2026-04-25T07:37:00Z</time></trkpt><trkpt lat="44.148486554671464" lon="11.646071623250505"><ele>480.4</ele><time>2026-04-25T07:37:02Z</time></trkpt><trkpt lat="44.148396943347805" lon="11.646088301441774"><ele>480.8</ele><time>2026-04-25T07:37:03Z</time></trkpt><trkpt lat="44.14830670726467" lon="11.646127375926431"><ele>481.20000000000005</ele><time>2026-04-25T07:37:04Z</time></trkpt><trkpt lat="44.14820670900392" lon="11.64616555073982"><ele>481.6</ele><time>2026-04-25T07:37:05Z</time></trkpt><trkpt lat="44.14811234012467" lon="11.64619252924059"><ele>482.0</ele><time>2026-04-25T07:37:06Z</time></trkpt><trkpt lat="44.148023725730695" lon="11.646223826564318"><ele>482.0</ele><time>2026-04-25T07:37:07Z</time></trkpt><trkpt lat="44.147935775697476" lon="11.646255939404917"><ele>482.00000000000006</ele><time>2026-04-25T07:37:08Z</time></trkpt><trkpt lat="44.14785227616458" lon="11.64628969801219"><ele>482.00000000000006</ele><time>2026-04-25T07:37:09Z</time></trkpt><trkpt lat="44.147779028556414" lon="11.646355496297998"><ele>482.0</ele><time>2026-04-25T07:37:10Z</time></trkpt><trkpt lat="44.14771594574247" lon="11.64641219413895"><ele>482.0</ele><time>2026-04-25T07:37:11Z</time></trkpt><trkpt lat="44.147580901146924" lon="11.64645590491044"><ele>481.99999999999994</ele><time>2026-04-25T07:37:13Z</time></trkpt><trkpt lat="44.14750795266836" lon="11.646442427612332"><ele>482.0</ele><time>2026-04-25T07:37:14Z</time></trkpt><trkpt lat="44.14743839624059" lon="11.646428367671382"><ele>482.0</ele><time>2026-04-25T07:37:15Z</time></trkpt><trkpt lat="44.14735264603988" lon="11.646371400741897"><ele>482.0</ele><time>2026-04-25T07:37:16Z</time></trkpt><trkpt lat="44.1472923255658" lon="11.646337433154335"><ele>481.99999999999994</ele><time>2026-04-25T07:37:17Z</time></trkpt><trkpt lat="44.14721051952431" lon="11.646225802469027"><ele>482.0</ele><time>2026-04-25T07:37:19Z</time></trkpt><trkpt lat="44.147173882877645" lon="11.646129154968083"><ele>485.3333333333333</ele><time>2026-04-25T07:37:20Z</time></trkpt><trkpt lat="44.14713434196125" lon="11.64601866492914"><ele>488.66666666666663</ele><time>2026-04-25T07:37:21Z</time></trkpt><trkpt lat="44.14710076010547" lon="11.645922614328514"><ele>492.0</ele><time>2026-04-25T07:37:22Z</time></trkpt><trkpt lat="44.14704831933788" lon="11.645865374028421"><ele>495.33333333333337</ele><time>2026-04-25T07:37:23Z</time></trkpt><trkpt lat="44.14699185713019" lon="11.645821966971464"><ele>498.6666666666667</ele><time>2026-04-25T07:37:24Z</time></trkpt><trkpt lat="44.14691724481111" lon="11.645787222619989"><ele>502.0</ele><time>2026-04-25T07:37:25Z</time></trkpt><trkpt lat="44.146844546533906" lon="11.645731271683667"><ele>502.0</ele><time>2026-04-25T07:37:26Z</time></trkpt><trkpt lat="44.14677301050022" lon="11.645687179090368"><ele>502.00000000000006</ele><time>2026-04-25T07:37:27Z</time></trkpt><trkpt lat="44.146698552424645" lon="11.645675121417444"><ele>502.00000000000006</ele><time>2026-04-25T07:37:28Z</time></trkpt><trkpt lat="44.14662094814865" lon="11.645691703160617"><ele>502.0</ele><time>2026-04-25T07:37:29Z</time></trkpt><trkpt lat="44.14651268196498" lon="11.645597843930636"><ele>502.0</ele><time>2026-04-25T07:37:31Z</time></trkpt><trkpt lat="44.14647120272926" lon="11.645440904958338"><ele>499.6</ele><time>2026-04-25T07:37:33Z</time></trkpt><trkpt lat="44.14649462345577" lon="11.64527756470132"><ele>497.20000000000005</ele><time>2026-04-25T07:37:35Z</time></trkpt><trkpt lat="44.1465092028848" lon="11.645154521270676"><ele>494.8</ele><time>2026-04-25T07:37:36Z</time></trkpt><trkpt lat="44.14652083209849" lon="11.645024829605518"><ele>492.4</ele><time>2026-04-25T07:37:37Z</time></trkpt><trkpt lat="44.146525016901286" lon="11.644900706796564"><ele>490.0</ele><time>2026-04-25T07:37:38Z</time></trkpt><trkpt lat="44.146522531666704" lon="11.644795043812431"><ele>490.00000000000006</ele><time>2026-04-25T07:37:39Z</time></trkpt><trkpt lat="44.14650150743926" lon="11.644709411620747"><ele>490.0</ele><time>2026-04-25T07:37:40Z</time></trkpt><trkpt lat="44.14650352015739" lon="11.644581092146423"><ele>490.0</ele><time>2026-04-25T07:37:42Z</time></trkpt><trkpt lat="44.14659299045046" lon="11.644498834438599"><ele>490.0</ele><time>2026-04-25T07:37:44Z</time></trkpt><trkpt lat="44.1466602379857" lon="11.644466331507713"><ele>490.00000000000006</ele><time>2026-04-25T07:37:45Z</time></trkpt><trkpt lat="44.14673599742949" lon="11.644400884349764"><ele>490.0</ele><time>2026-04-25T07:37:46Z</time></trkpt><trkpt lat="44.146798628086586" lon="11.644329222783503"><ele>496.6</ele><time>2026-04-25T07:37:47Z</time></trkpt><trkpt lat="44.14685220771492" lon="11.644168728863336"><ele>503.2</ele><time>2026-04-25T07:37:49Z</time></trkpt><trkpt lat="44.146875864519785" lon="11.644080999942004"><ele>509.79999999999995</ele><time>2026-04-25T07:37:51Z</time></trkpt><trkpt lat="44.14688353043161" lon="11.643974852447657"><ele>516.4</ele><time>2026-04-25T07:38:09Z</time></trkpt><trkpt lat="44.14683440399262" lon="11.643838529426832"><ele>523.0</ele><time>2026-04-25T07:38:11Z</time></trkpt><trkpt lat="44.14675893855875" lon="11.643748612065963"><ele>524.0</ele><time>2026-04-25T07:38:13Z</time></trkpt><trkpt lat="44.146692706944386" lon="11.643620581222388"><ele>525.0</ele><time>2026-04-25T07:38:15Z</time></trkpt><trkpt lat="44.14672827233092" lon="11.643467708675638"><ele>526.0</ele><time>2026-04-25T07:38:17Z</time></trkpt><trkpt lat="44.14676144332823" lon="11.643374696964665"><ele>527.0</ele><time>2026-04-25T07:38:18Z</time></trkpt><trkpt lat="44.146808488272214" lon="11.643281785140818"><ele>528.0</ele><time>2026-04-25T07:38:19Z</time></trkpt><trkpt lat="44.14684956177657" lon="11.643178224931251"><ele>528.0</ele><time>2026-04-25T07:38:20Z</time></trkpt><trkpt lat="44.146896785062005" lon="11.643087441644953"><ele>528.0</ele><time>2026-04-25T07:38:21Z</time></trkpt><trkpt lat="44.14693212569468" lon="11.643003373336049"><ele>528.0</ele><time>2026-04-25T07:38:22Z</time></trkpt><trkpt lat="44.146944437726106" lon="11.642911476739084"><ele>528.0</ele><time>2026-04-25T07:38:23Z</time></trkpt><trkpt lat="44.14692255533314" lon="11.642828563829218"><ele>528.0</ele><time>2026-04-25T07:38:24Z</time></trkpt><trkpt lat="44.146896910890284" lon="11.642721473024215"><ele>528.0</ele><time>2026-04-25T07:38:25Z</time></trkpt><trkpt lat="44.14685600374033" lon="11.642623265165243"><ele>528.0</ele><time>2026-04-25T07:38:26Z</time></trkpt><trkpt lat="44.14683818770678" lon="11.642524808725645"><ele>529.8333333333334</ele><time>2026-04-25T07:38:27Z</time></trkpt><trkpt lat="44.146851444519726" lon="11.642437736831104"><ele>531.6666666666666</ele><time>2026-04-25T07:38:28Z</time></trkpt><trkpt lat="44.14683956756761" lon="11.642345575498963"><ele>533.5</ele><time>2026-04-25T07:38:29Z</time></trkpt><trkpt lat="44.14681075230585" lon="11.64224581251604"><ele>535.3333333333333</ele><time>2026-04-25T07:38:30Z</time></trkpt><trkpt lat="44.146758885261015" lon="11.642166572811245"><ele>537.1666666666666</ele><time>2026-04-25T07:38:31Z</time></trkpt><trkpt lat="44.14669248426038" lon="11.642089297314861"><ele>539.0</ele><time>2026-04-25T07:38:32Z</time></trkpt><trkpt lat="44.146621957622656" lon="11.642021852844428"><ele>539.0</ele><time>2026-04-25T07:38:33Z</time></trkpt><trkpt lat="44.14655406149948" lon="11.641978309711533"><ele>539.0</ele><time>2026-04-25T07:38:34Z</time></trkpt><trkpt lat="44.14647554423385" lon="11.641961454440224"><ele>539.0</ele><time>2026-04-25T07:38:35.001Z</time></trkpt><trkpt lat="44.14638812316754" lon="11.641945440739025"><ele>539.0</ele><time>2026-04-25T07:38:36.001Z</time></trkpt><trkpt lat="44.1463047766272" lon="11.64190236149716"><ele>539.0</ele><time>2026-04-25T07:38:37.001Z</time></trkpt><trkpt lat="44.146241456101535" lon="11.641847697474025"><ele>539.0</ele><time>2026-04-25T07:38:38.001Z</time></trkpt><trkpt lat="44.14619075313324" lon="11.64177882641386"><ele>539.3333333333333</ele><time>2026-04-25T07:38:39Z</time></trkpt><trkpt lat="44.146141504962976" lon="11.64170209006207"><ele>539.6666666666666</ele><time>2026-04-25T07:38:40Z</time></trkpt><trkpt lat="44.146089567698624" lon="11.641623986535114"><ele>540.0</ele><time>2026-04-25T07:38:41Z</time></trkpt><trkpt lat="44.14602111644364" lon="11.641559762716708"><ele>540.3333333333334</ele><time>2026-04-25T07:38:42Z</time></trkpt><trkpt lat="44.145951049514004" lon="11.64150816490922"><ele>540.6666666666667</ele><time>2026-04-25T07:38:43Z</time></trkpt><trkpt lat="44.145885390346976" lon="11.64145333771731"><ele>541.0</ele><time>2026-04-25T07:38:44Z</time></trkpt><trkpt lat="44.14582422421622" lon="11.641418022283194"><ele>541.0</ele><time>2026-04-25T07:38:45Z</time></trkpt><trkpt lat="44.14572996343175" lon="11.641368516967425"><ele>541.0</ele><time>2026-04-25T07:38:47Z</time></trkpt><trkpt lat="44.145672160351374" lon="11.641277000078851"><ele>541.0</ele><time>2026-04-25T07:38:49Z</time></trkpt><trkpt lat="44.14570784544811" lon="11.641168379511647"><ele>541.0</ele><time>2026-04-25T07:38:51Z</time></trkpt><trkpt lat="44.145757916692894" lon="11.640995379132715"><ele>541.0</ele><time>2026-04-25T07:38:53Z</time></trkpt><trkpt lat="44.1457866141455" lon="11.640902593220027"><ele>543.5</ele><time>2026-04-25T07:38:54Z</time></trkpt><trkpt lat="44.14582195152786" lon="11.64075543947263"><ele>546.0</ele><time>2026-04-25T07:38:56Z</time></trkpt><trkpt lat="44.145899236295335" lon="11.640629287113416"><ele>548.5</ele><time>2026-04-25T07:38:58Z</time></trkpt><trkpt lat="44.14596857744807" lon="11.640503602875649"><ele>551.0</ele><time>2026-04-25T07:39:00Z</time></trkpt><trkpt lat="44.14605639352959" lon="11.64040730304966"><ele>550.9999999999999</ele><time>2026-04-25T07:39:02Z</time></trkpt><trkpt lat="44.14612081017446" lon="11.640354794629049"><ele>551.0</ele><time>2026-04-25T07:39:03Z</time></trkpt><trkpt lat="44.146167095010334" lon="11.640293925704023"><ele>551.0</ele><time>2026-04-25T07:39:04Z</time></trkpt><trkpt lat="44.146217878253246" lon="11.640229817961105"><ele>551.0</ele><time>2026-04-25T07:39:05Z</time></trkpt><trkpt lat="44.1462731432585" lon="11.64016411091325"><ele>551.0</ele><time>2026-04-25T07:39:06Z</time></trkpt><trkpt lat="44.14631738598838" lon="11.640087978372192"><ele>550.9999999999999</ele><time>2026-04-25T07:39:07Z</time></trkpt><trkpt lat="44.146362446764726" lon="11.640016987542472"><ele>551.0</ele><time>2026-04-25T07:39:08Z</time></trkpt><trkpt lat="44.146426125251196" lon="11.639929863175645"><ele>551.0</ele><time>2026-04-25T07:39:10Z</time></trkpt><trkpt lat="44.14649067451541" lon="11.639952633836264"><ele>551.0</ele><time>2026-04-25T07:39:12Z</time></trkpt><trkpt lat="44.146531616532315" lon="11.640052497790379"><ele>551.0</ele><time>2026-04-25T07:39:14Z</time></trkpt><trkpt lat="44.14651430021053" lon="11.6402203688565"><ele>551.0</ele><time>2026-04-25T07:39:16Z</time></trkpt><trkpt lat="44.146507006543644" lon="11.640309706269715"><ele>551.0</ele><time>2026-04-25T07:39:17Z</time></trkpt><trkpt lat="44.1464859788007" lon="11.640415265239687"><ele>551.0</ele><time>2026-04-25T07:39:18Z</time></trkpt><trkpt lat="44.1464648191224" lon="11.640543522264132"><ele>551.0</ele><time>2026-04-25T07:39:19Z</time></trkpt><trkpt lat="44.146425571322204" lon="11.640638567696081"><ele>551.0</ele><time>2026-04-25T07:39:20Z</time></trkpt><trkpt lat="44.14637895437394" lon="11.640727427566514"><ele>551.0</ele><time>2026-04-25T07:39:21Z</time></trkpt><trkpt lat="44.14636589831687" lon="11.64087189992407"><ele>551.0</ele><time>2026-04-25T07:39:23Z</time></trkpt><trkpt lat="44.14639855432283" lon="11.640996586520998"><ele>551.0</ele><time>2026-04-25T07:39:25Z</time></trkpt><trkpt lat="44.14647407924694" lon="11.641064557227457"><ele>551.0</ele><time>2026-04-25T07:39:27Z</time></trkpt><trkpt lat="44.146588452885375" lon="11.641061273755545"><ele>558.2</ele><time>2026-04-25T07:39:29Z</time></trkpt><trkpt lat="44.146649489895644" lon="11.641037409797159"><ele>565.4000000000001</ele><time>2026-04-25T07:39:30Z</time></trkpt><trkpt lat="44.1467838317229" lon="11.641005131035262"><ele>572.6</ele><time>2026-04-25T07:39:32Z</time></trkpt><trkpt lat="44.14684963135822" lon="11.64099665705365"><ele>579.8000000000001</ele><time>2026-04-25T07:39:33Z</time></trkpt><trkpt lat="44.146921311691706" lon="11.640972437179316"><ele>587.0</ele><time>2026-04-25T07:39:34Z</time></trkpt><trkpt lat="44.14705211585561" lon="11.640893444962263"><ele>587.0</ele><time>2026-04-25T07:39:36Z</time></trkpt><trkpt lat="44.14710638983498" lon="11.640838269587588"><ele>587.0</ele><time>2026-04-25T07:39:37Z</time></trkpt><trkpt lat="44.147170801954" lon="11.640792221530507"><ele>587.0</ele><time>2026-04-25T07:39:38Z</time></trkpt><trkpt lat="44.14728818191935" lon="11.640713216430399"><ele>587.0</ele><time>2026-04-25T07:39:40Z</time></trkpt><trkpt lat="44.14735707641439" lon="11.640706106021101"><ele>587.0</ele><time>2026-04-25T07:39:41Z</time></trkpt><trkpt lat="44.147438574305944" lon="11.640726762288168"><ele>587.0</ele><time>2026-04-25T07:39:42Z</time></trkpt><trkpt lat="44.14752571091947" lon="11.64075199126482"><ele>591.8000000000001</ele><time>2026-04-25T07:39:43Z</time></trkpt><trkpt lat="44.14762013892086" lon="11.640791485944943"><ele>596.6</ele><time>2026-04-25T07:39:44Z</time></trkpt><trkpt lat="44.14773464043935" lon="11.640839295720781"><ele>601.4000000000001</ele><time>2026-04-25T07:39:45Z</time></trkpt><trkpt lat="44.14782794082152" lon="11.640877176046098"><ele>606.2</ele><time>2026-04-25T07:39:46Z</time></trkpt><trkpt lat="44.14789862066234" lon="11.640911674713003"><ele>611.0</ele><time>2026-04-25T07:39:47Z</time></trkpt><trkpt lat="44.14795308387831" lon="11.640958247757444"><ele>611.0</ele><time>2026-04-25T07:39:48Z</time></trkpt><trkpt lat="44.148024598626776" lon="11.641032261603204"><ele>611.0</ele><time>2026-04-25T07:39:50Z</time></trkpt><trkpt lat="44.148098504585576" lon="11.640948099031661"><ele>611.0</ele><time>2026-04-25T07:40:54Z</time></trkpt><trkpt lat="44.1481248542275" lon="11.640867788139392"><ele>611.0</ele><time>2026-04-25T07:40:55Z</time></trkpt><trkpt lat="44.1481411214077" lon="11.640777639229695"><ele>611.0</ele><time>2026-04-25T07:40:56Z</time></trkpt><trkpt lat="44.148183113202485" lon="11.640682798458734"><ele>611.0</ele><time>2026-04-25T07:40:57Z</time></trkpt><trkpt lat="44.14819783223912" lon="11.640583663096807"><ele>611.5</ele><time>2026-04-25T07:40:58Z</time></trkpt><trkpt lat="44.148216031926154" lon="11.640499448298591"><ele>612.0</ele><time>2026-04-25T07:40:59Z</time></trkpt><trkpt lat="44.14824828266903" lon="11.640411755389808"><ele>612.5</ele><time>2026-04-25T07:41:00Z</time></trkpt><trkpt lat="44.14828453930108" lon="11.64033605068678"><ele>613.0</ele><time>2026-04-25T07:41:01Z</time></trkpt><trkpt lat="44.14834884253373" lon="11.64017798782564"><ele>613.5</ele><time>2026-04-25T07:41:03Z</time></trkpt><trkpt lat="44.14840997655395" lon="11.640081080886743"><ele>614.0</ele><time>2026-04-25T07:41:04Z</time></trkpt><trkpt lat="44.14843921359423" lon="11.639983111093416"><ele>616.8571428571428</ele><time>2026-04-25T07:41:05Z</time></trkpt><trkpt lat="44.14847255312465" lon="11.639906492942405"><ele>619.7142857142857</ele><time>2026-04-25T07:41:06Z</time></trkpt><trkpt lat="44.148518803194754" lon="11.639807339077333"><ele>622.5714285714286</ele><time>2026-04-25T07:41:07Z</time></trkpt><trkpt lat="44.148540941231076" lon="11.639707342299767"><ele>625.4285714285713</ele><time>2026-04-25T07:41:08Z</time></trkpt><trkpt lat="44.14855857209293" lon="11.639622955584652"><ele>628.2857142857142</ele><time>2026-04-25T07:41:09Z</time></trkpt><trkpt lat="44.14857149101409" lon="11.639505632885529"><ele>631.1428571428571</ele><time>2026-04-25T07:41:10Z</time></trkpt><trkpt lat="44.14859107934718" lon="11.63940907096124"><ele>634.0</ele><time>2026-04-25T07:41:11Z</time></trkpt><trkpt lat="44.14864204238827" lon="11.63930657740179"><ele>634.0</ele><time>2026-04-25T07:41:13Z</time></trkpt><trkpt lat="44.148652585849355" lon="11.6391907415333"><ele>634.0</ele><time>2026-04-25T07:41:16Z</time></trkpt><trkpt lat="44.14855164616153" lon="11.639253994311796"><ele>634.0</ele><time>2026-04-25T07:42:30Z</time></trkpt><trkpt lat="44.14848968732087" lon="11.639395823756752"><ele>634.0</ele><time>2026-04-25T07:42:32Z</time></trkpt><trkpt lat="44.148450254587594" lon="11.639491396496911"><ele>634.0</ele><time>2026-04-25T07:42:33Z</time></trkpt><trkpt lat="44.14841061768882" lon="11.639595818383343"><ele>634.0</ele><time>2026-04-25T07:42:34Z</time></trkpt><trkpt lat="44.14836539226165" lon="11.639701862643852"><ele>634.0</ele><time>2026-04-25T07:42:35Z</time></trkpt><trkpt lat="44.14830343469147" lon="11.63978761096931"><ele>634.0</ele><time>2026-04-25T07:42:36Z</time></trkpt><trkpt lat="44.14823763948593" lon="11.639857374418169"><ele>634.0</ele><time>2026-04-25T07:42:37Z</time></trkpt><trkpt lat="44.148160920517554" lon="11.63990484208759"><ele>634.0</ele><time>2026-04-25T07:42:38Z</time></trkpt><trkpt lat="44.148083746965604" lon="11.639964388739333"><ele>634.0</ele><time>2026-04-25T07:42:39Z</time></trkpt><trkpt lat="44.1480097328051" lon="11.640014149385"><ele>633.5</ele><time>2026-04-25T07:42:40Z</time></trkpt><trkpt lat="44.14794101403307" lon="11.6400498100122"><ele>633.0</ele><time>2026-04-25T07:42:41Z</time></trkpt><trkpt lat="44.147876118013436" lon="11.640064156183534"><ele>632.5</ele><time>2026-04-25T07:42:42Z</time></trkpt><trkpt lat="44.14780618687256" lon="11.640062924982422"><ele>632.0</ele><time>2026-04-25T07:42:43Z</time></trkpt><trkpt lat="44.14773813558016" lon="11.640050519882468"><ele>631.5</ele><time>2026-04-25T07:42:44Z</time></trkpt><trkpt lat="44.147675074108314" lon="11.63994419829266"><ele>631.0</ele><time>2026-04-25T07:42:46Z</time></trkpt><trkpt lat="44.14766952599125" lon="11.639787395086158"><ele>631.0</ele><time>2026-04-25T07:42:48Z</time></trkpt><trkpt lat="44.14767982363227" lon="11.63967885545985"><ele>631.0</ele><time>2026-04-25T07:42:49Z</time></trkpt><trkpt lat="44.147697407235135" lon="11.63955219942153"><ele>631.0</ele><time>2026-04-25T07:42:50Z</time></trkpt><trkpt lat="44.14771881672323" lon="11.639420743695124"><ele>631.0</ele><time>2026-04-25T07:42:51Z</time></trkpt><trkpt lat="44.147739351576824" lon="11.639296302933433"><ele>631.0</ele><time>2026-04-25T07:42:52Z</time></trkpt><trkpt lat="44.147765253135574" lon="11.639158817062802"><ele>632.4</ele><time>2026-04-25T07:42:53Z</time></trkpt><trkpt lat="44.147799492704394" lon="11.63905945630078"><ele>633.8</ele><time>2026-04-25T07:42:54Z</time></trkpt><trkpt lat="44.14785322518222" lon="11.638962509324736"><ele>635.1999999999999</ele><time>2026-04-25T07:42:55Z</time></trkpt><trkpt lat="44.14790987701124" lon="11.638851026023945"><ele>636.6</ele><time>2026-04-25T07:42:56Z</time></trkpt><trkpt lat="44.14795811853849" lon="11.63875169336256"><ele>638.0</ele><time>2026-04-25T07:42:57Z</time></trkpt><trkpt lat="44.147995629661615" lon="11.638619185770176"><ele>638.5999999999999</ele><time>2026-04-25T07:42:58Z</time></trkpt><trkpt lat="44.14798511744065" lon="11.63845128788415"><ele>639.1999999999999</ele><time>2026-04-25T07:42:59Z</time></trkpt><trkpt lat="44.14800358534972" lon="11.638308870326844"><ele>639.8</ele><time>2026-04-25T07:43:00Z</time></trkpt><trkpt lat="44.14801046709759" lon="11.63819233179888"><ele>640.4</ele><time>2026-04-25T07:43:01Z</time></trkpt><trkpt lat="44.148013331390935" lon="11.638089401580846"><ele>641.0</ele><time>2026-04-25T07:43:02Z</time></trkpt><trkpt lat="44.14799621821438" lon="11.637992312051557"><ele>641.0</ele><time>2026-04-25T07:43:03Z</time></trkpt><trkpt lat="44.147959254031605" lon="11.637881385101787"><ele>641.0</ele><time>2026-04-25T07:43:04Z</time></trkpt><trkpt lat="44.147907871085515" lon="11.637740245711168"><ele>641.0</ele><time>2026-04-25T07:43:05Z</time></trkpt><trkpt lat="44.147875449199304" lon="11.637598297888948"><ele>641.0</ele><time>2026-04-25T07:43:06Z</time></trkpt><trkpt lat="44.14786232961181" lon="11.637407895291528"><ele>641.0</ele><time>2026-04-25T07:43:07Z</time></trkpt><trkpt lat="44.147826091356855" lon="11.637214178912366"><ele>642.25</ele><time>2026-04-25T07:43:08Z</time></trkpt><trkpt lat="44.1477740054691" lon="11.63704831961446"><ele>643.5</ele><time>2026-04-25T07:43:09Z</time></trkpt><trkpt lat="44.14769765652447" lon="11.636892935528055"><ele>644.75</ele><time>2026-04-25T07:43:10Z</time></trkpt><trkpt lat="44.14763471243612" lon="11.636691451806328"><ele>646.0</ele><time>2026-04-25T07:43:11Z</time></trkpt><trkpt lat="44.14756579691674" lon="11.63650816441232"><ele>652.0</ele><time>2026-04-25T07:43:12Z</time></trkpt><trkpt lat="44.14747827890647" lon="11.636344786687006"><ele>658.0</ele><time>2026-04-25T07:43:13Z</time></trkpt><trkpt lat="44.14739122006821" lon="11.636203966678956"><ele>664.0</ele><time>2026-04-25T07:43:14Z</time></trkpt><trkpt lat="44.14730465528471" lon="11.636098979396632"><ele>670.0</ele><time>2026-04-25T07:43:15Z</time></trkpt><trkpt lat="44.14720057049208" lon="11.636048911133656"><ele>673.4</ele><time>2026-04-25T07:43:16Z</time></trkpt><trkpt lat="44.14710205513702" lon="11.636019102345738"><ele>676.8</ele><time>2026-04-25T07:43:17Z</time></trkpt><trkpt lat="44.14700554747941" lon="11.636015000632687"><ele>680.2</ele><time>2026-04-25T07:43:18Z</time></trkpt><trkpt lat="44.14688681626539" lon="11.636023586131959"><ele>683.6</ele><time>2026-04-25T07:43:19Z</time></trkpt><trkpt lat="44.146775010526106" lon="11.63603483485535"><ele>687.0</ele><time>2026-04-25T07:43:20Z</time></trkpt><trkpt lat="44.14668787406753" lon="11.6360141869929"><ele>687.0</ele><time>2026-04-25T07:43:21Z</time></trkpt><trkpt lat="44.14660383922844" lon="11.635993279838438"><ele>687.0</ele><time>2026-04-25T07:43:22Z</time></trkpt><trkpt lat="44.146514221104326" lon="11.635964313736292"><ele>687.0</ele><time>2026-04-25T07:43:23Z</time></trkpt><trkpt lat="44.14641102195776" lon="11.635931844772312"><ele>687.0</ele><time>2026-04-25T07:43:24Z</time></trkpt><trkpt lat="44.146294891150845" lon="11.635894938905794"><ele>687.0</ele><time>2026-04-25T07:43:25Z</time></trkpt><trkpt lat="44.146180467443315" lon="11.635865589478945"><ele>687.4000000000001</ele><time>2026-04-25T07:43:26Z</time></trkpt><trkpt lat="44.14606185301022" lon="11.635839144757053"><ele>687.8000000000001</ele><time>2026-04-25T07:43:27Z</time></trkpt><trkpt lat="44.145947322551066" lon="11.635824774968993"><ele>688.2</ele><time>2026-04-25T07:43:28Z</time></trkpt><trkpt lat="44.14583975242453" lon="11.635823236889816"><ele>688.6</ele><time>2026-04-25T07:43:29Z</time></trkpt><trkpt lat="44.1457537693667" lon="11.63580602798484"><ele>689.0</ele><time>2026-04-25T07:43:30Z</time></trkpt><trkpt lat="44.145681516333255" lon="11.635790887534597"><ele>689.0</ele><time>2026-04-25T07:43:31Z</time></trkpt><trkpt lat="44.14561734283546" lon="11.635770849309873"><ele>689.0</ele><time>2026-04-25T07:43:32Z</time></trkpt><trkpt lat="44.145603025115605" lon="11.635622107545244"><ele>689.0</ele><time>2026-04-25T07:43:34Z</time></trkpt><trkpt lat="44.14561844901446" lon="11.635475643870322"><ele>689.0</ele><time>2026-04-25T07:43:36Z</time></trkpt><trkpt lat="44.14563534596772" lon="11.635356439418796"><ele>689.0</ele><time>2026-04-25T07:43:37Z</time></trkpt><trkpt lat="44.145647034137426" lon="11.635233559667597"><ele>687.0</ele><time>2026-04-25T07:43:38Z</time></trkpt><trkpt lat="44.1456540674075" lon="11.63513533756856"><ele>685.0</ele><time>2026-04-25T07:43:39Z</time></trkpt><trkpt lat="44.14581484628605" lon="11.635034545506306"><ele>683.0</ele><time>2026-04-25T07:43:40Z</time></trkpt><trkpt lat="44.145889009810986" lon="11.634928637204359"><ele>681.0</ele><time>2026-04-25T07:43:41Z</time></trkpt><trkpt lat="44.14594301399146" lon="11.634807642589791"><ele>681.0</ele><time>2026-04-25T07:43:42Z</time></trkpt><trkpt lat="44.14599106147247" lon="11.634677711579949"><ele>681.0</ele><time>2026-04-25T07:43:43Z</time></trkpt><trkpt lat="44.146033983134934" lon="11.6345576820604"><ele>681.0</ele><time>2026-04-25T07:43:44Z</time></trkpt><trkpt lat="44.14608334586376" lon="11.634440345418707"><ele>681.0</ele><time>2026-04-25T07:43:45Z</time></trkpt><trkpt lat="44.14613919336402" lon="11.634304370639807"><ele>681.0</ele><time>2026-04-25T07:43:46Z</time></trkpt><trkpt lat="44.146197661228555" lon="11.634158524638279"><ele>677.5</ele><time>2026-04-25T07:43:47Z</time></trkpt><trkpt lat="44.146255797946154" lon="11.634011674528148"><ele>674.0</ele><time>2026-04-25T07:43:48Z</time></trkpt><trkpt lat="44.146319969130076" lon="11.633878866115298"><ele>670.5</ele><time>2026-04-25T07:43:49Z</time></trkpt><trkpt lat="44.14639767746731" lon="11.633749250088323"><ele>667.0</ele><time>2026-04-25T07:43:50Z</time></trkpt><trkpt lat="44.14647269912313" lon="11.633631549701414"><ele>665.0</ele><time>2026-04-25T07:43:51Z</time></trkpt><trkpt lat="44.14651890814586" lon="11.633500583963885"><ele>663.0</ele><time>2026-04-25T07:43:52Z</time></trkpt><trkpt lat="44.14653206318968" lon="11.633352871209306"><ele>661.0</ele><time>2026-04-25T07:43:53Z</time></trkpt><trkpt lat="44.14657075729483" lon="11.633204102471913"><ele>659.0</ele><time>2026-04-25T07:43:54Z</time></trkpt><trkpt lat="44.1466193217899" lon="11.633083216610718"><ele>657.0</ele><time>2026-04-25T07:43:55Z</time></trkpt><trkpt lat="44.14667121116119" lon="11.632961447071292"><ele>662.0</ele><time>2026-04-25T07:43:56Z</time></trkpt><trkpt lat="44.146750679565905" lon="11.632815519585058"><ele>667.0</ele><time>2026-04-25T07:43:57Z</time></trkpt><trkpt lat="44.14679348631399" lon="11.632693130548285"><ele>672.0</ele><time>2026-04-25T07:43:58Z</time></trkpt><trkpt lat="44.146805778016756" lon="11.632570100332723"><ele>677.0</ele><time>2026-04-25T07:43:59Z</time></trkpt><trkpt lat="44.146797010301015" lon="11.632440364996597"><ele>682.0</ele><time>2026-04-25T07:44:00Z</time></trkpt><trkpt lat="44.14679281639249" lon="11.632339483607003"><ele>682.0</ele><time>2026-04-25T07:44:01Z</time></trkpt><trkpt lat="44.14681246781391" lon="11.632254319764106"><ele>682.0</ele><time>2026-04-25T07:44:02Z</time></trkpt><trkpt lat="44.1468656115688" lon="11.632185939362342"><ele>682.0</ele><time>2026-04-25T07:44:03Z</time></trkpt><trkpt lat="44.146957076440316" lon="11.63214734195442"><ele>682.0</ele><time>2026-04-25T07:44:04Z</time></trkpt><trkpt lat="44.14704956180057" lon="11.632091165011067"><ele>682.0</ele><time>2026-04-25T07:44:05Z</time></trkpt><trkpt lat="44.14713211009757" lon="11.6320055523181"><ele>682.0</ele><time>2026-04-25T07:44:06Z</time></trkpt><trkpt lat="44.14718072505894" lon="11.631897421602357"><ele>679.8</ele><time>2026-04-25T07:44:07Z</time></trkpt><trkpt lat="44.14719198655293" lon="11.631752319826395"><ele>677.6</ele><time>2026-04-25T07:44:08Z</time></trkpt><trkpt lat="44.14719880779969" lon="11.631599265845475"><ele>675.4</ele><time>2026-04-25T07:44:09Z</time></trkpt><trkpt lat="44.14720378310278" lon="11.63142491232675"><ele>673.1999999999999</ele><time>2026-04-25T07:44:10Z</time></trkpt><trkpt lat="44.14724057395378" lon="11.631300005060801"><ele>671.0</ele><time>2026-04-25T07:44:11Z</time></trkpt><trkpt lat="44.14728732686755" lon="11.631177934539123"><ele>671.4</ele><time>2026-04-25T07:44:12Z</time></trkpt><trkpt lat="44.1473079586553" lon="11.631048216371179"><ele>671.8</ele><time>2026-04-25T07:44:13Z</time></trkpt><trkpt lat="44.14726311248171" lon="11.630917556835941"><ele>672.1999999999999</ele><time>2026-04-25T07:44:14Z</time></trkpt><trkpt lat="44.14722515707953" lon="11.630767297776776"><ele>672.5999999999999</ele><time>2026-04-25T07:44:15Z</time></trkpt><trkpt lat="44.147184966251274" lon="11.630595421121258"><ele>673.0</ele><time>2026-04-25T07:44:16Z</time></trkpt><trkpt lat="44.14713577930981" lon="11.630449683446416"><ele>673.0</ele><time>2026-04-25T07:44:17Z</time></trkpt><trkpt lat="44.14706486694848" lon="11.630353810467092"><ele>673.0</ele><time>2026-04-25T07:44:18Z</time></trkpt><trkpt lat="44.146971398451484" lon="11.630264395098715"><ele>673.0</ele><time>2026-04-25T07:44:19Z</time></trkpt><trkpt lat="44.146877084164316" lon="11.63018614480306"><ele>673.0</ele><time>2026-04-25T07:44:20Z</time></trkpt><trkpt lat="44.146797416472396" lon="11.630090773951867"><ele>673.0</ele><time>2026-04-25T07:44:21Z</time></trkpt><trkpt lat="44.146753389823104" lon="11.630006191718016"><ele>675.2</ele><time>2026-04-25T07:44:22Z</time></trkpt><trkpt lat="44.146732946579796" lon="11.629896166099616"><ele>677.4</ele><time>2026-04-25T07:44:23Z</time></trkpt><trkpt lat="44.146730378006765" lon="11.629768560631861"><ele>679.6</ele><time>2026-04-25T07:44:24Z</time></trkpt><trkpt lat="44.146751035771636" lon="11.629631529189076"><ele>681.8000000000001</ele><time>2026-04-25T07:44:25Z</time></trkpt><trkpt lat="44.14676391568462" lon="11.629503720204353"><ele>684.0</ele><time>2026-04-25T07:44:26Z</time></trkpt><trkpt lat="44.146787495859634" lon="11.629390202932772"><ele>684.0</ele><time>2026-04-25T07:44:27Z</time></trkpt><trkpt lat="44.146830367729486" lon="11.629288150606094"><ele>684.0</ele><time>2026-04-25T07:44:28Z</time></trkpt><trkpt lat="44.14688339133993" lon="11.629236500100205"><ele>684.0</ele><time>2026-04-25T07:44:29Z</time></trkpt><trkpt lat="44.147003345673795" lon="11.629288345843616"><ele>684.0</ele><time>2026-04-25T07:44:31Z</time></trkpt><trkpt lat="44.14704306435421" lon="11.629379340832797"><ele>684.0</ele><time>2026-04-25T07:44:32Z</time></trkpt><trkpt lat="44.1470791133508" lon="11.629500962643057"><ele>684.0</ele><time>2026-04-25T07:44:33Z</time></trkpt><trkpt lat="44.14712515602064" lon="11.62961637636682"><ele>684.0</ele><time>2026-04-25T07:44:34Z</time></trkpt><trkpt lat="44.14722457835955" lon="11.629712706428473"><ele>684.0</ele><time>2026-04-25T07:44:36Z</time></trkpt><trkpt lat="44.147307060824396" lon="11.629724850252918"><ele>684.0</ele><time>2026-04-25T07:44:37Z</time></trkpt><trkpt lat="44.14739727846303" lon="11.629706778365442"><ele>684.0</ele><time>2026-04-25T07:44:38Z</time></trkpt><trkpt lat="44.14749252963674" lon="11.629755699208527"><ele>684.0</ele><time>2026-04-25T07:44:39Z</time></trkpt><trkpt lat="44.14756615708877" lon="11.62981323227163"><ele>686.4000000000001</ele><time>2026-04-25T07:44:40Z</time></trkpt><trkpt lat="44.14765248074843" lon="11.62986003934503"><ele>688.8</ele><time>2026-04-25T07:44:41Z</time></trkpt><trkpt lat="44.14775444499016" lon="11.629847708460021"><ele>691.2</ele><time>2026-04-25T07:44:42Z</time></trkpt><trkpt lat="44.147848613103015" lon="11.629811601727365"><ele>693.5999999999999</ele><time>2026-04-25T07:44:43Z</time></trkpt><trkpt lat="44.14798396493441" lon="11.62981530458412"><ele>696.0</ele><time>2026-04-25T07:44:45Z</time></trkpt><trkpt lat="44.14803824524108" lon="11.62987723094517"><ele>696.0</ele><time>2026-04-25T07:44:46Z</time></trkpt><trkpt lat="44.148090109659435" lon="11.62996401873706"><ele>696.0</ele><time>2026-04-25T07:44:47Z</time></trkpt><trkpt lat="44.1481635942763" lon="11.630096813735598"><ele>696.0</ele><time>2026-04-25T07:44:48Z</time></trkpt><trkpt lat="44.14823496692165" lon="11.630217450611106"><ele>696.0</ele><time>2026-04-25T07:44:49Z</time></trkpt><trkpt lat="44.148273150417744" lon="11.630314848875702"><ele>696.0</ele><time>2026-04-25T07:44:50Z</time></trkpt><trkpt lat="44.14831370454659" lon="11.630422612249964"><ele>696.4</ele><time>2026-04-25T07:44:51Z</time></trkpt><trkpt lat="44.14841536358257" lon="11.630537027417363"><ele>696.8</ele><time>2026-04-25T07:44:53Z</time></trkpt><trkpt lat="44.14850578262982" lon="11.630549636950791"><ele>697.1999999999999</ele><time>2026-04-25T07:44:54Z</time></trkpt><trkpt lat="44.14859860460123" lon="11.630528555005707"><ele>697.5999999999999</ele><time>2026-04-25T07:44:55Z</time></trkpt><trkpt lat="44.148676432022874" lon="11.630498967143373"><ele>698.0</ele><time>2026-04-25T07:44:56Z</time></trkpt><trkpt lat="44.14874524600652" lon="11.63042428319173"><ele>698.0</ele><time>2026-04-25T07:44:56.999Z</time></trkpt><trkpt lat="44.14880555700241" lon="11.630340076813706"><ele>698.0</ele><time>2026-04-25T07:44:57.999Z</time></trkpt><trkpt lat="44.14885034075864" lon="11.63026489656076"><ele>698.0</ele><time>2026-04-25T07:44:58.999Z</time></trkpt><trkpt lat="44.14890574920544" lon="11.630191340498975"><ele>698.0</ele><time>2026-04-25T07:44:59.999Z</time></trkpt><trkpt lat="44.14895545654957" lon="11.630111876119056"><ele>698.0</ele><time>2026-04-25T07:45:00.999Z</time></trkpt><trkpt lat="44.14901924772046" lon="11.630048574564558"><ele>698.0</ele><time>2026-04-25T07:45:01.999Z</time></trkpt><trkpt lat="44.14909631324842" lon="11.629993571172562"><ele>692.5</ele><time>2026-04-25T07:45:03Z</time></trkpt><trkpt lat="44.149180661122905" lon="11.630005606425762"><ele>687.0</ele><time>2026-04-25T07:45:04Z</time></trkpt><trkpt lat="44.14925614475382" lon="11.629971350745679"><ele>681.5</ele><time>2026-04-25T07:45:05Z</time></trkpt><trkpt lat="44.14931673844406" lon="11.62989033634132"><ele>676.0</ele><time>2026-04-25T07:45:06Z</time></trkpt><trkpt lat="44.14935778911884" lon="11.629771742392949"><ele>670.5</ele><time>2026-04-25T07:45:07Z</time></trkpt><trkpt lat="44.14940026393156" lon="11.629668821576026"><ele>665.0</ele><time>2026-04-25T07:45:08Z</time></trkpt><trkpt lat="44.1494538471781" lon="11.629577549699762"><ele>665.0</ele><time>2026-04-25T07:45:09Z</time></trkpt><trkpt lat="44.149505520883764" lon="11.62949219238598"><ele>665.0</ele><time>2026-04-25T07:45:10Z</time></trkpt><trkpt lat="44.14963219290271" lon="11.629417220472536"><ele>665.0</ele><time>2026-04-25T07:45:12Z</time></trkpt><trkpt lat="44.14970561564215" lon="11.629417487672464"><ele>665.0</ele><time>2026-04-25T07:45:13Z</time></trkpt><trkpt lat="44.14977931014054" lon="11.629444187818835"><ele>665.0</ele><time>2026-04-25T07:45:14Z</time></trkpt><trkpt lat="44.14985825410976" lon="11.629504599435595"><ele>664.6</ele><time>2026-04-25T07:45:15Z</time></trkpt><trkpt lat="44.149931479773215" lon="11.62956261806445"><ele>664.2</ele><time>2026-04-25T07:45:16Z</time></trkpt><trkpt lat="44.14999820078701" lon="11.62961497556075"><ele>663.8</ele><time>2026-04-25T07:45:17Z</time></trkpt><trkpt lat="44.15009967400424" lon="11.629606059982224"><ele>663.4</ele><time>2026-04-25T07:45:19Z</time></trkpt><trkpt lat="44.150125494407206" lon="11.629515811013082"><ele>663.0</ele><time>2026-04-25T07:45:20Z</time></trkpt><trkpt lat="44.150073888932496" lon="11.629361238864794"><ele>659.0</ele><time>2026-04-25T07:45:22Z</time></trkpt><trkpt lat="44.14999805559031" lon="11.629321273290865"><ele>655.0</ele><time>2026-04-25T07:45:23Z</time></trkpt><trkpt lat="44.14991404838032" lon="11.62929330804322"><ele>651.0</ele><time>2026-04-25T07:45:24Z</time></trkpt><trkpt lat="44.14984296663346" lon="11.629249493384915"><ele>647.0</ele><time>2026-04-25T07:45:25Z</time></trkpt><trkpt lat="44.14978540469995" lon="11.629165582694702"><ele>643.0</ele><time>2026-04-25T07:45:26Z</time></trkpt><trkpt lat="44.14973812194766" lon="11.629055054793971"><ele>639.0</ele><time>2026-04-25T07:45:27Z</time></trkpt><trkpt lat="44.14970929683711" lon="11.628958210516391"><ele>638.3333333333334</ele><time>2026-04-25T07:45:28Z</time></trkpt><trkpt lat="44.14966103696379" lon="11.628901793067254"><ele>637.6666666666666</ele><time>2026-04-25T07:45:29Z</time></trkpt><trkpt lat="44.14959004015265" lon="11.628888713112522"><ele>637.0</ele><time>2026-04-25T07:45:30Z</time></trkpt><trkpt lat="44.149526718605706" lon="11.628896174035596"><ele>636.3333333333333</ele><time>2026-04-25T07:45:31Z</time></trkpt><trkpt lat="44.14943545101374" lon="11.628953319605898"><ele>635.6666666666666</ele><time>2026-04-25T07:45:32Z</time></trkpt><trkpt lat="44.149335658702896" lon="11.629014608443747"><ele>635.0</ele><time>2026-04-25T07:45:33Z</time></trkpt><trkpt lat="44.1492443108237" lon="11.629077661364512"><ele>635.0</ele><time>2026-04-25T07:45:34Z</time></trkpt><trkpt lat="44.14917538596892" lon="11.629149315742659"><ele>635.0</ele><time>2026-04-25T07:45:35Z</time></trkpt><trkpt lat="44.14910869362523" lon="11.629206206794908"><ele>635.0</ele><time>2026-04-25T07:45:36Z</time></trkpt><trkpt lat="44.149037331082766" lon="11.629291469096989"><ele>635.0</ele><time>2026-04-25T07:45:37Z</time></trkpt><trkpt lat="44.14896156292109" lon="11.629387826952065"><ele>635.0</ele><time>2026-04-25T07:45:39Z</time></trkpt><trkpt lat="44.14888404142399" lon="11.62938071912116"><ele>635.0</ele><time>2026-04-25T07:45:41Z</time></trkpt><trkpt lat="44.14888042051304" lon="11.629258037858042"><ele>635.0</ele><time>2026-04-25T07:45:43Z</time></trkpt><trkpt lat="44.148934039461174" lon="11.629196978455104"><ele>635.0</ele><time>2026-04-25T07:45:44Z</time></trkpt><trkpt lat="44.149010064545344" lon="11.629130578038591"><ele>635.0</ele><time>2026-04-25T07:45:45Z</time></trkpt><trkpt lat="44.14910026114728" lon="11.629059242885322"><ele>635.0</ele><time>2026-04-25T07:45:46Z</time></trkpt><trkpt lat="44.14919311483932" lon="11.628949023655903"><ele>635.0</ele><time>2026-04-25T07:45:47Z</time></trkpt><trkpt lat="44.14926888030766" lon="11.62883202517696"><ele>635.0</ele><time>2026-04-25T07:45:48Z</time></trkpt><trkpt lat="44.14932798338356" lon="11.62871785384965"><ele>635.0</ele><time>2026-04-25T07:45:49Z</time></trkpt><trkpt lat="44.14937449347976" lon="11.628601166275294"><ele>635.0</ele><time>2026-04-25T07:45:50Z</time></trkpt><trkpt lat="44.14941137350556" lon="11.628465112744728"><ele>635.0</ele><time>2026-04-25T07:45:51Z</time></trkpt><trkpt lat="44.14944913991908" lon="11.628352821620588"><ele>635.0</ele><time>2026-04-25T07:45:52Z</time></trkpt><trkpt lat="44.14950303606156" lon="11.62825556586505"><ele>630.8</ele><time>2026-04-25T07:45:53Z</time></trkpt><trkpt lat="44.149577396966855" lon="11.628174397208062"><ele>626.6</ele><time>2026-04-25T07:45:54Z</time></trkpt><trkpt lat="44.149655589688706" lon="11.628111137282433"><ele>622.4</ele><time>2026-04-25T07:45:55Z</time></trkpt><trkpt lat="44.14973850203208" lon="11.628045649022367"><ele>618.2</ele><time>2026-04-25T07:45:56Z</time></trkpt><trkpt lat="44.149828376082375" lon="11.628026112950055"><ele>614.0</ele><time>2026-04-25T07:45:57Z</time></trkpt><trkpt lat="44.14994183622768" lon="11.628062718522957"><ele>614.0</ele><time>2026-04-25T07:45:59Z</time></trkpt><trkpt lat="44.14999615094719" lon="11.628184799259753"><ele>614.0</ele><time>2026-04-25T07:46:00Z</time></trkpt><trkpt lat="44.15008839934118" lon="11.628236848779501"><ele>614.0</ele><time>2026-04-25T07:46:01Z</time></trkpt><trkpt lat="44.150163207675206" lon="11.628276986891736"><ele>614.0</ele><time>2026-04-25T07:46:02Z</time></trkpt><trkpt lat="44.150290810924275" lon="11.628244888068204"><ele>614.0</ele><time>2026-04-25T07:46:03Z</time></trkpt><trkpt lat="44.1503862957687" lon="11.628250545829367"><ele>614.0</ele><time>2026-04-25T07:46:04Z</time></trkpt><trkpt lat="44.15048376283375" lon="11.628258156015358"><ele>614.0</ele><time>2026-04-25T07:46:05Z</time></trkpt><trkpt lat="44.15057631615753" lon="11.628248297056912"><ele>614.0</ele><time>2026-04-25T07:46:06Z</time></trkpt><trkpt lat="44.15066421755171" lon="11.628251918033978"><ele>614.0</ele><time>2026-04-25T07:46:07Z</time></trkpt><trkpt lat="44.15075281273479" lon="11.628265672268187"><ele>614.0</ele><time>2026-04-25T07:46:08Z</time></trkpt><trkpt lat="44.15084355466899" lon="11.628339351143554"><ele>613.8</ele><time>2026-04-25T07:46:09Z</time></trkpt><trkpt lat="44.15091030133871" lon="11.628411614748748"><ele>613.5999999999999</ele><time>2026-04-25T07:46:10Z</time></trkpt><trkpt lat="44.15096651946102" lon="11.628466360690343"><ele>613.4</ele><time>2026-04-25T07:46:11Z</time></trkpt><trkpt lat="44.15104432058074" lon="11.62857495877479"><ele>613.1999999999999</ele><time>2026-04-25T07:46:12Z</time></trkpt><trkpt lat="44.151121682006504" lon="11.628662347905152"><ele>613.0</ele><time>2026-04-25T07:46:13Z</time></trkpt><trkpt lat="44.151189524769045" lon="11.628744546932694"><ele>613.0</ele><time>2026-04-25T07:46:14Z</time></trkpt><trkpt lat="44.15127060505639" lon="11.628799249384478"><ele>613.0</ele><time>2026-04-25T07:46:15Z</time></trkpt><trkpt lat="44.15136597483448" lon="11.628823794377446"><ele>613.0</ele><time>2026-04-25T07:46:16Z</time></trkpt><trkpt lat="44.15145866957067" lon="11.628848635059404"><ele>613.0</ele><time>2026-04-25T07:46:17Z</time></trkpt><trkpt lat="44.15155557795555" lon="11.628871530459955"><ele>613.0</ele><time>2026-04-25T07:46:18Z</time></trkpt><trkpt lat="44.15163723230917" lon="11.628894114836203"><ele>608.0</ele><time>2026-04-25T07:46:19Z</time></trkpt><trkpt lat="44.15171767264544" lon="11.628915323911752"><ele>603.0</ele><time>2026-04-25T07:46:20Z</time></trkpt><trkpt lat="44.15180641067923" lon="11.628950206682365"><ele>598.0</ele><time>2026-04-25T07:46:21Z</time></trkpt><trkpt lat="44.15189571696391" lon="11.629017517977227"><ele>593.0</ele><time>2026-04-25T07:46:22Z</time></trkpt><trkpt lat="44.151976570026015" lon="11.629104483407712"><ele>588.0</ele><time>2026-04-25T07:46:23Z</time></trkpt><trkpt lat="44.152046704559254" lon="11.629193334461734"><ele>588.0</ele><time>2026-04-25T07:46:24Z</time></trkpt><trkpt lat="44.152111497559055" lon="11.629263762426103"><ele>588.0</ele><time>2026-04-25T07:46:25Z</time></trkpt><trkpt lat="44.15216134834332" lon="11.629330213218093"><ele>588.0</ele><time>2026-04-25T07:46:26Z</time></trkpt><trkpt lat="44.15221321910894" lon="11.62938532721416"><ele>588.0</ele><time>2026-04-25T07:46:27Z</time></trkpt><trkpt lat="44.15228488933943" lon="11.629399854584836"><ele>588.0</ele><time>2026-04-25T07:46:28Z</time></trkpt><trkpt lat="44.15235200663756" lon="11.62927307438044"><ele>588.0</ele><time>2026-04-25T07:46:30Z</time></trkpt><trkpt lat="44.15238658088894" lon="11.629167907706561"><ele>587.8333333333334</ele><time>2026-04-25T07:46:31Z</time></trkpt><trkpt lat="44.1523912520804" lon="11.62904236179248"><ele>587.6666666666666</ele><time>2026-04-25T07:46:32Z</time></trkpt><trkpt lat="44.152409084377524" lon="11.628942412597443"><ele>587.5</ele><time>2026-04-25T07:46:33Z</time></trkpt><trkpt lat="44.152454610960525" lon="11.62887029375507"><ele>587.3333333333333</ele><time>2026-04-25T07:46:34Z</time></trkpt><trkpt lat="44.15251985210818" lon="11.628830175430755"><ele>587.1666666666666</ele><time>2026-04-25T07:46:35Z</time></trkpt><trkpt lat="44.15260330253086" lon="11.628825492935949"><ele>587.0</ele><time>2026-04-25T07:46:36Z</time></trkpt><trkpt lat="44.15268392799607" lon="11.628805908806486"><ele>587.0</ele><time>2026-04-25T07:46:37Z</time></trkpt><trkpt lat="44.15274250977126" lon="11.628742609737282"><ele>587.0</ele><time>2026-04-25T07:46:38Z</time></trkpt><trkpt lat="44.15277774882643" lon="11.628637019446424"><ele>587.0</ele><time>2026-04-25T07:46:39Z</time></trkpt><trkpt lat="44.15279241889758" lon="11.628527146609192"><ele>587.0</ele><time>2026-04-25T07:46:40Z</time></trkpt><trkpt lat="44.152765107037474" lon="11.628429512068925"><ele>587.0</ele><time>2026-04-25T07:46:41Z</time></trkpt><trkpt lat="44.15271725723846" lon="11.628322267544075"><ele>587.0</ele><time>2026-04-25T07:46:42Z</time></trkpt><trkpt lat="44.15265235570988" lon="11.628216703449837"><ele>586.3333333333333</ele><time>2026-04-25T07:46:43Z</time></trkpt><trkpt lat="44.152593261147295" lon="11.628117147058308"><ele>585.6666666666666</ele><time>2026-04-25T07:46:44Z</time></trkpt><trkpt lat="44.15255945081888" lon="11.628030633395435"><ele>585.0</ele><time>2026-04-25T07:46:45Z</time></trkpt><trkpt lat="44.15254513162069" lon="11.62790637298527"><ele>584.3333333333334</ele><time>2026-04-25T07:46:46Z</time></trkpt><trkpt lat="44.15254650920479" lon="11.627805286216915"><ele>583.6666666666667</ele><time>2026-04-25T07:46:47Z</time></trkpt><trkpt lat="44.15256591045202" lon="11.62768365940428"><ele>583.0</ele><time>2026-04-25T07:46:48Z</time></trkpt><trkpt lat="44.15257808396995" lon="11.627592810888025"><ele>583.0</ele><time>2026-04-25T07:46:49Z</time></trkpt><trkpt lat="44.15263155825609" lon="11.627474221174587"><ele>583.0</ele><time>2026-04-25T07:46:50Z</time></trkpt><trkpt lat="44.15269878544057" lon="11.627403069479673"><ele>583.0</ele><time>2026-04-25T07:46:51Z</time></trkpt><trkpt lat="44.15276331832288" lon="11.627302606610085"><ele>583.0</ele><time>2026-04-25T07:46:52Z</time></trkpt><trkpt lat="44.15280022830287" lon="11.627187128347884"><ele>583.0</ele><time>2026-04-25T07:46:53Z</time></trkpt><trkpt lat="44.152816331311094" lon="11.627077359182007"><ele>584.6</ele><time>2026-04-25T07:46:54Z</time></trkpt><trkpt lat="44.15276918177977" lon="11.626939682162993"><ele>586.1999999999999</ele><time>2026-04-25T07:46:55Z</time></trkpt><trkpt lat="44.15273037130579" lon="11.626838260471105"><ele>587.8</ele><time>2026-04-25T07:46:56Z</time></trkpt><trkpt lat="44.15269753586067" lon="11.62668598667802"><ele>589.4</ele><time>2026-04-25T07:46:57Z</time></trkpt><trkpt lat="44.152625777345484" lon="11.626550798437203"><ele>591.0</ele><time>2026-04-25T07:46:58Z</time></trkpt><trkpt lat="44.152559411127804" lon="11.626453372015353"><ele>591.0</ele><time>2026-04-25T07:46:59Z</time></trkpt><trkpt lat="44.15247612753144" lon="11.626359163656204"><ele>591.0</ele><time>2026-04-25T07:47:00Z</time></trkpt><trkpt lat="44.152390990982475" lon="11.626313898347359"><ele>591.0</ele><time>2026-04-25T07:47:01Z</time></trkpt><trkpt lat="44.152307031773276" lon="11.626289634009213"><ele>591.0</ele><time>2026-04-25T07:47:02Z</time></trkpt><trkpt lat="44.15220044309833" lon="11.626239875147162"><ele>591.0</ele><time>2026-04-25T07:47:03Z</time></trkpt><trkpt lat="44.152115031546856" lon="11.626203239557674"><ele>592.0</ele><time>2026-04-25T07:47:04Z</time></trkpt><trkpt lat="44.152063478769755" lon="11.626144417873443"><ele>593.0</ele><time>2026-04-25T07:47:05Z</time></trkpt><trkpt lat="44.1519953242281" lon="11.626109558156696"><ele>594.0</ele><time>2026-04-25T07:47:06Z</time></trkpt><trkpt lat="44.15193266063458" lon="11.62608595926087"><ele>595.0</ele><time>2026-04-25T07:47:07Z</time></trkpt><trkpt lat="44.15186189769473" lon="11.625978270774397"><ele>596.0</ele><time>2026-04-25T07:47:09Z</time></trkpt><trkpt lat="44.15185500447909" lon="11.625780065271284"><ele>596.0</ele><time>2026-04-25T07:47:11Z</time></trkpt><trkpt lat="44.15187373486785" lon="11.625381591103134"><ele>596.0</ele><time>2026-04-25T07:47:14Z</time></trkpt><trkpt lat="44.15191726550245" lon="11.625295026111239"><ele>596.0</ele><time>2026-04-25T07:47:15Z</time></trkpt><trkpt lat="44.15195961922445" lon="11.625173045744978"><ele>597.25</ele><time>2026-04-25T07:47:16Z</time></trkpt><trkpt lat="44.15201175872025" lon="11.62501892426158"><ele>598.5</ele><time>2026-04-25T07:47:17Z</time></trkpt><trkpt lat="44.15206098914067" lon="11.624858787280264"><ele>599.75</ele><time>2026-04-25T07:47:18Z</time></trkpt><trkpt lat="44.15210424363912" lon="11.624692641079234"><ele>601.0</ele><time>2026-04-25T07:47:19Z</time></trkpt><trkpt lat="44.15213840616755" lon="11.624542528722486"><ele>600.5</ele><time>2026-04-25T07:47:20Z</time></trkpt><trkpt lat="44.15215575048318" lon="11.624419918701502"><ele>600.0</ele><time>2026-04-25T07:47:21Z</time></trkpt><trkpt lat="44.15216528341559" lon="11.624327183084699"><ele>599.5</ele><time>2026-04-25T07:47:22Z</time></trkpt><trkpt lat="44.15214152697722" lon="11.624227991510251"><ele>599.0</ele><time>2026-04-25T07:47:23Z</time></trkpt><trkpt lat="44.152139494019615" lon="11.624084552058498"><ele>598.5</ele><time>2026-04-25T07:47:25Z</time></trkpt><trkpt lat="44.152132618942254" lon="11.623939566478427"><ele>598.0</ele><time>2026-04-25T07:47:27Z</time></trkpt><trkpt lat="44.15214080235366" lon="11.623792833582572"><ele>598.0</ele><time>2026-04-25T07:47:29Z</time></trkpt><trkpt lat="44.15215909061785" lon="11.623697874199456"><ele>598.0</ele><time>2026-04-25T07:47:30Z</time></trkpt><trkpt lat="44.15219477375323" lon="11.623607560857705"><ele>598.0</ele><time>2026-04-25T07:47:31Z</time></trkpt><trkpt lat="44.15223954046005" lon="11.62348812465218"><ele>598.0</ele><time>2026-04-25T07:47:32Z</time></trkpt><trkpt lat="44.15227132338356" lon="11.623385283768473"><ele>598.0</ele><time>2026-04-25T07:47:33Z</time></trkpt><trkpt lat="44.1523207024954" lon="11.623279802441033"><ele>598.0</ele><time>2026-04-25T07:47:34Z</time></trkpt><trkpt lat="44.15238389426713" lon="11.623183549645244"><ele>600.0</ele><time>2026-04-25T07:47:35Z</time></trkpt><trkpt lat="44.15243647136206" lon="11.623073743774318"><ele>602.0</ele><time>2026-04-25T07:47:36Z</time></trkpt><trkpt lat="44.15250476413991" lon="11.623000719494192"><ele>604.0</ele><time>2026-04-25T07:47:37Z</time></trkpt><trkpt lat="44.1525776807676" lon="11.622871724515377"><ele>606.0</ele><time>2026-04-25T07:47:38Z</time></trkpt><trkpt lat="44.152650616322845" lon="11.622760685253434"><ele>608.0</ele><time>2026-04-25T07:47:39Z</time></trkpt><trkpt lat="44.15270106729924" lon="11.622634225587639"><ele>608.0</ele><time>2026-04-25T07:47:40Z</time></trkpt><trkpt lat="44.152757657262995" lon="11.622526437705336"><ele>608.0</ele><time>2026-04-25T07:47:41Z</time></trkpt><trkpt lat="44.152792472721146" lon="11.622402581305783"><ele>608.0</ele><time>2026-04-25T07:47:42Z</time></trkpt><trkpt lat="44.15283529707918" lon="11.622280992493632"><ele>608.0</ele><time>2026-04-25T07:47:43Z</time></trkpt><trkpt lat="44.15287091937486" lon="11.622176411580984"><ele>608.0</ele><time>2026-04-25T07:47:44Z</time></trkpt><trkpt lat="44.152868551504525" lon="11.62204193999007"><ele>606.1999999999999</ele><time>2026-04-25T07:47:45Z</time></trkpt><trkpt lat="44.152861709188144" lon="11.621920863909823"><ele>604.4</ele><time>2026-04-25T07:47:46Z</time></trkpt><trkpt lat="44.15282569556365" lon="11.621798513909416"><ele>602.5999999999999</ele><time>2026-04-25T07:47:47Z</time></trkpt><trkpt lat="44.1527906939646" lon="11.62168100145814"><ele>600.8</ele><time>2026-04-25T07:47:48Z</time></trkpt><trkpt lat="44.15274379008394" lon="11.62156308735759"><ele>599.0</ele><time>2026-04-25T07:47:49Z</time></trkpt><trkpt lat="44.152704372246966" lon="11.621458974901387"><ele>599.0</ele><time>2026-04-25T07:47:50Z</time></trkpt><trkpt lat="44.15269892252721" lon="11.621361829207629"><ele>599.0</ele><time>2026-04-25T07:47:51Z</time></trkpt><trkpt lat="44.15270078013793" lon="11.62126443268243"><ele>599.0</ele><time>2026-04-25T07:47:52Z</time></trkpt><trkpt lat="44.152758509085416" lon="11.621105817274426"><ele>599.0</ele><time>2026-04-25T07:47:54Z</time></trkpt><trkpt lat="44.152823100342424" lon="11.621055732965297"><ele>599.0</ele><time>2026-04-25T07:47:55Z</time></trkpt><trkpt lat="44.15288824211472" lon="11.621021925219553"><ele>599.0</ele><time>2026-04-25T07:47:56Z</time></trkpt><trkpt lat="44.15298993822161" lon="11.620987204715046"><ele>598.25</ele><time>2026-04-25T07:47:57Z</time></trkpt><trkpt lat="44.15310081445494" lon="11.620974695781257"><ele>597.5</ele><time>2026-04-25T07:47:58Z</time></trkpt><trkpt lat="44.15321150288903" lon="11.620922838690564"><ele>596.75</ele><time>2026-04-25T07:47:59Z</time></trkpt><trkpt lat="44.15331917404822" lon="11.620853169699444"><ele>596.0</ele><time>2026-04-25T07:48:00Z</time></trkpt><trkpt lat="44.15342223385257" lon="11.620766491934193"><ele>597.75</ele><time>2026-04-25T07:48:01Z</time></trkpt><trkpt lat="44.15351946150231" lon="11.620677045108605"><ele>599.5</ele><time>2026-04-25T07:48:02Z</time></trkpt><trkpt lat="44.153609810385824" lon="11.620578386442538"><ele>601.25</ele><time>2026-04-25T07:48:03Z</time></trkpt><trkpt lat="44.153692097465836" lon="11.620467639797345"><ele>603.0</ele><time>2026-04-25T07:48:04Z</time></trkpt><trkpt lat="44.15378381111703" lon="11.620376137605671"><ele>599.8</ele><time>2026-04-25T07:48:05Z</time></trkpt><trkpt lat="44.15387050168837" lon="11.62028681052554"><ele>596.5999999999999</ele><time>2026-04-25T07:48:06Z</time></trkpt><trkpt lat="44.153955929421755" lon="11.620202596891911"><ele>593.4000000000001</ele><time>2026-04-25T07:48:07Z</time></trkpt><trkpt lat="44.15403377567431" lon="11.620107071706427"><ele>590.2</ele><time>2026-04-25T07:48:08Z</time></trkpt><trkpt lat="44.154100615785495" lon="11.620034630415566"><ele>587.0</ele><time>2026-04-25T07:48:09Z</time></trkpt><trkpt lat="44.154186691289155" lon="11.619986675696671"><ele>587.0</ele><time>2026-04-25T07:48:10Z</time></trkpt><trkpt lat="44.154287420865984" lon="11.619993374834616"><ele>587.0</ele><time>2026-04-25T07:48:11Z</time></trkpt><trkpt lat="44.15439011029346" lon="11.62001705867721"><ele>587.0</ele><time>2026-04-25T07:48:12Z</time></trkpt><trkpt lat="44.154500422734074" lon="11.620051747460804"><ele>587.0</ele><time>2026-04-25T07:48:13Z</time></trkpt><trkpt lat="44.154600228567716" lon="11.620092921449869"><ele>587.0</ele><time>2026-04-25T07:48:14Z</time></trkpt><trkpt lat="44.15470374249307" lon="11.620128390281609"><ele>587.0</ele><time>2026-04-25T07:48:15Z</time></trkpt><trkpt lat="44.1547970990859" lon="11.620142289351946"><ele>587.0</ele><time>2026-04-25T07:48:16Z</time></trkpt><trkpt lat="44.154876547722445" lon="11.62018571181397"><ele>587.0</ele><time>2026-04-25T07:48:17Z</time></trkpt><trkpt lat="44.15496007885456" lon="11.620200444481895"><ele>587.0</ele><time>2026-04-25T07:48:18Z</time></trkpt><trkpt lat="44.15503275499855" lon="11.620176120155692"><ele>587.0</ele><time>2026-04-25T07:48:19Z</time></trkpt><trkpt lat="44.15509863087101" lon="11.620125990644645"><ele>587.0</ele><time>2026-04-25T07:48:20Z</time></trkpt><trkpt lat="44.15515074867848" lon="11.620031952535635"><ele>587.0</ele><time>2026-04-25T07:48:21Z</time></trkpt><trkpt lat="44.15519373259973" lon="11.619914562654918"><ele>587.0</ele><time>2026-04-25T07:48:22Z</time></trkpt><trkpt lat="44.15523677921163" lon="11.619758208881267"><ele>587.0</ele><time>2026-04-25T07:48:23Z</time></trkpt><trkpt lat="44.15524831608131" lon="11.619580360234192"><ele>587.0</ele><time>2026-04-25T07:48:24Z</time></trkpt><trkpt lat="44.155305304390524" lon="11.619438229322721"><ele>583.8000000000001</ele><time>2026-04-25T07:48:25Z</time></trkpt><trkpt lat="44.15535666734524" lon="11.619316437725917"><ele>580.6</ele><time>2026-04-25T07:48:26Z</time></trkpt><trkpt lat="44.155422509467" lon="11.619196879589413"><ele>577.4000000000001</ele><time>2026-04-25T07:48:27Z</time></trkpt><trkpt lat="44.15547210792943" lon="11.619090288062425"><ele>574.2</ele><time>2026-04-25T07:48:28Z</time></trkpt><trkpt lat="44.15552708558881" lon="11.61897429231458"><ele>571.0</ele><time>2026-04-25T07:48:29Z</time></trkpt><trkpt lat="44.15558632581327" lon="11.618870670905489"><ele>571.0</ele><time>2026-04-25T07:48:30Z</time></trkpt><trkpt lat="44.15562177308216" lon="11.618744279051805"><ele>571.0</ele><time>2026-04-25T07:48:31Z</time></trkpt><trkpt lat="44.15568676071884" lon="11.618611479744757"><ele>571.0</ele><time>2026-04-25T07:48:33Z</time></trkpt><trkpt lat="44.15565995213465" lon="11.61848112397086"><ele>571.0</ele><time>2026-04-25T07:48:35Z</time></trkpt><trkpt lat="44.15554771628339" lon="11.618494365827441"><ele>571.0</ele><time>2026-04-25T07:48:37Z</time></trkpt><trkpt lat="44.15546660384309" lon="11.618585837372839"><ele>571.0</ele><time>2026-04-25T07:48:38Z</time></trkpt><trkpt lat="44.15541645020405" lon="11.618716965149064"><ele>571.0</ele><time>2026-04-25T07:48:39Z</time></trkpt><trkpt lat="44.15535340944621" lon="11.618872117928662"><ele>571.0</ele><time>2026-04-25T07:48:40Z</time></trkpt><trkpt lat="44.155279259573156" lon="11.618991889145342"><ele>571.0</ele><time>2026-04-25T07:48:41Z</time></trkpt><trkpt lat="44.15520267744774" lon="11.619066274764915"><ele>571.0</ele><time>2026-04-25T07:48:42Z</time></trkpt><trkpt lat="44.15510745456384" lon="11.619117932773165"><ele>571.0</ele><time>2026-04-25T07:48:43Z</time></trkpt><trkpt lat="44.15501422812185" lon="11.619110948750588"><ele>571.0</ele><time>2026-04-25T07:48:44Z</time></trkpt><trkpt lat="44.15495179293127" lon="11.619070926148682"><ele>571.0</ele><time>2026-04-25T07:48:45Z</time></trkpt><trkpt lat="44.15484269872207" lon="11.619020088647916"><ele>571.0</ele><time>2026-04-25T07:48:46Z</time></trkpt><trkpt lat="44.154729884881796" lon="11.618938364559314"><ele>571.0</ele><time>2026-04-25T07:48:47Z</time></trkpt><trkpt lat="44.15461974928879" lon="11.618817493408079"><ele>569.8</ele><time>2026-04-25T07:48:48Z</time></trkpt><trkpt lat="44.15452272022027" lon="11.618729437382296"><ele>568.6</ele><time>2026-04-25T07:48:49Z</time></trkpt><trkpt lat="44.154416408770906" lon="11.618691009946783"><ele>567.4</ele><time>2026-04-25T07:48:50Z</time></trkpt><trkpt lat="44.154340850803635" lon="11.618669634299632"><ele>566.2</ele><time>2026-04-25T07:48:51Z</time></trkpt><trkpt lat="44.15422896762804" lon="11.618633715013692"><ele>565.0</ele><time>2026-04-25T07:48:53Z</time></trkpt><trkpt lat="44.15420149307945" lon="11.618500122378437"><ele>561.0</ele><time>2026-04-25T07:48:55Z</time></trkpt><trkpt lat="44.15423338941206" lon="11.618422355894337"><ele>557.0</ele><time>2026-04-25T07:48:56Z</time></trkpt><trkpt lat="44.15431895631348" lon="11.61840616954401"><ele>553.0</ele><time>2026-04-25T07:48:57Z</time></trkpt><trkpt lat="44.154377720949014" lon="11.618461094611572"><ele>549.0</ele><time>2026-04-25T07:48:58Z</time></trkpt><trkpt lat="44.15445560328421" lon="11.618525692868335"><ele>545.0</ele><time>2026-04-25T07:48:59Z</time></trkpt><trkpt lat="44.154535803244094" lon="11.618601264321422"><ele>541.0</ele><time>2026-04-25T07:49:00Z</time></trkpt><trkpt lat="44.15465868700823" lon="11.61864391964286"><ele>541.0</ele><time>2026-04-25T07:49:01Z</time></trkpt><trkpt lat="44.15475311432763" lon="11.618669112683822"><ele>541.0</ele><time>2026-04-25T07:49:02Z</time></trkpt><trkpt lat="44.1548520679319" lon="11.618635959016109"><ele>541.0</ele><time>2026-04-25T07:49:03Z</time></trkpt><trkpt lat="44.15491637501103" lon="11.61859209666626"><ele>541.0</ele><time>2026-04-25T07:49:04Z</time></trkpt><trkpt lat="44.154985214286725" lon="11.618518160249188"><ele>541.0</ele><time>2026-04-25T07:49:05Z</time></trkpt><trkpt lat="44.15501137642601" lon="11.618422188543937"><ele>541.0</ele><time>2026-04-25T07:49:06Z</time></trkpt><trkpt lat="44.155035081820955" lon="11.618293254067792"><ele>542.8</ele><time>2026-04-25T07:49:07Z</time></trkpt><trkpt lat="44.155052305190374" lon="11.61817477314015"><ele>544.6</ele><time>2026-04-25T07:49:08Z</time></trkpt><trkpt lat="44.155061994159105" lon="11.618037185806326"><ele>546.4</ele><time>2026-04-25T07:49:09Z</time></trkpt><trkpt lat="44.155078634445466" lon="11.617880729188286"><ele>548.2</ele><time>2026-04-25T07:49:10Z</time></trkpt><trkpt lat="44.1551268532139" lon="11.617768572666396"><ele>550.0</ele><time>2026-04-25T07:49:11Z</time></trkpt><trkpt lat="44.15518984908033" lon="11.617644606416476"><ele>545.8</ele><time>2026-04-25T07:49:12Z</time></trkpt><trkpt lat="44.15524784319216" lon="11.617516325720207"><ele>541.6</ele><time>2026-04-25T07:49:13Z</time></trkpt><trkpt lat="44.155306459263215" lon="11.617400223581075"><ele>537.4</ele><time>2026-04-25T07:49:14Z</time></trkpt><trkpt lat="44.15538203124024" lon="11.617312297362291"><ele>533.2</ele><time>2026-04-25T07:49:15Z</time></trkpt><trkpt lat="44.155454733024484" lon="11.617230184474716"><ele>529.0</ele><time>2026-04-25T07:49:16Z</time></trkpt><trkpt lat="44.15552626318438" lon="11.617149408036651"><ele>529.0</ele><time>2026-04-25T07:49:17Z</time></trkpt><trkpt lat="44.15559131591088" lon="11.617059392200163"><ele>529.0</ele><time>2026-04-25T07:49:18Z</time></trkpt><trkpt lat="44.15566344166312" lon="11.61698958074644"><ele>529.0</ele><time>2026-04-25T07:49:19Z</time></trkpt><trkpt lat="44.15574894055881" lon="11.616978242270735"><ele>529.0</ele><time>2026-04-25T07:49:20Z</time></trkpt><trkpt lat="44.155866364831574" lon="11.61697708562517"><ele>529.0</ele><time>2026-04-25T07:49:21Z</time></trkpt><trkpt lat="44.155965162256045" lon="11.616965049599518"><ele>527.8333333333334</ele><time>2026-04-25T07:49:22Z</time></trkpt><trkpt lat="44.156057169326054" lon="11.616912667989054"><ele>526.6666666666667</ele><time>2026-04-25T07:49:23Z</time></trkpt><trkpt lat="44.15614101288804" lon="11.616859931046664"><ele>525.5</ele><time>2026-04-25T07:49:24Z</time></trkpt><trkpt lat="44.15622112318701" lon="11.61681846291208"><ele>524.3333333333334</ele><time>2026-04-25T07:49:25Z</time></trkpt><trkpt lat="44.15628696168381" lon="11.61678533719543"><ele>523.1666666666666</ele><time>2026-04-25T07:49:26Z</time></trkpt><trkpt lat="44.156351197848736" lon="11.616772395495026"><ele>522.0</ele><time>2026-04-25T07:49:27Z</time></trkpt><trkpt lat="44.15646231497592" lon="11.61686369048407"><ele>522.0</ele><time>2026-04-25T07:49:29Z</time></trkpt><trkpt lat="44.15651092712478" lon="11.616967395018102"><ele>522.0</ele><time>2026-04-25T07:49:30Z</time></trkpt><trkpt lat="44.156546562043744" lon="11.617108995179917"><ele>522.0</ele><time>2026-04-25T07:49:31Z</time></trkpt><trkpt lat="44.15659489937297" lon="11.617289883741037"><ele>522.0</ele><time>2026-04-25T07:49:32Z</time></trkpt><trkpt lat="44.15665624078089" lon="11.617515513744097"><ele>522.5</ele><time>2026-04-25T07:49:33Z</time></trkpt><trkpt lat="44.156724799125094" lon="11.61771129996431"><ele>523.0</ele><time>2026-04-25T07:49:34Z</time></trkpt><trkpt lat="44.156804051707425" lon="11.617873053800256"><ele>523.5</ele><time>2026-04-25T07:49:35Z</time></trkpt><trkpt lat="44.15687760420401" lon="11.618017740653379"><ele>524.0</ele><time>2026-04-25T07:49:36Z</time></trkpt><trkpt lat="44.156928905985104" lon="11.618148649889612"><ele>527.4</ele><time>2026-04-25T07:49:37Z</time></trkpt><trkpt lat="44.1569941103049" lon="11.61826782943297"><ele>530.8</ele><time>2026-04-25T07:49:38Z</time></trkpt><trkpt lat="44.15706212450627" lon="11.618332695909308"><ele>534.2</ele><time>2026-04-25T07:49:39Z</time></trkpt><trkpt lat="44.1571357209303" lon="11.618373295068318"><ele>537.6</ele><time>2026-04-25T07:49:40Z</time></trkpt><trkpt lat="44.15720285874353" lon="11.618320024902062"><ele>541.0</ele><time>2026-04-25T07:49:42Z</time></trkpt><trkpt lat="44.15729034989497" lon="11.618239467817245"><ele>536.8</ele><time>2026-04-25T07:49:43Z</time></trkpt><trkpt lat="44.157389655622" lon="11.618157829667103"><ele>532.6</ele><time>2026-04-25T07:49:44Z</time></trkpt><trkpt lat="44.157471923938374" lon="11.618098402476914"><ele>528.4</ele><time>2026-04-25T07:49:45Z</time></trkpt><trkpt lat="44.15755443140363" lon="11.617997496271663"><ele>524.2</ele><time>2026-04-25T07:49:46Z</time></trkpt><trkpt lat="44.15767278108239" lon="11.617947146239615"><ele>520.0</ele><time>2026-04-25T07:49:48Z</time></trkpt><trkpt lat="44.15778748612215" lon="11.618014225790697"><ele>520.0</ele><time>2026-04-25T07:49:50Z</time></trkpt><trkpt lat="44.15786896678469" lon="11.618114857747079"><ele>520.0</ele><time>2026-04-25T07:49:51Z</time></trkpt><trkpt lat="44.157985459884294" lon="11.618203284456175"><ele>520.0</ele><time>2026-04-25T07:49:52Z</time></trkpt><trkpt lat="44.15810116845853" lon="11.618288624586336"><ele>520.0</ele><time>2026-04-25T07:49:53Z</time></trkpt><trkpt lat="44.15820807256891" lon="11.618358919181079"><ele>519.4</ele><time>2026-04-25T07:49:54Z</time></trkpt><trkpt lat="44.15829663550183" lon="11.618442453038186"><ele>518.8</ele><time>2026-04-25T07:49:55Z</time></trkpt><trkpt lat="44.15836097258819" lon="11.618567276351861"><ele>518.2</ele><time>2026-04-25T07:49:56Z</time></trkpt><trkpt lat="44.15839292424624" lon="11.618696254691764"><ele>517.6</ele><time>2026-04-25T07:49:57Z</time></trkpt><trkpt lat="44.158460520906516" lon="11.618797664772089"><ele>517.0</ele><time>2026-04-25T07:49:58Z</time></trkpt><trkpt lat="44.158558866920515" lon="11.618866611212717"><ele>517.0</ele><time>2026-04-25T07:49:59Z</time></trkpt><trkpt lat="44.15865298205353" lon="11.618926894133146"><ele>517.0</ele><time>2026-04-25T07:50:00Z</time></trkpt><trkpt lat="44.15875417420941" lon="11.618952617553479"><ele>517.0</ele><time>2026-04-25T07:50:01Z</time></trkpt><trkpt lat="44.158841250546715" lon="11.619014061794326"><ele>517.0</ele><time>2026-04-25T07:50:02Z</time></trkpt><trkpt lat="44.15891924608456" lon="11.619120011920472"><ele>517.0</ele><time>2026-04-25T07:50:03Z</time></trkpt><trkpt lat="44.1590073392563" lon="11.619247458995991"><ele>511.25</ele><time>2026-04-25T07:50:04Z</time></trkpt><trkpt lat="44.15907044671078" lon="11.619414762681625"><ele>505.5</ele><time>2026-04-25T07:50:05Z</time></trkpt><trkpt lat="44.1591279158334" lon="11.619557649064618"><ele>499.75</ele><time>2026-04-25T07:50:06Z</time></trkpt><trkpt lat="44.159176351559864" lon="11.619686361026845"><ele>494.0</ele><time>2026-04-25T07:50:07Z</time></trkpt><trkpt lat="44.15924171020469" lon="11.619836991389812"><ele>493.99999999999994</ele><time>2026-04-25T07:50:08Z</time></trkpt><trkpt lat="44.15926622466255" lon="11.619961961052212"><ele>494.0</ele><time>2026-04-25T07:50:09Z</time></trkpt><trkpt lat="44.15928240613823" lon="11.62006849776426"><ele>494.0</ele><time>2026-04-25T07:50:10Z</time></trkpt><trkpt lat="44.159329495368596" lon="11.620153795171523"><ele>494.0</ele><time>2026-04-25T07:50:11Z</time></trkpt><trkpt lat="44.15940549364377" lon="11.62019796251612"><ele>493.99999999999994</ele><time>2026-04-25T07:50:12Z</time></trkpt><trkpt lat="44.159519393432504" lon="11.62023492308645"><ele>494.0</ele><time>2026-04-25T07:50:13Z</time></trkpt><trkpt lat="44.15960103760685" lon="11.620274394385103"><ele>496.0</ele><time>2026-04-25T07:50:14Z</time></trkpt><trkpt lat="44.159675984873864" lon="11.620358865764011"><ele>498.0</ele><time>2026-04-25T07:50:15Z</time></trkpt><trkpt lat="44.15974034613867" lon="11.62047438393023"><ele>500.0</ele><time>2026-04-25T07:50:16Z</time></trkpt><trkpt lat="44.15977293454269" lon="11.62060309969047"><ele>502.0</ele><time>2026-04-25T07:50:17Z</time></trkpt><trkpt lat="44.15981167401129" lon="11.62073833022303"><ele>504.0</ele><time>2026-04-25T07:50:18Z</time></trkpt><trkpt lat="44.159837598700406" lon="11.620824438859897"><ele>504.0</ele><time>2026-04-25T07:50:19Z</time></trkpt><trkpt lat="44.15985784092914" lon="11.620918872415697"><ele>504.0</ele><time>2026-04-25T07:50:20Z</time></trkpt><trkpt lat="44.1598675094621" lon="11.621025061177072"><ele>504.0</ele><time>2026-04-25T07:50:21Z</time></trkpt><trkpt lat="44.15984001672716" lon="11.621132627691798"><ele>504.0</ele><time>2026-04-25T07:50:22Z</time></trkpt><trkpt lat="44.159786288130746" lon="11.621210422351378"><ele>504.0</ele><time>2026-04-25T07:50:23Z</time></trkpt><trkpt lat="44.15970941740582" lon="11.62125866270596"><ele>504.0</ele><time>2026-04-25T07:50:24Z</time></trkpt><trkpt lat="44.15963724910888" lon="11.621303124674514"><ele>501.79999999999995</ele><time>2026-04-25T07:50:25Z</time></trkpt><trkpt lat="44.15958358384501" lon="11.621413013925832"><ele>499.59999999999997</ele><time>2026-04-25T07:50:27Z</time></trkpt><trkpt lat="44.15957836738228" lon="11.621504231462778"><ele>497.4</ele><time>2026-04-25T07:50:28Z</time></trkpt><trkpt lat="44.159619498553134" lon="11.621577795192737"><ele>495.2</ele><time>2026-04-25T07:50:29Z</time></trkpt><trkpt lat="44.15975844915317" lon="11.621594249233814"><ele>493.0</ele><time>2026-04-25T07:50:31Z</time></trkpt><trkpt lat="44.15986047177546" lon="11.621564243744247"><ele>489.00000000000006</ele><time>2026-04-25T07:50:32Z</time></trkpt><trkpt lat="44.15995647098042" lon="11.621541783124535"><ele>485.0</ele><time>2026-04-25T07:50:33Z</time></trkpt><trkpt lat="44.16004147513018" lon="11.621526611609703"><ele>481.0</ele><time>2026-04-25T07:50:34Z</time></trkpt><trkpt lat="44.160111784440815" lon="11.62151760771006"><ele>477.0</ele><time>2026-04-25T07:50:35Z</time></trkpt><trkpt lat="44.160192215276844" lon="11.621559547076247"><ele>473.00000000000006</ele><time>2026-04-25T07:50:36Z</time></trkpt><trkpt lat="44.160269268453064" lon="11.621660223416823"><ele>469.0</ele><time>2026-04-25T07:50:37Z</time></trkpt><trkpt lat="44.16034005999187" lon="11.62177832747888"><ele>469.0</ele><time>2026-04-25T07:50:38Z</time></trkpt><trkpt lat="44.160444616226435" lon="11.621854859719503"><ele>469.0</ele><time>2026-04-25T07:50:39Z</time></trkpt><trkpt lat="44.16054602489458" lon="11.621873550359433"><ele>469.0</ele><time>2026-04-25T07:50:40Z</time></trkpt><trkpt lat="44.16065763044967" lon="11.621928793491554"><ele>469.0</ele><time>2026-04-25T07:50:41Z</time></trkpt><trkpt lat="44.16076486531952" lon="11.621932230537766"><ele>469.0</ele><time>2026-04-25T07:50:42Z</time></trkpt><trkpt lat="44.160868919792044" lon="11.621961831118568"><ele>467.79999999999995</ele><time>2026-04-25T07:50:43Z</time></trkpt><trkpt lat="44.16094948365882" lon="11.622041500718693"><ele>466.59999999999997</ele><time>2026-04-25T07:50:44Z</time></trkpt><trkpt lat="44.16101905008665" lon="11.622123882722963"><ele>465.4</ele><time>2026-04-25T07:50:45Z</time></trkpt><trkpt lat="44.16109381975567" lon="11.622183478350383"><ele>464.2</ele><time>2026-04-25T07:50:46.001Z</time></trkpt><trkpt lat="44.161178177583814" lon="11.622215541412766"><ele>463.0</ele><time>2026-04-25T07:50:47.001Z</time></trkpt><trkpt lat="44.16126564051674" lon="11.622203623118036"><ele>463.0</ele><time>2026-04-25T07:50:48.001Z</time></trkpt><trkpt lat="44.16136472278549" lon="11.622156830927995"><ele>462.99999999999994</ele><time>2026-04-25T07:50:49.001Z</time></trkpt><trkpt lat="44.16144709228646" lon="11.62216482057484"><ele>462.99999999999994</ele><time>2026-04-25T07:50:50.001Z</time></trkpt><trkpt lat="44.16153599156089" lon="11.622210555289655"><ele>463.0</ele><time>2026-04-25T07:50:51.001Z</time></trkpt><trkpt lat="44.161601960455165" lon="11.622285903151166"><ele>463.0</ele><time>2026-04-25T07:50:52.001Z</time></trkpt><trkpt lat="44.16164585464998" lon="11.622404548709568"><ele>461.25</ele><time>2026-04-25T07:50:53.001Z</time></trkpt><trkpt lat="44.16167369412226" lon="11.622546634737976"><ele>459.5</ele><time>2026-04-25T07:50:54.001Z</time></trkpt><trkpt lat="44.161682039564454" lon="11.622733086895606"><ele>457.75</ele><time>2026-04-25T07:50:55.001Z</time></trkpt><trkpt lat="44.1616889142127" lon="11.622898977580757"><ele>456.0</ele><time>2026-04-25T07:50:56.001Z</time></trkpt><trkpt lat="44.161701310621055" lon="11.623048394076243"><ele>456.0</ele><time>2026-04-25T07:50:57.001Z</time></trkpt><trkpt lat="44.16171243265528" lon="11.623153513504226"><ele>456.0</ele><time>2026-04-25T07:50:58.001Z</time></trkpt><trkpt lat="44.16174407540354" lon="11.623247342062434"><ele>456.0</ele><time>2026-04-25T07:50:59.001Z</time></trkpt><trkpt lat="44.16180276706806" lon="11.623309094042018"><ele>456.0</ele><time>2026-04-25T07:51:00.001Z</time></trkpt><trkpt lat="44.16188059841217" lon="11.623330464151476"><ele>456.0</ele><time>2026-04-25T07:51:01.001Z</time></trkpt><trkpt lat="44.16195979395698" lon="11.623340783892386"><ele>456.0</ele><time>2026-04-25T07:51:02.001Z</time></trkpt><trkpt lat="44.16203450529654" lon="11.623364130589241"><ele>456.0</ele><time>2026-04-25T07:51:03.001Z</time></trkpt><trkpt lat="44.162102341817864" lon="11.62343612174673"><ele>456.0</ele><time>2026-04-25T07:51:04.001Z</time></trkpt><trkpt lat="44.162152665490765" lon="11.623565496174807"><ele>456.0</ele><time>2026-04-25T07:51:05.001Z</time></trkpt><trkpt lat="44.16220047974623" lon="11.623726746591155"><ele>456.0</ele><time>2026-04-25T07:51:06.001Z</time></trkpt><trkpt lat="44.16222591121518" lon="11.623888151292906"><ele>456.0</ele><time>2026-04-25T07:51:07.001Z</time></trkpt><trkpt lat="44.16225097449473" lon="11.624021673876458"><ele>457.4</ele><time>2026-04-25T07:51:08.001Z</time></trkpt><trkpt lat="44.16228725687993" lon="11.624148378587702"><ele>458.8</ele><time>2026-04-25T07:51:09.001Z</time></trkpt><trkpt lat="44.16232769759343" lon="11.624243232992807"><ele>460.19999999999993</ele><time>2026-04-25T07:51:10.001Z</time></trkpt><trkpt lat="44.16237872588815" lon="11.624309890907321"><ele>461.59999999999997</ele><time>2026-04-25T07:51:11.001Z</time></trkpt><trkpt lat="44.16244897615289" lon="11.624403508664837"><ele>463.0</ele><time>2026-04-25T07:51:12.001Z</time></trkpt><trkpt lat="44.16255324091925" lon="11.624516115544337"><ele>458.25</ele><time>2026-04-25T07:51:13.001Z</time></trkpt><trkpt lat="44.162662630617035" lon="11.624623060482095"><ele>453.5</ele><time>2026-04-25T07:51:14.001Z</time></trkpt><trkpt lat="44.16276547258966" lon="11.624724623901205"><ele>448.75</ele><time>2026-04-25T07:51:15Z</time></trkpt><trkpt lat="44.16285253206404" lon="11.62479631381101"><ele>444.0</ele><time>2026-04-25T07:51:16Z</time></trkpt><trkpt lat="44.16294573878488" lon="11.624846293634409"><ele>444.0</ele><time>2026-04-25T07:51:17Z</time></trkpt><trkpt lat="44.16304063070638" lon="11.624864817567472"><ele>444.0</ele><time>2026-04-25T07:51:18Z</time></trkpt><trkpt lat="44.163127536090535" lon="11.624868389427718"><ele>444.0</ele><time>2026-04-25T07:51:19Z</time></trkpt><trkpt lat="44.16324542002045" lon="11.624859747247998"><ele>444.0</ele><time>2026-04-25T07:51:20Z</time></trkpt><trkpt lat="44.163370675745035" lon="11.624849719002443"><ele>444.0</ele><time>2026-04-25T07:51:21Z</time></trkpt><trkpt lat="44.16351773940734" lon="11.624829907194657"><ele>442.25</ele><time>2026-04-25T07:51:22Z</time></trkpt><trkpt lat="44.163660679242575" lon="11.624830470382904"><ele>440.5</ele><time>2026-04-25T07:51:23Z</time></trkpt><trkpt lat="44.16377943130726" lon="11.624826536447076"><ele>438.75</ele><time>2026-04-25T07:51:24Z</time></trkpt><trkpt lat="44.16389286383236" lon="11.624801214964185"><ele>437.0</ele><time>2026-04-25T07:51:25Z</time></trkpt><trkpt lat="44.163999176682545" lon="11.624810127845759"><ele>437.20000000000005</ele><time>2026-04-25T07:51:26Z</time></trkpt><trkpt lat="44.16408591303139" lon="11.624845995253022"><ele>437.40000000000003</ele><time>2026-04-25T07:51:27Z</time></trkpt><trkpt lat="44.16415854168861" lon="11.624905899280344"><ele>437.59999999999997</ele><time>2026-04-25T07:51:28Z</time></trkpt><trkpt lat="44.16422566697731" lon="11.625001555139761"><ele>437.79999999999995</ele><time>2026-04-25T07:51:29Z</time></trkpt><trkpt lat="44.164285418823724" lon="11.625147342425358"><ele>438.0</ele><time>2026-04-25T07:51:30Z</time></trkpt><trkpt lat="44.164343908214065" lon="11.625295373865873"><ele>436.4</ele><time>2026-04-25T07:51:31Z</time></trkpt><trkpt lat="44.164403497229934" lon="11.625436257561283"><ele>434.79999999999995</ele><time>2026-04-25T07:51:32Z</time></trkpt><trkpt lat="44.16447639050187" lon="11.625549965807412"><ele>433.2</ele><time>2026-04-25T07:51:33Z</time></trkpt><trkpt lat="44.16454954621713" lon="11.625652795599315"><ele>431.6</ele><time>2026-04-25T07:51:34Z</time></trkpt><trkpt lat="44.16459914136382" lon="11.625743112867285"><ele>430.0</ele><time>2026-04-25T07:51:35Z</time></trkpt><trkpt lat="44.16465015538911" lon="11.62583568398706"><ele>430.00000000000006</ele><time>2026-04-25T07:51:36Z</time></trkpt><trkpt lat="44.164697882056814" lon="11.625926086246086"><ele>430.0</ele><time>2026-04-25T07:51:37Z</time></trkpt><trkpt lat="44.164744185943675" lon="11.626018761656665"><ele>430.0</ele><time>2026-04-25T07:51:38Z</time></trkpt><trkpt lat="44.1648007124191" lon="11.62612341325118"><ele>430.0</ele><time>2026-04-25T07:51:39Z</time></trkpt><trkpt lat="44.164856173007976" lon="11.626195465425281"><ele>430.00000000000006</ele><time>2026-04-25T07:51:40Z</time></trkpt><trkpt lat="44.16493293967027" lon="11.626227305992535"><ele>430.0</ele><time>2026-04-25T07:51:41Z</time></trkpt><trkpt lat="44.16500782683063" lon="11.626207068541637"><ele>430.83333333333337</ele><time>2026-04-25T07:51:42Z</time></trkpt><trkpt lat="44.16510040091312" lon="11.62615937922405"><ele>431.6666666666667</ele><time>2026-04-25T07:51:43Z</time></trkpt><trkpt lat="44.16517068655368" lon="11.626099145052738"><ele>432.5</ele><time>2026-04-25T07:51:44Z</time></trkpt><trkpt lat="44.16522821098885" lon="11.626020420698932"><ele>433.33333333333337</ele><time>2026-04-25T07:51:45Z</time></trkpt><trkpt lat="44.16528773436132" lon="11.62593643250419"><ele>434.1666666666667</ele><time>2026-04-25T07:51:46Z</time></trkpt><trkpt lat="44.16535218500945" lon="11.625865358891911"><ele>435.0</ele><time>2026-04-25T07:51:47Z</time></trkpt><trkpt lat="44.165419596943735" lon="11.62581881685206"><ele>435.0</ele><time>2026-04-25T07:51:48Z</time></trkpt><trkpt lat="44.1654955223015" lon="11.625808516606245"><ele>435.0</ele><time>2026-04-25T07:51:49Z</time></trkpt><trkpt lat="44.165572528691726" lon="11.625841814526172"><ele>435.0</ele><time>2026-04-25T07:51:50Z</time></trkpt><trkpt lat="44.16563964657895" lon="11.625922114471962"><ele>435.0</ele><time>2026-04-25T07:51:51Z</time></trkpt><trkpt lat="44.165731110860925" lon="11.626033634814089"><ele>435.0</ele><time>2026-04-25T07:51:52Z</time></trkpt><trkpt lat="44.16583205692939" lon="11.626151345889499"><ele>432.25</ele><time>2026-04-25T07:51:53Z</time></trkpt><trkpt lat="44.16593077386062" lon="11.62624707609061"><ele>429.5</ele><time>2026-04-25T07:51:54Z</time></trkpt><trkpt lat="44.16603118722408" lon="11.626357906565898"><ele>426.75</ele><time>2026-04-25T07:51:55Z</time></trkpt><trkpt lat="44.16612237620895" lon="11.626475997567617"><ele>424.0</ele><time>2026-04-25T07:51:56Z</time></trkpt><trkpt lat="44.16621749616964" lon="11.626567669137595"><ele>424.0</ele><time>2026-04-25T07:51:57Z</time></trkpt><trkpt lat="44.166300879097186" lon="11.626668753818935"><ele>424.0</ele><time>2026-04-25T07:51:58Z</time></trkpt><trkpt lat="44.16637801380338" lon="11.626773447255607"><ele>424.0</ele><time>2026-04-25T07:51:59Z</time></trkpt><trkpt lat="44.16647955822991" lon="11.626879646266634"><ele>424.0</ele><time>2026-04-25T07:52:00Z</time></trkpt><trkpt lat="44.166580109034435" lon="11.626976054906102"><ele>422.33333333333337</ele><time>2026-04-25T07:52:01Z</time></trkpt><trkpt lat="44.16666925479927" lon="11.62707214849907"><ele>420.6666666666667</ele><time>2026-04-25T07:52:02Z</time></trkpt><trkpt lat="44.16674348051562" lon="11.627167835754372"><ele>419.0</ele><time>2026-04-25T07:52:03Z</time></trkpt><trkpt lat="44.166814879400924" lon="11.627241539463265"><ele>417.33333333333337</ele><time>2026-04-25T07:52:04Z</time></trkpt><trkpt lat="44.16687328194211" lon="11.627307695702154"><ele>415.6666666666667</ele><time>2026-04-25T07:52:05Z</time></trkpt><trkpt lat="44.16689945731314" lon="11.627397803074548"><ele>414.0</ele><time>2026-04-25T07:52:06Z</time></trkpt><trkpt lat="44.166896330906475" lon="11.627505730568492"><ele>414.0</ele><time>2026-04-25T07:52:07Z</time></trkpt><trkpt lat="44.16686864245397" lon="11.627630712882842"><ele>414.0</ele><time>2026-04-25T07:52:08Z</time></trkpt><trkpt lat="44.16681535481226" lon="11.627777096656043"><ele>414.0</ele><time>2026-04-25T07:52:09Z</time></trkpt><trkpt lat="44.16674596950319" lon="11.627964181177994"><ele>414.0</ele><time>2026-04-25T07:52:10Z</time></trkpt><trkpt lat="44.166681245262154" lon="11.628129954642805"><ele>414.0</ele><time>2026-04-25T07:52:11Z</time></trkpt><trkpt lat="44.16662983369082" lon="11.628287087827294"><ele>414.0</ele><time>2026-04-25T07:52:12Z</time></trkpt><trkpt lat="44.16657692113208" lon="11.62843839315727"><ele>414.0</ele><time>2026-04-25T07:52:13Z</time></trkpt><trkpt lat="44.16652178263463" lon="11.628569149554119"><ele>414.0</ele><time>2026-04-25T07:52:14Z</time></trkpt><trkpt lat="44.166476112058284" lon="11.628684261415094"><ele>414.0</ele><time>2026-04-25T07:52:15Z</time></trkpt><trkpt lat="44.16645555894671" lon="11.628781717063278"><ele>414.0</ele><time>2026-04-25T07:52:16Z</time></trkpt><trkpt lat="44.166447550516736" lon="11.628885083259144"><ele>414.0</ele><time>2026-04-25T07:52:17Z</time></trkpt><trkpt lat="44.16646437232489" lon="11.628980256321471"><ele>414.0</ele><time>2026-04-25T07:52:18Z</time></trkpt><trkpt lat="44.16650119556769" lon="11.629070945015794"><ele>414.0</ele><time>2026-04-25T07:52:19Z</time></trkpt><trkpt lat="44.16655702558688" lon="11.629161851971485"><ele>414.0</ele><time>2026-04-25T07:52:20Z</time></trkpt><trkpt lat="44.16663613830525" lon="11.629276818164202"><ele>414.0</ele><time>2026-04-25T07:52:21Z</time></trkpt><trkpt lat="44.16672644551674" lon="11.629396715825106"><ele>415.25</ele><time>2026-04-25T07:52:22Z</time></trkpt><trkpt lat="44.16682426498782" lon="11.629520891227441"><ele>416.5</ele><time>2026-04-25T07:52:23Z</time></trkpt><trkpt lat="44.16691938816429" lon="11.629637680038648"><ele>417.75</ele><time>2026-04-25T07:52:24Z</time></trkpt><trkpt lat="44.16701771609053" lon="11.629741501196499"><ele>419.0</ele><time>2026-04-25T07:52:25Z</time></trkpt><trkpt lat="44.1671111513529" lon="11.629832811316035"><ele>419.0</ele><time>2026-04-25T07:52:26Z</time></trkpt><trkpt lat="44.167227296605574" lon="11.629881710411649"><ele>419.0</ele><time>2026-04-25T07:52:27Z</time></trkpt><trkpt lat="44.167336211278815" lon="11.62991690290242"><ele>419.0</ele><time>2026-04-25T07:52:28Z</time></trkpt><trkpt lat="44.16748556597909" lon="11.629944602402611"><ele>419.0</ele><time>2026-04-25T07:52:29Z</time></trkpt><trkpt lat="44.16761828537545" lon="11.629953068556535"><ele>417.0</ele><time>2026-04-25T07:52:30Z</time></trkpt><trkpt lat="44.16774190881843" lon="11.629984348099995"><ele>415.0</ele><time>2026-04-25T07:52:31Z</time></trkpt><trkpt lat="44.16784973675695" lon="11.630010701112809"><ele>413.0</ele><time>2026-04-25T07:52:32Z</time></trkpt><trkpt lat="44.16796700041128" lon="11.630035823979906"><ele>411.0</ele><time>2026-04-25T07:52:33Z</time></trkpt><trkpt lat="44.16810549304897" lon="11.63002008093364"><ele>410.0</ele><time>2026-04-25T07:52:34Z</time></trkpt><trkpt lat="44.16823092081805" lon="11.629987653265369"><ele>409.0</ele><time>2026-04-25T07:52:35Z</time></trkpt><trkpt lat="44.16836482459423" lon="11.629956538666399"><ele>408.0</ele><time>2026-04-25T07:52:36Z</time></trkpt><trkpt lat="44.168498977886905" lon="11.629934464893278"><ele>407.0</ele><time>2026-04-25T07:52:37Z</time></trkpt><trkpt lat="44.16862130246505" lon="11.629922425436822"><ele>407.0</ele><time>2026-04-25T07:52:38Z</time></trkpt><trkpt lat="44.168741641382944" lon="11.629932899419048"><ele>407.0</ele><time>2026-04-25T07:52:39Z</time></trkpt><trkpt lat="44.16884996457985" lon="11.629958845893725"><ele>407.0</ele><time>2026-04-25T07:52:40Z</time></trkpt><trkpt lat="44.168962316967026" lon="11.629984666791882"><ele>407.0</ele><time>2026-04-25T07:52:41Z</time></trkpt><trkpt lat="44.169072759507664" lon="11.630005310812273"><ele>407.66666666666663</ele><time>2026-04-25T07:52:42Z</time></trkpt><trkpt lat="44.169174346460395" lon="11.630029780165964"><ele>408.3333333333333</ele><time>2026-04-25T07:52:43Z</time></trkpt><trkpt lat="44.16926316202428" lon="11.630051202392785"><ele>409.0</ele><time>2026-04-25T07:52:44Z</time></trkpt><trkpt lat="44.16933744833802" lon="11.630087770235825"><ele>409.66666666666663</ele><time>2026-04-25T07:52:45Z</time></trkpt><trkpt lat="44.169397321913905" lon="11.63016729892152"><ele>410.3333333333333</ele><time>2026-04-25T07:52:46Z</time></trkpt><trkpt lat="44.1694210865981" lon="11.6302724160618"><ele>411.0</ele><time>2026-04-25T07:52:47Z</time></trkpt><trkpt lat="44.16943235483046" lon="11.630405397081807"><ele>407.75</ele><time>2026-04-25T07:52:48Z</time></trkpt><trkpt lat="44.16942917717101" lon="11.630561834835346"><ele>404.5</ele><time>2026-04-25T07:52:49Z</time></trkpt><trkpt lat="44.16943009751319" lon="11.63072941808144"><ele>401.25</ele><time>2026-04-25T07:52:50Z</time></trkpt><trkpt lat="44.16943935537095" lon="11.630903822345054"><ele>398.0</ele><time>2026-04-25T07:52:51Z</time></trkpt><trkpt lat="44.16944416580963" lon="11.631049832090678"><ele>398.4</ele><time>2026-04-25T07:52:52Z</time></trkpt><trkpt lat="44.16944500284074" lon="11.631196783611015"><ele>398.79999999999995</ele><time>2026-04-25T07:52:53Z</time></trkpt><trkpt lat="44.16944425820464" lon="11.631340250813718"><ele>399.2</ele><time>2026-04-25T07:52:54Z</time></trkpt><trkpt lat="44.169437266158866" lon="11.631496240551838"><ele>399.6</ele><time>2026-04-25T07:52:55Z</time></trkpt><trkpt lat="44.16944236417355" lon="11.631654041367796"><ele>400.0</ele><time>2026-04-25T07:52:56Z</time></trkpt><trkpt lat="44.169442651879784" lon="11.631797524239424"><ele>400.0</ele><time>2026-04-25T07:52:57Z</time></trkpt><trkpt lat="44.169448383523864" lon="11.631926429962187"><ele>400.0</ele><time>2026-04-25T07:52:58Z</time></trkpt><trkpt lat="44.169475565745266" lon="11.632031873507923"><ele>400.0</ele><time>2026-04-25T07:52:59Z</time></trkpt><trkpt lat="44.1695376242458" lon="11.632098219000508"><ele>400.0</ele><time>2026-04-25T07:53:00.001Z</time></trkpt><trkpt lat="44.16963171656337" lon="11.632136240457797"><ele>400.0</ele><time>2026-04-25T07:53:01.001Z</time></trkpt><trkpt lat="44.16973385583571" lon="11.632147399073475"><ele>400.1666666666667</ele><time>2026-04-25T07:53:02.001Z</time></trkpt><trkpt lat="44.16981987220462" lon="11.632140106557864"><ele>400.33333333333337</ele><time>2026-04-25T07:53:03.001Z</time></trkpt><trkpt lat="44.16989552839095" lon="11.63213911325142"><ele>400.5</ele><time>2026-04-25T07:53:04.001Z</time></trkpt><trkpt lat="44.16996839273238" lon="11.632138148229892"><ele>400.66666666666663</ele><time>2026-04-25T07:53:05.001Z</time></trkpt><trkpt lat="44.17004200112679" lon="11.63209941213468"><ele>400.8333333333333</ele><time>2026-04-25T07:53:07.001Z</time></trkpt><trkpt lat="44.17003788324606" lon="11.632002790130239"><ele>401.0</ele><time>2026-04-25T07:53:10.001Z</time></trkpt><trkpt lat="44.16999444860726" lon="11.631886788334427"><ele>402.99999999999994</ele><time>2026-04-25T07:54:50Z</time></trkpt><trkpt lat="44.17002136336634" lon="11.631734953610355"><ele>405.0</ele><time>2026-04-25T07:54:52Z</time></trkpt><trkpt lat="44.17005506688685" lon="11.63165584834338"><ele>407.0</ele><time>2026-04-25T07:54:53Z</time></trkpt><trkpt lat="44.17011159246217" lon="11.631594479127909"><ele>409.0</ele><time>2026-04-25T07:54:54Z</time></trkpt><trkpt lat="44.170179937088015" lon="11.63157400247792"><ele>410.99999999999994</ele><time>2026-04-25T07:54:55Z</time></trkpt><trkpt lat="44.17025041772808" lon="11.631583227811223"><ele>413.0</ele><time>2026-04-25T07:54:56Z</time></trkpt><trkpt lat="44.1703287277081" lon="11.631619600976041"><ele>413.0</ele><time>2026-04-25T07:54:57Z</time></trkpt><trkpt lat="44.17041931346829" lon="11.631657182673557"><ele>413.0</ele><time>2026-04-25T07:54:58Z</time></trkpt><trkpt lat="44.17051273629626" lon="11.631701254667119"><ele>413.0</ele><time>2026-04-25T07:54:59Z</time></trkpt><trkpt lat="44.17060822060243" lon="11.63175116587016"><ele>413.0</ele><time>2026-04-25T07:55:00Z</time></trkpt><trkpt lat="44.17068188828574" lon="11.631787870839469"><ele>413.0</ele><time>2026-04-25T07:55:01Z</time></trkpt><trkpt lat="44.17077043703183" lon="11.631796636118413"><ele>414.59999999999997</ele><time>2026-04-25T07:55:02Z</time></trkpt><trkpt lat="44.17085743702731" lon="11.631801690054479"><ele>416.2</ele><time>2026-04-25T07:55:03Z</time></trkpt><trkpt lat="44.1709440175716" lon="11.631792765886342"><ele>417.8</ele><time>2026-04-25T07:55:04Z</time></trkpt><trkpt lat="44.171035476456005" lon="11.631769274368352"><ele>419.4</ele><time>2026-04-25T07:55:05Z</time></trkpt><trkpt lat="44.17114714998363" lon="11.631742868745691"><ele>421.0</ele><time>2026-04-25T07:55:06Z</time></trkpt><trkpt lat="44.17128045072345" lon="11.631729201995372"><ele>421.0</ele><time>2026-04-25T07:55:07Z</time></trkpt><trkpt lat="44.171424702762046" lon="11.631731247764725"><ele>421.0</ele><time>2026-04-25T07:55:08Z</time></trkpt><trkpt lat="44.171562540070646" lon="11.63176255426644"><ele>421.0</ele><time>2026-04-25T07:55:09Z</time></trkpt><trkpt lat="44.171676333769895" lon="11.631803043284325"><ele>421.0</ele><time>2026-04-25T07:55:10Z</time></trkpt><trkpt lat="44.17177510557366" lon="11.631838672188751"><ele>423.75</ele><time>2026-04-25T07:55:11Z</time></trkpt><trkpt lat="44.17189697092373" lon="11.631816851984983"><ele>426.5</ele><time>2026-04-25T07:55:12Z</time></trkpt><trkpt lat="44.17203707374999" lon="11.631755854847265"><ele>429.25</ele><time>2026-04-25T07:55:13Z</time></trkpt><trkpt lat="44.17215331065905" lon="11.631734285194865"><ele>432.0</ele><time>2026-04-25T07:55:14Z</time></trkpt><trkpt lat="44.1722728599028" lon="11.631706262474228"><ele>434.40000000000003</ele><time>2026-04-25T07:55:15Z</time></trkpt><trkpt lat="44.17238432297036" lon="11.631666211103191"><ele>436.80000000000007</ele><time>2026-04-25T07:55:16Z</time></trkpt><trkpt lat="44.17247428791974" lon="11.631658678986396"><ele>439.2</ele><time>2026-04-25T07:55:17Z</time></trkpt><trkpt lat="44.17258757112659" lon="11.631684543857475"><ele>441.6</ele><time>2026-04-25T07:55:18Z</time></trkpt><trkpt lat="44.17268828287486" lon="11.631726044855347"><ele>444.0</ele><time>2026-04-25T07:55:19Z</time></trkpt><trkpt lat="44.17276342796035" lon="11.631799618845294"><ele>444.0</ele><time>2026-04-25T07:55:20Z</time></trkpt><trkpt lat="44.172817842190454" lon="11.631907564320679"><ele>444.0</ele><time>2026-04-25T07:55:21Z</time></trkpt><trkpt lat="44.17285448909853" lon="11.632054080296095"><ele>444.0</ele><time>2026-04-25T07:55:22Z</time></trkpt><trkpt lat="44.17290035798167" lon="11.632201800833897"><ele>444.0</ele><time>2026-04-25T07:55:23Z</time></trkpt><trkpt lat="44.17296812838792" lon="11.63233296383907"><ele>444.0</ele><time>2026-04-25T07:55:24Z</time></trkpt><trkpt lat="44.17304476762606" lon="11.632434552115539"><ele>443.3333333333333</ele><time>2026-04-25T07:55:25Z</time></trkpt><trkpt lat="44.17310865867911" lon="11.632510670295675"><ele>442.66666666666663</ele><time>2026-04-25T07:55:26Z</time></trkpt><trkpt lat="44.173165334756845" lon="11.632562743045828"><ele>442.0</ele><time>2026-04-25T07:55:27Z</time></trkpt><trkpt lat="44.17326105731687" lon="11.632548341899286"><ele>441.3333333333333</ele><time>2026-04-25T07:55:28Z</time></trkpt><trkpt lat="44.17331928277307" lon="11.632491115366678"><ele>440.66666666666663</ele><time>2026-04-25T07:55:29Z</time></trkpt><trkpt lat="44.17340434537195" lon="11.632392525867326"><ele>440.0</ele><time>2026-04-25T07:55:30Z</time></trkpt><trkpt lat="44.17349470249669" lon="11.63228555426853"><ele>440.0</ele><time>2026-04-25T07:55:31Z</time></trkpt><trkpt lat="44.17361475369061" lon="11.63221056636943"><ele>440.0</ele><time>2026-04-25T07:55:32Z</time></trkpt><trkpt lat="44.17374937614632" lon="11.63215400152809"><ele>440.0</ele><time>2026-04-25T07:55:33Z</time></trkpt><trkpt lat="44.173881388933616" lon="11.632095931834874"><ele>440.0</ele><time>2026-04-25T07:55:34Z</time></trkpt><trkpt lat="44.17401611318255" lon="11.632044203966796"><ele>439.5</ele><time>2026-04-25T07:55:35Z</time></trkpt><trkpt lat="44.17414649357464" lon="11.631998990664258"><ele>439.0</ele><time>2026-04-25T07:55:36Z</time></trkpt><trkpt lat="44.174274489249306" lon="11.63196853507597"><ele>438.5</ele><time>2026-04-25T07:55:37Z</time></trkpt><trkpt lat="44.17436311832099" lon="11.631886577644305"><ele>438.0</ele><time>2026-04-25T07:55:38Z</time></trkpt><trkpt lat="44.174460473538005" lon="11.63177564554247"><ele>446.0</ele><time>2026-04-25T07:55:39Z</time></trkpt><trkpt lat="44.17455221844772" lon="11.631651116740441"><ele>454.0</ele><time>2026-04-25T07:55:40Z</time></trkpt><trkpt lat="44.17464192807727" lon="11.631536857444711"><ele>462.0</ele><time>2026-04-25T07:55:41Z</time></trkpt><trkpt lat="44.174707295905726" lon="11.631402868625436"><ele>470.0</ele><time>2026-04-25T07:55:42Z</time></trkpt><trkpt lat="44.17477173470829" lon="11.63130756699694"><ele>470.0</ele><time>2026-04-25T07:55:43Z</time></trkpt><trkpt lat="44.17485167620401" lon="11.631259481685172"><ele>470.0</ele><time>2026-04-25T07:55:44Z</time></trkpt><trkpt lat="44.17493949931904" lon="11.63125038154405"><ele>470.0</ele><time>2026-04-25T07:55:45Z</time></trkpt><trkpt lat="44.17503097886097" lon="11.631285961920634"><ele>470.0</ele><time>2026-04-25T07:55:46Z</time></trkpt><trkpt lat="44.175128038025974" lon="11.631337189823466"><ele>470.0</ele><time>2026-04-25T07:55:47Z</time></trkpt><trkpt lat="44.17522893746062" lon="11.63142691584253"><ele>467.75</ele><time>2026-04-25T07:55:48Z</time></trkpt><trkpt lat="44.175326991001015" lon="11.631510896541663"><ele>465.5</ele><time>2026-04-25T07:55:49Z</time></trkpt><trkpt lat="44.17542245987772" lon="11.631616918116059"><ele>463.25</ele><time>2026-04-25T07:55:50Z</time></trkpt><trkpt lat="44.175507934344395" lon="11.631753564479487"><ele>461.0</ele><time>2026-04-25T07:55:51Z</time></trkpt><trkpt lat="44.17558176450086" lon="11.631925344015482"><ele>458.0</ele><time>2026-04-25T07:55:52Z</time></trkpt><trkpt lat="44.17566189960132" lon="11.63209746074709"><ele>455.0</ele><time>2026-04-25T07:55:53Z</time></trkpt><trkpt lat="44.17572650999953" lon="11.632238172025593"><ele>452.0</ele><time>2026-04-25T07:55:54Z</time></trkpt><trkpt lat="44.1757581198612" lon="11.632380017813544"><ele>449.0</ele><time>2026-04-25T07:55:55Z</time></trkpt><trkpt lat="44.175764102479306" lon="11.63254657275388"><ele>456.6</ele><time>2026-04-25T07:55:56Z</time></trkpt><trkpt lat="44.1757314338344" lon="11.63271632479276"><ele>464.2</ele><time>2026-04-25T07:55:57Z</time></trkpt><trkpt lat="44.17569890720484" lon="11.632879886912946"><ele>471.80000000000007</ele><time>2026-04-25T07:55:58Z</time></trkpt><trkpt lat="44.1757088947834" lon="11.633021044147627"><ele>479.40000000000003</ele><time>2026-04-25T07:55:59Z</time></trkpt><trkpt lat="44.17572426898314" lon="11.633141737557139"><ele>487.0</ele><time>2026-04-25T07:56:00Z</time></trkpt><trkpt lat="44.175732435427754" lon="11.633242741011696"><ele>488.0</ele><time>2026-04-25T07:56:01Z</time></trkpt><trkpt lat="44.175711837098135" lon="11.633325794013517"><ele>489.00000000000006</ele><time>2026-04-25T07:56:02Z</time></trkpt><trkpt lat="44.17563425074276" lon="11.633375770139923"><ele>490.00000000000006</ele><time>2026-04-25T07:56:03Z</time></trkpt><trkpt lat="44.175547846723504" lon="11.633427963032693"><ele>491.0</ele><time>2026-04-25T07:56:04Z</time></trkpt><trkpt lat="44.17543512880492" lon="11.633502530225543"><ele>492.0</ele><time>2026-04-25T07:56:05Z</time></trkpt><trkpt lat="44.17534928197573" lon="11.633555602906279"><ele>486.8333333333333</ele><time>2026-04-25T07:56:06Z</time></trkpt><trkpt lat="44.175284296858244" lon="11.633610444607951"><ele>481.66666666666663</ele><time>2026-04-25T07:56:07Z</time></trkpt><trkpt lat="44.17524495079045" lon="11.633722620953403"><ele>476.5</ele><time>2026-04-25T07:56:08Z</time></trkpt><trkpt lat="44.17523728638546" lon="11.633845406845104"><ele>471.3333333333333</ele><time>2026-04-25T07:56:09Z</time></trkpt><trkpt lat="44.17526596546796" lon="11.633944968837676"><ele>466.16666666666663</ele><time>2026-04-25T07:56:10Z</time></trkpt><trkpt lat="44.17533749284499" lon="11.63405299931838"><ele>461.0</ele><time>2026-04-25T07:56:11Z</time></trkpt><trkpt lat="44.17543748143214" lon="11.6341494867212"><ele>461.0</ele><time>2026-04-25T07:56:12Z</time></trkpt><trkpt lat="44.17556955485609" lon="11.634211153984872"><ele>461.0</ele><time>2026-04-25T07:56:13Z</time></trkpt><trkpt lat="44.17571193488916" lon="11.634261294039995"><ele>461.0</ele><time>2026-04-25T07:56:14Z</time></trkpt><trkpt lat="44.17582532018591" lon="11.63428119698605"><ele>461.0</ele><time>2026-04-25T07:56:15Z</time></trkpt><trkpt lat="44.175918088082014" lon="11.634266844577436"><ele>466.6</ele><time>2026-04-25T07:56:16Z</time></trkpt><trkpt lat="44.176008314896755" lon="11.634226802521788"><ele>472.20000000000005</ele><time>2026-04-25T07:56:17Z</time></trkpt><trkpt lat="44.176107150345835" lon="11.63416619854972"><ele>477.79999999999995</ele><time>2026-04-25T07:56:18Z</time></trkpt><trkpt lat="44.1762197834317" lon="11.634119787947968"><ele>483.4</ele><time>2026-04-25T07:56:19Z</time></trkpt><trkpt lat="44.17632935517986" lon="11.63410750248871"><ele>489.0</ele><time>2026-04-25T07:56:20Z</time></trkpt><trkpt lat="44.17644704428368" lon="11.634144186645715"><ele>490.4</ele><time>2026-04-25T07:56:21Z</time></trkpt><trkpt lat="44.17656069563631" lon="11.634182670003396"><ele>491.79999999999995</ele><time>2026-04-25T07:56:22Z</time></trkpt><trkpt lat="44.17664325707773" lon="11.634176803653894"><ele>493.20000000000005</ele><time>2026-04-25T07:56:23Z</time></trkpt><trkpt lat="44.17675600275267" lon="11.63407857233224"><ele>494.6</ele><time>2026-04-25T07:56:25Z</time></trkpt><trkpt lat="44.17681645351924" lon="11.633963300463014"><ele>496.0</ele><time>2026-04-25T07:56:26Z</time></trkpt><trkpt lat="44.17690600369733" lon="11.633849231108062"><ele>496.0</ele><time>2026-04-25T07:56:27Z</time></trkpt><trkpt lat="44.17700329938856" lon="11.63374695496943"><ele>496.0</ele><time>2026-04-25T07:56:28Z</time></trkpt><trkpt lat="44.17710080052809" lon="11.63367383376355"><ele>496.0</ele><time>2026-04-25T07:56:29Z</time></trkpt><trkpt lat="44.17718849970087" lon="11.633612713105965"><ele>496.0</ele><time>2026-04-25T07:56:30Z</time></trkpt><trkpt lat="44.177260698849345" lon="11.633558927554652"><ele>496.0</ele><time>2026-04-25T07:56:31Z</time></trkpt><trkpt lat="44.177326672023504" lon="11.633484622881777"><ele>497.4</ele><time>2026-04-25T07:56:32Z</time></trkpt><trkpt lat="44.1773672893172" lon="11.633400837881723"><ele>498.8</ele><time>2026-04-25T07:56:33Z</time></trkpt><trkpt lat="44.17740906202951" lon="11.633263066861979"><ele>500.19999999999993</ele><time>2026-04-25T07:56:34Z</time></trkpt><trkpt lat="44.17745428877927" lon="11.6330993616785"><ele>501.59999999999997</ele><time>2026-04-25T07:56:35Z</time></trkpt><trkpt lat="44.17751001921724" lon="11.632920198036336"><ele>503.0</ele><time>2026-04-25T07:56:36Z</time></trkpt><trkpt lat="44.17756921716609" lon="11.632722420899105"><ele>507.25</ele><time>2026-04-25T07:56:37Z</time></trkpt><trkpt lat="44.17763195419649" lon="11.632534693644917"><ele>511.5</ele><time>2026-04-25T07:56:38Z</time></trkpt><trkpt lat="44.17768784595537" lon="11.632354159930102"><ele>515.75</ele><time>2026-04-25T07:56:39Z</time></trkpt><trkpt lat="44.177742534932136" lon="11.632194449387558"><ele>520.0</ele><time>2026-04-25T07:56:40Z</time></trkpt><trkpt lat="44.177817920456405" lon="11.632045447631633"><ele>522.25</ele><time>2026-04-25T07:56:41Z</time></trkpt><trkpt lat="44.17790624728382" lon="11.631910349766141"><ele>524.5</ele><time>2026-04-25T07:56:42Z</time></trkpt><trkpt lat="44.178005932201415" lon="11.631795278538238"><ele>526.75</ele><time>2026-04-25T07:56:43Z</time></trkpt><trkpt lat="44.178095724932014" lon="11.631702272239357"><ele>529.0</ele><time>2026-04-25T07:56:44Z</time></trkpt><trkpt lat="44.178165463887204" lon="11.631596668217021"><ele>528.0</ele><time>2026-04-25T07:56:45Z</time></trkpt><trkpt lat="44.178211240005325" lon="11.631465745060494"><ele>527.0</ele><time>2026-04-25T07:56:46Z</time></trkpt><trkpt lat="44.17824333579951" lon="11.63132690331733"><ele>526.0</ele><time>2026-04-25T07:56:47Z</time></trkpt><trkpt lat="44.17827246051256" lon="11.63118981499082"><ele>525.0</ele><time>2026-04-25T07:56:48Z</time></trkpt><trkpt lat="44.1783171321598" lon="11.631057053913034"><ele>524.0</ele><time>2026-04-25T07:56:49Z</time></trkpt><trkpt lat="44.17834592735548" lon="11.630910611551391"><ele>524.0</ele><time>2026-04-25T07:56:50Z</time></trkpt><trkpt lat="44.17838698751125" lon="11.630757264251766"><ele>524.0</ele><time>2026-04-25T07:56:51Z</time></trkpt><trkpt lat="44.17842307875552" lon="11.630598019418926"><ele>524.0</ele><time>2026-04-25T07:56:52Z</time></trkpt><trkpt lat="44.178470354753195" lon="11.630425994508784"><ele>524.0</ele><time>2026-04-25T07:56:53Z</time></trkpt><trkpt lat="44.1785219957093" lon="11.630254771554604"><ele>524.0</ele><time>2026-04-25T07:56:54Z</time></trkpt><trkpt lat="44.17857908547922" lon="11.630084471011045"><ele>524.0</ele><time>2026-04-25T07:56:55Z</time></trkpt><trkpt lat="44.17863975545031" lon="11.629917044249556"><ele>524.0</ele><time>2026-04-25T07:56:56Z</time></trkpt><trkpt lat="44.1786882528974" lon="11.629733465296136"><ele>524.0</ele><time>2026-04-25T07:56:57Z</time></trkpt><trkpt lat="44.178719097405114" lon="11.629542627960927"><ele>525.0</ele><time>2026-04-25T07:56:58Z</time></trkpt><trkpt lat="44.1787385398229" lon="11.62933955881458"><ele>526.0</ele><time>2026-04-25T07:56:59Z</time></trkpt><trkpt lat="44.17875268692741" lon="11.629125637681646"><ele>527.0</ele><time>2026-04-25T07:57:00Z</time></trkpt><trkpt lat="44.17877891400734" lon="11.628932213944218"><ele>528.0</ele><time>2026-04-25T07:57:01Z</time></trkpt><trkpt lat="44.17879415583042" lon="11.628745963072953"><ele>528.0</ele><time>2026-04-25T07:57:02Z</time></trkpt><trkpt lat="44.178808151910424" lon="11.628596999045957"><ele>528.0</ele><time>2026-04-25T07:57:03Z</time></trkpt><trkpt lat="44.17880939680663" lon="11.628483987871485"><ele>528.0</ele><time>2026-04-25T07:57:04Z</time></trkpt><trkpt lat="44.17880993634785" lon="11.628383439946132"><ele>528.0</ele><time>2026-04-25T07:57:05Z</time></trkpt><trkpt lat="44.17878215525655" lon="11.628292644699869"><ele>528.0</ele><time>2026-04-25T07:57:06Z</time></trkpt><trkpt lat="44.17876968856111" lon="11.628190691085349"><ele>528.0</ele><time>2026-04-25T07:57:07Z</time></trkpt><trkpt lat="44.178820436033334" lon="11.62810684942519"><ele>528.0</ele><time>2026-04-25T07:57:08Z</time></trkpt><trkpt lat="44.17889813100912" lon="11.628061139457229"><ele>528.0</ele><time>2026-04-25T07:57:09Z</time></trkpt><trkpt lat="44.17898061792599" lon="11.628047590524806"><ele>528.0</ele><time>2026-04-25T07:57:10Z</time></trkpt><trkpt lat="44.17908406004923" lon="11.628059834173484"><ele>528.0</ele><time>2026-04-25T07:57:11Z</time></trkpt><trkpt lat="44.17922126102935" lon="11.628046622216585"><ele>528.0</ele><time>2026-04-25T07:57:12Z</time></trkpt><trkpt lat="44.17937499286205" lon="11.62799601017684"><ele>528.3333333333334</ele><time>2026-04-25T07:57:13Z</time></trkpt><trkpt lat="44.17954517378805" lon="11.627939506509348"><ele>528.6666666666667</ele><time>2026-04-25T07:57:14Z</time></trkpt><trkpt lat="44.17971910424851" lon="11.627869544481532"><ele>529.0</ele><time>2026-04-25T07:57:15Z</time></trkpt><trkpt lat="44.17990515607176" lon="11.627805258024638"><ele>529.0</ele><time>2026-04-25T07:57:16Z</time></trkpt><trkpt lat="44.180090919686485" lon="11.627755708239027"><ele>529.0</ele><time>2026-04-25T07:57:17Z</time></trkpt><trkpt lat="44.18025238759098" lon="11.627724014826958"><ele>529.0</ele><time>2026-04-25T07:57:18Z</time></trkpt><trkpt lat="44.180391470658186" lon="11.627710864124948"><ele>529.0</ele><time>2026-04-25T07:57:19Z</time></trkpt><trkpt lat="44.18049767553532" lon="11.627716740625278"><ele>529.0</ele><time>2026-04-25T07:57:20Z</time></trkpt><trkpt lat="44.18059640309959" lon="11.627748932643533"><ele>529.0</ele><time>2026-04-25T07:57:21Z</time></trkpt><trkpt lat="44.18069116120404" lon="11.627833946094347"><ele>529.0</ele><time>2026-04-25T07:57:22Z</time></trkpt><trkpt lat="44.18078373984892" lon="11.6279599665788"><ele>527.25</ele><time>2026-04-25T07:57:23Z</time></trkpt><trkpt lat="44.18089047208253" lon="11.628122288792795"><ele>525.5</ele><time>2026-04-25T07:57:24Z</time></trkpt><trkpt lat="44.18096855057479" lon="11.628249521683394"><ele>523.75</ele><time>2026-04-25T07:57:25Z</time></trkpt><trkpt lat="44.18106426235079" lon="11.628316472518085"><ele>522.0</ele><time>2026-04-25T07:57:26Z</time></trkpt><trkpt lat="44.18116421858007" lon="11.62833888188915"><ele>522.0</ele><time>2026-04-25T07:57:27Z</time></trkpt><trkpt lat="44.18125628203933" lon="11.628345106327982"><ele>522.0</ele><time>2026-04-25T07:57:28Z</time></trkpt><trkpt lat="44.18136614787814" lon="11.628322688265632"><ele>522.0</ele><time>2026-04-25T07:57:29Z</time></trkpt><trkpt lat="44.18147410829018" lon="11.62833575014537"><ele>522.0</ele><time>2026-04-25T07:57:30Z</time></trkpt><trkpt lat="44.18157769302428" lon="11.62839471671841"><ele>522.0</ele><time>2026-04-25T07:57:31Z</time></trkpt><trkpt lat="44.18167578210458" lon="11.628491799671737"><ele>523.8000000000001</ele><time>2026-04-25T07:57:32Z</time></trkpt><trkpt lat="44.18176281985995" lon="11.628591090312117"><ele>525.6</ele><time>2026-04-25T07:57:33Z</time></trkpt><trkpt lat="44.18181214458726" lon="11.628692710334956"><ele>527.4000000000001</ele><time>2026-04-25T07:57:34Z</time></trkpt><trkpt lat="44.18182582245223" lon="11.628822647327738"><ele>529.2</ele><time>2026-04-25T07:57:35Z</time></trkpt><trkpt lat="44.18180780420699" lon="11.628985948111428"><ele>531.0</ele><time>2026-04-25T07:57:36Z</time></trkpt><trkpt lat="44.181805555743" lon="11.62914034462075"><ele>531.0</ele><time>2026-04-25T07:57:37Z</time></trkpt><trkpt lat="44.181816745934526" lon="11.629267619697254"><ele>531.0</ele><time>2026-04-25T07:57:38Z</time></trkpt><trkpt lat="44.181851395733865" lon="11.629427465809364"><ele>531.0</ele><time>2026-04-25T07:57:39Z</time></trkpt><trkpt lat="44.18189704144383" lon="11.629577454993441"><ele>531.0</ele><time>2026-04-25T07:57:40Z</time></trkpt><trkpt lat="44.18195168886316" lon="11.629715604276141"><ele>531.0</ele><time>2026-04-25T07:57:41Z</time></trkpt><trkpt lat="44.18201865842443" lon="11.629826745342136"><ele>531.3333333333334</ele><time>2026-04-25T07:57:42Z</time></trkpt><trkpt lat="44.18209754402544" lon="11.629893913590768"><ele>531.6666666666666</ele><time>2026-04-25T07:57:43Z</time></trkpt><trkpt lat="44.18218596715899" lon="11.629925535547596"><ele>532.0</ele><time>2026-04-25T07:57:44Z</time></trkpt><trkpt lat="44.18226819375439" lon="11.629916180766878"><ele>532.3333333333333</ele><time>2026-04-25T07:57:45Z</time></trkpt><trkpt lat="44.18232769946024" lon="11.629860327404124"><ele>532.6666666666666</ele><time>2026-04-25T07:57:46Z</time></trkpt><trkpt lat="44.18240988092899" lon="11.62979454106253"><ele>533.0</ele><time>2026-04-25T07:57:47Z</time></trkpt><trkpt lat="44.18250172258747" lon="11.629719451159737"><ele>533.0</ele><time>2026-04-25T07:57:48Z</time></trkpt><trkpt lat="44.182595283931065" lon="11.62964554772641"><ele>533.0</ele><time>2026-04-25T07:57:49Z</time></trkpt><trkpt lat="44.182703364431376" lon="11.62954607474628"><ele>533.0</ele><time>2026-04-25T07:57:50Z</time></trkpt><trkpt lat="44.1828173966141" lon="11.62941783447731"><ele>533.0</ele><time>2026-04-25T07:57:51Z</time></trkpt><trkpt lat="44.1829379436355" lon="11.629291855382089"><ele>539.75</ele><time>2026-04-25T07:57:52Z</time></trkpt><trkpt lat="44.183062437520135" lon="11.62920868523461"><ele>546.5</ele><time>2026-04-25T07:57:53Z</time></trkpt><trkpt lat="44.183185156942486" lon="11.629179705114545"><ele>553.25</ele><time>2026-04-25T07:57:54Z</time></trkpt><trkpt lat="44.183321735172335" lon="11.629186491987182"><ele>560.0</ele><time>2026-04-25T07:57:55Z</time></trkpt><trkpt lat="44.18346663794671" lon="11.62918460648816"><ele>560.5</ele><time>2026-04-25T07:57:56Z</time></trkpt><trkpt lat="44.18359928998103" lon="11.629147500385026"><ele>561.0</ele><time>2026-04-25T07:57:57Z</time></trkpt><trkpt lat="44.183719757579546" lon="11.629105373640897"><ele>561.5</ele><time>2026-04-25T07:57:58Z</time></trkpt><trkpt lat="44.18382889395605" lon="11.62902480649516"><ele>562.0</ele><time>2026-04-25T07:57:59Z</time></trkpt><trkpt lat="44.18391867848916" lon="11.628907947631486"><ele>562.0</ele><time>2026-04-25T07:58:00Z</time></trkpt><trkpt lat="44.183982098626316" lon="11.628770937366065"><ele>562.0</ele><time>2026-04-25T07:58:01Z</time></trkpt><trkpt lat="44.18404065765531" lon="11.628625359451139"><ele>562.0</ele><time>2026-04-25T07:58:02Z</time></trkpt><trkpt lat="44.18413242634048" lon="11.62850442330074"><ele>562.0</ele><time>2026-04-25T07:58:03Z</time></trkpt><trkpt lat="44.18423554924979" lon="11.628407288608555"><ele>567.0</ele><time>2026-04-25T07:58:04Z</time></trkpt><trkpt lat="44.184319486939344" lon="11.628324243432408"><ele>572.0</ele><time>2026-04-25T07:58:05Z</time></trkpt><trkpt lat="44.18439878795475" lon="11.628286411629482"><ele>577.0</ele><time>2026-04-25T07:58:06Z</time></trkpt><trkpt lat="44.18448558338486" lon="11.62830671124208"><ele>582.0</ele><time>2026-04-25T07:58:07Z</time></trkpt><trkpt lat="44.1845970614146" lon="11.628375513100789"><ele>587.0</ele><time>2026-04-25T07:58:08Z</time></trkpt><trkpt lat="44.18468901780671" lon="11.628464804609385"><ele>587.0</ele><time>2026-04-25T07:58:09Z</time></trkpt><trkpt lat="44.184763640494644" lon="11.628583217562483"><ele>587.0</ele><time>2026-04-25T07:58:10Z</time></trkpt><trkpt lat="44.184871630569575" lon="11.628665422954992"><ele>587.0</ele><time>2026-04-25T07:58:11Z</time></trkpt><trkpt lat="44.18497088196742" lon="11.628725677190735"><ele>587.0</ele><time>2026-04-25T07:58:12Z</time></trkpt><trkpt lat="44.18505533861894" lon="11.628793485525774"><ele>587.0</ele><time>2026-04-25T07:58:13Z</time></trkpt><trkpt lat="44.18513066320798" lon="11.628814764985638"><ele>581.0</ele><time>2026-04-25T07:58:14Z</time></trkpt><trkpt lat="44.18523280988216" lon="11.628783653016383"><ele>575.0</ele><time>2026-04-25T07:58:15Z</time></trkpt><trkpt lat="44.18535233838176" lon="11.6287233420798"><ele>569.0</ele><time>2026-04-25T07:58:16Z</time></trkpt><trkpt lat="44.185465096093886" lon="11.62866368905169"><ele>563.0</ele><time>2026-04-25T07:58:17Z</time></trkpt><trkpt lat="44.185564079300526" lon="11.628644152716987"><ele>563.0</ele><time>2026-04-25T07:58:18Z</time></trkpt><trkpt lat="44.185663695006994" lon="11.628693389218922"><ele>563.0</ele><time>2026-04-25T07:58:19Z</time></trkpt><trkpt lat="44.18578129508165" lon="11.628780851624697"><ele>563.0</ele><time>2026-04-25T07:58:20Z</time></trkpt><trkpt lat="44.18591130163431" lon="11.628870552887891"><ele>563.0</ele><time>2026-04-25T07:58:21Z</time></trkpt><trkpt lat="44.18603229819692" lon="11.628963054661858"><ele>566.1999999999999</ele><time>2026-04-25T07:58:22Z</time></trkpt><trkpt lat="44.18612621713211" lon="11.629044761814331"><ele>569.4</ele><time>2026-04-25T07:58:23Z</time></trkpt><trkpt lat="44.18618128469841" lon="11.629129833002262"><ele>572.5999999999999</ele><time>2026-04-25T07:58:24Z</time></trkpt><trkpt lat="44.186216647892635" lon="11.62923314968777"><ele>575.8</ele><time>2026-04-25T07:58:25Z</time></trkpt><trkpt lat="44.18627484218601" lon="11.629311763262749"><ele>579.0</ele><time>2026-04-25T07:58:26Z</time></trkpt><trkpt lat="44.18636582300836" lon="11.629355253364748"><ele>579.0</ele><time>2026-04-25T07:58:27Z</time></trkpt><trkpt lat="44.186479449957005" lon="11.629356606763523"><ele>579.0</ele><time>2026-04-25T07:58:28Z</time></trkpt><trkpt lat="44.186613455785405" lon="11.629360158455546"><ele>579.0</ele><time>2026-04-25T07:58:29Z</time></trkpt><trkpt lat="44.1867368525653" lon="11.629382686216683"><ele>579.0</ele><time>2026-04-25T07:58:30Z</time></trkpt><trkpt lat="44.18682912753779" lon="11.629435876846461"><ele>578.0</ele><time>2026-04-25T07:58:31Z</time></trkpt><trkpt lat="44.186881235749006" lon="11.629534987528032"><ele>577.0</ele><time>2026-04-25T07:58:32Z</time></trkpt><trkpt lat="44.1869428258272" lon="11.629628582724115"><ele>576.0</ele><time>2026-04-25T07:58:33Z</time></trkpt><trkpt lat="44.18701867036107" lon="11.629687859038082"><ele>575.0</ele><time>2026-04-25T07:58:34Z</time></trkpt><trkpt lat="44.18710775711928" lon="11.629721930724447"><ele>574.0</ele><time>2026-04-25T07:58:35Z</time></trkpt><trkpt lat="44.187195735670315" lon="11.629733485106465"><ele>573.0</ele><time>2026-04-25T07:58:36Z</time></trkpt><trkpt lat="44.1872802112507" lon="11.629716521845765"><ele>577.8</ele><time>2026-04-25T07:58:37Z</time></trkpt><trkpt lat="44.18735769793831" lon="11.629668784057053"><ele>582.5999999999999</ele><time>2026-04-25T07:58:38Z</time></trkpt><trkpt lat="44.187437269598405" lon="11.629604926362113"><ele>587.4000000000001</ele><time>2026-04-25T07:58:39Z</time></trkpt><trkpt lat="44.1875237379092" lon="11.629545714431533"><ele>592.2</ele><time>2026-04-25T07:58:40Z</time></trkpt><trkpt lat="44.18761394700005" lon="11.62950044991506"><ele>597.0</ele><time>2026-04-25T07:58:41Z</time></trkpt><trkpt lat="44.1877034324482" lon="11.629479406224254"><ele>595.2</ele><time>2026-04-25T07:58:42Z</time></trkpt><trkpt lat="44.18779413621443" lon="11.62946087584591"><ele>593.4000000000001</ele><time>2026-04-25T07:58:43Z</time></trkpt><trkpt lat="44.18788295468264" lon="11.629424210601675"><ele>591.5999999999999</ele><time>2026-04-25T07:58:44Z</time></trkpt><trkpt lat="44.187966690315854" lon="11.629362989373163"><ele>589.8</ele><time>2026-04-25T07:58:45Z</time></trkpt><trkpt lat="44.18803876554864" lon="11.629276436554058"><ele>588.0</ele><time>2026-04-25T07:58:46Z</time></trkpt><trkpt lat="44.18810022536301" lon="11.62918252585887"><ele>588.0</ele><time>2026-04-25T07:58:47Z</time></trkpt><trkpt lat="44.18817292535857" lon="11.629110934845436"><ele>588.0</ele><time>2026-04-25T07:58:48Z</time></trkpt><trkpt lat="44.18825288249818" lon="11.629071598012734"><ele>588.0</ele><time>2026-04-25T07:58:49Z</time></trkpt><trkpt lat="44.188339785779036" lon="11.629045656986515"><ele>588.0</ele><time>2026-04-25T07:58:50Z</time></trkpt><trkpt lat="44.18839530902887" lon="11.62897521197204"><ele>588.0</ele><time>2026-04-25T07:58:51Z</time></trkpt><trkpt lat="44.18842252405013" lon="11.628849946582113"><ele>588.0</ele><time>2026-04-25T07:58:52Z</time></trkpt><trkpt lat="44.18839881502905" lon="11.628726750003654"><ele>587.3333333333334</ele><time>2026-04-25T07:58:53Z</time></trkpt><trkpt lat="44.18839295182164" lon="11.628600335001655"><ele>586.6666666666666</ele><time>2026-04-25T07:58:54Z</time></trkpt><trkpt lat="44.188438409835406" lon="11.628490154255193"><ele>586.0</ele><time>2026-04-25T07:58:55Z</time></trkpt><trkpt lat="44.18851060369242" lon="11.628427169063087"><ele>585.3333333333333</ele><time>2026-04-25T07:58:56Z</time></trkpt><trkpt lat="44.18858349931138" lon="11.628366381081715"><ele>584.6666666666666</ele><time>2026-04-25T07:58:57Z</time></trkpt><trkpt lat="44.18861472270111" lon="11.628257200542253"><ele>584.0</ele><time>2026-04-25T07:58:58Z</time></trkpt><trkpt lat="44.18863558452735" lon="11.628117558246233"><ele>584.0</ele><time>2026-04-25T07:58:59Z</time></trkpt><trkpt lat="44.188657899746175" lon="11.627980444941196"><ele>584.0</ele><time>2026-04-25T07:59:00Z</time></trkpt><trkpt lat="44.18871083721009" lon="11.62787782821698"><ele>584.0</ele><time>2026-04-25T07:59:01Z</time></trkpt><trkpt lat="44.18873667334124" lon="11.627769673694493"><ele>584.0</ele><time>2026-04-25T07:59:02Z</time></trkpt><trkpt lat="44.188794951956865" lon="11.62770451448281"><ele>584.0</ele><time>2026-04-25T07:59:03Z</time></trkpt><trkpt lat="44.18889166591326" lon="11.627666975036673"><ele>584.0</ele><time>2026-04-25T07:59:04Z</time></trkpt><trkpt lat="44.18900837226328" lon="11.62764253218027"><ele>587.2</ele><time>2026-04-25T07:59:05Z</time></trkpt><trkpt lat="44.189119503259356" lon="11.627592536733653"><ele>590.4</ele><time>2026-04-25T07:59:06Z</time></trkpt><trkpt lat="44.18921282684132" lon="11.627517795565973"><ele>593.6</ele><time>2026-04-25T07:59:07Z</time></trkpt><trkpt lat="44.18928239915734" lon="11.62742359491874"><ele>596.8</ele><time>2026-04-25T07:59:08Z</time></trkpt><trkpt lat="44.189325421440294" lon="11.627313254091689"><ele>600.0</ele><time>2026-04-25T07:59:09Z</time></trkpt><trkpt lat="44.18935636279054" lon="11.627184104163824"><ele>600.0</ele><time>2026-04-25T07:59:10Z</time></trkpt><trkpt lat="44.18939419627236" lon="11.627072218963757"><ele>600.0</ele><time>2026-04-25T07:59:11Z</time></trkpt><trkpt lat="44.18948577312311" lon="11.627026735898193"><ele>600.0</ele><time>2026-04-25T07:59:12Z</time></trkpt><trkpt lat="44.18958464169703" lon="11.626945269254065"><ele>600.0</ele><time>2026-04-25T07:59:13Z</time></trkpt><trkpt lat="44.18967920772003" lon="11.626853646641319"><ele>600.0</ele><time>2026-04-25T07:59:14Z</time></trkpt><trkpt lat="44.18976484741498" lon="11.626742433367799"><ele>600.6</ele><time>2026-04-25T07:59:15Z</time></trkpt><trkpt lat="44.18982444377606" lon="11.626613946763628"><ele>601.2</ele><time>2026-04-25T07:59:16Z</time></trkpt><trkpt lat="44.18984908063637" lon="11.626466839378535"><ele>601.8</ele><time>2026-04-25T07:59:17Z</time></trkpt><trkpt lat="44.18983805234079" lon="11.626333269986775"><ele>602.4</ele><time>2026-04-25T07:59:18Z</time></trkpt><trkpt lat="44.18984992732862" lon="11.626200573190305"><ele>603.0</ele><time>2026-04-25T07:59:19Z</time></trkpt><trkpt lat="44.18985268354313" lon="11.626104961888768"><ele>603.0</ele><time>2026-04-25T07:59:20Z</time></trkpt><trkpt lat="44.189934990930475" lon="11.626035164574704"><ele>603.0</ele><time>2026-04-25T07:59:22Z</time></trkpt><trkpt lat="44.19003896385751" lon="11.626080134546397"><ele>603.0</ele><time>2026-04-25T07:59:24Z</time></trkpt><trkpt lat="44.190099468405634" lon="11.626164691274756"><ele>603.0</ele><time>2026-04-25T07:59:25Z</time></trkpt><trkpt lat="44.190147581524045" lon="11.626289487746735"><ele>603.0</ele><time>2026-04-25T07:59:26Z</time></trkpt><trkpt lat="44.19017705066851" lon="11.626435931091608"><ele>603.0</ele><time>2026-04-25T07:59:27Z</time></trkpt><trkpt lat="44.19018529034435" lon="11.62659889705128"><ele>603.0</ele><time>2026-04-25T07:59:28Z</time></trkpt><trkpt lat="44.190189463485595" lon="11.626767053695003"><ele>603.0</ele><time>2026-04-25T07:59:29Z</time></trkpt><trkpt lat="44.19019038102193" lon="11.626940611377128"><ele>603.0</ele><time>2026-04-25T07:59:30Z</time></trkpt><trkpt lat="44.19018844043689" lon="11.627107041993906"><ele>604.75</ele><time>2026-04-25T07:59:31Z</time></trkpt><trkpt lat="44.19018619313303" lon="11.627251176577937"><ele>606.5</ele><time>2026-04-25T07:59:32Z</time></trkpt><trkpt lat="44.19018279266053" lon="11.627421550380225"><ele>608.25</ele><time>2026-04-25T07:59:33Z</time></trkpt><trkpt lat="44.19017987428902" lon="11.62761418120984"><ele>610.0</ele><time>2026-04-25T07:59:34Z</time></trkpt><trkpt lat="44.19018481083454" lon="11.627805746507772"><ele>610.8333333333334</ele><time>2026-04-25T07:59:35Z</time></trkpt><trkpt lat="44.19019088987543" lon="11.627930651691228"><ele>611.6666666666667</ele><time>2026-04-25T07:59:36Z</time></trkpt><trkpt lat="44.19020184998219" lon="11.628051536643962"><ele>612.5</ele><time>2026-04-25T07:59:37Z</time></trkpt><trkpt lat="44.1902189349521" lon="11.628151174733643"><ele>613.3333333333334</ele><time>2026-04-25T07:59:38Z</time></trkpt><trkpt lat="44.19026698988183" lon="11.628216194517753"><ele>614.1666666666666</ele><time>2026-04-25T07:59:38.999Z</time></trkpt><trkpt lat="44.1903641659193" lon="11.628178341862336"><ele>615.0</ele><time>2026-04-25T07:59:39.999Z</time></trkpt><trkpt lat="44.19040642746047" lon="11.628083931581385"><ele>615.0</ele><time>2026-04-25T07:59:40.999Z</time></trkpt><trkpt lat="44.19037209547519" lon="11.627956590423443"><ele>615.0</ele><time>2026-04-25T07:59:41.999Z</time></trkpt><trkpt lat="44.190346167918335" lon="11.627803521412995"><ele>615.0</ele><time>2026-04-25T07:59:42.999Z</time></trkpt><trkpt lat="44.19036114572693" lon="11.627663057216603"><ele>615.0</ele><time>2026-04-25T07:59:43.999Z</time></trkpt><trkpt lat="44.190413031816654" lon="11.62753438371134"><ele>615.0</ele><time>2026-04-25T07:59:44.999Z</time></trkpt><trkpt lat="44.190492995166984" lon="11.627399590385084"><ele>613.75</ele><time>2026-04-25T07:59:45.999Z</time></trkpt><trkpt lat="44.19056766620197" lon="11.62723787451725"><ele>612.5</ele><time>2026-04-25T07:59:46.999Z</time></trkpt><trkpt lat="44.19062174216886" lon="11.627069811232282"><ele>611.25</ele><time>2026-04-25T07:59:47.999Z</time></trkpt><trkpt lat="44.19064971121807" lon="11.626877843677025"><ele>610.0</ele><time>2026-04-25T07:59:48.999Z</time></trkpt><trkpt lat="44.190667033192675" lon="11.62669492244331"><ele>608.25</ele><time>2026-04-25T07:59:50Z</time></trkpt><trkpt lat="44.190670990565465" lon="11.626520500296744"><ele>606.5</ele><time>2026-04-25T07:59:51Z</time></trkpt><trkpt lat="44.19068195925812" lon="11.626346631316679"><ele>604.75</ele><time>2026-04-25T07:59:52Z</time></trkpt><trkpt lat="44.19072017504069" lon="11.626175045532118"><ele>603.0</ele><time>2026-04-25T07:59:53Z</time></trkpt><trkpt lat="44.190784373367926" lon="11.626032991155823"><ele>596.25</ele><time>2026-04-25T07:59:54Z</time></trkpt><trkpt lat="44.19089644029081" lon="11.625930167823276"><ele>589.5</ele><time>2026-04-25T07:59:55Z</time></trkpt><trkpt lat="44.190987092127585" lon="11.625772290532387"><ele>582.75</ele><time>2026-04-25T07:59:56Z</time></trkpt><trkpt lat="44.191093165241774" lon="11.625606100949186"><ele>576.0</ele><time>2026-04-25T07:59:57Z</time></trkpt><trkpt lat="44.19118981166731" lon="11.625423005413515"><ele>573.5</ele><time>2026-04-25T07:59:58Z</time></trkpt><trkpt lat="44.19129938676923" lon="11.625247683638655"><ele>571.0</ele><time>2026-04-25T07:59:59Z</time></trkpt><trkpt lat="44.191415620877834" lon="11.625115093389676"><ele>568.5</ele><time>2026-04-25T08:00:00Z</time></trkpt><trkpt lat="44.191508099721965" lon="11.624986071868301"><ele>566.0</ele><time>2026-04-25T08:00:01Z</time></trkpt><trkpt lat="44.19156962349243" lon="11.62485037443436"><ele>564.0</ele><time>2026-04-25T08:00:02Z</time></trkpt><trkpt lat="44.191624973969446" lon="11.624738094593539"><ele>562.0</ele><time>2026-04-25T08:00:03Z</time></trkpt><trkpt lat="44.191673756784695" lon="11.624666472495871"><ele>560.0</ele><time>2026-04-25T08:00:04Z</time></trkpt><trkpt lat="44.191737712349976" lon="11.62466497833652"><ele>558.0</ele><time>2026-04-25T08:00:05Z</time></trkpt><trkpt lat="44.191800769394014" lon="11.624741127573092"><ele>556.0</ele><time>2026-04-25T08:00:07Z</time></trkpt><trkpt lat="44.191768568399816" lon="11.62484798821332"><ele>554.0</ele><time>2026-04-25T08:00:08Z</time></trkpt><trkpt lat="44.191688794493416" lon="11.624963998374746"><ele>554.0</ele><time>2026-04-25T08:00:09Z</time></trkpt><trkpt lat="44.19160732350366" lon="11.625109544488316"><ele>554.0</ele><time>2026-04-25T08:00:10Z</time></trkpt><trkpt lat="44.19155953979294" lon="11.625293692581407"><ele>554.0</ele><time>2026-04-25T08:00:11Z</time></trkpt><trkpt lat="44.19150901893604" lon="11.62549248186021"><ele>554.0</ele><time>2026-04-25T08:00:12Z</time></trkpt><trkpt lat="44.19146659341852" lon="11.625711805605519"><ele>561.3333333333333</ele><time>2026-04-25T08:00:13Z</time></trkpt><trkpt lat="44.19144020156499" lon="11.62593605455068"><ele>568.6666666666666</ele><time>2026-04-25T08:00:14Z</time></trkpt><trkpt lat="44.191422944992404" lon="11.626143902403365"><ele>576.0</ele><time>2026-04-25T08:00:15Z</time></trkpt><trkpt lat="44.19140367342485" lon="11.626351530838033"><ele>576.25</ele><time>2026-04-25T08:00:16Z</time></trkpt><trkpt lat="44.19138197150793" lon="11.626553965187265"><ele>576.5</ele><time>2026-04-25T08:00:17Z</time></trkpt><trkpt lat="44.191358294159315" lon="11.626735447651928"><ele>576.75</ele><time>2026-04-25T08:00:18Z</time></trkpt><trkpt lat="44.19133249316815" lon="11.6268923695225"><ele>577.0</ele><time>2026-04-25T08:00:19Z</time></trkpt><trkpt lat="44.19132757859399" lon="11.627041118273427"><ele>576.5</ele><time>2026-04-25T08:00:20Z</time></trkpt><trkpt lat="44.19130693417569" lon="11.62717404016885"><ele>576.0</ele><time>2026-04-25T08:00:21Z</time></trkpt><trkpt lat="44.19130781376015" lon="11.62726587560626"><ele>575.5</ele><time>2026-04-25T08:00:22Z</time></trkpt><trkpt lat="44.191373161061776" lon="11.627410811036787"><ele>575.0</ele><time>2026-04-25T08:00:24Z</time></trkpt><trkpt lat="44.19143643980054" lon="11.62743990674864"><ele>574.5</ele><time>2026-04-25T08:00:25Z</time></trkpt><trkpt lat="44.191495173383586" lon="11.627404574211814"><ele>574.0</ele><time>2026-04-25T08:00:26Z</time></trkpt><trkpt lat="44.191567922896596" lon="11.627331420820731"><ele>565.75</ele><time>2026-04-25T08:00:27Z</time></trkpt><trkpt lat="44.19162778563319" lon="11.627208942835834"><ele>557.5</ele><time>2026-04-25T08:00:28Z</time></trkpt><trkpt lat="44.191691778876624" lon="11.627041801796466"><ele>549.25</ele><time>2026-04-25T08:00:29Z</time></trkpt><trkpt lat="44.19177195055137" lon="11.626857898592641"><ele>541.0</ele><time>2026-04-25T08:00:30Z</time></trkpt><trkpt lat="44.191867262864974" lon="11.626678845287989"><ele>540.75</ele><time>2026-04-25T08:00:31Z</time></trkpt><trkpt lat="44.19195488869707" lon="11.6264945640179"><ele>540.5</ele><time>2026-04-25T08:00:32Z</time></trkpt><trkpt lat="44.192047629686435" lon="11.62633599410407"><ele>540.25</ele><time>2026-04-25T08:00:33Z</time></trkpt><trkpt lat="44.19215252851708" lon="11.626203452207193"><ele>540.0</ele><time>2026-04-25T08:00:34Z</time></trkpt><trkpt lat="44.1922590266041" lon="11.626064524669419"><ele>535.5</ele><time>2026-04-25T08:00:35Z</time></trkpt><trkpt lat="44.19235930443086" lon="11.625919542422976"><ele>531.0</ele><time>2026-04-25T08:00:36Z</time></trkpt><trkpt lat="44.19244732455217" lon="11.625754448635947"><ele>526.5</ele><time>2026-04-25T08:00:37Z</time></trkpt><trkpt lat="44.19254505726708" lon="11.625610056329883"><ele>522.0</ele><time>2026-04-25T08:00:38Z</time></trkpt><trkpt lat="44.19264681884207" lon="11.625474722328532"><ele>522.0</ele><time>2026-04-25T08:00:39Z</time></trkpt><trkpt lat="44.19274666273482" lon="11.625347990408152"><ele>522.0</ele><time>2026-04-25T08:00:40Z</time></trkpt><trkpt lat="44.192852198749264" lon="11.625255852502798"><ele>522.0</ele><time>2026-04-25T08:00:41Z</time></trkpt><trkpt lat="44.19296261482805" lon="11.62517637374396"><ele>522.0</ele><time>2026-04-25T08:00:42Z</time></trkpt><trkpt lat="44.19308374857397" lon="11.625134989799855"><ele>520.0</ele><time>2026-04-25T08:00:43Z</time></trkpt><trkpt lat="44.19321319283782" lon="11.625106677704297"><ele>518.0</ele><time>2026-04-25T08:00:44Z</time></trkpt><trkpt lat="44.19335596735455" lon="11.625098126124849"><ele>516.0</ele><time>2026-04-25T08:00:45Z</time></trkpt><trkpt lat="44.193492606422545" lon="11.625072051875591"><ele>514.0</ele><time>2026-04-25T08:00:46Z</time></trkpt><trkpt lat="44.19363687035409" lon="11.625030150925893"><ele>514.0</ele><time>2026-04-25T08:00:47Z</time></trkpt><trkpt lat="44.19378588490021" lon="11.625006529629148"><ele>514.0</ele><time>2026-04-25T08:00:48Z</time></trkpt><trkpt lat="44.19393654309777" lon="11.62498982772929"><ele>514.0</ele><time>2026-04-25T08:00:49Z</time></trkpt><trkpt lat="44.19408271074434" lon="11.624991519843109"><ele>514.0</ele><time>2026-04-25T08:00:50Z</time></trkpt><trkpt lat="44.194224923605205" lon="11.624990719647826"><ele>510.5</ele><time>2026-04-25T08:00:51Z</time></trkpt><trkpt lat="44.19436308139578" lon="11.62497172502667"><ele>507.0</ele><time>2026-04-25T08:00:52Z</time></trkpt><trkpt lat="44.19450226895515" lon="11.624971531366956"><ele>503.5</ele><time>2026-04-25T08:00:53Z</time></trkpt><trkpt lat="44.194630466922796" lon="11.624954576450358"><ele>500.0</ele><time>2026-04-25T08:00:54Z</time></trkpt><trkpt lat="44.19473583816656" lon="11.624976150964775"><ele>500.0</ele><time>2026-04-25T08:00:55Z</time></trkpt><trkpt lat="44.194831439677536" lon="11.624963040402685"><ele>500.0</ele><time>2026-04-25T08:00:56Z</time></trkpt><trkpt lat="44.194939267397146" lon="11.624970289857115"><ele>500.0</ele><time>2026-04-25T08:00:57Z</time></trkpt><trkpt lat="44.1950495795423" lon="11.625008925844012"><ele>500.0</ele><time>2026-04-25T08:00:58Z</time></trkpt><trkpt lat="44.19516940883752" lon="11.625074085817408"><ele>500.0</ele><time>2026-04-25T08:00:59Z</time></trkpt><trkpt lat="44.19530916314112" lon="11.625158124448228"><ele>498.0</ele><time>2026-04-25T08:01:00Z</time></trkpt><trkpt lat="44.19543816530349" lon="11.625252351906687"><ele>496.0</ele><time>2026-04-25T08:01:01Z</time></trkpt><trkpt lat="44.19556554036343" lon="11.625326377118284"><ele>494.0</ele><time>2026-04-25T08:01:02Z</time></trkpt><trkpt lat="44.19568997884354" lon="11.625388060064239"><ele>492.0</ele><time>2026-04-25T08:01:03Z</time></trkpt><trkpt lat="44.19582248383296" lon="11.625425345554676"><ele>483.5</ele><time>2026-04-25T08:01:04Z</time></trkpt><trkpt lat="44.19594544505774" lon="11.625450227204345"><ele>475.0</ele><time>2026-04-25T08:01:05Z</time></trkpt><trkpt lat="44.19609770201305" lon="11.625494700248275"><ele>466.5</ele><time>2026-04-25T08:01:06Z</time></trkpt><trkpt lat="44.19622161917019" lon="11.625539635483593"><ele>458.0</ele><time>2026-04-25T08:01:07Z</time></trkpt><trkpt lat="44.196341664784825" lon="11.625603241077139"><ele>458.0</ele><time>2026-04-25T08:01:08Z</time></trkpt><trkpt lat="44.1964701159032" lon="11.625654381132088"><ele>458.0</ele><time>2026-04-25T08:01:09Z</time></trkpt><trkpt lat="44.196589356439745" lon="11.625687484715506"><ele>458.0</ele><time>2026-04-25T08:01:10Z</time></trkpt><trkpt lat="44.19671343590269" lon="11.625745002907397"><ele>458.0</ele><time>2026-04-25T08:01:11Z</time></trkpt><trkpt lat="44.196831705486225" lon="11.62581443483604"><ele>459.2</ele><time>2026-04-25T08:01:12Z</time></trkpt><trkpt lat="44.19693031526067" lon="11.625862124452944"><ele>460.4</ele><time>2026-04-25T08:01:13Z</time></trkpt><trkpt lat="44.197023008893204" lon="11.62592869487745"><ele>461.59999999999997</ele><time>2026-04-25T08:01:14Z</time></trkpt><trkpt lat="44.19711586529885" lon="11.626004561699567"><ele>462.79999999999995</ele><time>2026-04-25T08:01:15Z</time></trkpt><trkpt lat="44.197181681253525" lon="11.626135546070014"><ele>464.0</ele><time>2026-04-25T08:01:16Z</time></trkpt><trkpt lat="44.19725849427044" lon="11.62623517642132"><ele>460.5</ele><time>2026-04-25T08:01:17Z</time></trkpt><trkpt lat="44.197355566863045" lon="11.62632812520211"><ele>457.0</ele><time>2026-04-25T08:01:18Z</time></trkpt><trkpt lat="44.19748259912367" lon="11.626375843063443"><ele>453.5</ele><time>2026-04-25T08:01:19Z</time></trkpt><trkpt lat="44.197595045046064" lon="11.626409108875263"><ele>450.0</ele><time>2026-04-25T08:01:20Z</time></trkpt><trkpt lat="44.19771079131997" lon="11.626463563044812"><ele>450.0</ele><time>2026-04-25T08:01:21Z</time></trkpt><trkpt lat="44.19781163982046" lon="11.626541729207373"><ele>450.0</ele><time>2026-04-25T08:01:22Z</time></trkpt><trkpt lat="44.19791395123029" lon="11.626627536485515"><ele>450.0</ele><time>2026-04-25T08:01:23Z</time></trkpt><trkpt lat="44.19800303836686" lon="11.626741754665135"><ele>450.0</ele><time>2026-04-25T08:01:24Z</time></trkpt><trkpt lat="44.19809475565683" lon="11.626830415241658"><ele>450.0</ele><time>2026-04-25T08:01:25Z</time></trkpt><trkpt lat="44.19816192194735" lon="11.62692155916835"><ele>450.0</ele><time>2026-04-25T08:01:26Z</time></trkpt><trkpt lat="44.198243837093166" lon="11.627003558147981"><ele>450.0</ele><time>2026-04-25T08:01:27Z</time></trkpt><trkpt lat="44.198333992702736" lon="11.627063394695414"><ele>450.0</ele><time>2026-04-25T08:01:28Z</time></trkpt><trkpt lat="44.19845107315438" lon="11.627093301376027"><ele>450.0</ele><time>2026-04-25T08:01:29Z</time></trkpt><trkpt lat="44.19854523717003" lon="11.627098993525944"><ele>444.8</ele><time>2026-04-25T08:01:30Z</time></trkpt><trkpt lat="44.19862701080877" lon="11.62712956268388"><ele>439.6</ele><time>2026-04-25T08:01:31Z</time></trkpt><trkpt lat="44.19871453093616" lon="11.627182344617578"><ele>434.4</ele><time>2026-04-25T08:01:32Z</time></trkpt><trkpt lat="44.19879005673602" lon="11.627258280758625"><ele>429.2</ele><time>2026-04-25T08:01:33Z</time></trkpt><trkpt lat="44.19884195769808" lon="11.627390722247734"><ele>424.0</ele><time>2026-04-25T08:01:34Z</time></trkpt><trkpt lat="44.19893032728619" lon="11.6275119176022"><ele>425.2</ele><time>2026-04-25T08:01:35Z</time></trkpt><trkpt lat="44.199008098012094" lon="11.627645330359536"><ele>426.4</ele><time>2026-04-25T08:01:36Z</time></trkpt><trkpt lat="44.199084988383305" lon="11.627728059353757"><ele>427.6</ele><time>2026-04-25T08:01:37Z</time></trkpt><trkpt lat="44.199181503450134" lon="11.627797498724783"><ele>428.8</ele><time>2026-04-25T08:01:38Z</time></trkpt><trkpt lat="44.19929805820013" lon="11.627799136005487"><ele>430.0</ele><time>2026-04-25T08:01:39Z</time></trkpt><trkpt lat="44.199423216814374" lon="11.627854128910245"><ele>425.0</ele><time>2026-04-25T08:01:40Z</time></trkpt><trkpt lat="44.19955240406572" lon="11.627999453796475"><ele>420.0</ele><time>2026-04-25T08:01:41Z</time></trkpt><trkpt lat="44.19973312630729" lon="11.628181434216188"><ele>415.0</ele><time>2026-04-25T08:01:42Z</time></trkpt><trkpt lat="44.19990948847969" lon="11.628361951474844"><ele>415.0</ele><time>2026-04-25T08:01:43Z</time></trkpt><trkpt lat="44.20008810953019" lon="11.628549496014557"><ele>415.0</ele><time>2026-04-25T08:01:44Z</time></trkpt><trkpt lat="44.20025270984967" lon="11.628728775832961"><ele>415.0</ele><time>2026-04-25T08:01:44.999Z</time></trkpt><trkpt lat="44.200403948276964" lon="11.62889258001584"><ele>411.75</ele><time>2026-04-25T08:01:45.999Z</time></trkpt><trkpt lat="44.200543073543415" lon="11.629042941431726"><ele>408.5</ele><time>2026-04-25T08:01:46.999Z</time></trkpt><trkpt lat="44.20065394403309" lon="11.629176373242105"><ele>405.25</ele><time>2026-04-25T08:01:47.999Z</time></trkpt><trkpt lat="44.2007360170668" lon="11.629291941669603"><ele>402.0</ele><time>2026-04-25T08:01:48.999Z</time></trkpt><trkpt lat="44.20079557057494" lon="11.629424154523731"><ele>400.40000000000003</ele><time>2026-04-25T08:01:49.999Z</time></trkpt><trkpt lat="44.200819231246214" lon="11.62957476469392"><ele>398.8</ele><time>2026-04-25T08:01:50.999Z</time></trkpt><trkpt lat="44.200863312828034" lon="11.62969211460529"><ele>397.2</ele><time>2026-04-25T08:01:52Z</time></trkpt><trkpt lat="44.20089994518274" lon="11.629774026779339"><ele>395.6</ele><time>2026-04-25T08:01:53Z</time></trkpt><trkpt lat="44.20096754432863" lon="11.629814804872913"><ele>394.0</ele><time>2026-04-25T08:01:54Z</time></trkpt><trkpt lat="44.20107731503564" lon="11.629811882227902"><ele>394.0</ele><time>2026-04-25T08:01:55Z</time></trkpt><trkpt lat="44.20120034224312" lon="11.629754489992905"><ele>394.0</ele><time>2026-04-25T08:01:56Z</time></trkpt><trkpt lat="44.201350197295994" lon="11.629741353317986"><ele>394.0</ele><time>2026-04-25T08:01:57Z</time></trkpt><trkpt lat="44.20149968470624" lon="11.629740057436141"><ele>394.0</ele><time>2026-04-25T08:01:58Z</time></trkpt><trkpt lat="44.20166850842625" lon="11.629709957885554"><ele>394.6666666666667</ele><time>2026-04-25T08:01:59Z</time></trkpt><trkpt lat="44.201845629456685" lon="11.629722960408236"><ele>395.33333333333337</ele><time>2026-04-25T08:02:00Z</time></trkpt><trkpt lat="44.202023024034496" lon="11.629708479950324"><ele>396.0</ele><time>2026-04-25T08:02:01Z</time></trkpt><trkpt lat="44.20218468274668" lon="11.629682225208919"><ele>395.25</ele><time>2026-04-25T08:02:02Z</time></trkpt><trkpt lat="44.2023358005179" lon="11.629653577692961"><ele>394.5</ele><time>2026-04-25T08:02:03Z</time></trkpt><trkpt lat="44.20248290646869" lon="11.62962569250944"><ele>393.75</ele><time>2026-04-25T08:02:04Z</time></trkpt><trkpt lat="44.202628728762065" lon="11.629608209423186"><ele>393.0</ele><time>2026-04-25T08:02:05Z</time></trkpt><trkpt lat="44.20276236654129" lon="11.629612363565558"><ele>393.0</ele><time>2026-04-25T08:02:06Z</time></trkpt><trkpt lat="44.20287760637324" lon="11.629600738716283"><ele>393.0</ele><time>2026-04-25T08:02:07Z</time></trkpt><trkpt lat="44.20298408026806" lon="11.629574643581448"><ele>393.0</ele><time>2026-04-25T08:02:08Z</time></trkpt><trkpt lat="44.20310405135012" lon="11.629530933430052"><ele>393.0</ele><time>2026-04-25T08:02:09Z</time></trkpt><trkpt lat="44.20321363335204" lon="11.629458829868078"><ele>398.0</ele><time>2026-04-25T08:02:10Z</time></trkpt><trkpt lat="44.203380049085304" lon="11.62936018934725"><ele>403.0</ele><time>2026-04-25T08:02:11Z</time></trkpt><trkpt lat="44.203521624864806" lon="11.629328647337472"><ele>408.0</ele><time>2026-04-25T08:02:12Z</time></trkpt><trkpt lat="44.20367054778191" lon="11.629308761293451"><ele>408.0</ele><time>2026-04-25T08:02:13Z</time></trkpt><trkpt lat="44.20381452281694" lon="11.629290865266178"><ele>408.0</ele><time>2026-04-25T08:02:14Z</time></trkpt><trkpt lat="44.20396471691003" lon="11.629310125518723"><ele>408.0</ele><time>2026-04-25T08:02:15Z</time></trkpt><trkpt lat="44.204102799088744" lon="11.629326574746774"><ele>408.0</ele><time>2026-04-25T08:02:16Z</time></trkpt><trkpt lat="44.20422004640895" lon="11.629388636351116"><ele>405.79999999999995</ele><time>2026-04-25T08:02:17Z</time></trkpt><trkpt lat="44.20433273692167" lon="11.629418858534477"><ele>403.6</ele><time>2026-04-25T08:02:18Z</time></trkpt><trkpt lat="44.2044299291659" lon="11.629421027408055"><ele>401.4</ele><time>2026-04-25T08:02:19Z</time></trkpt><trkpt lat="44.2045262321095" lon="11.629374792857083"><ele>399.20000000000005</ele><time>2026-04-25T08:02:20Z</time></trkpt><trkpt lat="44.20461401422207" lon="11.629278903723742"><ele>397.0</ele><time>2026-04-25T08:02:21Z</time></trkpt><trkpt lat="44.204707070965576" lon="11.62917336924099"><ele>397.0</ele><time>2026-04-25T08:02:22Z</time></trkpt><trkpt lat="44.20479902991385" lon="11.629046706656473"><ele>397.0</ele><time>2026-04-25T08:02:23Z</time></trkpt><trkpt lat="44.204875474296706" lon="11.628894460767672"><ele>397.0</ele><time>2026-04-25T08:02:24Z</time></trkpt><trkpt lat="44.204940254419455" lon="11.628722615582701"><ele>397.0</ele><time>2026-04-25T08:02:25Z</time></trkpt><trkpt lat="44.20502259195971" lon="11.628573924611631"><ele>397.8</ele><time>2026-04-25T08:02:26Z</time></trkpt><trkpt lat="44.20510987269223" lon="11.628448154836454"><ele>398.6</ele><time>2026-04-25T08:02:27Z</time></trkpt><trkpt lat="44.205193793826496" lon="11.628348214320733"><ele>399.40000000000003</ele><time>2026-04-25T08:02:28Z</time></trkpt><trkpt lat="44.205276593450314" lon="11.62825186709338"><ele>400.20000000000005</ele><time>2026-04-25T08:02:29Z</time></trkpt><trkpt lat="44.205350611690086" lon="11.628187167685493"><ele>401.0</ele><time>2026-04-25T08:02:30Z</time></trkpt><trkpt lat="44.2054442463464" lon="11.62816727880013"><ele>401.0</ele><time>2026-04-25T08:02:31Z</time></trkpt><trkpt lat="44.20556920893922" lon="11.628220685355524"><ele>401.0</ele><time>2026-04-25T08:02:32Z</time></trkpt><trkpt lat="44.2056864898045" lon="11.628238729628828"><ele>401.0</ele><time>2026-04-25T08:02:33Z</time></trkpt><trkpt lat="44.20581983098414" lon="11.628228426142142"><ele>401.0</ele><time>2026-04-25T08:02:34Z</time></trkpt><trkpt lat="44.205942990500915" lon="11.628248807304905"><ele>396.0</ele><time>2026-04-25T08:02:35Z</time></trkpt><trkpt lat="44.206022753003445" lon="11.628152395317686"><ele>391.0</ele><time>2026-04-25T08:02:36Z</time></trkpt><trkpt lat="44.206106138678614" lon="11.628040619945589"><ele>386.0</ele><time>2026-04-25T08:02:37Z</time></trkpt><trkpt lat="44.20624674628509" lon="11.627943761168005"><ele>381.0</ele><time>2026-04-25T08:02:38Z</time></trkpt><trkpt lat="44.20641071635285" lon="11.627855505915528"><ele>381.0</ele><time>2026-04-25T08:02:39Z</time></trkpt><trkpt lat="44.20657924944609" lon="11.627743642145452"><ele>381.0</ele><time>2026-04-25T08:02:40Z</time></trkpt><trkpt lat="44.20670671710809" lon="11.62763120968102"><ele>381.0</ele><time>2026-04-25T08:02:41Z</time></trkpt><trkpt lat="44.20683202941635" lon="11.627530221355379"><ele>381.0</ele><time>2026-04-25T08:02:42Z</time></trkpt><trkpt lat="44.206956498295206" lon="11.627434558072833"><ele>381.0</ele><time>2026-04-25T08:02:43Z</time></trkpt><trkpt lat="44.207087297337594" lon="11.62732115515029"><ele>381.0</ele><time>2026-04-25T08:02:44Z</time></trkpt><trkpt lat="44.207212222120404" lon="11.627218490728797"><ele>381.0</ele><time>2026-04-25T08:02:45Z</time></trkpt><trkpt lat="44.20734375416342" lon="11.627115644413522"><ele>380.5</ele><time>2026-04-25T08:02:46Z</time></trkpt><trkpt lat="44.20748177630154" lon="11.627049171084412"><ele>380.0</ele><time>2026-04-25T08:02:47Z</time></trkpt><trkpt lat="44.20760847005278" lon="11.626969595373891"><ele>379.5</ele><time>2026-04-25T08:02:48Z</time></trkpt><trkpt lat="44.20772624642743" lon="11.626898113074827"><ele>379.0</ele><time>2026-04-25T08:02:49Z</time></trkpt><trkpt lat="44.207840895958626" lon="11.62685049548537"><ele>379.0</ele><time>2026-04-25T08:02:50Z</time></trkpt><trkpt lat="44.207956092701934" lon="11.626852915735853"><ele>379.0</ele><time>2026-04-25T08:02:51Z</time></trkpt><trkpt lat="44.20807258143712" lon="11.626882352935784"><ele>379.0</ele><time>2026-04-25T08:02:52Z</time></trkpt><trkpt lat="44.20818104709805" lon="11.626907895608571"><ele>379.0</ele><time>2026-04-25T08:02:53Z</time></trkpt><trkpt lat="44.20828559120307" lon="11.62688791127836"><ele>379.0</ele><time>2026-04-25T08:02:54Z</time></trkpt><trkpt lat="44.20836184624179" lon="11.626882453228523"><ele>376.0</ele><time>2026-04-25T08:02:55Z</time></trkpt><trkpt lat="44.20843282086118" lon="11.626823802401665"><ele>373.0</ele><time>2026-04-25T08:02:56Z</time></trkpt><trkpt lat="44.208469707772785" lon="11.6266243740377"><ele>370.0</ele><time>2026-04-25T08:02:57Z</time></trkpt><trkpt lat="44.20851826976083" lon="11.626422640024149"><ele>367.0</ele><time>2026-04-25T08:02:58Z</time></trkpt><trkpt lat="44.208559339848655" lon="11.626170779622168"><ele>366.3333333333333</ele><time>2026-04-25T08:02:59Z</time></trkpt><trkpt lat="44.208627061114214" lon="11.625974450723335"><ele>365.6666666666667</ele><time>2026-04-25T08:03:00Z</time></trkpt><trkpt lat="44.20869111608177" lon="11.625770755860014"><ele>365.0</ele><time>2026-04-25T08:03:01Z</time></trkpt><trkpt lat="44.208756885683044" lon="11.625557548331406"><ele>365.0</ele><time>2026-04-25T08:03:02Z</time></trkpt><trkpt lat="44.20882067938403" lon="11.625357093063444"><ele>365.0</ele><time>2026-04-25T08:03:03Z</time></trkpt><trkpt lat="44.208882736411965" lon="11.62517740407913"><ele>365.0</ele><time>2026-04-25T08:03:04Z</time></trkpt><trkpt lat="44.20893801956464" lon="11.6249933248413"><ele>365.0</ele><time>2026-04-25T08:03:05Z</time></trkpt><trkpt lat="44.20899573689126" lon="11.624801346160417"><ele>361.25</ele><time>2026-04-25T08:03:06Z</time></trkpt><trkpt lat="44.20906586164667" lon="11.624630587005438"><ele>357.5</ele><time>2026-04-25T08:03:07Z</time></trkpt><trkpt lat="44.209119540781586" lon="11.624460533030545"><ele>353.75</ele><time>2026-04-25T08:03:08Z</time></trkpt><trkpt lat="44.209173006448204" lon="11.624295738665872"><ele>350.0</ele><time>2026-04-25T08:03:09Z</time></trkpt><trkpt lat="44.2092317761208" lon="11.624143034120909"><ele>350.0</ele><time>2026-04-25T08:03:10Z</time></trkpt><trkpt lat="44.2093114310607" lon="11.624015405937621"><ele>350.0</ele><time>2026-04-25T08:03:11Z</time></trkpt><trkpt lat="44.20939433109996" lon="11.623865031560694"><ele>350.0</ele><time>2026-04-25T08:03:12Z</time></trkpt><trkpt lat="44.20948446181463" lon="11.623723060876204"><ele>350.0</ele><time>2026-04-25T08:03:13Z</time></trkpt><trkpt lat="44.209547184460945" lon="11.62361151564337"><ele>350.0</ele><time>2026-04-25T08:03:14Z</time></trkpt><trkpt lat="44.20962626950413" lon="11.623557841103475"><ele>350.0</ele><time>2026-04-25T08:03:15Z</time></trkpt><trkpt lat="44.20970435293046" lon="11.62353874621115"><ele>350.0</ele><time>2026-04-25T08:03:16Z</time></trkpt><trkpt lat="44.20977567177289" lon="11.623563388360072"><ele>350.0</ele><time>2026-04-25T08:03:17Z</time></trkpt><trkpt lat="44.20981127479008" lon="11.623685958762549"><ele>350.0</ele><time>2026-04-25T08:03:18Z</time></trkpt><trkpt lat="44.2098360892364" lon="11.623807551677281"><ele>350.0</ele><time>2026-04-25T08:03:19Z</time></trkpt><trkpt lat="44.209869636757105" lon="11.623895473522117"><ele>347.0</ele><time>2026-04-25T08:03:20Z</time></trkpt><trkpt lat="44.209928589059054" lon="11.623932854451017"><ele>344.0</ele><time>2026-04-25T08:03:21Z</time></trkpt><trkpt lat="44.20999745203842" lon="11.623961028529333"><ele>341.0</ele><time>2026-04-25T08:03:22Z</time></trkpt><trkpt lat="44.21009035403109" lon="11.6238516195289"><ele>338.0</ele><time>2026-04-25T08:03:23Z</time></trkpt><trkpt lat="44.21009538482406" lon="11.623660263919255"><ele>335.0</ele><time>2026-04-25T08:03:24Z</time></trkpt><trkpt lat="44.21010540245074" lon="11.623506591555714"><ele>333.8</ele><time>2026-04-25T08:03:25Z</time></trkpt><trkpt lat="44.21007537046342" lon="11.623339005959089"><ele>332.6</ele><time>2026-04-25T08:03:26Z</time></trkpt><trkpt lat="44.2100515030982" lon="11.623203297087379"><ele>331.4</ele><time>2026-04-25T08:03:27Z</time></trkpt><trkpt lat="44.20997479947055" lon="11.623112748966125"><ele>330.2</ele><time>2026-04-25T08:03:28Z</time></trkpt><trkpt lat="44.20987258665392" lon="11.623047709517941"><ele>329.0</ele><time>2026-04-25T08:03:29Z</time></trkpt><trkpt lat="44.209764029940025" lon="11.62296754525109"><ele>331.79999999999995</ele><time>2026-04-25T08:03:30Z</time></trkpt><trkpt lat="44.20966855762986" lon="11.622877346711803"><ele>334.59999999999997</ele><time>2026-04-25T08:03:31Z</time></trkpt><trkpt lat="44.20958425212505" lon="11.622774293488709"><ele>337.4</ele><time>2026-04-25T08:03:32Z</time></trkpt><trkpt lat="44.20950366208371" lon="11.622650453300027"><ele>340.2</ele><time>2026-04-25T08:03:33Z</time></trkpt><trkpt lat="44.20945537951438" lon="11.622551846290866"><ele>343.0</ele><time>2026-04-25T08:03:34Z</time></trkpt><trkpt lat="44.20942786010422" lon="11.622465567775304"><ele>343.0</ele><time>2026-04-25T08:03:35Z</time></trkpt><trkpt lat="44.20943201934791" lon="11.622369634014904"><ele>343.0</ele><time>2026-04-25T08:03:36Z</time></trkpt><trkpt lat="44.209433903858105" lon="11.62224608920638"><ele>343.0</ele><time>2026-04-25T08:03:37Z</time></trkpt><trkpt lat="44.20941630587298" lon="11.622088931174055"><ele>343.0</ele><time>2026-04-25T08:03:38Z</time></trkpt><trkpt lat="44.209366977796705" lon="11.62194466213642"><ele>343.0</ele><time>2026-04-25T08:03:39Z</time></trkpt><trkpt lat="44.20929584995703" lon="11.621828782113871"><ele>339.2</ele><time>2026-04-25T08:03:40Z</time></trkpt><trkpt lat="44.209255225526555" lon="11.621704945084753"><ele>335.4</ele><time>2026-04-25T08:03:41Z</time></trkpt><trkpt lat="44.20919704925651" lon="11.621588790589692"><ele>331.59999999999997</ele><time>2026-04-25T08:03:42Z</time></trkpt><trkpt lat="44.209138787368616" lon="11.621478593157834"><ele>327.79999999999995</ele><time>2026-04-25T08:03:43Z</time></trkpt><trkpt lat="44.20909323084464" lon="11.621376673360018"><ele>324.0</ele><time>2026-04-25T08:03:44Z</time></trkpt><trkpt lat="44.20903718395369" lon="11.621279504117691"><ele>319.75</ele><time>2026-04-25T08:03:45Z</time></trkpt><trkpt lat="44.2089407695056" lon="11.621198744933082"><ele>315.5</ele><time>2026-04-25T08:03:46Z</time></trkpt><trkpt lat="44.208818737113845" lon="11.621124029580766"><ele>311.25</ele><time>2026-04-25T08:03:47Z</time></trkpt><trkpt lat="44.20869688984022" lon="11.621066822780701"><ele>307.0</ele><time>2026-04-25T08:03:48Z</time></trkpt><trkpt lat="44.20858415774458" lon="11.621009478342302"><ele>307.0</ele><time>2026-04-25T08:03:49Z</time></trkpt><trkpt lat="44.208487182108534" lon="11.620951358155157"><ele>307.0</ele><time>2026-04-25T08:03:50Z</time></trkpt><trkpt lat="44.2084039037291" lon="11.62084905497045"><ele>307.0</ele><time>2026-04-25T08:03:51Z</time></trkpt><trkpt lat="44.2083302818918" lon="11.62072582745978"><ele>307.0</ele><time>2026-04-25T08:03:52Z</time></trkpt><trkpt lat="44.20822326728582" lon="11.620648824604364"><ele>309.0</ele><time>2026-04-25T08:03:53Z</time></trkpt><trkpt lat="44.20811515773828" lon="11.6206008411442"><ele>311.0</ele><time>2026-04-25T08:03:54Z</time></trkpt><trkpt lat="44.20801271829235" lon="11.620558073400614"><ele>313.0</ele><time>2026-04-25T08:03:55Z</time></trkpt><trkpt lat="44.20789651774519" lon="11.620548619300878"><ele>315.0</ele><time>2026-04-25T08:03:56Z</time></trkpt><trkpt lat="44.20778092916587" lon="11.620584577736498"><ele>315.0</ele><time>2026-04-25T08:03:57Z</time></trkpt><trkpt lat="44.20766365319215" lon="11.620594429019338"><ele>315.0</ele><time>2026-04-25T08:03:58Z</time></trkpt><trkpt lat="44.20757401624912" lon="11.620597265105415"><ele>315.0</ele><time>2026-04-25T08:03:59Z</time></trkpt><trkpt lat="44.20750739779476" lon="11.620577211269666"><ele>315.0</ele><time>2026-04-25T08:04:00Z</time></trkpt><trkpt lat="44.20745740084245" lon="11.620382383198772"><ele>315.0</ele><time>2026-04-25T08:04:02Z</time></trkpt><trkpt lat="44.207469863865235" lon="11.620242620975825"><ele>317.0</ele><time>2026-04-25T08:04:03Z</time></trkpt><trkpt lat="44.20743615032857" lon="11.620119548022252"><ele>319.0</ele><time>2026-04-25T08:04:04Z</time></trkpt><trkpt lat="44.2073691540963" lon="11.61996650728191"><ele>321.0</ele><time>2026-04-25T08:04:05Z</time></trkpt><trkpt lat="44.20728644977095" lon="11.61980806679023"><ele>323.0</ele><time>2026-04-25T08:04:06Z</time></trkpt><trkpt lat="44.207173506675346" lon="11.619630940673172"><ele>311.0</ele><time>2026-04-25T08:04:07Z</time></trkpt><trkpt lat="44.20707426422458" lon="11.619442797961746"><ele>299.0</ele><time>2026-04-25T08:04:08Z</time></trkpt><trkpt lat="44.20697482034238" lon="11.619277270748432"><ele>287.0</ele><time>2026-04-25T08:04:09Z</time></trkpt><trkpt lat="44.20687256213141" lon="11.61912041056869"><ele>287.0</ele><time>2026-04-25T08:04:10Z</time></trkpt><trkpt lat="44.20678052748611" lon="11.618957636942538"><ele>287.0</ele><time>2026-04-25T08:04:11Z</time></trkpt><trkpt lat="44.20668976482422" lon="11.618792655997945"><ele>287.0</ele><time>2026-04-25T08:04:12Z</time></trkpt><trkpt lat="44.20661242408732" lon="11.61865825393415"><ele>287.0</ele><time>2026-04-25T08:04:13Z</time></trkpt><trkpt lat="44.20653336109382" lon="11.618540534200125"><ele>285.8</ele><time>2026-04-25T08:04:14Z</time></trkpt><trkpt lat="44.20647355167782" lon="11.618452652037963"><ele>284.6</ele><time>2026-04-25T08:04:15Z</time></trkpt><trkpt lat="44.20644378108141" lon="11.618369880209784"><ele>283.40000000000003</ele><time>2026-04-25T08:04:16Z</time></trkpt><trkpt lat="44.206426494751035" lon="11.61825797789925"><ele>282.2</ele><time>2026-04-25T08:04:18Z</time></trkpt><trkpt lat="44.20656722984359" lon="11.618297870692953"><ele>281.0</ele><time>2026-04-25T08:04:20Z</time></trkpt><trkpt lat="44.206633787358236" lon="11.618406072925804"><ele>282.5</ele><time>2026-04-25T08:04:21Z</time></trkpt><trkpt lat="44.20673341098146" lon="11.6184937874134"><ele>284.0</ele><time>2026-04-25T08:04:22Z</time></trkpt><trkpt lat="44.206849721536024" lon="11.61857177303413"><ele>285.5</ele><time>2026-04-25T08:04:23Z</time></trkpt><trkpt lat="44.20696201334528" lon="11.618699413821401"><ele>287.0</ele><time>2026-04-25T08:04:24Z</time></trkpt><trkpt lat="44.20707428232338" lon="11.61880571746878"><ele>287.0</ele><time>2026-04-25T08:04:25Z</time></trkpt><trkpt lat="44.20718170032588" lon="11.618906236644671"><ele>287.0</ele><time>2026-04-25T08:04:26Z</time></trkpt><trkpt lat="44.207305939297434" lon="11.618982696449603"><ele>287.0</ele><time>2026-04-25T08:04:27Z</time></trkpt><trkpt lat="44.207431744951016" lon="11.619050161094735"><ele>287.0</ele><time>2026-04-25T08:04:28Z</time></trkpt><trkpt lat="44.207556033692065" lon="11.619120086826097"><ele>280.4</ele><time>2026-04-25T08:04:29Z</time></trkpt><trkpt lat="44.20766636938556" lon="11.619182244447803"><ele>273.79999999999995</ele><time>2026-04-25T08:04:30Z</time></trkpt><trkpt lat="44.207779813759686" lon="11.619241652039532"><ele>267.2</ele><time>2026-04-25T08:04:31Z</time></trkpt><trkpt lat="44.20787465623138" lon="11.61928694352222"><ele>260.59999999999997</ele><time>2026-04-25T08:04:32Z</time></trkpt><trkpt lat="44.207951951708466" lon="11.619321748720543"><ele>254.0</ele><time>2026-04-25T08:04:33Z</time></trkpt><trkpt lat="44.20803010340536" lon="11.619363305433508"><ele>254.0</ele><time>2026-04-25T08:04:34Z</time></trkpt><trkpt lat="44.208088103436324" lon="11.61940002903696"><ele>254.0</ele><time>2026-04-25T08:04:35Z</time></trkpt><trkpt lat="44.20821202607539" lon="11.619185893078816"><ele>254.0</ele><time>2026-04-25T08:04:36Z</time></trkpt><trkpt lat="44.208314997970184" lon="11.619057756794653"><ele>254.0</ele><time>2026-04-25T08:04:37Z</time></trkpt><trkpt lat="44.20841290383164" lon="11.618905624224197"><ele>250.0</ele><time>2026-04-25T08:04:38Z</time></trkpt><trkpt lat="44.20851949253599" lon="11.61877979619603"><ele>246.0</ele><time>2026-04-25T08:04:39Z</time></trkpt><trkpt lat="44.20860581854312" lon="11.618644604427475"><ele>242.0</ele><time>2026-04-25T08:04:40Z</time></trkpt><trkpt lat="44.20869974489325" lon="11.61853716475269"><ele>238.0</ele><time>2026-04-25T08:04:41Z</time></trkpt><trkpt lat="44.20877620483786" lon="11.618437860129786"><ele>236.66666666666666</ele><time>2026-04-25T08:04:42Z</time></trkpt><trkpt lat="44.208844293886386" lon="11.618323846183927"><ele>235.33333333333331</ele><time>2026-04-25T08:04:43Z</time></trkpt><trkpt lat="44.20890748686762" lon="11.618234763997242"><ele>234.0</ele><time>2026-04-25T08:04:44Z</time></trkpt><trkpt lat="44.20896496257706" lon="11.618166066031757"><ele>232.66666666666669</ele><time>2026-04-25T08:04:45Z</time></trkpt><trkpt lat="44.20903984136125" lon="11.618078442196174"><ele>231.33333333333334</ele><time>2026-04-25T08:04:47Z</time></trkpt><trkpt lat="44.209092499302265" lon="11.618027617505028"><ele>230.0</ele><time>2026-04-25T08:04:51Z</time></trkpt><trkpt lat="44.20918008054674" lon="11.618071145247637"><ele>228.2</ele><time>2026-04-25T08:04:53Z</time></trkpt><trkpt lat="44.2092583340664" lon="11.618119706963984"><ele>226.4</ele><time>2026-04-25T08:04:54Z</time></trkpt><trkpt lat="44.20935030765501" lon="11.618146208485324"><ele>224.60000000000002</ele><time>2026-04-25T08:04:55Z</time></trkpt><trkpt lat="44.209451040201955" lon="11.618174075869478"><ele>222.8</ele><time>2026-04-25T08:04:56Z</time></trkpt><trkpt lat="44.209562119824476" lon="11.618127569839935"><ele>221.0</ele><time>2026-04-25T08:04:57Z</time></trkpt><trkpt lat="44.20966453054331" lon="11.61804865358487"><ele>221.0</ele><time>2026-04-25T08:04:58Z</time></trkpt><trkpt lat="44.20975175537045" lon="11.617957354384624"><ele>221.0</ele><time>2026-04-25T08:04:59Z</time></trkpt><trkpt lat="44.20982230490922" lon="11.617831244870006"><ele>221.0</ele><time>2026-04-25T08:05:00Z</time></trkpt><trkpt lat="44.20987201337184" lon="11.61765403259516"><ele>221.0</ele><time>2026-04-25T08:05:01Z</time></trkpt><trkpt lat="44.20990855688104" lon="11.617476267923006"><ele>219.0</ele><time>2026-04-25T08:05:02Z</time></trkpt><trkpt lat="44.209944662273124" lon="11.617318371427595"><ele>217.0</ele><time>2026-04-25T08:05:03Z</time></trkpt><trkpt lat="44.209988358613714" lon="11.617169970445637"><ele>215.0</ele><time>2026-04-25T08:05:04Z</time></trkpt><trkpt lat="44.21003433677364" lon="11.617017633635184"><ele>213.0</ele><time>2026-04-25T08:05:05Z</time></trkpt><trkpt lat="44.21007707877716" lon="11.616879238362436"><ele>213.0</ele><time>2026-04-25T08:05:06Z</time></trkpt><trkpt lat="44.21013499226378" lon="11.61676348260987"><ele>213.0</ele><time>2026-04-25T08:05:07Z</time></trkpt><trkpt lat="44.210239490009975" lon="11.616706339084912"><ele>213.0</ele><time>2026-04-25T08:05:08Z</time></trkpt><trkpt lat="44.21035813734572" lon="11.616669794151676"><ele>213.0</ele><time>2026-04-25T08:05:09Z</time></trkpt><trkpt lat="44.210463377996014" lon="11.616653673142984"><ele>213.0</ele><time>2026-04-25T08:05:10Z</time></trkpt><trkpt lat="44.21055666678306" lon="11.616653153994141"><ele>213.0</ele><time>2026-04-25T08:05:11Z</time></trkpt><trkpt lat="44.21063649409627" lon="11.616676525668273"><ele>213.0</ele><time>2026-04-25T08:05:12Z</time></trkpt><trkpt lat="44.21074525238905" lon="11.616713662837359"><ele>213.0</ele><time>2026-04-25T08:05:14Z</time></trkpt><trkpt lat="44.21082262854554" lon="11.616738237946976"><ele>213.0</ele><time>2026-04-25T08:05:17Z</time></trkpt><trkpt lat="44.210941347602024" lon="11.616775401361782"><ele>213.0</ele><time>2026-04-25T08:05:36Z</time></trkpt><trkpt lat="44.21101575764718" lon="11.616798997063329"><ele>213.83333333333334</ele><time>2026-04-25T08:05:37Z</time></trkpt><trkpt lat="44.211090893298696" lon="11.616823803155002"><ele>214.66666666666669</ele><time>2026-04-25T08:05:38Z</time></trkpt><trkpt lat="44.21117897645228" lon="11.616852883867303"><ele>215.5</ele><time>2026-04-25T08:05:39Z</time></trkpt><trkpt lat="44.211275874235206" lon="11.61688655326895"><ele>216.33333333333334</ele><time>2026-04-25T08:05:40Z</time></trkpt><trkpt lat="44.21136695998244" lon="11.616921184028786"><ele>217.16666666666669</ele><time>2026-04-25T08:05:41Z</time></trkpt><trkpt lat="44.2114454083363" lon="11.616955386011464"><ele>218.0</ele><time>2026-04-25T08:05:42.001Z</time></trkpt><trkpt lat="44.21152111088043" lon="11.616990584955786"><ele>216.0</ele><time>2026-04-25T08:05:43.001Z</time></trkpt><trkpt lat="44.211593726392195" lon="11.617024348512341"><ele>214.0</ele><time>2026-04-25T08:05:44.001Z</time></trkpt><trkpt lat="44.21165778238145" lon="11.617054132212667"><ele>212.0</ele><time>2026-04-25T08:05:45.001Z</time></trkpt><trkpt lat="44.21175494106607" lon="11.616894849053685"><ele>210.0</ele><time>2026-04-25T08:05:48.001Z</time></trkpt><trkpt lat="44.21175623604388" lon="11.61678140005322"><ele>208.0</ele><time>2026-04-25T08:05:49.001Z</time></trkpt><trkpt lat="44.21177463045645" lon="11.616646436811516"><ele>213.0</ele><time>2026-04-25T08:05:50.001Z</time></trkpt><trkpt lat="44.21180020160804" lon="11.616498467160392"><ele>218.0</ele><time>2026-04-25T08:05:51.001Z</time></trkpt><trkpt lat="44.2118223888184" lon="11.616327726927555"><ele>223.0</ele><time>2026-04-25T08:05:52.001Z</time></trkpt><trkpt lat="44.21185292232878" lon="11.616095286038304"><ele>228.0</ele><time>2026-04-25T08:05:53.001Z</time></trkpt><trkpt lat="44.211886287020185" lon="11.615848406273017"><ele>229.60000000000002</ele><time>2026-04-25T08:05:54.001Z</time></trkpt><trkpt lat="44.21191493834749" lon="11.6156734898728"><ele>231.20000000000002</ele><time>2026-04-25T08:05:55.001Z</time></trkpt><trkpt lat="44.211934953430955" lon="11.615544954426417"><ele>232.8</ele><time>2026-04-25T08:05:56.001Z</time></trkpt><trkpt lat="44.21192632993309" lon="11.615439522140617"><ele>234.4</ele><time>2026-04-25T08:05:57Z</time></trkpt><trkpt lat="44.211888454463015" lon="11.615339529965873"><ele>236.0</ele><time>2026-04-25T08:05:58Z</time></trkpt><trkpt lat="44.21180072230499" lon="11.615256762082515"><ele>237.25</ele><time>2026-04-25T08:05:59Z</time></trkpt><trkpt lat="44.211675114846" lon="11.61519586960739"><ele>238.5</ele><time>2026-04-25T08:06:00Z</time></trkpt><trkpt lat="44.21152704391331" lon="11.615115889904102"><ele>239.75</ele><time>2026-04-25T08:06:01Z</time></trkpt><trkpt lat="44.21139551340104" lon="11.615024817437037"><ele>241.0</ele><time>2026-04-25T08:06:02Z</time></trkpt><trkpt lat="44.211280380793596" lon="11.614919901955918"><ele>241.0</ele><time>2026-04-25T08:06:03Z</time></trkpt><trkpt lat="44.21113359300287" lon="11.614811782546672"><ele>241.0</ele><time>2026-04-25T08:06:04Z</time></trkpt><trkpt lat="44.210965876992766" lon="11.614683143923584"><ele>241.0</ele><time>2026-04-25T08:06:05Z</time></trkpt><trkpt lat="44.21080193464777" lon="11.614551955478728"><ele>245.33333333333331</ele><time>2026-04-25T08:06:06Z</time></trkpt><trkpt lat="44.210641812462946" lon="11.61444446480821"><ele>249.66666666666669</ele><time>2026-04-25T08:06:07Z</time></trkpt><trkpt lat="44.21050667274908" lon="11.61433359115344"><ele>254.0</ele><time>2026-04-25T08:06:08Z</time></trkpt><trkpt lat="44.21040293629869" lon="11.614237030661432"><ele>254.0</ele><time>2026-04-25T08:06:09Z</time></trkpt><trkpt lat="44.21028907078721" lon="11.61418260504008"><ele>254.0</ele><time>2026-04-25T08:06:10Z</time></trkpt><trkpt lat="44.21018283221461" lon="11.614129392818267"><ele>254.0</ele><time>2026-04-25T08:06:11Z</time></trkpt><trkpt lat="44.21006954766526" lon="11.614067760990915"><ele>254.0</ele><time>2026-04-25T08:06:12Z</time></trkpt><trkpt lat="44.209952870760944" lon="11.61401492642147"><ele>252.25</ele><time>2026-04-25T08:06:13Z</time></trkpt><trkpt lat="44.209824714835946" lon="11.613957145084266"><ele>250.5</ele><time>2026-04-25T08:06:14Z</time></trkpt><trkpt lat="44.20970868007232" lon="11.613852142026206"><ele>248.75</ele><time>2026-04-25T08:06:15Z</time></trkpt><trkpt lat="44.20956435657963" lon="11.613773279479215"><ele>247.0</ele><time>2026-04-25T08:06:16Z</time></trkpt><trkpt lat="44.20939005083748" lon="11.613708192854357"><ele>247.0</ele><time>2026-04-25T08:06:17Z</time></trkpt><trkpt lat="44.209236065113906" lon="11.613679301507926"><ele>247.0</ele><time>2026-04-25T08:06:18Z</time></trkpt><trkpt lat="44.20915651278904" lon="11.613689161406466"><ele>247.0</ele><time>2026-04-25T08:06:19Z</time></trkpt><trkpt lat="44.20903347942517" lon="11.613663155798754"><ele>247.0</ele><time>2026-04-25T08:06:20Z</time></trkpt><trkpt lat="44.20891391249874" lon="11.613663332064304"><ele>246.8</ele><time>2026-04-25T08:06:21Z</time></trkpt><trkpt lat="44.20880644409844" lon="11.613661564097097"><ele>246.6</ele><time>2026-04-25T08:06:22Z</time></trkpt><trkpt lat="44.20869657520734" lon="11.613663969955123"><ele>246.40000000000003</ele><time>2026-04-25T08:06:23Z</time></trkpt><trkpt lat="44.20860446654601" lon="11.61365899232641"><ele>246.20000000000002</ele><time>2026-04-25T08:06:24Z</time></trkpt><trkpt lat="44.2085180890616" lon="11.613647811262554"><ele>246.0</ele><time>2026-04-25T08:06:25Z</time></trkpt><trkpt lat="44.20844567296764" lon="11.613607818579519"><ele>246.0</ele><time>2026-04-25T08:06:26Z</time></trkpt><trkpt lat="44.20837525287138" lon="11.613588018275948"><ele>246.0</ele><time>2026-04-25T08:06:27Z</time></trkpt><trkpt lat="44.20834197458899" lon="11.613495478239507"><ele>246.0</ele><time>2026-04-25T08:06:28Z</time></trkpt><trkpt lat="44.208333876018706" lon="11.613406142271668"><ele>246.0</ele><time>2026-04-25T08:06:29Z</time></trkpt><trkpt lat="44.20834236587713" lon="11.613311792972732"><ele>246.0</ele><time>2026-04-25T08:06:30Z</time></trkpt><trkpt lat="44.20839097697328" lon="11.613238078794828"><ele>246.0</ele><time>2026-04-25T08:06:31Z</time></trkpt><trkpt lat="44.208441639691635" lon="11.613108897839734"><ele>246.0</ele><time>2026-04-25T08:06:32Z</time></trkpt><trkpt lat="44.208493988196764" lon="11.612963354913473"><ele>246.0</ele><time>2026-04-25T08:06:33Z</time></trkpt><trkpt lat="44.20850075166942" lon="11.61279294403973"><ele>246.0</ele><time>2026-04-25T08:06:34Z</time></trkpt><trkpt lat="44.208468489618156" lon="11.61263644419169"><ele>246.0</ele><time>2026-04-25T08:06:35Z</time></trkpt><trkpt lat="44.208485158483704" lon="11.61249873469152"><ele>245.60000000000002</ele><time>2026-04-25T08:06:36Z</time></trkpt><trkpt lat="44.20851697027841" lon="11.61238517762005"><ele>245.20000000000002</ele><time>2026-04-25T08:06:37Z</time></trkpt><trkpt lat="44.2086002231454" lon="11.612303261237608"><ele>244.79999999999998</ele><time>2026-04-25T08:06:38Z</time></trkpt><trkpt lat="44.208687556331874" lon="11.612271829107396"><ele>244.39999999999998</ele><time>2026-04-25T08:06:39Z</time></trkpt><trkpt lat="44.20877476921286" lon="11.61225523738506"><ele>244.0</ele><time>2026-04-25T08:06:40Z</time></trkpt><trkpt lat="44.208874392483615" lon="11.612250317632778"><ele>244.6</ele><time>2026-04-25T08:06:41Z</time></trkpt><trkpt lat="44.20899892569589" lon="11.612195105534342"><ele>245.2</ele><time>2026-04-25T08:06:42Z</time></trkpt><trkpt lat="44.20906681020751" lon="11.612147593761627"><ele>245.79999999999998</ele><time>2026-04-25T08:06:43Z</time></trkpt><trkpt lat="44.209085120439134" lon="11.611974185176509"><ele>246.39999999999998</ele><time>2026-04-25T08:06:44Z</time></trkpt><trkpt lat="44.20907136949868" lon="11.611815033197162"><ele>247.0</ele><time>2026-04-25T08:06:45Z</time></trkpt><trkpt lat="44.209035214929756" lon="11.61167104014295"><ele>247.0</ele><time>2026-04-25T08:06:46Z</time></trkpt><trkpt lat="44.2090011362888" lon="11.611546325635157"><ele>247.0</ele><time>2026-04-25T08:06:47Z</time></trkpt><trkpt lat="44.20895238543738" lon="11.611477842346599"><ele>247.0</ele><time>2026-04-25T08:06:48Z</time></trkpt><trkpt lat="44.20885884834843" lon="11.611465578530822"><ele>247.0</ele><time>2026-04-25T08:06:49Z</time></trkpt><trkpt lat="44.208756241466425" lon="11.611481756841233"><ele>247.0</ele><time>2026-04-25T08:06:50Z</time></trkpt><trkpt lat="44.20862709205603" lon="11.611538277710098"><ele>246.75</ele><time>2026-04-25T08:06:51Z</time></trkpt><trkpt lat="44.208495359122246" lon="11.611619109513322"><ele>246.5</ele><time>2026-04-25T08:06:52Z</time></trkpt><trkpt lat="44.208375886701084" lon="11.611645458023801"><ele>246.25</ele><time>2026-04-25T08:06:53Z</time></trkpt><trkpt lat="44.208277195179" lon="11.611642722000267"><ele>246.0</ele><time>2026-04-25T08:06:54Z</time></trkpt><trkpt lat="44.20816488263112" lon="11.61162783474637"><ele>244.8</ele><time>2026-04-25T08:06:55Z</time></trkpt><trkpt lat="44.20805868111066" lon="11.611582148937812"><ele>243.60000000000002</ele><time>2026-04-25T08:06:56Z</time></trkpt><trkpt lat="44.207947486171065" lon="11.611581593478318"><ele>242.4</ele><time>2026-04-25T08:06:57Z</time></trkpt><trkpt lat="44.20785157730108" lon="11.611601048990844"><ele>241.2</ele><time>2026-04-25T08:06:58Z</time></trkpt><trkpt lat="44.207771384435276" lon="11.611641469332701"><ele>240.0</ele><time>2026-04-25T08:06:59Z</time></trkpt><trkpt lat="44.20769106481285" lon="11.611595472643417"><ele>240.0</ele><time>2026-04-25T08:07:00Z</time></trkpt><trkpt lat="44.20761293130171" lon="11.611546611993404"><ele>240.0</ele><time>2026-04-25T08:07:01Z</time></trkpt><trkpt lat="44.207525492656046" lon="11.611507623778458"><ele>240.0</ele><time>2026-04-25T08:07:02Z</time></trkpt><trkpt lat="44.20744599102229" lon="11.611454327846642"><ele>240.0</ele><time>2026-04-25T08:07:03Z</time></trkpt><trkpt lat="44.207372709488716" lon="11.611434845974204"><ele>240.0</ele><time>2026-04-25T08:07:04Z</time></trkpt><trkpt lat="44.20728902116016" lon="11.611386368015513"><ele>240.0</ele><time>2026-04-25T08:07:06Z</time></trkpt><trkpt lat="44.20724138523308" lon="11.611308552776002"><ele>240.0</ele><time>2026-04-25T08:07:08Z</time></trkpt><trkpt lat="44.20731905823586" lon="11.611181955752246"><ele>240.0</ele><time>2026-04-25T08:07:10Z</time></trkpt><trkpt lat="44.207401190459436" lon="11.611183324281548"><ele>240.0</ele><time>2026-04-25T08:07:11Z</time></trkpt><trkpt lat="44.207471344849104" lon="11.61113816142471"><ele>240.0</ele><time>2026-04-25T08:07:12Z</time></trkpt><trkpt lat="44.20754575692411" lon="11.61110049670764"><ele>240.0</ele><time>2026-04-25T08:07:13Z</time></trkpt><trkpt lat="44.20761127028838" lon="11.61105554154075"><ele>240.0</ele><time>2026-04-25T08:07:14Z</time></trkpt><trkpt lat="44.207672841174116" lon="11.611012460592908"><ele>242.2</ele><time>2026-04-25T08:07:15Z</time></trkpt><trkpt lat="44.20773107794398" lon="11.61097074926488"><ele>244.4</ele><time>2026-04-25T08:07:16Z</time></trkpt><trkpt lat="44.20780032033493" lon="11.610928922743081"><ele>246.60000000000002</ele><time>2026-04-25T08:07:17Z</time></trkpt><trkpt lat="44.20788046269133" lon="11.610843908035635"><ele>248.8</ele><time>2026-04-25T08:07:18Z</time></trkpt><trkpt lat="44.20797758251852" lon="11.61071884320749"><ele>251.0</ele><time>2026-04-25T08:07:19Z</time></trkpt><trkpt lat="44.208074993528626" lon="11.610593407557278"><ele>251.0</ele><time>2026-04-25T08:07:20Z</time></trkpt><trkpt lat="44.20815957899338" lon="11.610484487301882"><ele>251.00000000000003</ele><time>2026-04-25T08:07:21Z</time></trkpt><trkpt lat="44.20823035181657" lon="11.610399668824005"><ele>251.00000000000003</ele><time>2026-04-25T08:07:22Z</time></trkpt><trkpt lat="44.20828738426209" lon="11.610330260792301"><ele>251.0</ele><time>2026-04-25T08:07:23Z</time></trkpt><trkpt lat="44.20836270680905" lon="11.610317992800326"><ele>251.0</ele><time>2026-04-25T08:07:24Z</time></trkpt><trkpt lat="44.20844837659502" lon="11.610356811084852"><ele>253.33333333333334</ele><time>2026-04-25T08:07:25Z</time></trkpt><trkpt lat="44.208540140512966" lon="11.610378667232057"><ele>255.66666666666669</ele><time>2026-04-25T08:07:26Z</time></trkpt><trkpt lat="44.2086297293488" lon="11.61039315286011"><ele>258.0</ele><time>2026-04-25T08:07:27Z</time></trkpt><trkpt lat="44.20870943137553" lon="11.61037510362903"><ele>260.3333333333333</ele><time>2026-04-25T08:07:28Z</time></trkpt><trkpt lat="44.20878241251651" lon="11.610374810726912"><ele>262.66666666666663</ele><time>2026-04-25T08:07:29Z</time></trkpt><trkpt lat="44.20884421687103" lon="11.610279943880462"><ele>265.0</ele><time>2026-04-25T08:07:30Z</time></trkpt><trkpt lat="44.208861007359985" lon="11.610132246846055"><ele>267.0</ele><time>2026-04-25T08:07:31Z</time></trkpt><trkpt lat="44.208876602776975" lon="11.609989981078385"><ele>269.0</ele><time>2026-04-25T08:07:32.001Z</time></trkpt><trkpt lat="44.208933872626126" lon="11.609885108016803"><ele>271.0</ele><time>2026-04-25T08:07:33.001Z</time></trkpt><trkpt lat="44.208991751180925" lon="11.609778152850032"><ele>273.0</ele><time>2026-04-25T08:07:34.001Z</time></trkpt><trkpt lat="44.20903551118589" lon="11.609684606430088"><ele>275.0</ele><time>2026-04-25T08:07:35.001Z</time></trkpt><trkpt lat="44.20911149853688" lon="11.609627030009527"><ele>275.0</ele><time>2026-04-25T08:07:36.001Z</time></trkpt><trkpt lat="44.20919940077845" lon="11.609572738498898"><ele>275.0</ele><time>2026-04-25T08:07:37.001Z</time></trkpt><trkpt lat="44.209285671939476" lon="11.609590155961483"><ele>275.0</ele><time>2026-04-25T08:07:38.001Z</time></trkpt><trkpt lat="44.209390808735186" lon="11.609555952701252"><ele>275.0</ele><time>2026-04-25T08:07:40.001Z</time></trkpt><trkpt lat="44.20942112730689" lon="11.609462080227003"><ele>275.0</ele><time>2026-04-25T08:07:41.001Z</time></trkpt><trkpt lat="44.2093813581356" lon="11.609352009969806"><ele>279.4</ele><time>2026-04-25T08:07:42.001Z</time></trkpt><trkpt lat="44.20928176318641" lon="11.609333693324672"><ele>283.8</ele><time>2026-04-25T08:07:43.001Z</time></trkpt><trkpt lat="44.20921711286442" lon="11.609344117337242"><ele>288.2</ele><time>2026-04-25T08:07:44.001Z</time></trkpt><trkpt lat="44.20913104457471" lon="11.609333131528176"><ele>292.6</ele><time>2026-04-25T08:07:45.001Z</time></trkpt><trkpt lat="44.20903358026369" lon="11.609346814359236"><ele>297.0</ele><time>2026-04-25T08:07:46.001Z</time></trkpt><trkpt lat="44.20891949713485" lon="11.609373112641515"><ele>299.0</ele><time>2026-04-25T08:07:47.001Z</time></trkpt><trkpt lat="44.20881028940395" lon="11.609408365589468"><ele>301.0</ele><time>2026-04-25T08:07:48.001Z</time></trkpt><trkpt lat="44.208695406411806" lon="11.609355117267746"><ele>303.0</ele><time>2026-04-25T08:07:49.001Z</time></trkpt><trkpt lat="44.20857802656159" lon="11.609327522176722"><ele>305.0</ele><time>2026-04-25T08:07:50.001Z</time></trkpt><trkpt lat="44.208463493474824" lon="11.609263256701132"><ele>305.0</ele><time>2026-04-25T08:07:51.001Z</time></trkpt><trkpt lat="44.208349834382766" lon="11.60922224946784"><ele>305.0</ele><time>2026-04-25T08:07:52.001Z</time></trkpt><trkpt lat="44.208232575368264" lon="11.609208016658789"><ele>305.0</ele><time>2026-04-25T08:07:53.001Z</time></trkpt><trkpt lat="44.20811421714332" lon="11.609230542057368"><ele>305.0</ele><time>2026-04-25T08:07:54.001Z</time></trkpt><trkpt lat="44.20799296522495" lon="11.609300330791857"><ele>304.25</ele><time>2026-04-25T08:07:55.001Z</time></trkpt><trkpt lat="44.207854364517445" lon="11.609383960713101"><ele>303.5</ele><time>2026-04-25T08:07:56.001Z</time></trkpt><trkpt lat="44.20771951386204" lon="11.609485122499299"><ele>302.75</ele><time>2026-04-25T08:07:57.001Z</time></trkpt><trkpt lat="44.20761109342342" lon="11.609520643273154"><ele>302.0</ele><time>2026-04-25T08:07:58.001Z</time></trkpt><trkpt lat="44.2075192899732" lon="11.609542607001284"><ele>302.0</ele><time>2026-04-25T08:07:59.001Z</time></trkpt><trkpt lat="44.20743596311293" lon="11.609497227673947"><ele>302.0</ele><time>2026-04-25T08:08:00.001Z</time></trkpt><trkpt lat="44.20736554083059" lon="11.60941995378162"><ele>302.0</ele><time>2026-04-25T08:08:01.001Z</time></trkpt><trkpt lat="44.20734347152124" lon="11.609288682151293"><ele>302.0</ele><time>2026-04-25T08:08:02.001Z</time></trkpt><trkpt lat="44.20729050555425" lon="11.60912165973242"><ele>302.0</ele><time>2026-04-25T08:08:03Z</time></trkpt><trkpt lat="44.207244070837376" lon="11.608910007601281"><ele>296.6666666666667</ele><time>2026-04-25T08:08:04Z</time></trkpt><trkpt lat="44.20718749498163" lon="11.608691192262592"><ele>291.3333333333333</ele><time>2026-04-25T08:08:05Z</time></trkpt><trkpt lat="44.20713646588192" lon="11.608482805565348"><ele>286.0</ele><time>2026-04-25T08:08:06Z</time></trkpt><trkpt lat="44.20706774512731" lon="11.608318766977641"><ele>286.0</ele><time>2026-04-25T08:08:07Z</time></trkpt><trkpt lat="44.206981946441374" lon="11.608199073464121"><ele>286.0</ele><time>2026-04-25T08:08:08Z</time></trkpt><trkpt lat="44.206945766171536" lon="11.608083423312024"><ele>286.0</ele><time>2026-04-25T08:08:09Z</time></trkpt><trkpt lat="44.2069290007944" lon="11.607989234409716"><ele>286.0</ele><time>2026-04-25T08:08:10Z</time></trkpt><trkpt lat="44.20694796745188" lon="11.607874506287676"><ele>286.0</ele><time>2026-04-25T08:08:12Z</time></trkpt><trkpt lat="44.207019169579155" lon="11.607896960105853"><ele>286.0</ele><time>2026-04-25T08:08:13Z</time></trkpt><trkpt lat="44.20707746186986" lon="11.60797146184856"><ele>286.0</ele><time>2026-04-25T08:08:14Z</time></trkpt><trkpt lat="44.207070567071106" lon="11.608144036233151"><ele>286.0</ele><time>2026-04-25T08:08:15Z</time></trkpt><trkpt lat="44.20713292803212" lon="11.60831998859521"><ele>286.0</ele><time>2026-04-25T08:08:16Z</time></trkpt><trkpt lat="44.207230665509414" lon="11.608493182514374"><ele>286.0</ele><time>2026-04-25T08:08:17Z</time></trkpt><trkpt lat="44.207326013045424" lon="11.60866411575861"><ele>290.0</ele><time>2026-04-25T08:08:18Z</time></trkpt><trkpt lat="44.207407385406114" lon="11.608806877175816"><ele>294.0</ele><time>2026-04-25T08:08:19Z</time></trkpt><trkpt lat="44.207412451788564" lon="11.608968834738924"><ele>298.0</ele><time>2026-04-25T08:08:20Z</time></trkpt><trkpt lat="44.20748413546052" lon="11.609053368573544"><ele>302.0</ele><time>2026-04-25T08:08:21Z</time></trkpt><trkpt lat="44.20763165668842" lon="11.608942073280824"><ele>302.0</ele><time>2026-04-25T08:08:22Z</time></trkpt><trkpt lat="44.20775537342358" lon="11.608876886847732"><ele>302.0</ele><time>2026-04-25T08:08:23Z</time></trkpt><trkpt lat="44.20790749710948" lon="11.608826651408743"><ele>302.0</ele><time>2026-04-25T08:08:24Z</time></trkpt><trkpt lat="44.20806855874854" lon="11.608803709407656"><ele>302.75</ele><time>2026-04-25T08:08:25Z</time></trkpt><trkpt lat="44.20819571914295" lon="11.608781350203127"><ele>303.5</ele><time>2026-04-25T08:08:26Z</time></trkpt><trkpt lat="44.208297030765436" lon="11.608722786498756"><ele>304.25</ele><time>2026-04-25T08:08:27Z</time></trkpt><trkpt lat="44.20838044820186" lon="11.608624405360974"><ele>305.0</ele><time>2026-04-25T08:08:28Z</time></trkpt><trkpt lat="44.20846880050788" lon="11.608541584204882"><ele>310.4</ele><time>2026-04-25T08:08:29Z</time></trkpt><trkpt lat="44.20854787292536" lon="11.608470644121871"><ele>315.8</ele><time>2026-04-25T08:08:30Z</time></trkpt><trkpt lat="44.20861319842647" lon="11.608385438365277"><ele>321.20000000000005</ele><time>2026-04-25T08:08:31Z</time></trkpt><trkpt lat="44.208710227607845" lon="11.60831734058153"><ele>326.6</ele><time>2026-04-25T08:08:32Z</time></trkpt><trkpt lat="44.20880497053963" lon="11.608227839165542"><ele>332.0</ele><time>2026-04-25T08:08:33Z</time></trkpt><trkpt lat="44.208905604371814" lon="11.608124127029626"><ele>333.5</ele><time>2026-04-25T08:08:34Z</time></trkpt><trkpt lat="44.20900582279925" lon="11.608004903613034"><ele>335.0</ele><time>2026-04-25T08:08:35Z</time></trkpt><trkpt lat="44.20910614118765" lon="11.60789149917148"><ele>336.5</ele><time>2026-04-25T08:08:36Z</time></trkpt><trkpt lat="44.209192985963334" lon="11.607784078472438"><ele>338.0</ele><time>2026-04-25T08:08:37Z</time></trkpt><trkpt lat="44.20927234599194" lon="11.607701312359039"><ele>338.0</ele><time>2026-04-25T08:08:38Z</time></trkpt><trkpt lat="44.209344938195514" lon="11.607656093659182"><ele>338.0</ele><time>2026-04-25T08:08:39Z</time></trkpt><trkpt lat="44.209428766947504" lon="11.607627673794939"><ele>338.0</ele><time>2026-04-25T08:08:40Z</time></trkpt><trkpt lat="44.20952681071796" lon="11.607582129831082"><ele>338.0</ele><time>2026-04-25T08:08:41Z</time></trkpt><trkpt lat="44.2096032119474" lon="11.607509978180998"><ele>338.0</ele><time>2026-04-25T08:08:42Z</time></trkpt><trkpt lat="44.20964846441154" lon="11.60742149628962"><ele>338.0</ele><time>2026-04-25T08:08:43Z</time></trkpt><trkpt lat="44.20967242721064" lon="11.60730180617121"><ele>338.0</ele><time>2026-04-25T08:08:44Z</time></trkpt><trkpt lat="44.20970119024418" lon="11.607132490004084"><ele>338.0</ele><time>2026-04-25T08:08:45Z</time></trkpt><trkpt lat="44.20977694064197" lon="11.607011891212826"><ele>338.0</ele><time>2026-04-25T08:08:46Z</time></trkpt><trkpt lat="44.20985983662927" lon="11.606871870872439"><ele>338.0</ele><time>2026-04-25T08:08:47Z</time></trkpt><trkpt lat="44.209925436718386" lon="11.606723271393532"><ele>338.2</ele><time>2026-04-25T08:08:48Z</time></trkpt><trkpt lat="44.209989225412976" lon="11.606622603989205"><ele>338.4</ele><time>2026-04-25T08:08:49Z</time></trkpt><trkpt lat="44.21001629279913" lon="11.606524589307334"><ele>338.59999999999997</ele><time>2026-04-25T08:08:50Z</time></trkpt><trkpt lat="44.20999756835751" lon="11.606410447680075"><ele>338.79999999999995</ele><time>2026-04-25T08:08:51Z</time></trkpt><trkpt lat="44.20993692590888" lon="11.606294717473782"><ele>339.0</ele><time>2026-04-25T08:08:52Z</time></trkpt><trkpt lat="44.209854138544536" lon="11.606173888127072"><ele>343.0</ele><time>2026-04-25T08:08:53Z</time></trkpt><trkpt lat="44.20974774471499" lon="11.606066438332235"><ele>347.0</ele><time>2026-04-25T08:08:54Z</time></trkpt><trkpt lat="44.209646839914136" lon="11.605998704503282"><ele>351.0</ele><time>2026-04-25T08:08:55Z</time></trkpt><trkpt lat="44.20955139819022" lon="11.605992897724748"><ele>355.0</ele><time>2026-04-25T08:08:56Z</time></trkpt><trkpt lat="44.20946115409202" lon="11.606052192985722"><ele>359.0</ele><time>2026-04-25T08:08:57Z</time></trkpt><trkpt lat="44.20936000738369" lon="11.60610009644238"><ele>359.0</ele><time>2026-04-25T08:08:58Z</time></trkpt><trkpt lat="44.20927787179784" lon="11.606130646330426"><ele>359.0</ele><time>2026-04-25T08:08:59Z</time></trkpt><trkpt lat="44.20917723372981" lon="11.60602986997478"><ele>359.0</ele><time>2026-04-25T08:09:01Z</time></trkpt><trkpt lat="44.20915786637113" lon="11.605940167206427"><ele>359.0</ele><time>2026-04-25T08:09:02Z</time></trkpt><trkpt lat="44.20924353555252" lon="11.605792557173462"><ele>359.0</ele><time>2026-04-25T08:09:03Z</time></trkpt><trkpt lat="44.20930188014449" lon="11.605644747217974"><ele>359.0</ele><time>2026-04-25T08:09:04Z</time></trkpt><trkpt lat="44.209335192006805" lon="11.60547147122455"><ele>359.0</ele><time>2026-04-25T08:09:05Z</time></trkpt><trkpt lat="44.20936471872135" lon="11.605327557016201"><ele>359.0</ele><time>2026-04-25T08:09:06Z</time></trkpt><trkpt lat="44.20938786490409" lon="11.605210610892563"><ele>359.0</ele><time>2026-04-25T08:09:07Z</time></trkpt><trkpt lat="44.20938341395746" lon="11.6050956392292"><ele>359.0</ele><time>2026-04-25T08:09:08Z</time></trkpt><trkpt lat="44.20935568721219" lon="11.604953309685403"><ele>360.75</ele><time>2026-04-25T08:09:09Z</time></trkpt><trkpt lat="44.20936518734879" lon="11.604822441923945"><ele>362.5</ele><time>2026-04-25T08:09:10Z</time></trkpt><trkpt lat="44.20939311471674" lon="11.604694702511805"><ele>364.25</ele><time>2026-04-25T08:09:11Z</time></trkpt><trkpt lat="44.20943437856572" lon="11.604532956971505"><ele>366.0</ele><time>2026-04-25T08:09:12Z</time></trkpt><trkpt lat="44.20948833743562" lon="11.604340890059676"><ele>367.3333333333333</ele><time>2026-04-25T08:09:13Z</time></trkpt><trkpt lat="44.209551544116586" lon="11.604136135519095"><ele>368.66666666666663</ele><time>2026-04-25T08:09:14Z</time></trkpt><trkpt lat="44.20963949662743" lon="11.603943915934073"><ele>370.0</ele><time>2026-04-25T08:09:15Z</time></trkpt><trkpt lat="44.20970472459831" lon="11.603735458492185"><ele>368.75</ele><time>2026-04-25T08:09:16Z</time></trkpt><trkpt lat="44.20977387162445" lon="11.603547040058572"><ele>367.5</ele><time>2026-04-25T08:09:17Z</time></trkpt><trkpt lat="44.20982928669641" lon="11.603374322775194"><ele>366.25</ele><time>2026-04-25T08:09:18Z</time></trkpt><trkpt lat="44.20988991039616" lon="11.603228166891483"><ele>365.0</ele><time>2026-04-25T08:09:19Z</time></trkpt><trkpt lat="44.20994852453134" lon="11.603099472302505"><ele>365.0</ele><time>2026-04-25T08:09:20Z</time></trkpt><trkpt lat="44.210007448622974" lon="11.602992068761353"><ele>365.0</ele><time>2026-04-25T08:09:21Z</time></trkpt><trkpt lat="44.2100716904954" lon="11.602922807884104"><ele>365.0</ele><time>2026-04-25T08:09:22Z</time></trkpt><trkpt lat="44.21014639073307" lon="11.602890583272602"><ele>365.0</ele><time>2026-04-25T08:09:23Z</time></trkpt><trkpt lat="44.210242277694995" lon="11.602968587340905"><ele>365.0</ele><time>2026-04-25T08:09:24Z</time></trkpt><trkpt lat="44.21034522999575" lon="11.602974693278124"><ele>365.0</ele><time>2026-04-25T08:09:25Z</time></trkpt><trkpt lat="44.21044243710705" lon="11.602967499742753"><ele>365.0</ele><time>2026-04-25T08:09:26Z</time></trkpt><trkpt lat="44.210516744133024" lon="11.602926898033022"><ele>365.0</ele><time>2026-04-25T08:09:27Z</time></trkpt><trkpt lat="44.2105537680097" lon="11.602776703711344"><ele>365.0</ele><time>2026-04-25T08:09:28Z</time></trkpt><trkpt lat="44.21057400525376" lon="11.602615776026175"><ele>365.0</ele><time>2026-04-25T08:09:29Z</time></trkpt><trkpt lat="44.21061249289834" lon="11.602440489506902"><ele>367.33333333333337</ele><time>2026-04-25T08:09:30Z</time></trkpt><trkpt lat="44.21061987221106" lon="11.602235661775241"><ele>369.6666666666667</ele><time>2026-04-25T08:09:31Z</time></trkpt><trkpt lat="44.21065826906526" lon="11.602025202961041"><ele>372.0</ele><time>2026-04-25T08:09:32Z</time></trkpt><trkpt lat="44.21066161936533" lon="11.601807510948515"><ele>381.5</ele><time>2026-04-25T08:09:33Z</time></trkpt><trkpt lat="44.21063839664358" lon="11.60158623856504"><ele>391.0</ele><time>2026-04-25T08:09:34Z</time></trkpt><trkpt lat="44.21063160399485" lon="11.601379186545822"><ele>400.5</ele><time>2026-04-25T08:09:35Z</time></trkpt><trkpt lat="44.21061628766286" lon="11.60120576861025"><ele>410.0</ele><time>2026-04-25T08:09:36Z</time></trkpt><trkpt lat="44.21062470321199" lon="11.601058862186184"><ele>411.0</ele><time>2026-04-25T08:09:37Z</time></trkpt><trkpt lat="44.21061917098324" lon="11.600937276462004"><ele>412.0</ele><time>2026-04-25T08:09:38Z</time></trkpt><trkpt lat="44.21067382443714" lon="11.600850305685475"><ele>413.0</ele><time>2026-04-25T08:09:39Z</time></trkpt><trkpt lat="44.21074931634572" lon="11.600789007149755"><ele>414.0</ele><time>2026-04-25T08:09:40Z</time></trkpt><trkpt lat="44.21085138273063" lon="11.60073334639847"><ele>415.0</ele><time>2026-04-25T08:09:41Z</time></trkpt><trkpt lat="44.21096890430148" lon="11.60071218872702"><ele>409.0</ele><time>2026-04-25T08:09:42Z</time></trkpt><trkpt lat="44.21111310202698" lon="11.600721408231726"><ele>403.0</ele><time>2026-04-25T08:09:43Z</time></trkpt><trkpt lat="44.21127631625564" lon="11.6007303315946"><ele>397.0</ele><time>2026-04-25T08:09:44Z</time></trkpt><trkpt lat="44.211441603694894" lon="11.600717544754918"><ele>398.0</ele><time>2026-04-25T08:09:45Z</time></trkpt><trkpt lat="44.21157564636393" lon="11.600778268677145"><ele>399.0</ele><time>2026-04-25T08:09:46Z</time></trkpt><trkpt lat="44.211683432012656" lon="11.600851632796415"><ele>400.0</ele><time>2026-04-25T08:09:47Z</time></trkpt><trkpt lat="44.21178218043107" lon="11.600927863490075"><ele>401.0</ele><time>2026-04-25T08:09:48Z</time></trkpt><trkpt lat="44.21188360700595" lon="11.600994668822272"><ele>401.0</ele><time>2026-04-25T08:09:49Z</time></trkpt><trkpt lat="44.21195853416811" lon="11.601048618516025"><ele>401.0</ele><time>2026-04-25T08:09:50Z</time></trkpt><trkpt lat="44.212052162168305" lon="11.601033023439001"><ele>401.0</ele><time>2026-04-25T08:09:51Z</time></trkpt><trkpt lat="44.21213555830458" lon="11.600968033350718"><ele>401.0</ele><time>2026-04-25T08:09:52Z</time></trkpt><trkpt lat="44.212236464818226" lon="11.600833008534726"><ele>401.0</ele><time>2026-04-25T08:09:53.001Z</time></trkpt><trkpt lat="44.2123723773895" lon="11.600736391900826"><ele>402.0</ele><time>2026-04-25T08:09:54.001Z</time></trkpt><trkpt lat="44.21252215315334" lon="11.600686374426235"><ele>403.0</ele><time>2026-04-25T08:09:55.001Z</time></trkpt><trkpt lat="44.212669685923586" lon="11.600630964613204"><ele>404.0</ele><time>2026-04-25T08:09:56.001Z</time></trkpt><trkpt lat="44.21280950416123" lon="11.60056761336537"><ele>404.0</ele><time>2026-04-25T08:09:57.001Z</time></trkpt><trkpt lat="44.212937718555736" lon="11.600534562165587"><ele>404.0</ele><time>2026-04-25T08:09:58.001Z</time></trkpt><trkpt lat="44.21306603532678" lon="11.600502852497655"><ele>404.0</ele><time>2026-04-25T08:09:59.001Z</time></trkpt><trkpt lat="44.21318461430326" lon="11.600460056849723"><ele>404.0</ele><time>2026-04-25T08:10:00.001Z</time></trkpt><trkpt lat="44.213287734200826" lon="11.600403043974502"><ele>405.0</ele><time>2026-04-25T08:10:01.001Z</time></trkpt><trkpt lat="44.21342111401062" lon="11.600410158729664"><ele>406.0</ele><time>2026-04-25T08:10:02.001Z</time></trkpt><trkpt lat="44.21343049048324" lon="11.600171862735078"><ele>407.0</ele><time>2026-04-25T08:10:03.001Z</time></trkpt><trkpt lat="44.213476780074984" lon="11.599996309769482"><ele>408.0</ele><time>2026-04-25T08:10:04.001Z</time></trkpt><trkpt lat="44.213527135333926" lon="11.599777355020272"><ele>408.0</ele><time>2026-04-25T08:10:05.001Z</time></trkpt><trkpt lat="44.21359538163992" lon="11.599591898806592"><ele>408.0</ele><time>2026-04-25T08:10:06.001Z</time></trkpt><trkpt lat="44.21369993772394" lon="11.599494446572498"><ele>408.0</ele><time>2026-04-25T08:10:07.001Z</time></trkpt><trkpt lat="44.21379836130982" lon="11.599442488332516"><ele>408.0</ele><time>2026-04-25T08:10:08.001Z</time></trkpt><trkpt lat="44.21393270101804" lon="11.599385689643047"><ele>408.5</ele><time>2026-04-25T08:10:09Z</time></trkpt><trkpt lat="44.2140816419588" lon="11.599307424981214"><ele>409.0</ele><time>2026-04-25T08:10:10Z</time></trkpt><trkpt lat="44.21420302692523" lon="11.599263781140252"><ele>409.5</ele><time>2026-04-25T08:10:11Z</time></trkpt><trkpt lat="44.214313717741014" lon="11.59926326587812"><ele>410.0</ele><time>2026-04-25T08:10:12Z</time></trkpt><trkpt lat="44.21440078596291" lon="11.599232865137884"><ele>409.99999999999994</ele><time>2026-04-25T08:10:13Z</time></trkpt><trkpt lat="44.21446166591398" lon="11.599204251704274"><ele>410.0</ele><time>2026-04-25T08:10:14Z</time></trkpt><trkpt lat="44.21449272818714" lon="11.599030733123286"><ele>410.0</ele><time>2026-04-25T08:10:16Z</time></trkpt><trkpt lat="44.21447915059719" lon="11.59892340707856"><ele>410.0</ele><time>2026-04-25T08:10:17Z</time></trkpt><trkpt lat="44.214475483977665" lon="11.598831357812573"><ele>409.99999999999994</ele><time>2026-04-25T08:10:18Z</time></trkpt><trkpt lat="44.214475130570825" lon="11.598697662056994"><ele>410.0</ele><time>2026-04-25T08:10:19Z</time></trkpt><trkpt lat="44.214487341523885" lon="11.598540237259456"><ele>411.4</ele><time>2026-04-25T08:10:20Z</time></trkpt><trkpt lat="44.21451789200519" lon="11.598398095514451"><ele>412.8</ele><time>2026-04-25T08:10:21Z</time></trkpt><trkpt lat="44.21456129889563" lon="11.598267495105043"><ele>414.20000000000005</ele><time>2026-04-25T08:10:22Z</time></trkpt><trkpt lat="44.21463194252977" lon="11.598177960204437"><ele>415.6</ele><time>2026-04-25T08:10:23Z</time></trkpt><trkpt lat="44.214721311371584" lon="11.598067953877353"><ele>417.0</ele><time>2026-04-25T08:10:24Z</time></trkpt><trkpt lat="44.21479714482695" lon="11.597940421646278"><ele>415.75</ele><time>2026-04-25T08:10:25Z</time></trkpt><trkpt lat="44.214860780952485" lon="11.59777772257498"><ele>414.5</ele><time>2026-04-25T08:10:26Z</time></trkpt><trkpt lat="44.214894706769066" lon="11.597562147429956"><ele>413.25</ele><time>2026-04-25T08:10:27Z</time></trkpt><trkpt lat="44.21495877539607" lon="11.597371040930788"><ele>412.0</ele><time>2026-04-25T08:10:28Z</time></trkpt><trkpt lat="44.21502747200182" lon="11.597191826931057"><ele>412.0</ele><time>2026-04-25T08:10:29Z</time></trkpt><trkpt lat="44.21512730915474" lon="11.59705865937629"><ele>412.0</ele><time>2026-04-25T08:10:30Z</time></trkpt><trkpt lat="44.21519788133863" lon="11.59689907221875"><ele>412.0</ele><time>2026-04-25T08:10:31Z</time></trkpt><trkpt lat="44.21528588606785" lon="11.596709904866712"><ele>412.0</ele><time>2026-04-25T08:10:32Z</time></trkpt><trkpt lat="44.215358022285" lon="11.596513598868425"><ele>414.25</ele><time>2026-04-25T08:10:33Z</time></trkpt><trkpt lat="44.215411576450656" lon="11.596319913891959"><ele>416.5</ele><time>2026-04-25T08:10:34Z</time></trkpt><trkpt lat="44.21546568572225" lon="11.59612245347554"><ele>418.75</ele><time>2026-04-25T08:10:35Z</time></trkpt><trkpt lat="44.21551259188811" lon="11.595931747141746"><ele>421.0</ele><time>2026-04-25T08:10:36Z</time></trkpt><trkpt lat="44.21555746953567" lon="11.595750601686417"><ele>423.5</ele><time>2026-04-25T08:10:37Z</time></trkpt><trkpt lat="44.2155922862366" lon="11.59557800061558"><ele>426.0</ele><time>2026-04-25T08:10:38Z</time></trkpt><trkpt lat="44.215610001389834" lon="11.59539597038317"><ele>428.5</ele><time>2026-04-25T08:10:39Z</time></trkpt><trkpt lat="44.215604109984795" lon="11.595227178757314"><ele>431.0</ele><time>2026-04-25T08:10:40Z</time></trkpt><trkpt lat="44.21561255258621" lon="11.595044777780615"><ele>430.20000000000005</ele><time>2026-04-25T08:10:41Z</time></trkpt><trkpt lat="44.215580630371136" lon="11.594851226494253"><ele>429.40000000000003</ele><time>2026-04-25T08:10:42Z</time></trkpt><trkpt lat="44.215601244946555" lon="11.594719764725147"><ele>428.6</ele><time>2026-04-25T08:10:43Z</time></trkpt><trkpt lat="44.21563071149694" lon="11.594584559208569"><ele>427.8</ele><time>2026-04-25T08:10:44Z</time></trkpt><trkpt lat="44.21567380150579" lon="11.594464849730821"><ele>427.0</ele><time>2026-04-25T08:10:45Z</time></trkpt><trkpt lat="44.21573311920518" lon="11.594379966596124"><ele>427.00000000000006</ele><time>2026-04-25T08:10:46Z</time></trkpt><trkpt lat="44.2157999509797" lon="11.594325754899712"><ele>427.0</ele><time>2026-04-25T08:10:47Z</time></trkpt><trkpt lat="44.21586669857133" lon="11.594283187025766"><ele>427.0</ele><time>2026-04-25T08:10:48Z</time></trkpt><trkpt lat="44.21594035056548" lon="11.594242612470369"><ele>427.0</ele><time>2026-04-25T08:10:49Z</time></trkpt><trkpt lat="44.21601473425423" lon="11.594192920062845"><ele>427.00000000000006</ele><time>2026-04-25T08:10:50Z</time></trkpt><trkpt lat="44.2160822852995" lon="11.59410396193612"><ele>427.0</ele><time>2026-04-25T08:10:51Z</time></trkpt><trkpt lat="44.21611852463702" lon="11.593971025632586"><ele>427.0</ele><time>2026-04-25T08:10:52Z</time></trkpt><trkpt lat="44.21610676469798" lon="11.593806200861907"><ele>427.0</ele><time>2026-04-25T08:10:53Z</time></trkpt><trkpt lat="44.21608851983662" lon="11.593651249439247"><ele>427.0</ele><time>2026-04-25T08:10:54Z</time></trkpt><trkpt lat="44.216141315451615" lon="11.593519372553715"><ele>427.0</ele><time>2026-04-25T08:10:55Z</time></trkpt><trkpt lat="44.21620492979844" lon="11.593379032557465"><ele>428.0</ele><time>2026-04-25T08:10:56Z</time></trkpt><trkpt lat="44.21627404293579" lon="11.593226482044361"><ele>429.00000000000006</ele><time>2026-04-25T08:10:57Z</time></trkpt><trkpt lat="44.21633265545299" lon="11.593102770144451"><ele>430.00000000000006</ele><time>2026-04-25T08:10:58Z</time></trkpt><trkpt lat="44.216373368743234" lon="11.59299235470936"><ele>431.0</ele><time>2026-04-25T08:10:59Z</time></trkpt><trkpt lat="44.21643943591331" lon="11.592940169011646"><ele>432.0</ele><time>2026-04-25T08:11:00Z</time></trkpt><trkpt lat="44.216513602716084" lon="11.592885282808577"><ele>433.6666666666667</ele><time>2026-04-25T08:11:02Z</time></trkpt><trkpt lat="44.21649468352432" lon="11.59273140294973"><ele>435.33333333333337</ele><time>2026-04-25T08:11:48Z</time></trkpt><trkpt lat="44.21652071834649" lon="11.592606674689355"><ele>437.0</ele><time>2026-04-25T08:11:50Z</time></trkpt><trkpt lat="44.21653710882176" lon="11.592514032656023"><ele>438.6666666666667</ele><time>2026-04-25T08:11:51Z</time></trkpt><trkpt lat="44.2165508936273" lon="11.592418807456895"><ele>440.33333333333337</ele><time>2026-04-25T08:11:52Z</time></trkpt><trkpt lat="44.21656182583501" lon="11.592328270790858"><ele>442.0</ele><time>2026-04-25T08:11:53Z</time></trkpt><trkpt lat="44.216541962888456" lon="11.59216007224974"><ele>442.00000000000006</ele><time>2026-04-25T08:11:55Z</time></trkpt><trkpt lat="44.21649421628246" lon="11.592095538843894"><ele>442.0</ele><time>2026-04-25T08:11:56Z</time></trkpt><trkpt lat="44.21641974786652" lon="11.592070574707746"><ele>442.0</ele><time>2026-04-25T08:11:57Z</time></trkpt><trkpt lat="44.2163470792285" lon="11.592101227686273"><ele>442.0</ele><time>2026-04-25T08:11:58Z</time></trkpt><trkpt lat="44.21630789275501" lon="11.592193283372335"><ele>442.00000000000006</ele><time>2026-04-25T08:11:59Z</time></trkpt><trkpt lat="44.21628713215195" lon="11.592286562013296"><ele>442.0</ele><time>2026-04-25T08:12:00Z</time></trkpt><trkpt lat="44.216264234501004" lon="11.592468947670227"><ele>444.83333333333337</ele><time>2026-04-25T08:12:02Z</time></trkpt><trkpt lat="44.21622753186319" lon="11.592565107395243"><ele>447.6666666666667</ele><time>2026-04-25T08:12:03.001Z</time></trkpt><trkpt lat="44.21617723520329" lon="11.592624977678339"><ele>450.5</ele><time>2026-04-25T08:12:04.001Z</time></trkpt><trkpt lat="44.21609891991133" lon="11.592638459990727"><ele>453.33333333333337</ele><time>2026-04-25T08:12:05.001Z</time></trkpt><trkpt lat="44.216030687219" lon="11.59269605837249"><ele>456.1666666666667</ele><time>2026-04-25T08:12:06.001Z</time></trkpt><trkpt lat="44.21594692698888" lon="11.592730010389495"><ele>459.0</ele><time>2026-04-25T08:12:07.001Z</time></trkpt><trkpt lat="44.21587590926263" lon="11.592758195299972"><ele>459.0</ele><time>2026-04-25T08:12:08.001Z</time></trkpt><trkpt lat="44.2157703773645" lon="11.592775813660356"><ele>459.0</ele><time>2026-04-25T08:12:10.001Z</time></trkpt><trkpt lat="44.21572547817589" lon="11.59270502193372"><ele>459.0</ele><time>2026-04-25T08:12:12.001Z</time></trkpt><trkpt lat="44.21581266461842" lon="11.592588307552473"><ele>459.0</ele><time>2026-04-25T08:12:13.001Z</time></trkpt><trkpt lat="44.21585788130557" lon="11.59249226243573"><ele>459.0</ele><time>2026-04-25T08:12:14.001Z</time></trkpt><trkpt lat="44.215882881454164" lon="11.592368215104766"><ele>459.0</ele><time>2026-04-25T08:12:15Z</time></trkpt><trkpt lat="44.2158613371464" lon="11.592237638704608"><ele>459.0</ele><time>2026-04-25T08:12:16Z</time></trkpt><trkpt lat="44.21583327713925" lon="11.592107526085584"><ele>459.0</ele><time>2026-04-25T08:12:17Z</time></trkpt><trkpt lat="44.215781314344426" lon="11.591953745930743"><ele>459.0</ele><time>2026-04-25T08:12:18Z</time></trkpt><trkpt lat="44.21576185245453" lon="11.591814019432945"><ele>459.0</ele><time>2026-04-25T08:12:19Z</time></trkpt><trkpt lat="44.215759578984034" lon="11.591688707265341"><ele>460.6</ele><time>2026-04-25T08:12:20Z</time></trkpt><trkpt lat="44.215748117131916" lon="11.591515660409218"><ele>462.2</ele><time>2026-04-25T08:12:21Z</time></trkpt><trkpt lat="44.21575142720127" lon="11.591359536177418"><ele>463.80000000000007</ele><time>2026-04-25T08:12:22Z</time></trkpt><trkpt lat="44.21574130008292" lon="11.591217949128513"><ele>465.40000000000003</ele><time>2026-04-25T08:12:23Z</time></trkpt><trkpt lat="44.215718505076275" lon="11.591117769363661"><ele>467.0</ele><time>2026-04-25T08:12:24Z</time></trkpt><trkpt lat="44.215681842193604" lon="11.590996517849195"><ele>470.8333333333333</ele><time>2026-04-25T08:12:25Z</time></trkpt><trkpt lat="44.215612431851916" lon="11.590916813552122"><ele>474.66666666666663</ele><time>2026-04-25T08:12:26Z</time></trkpt><trkpt lat="44.21554362437516" lon="11.590851384457768"><ele>478.5</ele><time>2026-04-25T08:12:27Z</time></trkpt><trkpt lat="44.21547632215266" lon="11.590777613616476"><ele>482.33333333333337</ele><time>2026-04-25T08:12:28Z</time></trkpt><trkpt lat="44.215433817501896" lon="11.590679064173065"><ele>486.1666666666667</ele><time>2026-04-25T08:12:29Z</time></trkpt><trkpt lat="44.215414094789395" lon="11.590581425606018"><ele>490.0</ele><time>2026-04-25T08:12:30Z</time></trkpt><trkpt lat="44.215409088649395" lon="11.590478769719232"><ele>490.00000000000006</ele><time>2026-04-25T08:12:31Z</time></trkpt><trkpt lat="44.21542159318451" lon="11.590366835860323"><ele>490.0</ele><time>2026-04-25T08:12:32Z</time></trkpt><trkpt lat="44.21544469010129" lon="11.59025818758025"><ele>490.0</ele><time>2026-04-25T08:12:33Z</time></trkpt><trkpt lat="44.21548702303667" lon="11.590167655440737"><ele>490.0</ele><time>2026-04-25T08:12:34Z</time></trkpt><trkpt lat="44.21552782367624" lon="11.59009130987493"><ele>490.00000000000006</ele><time>2026-04-25T08:12:35Z</time></trkpt><trkpt lat="44.21550362475288" lon="11.589943477202644"><ele>490.0</ele><time>2026-04-25T08:12:37Z</time></trkpt><trkpt lat="44.21539972656075" lon="11.589941870636395"><ele>490.0</ele><time>2026-04-25T08:12:39Z</time></trkpt><trkpt lat="44.215325547497024" lon="11.59010652689872"><ele>490.0</ele><time>2026-04-25T08:12:41Z</time></trkpt><trkpt lat="44.21526864741981" lon="11.590237397554729"><ele>490.0</ele><time>2026-04-25T08:12:42Z</time></trkpt><trkpt lat="44.21523775330488" lon="11.590378656370648"><ele>490.0</ele><time>2026-04-25T08:12:43Z</time></trkpt><trkpt lat="44.215194538590865" lon="11.590491992848584"><ele>490.0</ele><time>2026-04-25T08:12:44Z</time></trkpt><trkpt lat="44.21511521358703" lon="11.590592759663924"><ele>490.0</ele><time>2026-04-25T08:12:46Z</time></trkpt><trkpt lat="44.21504933084429" lon="11.59051915560368"><ele>490.0</ele><time>2026-04-25T08:12:48Z</time></trkpt><trkpt lat="44.21505694885352" lon="11.590329150485514"><ele>490.0</ele><time>2026-04-25T08:12:50Z</time></trkpt><trkpt lat="44.215078402226084" lon="11.590187814718186"><ele>490.0</ele><time>2026-04-25T08:12:51Z</time></trkpt><trkpt lat="44.21510698807652" lon="11.590005072075268"><ele>491.6</ele><time>2026-04-25T08:12:52Z</time></trkpt><trkpt lat="44.21511836565526" lon="11.58982491214411"><ele>493.2</ele><time>2026-04-25T08:12:53Z</time></trkpt><trkpt lat="44.21513490140563" lon="11.589671582495265"><ele>494.79999999999995</ele><time>2026-04-25T08:12:54Z</time></trkpt><trkpt lat="44.21516301364236" lon="11.589568933559454"><ele>496.4</ele><time>2026-04-25T08:12:55Z</time></trkpt><trkpt lat="44.215231027163476" lon="11.589488575397498"><ele>498.0</ele><time>2026-04-25T08:12:56Z</time></trkpt><trkpt lat="44.21530722919108" lon="11.589345642750246"><ele>499.6666666666667</ele><time>2026-04-25T08:12:57Z</time></trkpt><trkpt lat="44.21534316282589" lon="11.58924876144972"><ele>501.33333333333337</ele><time>2026-04-25T08:12:58Z</time></trkpt><trkpt lat="44.215364766556725" lon="11.58914816554969"><ele>503.0</ele><time>2026-04-25T08:12:59Z</time></trkpt><trkpt lat="44.21536566539705" lon="11.589056816584806"><ele>504.6666666666667</ele><time>2026-04-25T08:13:00Z</time></trkpt><trkpt lat="44.215301565406925" lon="11.5889525946422"><ele>506.33333333333337</ele><time>2026-04-25T08:13:02Z</time></trkpt><trkpt lat="44.21518279532998" lon="11.58896444541284"><ele>508.0</ele><time>2026-04-25T08:13:04Z</time></trkpt><trkpt lat="44.215128075030684" lon="11.58903951048508"><ele>508.0</ele><time>2026-04-25T08:13:05Z</time></trkpt><trkpt lat="44.21506389381479" lon="11.589142529786843"><ele>507.99999999999994</ele><time>2026-04-25T08:13:06Z</time></trkpt><trkpt lat="44.21499206572843" lon="11.589247581596474"><ele>507.99999999999994</ele><time>2026-04-25T08:13:07Z</time></trkpt><trkpt lat="44.2149093945642" lon="11.589378732495657"><ele>508.0</ele><time>2026-04-25T08:13:08Z</time></trkpt><trkpt lat="44.21483269077182" lon="11.58950676578477"><ele>508.0</ele><time>2026-04-25T08:13:09Z</time></trkpt><trkpt lat="44.21479397391779" lon="11.589649548095466"><ele>510.2</ele><time>2026-04-25T08:13:10Z</time></trkpt><trkpt lat="44.21477532203241" lon="11.589766791054817"><ele>512.4</ele><time>2026-04-25T08:13:11Z</time></trkpt><trkpt lat="44.214725874576175" lon="11.589862267722545"><ele>514.5999999999999</ele><time>2026-04-25T08:13:13Z</time></trkpt><trkpt lat="44.21466443538191" lon="11.58981842334197"><ele>516.8</ele><time>2026-04-25T08:13:15Z</time></trkpt><trkpt lat="44.214692643446526" lon="11.589634146311111"><ele>519.0</ele><time>2026-04-25T08:13:17Z</time></trkpt><trkpt lat="44.21470661802952" lon="11.589519981129703"><ele>521.0</ele><time>2026-04-25T08:13:18Z</time></trkpt><trkpt lat="44.21469450497472" lon="11.589342552831981"><ele>523.0</ele><time>2026-04-25T08:13:19Z</time></trkpt><trkpt lat="44.21469844505815" lon="11.589218637111536"><ele>525.0</ele><time>2026-04-25T08:13:20Z</time></trkpt><trkpt lat="44.21468113325036" lon="11.58909813838264"><ele>527.0</ele><time>2026-04-25T08:13:22Z</time></trkpt><trkpt lat="44.21458657995206" lon="11.589120405088797"><ele>529.0</ele><time>2026-04-25T08:13:24Z</time></trkpt><trkpt lat="44.21454841326011" lon="11.589206733019092"><ele>529.0</ele><time>2026-04-25T08:13:25Z</time></trkpt><trkpt lat="44.214523462764085" lon="11.589328351717793"><ele>529.0</ele><time>2026-04-25T08:13:26Z</time></trkpt><trkpt lat="44.21446233578584" lon="11.589437295047297"><ele>529.0</ele><time>2026-04-25T08:13:27Z</time></trkpt><trkpt lat="44.214402774473" lon="11.589545271940422"><ele>529.0</ele><time>2026-04-25T08:13:28Z</time></trkpt><trkpt lat="44.21436042146026" lon="11.589656108846265"><ele>529.0</ele><time>2026-04-25T08:13:29Z</time></trkpt><trkpt lat="44.21429964152738" lon="11.589727542398352"><ele>530.3333333333334</ele><time>2026-04-25T08:13:30Z</time></trkpt><trkpt lat="44.21424771997518" lon="11.589799927786833"><ele>531.6666666666667</ele><time>2026-04-25T08:13:31Z</time></trkpt><trkpt lat="44.214195576832246" lon="11.589852303796778"><ele>533.0</ele><time>2026-04-25T08:13:32Z</time></trkpt><trkpt lat="44.21410732013993" lon="11.589855815523183"><ele>534.3333333333334</ele><time>2026-04-25T08:13:33Z</time></trkpt><trkpt lat="44.214016351523746" lon="11.589875117568099"><ele>535.6666666666666</ele><time>2026-04-25T08:13:34Z</time></trkpt><trkpt lat="44.21392774846239" lon="11.589922296475347"><ele>537.0</ele><time>2026-04-25T08:13:35Z</time></trkpt><trkpt lat="44.21386613748974" lon="11.589943199147282"><ele>537.0</ele><time>2026-04-25T08:13:36Z</time></trkpt><trkpt lat="44.2138047326514" lon="11.589868119236941"><ele>537.0</ele><time>2026-04-25T08:13:38Z</time></trkpt><trkpt lat="44.21385529593421" lon="11.589736357340144"><ele>537.0</ele><time>2026-04-25T08:13:40Z</time></trkpt><trkpt lat="44.213927493272585" lon="11.589707904679297"><ele>537.0</ele><time>2026-04-25T08:13:41Z</time></trkpt><trkpt lat="44.213995470072646" lon="11.589618823075142"><ele>537.0</ele><time>2026-04-25T08:13:42Z</time></trkpt><trkpt lat="44.21404461355445" lon="11.589511794377005"><ele>537.0</ele><time>2026-04-25T08:13:43Z</time></trkpt><trkpt lat="44.21406225870873" lon="11.58937934027224"><ele>535.4</ele><time>2026-04-25T08:13:44Z</time></trkpt><trkpt lat="44.21406140063081" lon="11.589255291222624"><ele>533.8000000000001</ele><time>2026-04-25T08:13:45Z</time></trkpt><trkpt lat="44.21407426543347" lon="11.589103765355482"><ele>532.2</ele><time>2026-04-25T08:13:46Z</time></trkpt><trkpt lat="44.2140798163651" lon="11.588966765164257"><ele>530.6</ele><time>2026-04-25T08:13:47Z</time></trkpt><trkpt lat="44.21406835357927" lon="11.588838124083894"><ele>529.0</ele><time>2026-04-25T08:13:48Z</time></trkpt><trkpt lat="44.21402467619637" lon="11.58872071983483"><ele>530.8</ele><time>2026-04-25T08:13:49Z</time></trkpt><trkpt lat="44.21397681012685" lon="11.588596169671746"><ele>532.5999999999999</ele><time>2026-04-25T08:13:50Z</time></trkpt><trkpt lat="44.21395017006312" lon="11.58846203494876"><ele>534.4</ele><time>2026-04-25T08:13:51Z</time></trkpt><trkpt lat="44.21399894555557" lon="11.58835624549566"><ele>536.1999999999999</ele><time>2026-04-25T08:13:52Z</time></trkpt><trkpt lat="44.21402679839605" lon="11.588239090057172"><ele>538.0</ele><time>2026-04-25T08:13:53Z</time></trkpt><trkpt lat="44.214062215344256" lon="11.588119693970391"><ele>538.0</ele><time>2026-04-25T08:13:54Z</time></trkpt><trkpt lat="44.214110590286985" lon="11.588032367213879"><ele>538.0</ele><time>2026-04-25T08:13:55Z</time></trkpt><trkpt lat="44.21414902206193" lon="11.58795680250151"><ele>538.0</ele><time>2026-04-25T08:13:56Z</time></trkpt><trkpt lat="44.2141817327184" lon="11.587853055723526"><ele>538.0</ele><time>2026-04-25T08:13:57Z</time></trkpt><trkpt lat="44.21421213363512" lon="11.587740097167233"><ele>538.0</ele><time>2026-04-25T08:13:58Z</time></trkpt><trkpt lat="44.21420613797441" lon="11.587621591696669"><ele>538.0</ele><time>2026-04-25T08:13:59Z</time></trkpt><trkpt lat="44.21421381264755" lon="11.587480966398141"><ele>540.6</ele><time>2026-04-25T08:14:00Z</time></trkpt><trkpt lat="44.21423356225666" lon="11.587354587414186"><ele>543.1999999999999</ele><time>2026-04-25T08:14:01.001Z</time></trkpt><trkpt lat="44.21425527477577" lon="11.587211718100532"><ele>545.8</ele><time>2026-04-25T08:14:02.001Z</time></trkpt><trkpt lat="44.21427729051832" lon="11.5870666539046"><ele>548.4</ele><time>2026-04-25T08:14:03.001Z</time></trkpt><trkpt lat="44.21429556223567" lon="11.58691744547594"><ele>551.0</ele><time>2026-04-25T08:14:04.001Z</time></trkpt><trkpt lat="44.2143142667936" lon="11.586754258696516"><ele>552.2</ele><time>2026-04-25T08:14:05.001Z</time></trkpt><trkpt lat="44.21433083567592" lon="11.586602706623564"><ele>553.4000000000001</ele><time>2026-04-25T08:14:06.001Z</time></trkpt><trkpt lat="44.214344077950706" lon="11.586433574093276"><ele>554.6</ele><time>2026-04-25T08:14:07.001Z</time></trkpt><trkpt lat="44.21437551476979" lon="11.586295629551023"><ele>555.8000000000001</ele><time>2026-04-25T08:14:08.001Z</time></trkpt><trkpt lat="44.2143737035733" lon="11.586190279021585"><ele>557.0</ele><time>2026-04-25T08:14:09.001Z</time></trkpt><trkpt lat="44.21438309987096" lon="11.586100928538311"><ele>557.0</ele><time>2026-04-25T08:14:10.001Z</time></trkpt><trkpt lat="44.214338410449585" lon="11.585969464770326"><ele>557.0</ele><time>2026-04-25T08:14:12.001Z</time></trkpt><trkpt lat="44.21421614601362" lon="11.586028849702252"><ele>557.0</ele><time>2026-04-25T08:14:14.001Z</time></trkpt><trkpt lat="44.214183750346024" lon="11.586121058972639"><ele>557.0</ele><time>2026-04-25T08:14:15.001Z</time></trkpt><trkpt lat="44.21415129964234" lon="11.586253905230771"><ele>557.0</ele><time>2026-04-25T08:14:16.001Z</time></trkpt><trkpt lat="44.21411352677933" lon="11.586382833201085"><ele>557.0</ele><time>2026-04-25T08:14:17.001Z</time></trkpt><trkpt lat="44.21406648751662" lon="11.586511357246122"><ele>557.0</ele><time>2026-04-25T08:14:18.001Z</time></trkpt><trkpt lat="44.214026846835516" lon="11.586613138721972"><ele>557.0</ele><time>2026-04-25T08:14:19.001Z</time></trkpt><trkpt lat="44.21397576076873" lon="11.586723760781744"><ele>557.0</ele><time>2026-04-25T08:14:21Z</time></trkpt><trkpt lat="44.21390501640329" lon="11.586668082866384"><ele>557.0</ele><time>2026-04-25T08:14:23Z</time></trkpt><trkpt lat="44.213930624298605" lon="11.586471303191768"><ele>557.0</ele><time>2026-04-25T08:14:25Z</time></trkpt><trkpt lat="44.213990574261715" lon="11.586342190300524"><ele>557.0</ele><time>2026-04-25T08:14:26Z</time></trkpt><trkpt lat="44.21398404157053" lon="11.586197806251482"><ele>557.0</ele><time>2026-04-25T08:14:27Z</time></trkpt><trkpt lat="44.21399386062359" lon="11.586012242006342"><ele>557.0</ele><time>2026-04-25T08:14:28Z</time></trkpt><trkpt lat="44.21402347724123" lon="11.585821778864442"><ele>559.0</ele><time>2026-04-25T08:14:29Z</time></trkpt><trkpt lat="44.214030351605885" lon="11.58567487262151"><ele>561.0</ele><time>2026-04-25T08:14:30Z</time></trkpt><trkpt lat="44.21404457654776" lon="11.585530088056657"><ele>563.0</ele><time>2026-04-25T08:14:31Z</time></trkpt><trkpt lat="44.21406281124068" lon="11.585407002995327"><ele>565.0</ele><time>2026-04-25T08:14:32Z</time></trkpt><trkpt lat="44.21405716072525" lon="11.58530456374799"><ele>567.0</ele><time>2026-04-25T08:14:33Z</time></trkpt><trkpt lat="44.21404019723125" lon="11.585204328390084"><ele>569.0</ele><time>2026-04-25T08:14:34Z</time></trkpt><trkpt lat="44.214009700760364" lon="11.585105162225052"><ele>571.8</ele><time>2026-04-25T08:14:35Z</time></trkpt><trkpt lat="44.213992657089385" lon="11.58498963785651"><ele>574.5999999999999</ele><time>2026-04-25T08:14:36Z</time></trkpt><trkpt lat="44.214000046048625" lon="11.584864723647007"><ele>577.4</ele><time>2026-04-25T08:14:37Z</time></trkpt><trkpt lat="44.21403429149986" lon="11.584715072544398"><ele>580.1999999999999</ele><time>2026-04-25T08:14:38Z</time></trkpt><trkpt lat="44.214078204006256" lon="11.584574983492212"><ele>583.0</ele><time>2026-04-25T08:14:39Z</time></trkpt><trkpt lat="44.214121774346104" lon="11.584450303711298"><ele>585.3333333333334</ele><time>2026-04-25T08:14:40Z</time></trkpt><trkpt lat="44.21417884627368" lon="11.584337949447706"><ele>587.6666666666667</ele><time>2026-04-25T08:14:41Z</time></trkpt><trkpt lat="44.21422919787897" lon="11.584262278352515"><ele>590.0</ele><time>2026-04-25T08:14:42Z</time></trkpt><trkpt lat="44.21430179437838" lon="11.584182846984364"><ele>592.3333333333334</ele><time>2026-04-25T08:14:43Z</time></trkpt><trkpt lat="44.214363985655545" lon="11.584095399198512"><ele>594.6666666666666</ele><time>2026-04-25T08:14:44Z</time></trkpt><trkpt lat="44.214401216594005" lon="11.584022537020921"><ele>597.0</ele><time>2026-04-25T08:14:45Z</time></trkpt><trkpt lat="44.2143954605549" lon="11.583879145258773"><ele>597.0</ele><time>2026-04-25T08:14:46Z</time></trkpt><trkpt lat="44.214431598136" lon="11.583728026562108"><ele>597.0</ele><time>2026-04-25T08:14:47Z</time></trkpt><trkpt lat="44.214448636163695" lon="11.583575700968574"><ele>597.0</ele><time>2026-04-25T08:14:48Z</time></trkpt><trkpt lat="44.21446519015078" lon="11.583408517643484"><ele>597.0</ele><time>2026-04-25T08:14:49Z</time></trkpt><trkpt lat="44.21447959409706" lon="11.583262341031716"><ele>598.6</ele><time>2026-04-25T08:14:50Z</time></trkpt><trkpt lat="44.21449597960154" lon="11.583128375310201"><ele>600.2</ele><time>2026-04-25T08:14:51Z</time></trkpt><trkpt lat="44.21451373632527" lon="11.583010244569607"><ele>601.8</ele><time>2026-04-25T08:14:52Z</time></trkpt><trkpt lat="44.214547981983394" lon="11.582820160255514"><ele>603.4</ele><time>2026-04-25T08:14:54Z</time></trkpt><trkpt lat="44.21457430717013" lon="11.582707808714426"><ele>605.0</ele><time>2026-04-25T08:14:55Z</time></trkpt><trkpt lat="44.21460712135114" lon="11.582589766420226"><ele>605.1666666666666</ele><time>2026-04-25T08:14:56Z</time></trkpt><trkpt lat="44.21463890771642" lon="11.582501444084405"><ele>605.3333333333333</ele><time>2026-04-25T08:14:57Z</time></trkpt><trkpt lat="44.21468546955533" lon="11.582422602478196"><ele>605.5</ele><time>2026-04-25T08:14:58Z</time></trkpt><trkpt lat="44.21473284339995" lon="11.582330281239464"><ele>605.6666666666666</ele><time>2026-04-25T08:14:59Z</time></trkpt><trkpt lat="44.21477403850065" lon="11.582241765941948"><ele>605.8333333333334</ele><time>2026-04-25T08:15:00Z</time></trkpt><trkpt lat="44.21481824151816" lon="11.582148117413809"><ele>606.0</ele><time>2026-04-25T08:15:01Z</time></trkpt><trkpt lat="44.21487405527576" lon="11.58205971043998"><ele>606.6666666666666</ele><time>2026-04-25T08:15:02Z</time></trkpt><trkpt lat="44.21490915682431" lon="11.581952741971058"><ele>607.3333333333334</ele><time>2026-04-25T08:15:03Z</time></trkpt><trkpt lat="44.21495156255785" lon="11.581849860699382"><ele>608.0</ele><time>2026-04-25T08:15:04Z</time></trkpt><trkpt lat="44.215001483689086" lon="11.581779648078648"><ele>608.6666666666667</ele><time>2026-04-25T08:15:05Z</time></trkpt><trkpt lat="44.21505834533724" lon="11.581659036117848"><ele>609.3333333333334</ele><time>2026-04-25T08:15:07Z</time></trkpt><trkpt lat="44.21509804520158" lon="11.581522787846374"><ele>610.0</ele><time>2026-04-25T08:15:09Z</time></trkpt><trkpt lat="44.21510825815103" lon="11.581418345971802"><ele>610.0</ele><time>2026-04-25T08:15:10Z</time></trkpt><trkpt lat="44.215130076051864" lon="11.581277685932012"><ele>610.0</ele><time>2026-04-25T08:15:12Z</time></trkpt><trkpt lat="44.21512502772651" lon="11.581153576046555"><ele>610.0</ele><time>2026-04-25T08:15:15Z</time></trkpt><trkpt lat="44.21519219110428" lon="11.58103564823841"><ele>610.0</ele><time>2026-04-25T08:15:17Z</time></trkpt><trkpt lat="44.21521877897011" lon="11.580951730068834"><ele>610.0</ele><time>2026-04-25T08:15:18Z</time></trkpt><trkpt lat="44.21526736611498" lon="11.580887457649833"><ele>610.0</ele><time>2026-04-25T08:15:19Z</time></trkpt><trkpt lat="44.2153224887527" lon="11.580823803784657"><ele>609.5</ele><time>2026-04-25T08:15:20Z</time></trkpt><trkpt lat="44.2153715209023" lon="11.580741771145272"><ele>609.0</ele><time>2026-04-25T08:15:21Z</time></trkpt><trkpt lat="44.21542052058231" lon="11.580657413085977"><ele>608.5</ele><time>2026-04-25T08:15:22Z</time></trkpt><trkpt lat="44.215415964067624" lon="11.58056918370918"><ele>608.0</ele><time>2026-04-25T08:15:23Z</time></trkpt><trkpt lat="44.215342214604" lon="11.580489465814814"><ele>607.5</ele><time>2026-04-25T08:15:24Z</time></trkpt><trkpt lat="44.215260641188095" lon="11.58045942502652"><ele>607.0</ele><time>2026-04-25T08:15:25Z</time></trkpt><trkpt lat="44.21516660582183" lon="11.580390294471869"><ele>609.5</ele><time>2026-04-25T08:15:26Z</time></trkpt><trkpt lat="44.21507159466884" lon="11.580339409460192"><ele>612.0</ele><time>2026-04-25T08:15:27Z</time></trkpt><trkpt lat="44.215003496019584" lon="11.580290992481254"><ele>614.5</ele><time>2026-04-25T08:15:28Z</time></trkpt><trkpt lat="44.214917260186205" lon="11.580258599386816"><ele>617.0</ele><time>2026-04-25T08:15:29Z</time></trkpt><trkpt lat="44.21488415359213" lon="11.580157311194894"><ele>619.5</ele><time>2026-04-25T08:15:30Z</time></trkpt><trkpt lat="44.21484278219684" lon="11.580069620920602"><ele>622.0</ele><time>2026-04-25T08:15:31Z</time></trkpt><trkpt lat="44.21480802203318" lon="11.57996188128165"><ele>622.0</ele><time>2026-04-25T08:15:32Z</time></trkpt><trkpt lat="44.214773526445654" lon="11.579860556634976"><ele>622.0</ele><time>2026-04-25T08:15:33Z</time></trkpt><trkpt lat="44.214751645685425" lon="11.579759446524951"><ele>622.0</ele><time>2026-04-25T08:15:34Z</time></trkpt><trkpt lat="44.214759633732506" lon="11.579659021444069"><ele>622.0</ele><time>2026-04-25T08:15:35Z</time></trkpt><trkpt lat="44.214830341382275" lon="11.579595478269406"><ele>622.0</ele><time>2026-04-25T08:15:36Z</time></trkpt><trkpt lat="44.214884614827774" lon="11.579492218339665"><ele>622.0</ele><time>2026-04-25T08:15:37Z</time></trkpt><trkpt lat="44.21493855301258" lon="11.579383598887972"><ele>624.4</ele><time>2026-04-25T08:15:38Z</time></trkpt><trkpt lat="44.21496951363564" lon="11.579282599374782"><ele>626.8000000000001</ele><time>2026-04-25T08:15:39Z</time></trkpt><trkpt lat="44.214956921063894" lon="11.57913935149007"><ele>629.2</ele><time>2026-04-25T08:15:41Z</time></trkpt><trkpt lat="44.21491761717934" lon="11.579011547110492"><ele>631.6</ele><time>2026-04-25T08:15:42Z</time></trkpt><trkpt lat="44.21486794579434" lon="11.57890784487325"><ele>634.0</ele><time>2026-04-25T08:15:43Z</time></trkpt><trkpt lat="44.21490006999363" lon="11.578787995131604"><ele>635.1666666666667</ele><time>2026-04-25T08:15:44Z</time></trkpt><trkpt lat="44.21495140677179" lon="11.5786824863665"><ele>636.3333333333334</ele><time>2026-04-25T08:15:45Z</time></trkpt><trkpt lat="44.21496279854074" lon="11.578545029872675"><ele>637.5</ele><time>2026-04-25T08:15:46Z</time></trkpt><trkpt lat="44.21497481961855" lon="11.578449785652234"><ele>638.6666666666666</ele><time>2026-04-25T08:15:47Z</time></trkpt><trkpt lat="44.214934556633324" lon="11.578361345459346"><ele>639.8333333333333</ele><time>2026-04-25T08:15:48Z</time></trkpt><trkpt lat="44.2148665171742" lon="11.578256945121058"><ele>641.0</ele><time>2026-04-25T08:15:49Z</time></trkpt><trkpt lat="44.214817154304534" lon="11.57815068671146"><ele>641.0</ele><time>2026-04-25T08:15:50Z</time></trkpt><trkpt lat="44.21480853077098" lon="11.578042296183437"><ele>641.0</ele><time>2026-04-25T08:15:51Z</time></trkpt><trkpt lat="44.2148774181499" lon="11.577941735299829"><ele>641.0</ele><time>2026-04-25T08:15:52Z</time></trkpt><trkpt lat="44.2148859896858" lon="11.577830895437451"><ele>641.0</ele><time>2026-04-25T08:15:53Z</time></trkpt><trkpt lat="44.214870492742385" lon="11.577689279267592"><ele>641.0</ele><time>2026-04-25T08:15:54Z</time></trkpt><trkpt lat="44.214849317598635" lon="11.57755105430349"><ele>639.0</ele><time>2026-04-25T08:15:55Z</time></trkpt><trkpt lat="44.21479945273883" lon="11.577410657261792"><ele>637.0</ele><time>2026-04-25T08:15:56Z</time></trkpt><trkpt lat="44.21474443515766" lon="11.577277601567117"><ele>635.0</ele><time>2026-04-25T08:15:57Z</time></trkpt><trkpt lat="44.21469095950627" lon="11.57715438418667"><ele>633.0</ele><time>2026-04-25T08:15:58Z</time></trkpt><trkpt lat="44.214657226714785" lon="11.577042477240004"><ele>631.0</ele><time>2026-04-25T08:15:59Z</time></trkpt><trkpt lat="44.214647727683584" lon="11.576913830528092"><ele>631.0</ele><time>2026-04-25T08:16:01Z</time></trkpt><trkpt lat="44.21455533034146" lon="11.576856658912329"><ele>631.0</ele><time>2026-04-25T08:16:03Z</time></trkpt></trkseg><trkseg><trkpt lat="44.21945956586379" lon="11.580125898051076"><ele>678.0</ele><time>2026-04-25T08:27:14Z</time></trkpt><trkpt lat="44.21953745898755" lon="11.580274768143468"><ele>678.0</ele><time>2026-04-25T08:27:15Z</time></trkpt><trkpt lat="44.21961268866426" lon="11.580410148093225"><ele>678.0</ele><time>2026-04-25T08:27:16Z</time></trkpt><trkpt lat="44.21969009977415" lon="11.58056458346148"><ele>678.0</ele><time>2026-04-25T08:27:17Z</time></trkpt><trkpt lat="44.21974765703991" lon="11.580722770303261"><ele>675.5</ele><time>2026-04-25T08:27:18Z</time></trkpt><trkpt lat="44.219810397820225" lon="11.580864577620773"><ele>673.0</ele><time>2026-04-25T08:27:19Z</time></trkpt><trkpt lat="44.21987887022726" lon="11.580986568650887"><ele>670.5</ele><time>2026-04-25T08:27:20Z</time></trkpt><trkpt lat="44.21995200922619" lon="11.581114718315565"><ele>668.0</ele><time>2026-04-25T08:27:21Z</time></trkpt><trkpt lat="44.22003789545784" lon="11.581207874221542"><ele>663.5</ele><time>2026-04-25T08:27:22Z</time></trkpt><trkpt lat="44.220140747333495" lon="11.581299239756097"><ele>659.0</ele><time>2026-04-25T08:27:23Z</time></trkpt><trkpt lat="44.220247357252056" lon="11.581376146517007"><ele>654.5</ele><time>2026-04-25T08:27:24Z</time></trkpt><trkpt lat="44.22034377020686" lon="11.581427006313415"><ele>650.0</ele><time>2026-04-25T08:27:25Z</time></trkpt><trkpt lat="44.22044102788061" lon="11.58148889713194"><ele>650.0</ele><time>2026-04-25T08:27:26Z</time></trkpt><trkpt lat="44.22050540518673" lon="11.581575071719303"><ele>650.0</ele><time>2026-04-25T08:27:27Z</time></trkpt><trkpt lat="44.22054412946059" lon="11.58168390840984"><ele>650.0</ele><time>2026-04-25T08:27:28Z</time></trkpt><trkpt lat="44.22058361623294" lon="11.581782065426458"><ele>650.0</ele><time>2026-04-25T08:27:29Z</time></trkpt><trkpt lat="44.22064600986579" lon="11.581850915116547"><ele>650.0</ele><time>2026-04-25T08:27:30Z</time></trkpt><trkpt lat="44.22072140809282" lon="11.581893322605035"><ele>650.0</ele><time>2026-04-25T08:27:31Z</time></trkpt><trkpt lat="44.22081204686094" lon="11.581919998478993"><ele>650.4</ele><time>2026-04-25T08:27:32Z</time></trkpt><trkpt lat="44.2209002585502" lon="11.581924721298302"><ele>650.8</ele><time>2026-04-25T08:27:33Z</time></trkpt><trkpt lat="44.22099307551917" lon="11.581944693980468"><ele>651.2</ele><time>2026-04-25T08:27:34Z</time></trkpt><trkpt lat="44.22107716122798" lon="11.581979391024893"><ele>651.6</ele><time>2026-04-25T08:27:35Z</time></trkpt><trkpt lat="44.22116307642352" lon="11.58203562527557"><ele>652.0</ele><time>2026-04-25T08:27:36Z</time></trkpt><trkpt lat="44.221245447103" lon="11.582110127517765"><ele>652.0</ele><time>2026-04-25T08:27:37Z</time></trkpt><trkpt lat="44.22132114832664" lon="11.582191672564813"><ele>652.0</ele><time>2026-04-25T08:27:38Z</time></trkpt><trkpt lat="44.221399152467704" lon="11.582287415613921"><ele>652.0</ele><time>2026-04-25T08:27:39Z</time></trkpt><trkpt lat="44.22147154017411" lon="11.582370617722278"><ele>652.0</ele><time>2026-04-25T08:27:40Z</time></trkpt><trkpt lat="44.22154491520441" lon="11.582433654697168"><ele>652.0</ele><time>2026-04-25T08:27:41Z</time></trkpt><trkpt lat="44.22162047234843" lon="11.582474485108307"><ele>652.1666666666667</ele><time>2026-04-25T08:27:42Z</time></trkpt><trkpt lat="44.221701024944714" lon="11.58253578837953"><ele>652.3333333333334</ele><time>2026-04-25T08:27:43Z</time></trkpt><trkpt lat="44.22177179394842" lon="11.582597333714704"><ele>652.5</ele><time>2026-04-25T08:27:44Z</time></trkpt><trkpt lat="44.221843046666784" lon="11.582656620525581"><ele>652.6666666666666</ele><time>2026-04-25T08:27:45Z</time></trkpt><trkpt lat="44.221916109593494" lon="11.582725970610753"><ele>652.8333333333333</ele><time>2026-04-25T08:27:46Z</time></trkpt><trkpt lat="44.22198117380458" lon="11.582803661253276"><ele>653.0</ele><time>2026-04-25T08:27:47Z</time></trkpt><trkpt lat="44.22204669878549" lon="11.582893306898061"><ele>653.0</ele><time>2026-04-25T08:27:48Z</time></trkpt><trkpt lat="44.22211262891792" lon="11.582987003733967"><ele>653.0</ele><time>2026-04-25T08:27:49Z</time></trkpt><trkpt lat="44.222185995872664" lon="11.58309126536302"><ele>653.0</ele><time>2026-04-25T08:27:50Z</time></trkpt><trkpt lat="44.22228955903182" lon="11.583202401249075"><ele>653.0</ele><time>2026-04-25T08:27:51Z</time></trkpt><trkpt lat="44.222401264236034" lon="11.583321039495386"><ele>651.5</ele><time>2026-04-25T08:27:52Z</time></trkpt><trkpt lat="44.2225156723077" lon="11.583445289341402"><ele>650.0</ele><time>2026-04-25T08:27:53Z</time></trkpt><trkpt lat="44.22263168605958" lon="11.58357250980066"><ele>648.5</ele><time>2026-04-25T08:27:54Z</time></trkpt><trkpt lat="44.22275109846691" lon="11.583700499349288"><ele>647.0</ele><time>2026-04-25T08:27:55Z</time></trkpt><trkpt lat="44.2228681400869" lon="11.583809888544545"><ele>647.0</ele><time>2026-04-25T08:27:56Z</time></trkpt><trkpt lat="44.22300016922531" lon="11.583890491037"><ele>647.0</ele><time>2026-04-25T08:27:57Z</time></trkpt><trkpt lat="44.22314754098145" lon="11.583946432011825"><ele>647.0</ele><time>2026-04-25T08:27:58Z</time></trkpt><trkpt lat="44.22329819957151" lon="11.58400099994859"><ele>648.25</ele><time>2026-04-25T08:27:59Z</time></trkpt><trkpt lat="44.22343806245932" lon="11.584049039763956"><ele>649.5</ele><time>2026-04-25T08:28:00Z</time></trkpt><trkpt lat="44.22355757210662" lon="11.584099002828935"><ele>650.75</ele><time>2026-04-25T08:28:01Z</time></trkpt><trkpt lat="44.223676394150814" lon="11.584127271730898"><ele>652.0</ele><time>2026-04-25T08:28:02Z</time></trkpt><trkpt lat="44.22380531431703" lon="11.58413407490889"><ele>652.0</ele><time>2026-04-25T08:28:03Z</time></trkpt><trkpt lat="44.22393339936008" lon="11.584164727756947"><ele>652.0</ele><time>2026-04-25T08:28:04Z</time></trkpt><trkpt lat="44.22407773795657" lon="11.584182689748177"><ele>652.0</ele><time>2026-04-25T08:28:05Z</time></trkpt><trkpt lat="44.22421968847565" lon="11.5842191722094"><ele>652.0</ele><time>2026-04-25T08:28:06Z</time></trkpt><trkpt lat="44.22436104323757" lon="11.58425289178638"><ele>649.75</ele><time>2026-04-25T08:28:07Z</time></trkpt><trkpt lat="44.22448961128755" lon="11.584294051940168"><ele>647.5</ele><time>2026-04-25T08:28:08Z</time></trkpt><trkpt lat="44.22457705339586" lon="11.584382060377935"><ele>645.25</ele><time>2026-04-25T08:28:09Z</time></trkpt><trkpt lat="44.224664017125896" lon="11.58447562225423"><ele>643.0</ele><time>2026-04-25T08:28:10Z</time></trkpt><trkpt lat="44.22475773678804" lon="11.584565733029056"><ele>639.75</ele><time>2026-04-25T08:28:11Z</time></trkpt><trkpt lat="44.224860556920866" lon="11.584657137432469"><ele>636.5</ele><time>2026-04-25T08:28:12Z</time></trkpt><trkpt lat="44.224953796288965" lon="11.584742535115064"><ele>633.25</ele><time>2026-04-25T08:28:13Z</time></trkpt><trkpt lat="44.225072815269975" lon="11.584820589093473"><ele>630.0</ele><time>2026-04-25T08:28:14Z</time></trkpt><trkpt lat="44.225201683563604" lon="11.584906545937613"><ele>630.0</ele><time>2026-04-25T08:28:15Z</time></trkpt><trkpt lat="44.225329992532224" lon="11.584990466435949"><ele>630.0</ele><time>2026-04-25T08:28:16Z</time></trkpt><trkpt lat="44.225444029527594" lon="11.585084133588754"><ele>630.0</ele><time>2026-04-25T08:28:17Z</time></trkpt><trkpt lat="44.22555611733907" lon="11.585164121051585"><ele>630.0</ele><time>2026-04-25T08:28:18Z</time></trkpt><trkpt lat="44.22567395647473" lon="11.585239006624956"><ele>627.5</ele><time>2026-04-25T08:28:19Z</time></trkpt><trkpt lat="44.225791235791206" lon="11.585301518241499"><ele>625.0</ele><time>2026-04-25T08:28:20Z</time></trkpt><trkpt lat="44.22591601157703" lon="11.585352622961313"><ele>622.5</ele><time>2026-04-25T08:28:21Z</time></trkpt><trkpt lat="44.22603981790008" lon="11.585402886354924"><ele>620.0</ele><time>2026-04-25T08:28:22Z</time></trkpt><trkpt lat="44.226154002620696" lon="11.585469043956639"><ele>616.8</ele><time>2026-04-25T08:28:23Z</time></trkpt><trkpt lat="44.22625834776441" lon="11.585504684301402"><ele>613.6</ele><time>2026-04-25T08:28:24Z</time></trkpt><trkpt lat="44.22634819917355" lon="11.58555791570003"><ele>610.4</ele><time>2026-04-25T08:28:25Z</time></trkpt><trkpt lat="44.22643526718153" lon="11.58564808486241"><ele>607.2</ele><time>2026-04-25T08:28:26Z</time></trkpt><trkpt lat="44.226523029045886" lon="11.585773347344531"><ele>604.0</ele><time>2026-04-25T08:28:27Z</time></trkpt><trkpt lat="44.226602890515906" lon="11.585910664360927"><ele>603.8</ele><time>2026-04-25T08:28:28Z</time></trkpt><trkpt lat="44.22668337406324" lon="11.586045006467547"><ele>603.5999999999999</ele><time>2026-04-25T08:28:29Z</time></trkpt><trkpt lat="44.22675422532627" lon="11.586165106440895"><ele>603.4</ele><time>2026-04-25T08:28:30Z</time></trkpt><trkpt lat="44.22681792787497" lon="11.586277811134087"><ele>603.1999999999999</ele><time>2026-04-25T08:28:31Z</time></trkpt><trkpt lat="44.226884320089916" lon="11.58635296619389"><ele>603.0</ele><time>2026-04-25T08:28:32Z</time></trkpt><trkpt lat="44.22696350703908" lon="11.58639268254589"><ele>599.4</ele><time>2026-04-25T08:28:33Z</time></trkpt><trkpt lat="44.22704119185145" lon="11.586426158286816"><ele>595.8</ele><time>2026-04-25T08:28:34Z</time></trkpt><trkpt lat="44.22711646803509" lon="11.586484193613028"><ele>592.2</ele><time>2026-04-25T08:28:35Z</time></trkpt><trkpt lat="44.22718439752959" lon="11.586597525996376"><ele>588.6</ele><time>2026-04-25T08:28:36Z</time></trkpt><trkpt lat="44.227235611494386" lon="11.586747127552774"><ele>585.0</ele><time>2026-04-25T08:28:37Z</time></trkpt><trkpt lat="44.22728195386809" lon="11.586907445720108"><ele>586.0</ele><time>2026-04-25T08:28:38Z</time></trkpt><trkpt lat="44.227338826812435" lon="11.587046688913217"><ele>587.0</ele><time>2026-04-25T08:28:39Z</time></trkpt><trkpt lat="44.227395142650344" lon="11.587181486406424"><ele>588.0</ele><time>2026-04-25T08:28:40Z</time></trkpt><trkpt lat="44.22745928747856" lon="11.587295169835711"><ele>589.0</ele><time>2026-04-25T08:28:41Z</time></trkpt><trkpt lat="44.22754467350469" lon="11.587379553137776"><ele>590.0</ele><time>2026-04-25T08:28:42Z</time></trkpt><trkpt lat="44.227645822562444" lon="11.587441807151823"><ele>590.0</ele><time>2026-04-25T08:28:43Z</time></trkpt><trkpt lat="44.22775675202506" lon="11.587509801866762"><ele>590.0</ele><time>2026-04-25T08:28:44Z</time></trkpt><trkpt lat="44.227873509898096" lon="11.587567142717845"><ele>590.0</ele><time>2026-04-25T08:28:45Z</time></trkpt><trkpt lat="44.22798629304043" lon="11.587646190575015"><ele>590.0</ele><time>2026-04-25T08:28:46Z</time></trkpt><trkpt lat="44.228079098870026" lon="11.587760781097515"><ele>588.75</ele><time>2026-04-25T08:28:47Z</time></trkpt><trkpt lat="44.22816613873256" lon="11.587880899237225"><ele>587.5</ele><time>2026-04-25T08:28:48Z</time></trkpt><trkpt lat="44.228264754116516" lon="11.58798170178493"><ele>586.25</ele><time>2026-04-25T08:28:49Z</time></trkpt><trkpt lat="44.228368867962445" lon="11.588061026821588"><ele>585.0</ele><time>2026-04-25T08:28:50Z</time></trkpt><trkpt lat="44.22848005109052" lon="11.588141276597892"><ele>585.0</ele><time>2026-04-25T08:28:51Z</time></trkpt><trkpt lat="44.228592336775115" lon="11.588205671959797"><ele>585.0</ele><time>2026-04-25T08:28:52Z</time></trkpt><trkpt lat="44.22870717186182" lon="11.5882385163216"><ele>585.0</ele><time>2026-04-25T08:28:53Z</time></trkpt><trkpt lat="44.228826710798835" lon="11.588234155494982"><ele>585.0</ele><time>2026-04-25T08:28:54Z</time></trkpt><trkpt lat="44.22893858738501" lon="11.588214807692026"><ele>584.6</ele><time>2026-04-25T08:28:55Z</time></trkpt><trkpt lat="44.22905082997471" lon="11.58820752299415"><ele>584.2</ele><time>2026-04-25T08:28:56Z</time></trkpt><trkpt lat="44.22914615752989" lon="11.588196183831691"><ele>583.8</ele><time>2026-04-25T08:28:57Z</time></trkpt><trkpt lat="44.22922841209545" lon="11.588144208875299"><ele>583.4</ele><time>2026-04-25T08:28:58Z</time></trkpt><trkpt lat="44.229276795644715" lon="11.588047088013472"><ele>583.0</ele><time>2026-04-25T08:28:59Z</time></trkpt><trkpt lat="44.22929611820022" lon="11.587922318571822"><ele>581.8</ele><time>2026-04-25T08:29:00Z</time></trkpt><trkpt lat="44.22935571708328" lon="11.58783146222022"><ele>580.5999999999999</ele><time>2026-04-25T08:29:01Z</time></trkpt><trkpt lat="44.22939666872931" lon="11.587758703095172"><ele>579.4000000000001</ele><time>2026-04-25T08:29:02Z</time></trkpt><trkpt lat="44.22953233135912" lon="11.587677955591486"><ele>578.2</ele><time>2026-04-25T08:29:03.999Z</time></trkpt><trkpt lat="44.22962926269966" lon="11.587622146608979"><ele>577.0</ele><time>2026-04-25T08:29:04.999Z</time></trkpt><trkpt lat="44.22972652403586" lon="11.58757023557709"><ele>580.2</ele><time>2026-04-25T08:29:05.999Z</time></trkpt><trkpt lat="44.229822611580886" lon="11.58752750893566"><ele>583.4000000000001</ele><time>2026-04-25T08:29:06.999Z</time></trkpt><trkpt lat="44.229916277600765" lon="11.587522394759537"><ele>586.5999999999999</ele><time>2026-04-25T08:29:07.999Z</time></trkpt><trkpt lat="44.230019640734966" lon="11.587557199299074"><ele>589.8</ele><time>2026-04-25T08:29:08.999Z</time></trkpt><trkpt lat="44.23015319482693" lon="11.587576224728386"><ele>593.0</ele><time>2026-04-25T08:29:09.999Z</time></trkpt><trkpt lat="44.23030111587373" lon="11.587588411483297"><ele>593.0</ele><time>2026-04-25T08:29:10.999Z</time></trkpt><trkpt lat="44.23046467005225" lon="11.587546684430148"><ele>593.0</ele><time>2026-04-25T08:29:11.999Z</time></trkpt><trkpt lat="44.23060192801822" lon="11.58751830803092"><ele>593.0</ele><time>2026-04-25T08:29:12.999Z</time></trkpt><trkpt lat="44.23070228202443" lon="11.5875021036947"><ele>593.0</ele><time>2026-04-25T08:29:13.999Z</time></trkpt><trkpt lat="44.23080494704108" lon="11.5875334685117"><ele>593.25</ele><time>2026-04-25T08:29:15.999Z</time></trkpt><trkpt lat="44.23084272984781" lon="11.587667288143084"><ele>593.5</ele><time>2026-04-25T08:29:17.999Z</time></trkpt><trkpt lat="44.23081784791531" lon="11.587807542720718"><ele>593.75</ele><time>2026-04-25T08:29:18.999Z</time></trkpt><trkpt lat="44.23078381663195" lon="11.587990341782964"><ele>594.0</ele><time>2026-04-25T08:29:19.999Z</time></trkpt><trkpt lat="44.23073886881371" lon="11.588219279288726"><ele>594.0</ele><time>2026-04-25T08:29:20.999Z</time></trkpt><trkpt lat="44.230698800915576" lon="11.588422489035455"><ele>594.0</ele><time>2026-04-25T08:29:21.999Z</time></trkpt><trkpt lat="44.2306855550033" lon="11.588593499786935"><ele>594.0</ele><time>2026-04-25T08:29:23Z</time></trkpt><trkpt lat="44.230695598314675" lon="11.588756333405597"><ele>594.0</ele><time>2026-04-25T08:29:24Z</time></trkpt><trkpt lat="44.23074087240238" lon="11.588922706061272"><ele>594.0</ele><time>2026-04-25T08:29:25Z</time></trkpt><trkpt lat="44.23081191957694" lon="11.589060700003042"><ele>594.0</ele><time>2026-04-25T08:29:26Z</time></trkpt><trkpt lat="44.230877372826534" lon="11.58918544778159"><ele>594.0</ele><time>2026-04-25T08:29:27Z</time></trkpt><trkpt lat="44.23091205834882" lon="11.589318393147765"><ele>594.0</ele><time>2026-04-25T08:29:28Z</time></trkpt><trkpt lat="44.230953839704526" lon="11.58943693775388"><ele>594.0</ele><time>2026-04-25T08:29:29Z</time></trkpt><trkpt lat="44.23099827519349" lon="11.589553433554203"><ele>590.75</ele><time>2026-04-25T08:29:30Z</time></trkpt><trkpt lat="44.231049840884644" lon="11.58966106840334"><ele>587.5</ele><time>2026-04-25T08:29:31Z</time></trkpt><trkpt lat="44.23113293685672" lon="11.589781113603738"><ele>584.25</ele><time>2026-04-25T08:29:32Z</time></trkpt><trkpt lat="44.2312665636091" lon="11.589897438340898"><ele>581.0</ele><time>2026-04-25T08:29:33Z</time></trkpt><trkpt lat="44.231406418008255" lon="11.590060748422207"><ele>582.3333333333333</ele><time>2026-04-25T08:29:34Z</time></trkpt><trkpt lat="44.23155104677791" lon="11.590250906950548"><ele>583.6666666666666</ele><time>2026-04-25T08:29:35Z</time></trkpt><trkpt lat="44.23167723286693" lon="11.590442955947603"><ele>585.0</ele><time>2026-04-25T08:29:36Z</time></trkpt><trkpt lat="44.23177952870772" lon="11.590621722984682"><ele>585.0</ele><time>2026-04-25T08:29:37Z</time></trkpt><trkpt lat="44.23184885944804" lon="11.590789469465836"><ele>585.0</ele><time>2026-04-25T08:29:38Z</time></trkpt><trkpt lat="44.231892805706075" lon="11.590953599173046"><ele>585.0</ele><time>2026-04-25T08:29:39Z</time></trkpt><trkpt lat="44.231933978295615" lon="11.591137200684841"><ele>585.0</ele><time>2026-04-25T08:29:40Z</time></trkpt><trkpt lat="44.231991090315255" lon="11.591314681504405"><ele>582.8</ele><time>2026-04-25T08:29:41Z</time></trkpt><trkpt lat="44.23202623152379" lon="11.591469190943277"><ele>580.6</ele><time>2026-04-25T08:29:42Z</time></trkpt><trkpt lat="44.23204174574884" lon="11.591609746587151"><ele>578.4</ele><time>2026-04-25T08:29:43Z</time></trkpt><trkpt lat="44.23205418711366" lon="11.59176996207712"><ele>576.2</ele><time>2026-04-25T08:29:44Z</time></trkpt><trkpt lat="44.232107370855836" lon="11.591891752996787"><ele>574.0</ele><time>2026-04-25T08:29:45Z</time></trkpt><trkpt lat="44.2321442427181" lon="11.591969616141231"><ele>573.0</ele><time>2026-04-25T08:29:46Z</time></trkpt><trkpt lat="44.23223293278628" lon="11.59204980732498"><ele>572.0</ele><time>2026-04-25T08:29:48Z</time></trkpt><trkpt lat="44.2323094669864" lon="11.592005440268107"><ele>571.0</ele><time>2026-04-25T08:29:49Z</time></trkpt><trkpt lat="44.23239883103808" lon="11.591963035777932"><ele>570.0</ele><time>2026-04-25T08:29:50Z</time></trkpt><trkpt lat="44.2324931337379" lon="11.591945492988401"><ele>569.0</ele><time>2026-04-25T08:29:51Z</time></trkpt><trkpt lat="44.23258594891724" lon="11.591936552894275"><ele>571.75</ele><time>2026-04-25T08:29:52Z</time></trkpt><trkpt lat="44.23268726141943" lon="11.591941825969542"><ele>574.5</ele><time>2026-04-25T08:29:53Z</time></trkpt><trkpt lat="44.232808033459975" lon="11.59199176384743"><ele>577.25</ele><time>2026-04-25T08:29:54Z</time></trkpt><trkpt lat="44.232910050491476" lon="11.592031010082298"><ele>580.0</ele><time>2026-04-25T08:29:55Z</time></trkpt><trkpt lat="44.23301371675511" lon="11.592105792902553"><ele>580.0</ele><time>2026-04-25T08:29:56Z</time></trkpt><trkpt lat="44.23311596594662" lon="11.592180378892362"><ele>580.0</ele><time>2026-04-25T08:29:57Z</time></trkpt><trkpt lat="44.233203791201575" lon="11.592268567362886"><ele>580.0</ele><time>2026-04-25T08:29:58Z</time></trkpt><trkpt lat="44.23329331036222" lon="11.592372335365509"><ele>580.0</ele><time>2026-04-25T08:29:59Z</time></trkpt><trkpt lat="44.23340640419988" lon="11.592468226234146"><ele>578.5</ele><time>2026-04-25T08:30:00Z</time></trkpt><trkpt lat="44.233515742274854" lon="11.592547537961027"><ele>577.0</ele><time>2026-04-25T08:30:01Z</time></trkpt><trkpt lat="44.233630311775805" lon="11.592635263450365"><ele>575.5</ele><time>2026-04-25T08:30:02Z</time></trkpt><trkpt lat="44.233746489868835" lon="11.592700275664368"><ele>574.0</ele><time>2026-04-25T08:30:03Z</time></trkpt><trkpt lat="44.2338781876165" lon="11.592742687664428"><ele>572.6</ele><time>2026-04-25T08:30:04Z</time></trkpt><trkpt lat="44.23401302300683" lon="11.592774943407004"><ele>571.2</ele><time>2026-04-25T08:30:05Z</time></trkpt><trkpt lat="44.234122629767015" lon="11.592827385912331"><ele>569.8000000000001</ele><time>2026-04-25T08:30:06Z</time></trkpt><trkpt lat="44.23420395859615" lon="11.592857457335162"><ele>568.4</ele><time>2026-04-25T08:30:07Z</time></trkpt><trkpt lat="44.23428907661404" lon="11.592911715962435"><ele>567.0</ele><time>2026-04-25T08:30:08Z</time></trkpt><trkpt lat="44.23436182449232" lon="11.592970737368935"><ele>567.0</ele><time>2026-04-25T08:30:09Z</time></trkpt><trkpt lat="44.2344841238678" lon="11.592966411693162"><ele>567.0</ele><time>2026-04-25T08:30:11Z</time></trkpt><trkpt lat="44.23461314728025" lon="11.592861681384965"><ele>567.0</ele><time>2026-04-25T08:30:12Z</time></trkpt><trkpt lat="44.23471840768117" lon="11.592738658583718"><ele>567.0</ele><time>2026-04-25T08:30:13Z</time></trkpt><trkpt lat="44.234823537177206" lon="11.59257758813461"><ele>564.8000000000001</ele><time>2026-04-25T08:30:14Z</time></trkpt><trkpt lat="44.234909650079985" lon="11.592410316671854"><ele>562.6</ele><time>2026-04-25T08:30:15Z</time></trkpt><trkpt lat="44.23499268363662" lon="11.592289160564723"><ele>560.4000000000001</ele><time>2026-04-25T08:30:16Z</time></trkpt><trkpt lat="44.2350495301022" lon="11.592183297585262"><ele>558.2</ele><time>2026-04-25T08:30:17Z</time></trkpt><trkpt lat="44.235100831817626" lon="11.592092550805893"><ele>556.0</ele><time>2026-04-25T08:30:18Z</time></trkpt><trkpt lat="44.23518062508181" lon="11.592045149739016"><ele>556.0</ele><time>2026-04-25T08:30:20Z</time></trkpt><trkpt lat="44.2352455794961" lon="11.59218385471318"><ele>556.0</ele><time>2026-04-25T08:30:22Z</time></trkpt><trkpt lat="44.2352595293362" lon="11.592311312943906"><ele>556.0</ele><time>2026-04-25T08:30:23Z</time></trkpt><trkpt lat="44.23526246438713" lon="11.59248308171627"><ele>556.0</ele><time>2026-04-25T08:30:24Z</time></trkpt><trkpt lat="44.23525912427964" lon="11.592674522115065"><ele>555.3333333333334</ele><time>2026-04-25T08:30:25Z</time></trkpt><trkpt lat="44.23525492718577" lon="11.592877684649885"><ele>554.6666666666666</ele><time>2026-04-25T08:30:26Z</time></trkpt><trkpt lat="44.23524506756006" lon="11.593093059168687"><ele>554.0</ele><time>2026-04-25T08:30:27Z</time></trkpt><trkpt lat="44.235245792850726" lon="11.593310648364563"><ele>554.0</ele><time>2026-04-25T08:30:28Z</time></trkpt><trkpt lat="44.23521882868152" lon="11.593513386341488"><ele>554.0</ele><time>2026-04-25T08:30:29Z</time></trkpt><trkpt lat="44.23522274415747" lon="11.593710520165324"><ele>554.0</ele><time>2026-04-25T08:30:30Z</time></trkpt><trkpt lat="44.235228220174015" lon="11.593906194487387"><ele>554.0</ele><time>2026-04-25T08:30:31Z</time></trkpt><trkpt lat="44.235207316252435" lon="11.594088770981365"><ele>551.6</ele><time>2026-04-25T08:30:32Z</time></trkpt><trkpt lat="44.23519166954062" lon="11.594254283495834"><ele>549.2</ele><time>2026-04-25T08:30:33Z</time></trkpt><trkpt lat="44.235182163315656" lon="11.594365301606532"><ele>546.8000000000001</ele><time>2026-04-25T08:30:34Z</time></trkpt><trkpt lat="44.23512550217364" lon="11.594517545025553"><ele>544.4</ele><time>2026-04-25T08:30:36Z</time></trkpt><trkpt lat="44.23510952479634" lon="11.594603487366701"><ele>542.0</ele><time>2026-04-25T08:30:37Z</time></trkpt><trkpt lat="44.2350610201828" lon="11.594669219302045"><ele>542.0</ele><time>2026-04-25T08:30:39Z</time></trkpt><trkpt lat="44.23508330507245" lon="11.594756798619192"><ele>542.0</ele><time>2026-04-25T08:30:42Z</time></trkpt><trkpt lat="44.23509913181966" lon="11.594637407433567"><ele>542.0</ele><time>2026-04-25T08:31:23.999Z</time></trkpt><trkpt lat="44.23530119724775" lon="11.594460259999781"><ele>542.0</ele><time>2026-04-25T08:31:24.999Z</time></trkpt><trkpt lat="44.23538375749596" lon="11.594300417195482"><ele>542.0</ele><time>2026-04-25T08:31:25.999Z</time></trkpt><trkpt lat="44.2354756412971" lon="11.594130585926292"><ele>542.0</ele><time>2026-04-25T08:31:26.999Z</time></trkpt><trkpt lat="44.23556815580136" lon="11.594009352175016"><ele>542.0</ele><time>2026-04-25T08:31:27.999Z</time></trkpt><trkpt lat="44.23564755805032" lon="11.593883746467055"><ele>542.0</ele><time>2026-04-25T08:31:29Z</time></trkpt><trkpt lat="44.235724514231734" lon="11.593762010222973"><ele>540.0</ele><time>2026-04-25T08:31:30Z</time></trkpt><trkpt lat="44.235795868198686" lon="11.593649136060186"><ele>538.0</ele><time>2026-04-25T08:31:31Z</time></trkpt><trkpt lat="44.23586414038833" lon="11.593541136895169"><ele>536.0</ele><time>2026-04-25T08:31:32Z</time></trkpt><trkpt lat="44.23592676276375" lon="11.593442075126193"><ele>534.0</ele><time>2026-04-25T08:31:33Z</time></trkpt><trkpt lat="44.235986190034176" lon="11.593348224968182"><ele>532.0</ele><time>2026-04-25T08:31:34Z</time></trkpt><trkpt lat="44.23604810978247" lon="11.593250827917593"><ele>532.0</ele><time>2026-04-25T08:31:35Z</time></trkpt><trkpt lat="44.23610794510201" lon="11.59315670958965"><ele>532.0</ele><time>2026-04-25T08:31:36Z</time></trkpt><trkpt lat="44.236177949138686" lon="11.593046596354352"><ele>532.0</ele><time>2026-04-25T08:31:37Z</time></trkpt><trkpt lat="44.23624202588109" lon="11.592945806460751"><ele>532.0</ele><time>2026-04-25T08:31:38Z</time></trkpt><trkpt lat="44.23629721578023" lon="11.592834218812733"><ele>532.0</ele><time>2026-04-25T08:31:39Z</time></trkpt><trkpt lat="44.23636259164288" lon="11.592743613168354"><ele>533.75</ele><time>2026-04-25T08:31:40Z</time></trkpt><trkpt lat="44.236433151395126" lon="11.592637625649461"><ele>535.5</ele><time>2026-04-25T08:31:41Z</time></trkpt><trkpt lat="44.236497244893734" lon="11.592461422224767"><ele>537.25</ele><time>2026-04-25T08:31:42Z</time></trkpt><trkpt lat="44.23655153656457" lon="11.592211087867089"><ele>539.0</ele><time>2026-04-25T08:31:43Z</time></trkpt><trkpt lat="44.23659513438443" lon="11.591958081967444"><ele>533.3333333333333</ele><time>2026-04-25T08:31:44Z</time></trkpt><trkpt lat="44.2366439266539" lon="11.591734811543217"><ele>527.6666666666666</ele><time>2026-04-25T08:31:45Z</time></trkpt><trkpt lat="44.23673422373224" lon="11.591518523708023"><ele>522.0</ele><time>2026-04-25T08:31:46Z</time></trkpt><trkpt lat="44.23685424106589" lon="11.591298210340009"><ele>521.6666666666666</ele><time>2026-04-25T08:31:47Z</time></trkpt><trkpt lat="44.23697438278445" lon="11.591083507626813"><ele>521.3333333333333</ele><time>2026-04-25T08:31:48Z</time></trkpt><trkpt lat="44.23708401871653" lon="11.590872731424264"><ele>521.0</ele><time>2026-04-25T08:31:49Z</time></trkpt><trkpt lat="44.23718902962628" lon="11.590650166355104"><ele>521.0</ele><time>2026-04-25T08:31:50Z</time></trkpt><trkpt lat="44.23728527427307" lon="11.59042344523344"><ele>521.0</ele><time>2026-04-25T08:31:51Z</time></trkpt><trkpt lat="44.237381714203366" lon="11.590174652008674"><ele>521.0</ele><time>2026-04-25T08:31:52Z</time></trkpt><trkpt lat="44.23749568577431" lon="11.589877265621674"><ele>515.3333333333333</ele><time>2026-04-25T08:31:53Z</time></trkpt><trkpt lat="44.23760293138685" lon="11.589602317457786"><ele>509.66666666666663</ele><time>2026-04-25T08:31:54Z</time></trkpt><trkpt lat="44.23770591347804" lon="11.589356854775257"><ele>504.0</ele><time>2026-04-25T08:31:55Z</time></trkpt><trkpt lat="44.23779365161952" lon="11.5891525754567"><ele>501.0</ele><time>2026-04-25T08:31:56Z</time></trkpt><trkpt lat="44.237880008283646" lon="11.588959124112781"><ele>498.0</ele><time>2026-04-25T08:31:57Z</time></trkpt><trkpt lat="44.23800599288276" lon="11.588781299261479"><ele>495.0</ele><time>2026-04-25T08:31:58Z</time></trkpt><trkpt lat="44.23814960248513" lon="11.588659144824808"><ele>492.66666666666663</ele><time>2026-04-25T08:31:59Z</time></trkpt><trkpt lat="44.238306959124216" lon="11.588622788797311"><ele>490.3333333333333</ele><time>2026-04-25T08:32:00Z</time></trkpt><trkpt lat="44.238483384233945" lon="11.588620633657362"><ele>488.0</ele><time>2026-04-25T08:32:01Z</time></trkpt><trkpt lat="44.23870607791466" lon="11.588635154395366"><ele>488.0</ele><time>2026-04-25T08:32:02Z</time></trkpt><trkpt lat="44.23891785813115" lon="11.588635429104178"><ele>488.0</ele><time>2026-04-25T08:32:03Z</time></trkpt><trkpt lat="44.23910405851461" lon="11.588594310944398"><ele>488.0</ele><time>2026-04-25T08:32:04Z</time></trkpt><trkpt lat="44.239281560728436" lon="11.588505742709797"><ele>487.66666666666663</ele><time>2026-04-25T08:32:05Z</time></trkpt><trkpt lat="44.23946396420842" lon="11.588364656663424"><ele>487.33333333333337</ele><time>2026-04-25T08:32:06Z</time></trkpt><trkpt lat="44.23964532958636" lon="11.58819352761904"><ele>487.0</ele><time>2026-04-25T08:32:07Z</time></trkpt><trkpt lat="44.23980819465272" lon="11.588018981433041"><ele>487.6666666666667</ele><time>2026-04-25T08:32:08Z</time></trkpt><trkpt lat="44.23996492003965" lon="11.587863925451725"><ele>488.33333333333337</ele><time>2026-04-25T08:32:09Z</time></trkpt><trkpt lat="44.240112806876624" lon="11.587732023149359"><ele>489.0</ele><time>2026-04-25T08:32:10Z</time></trkpt><trkpt lat="44.24024968231935" lon="11.58760647994737"><ele>489.0</ele><time>2026-04-25T08:32:11Z</time></trkpt><trkpt lat="44.240387442347675" lon="11.58750039689589"><ele>489.0</ele><time>2026-04-25T08:32:12Z</time></trkpt><trkpt lat="44.24052048265347" lon="11.587401765658717"><ele>489.0</ele><time>2026-04-25T08:32:13Z</time></trkpt><trkpt lat="44.240609383380495" lon="11.587251714508206"><ele>489.0</ele><time>2026-04-25T08:32:14Z</time></trkpt><trkpt lat="44.24069617796472" lon="11.587111588477002"><ele>491.5</ele><time>2026-04-25T08:32:15Z</time></trkpt><trkpt lat="44.24075956732798" lon="11.586960386624597"><ele>494.0</ele><time>2026-04-25T08:32:16Z</time></trkpt><trkpt lat="44.24078354079773" lon="11.586783365493966"><ele>496.5</ele><time>2026-04-25T08:32:17Z</time></trkpt><trkpt lat="44.240782776477225" lon="11.58662305943431"><ele>499.0</ele><time>2026-04-25T08:32:18Z</time></trkpt><trkpt lat="44.24074175101709" lon="11.586444897199646"><ele>499.0</ele><time>2026-04-25T08:32:19Z</time></trkpt><trkpt lat="44.24069539706602" lon="11.586228954729572"><ele>499.0</ele><time>2026-04-25T08:32:20Z</time></trkpt><trkpt lat="44.24071706547325" lon="11.586060712273156"><ele>499.0</ele><time>2026-04-25T08:32:21Z</time></trkpt><trkpt lat="44.24076901592653" lon="11.585781654941472"><ele>499.33333333333337</ele><time>2026-04-25T08:32:22Z</time></trkpt><trkpt lat="44.24083458649435" lon="11.585566228787167"><ele>499.66666666666663</ele><time>2026-04-25T08:32:23Z</time></trkpt><trkpt lat="44.2409083809203" lon="11.585293920557763"><ele>500.0</ele><time>2026-04-25T08:32:24Z</time></trkpt><trkpt lat="44.24097335197309" lon="11.585019389986092"><ele>498.0</ele><time>2026-04-25T08:32:25Z</time></trkpt><trkpt lat="44.24103207627728" lon="11.584742138336457"><ele>496.0</ele><time>2026-04-25T08:32:26Z</time></trkpt><trkpt lat="44.24110458740574" lon="11.584478928457889"><ele>494.0</ele><time>2026-04-25T08:32:27Z</time></trkpt><trkpt lat="44.24117003639883" lon="11.584228288223988"><ele>494.0</ele><time>2026-04-25T08:32:28Z</time></trkpt><trkpt lat="44.2412438197606" lon="11.5839953412002"><ele>494.0</ele><time>2026-04-25T08:32:29Z</time></trkpt><trkpt lat="44.241300189735576" lon="11.583811974477435"><ele>494.0</ele><time>2026-04-25T08:32:30Z</time></trkpt><trkpt lat="44.241384736083646" lon="11.583699805573383"><ele>494.0</ele><time>2026-04-25T08:32:31Z</time></trkpt><trkpt lat="44.241481851287" lon="11.583606712867121"><ele>494.0</ele><time>2026-04-25T08:32:32Z</time></trkpt><trkpt lat="44.24158309913093" lon="11.583577917010714"><ele>494.0</ele><time>2026-04-25T08:32:33Z</time></trkpt><trkpt lat="44.241695303570914" lon="11.583591787150898"><ele>494.0</ele><time>2026-04-25T08:32:34Z</time></trkpt><trkpt lat="44.24184827017486" lon="11.583645094209485"><ele>494.0</ele><time>2026-04-25T08:32:35Z</time></trkpt><trkpt lat="44.242021330572946" lon="11.583748448277833"><ele>497.3333333333333</ele><time>2026-04-25T08:32:36Z</time></trkpt><trkpt lat="44.24220675394663" lon="11.58386441814211"><ele>500.66666666666663</ele><time>2026-04-25T08:32:37Z</time></trkpt><trkpt lat="44.2423758705887" lon="11.58397018922272"><ele>504.0</ele><time>2026-04-25T08:32:38Z</time></trkpt><trkpt lat="44.24254248996076" lon="11.584069624835296"><ele>504.0</ele><time>2026-04-25T08:32:39Z</time></trkpt><trkpt lat="44.24268759891757" lon="11.584141391579582"><ele>504.0</ele><time>2026-04-25T08:32:40Z</time></trkpt><trkpt lat="44.2428224803992" lon="11.584163416426463"><ele>504.0</ele><time>2026-04-25T08:32:41Z</time></trkpt><trkpt lat="44.242959594244226" lon="11.58413676005308"><ele>504.0</ele><time>2026-04-25T08:32:42Z</time></trkpt><trkpt lat="44.24307902366636" lon="11.58403916660059"><ele>504.5</ele><time>2026-04-25T08:32:43Z</time></trkpt><trkpt lat="44.24318265862876" lon="11.58391977255838"><ele>505.0</ele><time>2026-04-25T08:32:44Z</time></trkpt><trkpt lat="44.243256844593546" lon="11.583761482146418"><ele>505.5</ele><time>2026-04-25T08:32:45Z</time></trkpt><trkpt lat="44.243307014623774" lon="11.583579791435785"><ele>506.0</ele><time>2026-04-25T08:32:46Z</time></trkpt><trkpt lat="44.24331274302964" lon="11.583389941746292"><ele>502.75</ele><time>2026-04-25T08:32:47Z</time></trkpt><trkpt lat="44.243299079659685" lon="11.5832025956786"><ele>499.5</ele><time>2026-04-25T08:32:48Z</time></trkpt><trkpt lat="44.24325910977" lon="11.58298998534145"><ele>496.25</ele><time>2026-04-25T08:32:49Z</time></trkpt><trkpt lat="44.24322443535215" lon="11.582796672336649"><ele>493.0</ele><time>2026-04-25T08:32:50Z</time></trkpt><trkpt lat="44.24320442485101" lon="11.582546981736296"><ele>492.0</ele><time>2026-04-25T08:32:51Z</time></trkpt><trkpt lat="44.24317379975752" lon="11.582286858094085"><ele>491.0</ele><time>2026-04-25T08:32:52Z</time></trkpt><trkpt lat="44.24314465347011" lon="11.582030381857715"><ele>490.0</ele><time>2026-04-25T08:32:53Z</time></trkpt><trkpt lat="44.24311678430338" lon="11.58178326101873"><ele>479.33333333333337</ele><time>2026-04-25T08:32:54Z</time></trkpt><trkpt lat="44.24309128874669" lon="11.581549248235085"><ele>468.66666666666663</ele><time>2026-04-25T08:32:55Z</time></trkpt><trkpt lat="44.24306490802275" lon="11.581310401537715"><ele>458.0</ele><time>2026-04-25T08:32:56Z</time></trkpt><trkpt lat="44.24303923415422" lon="11.581078385717433"><ele>456.0</ele><time>2026-04-25T08:32:57Z</time></trkpt><trkpt lat="44.24301038514041" lon="11.580823675775294"><ele>454.0</ele><time>2026-04-25T08:32:58Z</time></trkpt><trkpt lat="44.24298210477343" lon="11.580570373890978"><ele>452.0</ele><time>2026-04-25T08:32:59Z</time></trkpt><trkpt lat="44.24295162337359" lon="11.580297357900042"><ele>451.66666666666663</ele><time>2026-04-25T08:33:00Z</time></trkpt><trkpt lat="44.24292140988502" lon="11.580026812073374"><ele>451.33333333333337</ele><time>2026-04-25T08:33:01Z</time></trkpt><trkpt lat="44.24289118822416" lon="11.579757607539674"><ele>451.0</ele><time>2026-04-25T08:33:02Z</time></trkpt><trkpt lat="44.24286106088051" lon="11.579492011021602"><ele>453.0</ele><time>2026-04-25T08:33:03Z</time></trkpt><trkpt lat="44.24281589270608" lon="11.579245565765328"><ele>455.0</ele><time>2026-04-25T08:33:04Z</time></trkpt><trkpt lat="44.24280361549513" lon="11.579000127909543"><ele>457.0</ele><time>2026-04-25T08:33:05Z</time></trkpt><trkpt lat="44.24277651264757" lon="11.578770181071686"><ele>457.6666666666667</ele><time>2026-04-25T08:33:06Z</time></trkpt><trkpt lat="44.24274820571982" lon="11.578539857643158"><ele>458.33333333333337</ele><time>2026-04-25T08:33:07Z</time></trkpt><trkpt lat="44.24272083811452" lon="11.578319468752637"><ele>459.0</ele><time>2026-04-25T08:33:08Z</time></trkpt><trkpt lat="44.24267974066592" lon="11.578110733909314"><ele>459.0</ele><time>2026-04-25T08:33:09Z</time></trkpt><trkpt lat="44.24266881631926" lon="11.577874327974943"><ele>459.0</ele><time>2026-04-25T08:33:10Z</time></trkpt><trkpt lat="44.24264349212606" lon="11.577635035441254"><ele>459.0</ele><time>2026-04-25T08:33:11Z</time></trkpt><trkpt lat="44.242618975625696" lon="11.577408483037217"><ele>459.5</ele><time>2026-04-25T08:33:12Z</time></trkpt><trkpt lat="44.24259631129871" lon="11.577193884623282"><ele>460.0</ele><time>2026-04-25T08:33:13Z</time></trkpt><trkpt lat="44.24258673302981" lon="11.577005525972622"><ele>460.5</ele><time>2026-04-25T08:33:14Z</time></trkpt><trkpt lat="44.24260068521148" lon="11.576818401216844"><ele>461.0</ele><time>2026-04-25T08:33:15Z</time></trkpt><trkpt lat="44.24263772040933" lon="11.576643245568608"><ele>461.0</ele><time>2026-04-25T08:33:16Z</time></trkpt><trkpt lat="44.242699876073885" lon="11.576496588341994"><ele>461.0</ele><time>2026-04-25T08:33:17Z</time></trkpt><trkpt lat="44.24278443507241" lon="11.576352724529961"><ele>461.0</ele><time>2026-04-25T08:33:18Z</time></trkpt><trkpt lat="44.242899006144754" lon="11.576231125268327"><ele>461.0</ele><time>2026-04-25T08:33:19Z</time></trkpt><trkpt lat="44.24303571544965" lon="11.57612898808938"><ele>458.66666666666663</ele><time>2026-04-25T08:33:20Z</time></trkpt><trkpt lat="44.24318062882503" lon="11.576046857937254"><ele>456.33333333333337</ele><time>2026-04-25T08:33:21Z</time></trkpt><trkpt lat="44.24332644395599" lon="11.5759620388705"><ele>454.0</ele><time>2026-04-25T08:33:22Z</time></trkpt><trkpt lat="44.24347264692993" lon="11.575901749142599"><ele>454.0</ele><time>2026-04-25T08:33:23Z</time></trkpt><trkpt lat="44.24361841447259" lon="11.575810516961221"><ele>454.0</ele><time>2026-04-25T08:33:24Z</time></trkpt><trkpt lat="44.24374871480215" lon="11.575675355910223"><ele>454.0</ele><time>2026-04-25T08:33:25Z</time></trkpt><trkpt lat="44.24385716214991" lon="11.575522894316338"><ele>451.6666666666667</ele><time>2026-04-25T08:33:26Z</time></trkpt><trkpt lat="44.24394547918346" lon="11.575340047778205"><ele>449.33333333333337</ele><time>2026-04-25T08:33:27Z</time></trkpt><trkpt lat="44.243995781510996" lon="11.57512686241955"><ele>447.0</ele><time>2026-04-25T08:33:28Z</time></trkpt><trkpt lat="44.244063663541546" lon="11.57489327658247"><ele>447.0</ele><time>2026-04-25T08:33:29Z</time></trkpt><trkpt lat="44.24412294586197" lon="11.574669331440989"><ele>447.0</ele><time>2026-04-25T08:33:30Z</time></trkpt><trkpt lat="44.24417232309419" lon="11.574453453392529"><ele>447.0</ele><time>2026-04-25T08:33:31Z</time></trkpt><trkpt lat="44.244228438927315" lon="11.574259609595616"><ele>448.25</ele><time>2026-04-25T08:33:32Z</time></trkpt><trkpt lat="44.244282199912874" lon="11.574065346915777"><ele>449.5</ele><time>2026-04-25T08:33:33Z</time></trkpt><trkpt lat="44.24435786115184" lon="11.573891835629869"><ele>450.75</ele><time>2026-04-25T08:33:34Z</time></trkpt><trkpt lat="44.24445422027365" lon="11.573736949457814"><ele>452.0</ele><time>2026-04-25T08:33:35Z</time></trkpt><trkpt lat="44.24458185814606" lon="11.573630252026705"><ele>451.3333333333333</ele><time>2026-04-25T08:33:36Z</time></trkpt><trkpt lat="44.24472609105414" lon="11.57353854548492"><ele>450.66666666666663</ele><time>2026-04-25T08:33:37Z</time></trkpt><trkpt lat="44.24486326249224" lon="11.57343588140939"><ele>450.0</ele><time>2026-04-25T08:33:38Z</time></trkpt><trkpt lat="44.24499999317285" lon="11.573343102976752"><ele>450.0</ele><time>2026-04-25T08:33:39Z</time></trkpt><trkpt lat="44.24511247991879" lon="11.573201026539973"><ele>450.0</ele><time>2026-04-25T08:33:40Z</time></trkpt><trkpt lat="44.24520882394739" lon="11.573022545942695"><ele>450.0</ele><time>2026-04-25T08:33:41Z</time></trkpt><trkpt lat="44.24530463304777" lon="11.572835199168463"><ele>450.0</ele><time>2026-04-25T08:33:42Z</time></trkpt><trkpt lat="44.24540243634559" lon="11.572645709293793"><ele>450.0</ele><time>2026-04-25T08:33:43Z</time></trkpt><trkpt lat="44.24549904350723" lon="11.572438173222416"><ele>450.0</ele><time>2026-04-25T08:33:44Z</time></trkpt><trkpt lat="44.245584772091625" lon="11.572235347016997"><ele>446.66666666666663</ele><time>2026-04-25T08:33:45Z</time></trkpt><trkpt lat="44.24566252281656" lon="11.572009894720537"><ele>443.3333333333333</ele><time>2026-04-25T08:33:46Z</time></trkpt><trkpt lat="44.245731496190196" lon="11.57177367883464"><ele>440.0</ele><time>2026-04-25T08:33:47Z</time></trkpt><trkpt lat="44.24580433652712" lon="11.57153672703416"><ele>440.0</ele><time>2026-04-25T08:33:48Z</time></trkpt><trkpt lat="44.24587783603461" lon="11.571295844158753"><ele>440.0</ele><time>2026-04-25T08:33:49Z</time></trkpt><trkpt lat="44.245944012512425" lon="11.571070334329017"><ele>440.0</ele><time>2026-04-25T08:33:50Z</time></trkpt><trkpt lat="44.24601256786887" lon="11.570850141331084"><ele>441.66666666666663</ele><time>2026-04-25T08:33:51Z</time></trkpt><trkpt lat="44.246079320082565" lon="11.570632612812167"><ele>443.33333333333337</ele><time>2026-04-25T08:33:52Z</time></trkpt><trkpt lat="44.24614796383084" lon="11.570413003830229"><ele>445.0</ele><time>2026-04-25T08:33:53Z</time></trkpt><trkpt lat="44.24621216704109" lon="11.570199211797457"><ele>445.0</ele><time>2026-04-25T08:33:54Z</time></trkpt><trkpt lat="44.246259967189864" lon="11.569985423047811"><ele>445.0</ele><time>2026-04-25T08:33:55Z</time></trkpt><trkpt lat="44.246278284326394" lon="11.569767773129167"><ele>445.0</ele><time>2026-04-25T08:33:56Z</time></trkpt><trkpt lat="44.246250746907485" lon="11.569571049607752"><ele>442.5</ele><time>2026-04-25T08:33:57Z</time></trkpt><trkpt lat="44.24620735164937" lon="11.569409531096412"><ele>440.0</ele><time>2026-04-25T08:33:58Z</time></trkpt><trkpt lat="44.246149995415635" lon="11.569245811382872"><ele>437.5</ele><time>2026-04-25T08:33:59Z</time></trkpt><trkpt lat="44.24606186742188" lon="11.569106707027984"><ele>435.0</ele><time>2026-04-25T08:34:00Z</time></trkpt><trkpt lat="44.245965776189635" lon="11.568971331016956"><ele>435.0</ele><time>2026-04-25T08:34:01Z</time></trkpt><trkpt lat="44.24587126129048" lon="11.568849512937302"><ele>435.0</ele><time>2026-04-25T08:34:02Z</time></trkpt><trkpt lat="44.24576657243162" lon="11.568751134451533"><ele>435.0</ele><time>2026-04-25T08:34:03Z</time></trkpt><trkpt lat="44.245683946025444" lon="11.568647714666897"><ele>435.0</ele><time>2026-04-25T08:34:04Z</time></trkpt><trkpt lat="44.24563372608776" lon="11.568529400822943"><ele>435.6</ele><time>2026-04-25T08:34:05Z</time></trkpt><trkpt lat="44.24558420835399" lon="11.568416936521203"><ele>436.2</ele><time>2026-04-25T08:34:06Z</time></trkpt><trkpt lat="44.24553573011833" lon="11.568301948455835"><ele>436.79999999999995</ele><time>2026-04-25T08:34:07Z</time></trkpt><trkpt lat="44.24546765635461" lon="11.568196890344115"><ele>437.4</ele><time>2026-04-25T08:34:08Z</time></trkpt><trkpt lat="44.24541410209913" lon="11.56808054621885"><ele>438.0</ele><time>2026-04-25T08:34:09Z</time></trkpt><trkpt lat="44.24536099371656" lon="11.567969233757516"><ele>436.8333333333333</ele><time>2026-04-25T08:34:10Z</time></trkpt><trkpt lat="44.245309085243555" lon="11.56785540821942"><ele>435.66666666666663</ele><time>2026-04-25T08:34:11Z</time></trkpt><trkpt lat="44.245257285077614" lon="11.567748248606648"><ele>434.5</ele><time>2026-04-25T08:34:12Z</time></trkpt><trkpt lat="44.24521562211679" lon="11.567658214448794"><ele>433.3333333333333</ele><time>2026-04-25T08:34:13Z</time></trkpt><trkpt lat="44.24517769048126" lon="11.567580798034298"><ele>432.16666666666663</ele><time>2026-04-25T08:34:14Z</time></trkpt><trkpt lat="44.24512802652661" lon="11.567436065933709"><ele>431.0</ele><time>2026-04-25T08:34:16Z</time></trkpt><trkpt lat="44.24511726934343" lon="11.567287396538093"><ele>431.0</ele><time>2026-04-25T08:34:18Z</time></trkpt><trkpt lat="44.24510246464771" lon="11.567194532756638"><ele>431.0</ele><time>2026-04-25T08:34:20Z</time></trkpt><trkpt lat="44.24499401044481" lon="11.567257063314102"><ele>431.0</ele><time>2026-04-25T08:34:22Z</time></trkpt><trkpt lat="44.24497453786581" lon="11.56735183137392"><ele>431.0</ele><time>2026-04-25T08:34:24Z</time></trkpt><trkpt lat="44.24507279655232" lon="11.56745075447056"><ele>431.0</ele><time>2026-04-25T08:34:25Z</time></trkpt><trkpt lat="44.2451301312733" lon="11.567525344244338"><ele>431.0</ele><time>2026-04-25T08:34:26Z</time></trkpt><trkpt lat="44.24517835102619" lon="11.567627487607572"><ele>431.0</ele><time>2026-04-25T08:34:27Z</time></trkpt><trkpt lat="44.2452399195282" lon="11.56775582458594"><ele>431.0</ele><time>2026-04-25T08:34:28Z</time></trkpt><trkpt lat="44.24531038923024" lon="11.567897402193028"><ele>431.0</ele><time>2026-04-25T08:34:29Z</time></trkpt><trkpt lat="44.24537913823591" lon="11.568036308567166"><ele>431.0</ele><time>2026-04-25T08:34:30Z</time></trkpt><trkpt lat="44.24543858289404" lon="11.56816443345396"><ele>432.4</ele><time>2026-04-25T08:34:31Z</time></trkpt><trkpt lat="44.24549315618903" lon="11.568273964971121"><ele>433.8</ele><time>2026-04-25T08:34:32Z</time></trkpt><trkpt lat="44.24553392748473" lon="11.568388377487635"><ele>435.19999999999993</ele><time>2026-04-25T08:34:33Z</time></trkpt><trkpt lat="44.24558228992396" lon="11.568513296248623"><ele>436.59999999999997</ele><time>2026-04-25T08:34:34Z</time></trkpt><trkpt lat="44.24572720704058" lon="11.56852659844607"><ele>438.0</ele><time>2026-04-25T08:34:35Z</time></trkpt><trkpt lat="44.24582496837144" lon="11.568622618865055"><ele>437.25</ele><time>2026-04-25T08:34:36Z</time></trkpt><trkpt lat="44.24591535074067" lon="11.56877639296758"><ele>436.5</ele><time>2026-04-25T08:34:37Z</time></trkpt><trkpt lat="44.24601467057659" lon="11.568912432034224"><ele>435.75</ele><time>2026-04-25T08:34:38Z</time></trkpt><trkpt lat="44.246137202917794" lon="11.568978927781602"><ele>435.0</ele><time>2026-04-25T08:34:39Z</time></trkpt><trkpt lat="44.24623812016601" lon="11.569063020108581"><ele>435.0</ele><time>2026-04-25T08:34:40Z</time></trkpt><trkpt lat="44.24635715527815" lon="11.569121561451711"><ele>435.0</ele><time>2026-04-25T08:34:41Z</time></trkpt><trkpt lat="44.24645019716028" lon="11.569173268961315"><ele>435.0</ele><time>2026-04-25T08:34:42Z</time></trkpt><trkpt lat="44.2465194315375" lon="11.569223995789951"><ele>435.0</ele><time>2026-04-25T08:34:43Z</time></trkpt><trkpt lat="44.246610150292675" lon="11.569319456560722"><ele>435.0</ele><time>2026-04-25T08:34:45Z</time></trkpt><trkpt lat="44.246678555270385" lon="11.56933859495109"><ele>431.4</ele><time>2026-04-25T08:34:46Z</time></trkpt><trkpt lat="44.24676068729112" lon="11.569336724146375"><ele>427.8</ele><time>2026-04-25T08:34:47Z</time></trkpt><trkpt lat="44.24686813649542" lon="11.569313772149824"><ele>424.20000000000005</ele><time>2026-04-25T08:34:48Z</time></trkpt><trkpt lat="44.24698779411322" lon="11.56927942042122"><ele>420.6</ele><time>2026-04-25T08:34:49Z</time></trkpt><trkpt lat="44.24709748411662" lon="11.569200513490372"><ele>417.0</ele><time>2026-04-25T08:34:50Z</time></trkpt><trkpt lat="44.24722286985387" lon="11.569142297545378"><ele>413.25</ele><time>2026-04-25T08:34:51Z</time></trkpt><trkpt lat="44.247338395353474" lon="11.569038269385551"><ele>409.5</ele><time>2026-04-25T08:34:52Z</time></trkpt><trkpt lat="44.24745036021726" lon="11.568934492580041"><ele>405.75</ele><time>2026-04-25T08:34:53Z</time></trkpt><trkpt lat="44.247590462611875" lon="11.56882716385078"><ele>402.0</ele><time>2026-04-25T08:34:54Z</time></trkpt><trkpt lat="44.24770460599875" lon="11.568750071239021"><ele>399.6</ele><time>2026-04-25T08:34:55Z</time></trkpt><trkpt lat="44.24781538090433" lon="11.568663995893669"><ele>397.20000000000005</ele><time>2026-04-25T08:34:56Z</time></trkpt><trkpt lat="44.247910213275105" lon="11.568566918812815"><ele>394.8</ele><time>2026-04-25T08:34:57Z</time></trkpt><trkpt lat="44.247991048582364" lon="11.56849798968747"><ele>392.4</ele><time>2026-04-25T08:34:58Z</time></trkpt><trkpt lat="44.24806046843761" lon="11.568467998637992"><ele>390.0</ele><time>2026-04-25T08:34:59Z</time></trkpt><trkpt lat="44.248124855103114" lon="11.568464778820841"><ele>389.6</ele><time>2026-04-25T08:35:00Z</time></trkpt><trkpt lat="44.24817848568414" lon="11.568557878855579"><ele>389.2</ele><time>2026-04-25T08:35:01Z</time></trkpt><trkpt lat="44.24821334873913" lon="11.568653741146512"><ele>388.79999999999995</ele><time>2026-04-25T08:35:02Z</time></trkpt><trkpt lat="44.24828783164861" lon="11.568699612453743"><ele>388.4</ele><time>2026-04-25T08:35:03Z</time></trkpt><trkpt lat="44.24836891536324" lon="11.568641439305559"><ele>388.0</ele><time>2026-04-25T08:35:04Z</time></trkpt><trkpt lat="44.24842481314032" lon="11.56848600721757"><ele>386.2</ele><time>2026-04-25T08:35:05Z</time></trkpt><trkpt lat="44.24846963861746" lon="11.568374365416627"><ele>384.4</ele><time>2026-04-25T08:35:06Z</time></trkpt><trkpt lat="44.248524863444665" lon="11.568262518705563"><ele>382.59999999999997</ele><time>2026-04-25T08:35:07Z</time></trkpt><trkpt lat="44.24859206281216" lon="11.56816859669074"><ele>380.79999999999995</ele><time>2026-04-25T08:35:08Z</time></trkpt><trkpt lat="44.24867427798238" lon="11.568100822748354"><ele>379.0</ele><time>2026-04-25T08:35:09Z</time></trkpt><trkpt lat="44.24878253432024" lon="11.568044357840783"><ele>379.0</ele><time>2026-04-25T08:35:10Z</time></trkpt><trkpt lat="44.24890209925135" lon="11.56799029213833"><ele>379.0</ele><time>2026-04-25T08:35:11Z</time></trkpt><trkpt lat="44.249025178990706" lon="11.567944182360478"><ele>379.0</ele><time>2026-04-25T08:35:12Z</time></trkpt><trkpt lat="44.24915307619927" lon="11.567911315276254"><ele>379.0</ele><time>2026-04-25T08:35:13Z</time></trkpt><trkpt lat="44.24928094494209" lon="11.567987358781789"><ele>375.0</ele><time>2026-04-25T08:35:14Z</time></trkpt><trkpt lat="44.24939086442569" lon="11.568072163035911"><ele>371.0</ele><time>2026-04-25T08:35:15Z</time></trkpt><trkpt lat="44.2495038163795" lon="11.568098935396598"><ele>367.0</ele><time>2026-04-25T08:35:16Z</time></trkpt><trkpt lat="44.24960064993927" lon="11.568126974600945"><ele>363.0</ele><time>2026-04-25T08:35:17Z</time></trkpt><trkpt lat="44.249790189087136" lon="11.568082372693343"><ele>359.5</ele><time>2026-04-25T08:35:18Z</time></trkpt><trkpt lat="44.249914308064" lon="11.568020028935447"><ele>356.0</ele><time>2026-04-25T08:35:19Z</time></trkpt><trkpt lat="44.25002721341154" lon="11.567929684647817"><ele>352.5</ele><time>2026-04-25T08:35:20Z</time></trkpt><trkpt lat="44.250135519588824" lon="11.567851678514307"><ele>349.0</ele><time>2026-04-25T08:35:21Z</time></trkpt><trkpt lat="44.25023343946683" lon="11.567786523848927"><ele>346.6</ele><time>2026-04-25T08:35:22Z</time></trkpt><trkpt lat="44.25032184030573" lon="11.567706394579952"><ele>344.2</ele><time>2026-04-25T08:35:23Z</time></trkpt><trkpt lat="44.25039313424286" lon="11.567593847610645"><ele>341.8</ele><time>2026-04-25T08:35:24Z</time></trkpt><trkpt lat="44.25045895949217" lon="11.567472306255846"><ele>339.40000000000003</ele><time>2026-04-25T08:35:25Z</time></trkpt><trkpt lat="44.2505435524918" lon="11.567432523447792"><ele>337.0</ele><time>2026-04-25T08:35:26Z</time></trkpt><trkpt lat="44.25067030007868" lon="11.56746255639302"><ele>336.40000000000003</ele><time>2026-04-25T08:35:28Z</time></trkpt><trkpt lat="44.25070386151282" lon="11.567562156467943"><ele>335.8</ele><time>2026-04-25T08:35:29Z</time></trkpt><trkpt lat="44.250674183281895" lon="11.5677107512797"><ele>335.2</ele><time>2026-04-25T08:35:31Z</time></trkpt><trkpt lat="44.250675283439655" lon="11.567805230891949"><ele>334.6</ele><time>2026-04-25T08:35:32Z</time></trkpt><trkpt lat="44.25074467133112" lon="11.5679731594127"><ele>334.0</ele><time>2026-04-25T08:35:34Z</time></trkpt><trkpt lat="44.25082333052284" lon="11.56801126183373"><ele>334.0</ele><time>2026-04-25T08:35:35Z</time></trkpt><trkpt lat="44.25089178350316" lon="11.567926847765213"><ele>334.0</ele><time>2026-04-25T08:35:36Z</time></trkpt><trkpt lat="44.25093980313961" lon="11.567856394798648"><ele>334.0</ele><time>2026-04-25T08:35:37Z</time></trkpt><trkpt lat="44.25097967008663" lon="11.567718991899193"><ele>334.0</ele><time>2026-04-25T08:35:38Z</time></trkpt><trkpt lat="44.2510449461892" lon="11.56761706033794"><ele>334.0</ele><time>2026-04-25T08:35:39Z</time></trkpt><trkpt lat="44.25112415617851" lon="11.567452474917271"><ele>332.6</ele><time>2026-04-25T08:35:40Z</time></trkpt><trkpt lat="44.25119210311308" lon="11.567321150207665"><ele>331.2</ele><time>2026-04-25T08:35:41Z</time></trkpt><trkpt lat="44.251269847884636" lon="11.567214148679982"><ele>329.8</ele><time>2026-04-25T08:35:42Z</time></trkpt><trkpt lat="44.25135252064453" lon="11.567158923171258"><ele>328.40000000000003</ele><time>2026-04-25T08:35:43Z</time></trkpt><trkpt lat="44.25145504393655" lon="11.567163866870299"><ele>327.0</ele><time>2026-04-25T08:35:44Z</time></trkpt><trkpt lat="44.25157671388478" lon="11.567157847369591"><ele>323.25</ele><time>2026-04-25T08:35:45Z</time></trkpt><trkpt lat="44.251698212425794" lon="11.567132865385041"><ele>319.5</ele><time>2026-04-25T08:35:46Z</time></trkpt><trkpt lat="44.25181718531306" lon="11.567111738088945"><ele>315.75</ele><time>2026-04-25T08:35:47Z</time></trkpt><trkpt lat="44.251930919061536" lon="11.56705336362605"><ele>312.0</ele><time>2026-04-25T08:35:48Z</time></trkpt><trkpt lat="44.25204018709586" lon="11.566989985077646"><ele>308.5</ele><time>2026-04-25T08:35:49Z</time></trkpt><trkpt lat="44.25214648128923" lon="11.566909736032066"><ele>305.0</ele><time>2026-04-25T08:35:50Z</time></trkpt><trkpt lat="44.25224681392537" lon="11.566814543989858"><ele>301.5</ele><time>2026-04-25T08:35:51Z</time></trkpt><trkpt lat="44.25233750137251" lon="11.566704221634689"><ele>298.0</ele><time>2026-04-25T08:35:52Z</time></trkpt><trkpt lat="44.2524360455453" lon="11.566608080905558"><ele>297.0</ele><time>2026-04-25T08:35:53Z</time></trkpt><trkpt lat="44.2525206084524" lon="11.566500717540514"><ele>296.0</ele><time>2026-04-25T08:35:54Z</time></trkpt><trkpt lat="44.25260271805711" lon="11.566412017668142"><ele>295.0</ele><time>2026-04-25T08:35:55Z</time></trkpt><trkpt lat="44.25269041403524" lon="11.566365554597546"><ele>294.0</ele><time>2026-04-25T08:35:56Z</time></trkpt><trkpt lat="44.25279325180998" lon="11.566356868991788"><ele>293.0</ele><time>2026-04-25T08:35:57Z</time></trkpt><trkpt lat="44.25291193720692" lon="11.566325442261522"><ele>293.0</ele><time>2026-04-25T08:35:58Z</time></trkpt><trkpt lat="44.253031685302126" lon="11.566296688287897"><ele>293.0</ele><time>2026-04-25T08:35:59Z</time></trkpt><trkpt lat="44.25313729280219" lon="11.566239954553474"><ele>293.0</ele><time>2026-04-25T08:36:00Z</time></trkpt><trkpt lat="44.253216253182664" lon="11.566239402959987"><ele>293.0</ele><time>2026-04-25T08:36:01Z</time></trkpt><trkpt lat="44.253312375995236" lon="11.5662256577966"><ele>293.0</ele><time>2026-04-25T08:36:02Z</time></trkpt><trkpt lat="44.25338716131671" lon="11.566223994641735"><ele>292.0</ele><time>2026-04-25T08:36:03Z</time></trkpt><trkpt lat="44.253455548635465" lon="11.56622623866799"><ele>291.0</ele><time>2026-04-25T08:36:04Z</time></trkpt><trkpt lat="44.253524142291994" lon="11.566227984604742"><ele>290.0</ele><time>2026-04-25T08:36:05Z</time></trkpt><trkpt lat="44.25359796902911" lon="11.566174640186443"><ele>289.0</ele><time>2026-04-25T08:36:07Z</time></trkpt><trkpt lat="44.25359947828323" lon="11.566084632882523"><ele>288.0</ele><time>2026-04-25T08:36:08Z</time></trkpt><trkpt lat="44.253510238972126" lon="11.56603983136808"><ele>287.0</ele><time>2026-04-25T08:36:09Z</time></trkpt><trkpt lat="44.253431059014105" lon="11.565959784430312"><ele>282.2</ele><time>2026-04-25T08:36:11Z</time></trkpt><trkpt lat="44.25348505816847" lon="11.565797288384992"><ele>277.4</ele><time>2026-04-25T08:36:13Z</time></trkpt><trkpt lat="44.25355244104474" lon="11.565739662872632"><ele>272.6</ele><time>2026-04-25T08:36:14Z</time></trkpt><trkpt lat="44.253623598495466" lon="11.565693560285693"><ele>267.8</ele><time>2026-04-25T08:36:15Z</time></trkpt><trkpt lat="44.25372146601835" lon="11.565631451455188"><ele>263.0</ele><time>2026-04-25T08:36:16Z</time></trkpt><trkpt lat="44.253803553326065" lon="11.565578973356628"><ele>263.0</ele><time>2026-04-25T08:36:17Z</time></trkpt><trkpt lat="44.25389778151878" lon="11.565518733304303"><ele>263.0</ele><time>2026-04-25T08:36:18Z</time></trkpt><trkpt lat="44.25399614824915" lon="11.565471483412828"><ele>263.0</ele><time>2026-04-25T08:36:19Z</time></trkpt><trkpt lat="44.25410155864716" lon="11.565459190410582"><ele>263.0</ele><time>2026-04-25T08:36:20Z</time></trkpt><trkpt lat="44.25421415256533" lon="11.565447736869222"><ele>263.0</ele><time>2026-04-25T08:36:21Z</time></trkpt><trkpt lat="44.25432378969531" lon="11.565422238382428"><ele>261.8</ele><time>2026-04-25T08:36:22Z</time></trkpt><trkpt lat="44.25442666775769" lon="11.565371057715591"><ele>260.6</ele><time>2026-04-25T08:36:23Z</time></trkpt><trkpt lat="44.25451651972192" lon="11.56531264002712"><ele>259.4</ele><time>2026-04-25T08:36:24Z</time></trkpt><trkpt lat="44.25459151720799" lon="11.565208451980356"><ele>258.2</ele><time>2026-04-25T08:36:25Z</time></trkpt><trkpt lat="44.254671776097965" lon="11.565135979782138"><ele>257.0</ele><time>2026-04-25T08:36:26Z</time></trkpt><trkpt lat="44.25476084002724" lon="11.565054666231832"><ele>255.0</ele><time>2026-04-25T08:36:27Z</time></trkpt><trkpt lat="44.25484040729418" lon="11.564952821994767"><ele>253.0</ele><time>2026-04-25T08:36:28Z</time></trkpt><trkpt lat="44.254880677014306" lon="11.564796978486873"><ele>251.0</ele><time>2026-04-25T08:36:29Z</time></trkpt><trkpt lat="44.25493475468343" lon="11.564690164133753"><ele>249.0</ele><time>2026-04-25T08:36:30Z</time></trkpt><trkpt lat="44.25498713458483" lon="11.56459496660194"><ele>247.0</ele><time>2026-04-25T08:36:31Z</time></trkpt><trkpt lat="44.255060806392756" lon="11.564531893796685"><ele>242.6</ele><time>2026-04-25T08:36:32Z</time></trkpt><trkpt lat="44.25513954843406" lon="11.564457744501391"><ele>238.2</ele><time>2026-04-25T08:36:33Z</time></trkpt><trkpt lat="44.25522776383189" lon="11.564402461438169"><ele>233.8</ele><time>2026-04-25T08:36:34Z</time></trkpt><trkpt lat="44.255325156223485" lon="11.56436166018693"><ele>229.4</ele><time>2026-04-25T08:36:35Z</time></trkpt><trkpt lat="44.25540744094878" lon="11.564294086306965"><ele>225.0</ele><time>2026-04-25T08:36:36Z</time></trkpt><trkpt lat="44.25549400386083" lon="11.56427478251082"><ele>225.0</ele><time>2026-04-25T08:36:37Z</time></trkpt><trkpt lat="44.25558170130664" lon="11.564250741711907"><ele>225.0</ele><time>2026-04-25T08:36:38Z</time></trkpt><trkpt lat="44.25566772441884" lon="11.564232110472142"><ele>225.0</ele><time>2026-04-25T08:36:39Z</time></trkpt><trkpt lat="44.25575857500946" lon="11.564228723864908"><ele>225.0</ele><time>2026-04-25T08:36:40Z</time></trkpt><trkpt lat="44.255850567929954" lon="11.564227023613467"><ele>225.0</ele><time>2026-04-25T08:36:41Z</time></trkpt><trkpt lat="44.255958723756684" lon="11.564204328533744"><ele>226.0</ele><time>2026-04-25T08:36:42Z</time></trkpt><trkpt lat="44.2560558471858" lon="11.564176264811838"><ele>227.0</ele><time>2026-04-25T08:36:43Z</time></trkpt><trkpt lat="44.25617487302224" lon="11.564145149287828"><ele>228.0</ele><time>2026-04-25T08:36:44Z</time></trkpt><trkpt lat="44.25630281531706" lon="11.564148909758469"><ele>229.0</ele><time>2026-04-25T08:36:45Z</time></trkpt><trkpt lat="44.25642837019754" lon="11.564099462952228"><ele>227.25</ele><time>2026-04-25T08:36:46Z</time></trkpt><trkpt lat="44.25655493756086" lon="11.564060380650224"><ele>225.5</ele><time>2026-04-25T08:36:47Z</time></trkpt><trkpt lat="44.25668057780716" lon="11.564015144145564"><ele>223.75</ele><time>2026-04-25T08:36:48Z</time></trkpt><trkpt lat="44.25680682982886" lon="11.563971658186667"><ele>222.0</ele><time>2026-04-25T08:36:49Z</time></trkpt><trkpt lat="44.256931696076705" lon="11.56391144810306"><ele>222.0</ele><time>2026-04-25T08:36:50Z</time></trkpt><trkpt lat="44.25703795034134" lon="11.56384778662517"><ele>222.0</ele><time>2026-04-25T08:36:51Z</time></trkpt><trkpt lat="44.25714600845225" lon="11.563755846751945"><ele>222.0</ele><time>2026-04-25T08:36:52Z</time></trkpt><trkpt lat="44.257249506036395" lon="11.563637190934232"><ele>222.0</ele><time>2026-04-25T08:36:53Z</time></trkpt><trkpt lat="44.25735344786682" lon="11.563511475648065"><ele>218.0</ele><time>2026-04-25T08:36:54Z</time></trkpt><trkpt lat="44.25743816320217" lon="11.563368483344933"><ele>214.0</ele><time>2026-04-25T08:36:55Z</time></trkpt><trkpt lat="44.25751447783297" lon="11.56323758556054"><ele>210.0</ele><time>2026-04-25T08:36:56Z</time></trkpt><trkpt lat="44.25760256551881" lon="11.563122546116734"><ele>206.0</ele><time>2026-04-25T08:36:57Z</time></trkpt><trkpt lat="44.25769523442777" lon="11.563015293089993"><ele>206.0</ele><time>2026-04-25T08:36:58Z</time></trkpt><trkpt lat="44.25778687454356" lon="11.56289140630229"><ele>206.0</ele><time>2026-04-25T08:36:59Z</time></trkpt><trkpt lat="44.2578786764608" lon="11.562762889565931"><ele>206.0</ele><time>2026-04-25T08:37:00Z</time></trkpt><trkpt lat="44.257986392694534" lon="11.562683480564727"><ele>206.0</ele><time>2026-04-25T08:37:01Z</time></trkpt><trkpt lat="44.258105455557164" lon="11.562606809728589"><ele>200.25</ele><time>2026-04-25T08:37:02Z</time></trkpt><trkpt lat="44.258224792409344" lon="11.562526771884322"><ele>194.5</ele><time>2026-04-25T08:37:03Z</time></trkpt><trkpt lat="44.258333975646764" lon="11.56241930140793"><ele>188.75</ele><time>2026-04-25T08:37:04Z</time></trkpt><trkpt lat="44.258436064215125" lon="11.56235403965926"><ele>183.0</ele><time>2026-04-25T08:37:05Z</time></trkpt><trkpt lat="44.25852976397135" lon="11.562276751717302"><ele>183.0</ele><time>2026-04-25T08:37:06Z</time></trkpt><trkpt lat="44.25861783421229" lon="11.562205020993053"><ele>183.0</ele><time>2026-04-25T08:37:07Z</time></trkpt><trkpt lat="44.258711563968994" lon="11.56215190070237"><ele>183.0</ele><time>2026-04-25T08:37:08Z</time></trkpt><trkpt lat="44.25878819403359" lon="11.562068080357248"><ele>183.0</ele><time>2026-04-25T08:37:09Z</time></trkpt><trkpt lat="44.25882891776532" lon="11.561966045488647"><ele>183.0</ele><time>2026-04-25T08:37:10Z</time></trkpt><trkpt lat="44.258867117469045" lon="11.561850110508802"><ele>183.8</ele><time>2026-04-25T08:37:11Z</time></trkpt><trkpt lat="44.258900681516494" lon="11.561731024611051"><ele>184.60000000000002</ele><time>2026-04-25T08:37:12Z</time></trkpt><trkpt lat="44.258929649045854" lon="11.561606853622669"><ele>185.39999999999998</ele><time>2026-04-25T08:37:13Z</time></trkpt><trkpt lat="44.258951686058715" lon="11.561468299120369"><ele>186.2</ele><time>2026-04-25T08:37:14Z</time></trkpt><trkpt lat="44.25895729356222" lon="11.561335725453569"><ele>187.0</ele><time>2026-04-25T08:37:15Z</time></trkpt><trkpt lat="44.25895165581093" lon="11.56122304944461"><ele>185.5</ele><time>2026-04-25T08:37:16Z</time></trkpt><trkpt lat="44.258944334060175" lon="11.561111812965263"><ele>184.0</ele><time>2026-04-25T08:37:17Z</time></trkpt><trkpt lat="44.25894176550695" lon="11.561021391851629"><ele>182.5</ele><time>2026-04-25T08:37:18Z</time></trkpt><trkpt lat="44.2589226184126" lon="11.56086631430371"><ele>181.0</ele><time>2026-04-25T08:37:20Z</time></trkpt><trkpt lat="44.25890449797308" lon="11.560725594940804"><ele>179.5</ele><time>2026-04-25T08:37:22Z</time></trkpt><trkpt lat="44.25889426939378" lon="11.56060886412913"><ele>178.0</ele><time>2026-04-25T08:37:24Z</time></trkpt><trkpt lat="44.25889591899503" lon="11.560484502336625"><ele>178.0</ele><time>2026-04-25T08:37:27Z</time></trkpt><trkpt lat="44.258936082435184" lon="11.560411058486084"><ele>178.0</ele><time>2026-04-25T08:37:58Z</time></trkpt><trkpt lat="44.258939193116554" lon="11.560223628436788"><ele>178.0</ele><time>2026-04-25T08:38:00Z</time></trkpt><trkpt lat="44.25890636588325" lon="11.56008980907114"><ele>178.0</ele><time>2026-04-25T08:38:01Z</time></trkpt><trkpt lat="44.25886287910325" lon="11.559947956747546"><ele>178.0</ele><time>2026-04-25T08:38:02Z</time></trkpt><trkpt lat="44.25884339348751" lon="11.559834313581009"><ele>177.66666666666669</ele><time>2026-04-25T08:38:03Z</time></trkpt><trkpt lat="44.258816384364444" lon="11.559729812264477"><ele>177.33333333333334</ele><time>2026-04-25T08:38:04Z</time></trkpt><trkpt lat="44.258790563821556" lon="11.559634128522964"><ele>177.0</ele><time>2026-04-25T08:38:05Z</time></trkpt><trkpt lat="44.25876253475436" lon="11.559530261141765"><ele>176.66666666666666</ele><time>2026-04-25T08:38:06Z</time></trkpt><trkpt lat="44.2587352223469" lon="11.559429049369259"><ele>176.33333333333331</ele><time>2026-04-25T08:38:07Z</time></trkpt><trkpt lat="44.258678802895325" lon="11.55925698493052"><ele>176.0</ele><time>2026-04-25T08:38:09Z</time></trkpt><trkpt lat="44.25864613418185" lon="11.55914542486008"><ele>176.0</ele><time>2026-04-25T08:38:10Z</time></trkpt><trkpt lat="44.25863024647938" lon="11.559021383406177"><ele>176.0</ele><time>2026-04-25T08:38:11Z</time></trkpt><trkpt lat="44.258600414771045" lon="11.558901827007817"><ele>176.0</ele><time>2026-04-25T08:38:12Z</time></trkpt><trkpt lat="44.25856288858322" lon="11.558769882091353"><ele>176.0</ele><time>2026-04-25T08:38:13Z</time></trkpt><trkpt lat="44.258505155958176" lon="11.558649263173072"><ele>176.0</ele><time>2026-04-25T08:38:14Z</time></trkpt><trkpt lat="44.258464269738376" lon="11.558537909943814"><ele>175.83333333333331</ele><time>2026-04-25T08:38:15Z</time></trkpt><trkpt lat="44.25842052930859" lon="11.558435316453044"><ele>175.66666666666666</ele><time>2026-04-25T08:38:16Z</time></trkpt><trkpt lat="44.258374276140216" lon="11.558342649824189"><ele>175.5</ele><time>2026-04-25T08:38:17Z</time></trkpt><trkpt lat="44.2583191065644" lon="11.55826171840191"><ele>175.33333333333334</ele><time>2026-04-25T08:38:18Z</time></trkpt><trkpt lat="44.25826466647655" lon="11.55818712939155"><ele>175.16666666666669</ele><time>2026-04-25T08:38:19Z</time></trkpt><trkpt lat="44.25821215972611" lon="11.558113302189115"><ele>175.0</ele><time>2026-04-25T08:38:20Z</time></trkpt><trkpt lat="44.25815486565085" lon="11.558040721669613"><ele>175.16666666666669</ele><time>2026-04-25T08:38:21Z</time></trkpt><trkpt lat="44.25809653908119" lon="11.557959498536764"><ele>175.33333333333334</ele><time>2026-04-25T08:38:22Z</time></trkpt><trkpt lat="44.25804640204612" lon="11.557881168049535"><ele>175.5</ele><time>2026-04-25T08:38:23Z</time></trkpt><trkpt lat="44.25799821929792" lon="11.557797191654096"><ele>175.66666666666666</ele><time>2026-04-25T08:38:24Z</time></trkpt><trkpt lat="44.25794900891003" lon="11.557705143388098"><ele>175.83333333333331</ele><time>2026-04-25T08:38:25Z</time></trkpt><trkpt lat="44.257892894223865" lon="11.557619826128494"><ele>176.0</ele><time>2026-04-25T08:38:26Z</time></trkpt><trkpt lat="44.257832792291076" lon="11.557541045162257"><ele>175.5</ele><time>2026-04-25T08:38:27Z</time></trkpt><trkpt lat="44.25777614603101" lon="11.557459420782845"><ele>175.0</ele><time>2026-04-25T08:38:28Z</time></trkpt><trkpt lat="44.25771842292486" lon="11.557378577158541"><ele>174.5</ele><time>2026-04-25T08:38:29Z</time></trkpt><trkpt lat="44.25765985687975" lon="11.557295894288428"><ele>174.0</ele><time>2026-04-25T08:38:30Z</time></trkpt><trkpt lat="44.25760395668308" lon="11.55721999264259"><ele>173.5</ele><time>2026-04-25T08:38:31Z</time></trkpt><trkpt lat="44.25754429593095" lon="11.557130181561469"><ele>173.0</ele><time>2026-04-25T08:38:32Z</time></trkpt><trkpt lat="44.257494560449885" lon="11.557028615449374"><ele>173.2</ele><time>2026-04-25T08:38:33Z</time></trkpt><trkpt lat="44.25743103896826" lon="11.556943347853823"><ele>173.4</ele><time>2026-04-25T08:38:34Z</time></trkpt><trkpt lat="44.257362006022056" lon="11.556868166722513"><ele>173.6</ele><time>2026-04-25T08:38:35Z</time></trkpt><trkpt lat="44.25731035064967" lon="11.55676259880777"><ele>173.79999999999998</ele><time>2026-04-25T08:38:36Z</time></trkpt><trkpt lat="44.25724257293845" lon="11.556669866466049"><ele>174.0</ele><time>2026-04-25T08:38:37Z</time></trkpt><trkpt lat="44.25716861972836" lon="11.556578876484297"><ele>174.0</ele><time>2026-04-25T08:38:38Z</time></trkpt><trkpt lat="44.25711597644213" lon="11.556466252992164"><ele>174.0</ele><time>2026-04-25T08:38:39Z</time></trkpt><trkpt lat="44.25703553128969" lon="11.556376346778299"><ele>174.0</ele><time>2026-04-25T08:38:40Z</time></trkpt><trkpt lat="44.256971274932006" lon="11.556277175822482"><ele>174.0</ele><time>2026-04-25T08:38:41Z</time></trkpt><trkpt lat="44.25690861237954" lon="11.556184852570915"><ele>174.0</ele><time>2026-04-25T08:38:42Z</time></trkpt><trkpt lat="44.256865708194624" lon="11.55608992866057"><ele>174.0</ele><time>2026-04-25T08:38:43Z</time></trkpt><trkpt lat="44.25680212692887" lon="11.556022675377228"><ele>174.0</ele><time>2026-04-25T08:38:44Z</time></trkpt><trkpt lat="44.256752352818495" lon="11.555942563512607"><ele>174.0</ele><time>2026-04-25T08:38:45Z</time></trkpt><trkpt lat="44.25670364404396" lon="11.55584239666959"><ele>174.0</ele><time>2026-04-25T08:38:46Z</time></trkpt><trkpt lat="44.25664631125816" lon="11.555754828215697"><ele>174.0</ele><time>2026-04-25T08:38:47Z</time></trkpt><trkpt lat="44.256584084063036" lon="11.555659784252006"><ele>174.0</ele><time>2026-04-25T08:38:48Z</time></trkpt><trkpt lat="44.256521528030355" lon="11.555593868791995"><ele>174.0</ele><time>2026-04-25T08:38:49Z</time></trkpt><trkpt lat="44.25644947623924" lon="11.555454184852701"><ele>174.0</ele><time>2026-04-25T08:38:50Z</time></trkpt><trkpt lat="44.25636348298949" lon="11.555354794381032"><ele>174.0</ele><time>2026-04-25T08:38:51Z</time></trkpt><trkpt lat="44.256287309809586" lon="11.555208432873426"><ele>174.0</ele><time>2026-04-25T08:38:52Z</time></trkpt><trkpt lat="44.256190490221336" lon="11.555062636107605"><ele>174.0</ele><time>2026-04-25T08:38:53Z</time></trkpt><trkpt lat="44.2560824567633" lon="11.554916432524845"><ele>174.0</ele><time>2026-04-25T08:38:54Z</time></trkpt><trkpt lat="44.25595758725071" lon="11.554741287256176"><ele>174.0</ele><time>2026-04-25T08:38:55Z</time></trkpt><trkpt lat="44.255846080487125" lon="11.554536694617665"><ele>174.66666666666666</ele><time>2026-04-25T08:38:56Z</time></trkpt><trkpt lat="44.25571898692977" lon="11.554337505161316"><ele>175.33333333333331</ele><time>2026-04-25T08:38:57Z</time></trkpt><trkpt lat="44.255597847443084" lon="11.55414027423714"><ele>176.0</ele><time>2026-04-25T08:38:58Z</time></trkpt><trkpt lat="44.255499696959895" lon="11.553959356181156"><ele>176.0</ele><time>2026-04-25T08:38:59Z</time></trkpt><trkpt lat="44.255402470767166" lon="11.5537506162098"><ele>176.0</ele><time>2026-04-25T08:39:00Z</time></trkpt><trkpt lat="44.255289860460216" lon="11.553486568358654"><ele>176.0</ele><time>2026-04-25T08:39:01Z</time></trkpt><trkpt lat="44.255179996396" lon="11.553211221300892"><ele>174.0</ele><time>2026-04-25T08:39:02Z</time></trkpt><trkpt lat="44.255078204039584" lon="11.552955709346072"><ele>172.0</ele><time>2026-04-25T08:39:03Z</time></trkpt><trkpt lat="44.25497996086323" lon="11.552722277889412"><ele>170.0</ele><time>2026-04-25T08:39:04Z</time></trkpt><trkpt lat="44.25489637138636" lon="11.552512290609238"><ele>169.33333333333331</ele><time>2026-04-25T08:39:05Z</time></trkpt><trkpt lat="44.254817042204344" lon="11.552320291395706"><ele>168.66666666666666</ele><time>2026-04-25T08:39:06Z</time></trkpt><trkpt lat="44.254737503220454" lon="11.552128141334599"><ele>168.0</ele><time>2026-04-25T08:39:07Z</time></trkpt><trkpt lat="44.25465198660486" lon="11.55192897637738"><ele>168.0</ele><time>2026-04-25T08:39:08Z</time></trkpt><trkpt lat="44.25455641167151" lon="11.551739222820569"><ele>168.0</ele><time>2026-04-25T08:39:09Z</time></trkpt><trkpt lat="44.25444078428138" lon="11.551564588418456"><ele>168.0</ele><time>2026-04-25T08:39:10Z</time></trkpt><trkpt lat="44.2543083322711" lon="11.551403426470642"><ele>168.0</ele><time>2026-04-25T08:39:11Z</time></trkpt><trkpt lat="44.254160203695164" lon="11.55124828044789"><ele>168.0</ele><time>2026-04-25T08:39:12Z</time></trkpt><trkpt lat="44.25400498803066" lon="11.551109584358032"><ele>168.0</ele><time>2026-04-25T08:39:13Z</time></trkpt><trkpt lat="44.253854358346565" lon="11.550978857440118"><ele>170.0</ele><time>2026-04-25T08:39:14Z</time></trkpt><trkpt lat="44.25370440647902" lon="11.550842088195576"><ele>172.0</ele><time>2026-04-25T08:39:15Z</time></trkpt><trkpt lat="44.253544837091546" lon="11.550699271877315"><ele>174.0</ele><time>2026-04-25T08:39:16Z</time></trkpt><trkpt lat="44.25338403167407" lon="11.55055458281552"><ele>174.0</ele><time>2026-04-25T08:39:17.001Z</time></trkpt><trkpt lat="44.25322680432599" lon="11.550417869473796"><ele>174.0</ele><time>2026-04-25T08:39:18.001Z</time></trkpt><trkpt lat="44.25307968907473" lon="11.550284421108142"><ele>174.0</ele><time>2026-04-25T08:39:19.001Z</time></trkpt><trkpt lat="44.25295816682245" lon="11.550147119307969"><ele>174.25</ele><time>2026-04-25T08:39:20.001Z</time></trkpt><trkpt lat="44.25287998644148" lon="11.549980240065713"><ele>174.5</ele><time>2026-04-25T08:39:21.001Z</time></trkpt><trkpt lat="44.252809996945395" lon="11.549822572794703"><ele>174.75</ele><time>2026-04-25T08:39:22.001Z</time></trkpt><trkpt lat="44.25276057607344" lon="11.549669229423095"><ele>175.0</ele><time>2026-04-25T08:39:23.001Z</time></trkpt><trkpt lat="44.25271742298207" lon="11.549499060024"><ele>175.0</ele><time>2026-04-25T08:39:24.001Z</time></trkpt><trkpt lat="44.252690117726466" lon="11.549339681494851"><ele>175.0</ele><time>2026-04-25T08:39:25.001Z</time></trkpt><trkpt lat="44.25266484286561" lon="11.549191970061337"><ele>175.0</ele><time>2026-04-25T08:39:26.001Z</time></trkpt><trkpt lat="44.252641223824554" lon="11.54904710684836"><ele>175.0</ele><time>2026-04-25T08:39:27.001Z</time></trkpt><trkpt lat="44.252605608839225" lon="11.548905918828194"><ele>175.0</ele><time>2026-04-25T08:39:28.001Z</time></trkpt><trkpt lat="44.25258391935331" lon="11.548774537642261"><ele>175.2</ele><time>2026-04-25T08:39:29.001Z</time></trkpt><trkpt lat="44.252568657225886" lon="11.548674209439964"><ele>175.4</ele><time>2026-04-25T08:39:30.001Z</time></trkpt><trkpt lat="44.252539287520555" lon="11.54848522551333"><ele>175.60000000000002</ele><time>2026-04-25T08:39:32.001Z</time></trkpt><trkpt lat="44.252519400805724" lon="11.548366467540088"><ele>175.8</ele><time>2026-04-25T08:39:33Z</time></trkpt><trkpt lat="44.252497746576566" lon="11.548228943308953"><ele>176.0</ele><time>2026-04-25T08:39:34Z</time></trkpt><trkpt lat="44.25247401364988" lon="11.548080424950617"><ele>176.0</ele><time>2026-04-25T08:39:35Z</time></trkpt><trkpt lat="44.25244574480219" lon="11.547929635482062"><ele>176.0</ele><time>2026-04-25T08:39:36Z</time></trkpt><trkpt lat="44.25241633249374" lon="11.547776074216369"><ele>176.0</ele><time>2026-04-25T08:39:37Z</time></trkpt><trkpt lat="44.25238685871326" lon="11.547610410298315"><ele>176.0</ele><time>2026-04-25T08:39:38Z</time></trkpt><trkpt lat="44.25235515815525" lon="11.547430494864942"><ele>175.75</ele><time>2026-04-25T08:39:39Z</time></trkpt><trkpt lat="44.252325230474945" lon="11.547237272727765"><ele>175.5</ele><time>2026-04-25T08:39:40Z</time></trkpt><trkpt lat="44.2522954652422" lon="11.547043015091578"><ele>175.25</ele><time>2026-04-25T08:39:41Z</time></trkpt><trkpt lat="44.252257405499925" lon="11.546852719964827"><ele>175.0</ele><time>2026-04-25T08:39:42Z</time></trkpt><trkpt lat="44.252217448901625" lon="11.546651238736327"><ele>175.0</ele><time>2026-04-25T08:39:43Z</time></trkpt><trkpt lat="44.25217119443602" lon="11.546460467691324"><ele>175.0</ele><time>2026-04-25T08:39:44Z</time></trkpt><trkpt lat="44.25211264891985" lon="11.546288313192766"><ele>175.0</ele><time>2026-04-25T08:39:45Z</time></trkpt><trkpt lat="44.25204867594612" lon="11.546139942654479"><ele>175.0</ele><time>2026-04-25T08:39:46Z</time></trkpt><trkpt lat="44.25197924878892" lon="11.546018915052809"><ele>175.2</ele><time>2026-04-25T08:39:47Z</time></trkpt><trkpt lat="44.25191071415359" lon="11.54591514682623"><ele>175.4</ele><time>2026-04-25T08:39:48Z</time></trkpt><trkpt lat="44.251841532935444" lon="11.545824968149057"><ele>175.60000000000002</ele><time>2026-04-25T08:39:49Z</time></trkpt><trkpt lat="44.2517700249684" lon="11.545748949081517"><ele>175.8</ele><time>2026-04-25T08:39:50Z</time></trkpt><trkpt lat="44.25170477045506" lon="11.54566985987789"><ele>176.0</ele><time>2026-04-25T08:39:51Z</time></trkpt><trkpt lat="44.251634540583986" lon="11.545593121556664"><ele>176.0</ele><time>2026-04-25T08:39:52Z</time></trkpt><trkpt lat="44.25155714032678" lon="11.545509407121854"><ele>176.0</ele><time>2026-04-25T08:39:53Z</time></trkpt><trkpt lat="44.25147507068553" lon="11.545418842322636"><ele>176.0</ele><time>2026-04-25T08:39:54Z</time></trkpt><trkpt lat="44.251379312255786" lon="11.545312775057646"><ele>176.0</ele><time>2026-04-25T08:39:55Z</time></trkpt><trkpt lat="44.25128710830039" lon="11.545207420621924"><ele>176.0</ele><time>2026-04-25T08:39:56Z</time></trkpt><trkpt lat="44.25120722920988" lon="11.545112590118817"><ele>176.0</ele><time>2026-04-25T08:39:57Z</time></trkpt><trkpt lat="44.25113322083361" lon="11.545028903672476"><ele>176.0</ele><time>2026-04-25T08:39:58Z</time></trkpt><trkpt lat="44.25107149297599" lon="11.544956171009568"><ele>176.0</ele><time>2026-04-25T08:39:59Z</time></trkpt><trkpt lat="44.25100811930547" lon="11.54488053524836"><ele>176.0</ele><time>2026-04-25T08:40:00Z</time></trkpt><trkpt lat="44.25092885220156" lon="11.544797301238686"><ele>176.0</ele><time>2026-04-25T08:40:01Z</time></trkpt><trkpt lat="44.250833882343564" lon="11.544698902676167"><ele>176.0</ele><time>2026-04-25T08:40:02Z</time></trkpt><trkpt lat="44.25072936926883" lon="11.544591106362809"><ele>176.0</ele><time>2026-04-25T08:40:03Z</time></trkpt><trkpt lat="44.250601008715925" lon="11.54445895573003"><ele>176.0</ele><time>2026-04-25T08:40:04Z</time></trkpt><trkpt lat="44.2504653713088" lon="11.544264827136534"><ele>178.0</ele><time>2026-04-25T08:40:05Z</time></trkpt><trkpt lat="44.25030462051916" lon="11.544091126501097"><ele>180.0</ele><time>2026-04-25T08:40:06Z</time></trkpt><trkpt lat="44.25008504948144" lon="11.543858096621722"><ele>176.0</ele><time>2026-04-25T08:40:07Z</time></trkpt><trkpt lat="44.249917732859785" lon="11.543671907350763"><ele>172.0</ele><time>2026-04-25T08:40:08Z</time></trkpt><trkpt lat="44.249779000019196" lon="11.543493229133018"><ele>168.0</ele><time>2026-04-25T08:40:09Z</time></trkpt><trkpt lat="44.24966496426685" lon="11.543312682684784"><ele>173.33333333333334</ele><time>2026-04-25T08:40:10Z</time></trkpt><trkpt lat="44.24954648523581" lon="11.543154933181238"><ele>178.66666666666669</ele><time>2026-04-25T08:40:11Z</time></trkpt><trkpt lat="44.24945689299799" lon="11.542985809034516"><ele>184.0</ele><time>2026-04-25T08:40:12Z</time></trkpt><trkpt lat="44.249359327166296" lon="11.542839637054108"><ele>184.0</ele><time>2026-04-25T08:40:13Z</time></trkpt><trkpt lat="44.24926223613256" lon="11.542688088453264"><ele>184.0</ele><time>2026-04-25T08:40:14Z</time></trkpt><trkpt lat="44.24917263721148" lon="11.5425431061477"><ele>184.0</ele><time>2026-04-25T08:40:15Z</time></trkpt><trkpt lat="44.24907891713818" lon="11.542418331608504"><ele>184.0</ele><time>2026-04-25T08:40:16Z</time></trkpt><trkpt lat="44.24897104523481" lon="11.542301916451937"><ele>186.0</ele><time>2026-04-25T08:40:17Z</time></trkpt><trkpt lat="44.24885645487783" lon="11.542197093496739"><ele>188.0</ele><time>2026-04-25T08:40:18Z</time></trkpt><trkpt lat="44.24874880582907" lon="11.542101101797915"><ele>190.0</ele><time>2026-04-25T08:40:19Z</time></trkpt><trkpt lat="44.24866213303484" lon="11.54197381066226"><ele>192.0</ele><time>2026-04-25T08:40:20Z</time></trkpt><trkpt lat="44.24859364130682" lon="11.541824705539684"><ele>192.0</ele><time>2026-04-25T08:40:21Z</time></trkpt><trkpt lat="44.24853106507225" lon="11.541662598422871"><ele>192.0</ele><time>2026-04-25T08:40:22Z</time></trkpt><trkpt lat="44.248474786321374" lon="11.541494141008108"><ele>192.0</ele><time>2026-04-25T08:40:23Z</time></trkpt><trkpt lat="44.248425209786085" lon="11.541314775927802"><ele>192.0</ele><time>2026-04-25T08:40:24Z</time></trkpt><trkpt lat="44.24837608001527" lon="11.541131673515725"><ele>190.0</ele><time>2026-04-25T08:40:25Z</time></trkpt><trkpt lat="44.24832445108612" lon="11.540946846212247"><ele>188.0</ele><time>2026-04-25T08:40:26Z</time></trkpt><trkpt lat="44.2482698072739" lon="11.540764848209825"><ele>186.0</ele><time>2026-04-25T08:40:27Z</time></trkpt><trkpt lat="44.2482164288844" lon="11.540589147632746"><ele>184.0</ele><time>2026-04-25T08:40:28Z</time></trkpt><trkpt lat="44.24816542728603" lon="11.540418477320648"><ele>189.25</ele><time>2026-04-25T08:40:29Z</time></trkpt><trkpt lat="44.248118754117556" lon="11.540259306242426"><ele>194.5</ele><time>2026-04-25T08:40:30Z</time></trkpt><trkpt lat="44.248071645897944" lon="11.540103440988185"><ele>199.75</ele><time>2026-04-25T08:40:31Z</time></trkpt><trkpt lat="44.248021622104496" lon="11.53993763343563"><ele>205.0</ele><time>2026-04-25T08:40:32Z</time></trkpt><trkpt lat="44.247969601056155" lon="11.539766251240776"><ele>205.0</ele><time>2026-04-25T08:40:33Z</time></trkpt><trkpt lat="44.24791753821706" lon="11.539592614508624"><ele>205.0</ele><time>2026-04-25T08:40:34Z</time></trkpt><trkpt lat="44.24786457628" lon="11.5394194374066"><ele>205.0</ele><time>2026-04-25T08:40:35Z</time></trkpt><trkpt lat="44.247813692205035" lon="11.539249987673019"><ele>205.0</ele><time>2026-04-25T08:40:36Z</time></trkpt><trkpt lat="44.247763708301896" lon="11.539088207016157"><ele>202.0</ele><time>2026-04-25T08:40:37Z</time></trkpt><trkpt lat="44.247714498170275" lon="11.538921963664121"><ele>199.0</ele><time>2026-04-25T08:40:38Z</time></trkpt><trkpt lat="44.24766711277194" lon="11.538750916017788"><ele>196.0</ele><time>2026-04-25T08:40:39Z</time></trkpt><trkpt lat="44.24762320417888" lon="11.53858720684207"><ele>193.0</ele><time>2026-04-25T08:40:40Z</time></trkpt><trkpt lat="44.24758247980716" lon="11.538433667316045"><ele>191.5</ele><time>2026-04-25T08:40:41Z</time></trkpt><trkpt lat="44.24754494454022" lon="11.538277628395607"><ele>190.0</ele><time>2026-04-25T08:40:42Z</time></trkpt><trkpt lat="44.2475100295755" lon="11.53811562366509"><ele>188.5</ele><time>2026-04-25T08:40:43Z</time></trkpt><trkpt lat="44.24748204235291" lon="11.537957321215032"><ele>187.0</ele><time>2026-04-25T08:40:44Z</time></trkpt><trkpt lat="44.24743000021133" lon="11.537786302028346"><ele>186.33333333333334</ele><time>2026-04-25T08:40:45Z</time></trkpt><trkpt lat="44.24736996903936" lon="11.537614574588883"><ele>185.66666666666666</ele><time>2026-04-25T08:40:46Z</time></trkpt><trkpt lat="44.24728628804249" lon="11.537428177761528"><ele>185.0</ele><time>2026-04-25T08:40:47Z</time></trkpt><trkpt lat="44.24720252300901" lon="11.537232351193921"><ele>188.66666666666666</ele><time>2026-04-25T08:40:48Z</time></trkpt><trkpt lat="44.2471025537503" lon="11.536999951598766"><ele>192.33333333333331</ele><time>2026-04-25T08:40:49Z</time></trkpt><trkpt lat="44.24699367098377" lon="11.536782783027487"><ele>196.0</ele><time>2026-04-25T08:40:50Z</time></trkpt><trkpt lat="44.24689633925344" lon="11.536570906238508"><ele>196.0</ele><time>2026-04-25T08:40:51Z</time></trkpt><trkpt lat="44.24679731802365" lon="11.536349031652776"><ele>196.0</ele><time>2026-04-25T08:40:52Z</time></trkpt><trkpt lat="44.246697956574934" lon="11.536124118980192"><ele>196.0</ele><time>2026-04-25T08:40:53Z</time></trkpt><trkpt lat="44.24660248776185" lon="11.535886191852066"><ele>199.0</ele><time>2026-04-25T08:40:54Z</time></trkpt><trkpt lat="44.246485187825854" lon="11.535621499881154"><ele>202.0</ele><time>2026-04-25T08:40:55Z</time></trkpt><trkpt lat="44.24635339001622" lon="11.535339557125035"><ele>202.0</ele><time>2026-04-25T08:40:56Z</time></trkpt><trkpt lat="44.24619369370621" lon="11.535076667705212"><ele>202.0</ele><time>2026-04-25T08:40:57Z</time></trkpt><trkpt lat="44.246048903313714" lon="11.534783638961372"><ele>196.5</ele><time>2026-04-25T08:40:58Z</time></trkpt><trkpt lat="44.24589773632942" lon="11.534458875376842"><ele>191.0</ele><time>2026-04-25T08:40:59Z</time></trkpt><trkpt lat="44.24575057350692" lon="11.534117181049792"><ele>199.5</ele><time>2026-04-25T08:41:00Z</time></trkpt><trkpt lat="44.24559882163091" lon="11.53376350144619"><ele>208.0</ele><time>2026-04-25T08:41:01Z</time></trkpt><trkpt lat="44.24543651443792" lon="11.533426004417876"><ele>208.0</ele><time>2026-04-25T08:41:02Z</time></trkpt><trkpt lat="44.24528921901053" lon="11.53311887661144"><ele>208.0</ele><time>2026-04-25T08:41:03Z</time></trkpt><trkpt lat="44.245149238093184" lon="11.532829925817326"><ele>205.0</ele><time>2026-04-25T08:41:04Z</time></trkpt><trkpt lat="44.245018992221965" lon="11.532559158576873"><ele>202.0</ele><time>2026-04-25T08:41:05Z</time></trkpt><trkpt lat="44.24489194329454" lon="11.53230117942175"><ele>204.0</ele><time>2026-04-25T08:41:06Z</time></trkpt><trkpt lat="44.24474486353374" lon="11.532038775771891"><ele>206.0</ele><time>2026-04-25T08:41:07Z</time></trkpt><trkpt lat="44.2445823772409" lon="11.531760013192475"><ele>206.0</ele><time>2026-04-25T08:41:08Z</time></trkpt><trkpt lat="44.24440906953304" lon="11.531470946054405"><ele>206.0</ele><time>2026-04-25T08:41:09Z</time></trkpt><trkpt lat="44.24423729875274" lon="11.531177060036626"><ele>206.5</ele><time>2026-04-25T08:41:10Z</time></trkpt><trkpt lat="44.24406255856215" lon="11.530876191895285"><ele>207.0</ele><time>2026-04-25T08:41:11Z</time></trkpt><trkpt lat="44.2438874004073" lon="11.530576097586366"><ele>206.0</ele><time>2026-04-25T08:41:12Z</time></trkpt><trkpt lat="44.24371952320642" lon="11.530290324456788"><ele>205.0</ele><time>2026-04-25T08:41:13Z</time></trkpt><trkpt lat="44.24356494507103" lon="11.530028425416461"><ele>205.0</ele><time>2026-04-25T08:41:14Z</time></trkpt><trkpt lat="44.24342026821031" lon="11.529781252088114"><ele>205.0</ele><time>2026-04-25T08:41:15Z</time></trkpt><trkpt lat="44.2432905433747" lon="11.529560831758925"><ele>205.0</ele><time>2026-04-25T08:41:16Z</time></trkpt><trkpt lat="44.2431755953167" lon="11.529361537155848"><ele>204.0</ele><time>2026-04-25T08:41:17Z</time></trkpt><trkpt lat="44.24306737615485" lon="11.529175851621174"><ele>203.0</ele><time>2026-04-25T08:41:18Z</time></trkpt><trkpt lat="44.242968581909125" lon="11.529026691775186"><ele>202.0</ele><time>2026-04-25T08:41:19.001Z</time></trkpt><trkpt lat="44.242882376958846" lon="11.528860193603533"><ele>198.5</ele><time>2026-04-25T08:41:20.001Z</time></trkpt><trkpt lat="44.24280527497214" lon="11.528719563347295"><ele>195.0</ele><time>2026-04-25T08:41:21.001Z</time></trkpt><trkpt lat="44.24274678305582" lon="11.528572966704115"><ele>191.5</ele><time>2026-04-25T08:41:22.001Z</time></trkpt><trkpt lat="44.24271774342839" lon="11.528407897380006"><ele>188.0</ele><time>2026-04-25T08:41:23.001Z</time></trkpt><trkpt lat="44.24277207211318" lon="11.528196924546865"><ele>188.0</ele><time>2026-04-25T08:41:24.001Z</time></trkpt><trkpt lat="44.2428146388798" lon="11.52791240202197"><ele>188.0</ele><time>2026-04-25T08:41:25.001Z</time></trkpt><trkpt lat="44.24288117932436" lon="11.527621550362882"><ele>188.0</ele><time>2026-04-25T08:41:26.001Z</time></trkpt><trkpt lat="44.242936167780115" lon="11.527340368168865"><ele>189.66666666666666</ele><time>2026-04-25T08:41:27.001Z</time></trkpt><trkpt lat="44.242992750517686" lon="11.527054368308587"><ele>191.33333333333331</ele><time>2026-04-25T08:41:28.001Z</time></trkpt><trkpt lat="44.24304522586766" lon="11.526753598711677"><ele>193.0</ele><time>2026-04-25T08:41:29.001Z</time></trkpt><trkpt lat="44.24309649142651" lon="11.526477461599669"><ele>192.66666666666666</ele><time>2026-04-25T08:41:30.001Z</time></trkpt><trkpt lat="44.24313871338692" lon="11.526225566833656"><ele>192.33333333333331</ele><time>2026-04-25T08:41:31.001Z</time></trkpt><trkpt lat="44.24314807389288" lon="11.525969873030316"><ele>192.0</ele><time>2026-04-25T08:41:32.001Z</time></trkpt><trkpt lat="44.243114597144185" lon="11.525715304004462"><ele>193.33333333333331</ele><time>2026-04-25T08:41:33.001Z</time></trkpt><trkpt lat="44.24306029880739" lon="11.525452558278669"><ele>194.66666666666666</ele><time>2026-04-25T08:41:34.001Z</time></trkpt><trkpt lat="44.24296408838021" lon="11.525211433427788"><ele>196.0</ele><time>2026-04-25T08:41:35.001Z</time></trkpt><trkpt lat="44.24284404429537" lon="11.525011932397328"><ele>196.0</ele><time>2026-04-25T08:41:36.001Z</time></trkpt><trkpt lat="44.24269038443932" lon="11.524857698058822"><ele>196.0</ele><time>2026-04-25T08:41:37.001Z</time></trkpt><trkpt lat="44.242516181554706" lon="11.524736840526806"><ele>196.0</ele><time>2026-04-25T08:41:38.001Z</time></trkpt><trkpt lat="44.2423099473834" lon="11.524616390803375"><ele>195.5</ele><time>2026-04-25T08:41:39Z</time></trkpt><trkpt lat="44.24210221190742" lon="11.52448504934977"><ele>195.0</ele><time>2026-04-25T08:41:40Z</time></trkpt><trkpt lat="44.24190251208785" lon="11.524298629419043"><ele>195.0</ele><time>2026-04-25T08:41:41Z</time></trkpt><trkpt lat="44.241716930410625" lon="11.524051101288222"><ele>195.0</ele><time>2026-04-25T08:41:42Z</time></trkpt><trkpt lat="44.2415242691544" lon="11.523786498918367"><ele>193.0</ele><time>2026-04-25T08:41:43Z</time></trkpt><trkpt lat="44.241351182062346" lon="11.523526100436449"><ele>191.0</ele><time>2026-04-25T08:41:44Z</time></trkpt><trkpt lat="44.24119950865721" lon="11.52330955737076"><ele>191.0</ele><time>2026-04-25T08:41:45Z</time></trkpt><trkpt lat="44.24108003571717" lon="11.523151699729793"><ele>191.0</ele><time>2026-04-25T08:41:46Z</time></trkpt><trkpt lat="44.24096973939241" lon="11.523041561691764"><ele>191.0</ele><time>2026-04-25T08:41:47Z</time></trkpt><trkpt lat="44.24084299565545" lon="11.522985249516019"><ele>191.0</ele><time>2026-04-25T08:41:48Z</time></trkpt><trkpt lat="44.24068028513568" lon="11.522992777555062"><ele>191.0</ele><time>2026-04-25T08:41:49Z</time></trkpt><trkpt lat="44.24048025142" lon="11.52305770775004"><ele>191.0</ele><time>2026-04-25T08:41:50Z</time></trkpt><trkpt lat="44.24027902589956" lon="11.523172254193431"><ele>191.0</ele><time>2026-04-25T08:41:51Z</time></trkpt><trkpt lat="44.24011192881531" lon="11.523287957003795"><ele>191.0</ele><time>2026-04-25T08:41:52Z</time></trkpt><trkpt lat="44.23997144313851" lon="11.52335092345494"><ele>191.0</ele><time>2026-04-25T08:41:53Z</time></trkpt><trkpt lat="44.23983791475464" lon="11.523323147366535"><ele>191.0</ele><time>2026-04-25T08:41:54Z</time></trkpt><trkpt lat="44.23969828737007" lon="11.523209865129022"><ele>191.0</ele><time>2026-04-25T08:41:55Z</time></trkpt><trkpt lat="44.23956404456223" lon="11.523008760659282"><ele>189.33333333333331</ele><time>2026-04-25T08:41:56Z</time></trkpt><trkpt lat="44.23941669007174" lon="11.522762282703612"><ele>187.66666666666666</ele><time>2026-04-25T08:41:57Z</time></trkpt><trkpt lat="44.239279163764785" lon="11.522529232149637"><ele>186.0</ele><time>2026-04-25T08:41:58Z</time></trkpt><trkpt lat="44.23916827862096" lon="11.522294194297416"><ele>188.66666666666669</ele><time>2026-04-25T08:41:59Z</time></trkpt><trkpt lat="44.239078261466446" lon="11.52204985701051"><ele>191.33333333333334</ele><time>2026-04-25T08:42:00Z</time></trkpt><trkpt lat="44.23897794257671" lon="11.521848131023997"><ele>194.0</ele><time>2026-04-25T08:42:01Z</time></trkpt><trkpt lat="44.23883765737752" lon="11.521669588516431"><ele>194.0</ele><time>2026-04-25T08:42:02Z</time></trkpt><trkpt lat="44.2387016132074" lon="11.521495718611215"><ele>194.0</ele><time>2026-04-25T08:42:03Z</time></trkpt><trkpt lat="44.23859962904231" lon="11.521349295273529"><ele>194.0</ele><time>2026-04-25T08:42:04Z</time></trkpt><trkpt lat="44.23852162786377" lon="11.521184063688251"><ele>193.33333333333334</ele><time>2026-04-25T08:42:05Z</time></trkpt><trkpt lat="44.238442647024705" lon="11.52102337915578"><ele>192.66666666666669</ele><time>2026-04-25T08:42:06Z</time></trkpt><trkpt lat="44.238305275215716" lon="11.520858678808349"><ele>192.0</ele><time>2026-04-25T08:42:07Z</time></trkpt><trkpt lat="44.23813080937796" lon="11.520750333631264"><ele>192.0</ele><time>2026-04-25T08:42:08Z</time></trkpt><trkpt lat="44.23796061693568" lon="11.520635567451293"><ele>192.0</ele><time>2026-04-25T08:42:09Z</time></trkpt><trkpt lat="44.23780422368677" lon="11.520525013493241"><ele>192.0</ele><time>2026-04-25T08:42:10Z</time></trkpt><trkpt lat="44.237678131303255" lon="11.520333686705516"><ele>185.0</ele><time>2026-04-25T08:42:11Z</time></trkpt><trkpt lat="44.23758853207544" lon="11.520128093601206"><ele>178.0</ele><time>2026-04-25T08:42:12Z</time></trkpt><trkpt lat="44.237512976159714" lon="11.51993876158516"><ele>171.0</ele><time>2026-04-25T08:42:13Z</time></trkpt><trkpt lat="44.23742066679951" lon="11.519811228915938"><ele>172.33333333333334</ele><time>2026-04-25T08:42:14Z</time></trkpt><trkpt lat="44.23727784711631" lon="11.519729788814468"><ele>173.66666666666669</ele><time>2026-04-25T08:42:15Z</time></trkpt><trkpt lat="44.237108003107814" lon="11.519702257481384"><ele>175.0</ele><time>2026-04-25T08:42:16Z</time></trkpt><trkpt lat="44.2369418836815" lon="11.519688721100653"><ele>175.0</ele><time>2026-04-25T08:42:17Z</time></trkpt><trkpt lat="44.236780741553765" lon="11.51960037274567"><ele>175.0</ele><time>2026-04-25T08:42:18Z</time></trkpt><trkpt lat="44.236613526353075" lon="11.519414112571313"><ele>175.0</ele><time>2026-04-25T08:42:19Z</time></trkpt><trkpt lat="44.23643444442165" lon="11.519180707475483"><ele>172.0</ele><time>2026-04-25T08:42:20Z</time></trkpt><trkpt lat="44.23625319635714" lon="11.518959614935417"><ele>169.0</ele><time>2026-04-25T08:42:21Z</time></trkpt><trkpt lat="44.23607820414912" lon="11.518752019170492"><ele>165.5</ele><time>2026-04-25T08:42:22Z</time></trkpt><trkpt lat="44.23589531687166" lon="11.518551282588264"><ele>162.0</ele><time>2026-04-25T08:42:23Z</time></trkpt><trkpt lat="44.23571337272557" lon="11.51835209037643"><ele>163.66666666666666</ele><time>2026-04-25T08:42:24Z</time></trkpt><trkpt lat="44.23554305454516" lon="11.518163254771702"><ele>165.33333333333331</ele><time>2026-04-25T08:42:25Z</time></trkpt><trkpt lat="44.2353892379093" lon="11.517990741287035"><ele>167.0</ele><time>2026-04-25T08:42:26Z</time></trkpt><trkpt lat="44.235251969139924" lon="11.517832670562509"><ele>167.0</ele><time>2026-04-25T08:42:27Z</time></trkpt><trkpt lat="44.23512181725301" lon="11.517678879962315"><ele>167.0</ele><time>2026-04-25T08:42:28Z</time></trkpt><trkpt lat="44.234998081334595" lon="11.517567987380383"><ele>167.0</ele><time>2026-04-25T08:42:29Z</time></trkpt><trkpt lat="44.234888214284105" lon="11.517447382435646"><ele>171.25</ele><time>2026-04-25T08:42:30Z</time></trkpt><trkpt lat="44.23478665613174" lon="11.517327532459536"><ele>175.5</ele><time>2026-04-25T08:42:31Z</time></trkpt><trkpt lat="44.2347068626465" lon="11.517190207527047"><ele>179.75</ele><time>2026-04-25T08:42:32Z</time></trkpt><trkpt lat="44.23464080088719" lon="11.517041537988273"><ele>184.0</ele><time>2026-04-25T08:42:33Z</time></trkpt><trkpt lat="44.23460510529436" lon="11.516887751394469"><ele>184.0</ele><time>2026-04-25T08:42:34Z</time></trkpt><trkpt lat="44.234575452580536" lon="11.516741010613398"><ele>184.0</ele><time>2026-04-25T08:42:35Z</time></trkpt><trkpt lat="44.23454233495718" lon="11.516589826425612"><ele>184.0</ele><time>2026-04-25T08:42:36Z</time></trkpt><trkpt lat="44.234517549229956" lon="11.51645705087643"><ele>184.0</ele><time>2026-04-25T08:42:37Z</time></trkpt><trkpt lat="44.234503155655354" lon="11.516326833608451"><ele>184.0</ele><time>2026-04-25T08:42:38Z</time></trkpt><trkpt lat="44.234492865254865" lon="11.516187824792944"><ele>183.0</ele><time>2026-04-25T08:42:39Z</time></trkpt><trkpt lat="44.23447785047997" lon="11.516020458942236"><ele>182.0</ele><time>2026-04-25T08:42:40Z</time></trkpt><trkpt lat="44.23446065149018" lon="11.515843733407635"><ele>181.0</ele><time>2026-04-25T08:42:41Z</time></trkpt><trkpt lat="44.234442483385756" lon="11.515656545821892"><ele>180.0</ele><time>2026-04-25T08:42:42Z</time></trkpt><trkpt lat="44.23439165777623" lon="11.5154647381572"><ele>179.25</ele><time>2026-04-25T08:42:43Z</time></trkpt><trkpt lat="44.234342390376845" lon="11.51525979812033"><ele>178.5</ele><time>2026-04-25T08:42:44Z</time></trkpt><trkpt lat="44.234291176026204" lon="11.515086761844849"><ele>177.75</ele><time>2026-04-25T08:42:45Z</time></trkpt><trkpt lat="44.23423975911334" lon="11.514932240272884"><ele>177.0</ele><time>2026-04-25T08:42:46Z</time></trkpt><trkpt lat="44.23420772179112" lon="11.514769364543133"><ele>177.0</ele><time>2026-04-25T08:42:47Z</time></trkpt><trkpt lat="44.234166823808515" lon="11.514612117605035"><ele>177.0</ele><time>2026-04-25T08:42:48Z</time></trkpt><trkpt lat="44.23414547891379" lon="11.514465885293186"><ele>177.0</ele><time>2026-04-25T08:42:49Z</time></trkpt><trkpt lat="44.23414127456728" lon="11.514320923691885"><ele>177.0</ele><time>2026-04-25T08:42:50Z</time></trkpt><trkpt lat="44.23413424504148" lon="11.514171372708862"><ele>177.0</ele><time>2026-04-25T08:42:51Z</time></trkpt><trkpt lat="44.23412532398301" lon="11.514010193526364"><ele>176.5</ele><time>2026-04-25T08:42:52Z</time></trkpt><trkpt lat="44.23411374475963" lon="11.51384481313873"><ele>176.0</ele><time>2026-04-25T08:42:53Z</time></trkpt><trkpt lat="44.23409001509502" lon="11.513681606814945"><ele>175.5</ele><time>2026-04-25T08:42:54Z</time></trkpt><trkpt lat="44.234041841245265" lon="11.513512548030894"><ele>175.0</ele><time>2026-04-25T08:42:55Z</time></trkpt><trkpt lat="44.23394159291633" lon="11.513340473152832"><ele>175.0</ele><time>2026-04-25T08:42:56Z</time></trkpt><trkpt lat="44.23381717244221" lon="11.513199239021132"><ele>175.0</ele><time>2026-04-25T08:42:57Z</time></trkpt><trkpt lat="44.23370289346354" lon="11.513065954185365"><ele>175.0</ele><time>2026-04-25T08:42:58Z</time></trkpt><trkpt lat="44.23354067019126" lon="11.512934950677245"><ele>173.33333333333334</ele><time>2026-04-25T08:42:59Z</time></trkpt><trkpt lat="44.233386356655004" lon="11.512806633000121"><ele>171.66666666666666</ele><time>2026-04-25T08:43:00Z</time></trkpt><trkpt lat="44.233229492567155" lon="11.512667347863161"><ele>170.0</ele><time>2026-04-25T08:43:01Z</time></trkpt><trkpt lat="44.23307208458609" lon="11.512519077081704"><ele>170.0</ele><time>2026-04-25T08:43:02Z</time></trkpt><trkpt lat="44.23291084110029" lon="11.512379146725202"><ele>170.0</ele><time>2026-04-25T08:43:03Z</time></trkpt><trkpt lat="44.23275461885157" lon="11.512243424217298"><ele>170.0</ele><time>2026-04-25T08:43:04Z</time></trkpt><trkpt lat="44.23259117630438" lon="11.512108318555311"><ele>169.0</ele><time>2026-04-25T08:43:05Z</time></trkpt><trkpt lat="44.23243703041602" lon="11.511971341819978"><ele>168.0</ele><time>2026-04-25T08:43:06Z</time></trkpt><trkpt lat="44.23228683110967" lon="11.51183151572193"><ele>167.0</ele><time>2026-04-25T08:43:07Z</time></trkpt><trkpt lat="44.23214388815574" lon="11.51169842837417"><ele>167.0</ele><time>2026-04-25T08:43:08Z</time></trkpt><trkpt lat="44.231996228542705" lon="11.511568282581239"><ele>167.0</ele><time>2026-04-25T08:43:09Z</time></trkpt><trkpt lat="44.23184776537494" lon="11.511432114651372"><ele>167.0</ele><time>2026-04-25T08:43:10Z</time></trkpt><trkpt lat="44.23169414609405" lon="11.511291229975274"><ele>166.66666666666666</ele><time>2026-04-25T08:43:11Z</time></trkpt><trkpt lat="44.23152385928039" lon="11.511138300681823"><ele>166.33333333333334</ele><time>2026-04-25T08:43:12Z</time></trkpt><trkpt lat="44.231342651464466" lon="11.510970068234665"><ele>166.0</ele><time>2026-04-25T08:43:13Z</time></trkpt><trkpt lat="44.23115641461103" lon="11.510776810711896"><ele>168.5</ele><time>2026-04-25T08:43:14Z</time></trkpt><trkpt lat="44.23095791168292" lon="11.51059197737122"><ele>171.0</ele><time>2026-04-25T08:43:15Z</time></trkpt><trkpt lat="44.23075645846888" lon="11.510404976672625"><ele>170.0</ele><time>2026-04-25T08:43:16Z</time></trkpt><trkpt lat="44.23053963626134" lon="11.510205341304639"><ele>169.0</ele><time>2026-04-25T08:43:17Z</time></trkpt><trkpt lat="44.2303433201888" lon="11.510024585123494"><ele>169.0</ele><time>2026-04-25T08:43:18Z</time></trkpt><trkpt lat="44.230172484095625" lon="11.509867028554421"><ele>169.0</ele><time>2026-04-25T08:43:19Z</time></trkpt><trkpt lat="44.2300318751588" lon="11.50973712397743"><ele>169.0</ele><time>2026-04-25T08:43:20Z</time></trkpt><trkpt lat="44.2299108023105" lon="11.50962203453196"><ele>169.75</ele><time>2026-04-25T08:43:21Z</time></trkpt><trkpt lat="44.229794770724894" lon="11.509514036059796"><ele>170.5</ele><time>2026-04-25T08:43:22Z</time></trkpt><trkpt lat="44.229692572235535" lon="11.509444081229537"><ele>171.25</ele><time>2026-04-25T08:43:23Z</time></trkpt><trkpt lat="44.22957598068911" lon="11.509338743389645"><ele>172.0</ele><time>2026-04-25T08:43:24Z</time></trkpt><trkpt lat="44.229462011351586" lon="11.509204031804206"><ele>172.0</ele><time>2026-04-25T08:43:25Z</time></trkpt><trkpt lat="44.229349611326036" lon="11.509098159774176"><ele>172.0</ele><time>2026-04-25T08:43:26Z</time></trkpt><trkpt lat="44.229233465970744" lon="11.509014519557237"><ele>172.0</ele><time>2026-04-25T08:43:27Z</time></trkpt><trkpt lat="44.22913664661868" lon="11.508903398191952"><ele>172.0</ele><time>2026-04-25T08:43:28Z</time></trkpt><trkpt lat="44.22902632630354" lon="11.508786828379584"><ele>172.66666666666669</ele><time>2026-04-25T08:43:29Z</time></trkpt><trkpt lat="44.22890632742855" lon="11.508659149980929"><ele>173.33333333333334</ele><time>2026-04-25T08:43:30Z</time></trkpt><trkpt lat="44.22878324210672" lon="11.508516281158196"><ele>174.0</ele><time>2026-04-25T08:43:31Z</time></trkpt><trkpt lat="44.22866498610035" lon="11.508380940209834"><ele>174.0</ele><time>2026-04-25T08:43:32Z</time></trkpt><trkpt lat="44.22855211176154" lon="11.508260779272984"><ele>174.0</ele><time>2026-04-25T08:43:33Z</time></trkpt><trkpt lat="44.22844966998387" lon="11.508136368397613"><ele>174.0</ele><time>2026-04-25T08:43:34Z</time></trkpt><trkpt lat="44.22835081436577" lon="11.50801760824041"><ele>174.0</ele><time>2026-04-25T08:43:35Z</time></trkpt><trkpt lat="44.22825685398841" lon="11.507907103122502"><ele>172.5</ele><time>2026-04-25T08:43:36Z</time></trkpt><trkpt lat="44.2281683683173" lon="11.507809057057237"><ele>171.0</ele><time>2026-04-25T08:43:37Z</time></trkpt><trkpt lat="44.22808646201644" lon="11.507711524206337"><ele>169.5</ele><time>2026-04-25T08:43:38Z</time></trkpt><trkpt lat="44.228005617815036" lon="11.50759624813085"><ele>168.0</ele><time>2026-04-25T08:43:39Z</time></trkpt><trkpt lat="44.22793901310121" lon="11.50743333238696"><ele>172.33333333333334</ele><time>2026-04-25T08:43:40.001Z</time></trkpt><trkpt lat="44.22791392413163" lon="11.507223194242393"><ele>176.66666666666669</ele><time>2026-04-25T08:43:41.001Z</time></trkpt><trkpt lat="44.22787066912962" lon="11.50700735598543"><ele>181.0</ele><time>2026-04-25T08:43:42.001Z</time></trkpt><trkpt lat="44.22784641995439" lon="11.506778333133395"><ele>181.0</ele><time>2026-04-25T08:43:43.001Z</time></trkpt><trkpt lat="44.22781314485776" lon="11.506555804717394"><ele>181.0</ele><time>2026-04-25T08:43:44.001Z</time></trkpt><trkpt lat="44.22777159331806" lon="11.506340053111419"><ele>181.0</ele><time>2026-04-25T08:43:45Z</time></trkpt><trkpt lat="44.2277226044318" lon="11.506142523307712"><ele>181.75</ele><time>2026-04-25T08:43:46Z</time></trkpt><trkpt lat="44.227655192617625" lon="11.50596984564987"><ele>182.5</ele><time>2026-04-25T08:43:47Z</time></trkpt><trkpt lat="44.22756184075809" lon="11.505822886199558"><ele>183.25</ele><time>2026-04-25T08:43:48Z</time></trkpt><trkpt lat="44.22743944687437" lon="11.50569459853354"><ele>184.0</ele><time>2026-04-25T08:43:49Z</time></trkpt><trkpt lat="44.22729340168756" lon="11.505595149076745"><ele>184.0</ele><time>2026-04-25T08:43:50Z</time></trkpt><trkpt lat="44.22713010773217" lon="11.50549641526194"><ele>184.0</ele><time>2026-04-25T08:43:51Z</time></trkpt><trkpt lat="44.22695038013533" lon="11.50540482354223"><ele>184.0</ele><time>2026-04-25T08:43:52Z</time></trkpt><trkpt lat="44.226781137019934" lon="11.505341046529386"><ele>180.66666666666669</ele><time>2026-04-25T08:43:53Z</time></trkpt><trkpt lat="44.2266255585947" lon="11.505296080290567"><ele>177.33333333333334</ele><time>2026-04-25T08:43:54Z</time></trkpt><trkpt lat="44.2264781050792" lon="11.50525604996642"><ele>174.0</ele><time>2026-04-25T08:43:55Z</time></trkpt><trkpt lat="44.226331559789095" lon="11.50521734270801"><ele>174.0</ele><time>2026-04-25T08:43:56Z</time></trkpt><trkpt lat="44.22619253576501" lon="11.505174028143312"><ele>174.0</ele><time>2026-04-25T08:43:57Z</time></trkpt><trkpt lat="44.22605582013665" lon="11.505134731700602"><ele>174.0</ele><time>2026-04-25T08:43:58Z</time></trkpt><trkpt lat="44.2259151175512" lon="11.505090691810192"><ele>174.0</ele><time>2026-04-25T08:43:59Z</time></trkpt><trkpt lat="44.22577414955483" lon="11.505043708301512"><ele>177.66666666666666</ele><time>2026-04-25T08:44:00Z</time></trkpt><trkpt lat="44.22562848650053" lon="11.505003314131299"><ele>181.33333333333331</ele><time>2026-04-25T08:44:01Z</time></trkpt><trkpt lat="44.225481250969544" lon="11.504955618282608"><ele>185.0</ele><time>2026-04-25T08:44:02Z</time></trkpt><trkpt lat="44.22532765544053" lon="11.504911745013077"><ele>185.0</ele><time>2026-04-25T08:44:03Z</time></trkpt><trkpt lat="44.22517073299924" lon="11.504865855129148"><ele>185.0</ele><time>2026-04-25T08:44:04Z</time></trkpt><trkpt lat="44.22502245594481" lon="11.504820506193996"><ele>185.0</ele><time>2026-04-25T08:44:05Z</time></trkpt><trkpt lat="44.224868853116405" lon="11.504778950978036"><ele>187.66666666666666</ele><time>2026-04-25T08:44:06Z</time></trkpt><trkpt lat="44.22470690663872" lon="11.504728193164114"><ele>190.33333333333331</ele><time>2026-04-25T08:44:07Z</time></trkpt><trkpt lat="44.22454686010586" lon="11.504657917745762"><ele>193.0</ele><time>2026-04-25T08:44:08Z</time></trkpt><trkpt lat="44.22438249503539" lon="11.504603818391256"><ele>187.33333333333331</ele><time>2026-04-25T08:44:09Z</time></trkpt><trkpt lat="44.22420211042695" lon="11.504550076578175"><ele>181.66666666666666</ele><time>2026-04-25T08:44:10Z</time></trkpt><trkpt lat="44.224018984420105" lon="11.504496094675218"><ele>176.0</ele><time>2026-04-25T08:44:11Z</time></trkpt><trkpt lat="44.22384221690351" lon="11.504443974495933"><ele>176.0</ele><time>2026-04-25T08:44:12Z</time></trkpt><trkpt lat="44.22367647536515" lon="11.504398786727583"><ele>176.0</ele><time>2026-04-25T08:44:13Z</time></trkpt><trkpt lat="44.22351087558144" lon="11.504353023302913"><ele>176.0</ele><time>2026-04-25T08:44:14Z</time></trkpt><trkpt lat="44.223347179160214" lon="11.504315595410683"><ele>176.0</ele><time>2026-04-25T08:44:15Z</time></trkpt><trkpt lat="44.2231766559198" lon="11.5043023470956"><ele>176.0</ele><time>2026-04-25T08:44:16Z</time></trkpt><trkpt lat="44.223001751517145" lon="11.504318140148973"><ele>176.0</ele><time>2026-04-25T08:44:17Z</time></trkpt><trkpt lat="44.22284360739679" lon="11.50436132233646"><ele>174.75</ele><time>2026-04-25T08:44:18Z</time></trkpt><trkpt lat="44.222706402125056" lon="11.504425910883988"><ele>173.5</ele><time>2026-04-25T08:44:19Z</time></trkpt><trkpt lat="44.22258255094034" lon="11.504468695851894"><ele>172.25</ele><time>2026-04-25T08:44:20Z</time></trkpt><trkpt lat="44.22245892684156" lon="11.504485214836594"><ele>171.0</ele><time>2026-04-25T08:44:21Z</time></trkpt><trkpt lat="44.2223316488245" lon="11.504454377588921"><ele>171.25</ele><time>2026-04-25T08:44:22Z</time></trkpt><trkpt lat="44.22222366672046" lon="11.50434724198426"><ele>171.5</ele><time>2026-04-25T08:44:23Z</time></trkpt><trkpt lat="44.22209324943468" lon="11.504246312254534"><ele>171.75</ele><time>2026-04-25T08:44:24Z</time></trkpt><trkpt lat="44.22196495592983" lon="11.504111974931748"><ele>172.0</ele><time>2026-04-25T08:44:25Z</time></trkpt><trkpt lat="44.22183194859217" lon="11.503999142020401"><ele>172.0</ele><time>2026-04-25T08:44:26Z</time></trkpt><trkpt lat="44.2217073233387" lon="11.50391934362944"><ele>172.0</ele><time>2026-04-25T08:44:27Z</time></trkpt><trkpt lat="44.221610644377435" lon="11.503827750848709"><ele>172.0</ele><time>2026-04-25T08:44:28Z</time></trkpt><trkpt lat="44.22150803400841" lon="11.503778597567896"><ele>172.0</ele><time>2026-04-25T08:44:29Z</time></trkpt><trkpt lat="44.22138517625267" lon="11.503788738191346"><ele>174.33333333333334</ele><time>2026-04-25T08:44:30Z</time></trkpt><trkpt lat="44.2212474056054" lon="11.50385668201573"><ele>176.66666666666666</ele><time>2026-04-25T08:44:31Z</time></trkpt><trkpt lat="44.22110368179823" lon="11.503971724590413"><ele>179.0</ele><time>2026-04-25T08:44:32Z</time></trkpt><trkpt lat="44.22095318176076" lon="11.504086046116063"><ele>179.0</ele><time>2026-04-25T08:44:33Z</time></trkpt><trkpt lat="44.22080414064687" lon="11.504186618124747"><ele>179.0</ele><time>2026-04-25T08:44:34Z</time></trkpt><trkpt lat="44.22064309607609" lon="11.50428155140036"><ele>179.0</ele><time>2026-04-25T08:44:35Z</time></trkpt><trkpt lat="44.220481509348815" lon="11.504362356537136"><ele>179.66666666666666</ele><time>2026-04-25T08:44:36Z</time></trkpt><trkpt lat="44.22030626075645" lon="11.504460316016035"><ele>180.33333333333334</ele><time>2026-04-25T08:44:37Z</time></trkpt><trkpt lat="44.220134444397765" lon="11.504561226882782"><ele>181.0</ele><time>2026-04-25T08:44:38Z</time></trkpt><trkpt lat="44.21997240284767" lon="11.504654682553706"><ele>181.0</ele><time>2026-04-25T08:44:39Z</time></trkpt><trkpt lat="44.219826098001946" lon="11.504743461926644"><ele>181.0</ele><time>2026-04-25T08:44:40Z</time></trkpt><trkpt lat="44.2196911808916" lon="11.504822920478304"><ele>181.0</ele><time>2026-04-25T08:44:41Z</time></trkpt><trkpt lat="44.21955541826159" lon="11.504896372546671"><ele>183.25</ele><time>2026-04-25T08:44:42Z</time></trkpt><trkpt lat="44.21942285493295" lon="11.504973551791231"><ele>185.5</ele><time>2026-04-25T08:44:43Z</time></trkpt><trkpt lat="44.219289947231836" lon="11.50504207614912"><ele>187.75</ele><time>2026-04-25T08:44:44Z</time></trkpt><trkpt lat="44.21915725729141" lon="11.505121359187408"><ele>190.0</ele><time>2026-04-25T08:44:45Z</time></trkpt><trkpt lat="44.21903058102962" lon="11.50519789998474"><ele>191.0</ele><time>2026-04-25T08:44:46Z</time></trkpt><trkpt lat="44.218909129701544" lon="11.505272199127292"><ele>192.0</ele><time>2026-04-25T08:44:47Z</time></trkpt><trkpt lat="44.21878733689679" lon="11.505315793898493"><ele>193.0</ele><time>2026-04-25T08:44:48Z</time></trkpt><trkpt lat="44.21865447944927" lon="11.505268157491791"><ele>194.0</ele><time>2026-04-25T08:44:49Z</time></trkpt><trkpt lat="44.21851542595211" lon="11.505248087685324"><ele>194.0</ele><time>2026-04-25T08:44:50Z</time></trkpt><trkpt lat="44.218376985395196" lon="11.505200753998098"><ele>194.0</ele><time>2026-04-25T08:44:51Z</time></trkpt><trkpt lat="44.218236000322" lon="11.50516072034804"><ele>194.0</ele><time>2026-04-25T08:44:52Z</time></trkpt><trkpt lat="44.218092110946024" lon="11.50512290968312"><ele>194.0</ele><time>2026-04-25T08:44:53Z</time></trkpt><trkpt lat="44.217946876989764" lon="11.505074095742415"><ele>193.75</ele><time>2026-04-25T08:44:54Z</time></trkpt><trkpt lat="44.21781249205265" lon="11.505038732560756"><ele>193.5</ele><time>2026-04-25T08:44:55Z</time></trkpt><trkpt lat="44.217697256273055" lon="11.505000951031885"><ele>193.25</ele><time>2026-04-25T08:44:56Z</time></trkpt><trkpt lat="44.2175849958567" lon="11.504941567463815"><ele>193.0</ele><time>2026-04-25T08:44:57Z</time></trkpt><trkpt lat="44.21750825288301" lon="11.504802797516435"><ele>193.0</ele><time>2026-04-25T08:44:58Z</time></trkpt><trkpt lat="44.217492772560114" lon="11.504591345315225"><ele>193.0</ele><time>2026-04-25T08:44:59Z</time></trkpt><trkpt lat="44.21746365219359" lon="11.504376973371512"><ele>193.0</ele><time>2026-04-25T08:45:00Z</time></trkpt><trkpt lat="44.21742783579038" lon="11.504167743142489"><ele>194.60000000000002</ele><time>2026-04-25T08:45:01Z</time></trkpt><trkpt lat="44.2174070401161" lon="11.5039883009788"><ele>196.20000000000002</ele><time>2026-04-25T08:45:02Z</time></trkpt><trkpt lat="44.21738084449066" lon="11.50383574586874"><ele>197.8</ele><time>2026-04-25T08:45:03Z</time></trkpt><trkpt lat="44.2173594575436" lon="11.5036911446416"><ele>199.4</ele><time>2026-04-25T08:45:04Z</time></trkpt><trkpt lat="44.21734213072263" lon="11.503552515275954"><ele>201.0</ele><time>2026-04-25T08:45:05Z</time></trkpt><trkpt lat="44.217328641694664" lon="11.503421094374607"><ele>201.0</ele><time>2026-04-25T08:45:06Z</time></trkpt><trkpt lat="44.217314722258834" lon="11.503308835369124"><ele>201.0</ele><time>2026-04-25T08:45:07Z</time></trkpt><trkpt lat="44.217286597340625" lon="11.503213446965333"><ele>201.0</ele><time>2026-04-25T08:45:08Z</time></trkpt><trkpt lat="44.21722193359298" lon="11.50313215584319"><ele>201.0</ele><time>2026-04-25T08:45:09Z</time></trkpt><trkpt lat="44.21711967940359" lon="11.503076638905503"><ele>201.0</ele><time>2026-04-25T08:45:10Z</time></trkpt><trkpt lat="44.2170062104417" lon="11.503031549813771"><ele>201.0</ele><time>2026-04-25T08:45:11Z</time></trkpt><trkpt lat="44.21690092773705" lon="11.503002130440194"><ele>201.0</ele><time>2026-04-25T08:45:12Z</time></trkpt><trkpt lat="44.216816826866186" lon="11.503007769916094"><ele>201.0</ele><time>2026-04-25T08:45:13Z</time></trkpt><trkpt lat="44.216740347476104" lon="11.503079165164614"><ele>201.0</ele><time>2026-04-25T08:45:14Z</time></trkpt><trkpt lat="44.21667600825935" lon="11.503220115251027"><ele>201.0</ele><time>2026-04-25T08:45:15Z</time></trkpt><trkpt lat="44.216623448650545" lon="11.503400345185444"><ele>201.0</ele><time>2026-04-25T08:45:16Z</time></trkpt><trkpt lat="44.216593288779244" lon="11.503585508472199"><ele>201.0</ele><time>2026-04-25T08:45:17Z</time></trkpt><trkpt lat="44.21659552071193" lon="11.503782486538224"><ele>201.0</ele><time>2026-04-25T08:45:18Z</time></trkpt><trkpt lat="44.21661681890555" lon="11.503972364644186"><ele>201.0</ele><time>2026-04-25T08:45:19Z</time></trkpt><trkpt lat="44.21663152107727" lon="11.504155934041787"><ele>200.8</ele><time>2026-04-25T08:45:20Z</time></trkpt><trkpt lat="44.21664180785382" lon="11.504325864646457"><ele>200.60000000000002</ele><time>2026-04-25T08:45:21Z</time></trkpt><trkpt lat="44.21664976861996" lon="11.504465976107126"><ele>200.4</ele><time>2026-04-25T08:45:22Z</time></trkpt><trkpt lat="44.216647461351215" lon="11.50458061383377"><ele>200.2</ele><time>2026-04-25T08:45:23Z</time></trkpt><trkpt lat="44.21660206525267" lon="11.50467521051472"><ele>200.0</ele><time>2026-04-25T08:45:24Z</time></trkpt><trkpt lat="44.21652050734734" lon="11.504718358753891"><ele>199.8</ele><time>2026-04-25T08:45:25Z</time></trkpt><trkpt lat="44.216422593772144" lon="11.504697363228127"><ele>199.6</ele><time>2026-04-25T08:45:26Z</time></trkpt><trkpt lat="44.216322435522976" lon="11.504646354597652"><ele>199.39999999999998</ele><time>2026-04-25T08:45:27Z</time></trkpt><trkpt lat="44.21623821254263" lon="11.50458838293159"><ele>199.2</ele><time>2026-04-25T08:45:28Z</time></trkpt><trkpt lat="44.216164915781185" lon="11.504538748932955"><ele>199.0</ele><time>2026-04-25T08:45:29Z</time></trkpt><trkpt lat="44.21609978258325" lon="11.504504818535231"><ele>201.6</ele><time>2026-04-25T08:45:30Z</time></trkpt><trkpt lat="44.21601304554212" lon="11.504475518528581"><ele>204.2</ele><time>2026-04-25T08:45:32.001Z</time></trkpt><trkpt lat="44.21593441253291" lon="11.50444191189018"><ele>206.79999999999998</ele><time>2026-04-25T08:45:34.001Z</time></trkpt><trkpt lat="44.215846824359595" lon="11.504402283799879"><ele>209.39999999999998</ele><time>2026-04-25T08:45:36.001Z</time></trkpt><trkpt lat="44.21575738893496" lon="11.504375521465073"><ele>212.0</ele><time>2026-04-25T08:45:38.001Z</time></trkpt><trkpt lat="44.215665909181496" lon="11.50433810301153"><ele>212.66666666666669</ele><time>2026-04-25T08:45:41.001Z</time></trkpt><trkpt lat="44.215561864670214" lon="11.50429446810155"><ele>213.33333333333334</ele><time>2026-04-25T08:45:43.001Z</time></trkpt><trkpt lat="44.21549319075385" lon="11.504303296642567"><ele>214.0</ele><time>2026-04-25T08:45:44.001Z</time></trkpt><trkpt lat="44.215430381838644" lon="11.504281044696864"><ele>214.66666666666669</ele><time>2026-04-25T08:45:45.001Z</time></trkpt><trkpt lat="44.215356461350524" lon="11.504269618148832"><ele>215.33333333333334</ele><time>2026-04-25T08:45:46.001Z</time></trkpt><trkpt lat="44.21527736451025" lon="11.504263759178361"><ele>216.0</ele><time>2026-04-25T08:45:47.001Z</time></trkpt><trkpt lat="44.21520984019658" lon="11.504261263528843"><ele>216.0</ele><time>2026-04-25T08:45:48.001Z</time></trkpt><trkpt lat="44.215144497403166" lon="11.50426680580435"><ele>216.00000000000003</ele><time>2026-04-25T08:45:49.001Z</time></trkpt><trkpt lat="44.215015993465734" lon="11.50427945492955"><ele>216.00000000000003</ele><time>2026-04-25T08:45:51Z</time></trkpt><trkpt lat="44.214950527069355" lon="11.504277223030016"><ele>216.0</ele><time>2026-04-25T08:45:52Z</time></trkpt><trkpt lat="44.21483724957947" lon="11.504266423522687"><ele>216.0</ele><time>2026-04-25T08:45:54Z</time></trkpt><trkpt lat="44.21475777484682" lon="11.504264319977052"><ele>216.0</ele><time>2026-04-25T08:45:56Z</time></trkpt><trkpt lat="44.21469365074065" lon="11.504220946226946"><ele>216.00000000000003</ele><time>2026-04-25T08:46:00Z</time></trkpt><trkpt lat="44.21462542343394" lon="11.504233543781018"><ele>216.00000000000003</ele><time>2026-04-25T08:46:43Z</time></trkpt><trkpt lat="44.21453221656495" lon="11.504301873272798"><ele>216.0</ele><time>2026-04-25T08:46:45Z</time></trkpt><trkpt lat="44.2144209512829" lon="11.50428946363573"><ele>216.0</ele><time>2026-04-25T08:46:47Z</time></trkpt><trkpt lat="44.214319031185184" lon="11.504329262266136"><ele>216.0</ele><time>2026-04-25T08:46:49Z</time></trkpt><trkpt lat="44.21422979366555" lon="11.504364604978175"><ele>216.0</ele><time>2026-04-25T08:46:51Z</time></trkpt><trkpt lat="44.21414692624297" lon="11.504390540356122"><ele>216.0</ele><time>2026-04-25T08:46:53Z</time></trkpt><trkpt lat="44.21406678681574" lon="11.504420537997081"><ele>216.0</ele><time>2026-04-25T08:46:55Z</time></trkpt><trkpt lat="44.214009217497136" lon="11.504456770708016"><ele>216.0</ele><time>2026-04-25T08:46:57Z</time></trkpt><trkpt lat="44.213945009909104" lon="11.504486724355456"><ele>216.0</ele><time>2026-04-25T08:47:00Z</time></trkpt><trkpt lat="44.2138727404728" lon="11.504525937872646"><ele>222.0</ele><time>2026-04-25T08:47:04Z</time></trkpt><trkpt lat="44.21382790888005" lon="11.504463362796024"><ele>222.0</ele><time>2026-04-25T08:47:08Z</time></trkpt></trkseg><trkseg><trkpt lat="44.21368943383371" lon="11.504611181508638"><ele>213.0</ele><time>2026-04-25T09:03:47Z</time></trkpt><trkpt lat="44.213609542729984" lon="11.504612191887867"><ele>213.0</ele><time>2026-04-25T09:03:56Z</time></trkpt><trkpt lat="44.21353993674772" lon="11.504546471028826"><ele>213.0</ele><time>2026-04-25T09:03:59Z</time></trkpt><trkpt lat="44.21357403805701" lon="11.504411980898189"><ele>213.0</ele><time>2026-04-25T09:04:01Z</time></trkpt><trkpt lat="44.2135890435464" lon="11.504270503912053"><ele>213.0</ele><time>2026-04-25T09:04:03Z</time></trkpt><trkpt lat="44.21358308438125" lon="11.504123107631482"><ele>214.8</ele><time>2026-04-25T09:04:05Z</time></trkpt><trkpt lat="44.21358326938219" lon="11.503956517790254"><ele>216.60000000000002</ele><time>2026-04-25T09:04:07Z</time></trkpt><trkpt lat="44.21357936632278" lon="11.503779752638309"><ele>218.39999999999998</ele><time>2026-04-25T09:04:09Z</time></trkpt><trkpt lat="44.213582068852176" lon="11.503683145151552"><ele>220.2</ele><time>2026-04-25T09:04:10Z</time></trkpt><trkpt lat="44.21359575203226" lon="11.503572068166322"><ele>222.0</ele><time>2026-04-25T09:04:12Z</time></trkpt><trkpt lat="44.21356025931857" lon="11.503485284021233"><ele>222.33333333333334</ele><time>2026-04-25T09:04:17.999Z</time></trkpt><trkpt lat="44.213491876998596" lon="11.503518987810919"><ele>222.66666666666669</ele><time>2026-04-25T09:04:18.999Z</time></trkpt><trkpt lat="44.21341173865606" lon="11.503493529007285"><ele>223.0</ele><time>2026-04-25T09:04:21.999Z</time></trkpt><trkpt lat="44.21334507737211" lon="11.503514168738857"><ele>223.33333333333334</ele><time>2026-04-25T09:04:24.999Z</time></trkpt><trkpt lat="44.2132506227908" lon="11.503506389716804"><ele>223.66666666666669</ele><time>2026-04-25T09:04:27.999Z</time></trkpt><trkpt lat="44.213184160355326" lon="11.503504026863084"><ele>224.0</ele><time>2026-04-25T09:04:29.999Z</time></trkpt><trkpt lat="44.21309965197774" lon="11.503497144395105"><ele>224.2</ele><time>2026-04-25T09:04:31.999Z</time></trkpt><trkpt lat="44.21302128526467" lon="11.503500046565566"><ele>224.39999999999998</ele><time>2026-04-25T09:04:33.999Z</time></trkpt><trkpt lat="44.21291844490498" lon="11.503499222086083"><ele>224.6</ele><time>2026-04-25T09:04:35.999Z</time></trkpt><trkpt lat="44.212815712811" lon="11.503490019330517"><ele>224.8</ele><time>2026-04-25T09:04:37.999Z</time></trkpt><trkpt lat="44.21271408875852" lon="11.503541991645607"><ele>225.0</ele><time>2026-04-25T09:04:39.999Z</time></trkpt><trkpt lat="44.21263338299996" lon="11.503608037299447"><ele>225.0</ele><time>2026-04-25T09:04:40.999Z</time></trkpt><trkpt lat="44.212535733949416" lon="11.503669120275056"><ele>225.0</ele><time>2026-04-25T09:04:43Z</time></trkpt><trkpt lat="44.21247281872534" lon="11.503688779629675"><ele>225.0</ele><time>2026-04-25T09:04:44Z</time></trkpt><trkpt lat="44.21240916498966" lon="11.503725786059869"><ele>225.0</ele><time>2026-04-25T09:04:45Z</time></trkpt><trkpt lat="44.21234012365549" lon="11.50377043363894"><ele>225.0</ele><time>2026-04-25T09:04:46Z</time></trkpt><trkpt lat="44.21227027630337" lon="11.503811145013154"><ele>225.0</ele><time>2026-04-25T09:04:47Z</time></trkpt><trkpt lat="44.212194672445335" lon="11.503845757847099"><ele>224.16666666666666</ele><time>2026-04-25T09:04:48Z</time></trkpt><trkpt lat="44.212121262154845" lon="11.50388289057144"><ele>223.33333333333331</ele><time>2026-04-25T09:04:49Z</time></trkpt><trkpt lat="44.21204750039826" lon="11.503932066979498"><ele>222.5</ele><time>2026-04-25T09:04:50Z</time></trkpt><trkpt lat="44.21196393406917" lon="11.503956400072205"><ele>221.66666666666666</ele><time>2026-04-25T09:04:51Z</time></trkpt><trkpt lat="44.21189142827164" lon="11.503993661399592"><ele>220.83333333333331</ele><time>2026-04-25T09:04:52Z</time></trkpt><trkpt lat="44.21182446265104" lon="11.504028656506996"><ele>220.0</ele><time>2026-04-25T09:04:53Z</time></trkpt><trkpt lat="44.211762349178" lon="11.504061602582878"><ele>219.99999999999997</ele><time>2026-04-25T09:04:54Z</time></trkpt><trkpt lat="44.211634883797494" lon="11.504129212490223"><ele>220.0</ele><time>2026-04-25T09:04:56Z</time></trkpt><trkpt lat="44.211554707548245" lon="11.504171739385745"><ele>220.0</ele><time>2026-04-25T09:04:57Z</time></trkpt><trkpt lat="44.21148083647468" lon="11.504211127908155"><ele>220.0</ele><time>2026-04-25T09:04:58Z</time></trkpt><trkpt lat="44.21141062428947" lon="11.504249692051589"><ele>219.99999999999997</ele><time>2026-04-25T09:04:59Z</time></trkpt><trkpt lat="44.21134634094084" lon="11.504286120128164"><ele>220.0</ele><time>2026-04-25T09:05:00Z</time></trkpt><trkpt lat="44.2112937252307" lon="11.504342319953652"><ele>221.0</ele><time>2026-04-25T09:05:01Z</time></trkpt><trkpt lat="44.21119256730518" lon="11.504400340311589"><ele>222.0</ele><time>2026-04-25T09:05:03Z</time></trkpt><trkpt lat="44.211065976332605" lon="11.504486612242031"><ele>223.0</ele><time>2026-04-25T09:05:05Z</time></trkpt><trkpt lat="44.211005579892394" lon="11.504532656553362"><ele>224.0</ele><time>2026-04-25T09:05:06Z</time></trkpt><trkpt lat="44.21091185257057" lon="11.504453990741936"><ele>225.0</ele><time>2026-04-25T09:05:07Z</time></trkpt><trkpt lat="44.21082551979735" lon="11.504407298212739"><ele>225.0</ele><time>2026-04-25T09:05:08Z</time></trkpt><trkpt lat="44.21073711835153" lon="11.504360145876223"><ele>225.0</ele><time>2026-04-25T09:05:09Z</time></trkpt><trkpt lat="44.210644261879125" lon="11.5043113380647"><ele>225.0</ele><time>2026-04-25T09:05:10Z</time></trkpt><trkpt lat="44.21054772330941" lon="11.504263931075629"><ele>225.0</ele><time>2026-04-25T09:05:11Z</time></trkpt><trkpt lat="44.21045367775055" lon="11.504223775678886"><ele>225.0</ele><time>2026-04-25T09:05:12Z</time></trkpt><trkpt lat="44.21036711716097" lon="11.504184733282694"><ele>225.6</ele><time>2026-04-25T09:05:13Z</time></trkpt><trkpt lat="44.21027820566123" lon="11.50414506692046"><ele>226.2</ele><time>2026-04-25T09:05:14Z</time></trkpt><trkpt lat="44.21019352031511" lon="11.504105408604236"><ele>226.8</ele><time>2026-04-25T09:05:15Z</time></trkpt><trkpt lat="44.21010772646456" lon="11.504059798112754"><ele>227.4</ele><time>2026-04-25T09:05:16Z</time></trkpt><trkpt lat="44.21002390495206" lon="11.504016830344275"><ele>228.0</ele><time>2026-04-25T09:05:17Z</time></trkpt><trkpt lat="44.20993533242636" lon="11.503969075127769"><ele>228.0</ele><time>2026-04-25T09:05:18Z</time></trkpt><trkpt lat="44.20983941971526" lon="11.50392201603803"><ele>228.0</ele><time>2026-04-25T09:05:19Z</time></trkpt><trkpt lat="44.20973732822111" lon="11.503884050161137"><ele>228.0</ele><time>2026-04-25T09:05:20Z</time></trkpt><trkpt lat="44.20963270722841" lon="11.503832511405198"><ele>228.0</ele><time>2026-04-25T09:05:21Z</time></trkpt><trkpt lat="44.20953407313631" lon="11.503784796825755"><ele>228.0</ele><time>2026-04-25T09:05:22Z</time></trkpt><trkpt lat="44.20943394473212" lon="11.503751392931015"><ele>228.0</ele><time>2026-04-25T09:05:23Z</time></trkpt><trkpt lat="44.209336490583134" lon="11.50371719745163"><ele>228.0</ele><time>2026-04-25T09:05:24Z</time></trkpt><trkpt lat="44.20923278499755" lon="11.503668992787924"><ele>228.0</ele><time>2026-04-25T09:05:25Z</time></trkpt><trkpt lat="44.20912172310264" lon="11.50361187422721"><ele>228.0</ele><time>2026-04-25T09:05:26Z</time></trkpt><trkpt lat="44.20900270569209" lon="11.503557262041287"><ele>230.5</ele><time>2026-04-25T09:05:27Z</time></trkpt><trkpt lat="44.20888169631037" lon="11.503497120292469"><ele>233.0</ele><time>2026-04-25T09:05:28Z</time></trkpt><trkpt lat="44.208757553728724" lon="11.503444984094548"><ele>235.5</ele><time>2026-04-25T09:05:29Z</time></trkpt><trkpt lat="44.20864951498183" lon="11.503390052302372"><ele>238.0</ele><time>2026-04-25T09:05:30Z</time></trkpt><trkpt lat="44.2085469082242" lon="11.50335997250633"><ele>238.0</ele><time>2026-04-25T09:05:31Z</time></trkpt><trkpt lat="44.208444757555924" lon="11.503395725874702"><ele>238.0</ele><time>2026-04-25T09:05:32Z</time></trkpt><trkpt lat="44.208366150600256" lon="11.5035067888915"><ele>238.0</ele><time>2026-04-25T09:05:33Z</time></trkpt><trkpt lat="44.20829115512566" lon="11.503617051777812"><ele>238.0</ele><time>2026-04-25T09:05:34Z</time></trkpt><trkpt lat="44.20819035997206" lon="11.503699556173038"><ele>238.0</ele><time>2026-04-25T09:05:35Z</time></trkpt><trkpt lat="44.20807109998698" lon="11.503720297764392"><ele>239.0</ele><time>2026-04-25T09:05:36Z</time></trkpt><trkpt lat="44.20795184930974" lon="11.503672414302347"><ele>240.0</ele><time>2026-04-25T09:05:37Z</time></trkpt><trkpt lat="44.207829886" lon="11.503611573070959"><ele>241.0</ele><time>2026-04-25T09:05:38Z</time></trkpt><trkpt lat="44.207679128975606" lon="11.503555097242705"><ele>242.0</ele><time>2026-04-25T09:05:39Z</time></trkpt><trkpt lat="44.20750655757546" lon="11.503533501851402"><ele>242.33333333333334</ele><time>2026-04-25T09:05:40Z</time></trkpt><trkpt lat="44.207325258228124" lon="11.503515228312905"><ele>242.66666666666669</ele><time>2026-04-25T09:05:41Z</time></trkpt><trkpt lat="44.207140061779725" lon="11.503483525967658"><ele>243.0</ele><time>2026-04-25T09:05:42Z</time></trkpt><trkpt lat="44.20695127589558" lon="11.50344883081559"><ele>243.0</ele><time>2026-04-25T09:05:43Z</time></trkpt><trkpt lat="44.206774763811104" lon="11.50341797021417"><ele>243.0</ele><time>2026-04-25T09:05:44Z</time></trkpt><trkpt lat="44.20661725802484" lon="11.5034013175005"><ele>243.0</ele><time>2026-04-25T09:05:45Z</time></trkpt><trkpt lat="44.20647111833673" lon="11.50338610652261"><ele>242.5</ele><time>2026-04-25T09:05:46Z</time></trkpt><trkpt lat="44.206339595155264" lon="11.503371254608918"><ele>242.0</ele><time>2026-04-25T09:05:47Z</time></trkpt><trkpt lat="44.20621791866283" lon="11.503358475601626"><ele>241.5</ele><time>2026-04-25T09:05:48Z</time></trkpt><trkpt lat="44.20610671849409" lon="11.503348484013387"><ele>241.0</ele><time>2026-04-25T09:05:49Z</time></trkpt><trkpt lat="44.20599560041561" lon="11.503333093885875"><ele>241.0</ele><time>2026-04-25T09:05:50Z</time></trkpt><trkpt lat="44.205883007539484" lon="11.503320888910826"><ele>241.00000000000003</ele><time>2026-04-25T09:05:51Z</time></trkpt><trkpt lat="44.205766734897274" lon="11.503309439242992"><ele>241.00000000000003</ele><time>2026-04-25T09:05:52Z</time></trkpt><trkpt lat="44.20565479796713" lon="11.503301716405476"><ele>241.0</ele><time>2026-04-25T09:05:53Z</time></trkpt><trkpt lat="44.205558570867886" lon="11.503292555161323"><ele>241.0</ele><time>2026-04-25T09:05:54Z</time></trkpt><trkpt lat="44.20548305173615" lon="11.503284551665335"><ele>241.4</ele><time>2026-04-25T09:05:55Z</time></trkpt><trkpt lat="44.205413389119805" lon="11.503237950865419"><ele>241.8</ele><time>2026-04-25T09:05:57Z</time></trkpt><trkpt lat="44.20548529273256" lon="11.503055916076747"><ele>242.20000000000002</ele><time>2026-04-25T09:06:00Z</time></trkpt><trkpt lat="44.20551495514346" lon="11.502913588009452"><ele>242.60000000000002</ele><time>2026-04-25T09:06:01Z</time></trkpt><trkpt lat="44.205541740029496" lon="11.502793883848547"><ele>243.0</ele><time>2026-04-25T09:06:02Z</time></trkpt><trkpt lat="44.20553084935667" lon="11.50265131133459"><ele>247.0</ele><time>2026-04-25T09:06:03Z</time></trkpt><trkpt lat="44.205525966085446" lon="11.502552872942385"><ele>251.0</ele><time>2026-04-25T09:06:04Z</time></trkpt><trkpt lat="44.2055999816308" lon="11.50246741711866"><ele>255.0</ele><time>2026-04-25T09:06:06Z</time></trkpt><trkpt lat="44.205667618034845" lon="11.502522541375924"><ele>259.0</ele><time>2026-04-25T09:06:07Z</time></trkpt><trkpt lat="44.20572992957444" lon="11.502621311557975"><ele>263.0</ele><time>2026-04-25T09:06:08Z</time></trkpt><trkpt lat="44.205825907226725" lon="11.502729101007574"><ele>263.0</ele><time>2026-04-25T09:06:09Z</time></trkpt><trkpt lat="44.20592770948863" lon="11.502803109805365"><ele>263.0</ele><time>2026-04-25T09:06:10Z</time></trkpt><trkpt lat="44.206026724488346" lon="11.502845399049889"><ele>263.0</ele><time>2026-04-25T09:06:11Z</time></trkpt><trkpt lat="44.20611611370647" lon="11.502827825620265"><ele>263.0</ele><time>2026-04-25T09:06:12Z</time></trkpt><trkpt lat="44.20619146824495" lon="11.50278923548897"><ele>263.0</ele><time>2026-04-25T09:06:13Z</time></trkpt><trkpt lat="44.206248656188926" lon="11.502741100932921"><ele>263.0</ele><time>2026-04-25T09:06:14Z</time></trkpt><trkpt lat="44.20628827156806" lon="11.502658814825033"><ele>263.0</ele><time>2026-04-25T09:06:15Z</time></trkpt><trkpt lat="44.2063449566208" lon="11.502598074980027"><ele>263.0</ele><time>2026-04-25T09:06:16Z</time></trkpt><trkpt lat="44.206408987441854" lon="11.502508070764698"><ele>263.0</ele><time>2026-04-25T09:06:18Z</time></trkpt><trkpt lat="44.20647425377817" lon="11.502497843297553"><ele>263.0</ele><time>2026-04-25T09:06:20.997Z</time></trkpt><trkpt lat="44.206561556454055" lon="11.50252758296161"><ele>263.0</ele><time>2026-04-25T09:06:24.997Z</time></trkpt><trkpt lat="44.206684765223926" lon="11.502606479027296"><ele>264.0</ele><time>2026-04-25T09:06:26.998Z</time></trkpt><trkpt lat="44.206770963471875" lon="11.502654290959544"><ele>265.0</ele><time>2026-04-25T09:06:27.998Z</time></trkpt><trkpt lat="44.20686804807339" lon="11.50268794545781"><ele>266.0</ele><time>2026-04-25T09:06:28.998Z</time></trkpt><trkpt lat="44.20695845155523" lon="11.502688577244871"><ele>267.0</ele><time>2026-04-25T09:06:29.998Z</time></trkpt><trkpt lat="44.20703130826712" lon="11.502621382016388"><ele>268.0</ele><time>2026-04-25T09:06:30.998Z</time></trkpt><trkpt lat="44.20711423467647" lon="11.50256666956684"><ele>268.0</ele><time>2026-04-25T09:06:31.998Z</time></trkpt><trkpt lat="44.20721271980475" lon="11.502539391229577"><ele>268.0</ele><time>2026-04-25T09:06:32.998Z</time></trkpt><trkpt lat="44.207303366560325" lon="11.50252103514613"><ele>268.0</ele><time>2026-04-25T09:06:33.998Z</time></trkpt><trkpt lat="44.207389197432185" lon="11.50252012721101"><ele>268.0</ele><time>2026-04-25T09:06:34.998Z</time></trkpt><trkpt lat="44.20747614409189" lon="11.502521393870763"><ele>268.0</ele><time>2026-04-25T09:06:35.998Z</time></trkpt><trkpt lat="44.20755332050723" lon="11.502532331592707"><ele>268.0</ele><time>2026-04-25T09:06:36.998Z</time></trkpt><trkpt lat="44.207625547135486" lon="11.502531644701957"><ele>267.5</ele><time>2026-04-25T09:06:37.998Z</time></trkpt><trkpt lat="44.20769195399457" lon="11.502483365250665"><ele>267.0</ele><time>2026-04-25T09:06:38.998Z</time></trkpt><trkpt lat="44.207714911140926" lon="11.502357436958283"><ele>266.5</ele><time>2026-04-25T09:06:39.998Z</time></trkpt><trkpt lat="44.20773760993034" lon="11.502248761134942"><ele>266.0</ele><time>2026-04-25T09:06:40.998Z</time></trkpt><trkpt lat="44.20770647753106" lon="11.502139867870742"><ele>265.5</ele><time>2026-04-25T09:06:41.998Z</time></trkpt><trkpt lat="44.207705189604056" lon="11.50199051945105"><ele>265.0</ele><time>2026-04-25T09:06:42.998Z</time></trkpt><trkpt lat="44.207729703424334" lon="11.501861604084198"><ele>269.3333333333333</ele><time>2026-04-25T09:06:43.998Z</time></trkpt><trkpt lat="44.20778933399286" lon="11.501772067458711"><ele>273.66666666666663</ele><time>2026-04-25T09:06:44.999Z</time></trkpt><trkpt lat="44.20785391245729" lon="11.501708777027815"><ele>278.0</ele><time>2026-04-25T09:06:45.999Z</time></trkpt><trkpt lat="44.20790127036016" lon="11.50164234311304"><ele>282.3333333333333</ele><time>2026-04-25T09:06:46.999Z</time></trkpt><trkpt lat="44.20790991503982" lon="11.501531740515805"><ele>286.6666666666667</ele><time>2026-04-25T09:06:48.999Z</time></trkpt><trkpt lat="44.20778143174698" lon="11.501524458602999"><ele>291.0</ele><time>2026-04-25T09:06:50.999Z</time></trkpt><trkpt lat="44.20766152970502" lon="11.501694313192914"><ele>291.0</ele><time>2026-04-25T09:06:52.999Z</time></trkpt><trkpt lat="44.2075900188767" lon="11.50182124933576"><ele>291.0</ele><time>2026-04-25T09:06:53.999Z</time></trkpt><trkpt lat="44.207508345054435" lon="11.501954500168175"><ele>291.0</ele><time>2026-04-25T09:06:54.999Z</time></trkpt><trkpt lat="44.2074497278408" lon="11.502055000929493"><ele>291.0</ele><time>2026-04-25T09:06:55.999Z</time></trkpt><trkpt lat="44.20738062301613" lon="11.502121646686152"><ele>291.0</ele><time>2026-04-25T09:06:57.999Z</time></trkpt><trkpt lat="44.20732007008195" lon="11.501997321747288"><ele>291.0</ele><time>2026-04-25T09:06:59.999Z</time></trkpt><trkpt lat="44.207448434617184" lon="11.501846281387447"><ele>291.0</ele><time>2026-04-25T09:07:01.999Z</time></trkpt><trkpt lat="44.20754277716326" lon="11.501713382822484"><ele>291.0</ele><time>2026-04-25T09:07:02.999Z</time></trkpt><trkpt lat="44.207634286953486" lon="11.501584907998069"><ele>291.0</ele><time>2026-04-25T09:07:03.999Z</time></trkpt><trkpt lat="44.20768625097126" lon="11.501470659428323"><ele>291.0</ele><time>2026-04-25T09:07:04.999Z</time></trkpt><trkpt lat="44.207704253989874" lon="11.501353164737258"><ele>291.0</ele><time>2026-04-25T09:07:05.999Z</time></trkpt><trkpt lat="44.207701345248516" lon="11.501230717869516"><ele>291.0</ele><time>2026-04-25T09:07:06.999Z</time></trkpt><trkpt lat="44.20768307499376" lon="11.501121175044458"><ele>291.0</ele><time>2026-04-25T09:07:07.999Z</time></trkpt><trkpt lat="44.20770032863561" lon="11.501036233924"><ele>291.0</ele><time>2026-04-25T09:07:08.999Z</time></trkpt><trkpt lat="44.207752842348995" lon="11.500964225508206"><ele>291.0</ele><time>2026-04-25T09:07:09.999Z</time></trkpt><trkpt lat="44.207828098142116" lon="11.500916249277356"><ele>298.0</ele><time>2026-04-25T09:07:10.999Z</time></trkpt><trkpt lat="44.207947770799755" lon="11.500865110284783"><ele>305.0</ele><time>2026-04-25T09:07:11.999Z</time></trkpt><trkpt lat="44.20803275983796" lon="11.500831471214317"><ele>312.0</ele><time>2026-04-25T09:07:14.999Z</time></trkpt><trkpt lat="44.208134776918534" lon="11.500551217650196"><ele>319.0</ele><time>2026-04-25T09:07:16.999Z</time></trkpt><trkpt lat="44.20815948495396" lon="11.500410278244944"><ele>315.16666666666663</ele><time>2026-04-25T09:07:17.999Z</time></trkpt><trkpt lat="44.208180179396074" lon="11.500288690610647"><ele>311.3333333333333</ele><time>2026-04-25T09:07:18.999Z</time></trkpt><trkpt lat="44.208208486231605" lon="11.50016019800214"><ele>307.5</ele><time>2026-04-25T09:07:19.999Z</time></trkpt><trkpt lat="44.20824892792052" lon="11.500043224536961"><ele>303.6666666666667</ele><time>2026-04-25T09:07:20.999Z</time></trkpt><trkpt lat="44.20828234392264" lon="11.499939003894958"><ele>299.83333333333337</ele><time>2026-04-25T09:07:21.999Z</time></trkpt><trkpt lat="44.208300516743414" lon="11.499838183470322"><ele>296.0</ele><time>2026-04-25T09:07:22.999Z</time></trkpt><trkpt lat="44.20828982028033" lon="11.499736478242593"><ele>296.0</ele><time>2026-04-25T09:07:23.999Z</time></trkpt><trkpt lat="44.20830234645728" lon="11.499647245145065"><ele>296.0</ele><time>2026-04-25T09:07:24.999Z</time></trkpt><trkpt lat="44.20833878344365" lon="11.499516338898724"><ele>296.0</ele><time>2026-04-25T09:07:26.999Z</time></trkpt><trkpt lat="44.208406870119155" lon="11.499480553739327"><ele>296.0</ele><time>2026-04-25T09:07:27.999Z</time></trkpt><trkpt lat="44.2084980144055" lon="11.499415179559238"><ele>296.0</ele><time>2026-04-25T09:07:28.999Z</time></trkpt><trkpt lat="44.2085632899734" lon="11.499338448461014"><ele>296.0</ele><time>2026-04-25T09:07:29.999Z</time></trkpt><trkpt lat="44.2086055643209" lon="11.499241738350971"><ele>300.5</ele><time>2026-04-25T09:07:30.999Z</time></trkpt><trkpt lat="44.208617753484134" lon="11.499142508528221"><ele>305.0</ele><time>2026-04-25T09:07:31.999Z</time></trkpt><trkpt lat="44.20864286152298" lon="11.499055487462352"><ele>309.5</ele><time>2026-04-25T09:07:32.999Z</time></trkpt><trkpt lat="44.20874017061743" lon="11.499020801045397"><ele>314.0</ele><time>2026-04-25T09:07:34.999Z</time></trkpt><trkpt lat="44.208805368342766" lon="11.498965004537284"><ele>318.5</ele><time>2026-04-25T09:07:35.999Z</time></trkpt><trkpt lat="44.208884425572016" lon="11.498918301465674"><ele>323.0</ele><time>2026-04-25T09:07:36.999Z</time></trkpt><trkpt lat="44.20895547979469" lon="11.498815612165803"><ele>321.25</ele><time>2026-04-25T09:07:37.999Z</time></trkpt><trkpt lat="44.20901513555056" lon="11.498669602471475"><ele>319.5</ele><time>2026-04-25T09:07:38.999Z</time></trkpt><trkpt lat="44.2090884434379" lon="11.498533319889738"><ele>317.75</ele><time>2026-04-25T09:07:39.999Z</time></trkpt><trkpt lat="44.20920766093725" lon="11.498429536822458"><ele>316.0</ele><time>2026-04-25T09:07:40.999Z</time></trkpt><trkpt lat="44.20930827480888" lon="11.498340564326243"><ele>316.0</ele><time>2026-04-25T09:07:41.999Z</time></trkpt><trkpt lat="44.209407929244975" lon="11.498212265445137"><ele>316.0</ele><time>2026-04-25T09:07:43.999Z</time></trkpt><trkpt lat="44.20942248494749" lon="11.49805797208878"><ele>316.0</ele><time>2026-04-25T09:07:44.999Z</time></trkpt><trkpt lat="44.209418458287736" lon="11.497900100195679"><ele>316.0</ele><time>2026-04-25T09:07:45.999Z</time></trkpt><trkpt lat="44.209426337501974" lon="11.497770011872287"><ele>321.0</ele><time>2026-04-25T09:07:46.999Z</time></trkpt><trkpt lat="44.209428355876106" lon="11.497671842729599"><ele>326.0</ele><time>2026-04-25T09:07:47.999Z</time></trkpt><trkpt lat="44.209397262327805" lon="11.497527751492681"><ele>331.0</ele><time>2026-04-25T09:07:50Z</time></trkpt><trkpt lat="44.209326928826094" lon="11.497519470211135"><ele>336.0</ele><time>2026-04-25T09:07:51Z</time></trkpt><trkpt lat="44.20925783468497" lon="11.49759163984769"><ele>341.0</ele><time>2026-04-25T09:07:52Z</time></trkpt><trkpt lat="44.209260210956295" lon="11.497767538387047"><ele>341.0</ele><time>2026-04-25T09:07:53Z</time></trkpt><trkpt lat="44.2092345929127" lon="11.497908343679994"><ele>341.0</ele><time>2026-04-25T09:07:54Z</time></trkpt><trkpt lat="44.209169152803206" lon="11.498043199299744"><ele>341.0</ele><time>2026-04-25T09:07:55Z</time></trkpt><trkpt lat="44.20906723502069" lon="11.49812251130221"><ele>341.0</ele><time>2026-04-25T09:07:56Z</time></trkpt><trkpt lat="44.20899259306286" lon="11.49819537615176"><ele>341.0</ele><time>2026-04-25T09:07:57Z</time></trkpt><trkpt lat="44.20891687019525" lon="11.498206706897054"><ele>343.0</ele><time>2026-04-25T09:07:58Z</time></trkpt><trkpt lat="44.20883410295513" lon="11.498185547419174"><ele>345.0</ele><time>2026-04-25T09:07:59Z</time></trkpt><trkpt lat="44.20875460783498" lon="11.498183386529542"><ele>347.0</ele><time>2026-04-25T09:08:00Z</time></trkpt><trkpt lat="44.20869636823911" lon="11.498239367082789"><ele>349.0</ele><time>2026-04-25T09:08:01Z</time></trkpt><trkpt lat="44.20866174799611" lon="11.498333144540485"><ele>351.0</ele><time>2026-04-25T09:08:02Z</time></trkpt><trkpt lat="44.20864126955113" lon="11.498435756693134"><ele>353.0</ele><time>2026-04-25T09:08:03Z</time></trkpt><trkpt lat="44.20861376586274" lon="11.498518472560784"><ele>353.0</ele><time>2026-04-25T09:08:04Z</time></trkpt><trkpt lat="44.208548694491604" lon="11.49856510582165"><ele>353.0</ele><time>2026-04-25T09:08:05Z</time></trkpt><trkpt lat="44.208457463072044" lon="11.498594497655736"><ele>353.0</ele><time>2026-04-25T09:08:06Z</time></trkpt><trkpt lat="44.208352781333964" lon="11.498535866709947"><ele>353.0</ele><time>2026-04-25T09:08:07Z</time></trkpt><trkpt lat="44.20827479988781" lon="11.498560206519995"><ele>353.0</ele><time>2026-04-25T09:08:09Z</time></trkpt><trkpt lat="44.208233796232726" lon="11.49867785060718"><ele>355.4</ele><time>2026-04-25T09:08:10Z</time></trkpt><trkpt lat="44.20820960275374" lon="11.498819266150061"><ele>357.79999999999995</ele><time>2026-04-25T09:08:11Z</time></trkpt><trkpt lat="44.20818577993518" lon="11.498923569385532"><ele>360.2</ele><time>2026-04-25T09:08:12Z</time></trkpt><trkpt lat="44.208111430915615" lon="11.498960509293456"><ele>362.6</ele><time>2026-04-25T09:08:13Z</time></trkpt><trkpt lat="44.20798720798613" lon="11.499016026880465"><ele>365.0</ele><time>2026-04-25T09:08:15Z</time></trkpt><trkpt lat="44.207910022643894" lon="11.499079413147847"><ele>365.0</ele><time>2026-04-25T09:08:16Z</time></trkpt><trkpt lat="44.20783153792676" lon="11.499181171537314"><ele>365.0</ele><time>2026-04-25T09:08:17Z</time></trkpt><trkpt lat="44.20778261065406" lon="11.499267963628341"><ele>365.0</ele><time>2026-04-25T09:08:18Z</time></trkpt><trkpt lat="44.20776214124721" lon="11.499400848662775"><ele>365.0</ele><time>2026-04-25T09:08:19Z</time></trkpt><trkpt lat="44.207780918074754" lon="11.499557925451192"><ele>365.0</ele><time>2026-04-25T09:08:20Z</time></trkpt><trkpt lat="44.2077485534778" lon="11.499642164125541"><ele>361.4</ele><time>2026-04-25T09:08:21Z</time></trkpt><trkpt lat="44.20769170500542" lon="11.499718718786234"><ele>357.8</ele><time>2026-04-25T09:08:22Z</time></trkpt><trkpt lat="44.207589871801595" lon="11.49983798978547"><ele>354.20000000000005</ele><time>2026-04-25T09:08:23Z</time></trkpt><trkpt lat="44.20752458867002" lon="11.49996500775807"><ele>350.6</ele><time>2026-04-25T09:08:24Z</time></trkpt><trkpt lat="44.20747040578457" lon="11.500097439929005"><ele>347.0</ele><time>2026-04-25T09:08:25Z</time></trkpt><trkpt lat="44.20743109051375" lon="11.500175088067321"><ele>347.0</ele><time>2026-04-25T09:08:25.997Z</time></trkpt><trkpt lat="44.207327648944805" lon="11.500284657235117"><ele>347.0</ele><time>2026-04-25T09:08:27.998Z</time></trkpt><trkpt lat="44.20724620497337" lon="11.50037154558634"><ele>347.0</ele><time>2026-04-25T09:08:28.998Z</time></trkpt><trkpt lat="44.20716129630392" lon="11.500432177380569"><ele>347.0</ele><time>2026-04-25T09:08:29.998Z</time></trkpt><trkpt lat="44.20708581411607" lon="11.500474328761015"><ele>347.0</ele><time>2026-04-25T09:08:30.998Z</time></trkpt><trkpt lat="44.20702027676568" lon="11.500504015511334"><ele>349.1666666666667</ele><time>2026-04-25T09:08:31.998Z</time></trkpt><trkpt lat="44.206959675937554" lon="11.500470416435737"><ele>351.33333333333337</ele><time>2026-04-25T09:08:32.998Z</time></trkpt><trkpt lat="44.20688514070754" lon="11.500420508531503"><ele>353.5</ele><time>2026-04-25T09:08:33.998Z</time></trkpt><trkpt lat="44.20680842626796" lon="11.500349540471294"><ele>355.6666666666667</ele><time>2026-04-25T09:08:34.998Z</time></trkpt><trkpt lat="44.20672516100852" lon="11.500306811630486"><ele>357.8333333333333</ele><time>2026-04-25T09:08:35.998Z</time></trkpt><trkpt lat="44.206638650485566" lon="11.500270289943826"><ele>360.0</ele><time>2026-04-25T09:08:36.998Z</time></trkpt><trkpt lat="44.20657972446475" lon="11.500222733809803"><ele>360.0</ele><time>2026-04-25T09:08:37.998Z</time></trkpt><trkpt lat="44.20654847971847" lon="11.50014632305691"><ele>360.0</ele><time>2026-04-25T09:08:38.998Z</time></trkpt><trkpt lat="44.20654241434775" lon="11.499976611270055"><ele>360.0</ele><time>2026-04-25T09:08:40.998Z</time></trkpt><trkpt lat="44.20656069627437" lon="11.499841283926864"><ele>360.0</ele><time>2026-04-25T09:08:41.998Z</time></trkpt><trkpt lat="44.20655981791837" lon="11.499726112221424"><ele>360.0</ele><time>2026-04-25T09:08:42.998Z</time></trkpt><trkpt lat="44.2065131609129" lon="11.499651175613508"><ele>360.0</ele><time>2026-04-25T09:08:43.998Z</time></trkpt><trkpt lat="44.2064398963354" lon="11.499609608309827"><ele>361.4</ele><time>2026-04-25T09:08:44.999Z</time></trkpt><trkpt lat="44.2063615688016" lon="11.499611586523338"><ele>362.8</ele><time>2026-04-25T09:08:45.999Z</time></trkpt><trkpt lat="44.20628050942522" lon="11.499653755898864"><ele>364.20000000000005</ele><time>2026-04-25T09:08:46.999Z</time></trkpt><trkpt lat="44.206197493799195" lon="11.499740578259168"><ele>365.6</ele><time>2026-04-25T09:08:47.999Z</time></trkpt><trkpt lat="44.206093672612184" lon="11.499857491586242"><ele>367.0</ele><time>2026-04-25T09:08:48.999Z</time></trkpt><trkpt lat="44.20599033243695" lon="11.499939636383454"><ele>367.0</ele><time>2026-04-25T09:08:49.999Z</time></trkpt><trkpt lat="44.205922307994435" lon="11.500019261141873"><ele>367.0</ele><time>2026-04-25T09:08:50.999Z</time></trkpt><trkpt lat="44.2058494518547" lon="11.500072579005513"><ele>367.0</ele><time>2026-04-25T09:08:51.999Z</time></trkpt><trkpt lat="44.20578154413202" lon="11.500077450461484"><ele>367.0</ele><time>2026-04-25T09:08:52.999Z</time></trkpt><trkpt lat="44.20571955731622" lon="11.50004436118066"><ele>367.0</ele><time>2026-04-25T09:08:53.999Z</time></trkpt><trkpt lat="44.20567515474186" lon="11.499976691161745"><ele>367.0</ele><time>2026-04-25T09:08:54.999Z</time></trkpt><trkpt lat="44.205646498532666" lon="11.499889635567742"><ele>367.0</ele><time>2026-04-25T09:08:55.999Z</time></trkpt><trkpt lat="44.205633402024716" lon="11.499787788734096"><ele>367.0</ele><time>2026-04-25T09:08:56.999Z</time></trkpt><trkpt lat="44.205663207389456" lon="11.499670232834026"><ele>367.0</ele><time>2026-04-25T09:08:57.999Z</time></trkpt><trkpt lat="44.2056473858885" lon="11.499541607364021"><ele>367.0</ele><time>2026-04-25T09:08:58.999Z</time></trkpt><trkpt lat="44.20562973077091" lon="11.49938132456169"><ele>367.0</ele><time>2026-04-25T09:08:59.999Z</time></trkpt><trkpt lat="44.20560674519717" lon="11.499216646032165"><ele>367.0</ele><time>2026-04-25T09:09:00.999Z</time></trkpt><trkpt lat="44.205576825138856" lon="11.499052607825089"><ele>370.0</ele><time>2026-04-25T09:09:01.999Z</time></trkpt><trkpt lat="44.2055324601407" lon="11.49892110441925"><ele>373.0</ele><time>2026-04-25T09:09:02.999Z</time></trkpt><trkpt lat="44.20546525054559" lon="11.49882056195399"><ele>376.0</ele><time>2026-04-25T09:09:03.999Z</time></trkpt><trkpt lat="44.20540229021684" lon="11.498761098088396"><ele>379.0</ele><time>2026-04-25T09:09:04.999Z</time></trkpt><trkpt lat="44.20536166573285" lon="11.498656676638829"><ele>382.00000000000006</ele><time>2026-04-25T09:09:06.999Z</time></trkpt><trkpt lat="44.205402893976256" lon="11.498577868645345"><ele>385.0</ele><time>2026-04-25T09:09:08.999Z</time></trkpt><trkpt lat="44.205526046128625" lon="11.4986339463663"><ele>385.6666666666667</ele><time>2026-04-25T09:09:11Z</time></trkpt><trkpt lat="44.205582559094935" lon="11.498696907008311"><ele>386.33333333333337</ele><time>2026-04-25T09:09:12Z</time></trkpt><trkpt lat="44.205666180657616" lon="11.498739598508738"><ele>387.0</ele><time>2026-04-25T09:09:13Z</time></trkpt><trkpt lat="44.20573581707792" lon="11.498796366676094"><ele>387.66666666666663</ele><time>2026-04-25T09:09:14Z</time></trkpt><trkpt lat="44.205811877632904" lon="11.498820702057353"><ele>388.3333333333333</ele><time>2026-04-25T09:09:15Z</time></trkpt><trkpt lat="44.20589880490614" lon="11.498786009598296"><ele>389.0</ele><time>2026-04-25T09:09:16Z</time></trkpt><trkpt lat="44.20597089722638" lon="11.498732241993567"><ele>393.4</ele><time>2026-04-25T09:09:17Z</time></trkpt><trkpt lat="44.20604170187299" lon="11.498718960773427"><ele>397.79999999999995</ele><time>2026-04-25T09:09:18Z</time></trkpt><trkpt lat="44.20610442324064" lon="11.49870072208493"><ele>402.20000000000005</ele><time>2026-04-25T09:09:19Z</time></trkpt><trkpt lat="44.20621151158286" lon="11.498669123665136"><ele>406.6</ele><time>2026-04-25T09:09:21Z</time></trkpt><trkpt lat="44.20631769706536" lon="11.49861853138209"><ele>411.0</ele><time>2026-04-25T09:09:23Z</time></trkpt><trkpt lat="44.206420583915836" lon="11.49856510677392"><ele>411.0</ele><time>2026-04-25T09:09:25Z</time></trkpt><trkpt lat="44.206449102821495" lon="11.498390040917004"><ele>411.0</ele><time>2026-04-25T09:09:26Z</time></trkpt><trkpt lat="44.206495121734505" lon="11.498237392401045"><ele>411.0</ele><time>2026-04-25T09:09:28Z</time></trkpt><trkpt lat="44.20654128076981" lon="11.498082456551412"><ele>411.0</ele><time>2026-04-25T09:09:29Z</time></trkpt><trkpt lat="44.206582262012795" lon="11.497956293418497"><ele>414.0</ele><time>2026-04-25T09:09:30Z</time></trkpt><trkpt lat="44.2066216330116" lon="11.497805204455736"><ele>417.0</ele><time>2026-04-25T09:09:31Z</time></trkpt><trkpt lat="44.20665449608833" lon="11.4977008036388"><ele>420.0</ele><time>2026-04-25T09:09:32Z</time></trkpt><trkpt lat="44.20667392298455" lon="11.497604551353001"><ele>423.0</ele><time>2026-04-25T09:09:33Z</time></trkpt><trkpt lat="44.20670177696795" lon="11.497497707393773"><ele>426.0</ele><time>2026-04-25T09:09:34Z</time></trkpt><trkpt lat="44.20675929626562" lon="11.49736365334155"><ele>426.0</ele><time>2026-04-25T09:09:35Z</time></trkpt><trkpt lat="44.20680337223163" lon="11.497227605776171"><ele>426.0</ele><time>2026-04-25T09:09:36Z</time></trkpt><trkpt lat="44.20683657878432" lon="11.497126542261784"><ele>426.0</ele><time>2026-04-25T09:09:37Z</time></trkpt><trkpt lat="44.2068712056802" lon="11.497021156219521"><ele>426.0</ele><time>2026-04-25T09:09:38Z</time></trkpt><trkpt lat="44.206895550120784" lon="11.49690900510829"><ele>426.0</ele><time>2026-04-25T09:09:39Z</time></trkpt><trkpt lat="44.20694856430851" lon="11.49682784443472"><ele>426.0</ele><time>2026-04-25T09:09:40Z</time></trkpt><trkpt lat="44.20698544765967" lon="11.49675636899517"><ele>430.4</ele><time>2026-04-25T09:09:41Z</time></trkpt><trkpt lat="44.20702197846831" lon="11.496658734165667"><ele>434.8</ele><time>2026-04-25T09:09:42Z</time></trkpt><trkpt lat="44.20707770321706" lon="11.496500594169145"><ele>439.19999999999993</ele><time>2026-04-25T09:09:43Z</time></trkpt><trkpt lat="44.20713332819187" lon="11.496359661209423"><ele>443.59999999999997</ele><time>2026-04-25T09:09:44Z</time></trkpt><trkpt lat="44.20717763946407" lon="11.496252743664865"><ele>448.0</ele><time>2026-04-25T09:09:45Z</time></trkpt><trkpt lat="44.2072373208254" lon="11.496150771995698"><ele>446.59999999999997</ele><time>2026-04-25T09:09:46Z</time></trkpt><trkpt lat="44.207261359257174" lon="11.496059293453717"><ele>445.19999999999993</ele><time>2026-04-25T09:09:47Z</time></trkpt><trkpt lat="44.20731190587625" lon="11.495989686819314"><ele>443.8</ele><time>2026-04-25T09:09:48Z</time></trkpt><trkpt lat="44.20739655965468" lon="11.495922998949096"><ele>442.4</ele><time>2026-04-25T09:09:49Z</time></trkpt><trkpt lat="44.207498667845165" lon="11.495843801091675"><ele>441.0</ele><time>2026-04-25T09:09:50Z</time></trkpt><trkpt lat="44.20760034121083" lon="11.495744568518921"><ele>441.0</ele><time>2026-04-25T09:09:51Z</time></trkpt><trkpt lat="44.2076724066501" lon="11.495671258048086"><ele>441.0</ele><time>2026-04-25T09:09:52Z</time></trkpt><trkpt lat="44.207759172064954" lon="11.495629248231117"><ele>441.0</ele><time>2026-04-25T09:09:53Z</time></trkpt><trkpt lat="44.20783639474821" lon="11.495639188644738"><ele>441.0</ele><time>2026-04-25T09:09:54Z</time></trkpt><trkpt lat="44.20790710073207" lon="11.495672710812013"><ele>441.0</ele><time>2026-04-25T09:09:55Z</time></trkpt><trkpt lat="44.20797055509923" lon="11.49568391453081"><ele>441.0</ele><time>2026-04-25T09:09:56Z</time></trkpt><trkpt lat="44.20802603306592" lon="11.49564003240985"><ele>441.0</ele><time>2026-04-25T09:09:57Z</time></trkpt><trkpt lat="44.20805734673886" lon="11.495461530894891"><ele>441.0</ele><time>2026-04-25T09:09:59Z</time></trkpt><trkpt lat="44.208036828252915" lon="11.495347408518747"><ele>441.0</ele><time>2026-04-25T09:10:00Z</time></trkpt><trkpt lat="44.20800145322697" lon="11.495212442718408"><ele>441.0</ele><time>2026-04-25T09:10:01Z</time></trkpt><trkpt lat="44.20797448020457" lon="11.49505916670906"><ele>441.0</ele><time>2026-04-25T09:10:02Z</time></trkpt><trkpt lat="44.20796481925709" lon="11.494908996592356"><ele>441.6666666666667</ele><time>2026-04-25T09:10:03Z</time></trkpt><trkpt lat="44.20798350886545" lon="11.494783756392051"><ele>442.33333333333337</ele><time>2026-04-25T09:10:04Z</time></trkpt><trkpt lat="44.208027487428474" lon="11.494678982502595"><ele>443.0</ele><time>2026-04-25T09:10:05Z</time></trkpt><trkpt lat="44.20806835387597" lon="11.49457480200163"><ele>443.6666666666667</ele><time>2026-04-25T09:10:06Z</time></trkpt><trkpt lat="44.208116810269026" lon="11.494466420377071"><ele>444.33333333333337</ele><time>2026-04-25T09:10:07Z</time></trkpt><trkpt lat="44.20816558024238" lon="11.494392007066953"><ele>445.0</ele><time>2026-04-25T09:10:08Z</time></trkpt><trkpt lat="44.208220483395415" lon="11.494284033256827"><ele>445.0</ele><time>2026-04-25T09:10:10Z</time></trkpt><trkpt lat="44.20826945882029" lon="11.49417541149388"><ele>445.0</ele><time>2026-04-25T09:10:12.001Z</time></trkpt><trkpt lat="44.20829795557944" lon="11.494037984501976"><ele>445.0</ele><time>2026-04-25T09:10:14.001Z</time></trkpt><trkpt lat="44.20829223656726" lon="11.493864240390849"><ele>445.0</ele><time>2026-04-25T09:10:16.001Z</time></trkpt><trkpt lat="44.208291053580915" lon="11.493755706720954"><ele>445.0</ele><time>2026-04-25T09:10:17.001Z</time></trkpt><trkpt lat="44.20828479677127" lon="11.49364868491643"><ele>445.2</ele><time>2026-04-25T09:10:18.001Z</time></trkpt><trkpt lat="44.20826912851682" lon="11.493492790193061"><ele>445.4</ele><time>2026-04-25T09:10:19.001Z</time></trkpt><trkpt lat="44.20825107476614" lon="11.493342588481676"><ele>445.6</ele><time>2026-04-25T09:10:20.001Z</time></trkpt><trkpt lat="44.20824216481527" lon="11.493225752528717"><ele>445.8</ele><time>2026-04-25T09:10:21.001Z</time></trkpt><trkpt lat="44.20821960033892" lon="11.49311901431827"><ele>446.0</ele><time>2026-04-25T09:10:22.001Z</time></trkpt><trkpt lat="44.20818571431073" lon="11.493019933495184"><ele>445.66666666666663</ele><time>2026-04-25T09:10:23.001Z</time></trkpt><trkpt lat="44.20817585730565" lon="11.492905068392473"><ele>445.3333333333333</ele><time>2026-04-25T09:10:24.001Z</time></trkpt><trkpt lat="44.20815277101559" lon="11.492772481957083"><ele>445.0</ele><time>2026-04-25T09:10:25.001Z</time></trkpt><trkpt lat="44.20811816017898" lon="11.49264697303102"><ele>444.66666666666663</ele><time>2026-04-25T09:10:26.001Z</time></trkpt><trkpt lat="44.2081199705016" lon="11.492517785880748"><ele>444.3333333333333</ele><time>2026-04-25T09:10:27.001Z</time></trkpt><trkpt lat="44.20811468701696" lon="11.492408267788262"><ele>444.0</ele><time>2026-04-25T09:10:28.001Z</time></trkpt><trkpt lat="44.20811574959175" lon="11.492275833293279"><ele>444.2</ele><time>2026-04-25T09:10:29.001Z</time></trkpt><trkpt lat="44.20812637641459" lon="11.492173968870407"><ele>444.4</ele><time>2026-04-25T09:10:30.001Z</time></trkpt><trkpt lat="44.20816461902629" lon="11.492045568971584"><ele>444.6</ele><time>2026-04-25T09:10:31.001Z</time></trkpt><trkpt lat="44.20823363939874" lon="11.491890280628581"><ele>444.8</ele><time>2026-04-25T09:10:31.999Z</time></trkpt><trkpt lat="44.208302539027194" lon="11.491714557781544"><ele>445.0</ele><time>2026-04-25T09:10:32.999Z</time></trkpt><trkpt lat="44.20836984611204" lon="11.49154641789171"><ele>445.0</ele><time>2026-04-25T09:10:33.999Z</time></trkpt><trkpt lat="44.208433901595626" lon="11.49139795262902"><ele>445.0</ele><time>2026-04-25T09:10:34.999Z</time></trkpt><trkpt lat="44.20851300326879" lon="11.49126971465066"><ele>445.0</ele><time>2026-04-25T09:10:35.999Z</time></trkpt><trkpt lat="44.208600240856995" lon="11.49117154630625"><ele>445.0</ele><time>2026-04-25T09:10:36.999Z</time></trkpt><trkpt lat="44.20869151443813" lon="11.49109050075349"><ele>443.75</ele><time>2026-04-25T09:10:37.999Z</time></trkpt><trkpt lat="44.20877967159814" lon="11.491021740487371"><ele>442.5</ele><time>2026-04-25T09:10:38.999Z</time></trkpt><trkpt lat="44.20890170962041" lon="11.490931000239934"><ele>441.25</ele><time>2026-04-25T09:10:39.999Z</time></trkpt><trkpt lat="44.20901450862674" lon="11.490819691023614"><ele>440.0</ele><time>2026-04-25T09:10:40.999Z</time></trkpt><trkpt lat="44.20911984684972" lon="11.49074163402694"><ele>440.0</ele><time>2026-04-25T09:10:41.999Z</time></trkpt><trkpt lat="44.209211519780176" lon="11.490673934543777"><ele>440.0</ele><time>2026-04-25T09:10:42.999Z</time></trkpt><trkpt lat="44.20931601361889" lon="11.490586215787362"><ele>440.0</ele><time>2026-04-25T09:10:43.999Z</time></trkpt><trkpt lat="44.20940030033992" lon="11.490485730513996"><ele>440.0</ele><time>2026-04-25T09:10:44.999Z</time></trkpt><trkpt lat="44.209486254067826" lon="11.490404155977489"><ele>440.0</ele><time>2026-04-25T09:10:45.999Z</time></trkpt><trkpt lat="44.209549958960345" lon="11.49032330352016"><ele>442.0</ele><time>2026-04-25T09:10:46.999Z</time></trkpt><trkpt lat="44.20960160200218" lon="11.490230460922916"><ele>444.0</ele><time>2026-04-25T09:10:47.999Z</time></trkpt><trkpt lat="44.209628869014225" lon="11.490118554001954"><ele>446.0</ele><time>2026-04-25T09:10:48.999Z</time></trkpt><trkpt lat="44.20963513305089" lon="11.48999791481887"><ele>448.0</ele><time>2026-04-25T09:10:49.999Z</time></trkpt><trkpt lat="44.209617531621866" lon="11.4898529891559"><ele>450.0</ele><time>2026-04-25T09:10:50.999Z</time></trkpt><trkpt lat="44.20959200916456" lon="11.489701248093336"><ele>449.8</ele><time>2026-04-25T09:10:51.999Z</time></trkpt><trkpt lat="44.209590483009904" lon="11.48954238399261"><ele>449.6</ele><time>2026-04-25T09:10:52.999Z</time></trkpt><trkpt lat="44.20958258072178" lon="11.489414328286312"><ele>449.4</ele><time>2026-04-25T09:10:54Z</time></trkpt><trkpt lat="44.20957726477096" lon="11.48926814443208"><ele>449.2</ele><time>2026-04-25T09:10:55Z</time></trkpt><trkpt lat="44.209563935430644" lon="11.489134812488082"><ele>449.0</ele><time>2026-04-25T09:10:56Z</time></trkpt><trkpt lat="44.20956624456048" lon="11.488999322142941"><ele>449.0</ele><time>2026-04-25T09:10:57Z</time></trkpt><trkpt lat="44.209606829641416" lon="11.488895662256747"><ele>449.0</ele><time>2026-04-25T09:10:58Z</time></trkpt><trkpt lat="44.20964310994637" lon="11.488797237142926"><ele>449.0</ele><time>2026-04-25T09:10:59Z</time></trkpt><trkpt lat="44.20962119306267" lon="11.488630109794974"><ele>449.0</ele><time>2026-04-25T09:11:00Z</time></trkpt><trkpt lat="44.20961355331005" lon="11.488482778586375"><ele>449.0</ele><time>2026-04-25T09:11:01Z</time></trkpt><trkpt lat="44.20959139688252" lon="11.488346715523369"><ele>448.16666666666663</ele><time>2026-04-25T09:11:02Z</time></trkpt><trkpt lat="44.20955713665239" lon="11.488216312866406"><ele>447.3333333333333</ele><time>2026-04-25T09:11:03Z</time></trkpt><trkpt lat="44.2095041736183" lon="11.488113147843931"><ele>446.5</ele><time>2026-04-25T09:11:04Z</time></trkpt><trkpt lat="44.20944440445408" lon="11.488026773776117"><ele>445.66666666666663</ele><time>2026-04-25T09:11:05Z</time></trkpt><trkpt lat="44.209383899112" lon="11.487947677601731"><ele>444.8333333333333</ele><time>2026-04-25T09:11:06Z</time></trkpt><trkpt lat="44.209349907123766" lon="11.487836309986461"><ele>444.0</ele><time>2026-04-25T09:11:07Z</time></trkpt><trkpt lat="44.209334735474485" lon="11.487748302993001"><ele>444.0</ele><time>2026-04-25T09:11:08Z</time></trkpt><trkpt lat="44.20937404461422" lon="11.487540630292607"><ele>444.0</ele><time>2026-04-25T09:11:10Z</time></trkpt><trkpt lat="44.20942530903673" lon="11.48737099875455"><ele>444.0</ele><time>2026-04-25T09:11:11Z</time></trkpt><trkpt lat="44.20946457324405" lon="11.48721639708329"><ele>444.0</ele><time>2026-04-25T09:11:12Z</time></trkpt><trkpt lat="44.209478587002216" lon="11.487057528262278"><ele>444.4</ele><time>2026-04-25T09:11:13Z</time></trkpt><trkpt lat="44.20949685647764" lon="11.486921803011999"><ele>444.79999999999995</ele><time>2026-04-25T09:11:14Z</time></trkpt><trkpt lat="44.20950707262344" lon="11.486808950762233"><ele>445.20000000000005</ele><time>2026-04-25T09:11:15Z</time></trkpt><trkpt lat="44.209505507073445" lon="11.486688804495406"><ele>445.6</ele><time>2026-04-25T09:11:16Z</time></trkpt><trkpt lat="44.209456813034" lon="11.486558322186776"><ele>446.0</ele><time>2026-04-25T09:11:17Z</time></trkpt><trkpt lat="44.20944327242285" lon="11.48641042866466"><ele>446.0</ele><time>2026-04-25T09:11:18Z</time></trkpt><trkpt lat="44.20941815703738" lon="11.486270089594298"><ele>446.0</ele><time>2026-04-25T09:11:19Z</time></trkpt><trkpt lat="44.20938896494792" lon="11.486089222959148"><ele>446.0</ele><time>2026-04-25T09:11:20Z</time></trkpt><trkpt lat="44.20937139288351" lon="11.485918053784516"><ele>446.0</ele><time>2026-04-25T09:11:21Z</time></trkpt><trkpt lat="44.20937199384323" lon="11.485769923865515"><ele>445.8333333333333</ele><time>2026-04-25T09:11:22Z</time></trkpt><trkpt lat="44.20938537283179" lon="11.485643298556871"><ele>445.66666666666663</ele><time>2026-04-25T09:11:23Z</time></trkpt><trkpt lat="44.20938769331186" lon="11.485517115881992"><ele>445.5</ele><time>2026-04-25T09:11:24Z</time></trkpt><trkpt lat="44.209406361973606" lon="11.485402746323343"><ele>445.33333333333337</ele><time>2026-04-25T09:11:25Z</time></trkpt><trkpt lat="44.209409586746666" lon="11.48529312845224"><ele>445.1666666666667</ele><time>2026-04-25T09:11:26Z</time></trkpt><trkpt lat="44.209405322965374" lon="11.485192623396458"><ele>445.0</ele><time>2026-04-25T09:11:27Z</time></trkpt><trkpt lat="44.20938805515618" lon="11.485033817153598"><ele>444.4</ele><time>2026-04-25T09:11:29Z</time></trkpt><trkpt lat="44.20937181671485" lon="11.484876106855245"><ele>443.8</ele><time>2026-04-25T09:11:31Z</time></trkpt><trkpt lat="44.20938905437334" lon="11.484740248882883"><ele>443.20000000000005</ele><time>2026-04-25T09:11:33Z</time></trkpt><trkpt lat="44.209390322944536" lon="11.484575916321742"><ele>442.6</ele><time>2026-04-25T09:11:35Z</time></trkpt><trkpt lat="44.20939301377618" lon="11.48448064984791"><ele>442.0</ele><time>2026-04-25T09:11:36Z</time></trkpt><trkpt lat="44.209392423951705" lon="11.484382172107171"><ele>441.7142857142857</ele><time>2026-04-25T09:11:37Z</time></trkpt><trkpt lat="44.20938964765187" lon="11.484290822639215"><ele>441.42857142857144</ele><time>2026-04-25T09:11:38.001Z</time></trkpt><trkpt lat="44.209383941032236" lon="11.484201294943777"><ele>441.1428571428571</ele><time>2026-04-25T09:11:39.001Z</time></trkpt><trkpt lat="44.20938510224778" lon="11.484110578753041"><ele>440.8571428571429</ele><time>2026-04-25T09:11:40.001Z</time></trkpt><trkpt lat="44.20936865011179" lon="11.4840225763542"><ele>440.57142857142856</ele><time>2026-04-25T09:11:41.001Z</time></trkpt><trkpt lat="44.209355593199874" lon="11.483936559814422"><ele>440.2857142857143</ele><time>2026-04-25T09:11:42.001Z</time></trkpt><trkpt lat="44.20934906983197" lon="11.483779573949931"><ele>440.0</ele><time>2026-04-25T09:11:44.001Z</time></trkpt><trkpt lat="44.2093606927768" lon="11.48360821213038"><ele>440.0</ele><time>2026-04-25T09:11:46.001Z</time></trkpt><trkpt lat="44.2093539120804" lon="11.483462947099392"><ele>440.0</ele><time>2026-04-25T09:11:48.001Z</time></trkpt><trkpt lat="44.20933262795345" lon="11.483322545094294"><ele>440.0</ele><time>2026-04-25T09:11:50.001Z</time></trkpt><trkpt lat="44.209289223592016" lon="11.483239106895551"><ele>440.0</ele><time>2026-04-25T09:11:52.001Z</time></trkpt><trkpt lat="44.20924233575929" lon="11.483105999395454"><ele>440.0</ele><time>2026-04-25T09:11:54.001Z</time></trkpt><trkpt lat="44.20919649732844" lon="11.48297154396938"><ele>442.3333333333333</ele><time>2026-04-25T09:11:56.001Z</time></trkpt><trkpt lat="44.20916917191253" lon="11.482885847781423"><ele>444.66666666666663</ele><time>2026-04-25T09:11:57.001Z</time></trkpt><trkpt lat="44.209172123691005" lon="11.482792013622925"><ele>447.0</ele><time>2026-04-25T09:11:59.001Z</time></trkpt><trkpt lat="44.20924807540706" lon="11.482711670435503"><ele>449.33333333333337</ele><time>2026-04-25T09:12:23.001Z</time></trkpt><trkpt lat="44.20930969942886" lon="11.482663146563148"><ele>451.6666666666667</ele><time>2026-04-25T09:12:26.001Z</time></trkpt><trkpt lat="44.20936361643084" lon="11.48261643840868"><ele>454.0</ele><time>2026-04-25T09:12:27.001Z</time></trkpt><trkpt lat="44.209460999181765" lon="11.482604921421155"><ele>454.00000000000006</ele><time>2026-04-25T09:12:29.001Z</time></trkpt><trkpt lat="44.20953640808395" lon="11.482620387858303"><ele>454.0</ele><time>2026-04-25T09:12:31.001Z</time></trkpt><trkpt lat="44.20962188565422" lon="11.482639541127947"><ele>454.0</ele><time>2026-04-25T09:12:33.001Z</time></trkpt><trkpt lat="44.20971948450864" lon="11.482675941870161"><ele>454.0</ele><time>2026-04-25T09:12:35.002Z</time></trkpt><trkpt lat="44.2097681392432" lon="11.482733998784802"><ele>454.00000000000006</ele><time>2026-04-25T09:12:37.002Z</time></trkpt><trkpt lat="44.20980630577183" lon="11.48280408530243"><ele>454.0</ele><time>2026-04-25T09:12:40Z</time></trkpt><trkpt lat="44.20977286729203" lon="11.482958366045585"><ele>449.50000000000006</ele><time>2026-04-25T09:12:41Z</time></trkpt><trkpt lat="44.209847188671226" lon="11.48307317575699"><ele>445.0</ele><time>2026-04-25T09:12:43Z</time></trkpt><trkpt lat="44.209904084334475" lon="11.483122190999767"><ele>440.5</ele><time>2026-04-25T09:12:44Z</time></trkpt><trkpt lat="44.20999377507862" lon="11.483191482650923"><ele>436.0</ele><time>2026-04-25T09:12:46Z</time></trkpt><trkpt lat="44.210042092707" lon="11.483130898853942"><ele>431.50000000000006</ele><time>2026-04-25T09:12:47Z</time></trkpt><trkpt lat="44.210110841478055" lon="11.483058167573478"><ele>427.0</ele><time>2026-04-25T09:12:49Z</time></trkpt><trkpt lat="44.21021084872003" lon="11.482966908554888"><ele>432.1666666666667</ele><time>2026-04-25T09:12:51Z</time></trkpt><trkpt lat="44.21027795195412" lon="11.482904254277944"><ele>437.33333333333337</ele><time>2026-04-25T09:12:52Z</time></trkpt><trkpt lat="44.210334478713456" lon="11.482850447515485"><ele>442.5</ele><time>2026-04-25T09:12:53Z</time></trkpt><trkpt lat="44.21040773742775" lon="11.48277416404856"><ele>447.66666666666663</ele><time>2026-04-25T09:12:55Z</time></trkpt><trkpt lat="44.21047311298749" lon="11.482712764050934"><ele>452.8333333333333</ele><time>2026-04-25T09:12:57Z</time></trkpt><trkpt lat="44.21058070730981" lon="11.482687340560597"><ele>458.0</ele><time>2026-04-25T09:12:59Z</time></trkpt><trkpt lat="44.2106523560226" lon="11.482706532559673"><ele>458.3333333333333</ele><time>2026-04-25T09:13:00Z</time></trkpt><trkpt lat="44.21071499563225" lon="11.482716695736675"><ele>458.66666666666663</ele><time>2026-04-25T09:13:01Z</time></trkpt><trkpt lat="44.210826618121665" lon="11.482751002215412"><ele>459.0</ele><time>2026-04-25T09:13:03Z</time></trkpt><trkpt lat="44.21092267179527" lon="11.482782243797946"><ele>459.33333333333337</ele><time>2026-04-25T09:13:05Z</time></trkpt><trkpt lat="44.21099917665121" lon="11.482809088824924"><ele>459.6666666666667</ele><time>2026-04-25T09:13:07Z</time></trkpt><trkpt lat="44.21108614538169" lon="11.482851495069804"><ele>460.0</ele><time>2026-04-25T09:13:10Z</time></trkpt><trkpt lat="44.21112367716344" lon="11.482933681122944"><ele>455.33333333333337</ele><time>2026-04-25T09:13:13Z</time></trkpt><trkpt lat="44.211136121998166" lon="11.483020131270504"><ele>450.6666666666667</ele><time>2026-04-25T09:13:14.001Z</time></trkpt><trkpt lat="44.21115113263257" lon="11.483133651694747"><ele>446.0</ele><time>2026-04-25T09:13:15.001Z</time></trkpt><trkpt lat="44.21115142216072" lon="11.483241745502967"><ele>441.33333333333337</ele><time>2026-04-25T09:13:16.001Z</time></trkpt><trkpt lat="44.211145276291404" lon="11.48334360493153"><ele>436.6666666666667</ele><time>2026-04-25T09:13:17.001Z</time></trkpt><trkpt lat="44.21120077553436" lon="11.483470341031092"><ele>432.0</ele><time>2026-04-25T09:13:19.001Z</time></trkpt><trkpt lat="44.2112828697088" lon="11.483599067500368"><ele>432.0</ele><time>2026-04-25T09:13:21.001Z</time></trkpt><trkpt lat="44.211326374387404" lon="11.483670450580068"><ele>432.0</ele><time>2026-04-25T09:13:22.001Z</time></trkpt><trkpt lat="44.211367710984334" lon="11.483737253303913"><ele>432.0</ele><time>2026-04-25T09:13:23.001Z</time></trkpt><trkpt lat="44.211385566675354" lon="11.483850248028993"><ele>432.0</ele><time>2026-04-25T09:13:25.001Z</time></trkpt><trkpt lat="44.21134919209257" lon="11.48397488865913"><ele>432.0</ele><time>2026-04-25T09:13:27.001Z</time></trkpt><trkpt lat="44.21133915589371" lon="11.484078298889772"><ele>432.0</ele><time>2026-04-25T09:13:28.001Z</time></trkpt><trkpt lat="44.21129336564473" lon="11.484169485463497"><ele>429.6666666666667</ele><time>2026-04-25T09:13:29.001Z</time></trkpt><trkpt lat="44.21128889703543" lon="11.484268755110204"><ele>427.33333333333337</ele><time>2026-04-25T09:13:30.001Z</time></trkpt><trkpt lat="44.21129004798961" lon="11.484383516744783"><ele>425.0</ele><time>2026-04-25T09:13:32.001Z</time></trkpt><trkpt lat="44.21135326010518" lon="11.484478776853583"><ele>422.6666666666667</ele><time>2026-04-25T09:13:34.001Z</time></trkpt><trkpt lat="44.21144381747013" lon="11.484559284480314"><ele>420.33333333333337</ele><time>2026-04-25T09:13:36.001Z</time></trkpt><trkpt lat="44.21150750833036" lon="11.484574942905072"><ele>418.0</ele><time>2026-04-25T09:13:38.001Z</time></trkpt><trkpt lat="44.21157440867373" lon="11.484581351127506"><ele>420.79999999999995</ele><time>2026-04-25T09:13:40.001Z</time></trkpt><trkpt lat="44.21166688544297" lon="11.484611421801597"><ele>423.6</ele><time>2026-04-25T09:13:42.001Z</time></trkpt><trkpt lat="44.21176434996733" lon="11.484618316884818"><ele>426.40000000000003</ele><time>2026-04-25T09:13:44.001Z</time></trkpt><trkpt lat="44.21186646385581" lon="11.484616397327894"><ele>429.20000000000005</ele><time>2026-04-25T09:13:46.001Z</time></trkpt><trkpt lat="44.21196601026944" lon="11.484621699443863"><ele>432.0</ele><time>2026-04-25T09:13:48.001Z</time></trkpt><trkpt lat="44.21205826590531" lon="11.484612331912741"><ele>435.8</ele><time>2026-04-25T09:13:50.001Z</time></trkpt><trkpt lat="44.2121573092656" lon="11.4845553165746"><ele>439.6</ele><time>2026-04-25T09:13:52.001Z</time></trkpt><trkpt lat="44.212232980461664" lon="11.484455607070663"><ele>443.40000000000003</ele><time>2026-04-25T09:13:54.001Z</time></trkpt><trkpt lat="44.21232258966325" lon="11.484360898785063"><ele>447.20000000000005</ele><time>2026-04-25T09:13:56.001Z</time></trkpt><trkpt lat="44.21242778817537" lon="11.484275767636163"><ele>451.0</ele><time>2026-04-25T09:13:58.001Z</time></trkpt><trkpt lat="44.21248520512308" lon="11.484230191813712"><ele>452.4</ele><time>2026-04-25T09:13:59.001Z</time></trkpt><trkpt lat="44.212593807149894" lon="11.48414468249116"><ele>453.8</ele><time>2026-04-25T09:14:01.001Z</time></trkpt><trkpt lat="44.21270420991157" lon="11.484108467304166"><ele>455.19999999999993</ele><time>2026-04-25T09:14:03.001Z</time></trkpt><trkpt lat="44.212768728045525" lon="11.484102428206507"><ele>456.59999999999997</ele><time>2026-04-25T09:14:04.001Z</time></trkpt><trkpt lat="44.21287866491874" lon="11.48409289324069"><ele>458.0</ele><time>2026-04-25T09:14:06.001Z</time></trkpt><trkpt lat="44.2129811574047" lon="11.484056503070112"><ele>458.0</ele><time>2026-04-25T09:14:08.001Z</time></trkpt><trkpt lat="44.213063643646095" lon="11.48398996445082"><ele>457.99999999999994</ele><time>2026-04-25T09:14:09.001Z</time></trkpt><trkpt lat="44.21311647472832" lon="11.483857044088678"><ele>457.99999999999994</ele><time>2026-04-25T09:14:10.001Z</time></trkpt><trkpt lat="44.2132315521907" lon="11.48372216740535"><ele>458.0</ele><time>2026-04-25T09:14:13.001Z</time></trkpt><trkpt lat="44.21328122751244" lon="11.483645187251831"><ele>458.0</ele><time>2026-04-25T09:14:14.002Z</time></trkpt><trkpt lat="44.213391400643054" lon="11.483600470411636"><ele>462.0</ele><time>2026-04-25T09:14:17.002Z</time></trkpt><trkpt lat="44.213510709270615" lon="11.48355061075498"><ele>465.99999999999994</ele><time>2026-04-25T09:14:19.002Z</time></trkpt><trkpt lat="44.21358035348262" lon="11.48349757057878"><ele>469.99999999999994</ele><time>2026-04-25T09:14:20.002Z</time></trkpt><trkpt lat="44.213643537427174" lon="11.483424267290198"><ele>474.0</ele><time>2026-04-25T09:14:21.002Z</time></trkpt><trkpt lat="44.213696888037084" lon="11.483351754277443"><ele>478.0</ele><time>2026-04-25T09:14:22.002Z</time></trkpt><trkpt lat="44.2137824022962" lon="11.483231919758426"><ele>478.0</ele><time>2026-04-25T09:14:24.002Z</time></trkpt><trkpt lat="44.2138328041917" lon="11.483172879499394"><ele>477.99999999999994</ele><time>2026-04-25T09:14:25.002Z</time></trkpt><trkpt lat="44.21392448360764" lon="11.483073307006523"><ele>477.99999999999994</ele><time>2026-04-25T09:14:27.002Z</time></trkpt><trkpt lat="44.2139847051169" lon="11.483013788847416"><ele>478.0</ele><time>2026-04-25T09:14:28.002Z</time></trkpt><trkpt lat="44.21408653678477" lon="11.482927095431322"><ele>478.0</ele><time>2026-04-25T09:14:30.002Z</time></trkpt><trkpt lat="44.21416198751923" lon="11.482905551988905"><ele>478.6666666666667</ele><time>2026-04-25T09:14:32.002Z</time></trkpt><trkpt lat="44.214280777614334" lon="11.482897426282946"><ele>479.33333333333337</ele><time>2026-04-25T09:14:34.002Z</time></trkpt><trkpt lat="44.21434671326755" lon="11.482902376581125"><ele>480.0</ele><time>2026-04-25T09:14:35.002Z</time></trkpt><trkpt lat="44.21441122530291" lon="11.482928825606015"><ele>480.66666666666663</ele><time>2026-04-25T09:14:36.002Z</time></trkpt><trkpt lat="44.21449727437206" lon="11.483025897095498"><ele>481.3333333333333</ele><time>2026-04-25T09:14:38.002Z</time></trkpt><trkpt lat="44.21455005272141" lon="11.483075523744121"><ele>482.0</ele><time>2026-04-25T09:14:39.002Z</time></trkpt><trkpt lat="44.214601335625524" lon="11.483204913684338"><ele>482.0</ele><time>2026-04-25T09:14:41.002Z</time></trkpt><trkpt lat="44.214680287240455" lon="11.483324585655946"><ele>482.00000000000006</ele><time>2026-04-25T09:14:43.002Z</time></trkpt><trkpt lat="44.214733118650244" lon="11.483401389091954"><ele>482.00000000000006</ele><time>2026-04-25T09:14:44.001Z</time></trkpt><trkpt lat="44.21481313898539" lon="11.483531738383427"><ele>482.0</ele><time>2026-04-25T09:14:46.001Z</time></trkpt><trkpt lat="44.21489307542562" lon="11.483641648425703"><ele>482.0</ele><time>2026-04-25T09:14:48.001Z</time></trkpt><trkpt lat="44.21497973705788" lon="11.483631088733917"><ele>484.49999999999994</ele><time>2026-04-25T09:14:50Z</time></trkpt><trkpt lat="44.21504719000421" lon="11.483645243857048"><ele>487.0</ele><time>2026-04-25T09:14:52Z</time></trkpt><trkpt lat="44.2151129042238" lon="11.483672499117679"><ele>489.5</ele><time>2026-04-25T09:14:54Z</time></trkpt><trkpt lat="44.21515546051529" lon="11.483776899403564"><ele>492.0</ele><time>2026-04-25T09:14:57Z</time></trkpt><trkpt lat="44.215181150802316" lon="11.48368870768195"><ele>494.49999999999994</ele><time>2026-04-25T09:15:07Z</time></trkpt><trkpt lat="44.215212294580546" lon="11.483859768736915"><ele>497.0</ele><time>2026-04-25T09:15:24.001Z</time></trkpt><trkpt lat="44.215159253058765" lon="11.483773398917727"><ele>497.0</ele><time>2026-04-25T09:15:29.001Z</time></trkpt><trkpt lat="44.2151957264516" lon="11.48345004786536"><ele>497.0</ele><time>2026-04-25T09:15:31.001Z</time></trkpt><trkpt lat="44.21519214714975" lon="11.483331753452397"><ele>497.0</ele><time>2026-04-25T09:15:32.001Z</time></trkpt><trkpt lat="44.21515972754835" lon="11.483225618729154"><ele>497.0</ele><time>2026-04-25T09:15:33.001Z</time></trkpt><trkpt lat="44.21513290310822" lon="11.483110136521397"><ele>497.0</ele><time>2026-04-25T09:15:34.001Z</time></trkpt><trkpt lat="44.215088772649786" lon="11.482988031760252"><ele>497.0</ele><time>2026-04-25T09:15:35.001Z</time></trkpt><trkpt lat="44.21502855379474" lon="11.482854257189489"><ele>497.0</ele><time>2026-04-25T09:15:36.001Z</time></trkpt><trkpt lat="44.2149581184967" lon="11.482710379332826"><ele>497.0</ele><time>2026-04-25T09:15:37.001Z</time></trkpt><trkpt lat="44.214886272458635" lon="11.482550365582238"><ele>497.0</ele><time>2026-04-25T09:15:38.001Z</time></trkpt><trkpt lat="44.214842982953456" lon="11.482361911514877"><ele>497.0</ele><time>2026-04-25T09:15:39.001Z</time></trkpt><trkpt lat="44.21478230909711" lon="11.482168305475444"><ele>497.0</ele><time>2026-04-25T09:15:40.001Z</time></trkpt><trkpt lat="44.214725650240645" lon="11.481974238188117"><ele>497.0</ele><time>2026-04-25T09:15:41.001Z</time></trkpt><trkpt lat="44.21468396474024" lon="11.481791220779453"><ele>505.66666666666663</ele><time>2026-04-25T09:15:42.001Z</time></trkpt><trkpt lat="44.214592995033186" lon="11.481536574431189"><ele>514.3333333333334</ele><time>2026-04-25T09:15:43.001Z</time></trkpt><trkpt lat="44.21440473141777" lon="11.481327986476213"><ele>523.0</ele><time>2026-04-25T09:15:44.001Z</time></trkpt><trkpt lat="44.214230797048316" lon="11.481247582412108"><ele>523.0</ele><time>2026-04-25T09:15:45.001Z</time></trkpt><trkpt lat="44.21442642500414" lon="11.481293728863465"><ele>523.0</ele><time>2026-04-25T09:15:46.001Z</time></trkpt><trkpt lat="44.214333794827844" lon="11.481257406253807"><ele>523.0</ele><time>2026-04-25T09:15:47.001Z</time></trkpt><trkpt lat="44.21423770664277" lon="11.481231769215587"><ele>523.0</ele><time>2026-04-25T09:15:48.001Z</time></trkpt><trkpt lat="44.21415184824488" lon="11.481178807455617"><ele>523.0</ele><time>2026-04-25T09:15:49.001Z</time></trkpt><trkpt lat="44.2140825008064" lon="11.481079366788347"><ele>523.0</ele><time>2026-04-25T09:15:50.001Z</time></trkpt><trkpt lat="44.21406512077657" lon="11.480927763504086"><ele>523.0</ele><time>2026-04-25T09:15:51.001Z</time></trkpt><trkpt lat="44.214042321416095" lon="11.48081720661732"><ele>523.0</ele><time>2026-04-25T09:15:52.001Z</time></trkpt><trkpt lat="44.21398855832368" lon="11.480699300893514"><ele>523.0</ele><time>2026-04-25T09:15:53.001Z</time></trkpt><trkpt lat="44.21393832471199" lon="11.480596244978168"><ele>525.1999999999999</ele><time>2026-04-25T09:15:54.001Z</time></trkpt><trkpt lat="44.21386242999643" lon="11.480541973870862"><ele>527.4</ele><time>2026-04-25T09:15:55.001Z</time></trkpt><trkpt lat="44.213786603881424" lon="11.480499546518312"><ele>529.5999999999999</ele><time>2026-04-25T09:15:56.001Z</time></trkpt><trkpt lat="44.213694733690595" lon="11.480459228241559"><ele>531.8</ele><time>2026-04-25T09:15:57.001Z</time></trkpt><trkpt lat="44.213606073343875" lon="11.480397980851192"><ele>534.0</ele><time>2026-04-25T09:15:58.001Z</time></trkpt><trkpt lat="44.21351751705308" lon="11.480311402408274"><ele>534.0</ele><time>2026-04-25T09:15:59.001Z</time></trkpt><trkpt lat="44.213429747884064" lon="11.480218204013092"><ele>534.0</ele><time>2026-04-25T09:16:00.001Z</time></trkpt><trkpt lat="44.2133373526857" lon="11.480119051549167"><ele>534.0</ele><time>2026-04-25T09:16:01.001Z</time></trkpt><trkpt lat="44.213244699401" lon="11.480017947811124"><ele>534.0</ele><time>2026-04-25T09:16:02.001Z</time></trkpt><trkpt lat="44.21315466099578" lon="11.479907577076798"><ele>537.75</ele><time>2026-04-25T09:16:03.001Z</time></trkpt><trkpt lat="44.21305333862291" lon="11.479797713138021"><ele>541.5</ele><time>2026-04-25T09:16:04.001Z</time></trkpt><trkpt lat="44.21295429076042" lon="11.479697169116923"><ele>545.25</ele><time>2026-04-25T09:16:05.001Z</time></trkpt><trkpt lat="44.21285322638442" lon="11.47958965921244"><ele>549.0</ele><time>2026-04-25T09:16:06.001Z</time></trkpt><trkpt lat="44.212753143843265" lon="11.479480145544564"><ele>549.0</ele><time>2026-04-25T09:16:07.001Z</time></trkpt><trkpt lat="44.21265456729142" lon="11.479362752407047"><ele>549.0</ele><time>2026-04-25T09:16:08.001Z</time></trkpt><trkpt lat="44.21253970504978" lon="11.479238224355283"><ele>549.0</ele><time>2026-04-25T09:16:09.001Z</time></trkpt><trkpt lat="44.212438549272186" lon="11.479117876270163"><ele>549.0</ele><time>2026-04-25T09:16:10.001Z</time></trkpt><trkpt lat="44.212353262279215" lon="11.479003699516529"><ele>551.4</ele><time>2026-04-25T09:16:11.001Z</time></trkpt><trkpt lat="44.212278923082536" lon="11.478885336482469"><ele>553.8</ele><time>2026-04-25T09:16:12.001Z</time></trkpt><trkpt lat="44.21220716833567" lon="11.47877168386741"><ele>556.2</ele><time>2026-04-25T09:16:13.001Z</time></trkpt><trkpt lat="44.21213744505022" lon="11.4786714162991"><ele>558.6</ele><time>2026-04-25T09:16:14.001Z</time></trkpt><trkpt lat="44.21205626873476" lon="11.478604261908329"><ele>561.0</ele><time>2026-04-25T09:16:15.001Z</time></trkpt><trkpt lat="44.21196486106154" lon="11.478569926364747"><ele>561.0</ele><time>2026-04-25T09:16:16.001Z</time></trkpt><trkpt lat="44.21186808368554" lon="11.478551883282622"><ele>561.0</ele><time>2026-04-25T09:16:17.001Z</time></trkpt><trkpt lat="44.21178272127179" lon="11.478531633547775"><ele>561.0</ele><time>2026-04-25T09:16:18.001Z</time></trkpt><trkpt lat="44.211708207322324" lon="11.478474817758437"><ele>561.0</ele><time>2026-04-25T09:16:19.002Z</time></trkpt><trkpt lat="44.21167748089957" lon="11.478350395357708"><ele>561.0</ele><time>2026-04-25T09:16:20.002Z</time></trkpt><trkpt lat="44.21160593661808" lon="11.478260057298419"><ele>561.0</ele><time>2026-04-25T09:16:21.002Z</time></trkpt><trkpt lat="44.211545938946934" lon="11.478171708513733"><ele>561.0</ele><time>2026-04-25T09:16:22.002Z</time></trkpt><trkpt lat="44.21145651954609" lon="11.478124007413916"><ele>561.0</ele><time>2026-04-25T09:16:23.002Z</time></trkpt><trkpt lat="44.2113576697948" lon="11.478060865395511"><ele>561.0</ele><time>2026-04-25T09:16:24.002Z</time></trkpt><trkpt lat="44.211271182284484" lon="11.477946797747393"><ele>561.0</ele><time>2026-04-25T09:16:25.002Z</time></trkpt><trkpt lat="44.21119645262711" lon="11.477811475311135"><ele>564.5</ele><time>2026-04-25T09:16:26.002Z</time></trkpt><trkpt lat="44.21112296293423" lon="11.477671549983686"><ele>568.0</ele><time>2026-04-25T09:16:27.002Z</time></trkpt><trkpt lat="44.211037994069166" lon="11.477537085048551"><ele>571.5</ele><time>2026-04-25T09:16:28.002Z</time></trkpt><trkpt lat="44.21094377694111" lon="11.477442257491113"><ele>575.0</ele><time>2026-04-25T09:16:29.002Z</time></trkpt><trkpt lat="44.21084205597353" lon="11.477360930565094"><ele>575.0</ele><time>2026-04-25T09:16:30.002Z</time></trkpt><trkpt lat="44.21074719941565" lon="11.477287915033186"><ele>575.0</ele><time>2026-04-25T09:16:31.002Z</time></trkpt><trkpt lat="44.21067700828737" lon="11.477204478470247"><ele>575.0</ele><time>2026-04-25T09:16:32.002Z</time></trkpt><trkpt lat="44.21062808155301" lon="11.477125149420907"><ele>575.0</ele><time>2026-04-25T09:16:33.002Z</time></trkpt><trkpt lat="44.21057929531467" lon="11.477062052410673"><ele>575.0</ele><time>2026-04-25T09:16:34.002Z</time></trkpt><trkpt lat="44.21047360340777" lon="11.477002432730739"><ele>576.6666666666666</ele><time>2026-04-25T09:16:36.002Z</time></trkpt><trkpt lat="44.210405915806206" lon="11.477016148422155"><ele>578.3333333333333</ele><time>2026-04-25T09:16:37.002Z</time></trkpt><trkpt lat="44.21035534624338" lon="11.47712214993643"><ele>580.0</ele><time>2026-04-25T09:16:38.002Z</time></trkpt><trkpt lat="44.210367271011464" lon="11.47726190346656"><ele>581.6666666666666</ele><time>2026-04-25T09:16:39.002Z</time></trkpt><trkpt lat="44.21043426952241" lon="11.477374392303089"><ele>583.3333333333334</ele><time>2026-04-25T09:16:40.002Z</time></trkpt><trkpt lat="44.21049427574609" lon="11.477455591568978"><ele>585.0</ele><time>2026-04-25T09:16:41.002Z</time></trkpt><trkpt lat="44.21048594966707" lon="11.477604322892331"><ele>587.2</ele><time>2026-04-25T09:16:43.002Z</time></trkpt><trkpt lat="44.210419477366365" lon="11.477621623298726"><ele>589.4</ele><time>2026-04-25T09:16:44.002Z</time></trkpt><trkpt lat="44.21034686629931" lon="11.477575179513254"><ele>591.6</ele><time>2026-04-25T09:16:45.002Z</time></trkpt><trkpt lat="44.2102957616541" lon="11.47745673312139"><ele>593.8</ele><time>2026-04-25T09:16:46.002Z</time></trkpt><trkpt lat="44.210204173265176" lon="11.477346057769893"><ele>596.0</ele><time>2026-04-25T09:16:47.002Z</time></trkpt><trkpt lat="44.210119275196874" lon="11.477214551803396"><ele>593.25</ele><time>2026-04-25T09:16:48.002Z</time></trkpt><trkpt lat="44.21001531701237" lon="11.477083527217804"><ele>590.5</ele><time>2026-04-25T09:16:49.002Z</time></trkpt><trkpt lat="44.2098931914605" lon="11.476960441337937"><ele>587.75</ele><time>2026-04-25T09:16:50.001Z</time></trkpt><trkpt lat="44.209768863708106" lon="11.476865122879587"><ele>585.0</ele><time>2026-04-25T09:16:51.001Z</time></trkpt><trkpt lat="44.20966579394719" lon="11.476816219619371"><ele>590.5</ele><time>2026-04-25T09:16:52.001Z</time></trkpt><trkpt lat="44.20954572077376" lon="11.47678110946594"><ele>596.0</ele><time>2026-04-25T09:16:53.001Z</time></trkpt><trkpt lat="44.209409314058405" lon="11.476767974125535"><ele>601.5</ele><time>2026-04-25T09:16:54Z</time></trkpt><trkpt lat="44.2092729946138" lon="11.476756555030098"><ele>607.0</ele><time>2026-04-25T09:16:55Z</time></trkpt><trkpt lat="44.20917614529679" lon="11.47670350065256"><ele>607.0</ele><time>2026-04-25T09:16:56Z</time></trkpt><trkpt lat="44.20910576805187" lon="11.476638529984065"><ele>607.0</ele><time>2026-04-25T09:16:57Z</time></trkpt><trkpt lat="44.20904252413618" lon="11.476580812928384"><ele>607.0</ele><time>2026-04-25T09:16:58Z</time></trkpt><trkpt lat="44.20897979867005" lon="11.476559072040088"><ele>607.0</ele><time>2026-04-25T09:16:59Z</time></trkpt><trkpt lat="44.20887466490423" lon="11.476657232950242"><ele>607.0</ele><time>2026-04-25T09:17:01Z</time></trkpt><trkpt lat="44.208851297562866" lon="11.476746458057782"><ele>607.0</ele><time>2026-04-25T09:17:02Z</time></trkpt><trkpt lat="44.20889316806512" lon="11.476902941692375"><ele>609.75</ele><time>2026-04-25T09:17:04Z</time></trkpt><trkpt lat="44.20894022402132" lon="11.47703030382327"><ele>612.5</ele><time>2026-04-25T09:17:05Z</time></trkpt><trkpt lat="44.20898996574644" lon="11.477169774641755"><ele>615.25</ele><time>2026-04-25T09:17:06Z</time></trkpt><trkpt lat="44.20905031594241" lon="11.477345543939238"><ele>618.0</ele><time>2026-04-25T09:17:07Z</time></trkpt><trkpt lat="44.20911609694049" lon="11.477539178448877"><ele>618.0</ele><time>2026-04-25T09:17:08Z</time></trkpt><trkpt lat="44.20918325331107" lon="11.477746206594349"><ele>618.0</ele><time>2026-04-25T09:17:09Z</time></trkpt><trkpt lat="44.20923548144146" lon="11.477961264307176"><ele>618.0</ele><time>2026-04-25T09:17:10Z</time></trkpt><trkpt lat="44.209268607667795" lon="11.478188992294916"><ele>620.0</ele><time>2026-04-25T09:17:11Z</time></trkpt><trkpt lat="44.20933115544261" lon="11.478367371740395"><ele>622.0</ele><time>2026-04-25T09:17:12Z</time></trkpt><trkpt lat="44.209368271896736" lon="11.47851074942755"><ele>624.0</ele><time>2026-04-25T09:17:13Z</time></trkpt><trkpt lat="44.20935691678304" lon="11.478624028783214"><ele>626.0</ele><time>2026-04-25T09:17:14Z</time></trkpt><trkpt lat="44.20931913158408" lon="11.478697279741818"><ele>628.0</ele><time>2026-04-25T09:17:15Z</time></trkpt><trkpt lat="44.20926056313846" lon="11.478730445805157"><ele>628.0</ele><time>2026-04-25T09:17:16Z</time></trkpt><trkpt lat="44.209192612932426" lon="11.47871275336367"><ele>628.0</ele><time>2026-04-25T09:17:17Z</time></trkpt><trkpt lat="44.209133947075216" lon="11.478624104446773"><ele>628.0</ele><time>2026-04-25T09:17:18Z</time></trkpt><trkpt lat="44.20904275451633" lon="11.47852609642442"><ele>628.0</ele><time>2026-04-25T09:17:19Z</time></trkpt><trkpt lat="44.2089237160316" lon="11.478416702353346"><ele>628.0</ele><time>2026-04-25T09:17:20.001Z</time></trkpt><trkpt lat="44.20879834025737" lon="11.478282716190332"><ele>631.3333333333334</ele><time>2026-04-25T09:17:21.001Z</time></trkpt><trkpt lat="44.20865539935008" lon="11.478162559434098"><ele>634.6666666666666</ele><time>2026-04-25T09:17:22.001Z</time></trkpt><trkpt lat="44.20850645338434" lon="11.478038251401342"><ele>638.0</ele><time>2026-04-25T09:17:23.001Z</time></trkpt><trkpt lat="44.208350671485505" lon="11.477921910771935"><ele>638.0</ele><time>2026-04-25T09:17:24.001Z</time></trkpt><trkpt lat="44.20819026825455" lon="11.477802790179958"><ele>638.0</ele><time>2026-04-25T09:17:25.001Z</time></trkpt><trkpt lat="44.20802889024425" lon="11.47769619796026"><ele>638.0</ele><time>2026-04-25T09:17:26.001Z</time></trkpt><trkpt lat="44.20786989120274" lon="11.47760395554622"><ele>641.5</ele><time>2026-04-25T09:17:27.001Z</time></trkpt><trkpt lat="44.20773026100411" lon="11.477523980927831"><ele>645.0</ele><time>2026-04-25T09:17:28.001Z</time></trkpt><trkpt lat="44.207613749524974" lon="11.477445993931118"><ele>648.5</ele><time>2026-04-25T09:17:29.001Z</time></trkpt><trkpt lat="44.207514479948195" lon="11.477351581218056"><ele>652.0</ele><time>2026-04-25T09:17:30.001Z</time></trkpt><trkpt lat="44.20742398480126" lon="11.477244588657715"><ele>652.0</ele><time>2026-04-25T09:17:31.001Z</time></trkpt><trkpt lat="44.207343557201845" lon="11.477122603953347"><ele>652.0</ele><time>2026-04-25T09:17:32.001Z</time></trkpt><trkpt lat="44.20724857177546" lon="11.477018204201823"><ele>652.0</ele><time>2026-04-25T09:17:33.001Z</time></trkpt><trkpt lat="44.20719519804685" lon="11.47688556760569"><ele>652.0</ele><time>2026-04-25T09:17:34.001Z</time></trkpt><trkpt lat="44.20714772601755" lon="11.476751640322844"><ele>651.8</ele><time>2026-04-25T09:17:35.001Z</time></trkpt><trkpt lat="44.207107000095576" lon="11.476621121738928"><ele>651.6</ele><time>2026-04-25T09:17:36.001Z</time></trkpt><trkpt lat="44.20704180503566" lon="11.476515434513665"><ele>651.4</ele><time>2026-04-25T09:17:37.001Z</time></trkpt><trkpt lat="44.20696822161154" lon="11.476431344638133"><ele>651.1999999999999</ele><time>2026-04-25T09:17:38.001Z</time></trkpt><trkpt lat="44.206888768688955" lon="11.476343197038625"><ele>651.0</ele><time>2026-04-25T09:17:39.001Z</time></trkpt><trkpt lat="44.20682466786237" lon="11.476235022495956"><ele>651.0</ele><time>2026-04-25T09:17:40.001Z</time></trkpt><trkpt lat="44.20673934631558" lon="11.476153406328478"><ele>651.0</ele><time>2026-04-25T09:17:41.001Z</time></trkpt><trkpt lat="44.206663844441046" lon="11.476038748345143"><ele>651.0</ele><time>2026-04-25T09:17:42.001Z</time></trkpt><trkpt lat="44.20657445744387" lon="11.475927382344919"><ele>651.0</ele><time>2026-04-25T09:17:43.001Z</time></trkpt><trkpt lat="44.20647832481797" lon="11.47581886433934"><ele>655.0</ele><time>2026-04-25T09:17:44.001Z</time></trkpt><trkpt lat="44.20638057951236" lon="11.475721905352419"><ele>659.0</ele><time>2026-04-25T09:17:45.001Z</time></trkpt><trkpt lat="44.20628171019993" lon="11.475627741528669"><ele>663.0</ele><time>2026-04-25T09:17:46.001Z</time></trkpt><trkpt lat="44.20617137907393" lon="11.475555705646729"><ele>667.0</ele><time>2026-04-25T09:17:47.001Z</time></trkpt><trkpt lat="44.20605817465478" lon="11.475488778493197"><ele>665.2</ele><time>2026-04-25T09:17:48.001Z</time></trkpt><trkpt lat="44.20595685150467" lon="11.475425398531367"><ele>663.4000000000001</ele><time>2026-04-25T09:17:49.001Z</time></trkpt><trkpt lat="44.205867026567304" lon="11.475348300391397"><ele>661.5999999999999</ele><time>2026-04-25T09:17:50.001Z</time></trkpt><trkpt lat="44.20577232230733" lon="11.475293919769776"><ele>659.8</ele><time>2026-04-25T09:17:51.001Z</time></trkpt><trkpt lat="44.205649683053736" lon="11.475257322396535"><ele>658.0</ele><time>2026-04-25T09:17:52.001Z</time></trkpt><trkpt lat="44.20551006158638" lon="11.475237690799144"><ele>658.0</ele><time>2026-04-25T09:17:53.001Z</time></trkpt><trkpt lat="44.20536611060594" lon="11.475234138426085"><ele>658.0</ele><time>2026-04-25T09:17:54.001Z</time></trkpt><trkpt lat="44.205221878428056" lon="11.475223538031868"><ele>658.0</ele><time>2026-04-25T09:17:55.001Z</time></trkpt><trkpt lat="44.20508271359558" lon="11.475206280440608"><ele>658.0</ele><time>2026-04-25T09:17:56.001Z</time></trkpt><trkpt lat="44.204940878223574" lon="11.475168754558835"><ele>660.75</ele><time>2026-04-25T09:17:57.001Z</time></trkpt><trkpt lat="44.204800023915126" lon="11.475124551344939"><ele>663.5</ele><time>2026-04-25T09:17:58.001Z</time></trkpt><trkpt lat="44.2046681336551" lon="11.475065425236357"><ele>666.25</ele><time>2026-04-25T09:17:59.001Z</time></trkpt><trkpt lat="44.204533690547294" lon="11.475035953119937"><ele>669.0</ele><time>2026-04-25T09:18:00.001Z</time></trkpt><trkpt lat="44.20440612433669" lon="11.474976227272247"><ele>669.0</ele><time>2026-04-25T09:18:01.001Z</time></trkpt><trkpt lat="44.2042764258197" lon="11.474912690704063"><ele>669.0</ele><time>2026-04-25T09:18:02.001Z</time></trkpt><trkpt lat="44.20414381653566" lon="11.474840263469192"><ele>669.0</ele><time>2026-04-25T09:18:03.001Z</time></trkpt><trkpt lat="44.20401937551644" lon="11.474769233769873"><ele>669.0</ele><time>2026-04-25T09:18:04.001Z</time></trkpt><trkpt lat="44.20390723514809" lon="11.474700091220857"><ele>669.5</ele><time>2026-04-25T09:18:05.001Z</time></trkpt><trkpt lat="44.20380153268393" lon="11.474623262530901"><ele>670.0</ele><time>2026-04-25T09:18:06.001Z</time></trkpt><trkpt lat="44.203684867340385" lon="11.474539572244636"><ele>670.5</ele><time>2026-04-25T09:18:07.001Z</time></trkpt><trkpt lat="44.20354138803008" lon="11.474481206086285"><ele>671.0</ele><time>2026-04-25T09:18:08.001Z</time></trkpt><trkpt lat="44.20340119716909" lon="11.474421777479746"><ele>671.0</ele><time>2026-04-25T09:18:09.001Z</time></trkpt><trkpt lat="44.20328114171043" lon="11.474310293972229"><ele>671.0</ele><time>2026-04-25T09:18:10.001Z</time></trkpt><trkpt lat="44.20315896084891" lon="11.47421823223529"><ele>671.0</ele><time>2026-04-25T09:18:11.001Z</time></trkpt><trkpt lat="44.20305080717552" lon="11.47410612263889"><ele>671.0</ele><time>2026-04-25T09:18:12.001Z</time></trkpt><trkpt lat="44.202942484515496" lon="11.47400710642631"><ele>671.5</ele><time>2026-04-25T09:18:13.001Z</time></trkpt><trkpt lat="44.20282833669212" lon="11.473923967488815"><ele>672.0</ele><time>2026-04-25T09:18:14.001Z</time></trkpt><trkpt lat="44.20270662476777" lon="11.473847300754915"><ele>672.5</ele><time>2026-04-25T09:18:15.001Z</time></trkpt><trkpt lat="44.20258808847146" lon="11.473750160391472"><ele>673.0</ele><time>2026-04-25T09:18:16.001Z</time></trkpt><trkpt lat="44.20246944749782" lon="11.47364178596155"><ele>673.0</ele><time>2026-04-25T09:18:17.001Z</time></trkpt><trkpt lat="44.20234990245724" lon="11.473541103005083"><ele>673.0</ele><time>2026-04-25T09:18:18.001Z</time></trkpt><trkpt lat="44.20222778412386" lon="11.473455011757228"><ele>673.0</ele><time>2026-04-25T09:18:19.001Z</time></trkpt><trkpt lat="44.20208276442361" lon="11.47338000564815"><ele>673.0</ele><time>2026-04-25T09:18:20.001Z</time></trkpt><trkpt lat="44.20193660316789" lon="11.473316642904166"><ele>679.6666666666667</ele><time>2026-04-25T09:18:21.001Z</time></trkpt><trkpt lat="44.20179232636789" lon="11.473253018395628"><ele>686.3333333333334</ele><time>2026-04-25T09:18:22.001Z</time></trkpt><trkpt lat="44.20163677021027" lon="11.473194873904667"><ele>693.0</ele><time>2026-04-25T09:18:23.001Z</time></trkpt><trkpt lat="44.20148011131728" lon="11.47313541120989"><ele>696.75</ele><time>2026-04-25T09:18:24.001Z</time></trkpt><trkpt lat="44.20132875657905" lon="11.473078690955557"><ele>700.5</ele><time>2026-04-25T09:18:25.001Z</time></trkpt><trkpt lat="44.20118756365618" lon="11.473047583083742"><ele>704.25</ele><time>2026-04-25T09:18:26.001Z</time></trkpt><trkpt lat="44.20105730044607" lon="11.473008855228175"><ele>708.0</ele><time>2026-04-25T09:18:27.001Z</time></trkpt><trkpt lat="44.200937542747546" lon="11.472962286609784"><ele>707.8333333333334</ele><time>2026-04-25T09:18:28.001Z</time></trkpt><trkpt lat="44.20084234078984" lon="11.472881968908936"><ele>707.6666666666666</ele><time>2026-04-25T09:18:29.001Z</time></trkpt><trkpt lat="44.200754671409115" lon="11.47285583434313"><ele>707.5</ele><time>2026-04-25T09:18:30.001Z</time></trkpt><trkpt lat="44.200690654802465" lon="11.472814994005706"><ele>707.3333333333333</ele><time>2026-04-25T09:18:31.001Z</time></trkpt><trkpt lat="44.200599874236126" lon="11.472766002776659"><ele>707.1666666666666</ele><time>2026-04-25T09:18:33.002Z</time></trkpt><trkpt lat="44.200544573323164" lon="11.472717168148352"><ele>707.0</ele><time>2026-04-25T09:24:38Z</time></trkpt><trkpt lat="44.20046719877138" lon="11.472700484673982"><ele>707.0</ele><time>2026-04-25T09:30:18.001Z</time></trkpt><trkpt lat="44.200409936279684" lon="11.47259141885388"><ele>707.0</ele><time>2026-04-25T09:30:21.001Z</time></trkpt><trkpt lat="44.200331566944485" lon="11.472436213218467"><ele>707.0</ele><time>2026-04-25T09:30:23.001Z</time></trkpt><trkpt lat="44.200287603593985" lon="11.472342079104017"><ele>707.0</ele><time>2026-04-25T09:30:24.001Z</time></trkpt><trkpt lat="44.200230990391915" lon="11.4722481647981"><ele>707.0</ele><time>2026-04-25T09:30:25.001Z</time></trkpt><trkpt lat="44.20018882728404" lon="11.472155165550056"><ele>705.3333333333333</ele><time>2026-04-25T09:30:26.001Z</time></trkpt><trkpt lat="44.20015873728083" lon="11.472051564213837"><ele>703.6666666666666</ele><time>2026-04-25T09:30:27.001Z</time></trkpt><trkpt lat="44.20013079788311" lon="11.471952656601342"><ele>702.0</ele><time>2026-04-25T09:30:28.001Z</time></trkpt><trkpt lat="44.20009958642755" lon="11.471860875628034"><ele>700.3333333333334</ele><time>2026-04-25T09:30:29.001Z</time></trkpt><trkpt lat="44.200042673551046" lon="11.471757118146432"><ele>698.6666666666667</ele><time>2026-04-25T09:30:30Z</time></trkpt><trkpt lat="44.19997560798226" lon="11.471663423153188"><ele>697.0</ele><time>2026-04-25T09:30:31Z</time></trkpt><trkpt lat="44.19989846126565" lon="11.471552974751157"><ele>697.2</ele><time>2026-04-25T09:30:32Z</time></trkpt><trkpt lat="44.19982238142703" lon="11.471438001489473"><ele>697.4000000000001</ele><time>2026-04-25T09:30:33Z</time></trkpt><trkpt lat="44.19975245330523" lon="11.471340262022007"><ele>697.5999999999999</ele><time>2026-04-25T09:30:34Z</time></trkpt><trkpt lat="44.19967509275209" lon="11.471243595600594"><ele>697.8</ele><time>2026-04-25T09:30:35Z</time></trkpt><trkpt lat="44.199609074232946" lon="11.471151751633608"><ele>698.0</ele><time>2026-04-25T09:30:36Z</time></trkpt><trkpt lat="44.19954830628873" lon="11.471062917326126"><ele>698.0</ele><time>2026-04-25T09:30:37Z</time></trkpt><trkpt lat="44.19949630475854" lon="11.47097017860685"><ele>698.0</ele><time>2026-04-25T09:30:38Z</time></trkpt><trkpt lat="44.19943805966556" lon="11.47086296023112"><ele>698.0</ele><time>2026-04-25T09:30:39Z</time></trkpt><trkpt lat="44.1993567237259" lon="11.470708040807947"><ele>698.0</ele><time>2026-04-25T09:30:41Z</time></trkpt><trkpt lat="44.19931662742129" lon="11.470595903923897"><ele>698.0</ele><time>2026-04-25T09:30:42Z</time></trkpt><trkpt lat="44.19926896951164" lon="11.470478218325958"><ele>696.3333333333333</ele><time>2026-04-25T09:30:43Z</time></trkpt><trkpt lat="44.199218301191245" lon="11.470363938663844"><ele>694.6666666666666</ele><time>2026-04-25T09:30:44Z</time></trkpt><trkpt lat="44.1991688567097" lon="11.470248327912131"><ele>693.0</ele><time>2026-04-25T09:30:45Z</time></trkpt><trkpt lat="44.19912924504071" lon="11.470157402334754"><ele>691.3333333333334</ele><time>2026-04-25T09:30:46Z</time></trkpt><trkpt lat="44.19907712397682" lon="11.470065948375447"><ele>689.6666666666667</ele><time>2026-04-25T09:30:47Z</time></trkpt><trkpt lat="44.19901647998945" lon="11.46998556312681"><ele>688.0</ele><time>2026-04-25T09:30:48Z</time></trkpt><trkpt lat="44.19895447585918" lon="11.46991921463793"><ele>688.0</ele><time>2026-04-25T09:30:49Z</time></trkpt><trkpt lat="44.198897105737714" lon="11.469859046632495"><ele>688.0</ele><time>2026-04-25T09:30:50Z</time></trkpt><trkpt lat="44.19884443826919" lon="11.46980060668905"><ele>688.0</ele><time>2026-04-25T09:30:51Z</time></trkpt><trkpt lat="44.1987919921962" lon="11.469743027016113"><ele>688.0</ele><time>2026-04-25T09:30:52Z</time></trkpt><trkpt lat="44.19875226828786" lon="11.469598348415202"><ele>688.0</ele><time>2026-04-25T09:30:54Z</time></trkpt><trkpt lat="44.19870288398588" lon="11.46951002372204"><ele>688.0</ele><time>2026-04-25T09:30:55Z</time></trkpt><trkpt lat="44.19864698773208" lon="11.469439006159368"><ele>688.0</ele><time>2026-04-25T09:30:56Z</time></trkpt><trkpt lat="44.19858571840155" lon="11.469398633673475"><ele>688.0</ele><time>2026-04-25T09:30:57Z</time></trkpt><trkpt lat="44.19852063692245" lon="11.46935886080029"><ele>688.0</ele><time>2026-04-25T09:30:58Z</time></trkpt><trkpt lat="44.1984662604497" lon="11.469301198041505"><ele>688.0</ele><time>2026-04-25T09:30:59Z</time></trkpt><trkpt lat="44.19837444624127" lon="11.469189653988373"><ele>688.0</ele><time>2026-04-25T09:31:01Z</time></trkpt><trkpt lat="44.19832959237778" lon="11.469103856872321"><ele>688.0</ele><time>2026-04-25T09:31:02Z</time></trkpt><trkpt lat="44.198287133319525" lon="11.469000505671968"><ele>688.0</ele><time>2026-04-25T09:31:03Z</time></trkpt><trkpt lat="44.198246420695384" lon="11.46890036255232"><ele>688.0</ele><time>2026-04-25T09:31:04Z</time></trkpt><trkpt lat="44.19820555625724" lon="11.468809212169797"><ele>688.0</ele><time>2026-04-25T09:31:05Z</time></trkpt><trkpt lat="44.198167249958246" lon="11.468676236300226"><ele>688.0</ele><time>2026-04-25T09:31:07Z</time></trkpt><trkpt lat="44.19816963671391" lon="11.468552519157415"><ele>688.0</ele><time>2026-04-25T09:31:09Z</time></trkpt><trkpt lat="44.19825689779943" lon="11.46842764011043"><ele>688.1666666666667</ele><time>2026-04-25T09:31:11Z</time></trkpt><trkpt lat="44.19830826924223" lon="11.468327022344715"><ele>688.3333333333334</ele><time>2026-04-25T09:31:12Z</time></trkpt><trkpt lat="44.19837979779716" lon="11.468233805467923"><ele>688.5</ele><time>2026-04-25T09:31:13Z</time></trkpt><trkpt lat="44.19843282257013" lon="11.46814340844852"><ele>688.6666666666666</ele><time>2026-04-25T09:31:14Z</time></trkpt><trkpt lat="44.19845957378561" lon="11.468049452315164"><ele>688.8333333333333</ele><time>2026-04-25T09:31:15Z</time></trkpt><trkpt lat="44.198511155227315" lon="11.467992231262016"><ele>689.0</ele><time>2026-04-25T09:31:16Z</time></trkpt><trkpt lat="44.19857120067105" lon="11.467960916335308"><ele>693.1666666666666</ele><time>2026-04-25T09:31:17Z</time></trkpt><trkpt lat="44.19863374283956" lon="11.467907056001971"><ele>697.3333333333333</ele><time>2026-04-25T09:31:18Z</time></trkpt><trkpt lat="44.198725226132744" lon="11.46785745852973"><ele>701.5</ele><time>2026-04-25T09:31:19Z</time></trkpt><trkpt lat="44.19878399292839" lon="11.467777245727506"><ele>705.6666666666666</ele><time>2026-04-25T09:31:20Z</time></trkpt><trkpt lat="44.198826004361116" lon="11.467682739517958"><ele>709.8333333333334</ele><time>2026-04-25T09:31:21Z</time></trkpt><trkpt lat="44.198883741546844" lon="11.46764029622455"><ele>714.0</ele><time>2026-04-25T09:31:22Z</time></trkpt><trkpt lat="44.198961176510956" lon="11.467547838836165"><ele>707.5</ele><time>2026-04-25T09:31:24Z</time></trkpt><trkpt lat="44.199050329447296" lon="11.467440903987338"><ele>701.0</ele><time>2026-04-25T09:31:26Z</time></trkpt><trkpt lat="44.1991326778024" lon="11.46734880995012"><ele>694.5</ele><time>2026-04-25T09:31:28Z</time></trkpt><trkpt lat="44.19918502647301" lon="11.46729901738928"><ele>688.0</ele><time>2026-04-25T09:31:29Z</time></trkpt><trkpt lat="44.19924505731836" lon="11.467250483407113"><ele>681.5</ele><time>2026-04-25T09:31:30Z</time></trkpt><trkpt lat="44.1993078062053" lon="11.467200544230609"><ele>675.0</ele><time>2026-04-25T09:31:31Z</time></trkpt><trkpt lat="44.199365663929015" lon="11.467143412429007"><ele>676.5</ele><time>2026-04-25T09:31:32Z</time></trkpt><trkpt lat="44.19941713370904" lon="11.467075867562665"><ele>678.0</ele><time>2026-04-25T09:31:33Z</time></trkpt><trkpt lat="44.19949580435313" lon="11.467015913813066"><ele>679.5</ele><time>2026-04-25T09:31:35.001Z</time></trkpt><trkpt lat="44.199513464722045" lon="11.466929133133268"><ele>681.0</ele><time>2026-04-25T09:31:36.001Z</time></trkpt><trkpt lat="44.1994963079151" lon="11.46683033114808"><ele>682.5</ele><time>2026-04-25T09:31:37.001Z</time></trkpt><trkpt lat="44.199489815481606" lon="11.466724270916004"><ele>684.0</ele><time>2026-04-25T09:31:38.001Z</time></trkpt><trkpt lat="44.199481650546865" lon="11.46661215865926"><ele>684.0</ele><time>2026-04-25T09:31:39.001Z</time></trkpt><trkpt lat="44.199505891252954" lon="11.466506092785297"><ele>684.0</ele><time>2026-04-25T09:31:40.001Z</time></trkpt><trkpt lat="44.19953204828211" lon="11.466327537294156"><ele>684.0</ele><time>2026-04-25T09:31:42.001Z</time></trkpt><trkpt lat="44.1995673385579" lon="11.466143344993053"><ele>684.0</ele><time>2026-04-25T09:31:44.001Z</time></trkpt><trkpt lat="44.19958134638566" lon="11.466031992074258"><ele>684.0</ele><time>2026-04-25T09:31:45.001Z</time></trkpt><trkpt lat="44.19960930674381" lon="11.465916703461092"><ele>682.4000000000001</ele><time>2026-04-25T09:31:46.001Z</time></trkpt><trkpt lat="44.199625218932034" lon="11.465813328917006"><ele>680.8</ele><time>2026-04-25T09:31:47.001Z</time></trkpt><trkpt lat="44.19965204017603" lon="11.465705066388129"><ele>679.2</ele><time>2026-04-25T09:31:48.001Z</time></trkpt><trkpt lat="44.199690838845726" lon="11.465590597679448"><ele>677.5999999999999</ele><time>2026-04-25T09:31:49.001Z</time></trkpt><trkpt lat="44.19971789041031" lon="11.465401452492364"><ele>676.0</ele><time>2026-04-25T09:31:51.001Z</time></trkpt><trkpt lat="44.19972673381335" lon="11.465278954467324"><ele>675.8333333333334</ele><time>2026-04-25T09:31:52.001Z</time></trkpt><trkpt lat="44.19971189577591" lon="11.465161993027095"><ele>675.6666666666667</ele><time>2026-04-25T09:31:53.001Z</time></trkpt><trkpt lat="44.19969511924872" lon="11.465059721557074"><ele>675.5</ele><time>2026-04-25T09:31:54.001Z</time></trkpt><trkpt lat="44.19967490398523" lon="11.464931458016425"><ele>675.3333333333334</ele><time>2026-04-25T09:31:55.001Z</time></trkpt><trkpt lat="44.19964570101638" lon="11.464834212404734"><ele>675.1666666666666</ele><time>2026-04-25T09:31:56.001Z</time></trkpt><trkpt lat="44.19960308803504" lon="11.464684821393742"><ele>675.0</ele><time>2026-04-25T09:31:58.001Z</time></trkpt><trkpt lat="44.1995739596727" lon="11.464589588848233"><ele>675.0</ele><time>2026-04-25T09:31:59.001Z</time></trkpt><trkpt lat="44.199541315986984" lon="11.464500461049052"><ele>675.0</ele><time>2026-04-25T09:32:01.001Z</time></trkpt><trkpt lat="44.199564312087254" lon="11.464389797320733"><ele>675.0</ele><time>2026-04-25T09:32:03.001Z</time></trkpt><trkpt lat="44.199637763446454" lon="11.464306602818818"><ele>675.0</ele><time>2026-04-25T09:32:05.001Z</time></trkpt><trkpt lat="44.19973520889132" lon="11.464253422066909"><ele>675.0</ele><time>2026-04-25T09:32:07.001Z</time></trkpt><trkpt lat="44.199808798959744" lon="11.464213844383629"><ele>675.0</ele><time>2026-04-25T09:32:08.001Z</time></trkpt><trkpt lat="44.199894307184536" lon="11.46418950811146"><ele>671.4</ele><time>2026-04-25T09:32:09.001Z</time></trkpt><trkpt lat="44.19999382841209" lon="11.464158613957574"><ele>667.8</ele><time>2026-04-25T09:32:10.001Z</time></trkpt><trkpt lat="44.20009687518317" lon="11.46413601749502"><ele>664.2</ele><time>2026-04-25T09:32:11.001Z</time></trkpt><trkpt lat="44.20018378868647" lon="11.464108866977407"><ele>660.6</ele><time>2026-04-25T09:32:12.001Z</time></trkpt><trkpt lat="44.200247722761475" lon="11.464071053238436"><ele>657.0</ele><time>2026-04-25T09:32:13.001Z</time></trkpt><trkpt lat="44.20033035890383" lon="11.464018841673598"><ele>657.0</ele><time>2026-04-25T09:32:15.001Z</time></trkpt><trkpt lat="44.20042947651009" lon="11.463999413247427"><ele>657.0</ele><time>2026-04-25T09:32:17.001Z</time></trkpt><trkpt lat="44.20049661882264" lon="11.463993302861132"><ele>657.0</ele><time>2026-04-25T09:32:18.001Z</time></trkpt><trkpt lat="44.20057333812048" lon="11.46396971111438"><ele>657.0</ele><time>2026-04-25T09:32:19.001Z</time></trkpt><trkpt lat="44.20070095869412" lon="11.46397384858165"><ele>657.0</ele><time>2026-04-25T09:32:21.001Z</time></trkpt><trkpt lat="44.20081599107271" lon="11.464027339224412"><ele>656.1666666666666</ele><time>2026-04-25T09:32:23.001Z</time></trkpt><trkpt lat="44.200873155966526" lon="11.464073712694859"><ele>655.3333333333334</ele><time>2026-04-25T09:32:24.001Z</time></trkpt><trkpt lat="44.20097773649178" lon="11.464109992146057"><ele>654.5</ele><time>2026-04-25T09:32:26.001Z</time></trkpt><trkpt lat="44.20104328392027" lon="11.464066278350803"><ele>653.6666666666667</ele><time>2026-04-25T09:32:27.001Z</time></trkpt><trkpt lat="44.201069130479574" lon="11.46397342028798"><ele>652.8333333333334</ele><time>2026-04-25T09:32:28.001Z</time></trkpt><trkpt lat="44.201122913182914" lon="11.463857771260805"><ele>652.0</ele><time>2026-04-25T09:32:30.001Z</time></trkpt><trkpt lat="44.20117178356002" lon="11.463754216179819"><ele>656.2</ele><time>2026-04-25T09:32:32.001Z</time></trkpt><trkpt lat="44.20126528323954" lon="11.463675113806941"><ele>660.4000000000001</ele><time>2026-04-25T09:32:34.001Z</time></trkpt><trkpt lat="44.20135659645928" lon="11.46359334268471"><ele>664.5999999999999</ele><time>2026-04-25T09:32:35.999Z</time></trkpt><trkpt lat="44.20143018018028" lon="11.463522640806058"><ele>668.8</ele><time>2026-04-25T09:32:37.999Z</time></trkpt><trkpt lat="44.20147710222033" lon="11.46343737547628"><ele>673.0</ele><time>2026-04-25T09:32:39.999Z</time></trkpt><trkpt lat="44.20151188878117" lon="11.463305795106212"><ele>673.0</ele><time>2026-04-25T09:32:55.999Z</time></trkpt><trkpt lat="44.20156271139671" lon="11.463135850968486"><ele>673.0</ele><time>2026-04-25T09:32:57.999Z</time></trkpt><trkpt lat="44.20159951382665" lon="11.463018819485828"><ele>673.0</ele><time>2026-04-25T09:32:58.999Z</time></trkpt><trkpt lat="44.201642039155615" lon="11.46288045277559"><ele>673.0</ele><time>2026-04-25T09:32:59.999Z</time></trkpt><trkpt lat="44.20167967567272" lon="11.462744332818545"><ele>673.0</ele><time>2026-04-25T09:33:00.999Z</time></trkpt><trkpt lat="44.20171622011929" lon="11.46263120355591"><ele>675.0</ele><time>2026-04-25T09:33:01.999Z</time></trkpt><trkpt lat="44.20175172993842" lon="11.462539860595523"><ele>677.0</ele><time>2026-04-25T09:33:02.999Z</time></trkpt><trkpt lat="44.20180060006314" lon="11.462448041912802"><ele>679.0</ele><time>2026-04-25T09:33:04Z</time></trkpt><trkpt lat="44.20186218232228" lon="11.462367994765733"><ele>681.0</ele><time>2026-04-25T09:33:05Z</time></trkpt><trkpt lat="44.20191564408205" lon="11.462288184909857"><ele>683.0</ele><time>2026-04-25T09:33:06Z</time></trkpt><trkpt lat="44.2019551557718" lon="11.46221350670923"><ele>685.0</ele><time>2026-04-25T09:33:07Z</time></trkpt><trkpt lat="44.202042297315685" lon="11.46210060329457"><ele>684.0</ele><time>2026-04-25T09:33:09Z</time></trkpt><trkpt lat="44.20212338171078" lon="11.46202934708531"><ele>683.0</ele><time>2026-04-25T09:33:10Z</time></trkpt><trkpt lat="44.20220798271686" lon="11.46191097896554"><ele>682.0</ele><time>2026-04-25T09:33:11Z</time></trkpt><trkpt lat="44.202310035239925" lon="11.461802014047251"><ele>681.0</ele><time>2026-04-25T09:33:12Z</time></trkpt><trkpt lat="44.202400754164486" lon="11.461708198314803"><ele>681.0</ele><time>2026-04-25T09:33:13Z</time></trkpt><trkpt lat="44.202486466787796" lon="11.46161539906381"><ele>681.0</ele><time>2026-04-25T09:33:14Z</time></trkpt><trkpt lat="44.202560188143934" lon="11.46155378555315"><ele>681.0</ele><time>2026-04-25T09:33:15Z</time></trkpt><trkpt lat="44.20261944612233" lon="11.461496088483907"><ele>681.0</ele><time>2026-04-25T09:33:16Z</time></trkpt><trkpt lat="44.2026475552872" lon="11.461343561182263"><ele>681.0</ele><time>2026-04-25T09:33:18Z</time></trkpt><trkpt lat="44.202611197553104" lon="11.46117474296664"><ele>684.4</ele><time>2026-04-25T09:33:20Z</time></trkpt><trkpt lat="44.202618308167494" lon="11.46108250968191"><ele>687.8</ele><time>2026-04-25T09:33:21Z</time></trkpt><trkpt lat="44.202647602043534" lon="11.46100123629269"><ele>691.1999999999999</ele><time>2026-04-25T09:33:22Z</time></trkpt><trkpt lat="44.20276085930559" lon="11.460922736412282"><ele>694.5999999999999</ele><time>2026-04-25T09:33:24Z</time></trkpt><trkpt lat="44.20286772389835" lon="11.460861835321017"><ele>698.0</ele><time>2026-04-25T09:33:25Z</time></trkpt><trkpt lat="44.20296212774192" lon="11.460778274049803"><ele>698.0</ele><time>2026-04-25T09:33:26Z</time></trkpt><trkpt lat="44.20303085798333" lon="11.460708797067312"><ele>698.0</ele><time>2026-04-25T09:33:27Z</time></trkpt><trkpt lat="44.2031272242145" lon="11.460641592598678"><ele>698.0</ele><time>2026-04-25T09:33:28Z</time></trkpt><trkpt lat="44.20324201018613" lon="11.460567779770246"><ele>698.0</ele><time>2026-04-25T09:33:29Z</time></trkpt><trkpt lat="44.20334917813657" lon="11.460484790728525"><ele>698.0</ele><time>2026-04-25T09:33:30Z</time></trkpt><trkpt lat="44.20342904841948" lon="11.460431638351826"><ele>696.5</ele><time>2026-04-25T09:33:31Z</time></trkpt><trkpt lat="44.20349226472119" lon="11.460411064178295"><ele>695.0</ele><time>2026-04-25T09:33:32Z</time></trkpt><trkpt lat="44.20355302375548" lon="11.460378729189301"><ele>693.5</ele><time>2026-04-25T09:33:33Z</time></trkpt><trkpt lat="44.20362961757161" lon="11.460281574843775"><ele>692.0</ele><time>2026-04-25T09:33:35Z</time></trkpt><trkpt lat="44.20360419265254" lon="11.460155592974237"><ele>690.5</ele><time>2026-04-25T09:33:36Z</time></trkpt><trkpt lat="44.203617905774124" lon="11.460039446914752"><ele>689.0</ele><time>2026-04-25T09:33:37Z</time></trkpt><trkpt lat="44.20360985441703" lon="11.459907388158461"><ele>689.0</ele><time>2026-04-25T09:33:38Z</time></trkpt><trkpt lat="44.20363646927714" lon="11.459758527031523"><ele>689.0</ele><time>2026-04-25T09:33:39Z</time></trkpt><trkpt lat="44.20364171353109" lon="11.459603270578626"><ele>689.0</ele><time>2026-04-25T09:33:40Z</time></trkpt><trkpt lat="44.20365572195503" lon="11.459460281511317"><ele>689.0</ele><time>2026-04-25T09:33:41Z</time></trkpt><trkpt lat="44.20365365338821" lon="11.459303294496141"><ele>689.0</ele><time>2026-04-25T09:33:42Z</time></trkpt><trkpt lat="44.20365368272272" lon="11.459148537132366"><ele>690.4000000000001</ele><time>2026-04-25T09:33:43Z</time></trkpt><trkpt lat="44.2036670442974" lon="11.458987882763996"><ele>691.8</ele><time>2026-04-25T09:33:44Z</time></trkpt><trkpt lat="44.20370452782385" lon="11.458864300409887"><ele>693.2</ele><time>2026-04-25T09:33:45Z</time></trkpt><trkpt lat="44.20374907579523" lon="11.45876145846921"><ele>694.5999999999999</ele><time>2026-04-25T09:33:46Z</time></trkpt><trkpt lat="44.20378433781355" lon="11.458653058071468"><ele>696.0</ele><time>2026-04-25T09:33:47Z</time></trkpt><trkpt lat="44.2038614452571" lon="11.458547888926068"><ele>694.5999999999999</ele><time>2026-04-25T09:33:49Z</time></trkpt><trkpt lat="44.20397252680105" lon="11.458538882695779"><ele>693.2</ele><time>2026-04-25T09:33:51Z</time></trkpt><trkpt lat="44.2040153796463" lon="11.458604442473"><ele>691.8</ele><time>2026-04-25T09:33:52Z</time></trkpt><trkpt lat="44.204063761160135" lon="11.45876580003879"><ele>690.4000000000001</ele><time>2026-04-25T09:33:54Z</time></trkpt><trkpt lat="44.20410376926931" lon="11.458839265063979"><ele>689.0</ele><time>2026-04-25T09:33:55Z</time></trkpt><trkpt lat="44.20418326186175" lon="11.458899372165085"><ele>684.1666666666666</ele><time>2026-04-25T09:33:56Z</time></trkpt><trkpt lat="44.204286592779496" lon="11.458912621798586"><ele>679.3333333333333</ele><time>2026-04-25T09:33:57Z</time></trkpt><trkpt lat="44.2043846244368" lon="11.458914871825424"><ele>674.5</ele><time>2026-04-25T09:33:58Z</time></trkpt><trkpt lat="44.204471363842806" lon="11.458926215835392"><ele>669.6666666666666</ele><time>2026-04-25T09:33:59.001Z</time></trkpt><trkpt lat="44.2045408775644" lon="11.45893286445714"><ele>664.8333333333334</ele><time>2026-04-25T09:34:00.001Z</time></trkpt><trkpt lat="44.2046069062379" lon="11.458916727593047"><ele>660.0</ele><time>2026-04-25T09:34:01.001Z</time></trkpt><trkpt lat="44.20467137522105" lon="11.45879015406331"><ele>660.3333333333334</ele><time>2026-04-25T09:34:02.001Z</time></trkpt><trkpt lat="44.20473019838895" lon="11.458715266380342"><ele>660.6666666666666</ele><time>2026-04-25T09:34:03.001Z</time></trkpt><trkpt lat="44.20478020360842" lon="11.458661354424564"><ele>661.0</ele><time>2026-04-25T09:34:04.001Z</time></trkpt><trkpt lat="44.204905837709" lon="11.458636479327716"><ele>661.3333333333333</ele><time>2026-04-25T09:34:06.001Z</time></trkpt><trkpt lat="44.204970180611596" lon="11.458671673728782"><ele>661.6666666666666</ele><time>2026-04-25T09:34:07.001Z</time></trkpt><trkpt lat="44.2050012709633" lon="11.45875179199109"><ele>662.0</ele><time>2026-04-25T09:34:08.001Z</time></trkpt><trkpt lat="44.205054702286866" lon="11.458883592012931"><ele>662.0</ele><time>2026-04-25T09:34:10.001Z</time></trkpt><trkpt lat="44.20509165403515" lon="11.459017692898865"><ele>662.0</ele><time>2026-04-25T09:34:12.001Z</time></trkpt><trkpt lat="44.205197981213225" lon="11.459131202637916"><ele>662.0</ele><time>2026-04-25T09:34:14.001Z</time></trkpt><trkpt lat="44.205267825152326" lon="11.459235358821724"><ele>662.0</ele><time>2026-04-25T09:34:16.001Z</time></trkpt><trkpt lat="44.20524904289174" lon="11.45938074313741"><ele>662.0</ele><time>2026-04-25T09:34:18.001Z</time></trkpt><trkpt lat="44.205186158535426" lon="11.459526906389426"><ele>662.0</ele><time>2026-04-25T09:34:20.001Z</time></trkpt><trkpt lat="44.2051503473454" lon="11.459605982675846"><ele>662.0</ele><time>2026-04-25T09:34:21.001Z</time></trkpt><trkpt lat="44.20511380460539" lon="11.459738464124973"><ele>662.0</ele><time>2026-04-25T09:34:23.001Z</time></trkpt><trkpt lat="44.205103871132295" lon="11.459880145083154"><ele>662.0</ele><time>2026-04-25T09:34:25.001Z</time></trkpt><trkpt lat="44.20514512604781" lon="11.459968766081"><ele>662.0</ele><time>2026-04-25T09:34:26.001Z</time></trkpt><trkpt lat="44.20523109720639" lon="11.460046952420592"><ele>662.0</ele><time>2026-04-25T09:34:27.001Z</time></trkpt><trkpt lat="44.205312597015585" lon="11.460101351827108"><ele>661.5</ele><time>2026-04-25T09:34:28.001Z</time></trkpt><trkpt lat="44.20540203699724" lon="11.460151553511576"><ele>661.0</ele><time>2026-04-25T09:34:29.001Z</time></trkpt><trkpt lat="44.2055057259618" lon="11.460183924319757"><ele>660.5</ele><time>2026-04-25T09:34:30.001Z</time></trkpt><trkpt lat="44.205581455728876" lon="11.460237641576908"><ele>660.0</ele><time>2026-04-25T09:34:31.001Z</time></trkpt><trkpt lat="44.20564801626763" lon="11.460303168606531"><ele>659.5</ele><time>2026-04-25T09:34:32.001Z</time></trkpt><trkpt lat="44.20568801662784" lon="11.460376600635072"><ele>659.0</ele><time>2026-04-25T09:34:33.001Z</time></trkpt><trkpt lat="44.205719979695694" lon="11.460473660969459"><ele>659.0</ele><time>2026-04-25T09:34:34.001Z</time></trkpt><trkpt lat="44.20574798287097" lon="11.460568912785957"><ele>659.0</ele><time>2026-04-25T09:34:35.001Z</time></trkpt><trkpt lat="44.205778717635255" lon="11.460669692053147"><ele>659.0</ele><time>2026-04-25T09:34:36.001Z</time></trkpt><trkpt lat="44.20581031725296" lon="11.460753448176323"><ele>659.0</ele><time>2026-04-25T09:34:37.001Z</time></trkpt><trkpt lat="44.20591639679588" lon="11.460880294295972"><ele>659.0</ele><time>2026-04-25T09:34:39.001Z</time></trkpt><trkpt lat="44.20601753100891" lon="11.460881804362048"><ele>659.0</ele><time>2026-04-25T09:34:40.001Z</time></trkpt><trkpt lat="44.206109311764216" lon="11.460888279261521"><ele>659.0</ele><time>2026-04-25T09:34:41.001Z</time></trkpt><trkpt lat="44.206195663910755" lon="11.460867781782786"><ele>659.0</ele><time>2026-04-25T09:34:41.999Z</time></trkpt><trkpt lat="44.20627861016254" lon="11.460800052467814"><ele>659.0</ele><time>2026-04-25T09:34:42.999Z</time></trkpt><trkpt lat="44.20631462272586" lon="11.460703073748249"><ele>659.0</ele><time>2026-04-25T09:34:43.999Z</time></trkpt><trkpt lat="44.20636089076683" lon="11.460613406976043"><ele>659.0</ele><time>2026-04-25T09:34:44.999Z</time></trkpt><trkpt lat="44.206413729462724" lon="11.460532512003411"><ele>659.0</ele><time>2026-04-25T09:34:45.999Z</time></trkpt><trkpt lat="44.20645914972914" lon="11.460461453055645"><ele>659.0</ele><time>2026-04-25T09:34:46.999Z</time></trkpt><trkpt lat="44.20651473195448" lon="11.460410408204703"><ele>659.0</ele><time>2026-04-25T09:34:47.999Z</time></trkpt><trkpt lat="44.206579203412296" lon="11.46034245299786"><ele>659.0</ele><time>2026-04-25T09:34:48.999Z</time></trkpt><trkpt lat="44.206648075793694" lon="11.460310495088013"><ele>659.0</ele><time>2026-04-25T09:34:49.999Z</time></trkpt><trkpt lat="44.20677381554054" lon="11.460350543000741"><ele>659.0</ele><time>2026-04-25T09:34:51.999Z</time></trkpt><trkpt lat="44.206811431040116" lon="11.460424116899754"><ele>659.2</ele><time>2026-04-25T09:34:52.999Z</time></trkpt><trkpt lat="44.206859072238295" lon="11.460498483329198"><ele>659.4000000000001</ele><time>2026-04-25T09:34:53.999Z</time></trkpt><trkpt lat="44.20691903812639" lon="11.460587410488348"><ele>659.6</ele><time>2026-04-25T09:34:54.999Z</time></trkpt><trkpt lat="44.20697244377675" lon="11.460670833269694"><ele>659.8</ele><time>2026-04-25T09:34:55.999Z</time></trkpt><trkpt lat="44.20701139615228" lon="11.460799528920223"><ele>660.0</ele><time>2026-04-25T09:34:57.999Z</time></trkpt><trkpt lat="44.206998226318454" lon="11.460972600043204"><ele>660.0</ele><time>2026-04-25T09:34:59.999Z</time></trkpt><trkpt lat="44.206982304057775" lon="11.461058070138792"><ele>660.0</ele><time>2026-04-25T09:35:00.999Z</time></trkpt><trkpt lat="44.2069893731144" lon="11.461239545441835"><ele>660.0</ele><time>2026-04-25T09:35:02.999Z</time></trkpt><trkpt lat="44.20698343927007" lon="11.461335550915216"><ele>660.0</ele><time>2026-04-25T09:35:03.999Z</time></trkpt><trkpt lat="44.20700707406763" lon="11.46143658276225"><ele>660.0</ele><time>2026-04-25T09:35:04.999Z</time></trkpt><trkpt lat="44.20703828326898" lon="11.461606904730191"><ele>656.5</ele><time>2026-04-25T09:35:06.999Z</time></trkpt><trkpt lat="44.207047131475534" lon="11.461700178621665"><ele>653.0</ele><time>2026-04-25T09:35:07.999Z</time></trkpt><trkpt lat="44.20704582010613" lon="11.461797079363917"><ele>649.5</ele><time>2026-04-25T09:35:08.999Z</time></trkpt><trkpt lat="44.20703878505616" lon="11.461891085065199"><ele>646.0</ele><time>2026-04-25T09:35:10Z</time></trkpt><trkpt lat="44.20702499136306" lon="11.462003047879284"><ele>642.5</ele><time>2026-04-25T09:35:11Z</time></trkpt><trkpt lat="44.20702295488946" lon="11.462180425476996"><ele>639.0</ele><time>2026-04-25T09:35:13Z</time></trkpt><trkpt lat="44.207058450869496" lon="11.462281832776764"><ele>638.0</ele><time>2026-04-25T09:35:14Z</time></trkpt><trkpt lat="44.20713338538234" lon="11.462368337551634"><ele>637.0</ele><time>2026-04-25T09:35:15Z</time></trkpt><trkpt lat="44.20718884386762" lon="11.46242786846508"><ele>636.0</ele><time>2026-04-25T09:35:16Z</time></trkpt><trkpt lat="44.2072348125658" lon="11.462494120864255"><ele>635.0</ele><time>2026-04-25T09:35:17Z</time></trkpt><trkpt lat="44.20726998729958" lon="11.462585653120849"><ele>634.0</ele><time>2026-04-25T09:35:18Z</time></trkpt><trkpt lat="44.207302384947035" lon="11.462701046066865"><ele>633.0</ele><time>2026-04-25T09:35:19Z</time></trkpt><trkpt lat="44.207338047424514" lon="11.462837617294733"><ele>639.0</ele><time>2026-04-25T09:35:20Z</time></trkpt><trkpt lat="44.20736744745666" lon="11.462955123650591"><ele>645.0</ele><time>2026-04-25T09:35:21Z</time></trkpt><trkpt lat="44.20738965125117" lon="11.463041903706232"><ele>651.0</ele><time>2026-04-25T09:35:22Z</time></trkpt><trkpt lat="44.20741600722472" lon="11.463144911877317"><ele>657.0</ele><time>2026-04-25T09:35:23Z</time></trkpt><trkpt lat="44.20743851753445" lon="11.46323561719663"><ele>663.0</ele><time>2026-04-25T09:35:24Z</time></trkpt><trkpt lat="44.20745832266669" lon="11.463370504578407"><ele>669.0</ele><time>2026-04-25T09:35:26Z</time></trkpt><trkpt lat="44.207520706949" lon="11.463462726409984"><ele>669.0</ele><time>2026-04-25T09:35:27Z</time></trkpt><trkpt lat="44.20761655464894" lon="11.463469843211337"><ele>669.0</ele><time>2026-04-25T09:35:28Z</time></trkpt><trkpt lat="44.2076974436274" lon="11.46343075497229"><ele>669.0</ele><time>2026-04-25T09:35:29Z</time></trkpt><trkpt lat="44.20775975801654" lon="11.463326040623699"><ele>669.0</ele><time>2026-04-25T09:35:30Z</time></trkpt><trkpt lat="44.20774189133925" lon="11.46313017990044"><ele>669.0</ele><time>2026-04-25T09:35:31Z</time></trkpt><trkpt lat="44.20776983258223" lon="11.463016234285824"><ele>669.5</ele><time>2026-04-25T09:35:32Z</time></trkpt><trkpt lat="44.20779826502279" lon="11.462912720547013"><ele>670.0</ele><time>2026-04-25T09:35:33Z</time></trkpt><trkpt lat="44.207825941708215" lon="11.462817793267268"><ele>670.5</ele><time>2026-04-25T09:35:34Z</time></trkpt><trkpt lat="44.207860283726596" lon="11.462704111142388"><ele>671.0</ele><time>2026-04-25T09:35:35Z</time></trkpt><trkpt lat="44.207898825858024" lon="11.462576488643297"><ele>671.5</ele><time>2026-04-25T09:35:36Z</time></trkpt><trkpt lat="44.20793372474129" lon="11.462466552486664"><ele>672.0</ele><time>2026-04-25T09:35:37Z</time></trkpt><trkpt lat="44.207970997746585" lon="11.462357612702194"><ele>672.0</ele><time>2026-04-25T09:35:38Z</time></trkpt><trkpt lat="44.20799522858646" lon="11.462254091254328"><ele>672.0</ele><time>2026-04-25T09:35:39Z</time></trkpt><trkpt lat="44.208044410291585" lon="11.462181186235041"><ele>672.0</ele><time>2026-04-25T09:35:40Z</time></trkpt><trkpt lat="44.20811155982204" lon="11.462062026790758"><ele>672.0</ele><time>2026-04-25T09:35:42Z</time></trkpt><trkpt lat="44.208161534101464" lon="11.462001667451513"><ele>672.0</ele><time>2026-04-25T09:35:43Z</time></trkpt><trkpt lat="44.208225965420915" lon="11.46195577246551"><ele>672.0</ele><time>2026-04-25T09:35:44Z</time></trkpt><trkpt lat="44.2083071661647" lon="11.461923047228554"><ele>673.6666666666666</ele><time>2026-04-25T09:35:45Z</time></trkpt><trkpt lat="44.208378054702365" lon="11.461922720375126"><ele>675.3333333333334</ele><time>2026-04-25T09:35:46Z</time></trkpt><trkpt lat="44.20847659419292" lon="11.461903467407936"><ele>677.0</ele><time>2026-04-25T09:35:47Z</time></trkpt><trkpt lat="44.208573667908595" lon="11.46185908243262"><ele>678.6666666666667</ele><time>2026-04-25T09:35:48Z</time></trkpt><trkpt lat="44.20864951033337" lon="11.461825137018716"><ele>680.3333333333334</ele><time>2026-04-25T09:35:49Z</time></trkpt><trkpt lat="44.208701319624204" lon="11.461764425977515"><ele>682.0</ele><time>2026-04-25T09:35:50Z</time></trkpt><trkpt lat="44.208804863709126" lon="11.461803465916491"><ele>682.0</ele><time>2026-04-25T09:35:51Z</time></trkpt><trkpt lat="44.20888759416091" lon="11.461785308822856"><ele>682.0</ele><time>2026-04-25T09:35:52Z</time></trkpt><trkpt lat="44.2089600635131" lon="11.461804776484389"><ele>682.0</ele><time>2026-04-25T09:35:53Z</time></trkpt><trkpt lat="44.209055651261636" lon="11.461857079330374"><ele>682.0</ele><time>2026-04-25T09:35:55.001Z</time></trkpt><trkpt lat="44.209031905351914" lon="11.462033795459352"><ele>682.0</ele><time>2026-04-25T09:35:57.001Z</time></trkpt><trkpt lat="44.20901821986936" lon="11.462202182030989"><ele>675.6666666666667</ele><time>2026-04-25T09:35:59.001Z</time></trkpt><trkpt lat="44.20900920868102" lon="11.462294268835025"><ele>669.3333333333334</ele><time>2026-04-25T09:36:00.001Z</time></trkpt><trkpt lat="44.2090267100787" lon="11.46240127291461"><ele>663.0</ele><time>2026-04-25T09:36:01.001Z</time></trkpt><trkpt lat="44.209048808414785" lon="11.462503248781758"><ele>656.6666666666666</ele><time>2026-04-25T09:36:02.001Z</time></trkpt><trkpt lat="44.20912307828773" lon="11.462584471406652"><ele>650.3333333333333</ele><time>2026-04-25T09:36:03.001Z</time></trkpt><trkpt lat="44.209182639041664" lon="11.462674241015108"><ele>644.0</ele><time>2026-04-25T09:36:04.001Z</time></trkpt><trkpt lat="44.20924463659749" lon="11.462733410558382"><ele>644.0</ele><time>2026-04-25T09:36:05.001Z</time></trkpt><trkpt lat="44.20931317169156" lon="11.462752635486869"><ele>644.0</ele><time>2026-04-25T09:36:06.001Z</time></trkpt><trkpt lat="44.209428745853664" lon="11.462751938798963"><ele>644.0</ele><time>2026-04-25T09:36:08.001Z</time></trkpt><trkpt lat="44.209537756305906" lon="11.462745894494605"><ele>644.0</ele><time>2026-04-25T09:36:10.001Z</time></trkpt><trkpt lat="44.20965832533944" lon="11.462739743656055"><ele>644.0</ele><time>2026-04-25T09:36:12.001Z</time></trkpt><trkpt lat="44.20973266305247" lon="11.462735189989466"><ele>644.0</ele><time>2026-04-25T09:36:13.001Z</time></trkpt><trkpt lat="44.209821571359356" lon="11.462697039651752"><ele>644.0</ele><time>2026-04-25T09:36:14.001Z</time></trkpt><trkpt lat="44.209898308454626" lon="11.462678646180786"><ele>644.0</ele><time>2026-04-25T09:36:15.001Z</time></trkpt><trkpt lat="44.209964279230114" lon="11.462702037537236"><ele>644.0</ele><time>2026-04-25T09:36:16.001Z</time></trkpt><trkpt lat="44.21006236776903" lon="11.462750650896776"><ele>644.0</ele><time>2026-04-25T09:36:18.001Z</time></trkpt><trkpt lat="44.21007099782819" lon="11.462928829369043"><ele>637.5</ele><time>2026-04-25T09:36:20.001Z</time></trkpt><trkpt lat="44.21008288136313" lon="11.463036174818662"><ele>631.0</ele><time>2026-04-25T09:36:21.001Z</time></trkpt><trkpt lat="44.21009907503903" lon="11.46314915743655"><ele>624.5</ele><time>2026-04-25T09:36:22.001Z</time></trkpt><trkpt lat="44.21011902437742" lon="11.463247471898617"><ele>618.0</ele><time>2026-04-25T09:36:23.001Z</time></trkpt><trkpt lat="44.21016163478951" lon="11.463343475392753"><ele>611.5</ele><time>2026-04-25T09:36:24.001Z</time></trkpt><trkpt lat="44.21022499558833" lon="11.463423444740059"><ele>605.0</ele><time>2026-04-25T09:36:25.001Z</time></trkpt><trkpt lat="44.21043398634179" lon="11.463312061903851"><ele>605.0</ele><time>2026-04-25T09:36:28.001Z</time></trkpt><trkpt lat="44.210511487258074" lon="11.463279544744154"><ele>605.0</ele><time>2026-04-25T09:36:29.001Z</time></trkpt><trkpt lat="44.21060065860375" lon="11.463288479785728"><ele>605.0</ele><time>2026-04-25T09:36:31.001Z</time></trkpt><trkpt lat="44.21071029712181" lon="11.463359300286731"><ele>605.0</ele><time>2026-04-25T09:36:33.001Z</time></trkpt><trkpt lat="44.210786149582894" lon="11.46344037882747"><ele>605.0</ele><time>2026-04-25T09:36:35.001Z</time></trkpt><trkpt lat="44.210871341093565" lon="11.463499668053968"><ele>606.1666666666666</ele><time>2026-04-25T09:36:37.001Z</time></trkpt><trkpt lat="44.21095282552831" lon="11.463450712323072"><ele>607.3333333333333</ele><time>2026-04-25T09:36:38.001Z</time></trkpt><trkpt lat="44.21097436300301" lon="11.463298820296908"><ele>608.5</ele><time>2026-04-25T09:36:39.001Z</time></trkpt><trkpt lat="44.21094044487822" lon="11.463167818376423"><ele>609.6666666666666</ele><time>2026-04-25T09:36:40.001Z</time></trkpt><trkpt lat="44.21095111778235" lon="11.463076713321863"><ele>610.8333333333334</ele><time>2026-04-25T09:36:41.001Z</time></trkpt><trkpt lat="44.210983657229505" lon="11.462999572141092"><ele>612.0</ele><time>2026-04-25T09:36:42.001Z</time></trkpt><trkpt lat="44.211080171415524" lon="11.462887818481242"><ele>617.3333333333334</ele><time>2026-04-25T09:36:44.001Z</time></trkpt><trkpt lat="44.211147154457436" lon="11.46281973231026"><ele>622.6666666666666</ele><time>2026-04-25T09:36:45.001Z</time></trkpt><trkpt lat="44.21121307196578" lon="11.462754138195733"><ele>628.0</ele><time>2026-04-25T09:36:46.001Z</time></trkpt><trkpt lat="44.21127928060232" lon="11.462709115186014"><ele>633.3333333333333</ele><time>2026-04-25T09:36:47.001Z</time></trkpt><trkpt lat="44.21133505907916" lon="11.462628968212124"><ele>638.6666666666666</ele><time>2026-04-25T09:36:47.999Z</time></trkpt><trkpt lat="44.211381250009666" lon="11.462549611626972"><ele>644.0</ele><time>2026-04-25T09:36:48.999Z</time></trkpt><trkpt lat="44.211409841160915" lon="11.4624455173022"><ele>644.0</ele><time>2026-04-25T09:36:49.999Z</time></trkpt><trkpt lat="44.211445246073396" lon="11.46236943406374"><ele>644.0</ele><time>2026-04-25T09:36:50.999Z</time></trkpt><trkpt lat="44.21148769771878" lon="11.462284707471778"><ele>644.0</ele><time>2026-04-25T09:36:52.999Z</time></trkpt><trkpt lat="44.21152987838789" lon="11.462202000280591"><ele>644.0</ele><time>2026-04-25T09:36:54.999Z</time></trkpt><trkpt lat="44.21160957778833" lon="11.46208815021686"><ele>644.0</ele><time>2026-04-25T09:36:56.999Z</time></trkpt><trkpt lat="44.21167114426502" lon="11.462044080135914"><ele>644.0</ele><time>2026-04-25T09:37:00.999Z</time></trkpt><trkpt lat="44.211747988375855" lon="11.462051705208502"><ele>640.5</ele><time>2026-04-25T09:37:03.999Z</time></trkpt><trkpt lat="44.21184550573213" lon="11.462111439297013"><ele>637.0</ele><time>2026-04-25T09:37:05.999Z</time></trkpt><trkpt lat="44.211917274856525" lon="11.462152793088896"><ele>633.5</ele><time>2026-04-25T09:37:06.999Z</time></trkpt><trkpt lat="44.21197622294385" lon="11.462185121044419"><ele>630.0</ele><time>2026-04-25T09:37:08Z</time></trkpt><trkpt lat="44.212031593468744" lon="11.46223141624588"><ele>626.5</ele><time>2026-04-25T09:37:32Z</time></trkpt><trkpt lat="44.21210289678927" lon="11.462285842223109"><ele>623.0</ele><time>2026-04-25T09:37:35Z</time></trkpt><trkpt lat="44.212192616149316" lon="11.462333788758865"><ele>618.0</ele><time>2026-04-25T09:37:37Z</time></trkpt><trkpt lat="44.21229826025755" lon="11.46226177359256"><ele>613.0</ele><time>2026-04-25T09:37:39Z</time></trkpt><trkpt lat="44.212399927685574" lon="11.46223697912574"><ele>608.0</ele><time>2026-04-25T09:37:41Z</time></trkpt><trkpt lat="44.21246137382963" lon="11.462262056502647"><ele>603.0</ele><time>2026-04-25T09:37:42Z</time></trkpt><trkpt lat="44.212532543678336" lon="11.462288459845846"><ele>598.0</ele><time>2026-04-25T09:37:43Z</time></trkpt><trkpt lat="44.212601245241274" lon="11.46231818065265"><ele>593.0</ele><time>2026-04-25T09:37:44Z</time></trkpt><trkpt lat="44.21267069042024" lon="11.462374627159154"><ele>593.0</ele><time>2026-04-25T09:37:45Z</time></trkpt><trkpt lat="44.21273867324382" lon="11.462435918597267"><ele>593.0</ele><time>2026-04-25T09:37:46.001Z</time></trkpt><trkpt lat="44.2128224588582" lon="11.462480257295494"><ele>593.0</ele><time>2026-04-25T09:37:47.001Z</time></trkpt><trkpt lat="44.212882580110794" lon="11.462507907226735"><ele>593.0</ele><time>2026-04-25T09:37:48.001Z</time></trkpt><trkpt lat="44.21298989758548" lon="11.462484741294091"><ele>593.0</ele><time>2026-04-25T09:37:50.001Z</time></trkpt><trkpt lat="44.21306127488266" lon="11.46245741050695"><ele>593.0</ele><time>2026-04-25T09:37:51.001Z</time></trkpt><trkpt lat="44.213162138889246" lon="11.462463200671195"><ele>597.0</ele><time>2026-04-25T09:37:53.001Z</time></trkpt><trkpt lat="44.213245443352335" lon="11.462521535151167"><ele>601.0</ele><time>2026-04-25T09:37:54.001Z</time></trkpt><trkpt lat="44.213334192121664" lon="11.462598244388136"><ele>605.0</ele><time>2026-04-25T09:37:55.001Z</time></trkpt><trkpt lat="44.21342144387013" lon="11.46266397080794"><ele>609.0</ele><time>2026-04-25T09:37:56.001Z</time></trkpt><trkpt lat="44.21351424054437" lon="11.462708476163533"><ele>613.0</ele><time>2026-04-25T09:37:57.001Z</time></trkpt><trkpt lat="44.21360076122201" lon="11.462777139063084"><ele>613.0</ele><time>2026-04-25T09:37:58.001Z</time></trkpt><trkpt lat="44.21368999971227" lon="11.462827512632353"><ele>613.0</ele><time>2026-04-25T09:37:59.001Z</time></trkpt><trkpt lat="44.21376043867787" lon="11.46288746181598"><ele>613.0</ele><time>2026-04-25T09:38:00.001Z</time></trkpt><trkpt lat="44.21380762708348" lon="11.462983512585726"><ele>613.0</ele><time>2026-04-25T09:38:01.001Z</time></trkpt><trkpt lat="44.213827474739354" lon="11.463106372056277"><ele>613.0</ele><time>2026-04-25T09:38:02.001Z</time></trkpt><trkpt lat="44.21384061584076" lon="11.463230138526233"><ele>613.0</ele><time>2026-04-25T09:38:03.001Z</time></trkpt><trkpt lat="44.21386982542494" lon="11.463311987185715"><ele>612.0</ele><time>2026-04-25T09:38:04.001Z</time></trkpt><trkpt lat="44.21393758660062" lon="11.463371949122045"><ele>611.0</ele><time>2026-04-25T09:38:05.001Z</time></trkpt><trkpt lat="44.21401963562478" lon="11.46339526466384"><ele>610.0</ele><time>2026-04-25T09:38:06.001Z</time></trkpt><trkpt lat="44.2140843729052" lon="11.463463490977865"><ele>609.0</ele><time>2026-04-25T09:38:07.001Z</time></trkpt><trkpt lat="44.21414305481544" lon="11.463545340945686"><ele>608.0</ele><time>2026-04-25T09:38:08.001Z</time></trkpt><trkpt lat="44.2141823604062" lon="11.463636550817748"><ele>607.0</ele><time>2026-04-25T09:38:09.001Z</time></trkpt><trkpt lat="44.214189474716534" lon="11.463747102351318"><ele>601.5</ele><time>2026-04-25T09:38:10.001Z</time></trkpt><trkpt lat="44.21421855726738" lon="11.463850813720832"><ele>596.0</ele><time>2026-04-25T09:38:11.001Z</time></trkpt><trkpt lat="44.214242520327254" lon="11.463952931071457"><ele>590.5</ele><time>2026-04-25T09:38:12.001Z</time></trkpt><trkpt lat="44.21425887629463" lon="11.464053675326612"><ele>585.0</ele><time>2026-04-25T09:38:13.001Z</time></trkpt><trkpt lat="44.21430407866367" lon="11.464133116820037"><ele>579.5</ele><time>2026-04-25T09:38:14.001Z</time></trkpt><trkpt lat="44.214365099665024" lon="11.46419135181197"><ele>574.0</ele><time>2026-04-25T09:38:15.001Z</time></trkpt><trkpt lat="44.21444192778111" lon="11.46419757638317"><ele>574.0</ele><time>2026-04-25T09:38:16.001Z</time></trkpt><trkpt lat="44.21451600118444" lon="11.46412111096026"><ele>574.0</ele><time>2026-04-25T09:38:17.001Z</time></trkpt><trkpt lat="44.21454779960196" lon="11.464009441192065"><ele>574.0</ele><time>2026-04-25T09:38:18.001Z</time></trkpt><trkpt lat="44.21460424800293" lon="11.463961537058832"><ele>574.0</ele><time>2026-04-25T09:38:19.001Z</time></trkpt><trkpt lat="44.21473257695895" lon="11.463951022834866"><ele>574.0</ele><time>2026-04-25T09:38:21.001Z</time></trkpt><trkpt lat="44.21482031718114" lon="11.464007580609923"><ele>578.5</ele><time>2026-04-25T09:38:22.001Z</time></trkpt><trkpt lat="44.21491825153387" lon="11.46404973877061"><ele>583.0</ele><time>2026-04-25T09:38:23.001Z</time></trkpt><trkpt lat="44.215002869301934" lon="11.464060061346029"><ele>587.5</ele><time>2026-04-25T09:38:24.001Z</time></trkpt><trkpt lat="44.21507173743063" lon="11.464110961931818"><ele>592.0</ele><time>2026-04-25T09:38:25.001Z</time></trkpt><trkpt lat="44.21513980254517" lon="11.464156241075123"><ele>596.5</ele><time>2026-04-25T09:38:26.001Z</time></trkpt><trkpt lat="44.21520900649327" lon="11.464206643859496"><ele>601.0</ele><time>2026-04-25T09:38:27.001Z</time></trkpt><trkpt lat="44.21527464562749" lon="11.46426210724841"><ele>601.0</ele><time>2026-04-25T09:38:28.001Z</time></trkpt><trkpt lat="44.21532497705537" lon="11.46433297456927"><ele>601.0</ele><time>2026-04-25T09:38:29.001Z</time></trkpt><trkpt lat="44.21537676516282" lon="11.46441011060973"><ele>601.0</ele><time>2026-04-25T09:38:30.001Z</time></trkpt><trkpt lat="44.21542387809678" lon="11.464491682410864"><ele>601.0</ele><time>2026-04-25T09:38:31.001Z</time></trkpt><trkpt lat="44.21546644708868" lon="11.464572605213657"><ele>601.0</ele><time>2026-04-25T09:38:32.001Z</time></trkpt><trkpt lat="44.21547134911136" lon="11.464667005805788"><ele>601.0</ele><time>2026-04-25T09:38:33.001Z</time></trkpt><trkpt lat="44.2154478992422" lon="11.464750435258102"><ele>601.0</ele><time>2026-04-25T09:38:34.002Z</time></trkpt><trkpt lat="44.21540898374208" lon="11.464897167159661"><ele>592.6</ele><time>2026-04-25T09:38:36.002Z</time></trkpt><trkpt lat="44.215377914128815" lon="11.465031277112706"><ele>584.2</ele><time>2026-04-25T09:38:38.002Z</time></trkpt><trkpt lat="44.21537321288611" lon="11.465200403092446"><ele>575.8</ele><time>2026-04-25T09:38:40.002Z</time></trkpt><trkpt lat="44.21541157096737" lon="11.465280006302073"><ele>567.4</ele><time>2026-04-25T09:38:41.002Z</time></trkpt><trkpt lat="44.215490731343856" lon="11.465329818351647"><ele>559.0</ele><time>2026-04-25T09:38:42.002Z</time></trkpt><trkpt lat="44.21557343168786" lon="11.465334942887576"><ele>562.6</ele><time>2026-04-25T09:38:43.002Z</time></trkpt><trkpt lat="44.215662967911" lon="11.465376383181907"><ele>566.2</ele><time>2026-04-25T09:38:44.002Z</time></trkpt><trkpt lat="44.21575738122828" lon="11.465447856153652"><ele>569.8000000000001</ele><time>2026-04-25T09:38:45.002Z</time></trkpt><trkpt lat="44.215846988956685" lon="11.465514298428234"><ele>573.4</ele><time>2026-04-25T09:38:46.002Z</time></trkpt><trkpt lat="44.21591803477232" lon="11.465594359437926"><ele>577.0</ele><time>2026-04-25T09:38:47.002Z</time></trkpt><trkpt lat="44.21597710494008" lon="11.465652015618296"><ele>577.0</ele><time>2026-04-25T09:38:48.002Z</time></trkpt><trkpt lat="44.21603668177252" lon="11.46571256567623"><ele>577.0</ele><time>2026-04-25T09:38:49.002Z</time></trkpt><trkpt lat="44.21608614724339" lon="11.465769104705078"><ele>577.0</ele><time>2026-04-25T09:38:50.002Z</time></trkpt><trkpt lat="44.21613148202048" lon="11.465835370802012"><ele>577.0</ele><time>2026-04-25T09:38:51.002Z</time></trkpt><trkpt lat="44.21616490953551" lon="11.465930068571737"><ele>577.0</ele><time>2026-04-25T09:38:52.002Z</time></trkpt><trkpt lat="44.21616791525085" lon="11.466020559812481"><ele>577.0</ele><time>2026-04-25T09:38:53.002Z</time></trkpt><trkpt lat="44.21615326217898" lon="11.466109715800293"><ele>577.0</ele><time>2026-04-25T09:38:54Z</time></trkpt><trkpt lat="44.21613909993789" lon="11.46627922791887"><ele>573.1666666666667</ele><time>2026-04-25T09:38:56Z</time></trkpt><trkpt lat="44.21609845373855" lon="11.466353445063032"><ele>569.3333333333334</ele><time>2026-04-25T09:38:57Z</time></trkpt><trkpt lat="44.21606363241717" lon="11.466499595877455"><ele>565.5</ele><time>2026-04-25T09:38:59Z</time></trkpt><trkpt lat="44.21604675746739" lon="11.466586244210653"><ele>561.6666666666666</ele><time>2026-04-25T09:39:00Z</time></trkpt><trkpt lat="44.216083244172" lon="11.466697014885908"><ele>557.8333333333333</ele><time>2026-04-25T09:39:01Z</time></trkpt><trkpt lat="44.216168652348635" lon="11.466784637088203"><ele>554.0</ele><time>2026-04-25T09:39:02Z</time></trkpt><trkpt lat="44.21621262535671" lon="11.46686642846715"><ele>554.0</ele><time>2026-04-25T09:39:03Z</time></trkpt><trkpt lat="44.21624188258382" lon="11.46695276000667"><ele>554.0</ele><time>2026-04-25T09:39:04Z</time></trkpt><trkpt lat="44.21625046561853" lon="11.467134054941349"><ele>554.0</ele><time>2026-04-25T09:39:06Z</time></trkpt><trkpt lat="44.216253602383375" lon="11.467242446547015"><ele>554.0</ele><time>2026-04-25T09:39:07Z</time></trkpt><trkpt lat="44.216258122026595" lon="11.467411640265736"><ele>554.0</ele><time>2026-04-25T09:39:09Z</time></trkpt><trkpt lat="44.21627284975591" lon="11.467500322553121"><ele>552.4</ele><time>2026-04-25T09:39:10Z</time></trkpt><trkpt lat="44.21625847753053" lon="11.46763453710596"><ele>550.8</ele><time>2026-04-25T09:39:12Z</time></trkpt><trkpt lat="44.21625645235796" lon="11.467725362976545"><ele>549.2</ele><time>2026-04-25T09:39:13Z</time></trkpt><trkpt lat="44.216293174644356" lon="11.467836051217047"><ele>547.6</ele><time>2026-04-25T09:39:14Z</time></trkpt><trkpt lat="44.21642282132204" lon="11.467892384935457"><ele>546.0</ele><time>2026-04-25T09:39:15Z</time></trkpt><trkpt lat="44.21656989722471" lon="11.467771599984138"><ele>546.0</ele><time>2026-04-25T09:39:16Z</time></trkpt><trkpt lat="44.21665983193196" lon="11.467690073285127"><ele>546.0</ele><time>2026-04-25T09:39:17Z</time></trkpt><trkpt lat="44.21674661603859" lon="11.46759996437019"><ele>546.0</ele><time>2026-04-25T09:39:18Z</time></trkpt><trkpt lat="44.216820069597645" lon="11.467509091200487"><ele>546.0</ele><time>2026-04-25T09:39:19Z</time></trkpt><trkpt lat="44.21687665107031" lon="11.467415008121996"><ele>546.0</ele><time>2026-04-25T09:39:20Z</time></trkpt><trkpt lat="44.21693226269028" lon="11.467362448168421"><ele>546.0</ele><time>2026-04-25T09:39:21Z</time></trkpt><trkpt lat="44.21698912599271" lon="11.467244743077885"><ele>546.0</ele><time>2026-04-25T09:39:23Z</time></trkpt><trkpt lat="44.217017469816696" lon="11.467130717063924"><ele>546.0</ele><time>2026-04-25T09:39:24Z</time></trkpt><trkpt lat="44.21706727023119" lon="11.467039099175354"><ele>546.0</ele><time>2026-04-25T09:39:25Z</time></trkpt><trkpt lat="44.217103528621244" lon="11.466888600676704"><ele>546.0</ele><time>2026-04-25T09:39:27Z</time></trkpt><trkpt lat="44.21719274762289" lon="11.466811425107243"><ele>542.8</ele><time>2026-04-25T09:39:29Z</time></trkpt><trkpt lat="44.21728540056547" lon="11.46690545186945"><ele>539.6</ele><time>2026-04-25T09:39:31.001Z</time></trkpt><trkpt lat="44.21740159212834" lon="11.466917050056994"><ele>536.4</ele><time>2026-04-25T09:39:33.001Z</time></trkpt><trkpt lat="44.21747525032931" lon="11.466769161955215"><ele>533.2</ele><time>2026-04-25T09:39:35.001Z</time></trkpt><trkpt lat="44.21748147123358" lon="11.466665969569993"><ele>530.0</ele><time>2026-04-25T09:39:36.001Z</time></trkpt><trkpt lat="44.217451353492855" lon="11.466571308202337"><ele>530.0</ele><time>2026-04-25T09:39:37.001Z</time></trkpt><trkpt lat="44.21744597782137" lon="11.466468700252046"><ele>530.0</ele><time>2026-04-25T09:39:38.001Z</time></trkpt><trkpt lat="44.21747892705379" lon="11.466313747265279"><ele>530.0</ele><time>2026-04-25T09:39:40.001Z</time></trkpt><trkpt lat="44.21752578597406" lon="11.466250964429605"><ele>530.0</ele><time>2026-04-25T09:39:41.001Z</time></trkpt><trkpt lat="44.217589076279275" lon="11.466226570212354"><ele>530.0</ele><time>2026-04-25T09:39:42.001Z</time></trkpt><trkpt lat="44.217658505231725" lon="11.466192000333987"><ele>530.0</ele><time>2026-04-25T09:39:43.001Z</time></trkpt><trkpt lat="44.21772745440914" lon="11.466169330425556"><ele>535.5</ele><time>2026-04-25T09:39:44.001Z</time></trkpt><trkpt lat="44.21781349474842" lon="11.466126483789184"><ele>541.0</ele><time>2026-04-25T09:39:45.001Z</time></trkpt><trkpt lat="44.217888738575226" lon="11.466081449194242"><ele>546.5</ele><time>2026-04-25T09:39:46.001Z</time></trkpt><trkpt lat="44.21796097497444" lon="11.466006477740686"><ele>552.0</ele><time>2026-04-25T09:39:47.001Z</time></trkpt><trkpt lat="44.218010842909536" lon="11.465902264466788"><ele>557.5</ele><time>2026-04-25T09:39:48.001Z</time></trkpt><trkpt lat="44.21805319455076" lon="11.465830795745035"><ele>563.0</ele><time>2026-04-25T09:39:49.001Z</time></trkpt><trkpt lat="44.218121760466566" lon="11.46576165344793"><ele>557.5</ele><time>2026-04-25T09:39:50.001Z</time></trkpt><trkpt lat="44.21820345834948" lon="11.465744417595337"><ele>552.0</ele><time>2026-04-25T09:39:51.001Z</time></trkpt><trkpt lat="44.21831072016864" lon="11.465763941179087"><ele>546.5</ele><time>2026-04-25T09:39:52.001Z</time></trkpt><trkpt lat="44.218395114412864" lon="11.46577910056809"><ele>541.0</ele><time>2026-04-25T09:39:53.001Z</time></trkpt><trkpt lat="44.21845919832505" lon="11.46576195716916"><ele>535.5</ele><time>2026-04-25T09:39:54.001Z</time></trkpt><trkpt lat="44.21854391616509" lon="11.465780937723803"><ele>530.0</ele><time>2026-04-25T09:39:55.001Z</time></trkpt><trkpt lat="44.218609506773554" lon="11.465814660481497"><ele>530.0</ele><time>2026-04-25T09:39:56.001Z</time></trkpt><trkpt lat="44.218629004986816" lon="11.465933322372049"><ele>530.0</ele><time>2026-04-25T09:39:57.001Z</time></trkpt><trkpt lat="44.218693815866885" lon="11.465998402874945"><ele>530.0</ele><time>2026-04-25T09:39:58.001Z</time></trkpt><trkpt lat="44.21876688017909" lon="11.466043026211313"><ele>530.0</ele><time>2026-04-25T09:39:59.001Z</time></trkpt><trkpt lat="44.2188168704218" lon="11.466107739680915"><ele>530.0</ele><time>2026-04-25T09:40:00.001Z</time></trkpt><trkpt lat="44.218829499021126" lon="11.466291936308195"><ele>530.0</ele><time>2026-04-25T09:40:02.001Z</time></trkpt><trkpt lat="44.21887850944878" lon="11.466431540268026"><ele>529.2857142857142</ele><time>2026-04-25T09:40:04.001Z</time></trkpt><trkpt lat="44.218942481644014" lon="11.466488641394589"><ele>528.5714285714286</ele><time>2026-04-25T09:40:05.001Z</time></trkpt><trkpt lat="44.21902338191408" lon="11.466522310189033"><ele>527.8571428571429</ele><time>2026-04-25T09:40:06.001Z</time></trkpt><trkpt lat="44.21907734146242" lon="11.466573866058983"><ele>527.1428571428571</ele><time>2026-04-25T09:40:07.001Z</time></trkpt><trkpt lat="44.21910401715627" lon="11.466655876654006"><ele>526.4285714285714</ele><time>2026-04-25T09:40:08.001Z</time></trkpt><trkpt lat="44.21913986056068" lon="11.466747236935133"><ele>525.7142857142857</ele><time>2026-04-25T09:40:09.001Z</time></trkpt><trkpt lat="44.219184450217696" lon="11.466831684151309"><ele>525.0</ele><time>2026-04-25T09:40:10.001Z</time></trkpt><trkpt lat="44.21925052665236" lon="11.466896755681978"><ele>525.0</ele><time>2026-04-25T09:40:11.001Z</time></trkpt><trkpt lat="44.21931723095648" lon="11.466973138999615"><ele>525.0</ele><time>2026-04-25T09:40:12.001Z</time></trkpt><trkpt lat="44.21935991922018" lon="11.467071090049744"><ele>525.0</ele><time>2026-04-25T09:40:13.001Z</time></trkpt><trkpt lat="44.21938986197817" lon="11.467175890198963"><ele>525.0</ele><time>2026-04-25T09:40:14.001Z</time></trkpt><trkpt lat="44.21941087619551" lon="11.46729634645339"><ele>525.0</ele><time>2026-04-25T09:40:15.001Z</time></trkpt><trkpt lat="44.21945025123025" lon="11.467402231741925"><ele>525.0</ele><time>2026-04-25T09:40:16.001Z</time></trkpt><trkpt lat="44.21950117130233" lon="11.467485808981722"><ele>518.0</ele><time>2026-04-25T09:40:17.001Z</time></trkpt><trkpt lat="44.21956071112749" lon="11.46764488710377"><ele>511.0</ele><time>2026-04-25T09:40:19.002Z</time></trkpt><trkpt lat="44.21965171626903" lon="11.467650647648698"><ele>504.0</ele><time>2026-04-25T09:40:20.002Z</time></trkpt><trkpt lat="44.219733566587735" lon="11.467483195709857"><ele>497.0</ele><time>2026-04-25T09:40:21.002Z</time></trkpt><trkpt lat="44.21978805745081" lon="11.46737927133241"><ele>498.40000000000003</ele><time>2026-04-25T09:40:22.002Z</time></trkpt><trkpt lat="44.21984934060098" lon="11.467239287909269"><ele>499.80000000000007</ele><time>2026-04-25T09:40:23.002Z</time></trkpt><trkpt lat="44.21993966922468" lon="11.467139378559024"><ele>501.2</ele><time>2026-04-25T09:40:24.002Z</time></trkpt><trkpt lat="44.22001297513307" lon="11.467047970781463"><ele>502.6</ele><time>2026-04-25T09:40:25.002Z</time></trkpt><trkpt lat="44.22007327606285" lon="11.466945836528986"><ele>504.0</ele><time>2026-04-25T09:40:26.002Z</time></trkpt><trkpt lat="44.220120346141904" lon="11.466858651574427"><ele>509.4</ele><time>2026-04-25T09:40:27.002Z</time></trkpt><trkpt lat="44.22015513872689" lon="11.466775541310048"><ele>514.8</ele><time>2026-04-25T09:40:28.002Z</time></trkpt><trkpt lat="44.22021690563313" lon="11.466733485222008"><ele>520.2</ele><time>2026-04-25T09:40:29.002Z</time></trkpt><trkpt lat="44.22035484904719" lon="11.466738155781599"><ele>525.6</ele><time>2026-04-25T09:40:31.002Z</time></trkpt><trkpt lat="44.22044172254891" lon="11.46679419154358"><ele>531.0</ele><time>2026-04-25T09:40:32.002Z</time></trkpt><trkpt lat="44.22054025765068" lon="11.466832993133314"><ele>531.0</ele><time>2026-04-25T09:40:33.002Z</time></trkpt><trkpt lat="44.2206255955211" lon="11.466849522283525"><ele>531.0</ele><time>2026-04-25T09:40:34.002Z</time></trkpt><trkpt lat="44.22071439295501" lon="11.46682746886334"><ele>531.0</ele><time>2026-04-25T09:40:35.002Z</time></trkpt><trkpt lat="44.220805362806864" lon="11.46680982117533"><ele>531.0</ele><time>2026-04-25T09:40:36.002Z</time></trkpt><trkpt lat="44.220899693724164" lon="11.466817770643095"><ele>531.0</ele><time>2026-04-25T09:40:37.002Z</time></trkpt><trkpt lat="44.220989381476365" lon="11.466813649524083"><ele>527.6666666666666</ele><time>2026-04-25T09:40:38.002Z</time></trkpt><trkpt lat="44.221076721326774" lon="11.466830217138657"><ele>524.3333333333334</ele><time>2026-04-25T09:40:39.002Z</time></trkpt><trkpt lat="44.2211503264322" lon="11.466853698371697"><ele>521.0</ele><time>2026-04-25T09:40:40.002Z</time></trkpt><trkpt lat="44.22122150308689" lon="11.466891124191546"><ele>517.6666666666667</ele><time>2026-04-25T09:40:41.002Z</time></trkpt><trkpt lat="44.22129904467499" lon="11.466942999815608"><ele>514.3333333333334</ele><time>2026-04-25T09:40:42.002Z</time></trkpt><trkpt lat="44.221390406443234" lon="11.46701361061001"><ele>511.0</ele><time>2026-04-25T09:40:43.002Z</time></trkpt><trkpt lat="44.22146576400502" lon="11.467076961196199"><ele>511.8</ele><time>2026-04-25T09:40:44.002Z</time></trkpt><trkpt lat="44.221536404467756" lon="11.467132241356099"><ele>512.6</ele><time>2026-04-25T09:40:45.002Z</time></trkpt><trkpt lat="44.2216406138264" lon="11.467144298197075"><ele>513.4</ele><time>2026-04-25T09:40:47.002Z</time></trkpt><trkpt lat="44.221709210076355" lon="11.467147325986861"><ele>514.2</ele><time>2026-04-25T09:40:49.002Z</time></trkpt><trkpt lat="44.22171936897172" lon="11.466996222011502"><ele>515.0</ele><time>2026-04-25T09:40:51.002Z</time></trkpt><trkpt lat="44.221716466191594" lon="11.466852502307535"><ele>515.4285714285714</ele><time>2026-04-25T09:40:53.002Z</time></trkpt><trkpt lat="44.22173258878679" lon="11.466764403789231"><ele>515.8571428571429</ele><time>2026-04-25T09:40:54.002Z</time></trkpt><trkpt lat="44.22175127747481" lon="11.466666633011084"><ele>516.2857142857142</ele><time>2026-04-25T09:40:55.002Z</time></trkpt><trkpt lat="44.22176773795667" lon="11.4665743848736"><ele>516.7142857142858</ele><time>2026-04-25T09:40:56.002Z</time></trkpt><trkpt lat="44.221785499819916" lon="11.4664844611047"><ele>517.1428571428571</ele><time>2026-04-25T09:40:57.002Z</time></trkpt><trkpt lat="44.22181224086904" lon="11.46639831393264"><ele>517.5714285714286</ele><time>2026-04-25T09:40:58.002Z</time></trkpt><trkpt lat="44.22188099351136" lon="11.466323366886364"><ele>518.0</ele><time>2026-04-25T09:41:00Z</time></trkpt><trkpt lat="44.22195197990325" lon="11.466324062937723"><ele>518.0</ele><time>2026-04-25T09:41:01Z</time></trkpt><trkpt lat="44.222040155855716" lon="11.466291837940432"><ele>518.0</ele><time>2026-04-25T09:41:02Z</time></trkpt><trkpt lat="44.22213643954591" lon="11.466257813365974"><ele>518.0</ele><time>2026-04-25T09:41:03Z</time></trkpt><trkpt lat="44.22223645053957" lon="11.466219746796094"><ele>518.0</ele><time>2026-04-25T09:41:04Z</time></trkpt><trkpt lat="44.22234489056542" lon="11.466145074999858"><ele>518.0</ele><time>2026-04-25T09:41:05Z</time></trkpt><trkpt lat="44.22245488569461" lon="11.466109826815126"><ele>516.6</ele><time>2026-04-25T09:41:06Z</time></trkpt><trkpt lat="44.2225603112492" lon="11.466058306817457"><ele>515.1999999999999</ele><time>2026-04-25T09:41:07Z</time></trkpt><trkpt lat="44.22267248820556" lon="11.466059116705836"><ele>513.8</ele><time>2026-04-25T09:41:08Z</time></trkpt><trkpt lat="44.22277753624217" lon="11.466059386946865"><ele>512.4</ele><time>2026-04-25T09:41:09Z</time></trkpt><trkpt lat="44.22288112975737" lon="11.466074525951678"><ele>511.0</ele><time>2026-04-25T09:41:10Z</time></trkpt><trkpt lat="44.22299309823184" lon="11.46608838994469"><ele>511.0</ele><time>2026-04-25T09:41:11Z</time></trkpt><trkpt lat="44.22310940777866" lon="11.466097835227385"><ele>511.0</ele><time>2026-04-25T09:41:12Z</time></trkpt><trkpt lat="44.22323329103876" lon="11.466105403473712"><ele>511.0</ele><time>2026-04-25T09:41:13Z</time></trkpt><trkpt lat="44.223358324228435" lon="11.46611164638838"><ele>511.0</ele><time>2026-04-25T09:41:14Z</time></trkpt><trkpt lat="44.223482393316104" lon="11.466114557759958"><ele>510.00000000000006</ele><time>2026-04-25T09:41:15Z</time></trkpt><trkpt lat="44.22358351361773" lon="11.466096985438252"><ele>509.0</ele><time>2026-04-25T09:41:16Z</time></trkpt><trkpt lat="44.22366927659603" lon="11.46609731186334"><ele>508.0</ele><time>2026-04-25T09:41:17Z</time></trkpt><trkpt lat="44.2237427986707" lon="11.466073089527978"><ele>507.0</ele><time>2026-04-25T09:41:18Z</time></trkpt><trkpt lat="44.223804414981586" lon="11.465961878730111"><ele>506.00000000000006</ele><time>2026-04-25T09:41:20Z</time></trkpt><trkpt lat="44.22383526003313" lon="11.465878363896968"><ele>505.0</ele><time>2026-04-25T09:41:22Z</time></trkpt><trkpt lat="44.223861088774854" lon="11.46575094945648"><ele>505.0</ele><time>2026-04-25T09:41:57.001Z</time></trkpt><trkpt lat="44.223835768106085" lon="11.465618177346386"><ele>505.0</ele><time>2026-04-25T09:41:59.001Z</time></trkpt><trkpt lat="44.22372105659041" lon="11.46559875488245"><ele>505.0</ele><time>2026-04-25T09:42:00.001Z</time></trkpt><trkpt lat="44.22365229681889" lon="11.46554096759045"><ele>505.0</ele><time>2026-04-25T09:42:01.001Z</time></trkpt><trkpt lat="44.22356109210044" lon="11.465469598935545"><ele>505.0</ele><time>2026-04-25T09:42:02.001Z</time></trkpt><trkpt lat="44.22345989726166" lon="11.465387664434846"><ele>506.25</ele><time>2026-04-25T09:42:03.001Z</time></trkpt><trkpt lat="44.22335035008014" lon="11.465292384333969"><ele>507.5</ele><time>2026-04-25T09:42:04.001Z</time></trkpt><trkpt lat="44.22322575827259" lon="11.465188195722131"><ele>508.75</ele><time>2026-04-25T09:42:05.001Z</time></trkpt><trkpt lat="44.22309686095718" lon="11.465093429561449"><ele>510.0</ele><time>2026-04-25T09:42:06.001Z</time></trkpt><trkpt lat="44.22297472263081" lon="11.464987148841248"><ele>510.0</ele><time>2026-04-25T09:42:07.001Z</time></trkpt><trkpt lat="44.22286420078473" lon="11.46486916555508"><ele>510.0</ele><time>2026-04-25T09:42:08.001Z</time></trkpt><trkpt lat="44.22275749519899" lon="11.464738976035475"><ele>510.0</ele><time>2026-04-25T09:42:09.001Z</time></trkpt><trkpt lat="44.22265199987441" lon="11.4646035487034"><ele>510.0</ele><time>2026-04-25T09:42:10.001Z</time></trkpt><trkpt lat="44.22255244698318" lon="11.464459175176348"><ele>508.5</ele><time>2026-04-25T09:42:11.001Z</time></trkpt><trkpt lat="44.22245792803732" lon="11.464303595235043"><ele>507.0</ele><time>2026-04-25T09:42:12.001Z</time></trkpt><trkpt lat="44.22236945727927" lon="11.46415530643675"><ele>505.5</ele><time>2026-04-25T09:42:13.001Z</time></trkpt><trkpt lat="44.22228926756299" lon="11.464016626207028"><ele>504.0</ele><time>2026-04-25T09:42:14.001Z</time></trkpt><trkpt lat="44.222219122158265" lon="11.463870254579643"><ele>509.5</ele><time>2026-04-25T09:42:15.001Z</time></trkpt><trkpt lat="44.22216817508839" lon="11.46371742122206"><ele>515.0</ele><time>2026-04-25T09:42:16.001Z</time></trkpt><trkpt lat="44.22213115140604" lon="11.463552269295288"><ele>520.5</ele><time>2026-04-25T09:42:17.001Z</time></trkpt><trkpt lat="44.2221096768656" lon="11.463388083986105"><ele>526.0</ele><time>2026-04-25T09:42:18.001Z</time></trkpt><trkpt lat="44.222115788894534" lon="11.463230933384908"><ele>526.0</ele><time>2026-04-25T09:42:19.001Z</time></trkpt><trkpt lat="44.22215353851104" lon="11.463076004146478"><ele>526.0</ele><time>2026-04-25T09:42:20.001Z</time></trkpt><trkpt lat="44.222211842097" lon="11.462951622060963"><ele>526.0</ele><time>2026-04-25T09:42:21.001Z</time></trkpt><trkpt lat="44.22230019643293" lon="11.46286491632845"><ele>526.0</ele><time>2026-04-25T09:42:22.001Z</time></trkpt><trkpt lat="44.22241535385144" lon="11.462800075024989"><ele>524.0</ele><time>2026-04-25T09:42:23.001Z</time></trkpt><trkpt lat="44.22253931782371" lon="11.46272306006557"><ele>522.0</ele><time>2026-04-25T09:42:24.001Z</time></trkpt><trkpt lat="44.22266723087296" lon="11.462624190008567"><ele>520.0</ele><time>2026-04-25T09:42:25.002Z</time></trkpt><trkpt lat="44.22279213723752" lon="11.462520754567004"><ele>518.0</ele><time>2026-04-25T09:42:26.002Z</time></trkpt><trkpt lat="44.22290486247032" lon="11.462413940464101"><ele>518.0</ele><time>2026-04-25T09:42:27.002Z</time></trkpt><trkpt lat="44.22298904154472" lon="11.462284411018098"><ele>518.0</ele><time>2026-04-25T09:42:28.002Z</time></trkpt><trkpt lat="44.223045172157306" lon="11.46212724956061"><ele>518.0</ele><time>2026-04-25T09:42:29.002Z</time></trkpt><trkpt lat="44.223089351333925" lon="11.46196858992189"><ele>518.0</ele><time>2026-04-25T09:42:30.002Z</time></trkpt><trkpt lat="44.223109962262455" lon="11.461806643068089"><ele>522.5</ele><time>2026-04-25T09:42:31.002Z</time></trkpt><trkpt lat="44.22310353626515" lon="11.46164394640991"><ele>527.0</ele><time>2026-04-25T09:42:32.002Z</time></trkpt><trkpt lat="44.223081426842334" lon="11.461476821471368"><ele>531.5</ele><time>2026-04-25T09:42:33.002Z</time></trkpt><trkpt lat="44.223065468487" lon="11.461313160803114"><ele>536.0</ele><time>2026-04-25T09:42:34.002Z</time></trkpt><trkpt lat="44.22306098187333" lon="11.461150064152402"><ele>536.0</ele><time>2026-04-25T09:42:35.002Z</time></trkpt><trkpt lat="44.22305913554156" lon="11.461000942346308"><ele>536.0</ele><time>2026-04-25T09:42:36.002Z</time></trkpt><trkpt lat="44.22305361287309" lon="11.460858251452821"><ele>536.0</ele><time>2026-04-25T09:42:37.002Z</time></trkpt><trkpt lat="44.22304349503977" lon="11.460720526269562"><ele>536.0</ele><time>2026-04-25T09:42:38.002Z</time></trkpt><trkpt lat="44.223030471832" lon="11.460585350537464"><ele>536.0</ele><time>2026-04-25T09:42:39.002Z</time></trkpt><trkpt lat="44.22302262461221" lon="11.460452153806505"><ele>537.0</ele><time>2026-04-25T09:42:40.002Z</time></trkpt><trkpt lat="44.22302894598889" lon="11.46030748773714"><ele>538.0</ele><time>2026-04-25T09:42:41.002Z</time></trkpt><trkpt lat="44.22306583112597" lon="11.460167315498978"><ele>539.0</ele><time>2026-04-25T09:42:42.002Z</time></trkpt><trkpt lat="44.22312228118422" lon="11.460037873822612"><ele>540.0</ele><time>2026-04-25T09:42:43.002Z</time></trkpt><trkpt lat="44.22319078373248" lon="11.459921622548388"><ele>541.0</ele><time>2026-04-25T09:42:44.002Z</time></trkpt><trkpt lat="44.22327380237338" lon="11.459812353818638"><ele>540.0</ele><time>2026-04-25T09:42:45.002Z</time></trkpt><trkpt lat="44.223371478781864" lon="11.459735513243439"><ele>539.0</ele><time>2026-04-25T09:42:46.002Z</time></trkpt><trkpt lat="44.2234686760767" lon="11.459676962538339"><ele>538.0</ele><time>2026-04-25T09:42:47.002Z</time></trkpt><trkpt lat="44.22356587570657" lon="11.459623966282727"><ele>537.0</ele><time>2026-04-25T09:42:48.002Z</time></trkpt><trkpt lat="44.223663085752456" lon="11.459574278199568"><ele>536.0</ele><time>2026-04-25T09:42:49.002Z</time></trkpt><trkpt lat="44.22376946082848" lon="11.45951739044269"><ele>536.0</ele><time>2026-04-25T09:42:50.002Z</time></trkpt><trkpt lat="44.223875080705376" lon="11.45945857394927"><ele>536.0</ele><time>2026-04-25T09:42:51.002Z</time></trkpt><trkpt lat="44.2239832088258" lon="11.459380786400185"><ele>536.0</ele><time>2026-04-25T09:42:52.002Z</time></trkpt><trkpt lat="44.224104391112284" lon="11.45930886275063"><ele>536.0</ele><time>2026-04-25T09:42:53.002Z</time></trkpt><trkpt lat="44.22423857689411" lon="11.459214384029284"><ele>529.5</ele><time>2026-04-25T09:42:54.002Z</time></trkpt><trkpt lat="44.22437104135036" lon="11.459102354257961"><ele>523.0</ele><time>2026-04-25T09:42:55.002Z</time></trkpt><trkpt lat="44.22450377817637" lon="11.459029590299822"><ele>516.5</ele><time>2026-04-25T09:42:56.002Z</time></trkpt><trkpt lat="44.2246345119608" lon="11.458976836912885"><ele>510.0</ele><time>2026-04-25T09:42:57.002Z</time></trkpt><trkpt lat="44.22475014956077" lon="11.458935258889607"><ele>505.4</ele><time>2026-04-25T09:42:58.002Z</time></trkpt><trkpt lat="44.22485657332993" lon="11.458903809530879"><ele>500.8</ele><time>2026-04-25T09:42:59.002Z</time></trkpt><trkpt lat="44.2249605757918" lon="11.45887662299573"><ele>496.20000000000005</ele><time>2026-04-25T09:43:00.002Z</time></trkpt><trkpt lat="44.22506381246539" lon="11.458852900750607"><ele>491.6</ele><time>2026-04-25T09:43:01.002Z</time></trkpt><trkpt lat="44.22517144783771" lon="11.45884576281432"><ele>487.0</ele><time>2026-04-25T09:43:02.002Z</time></trkpt><trkpt lat="44.22527526598092" lon="11.458824204896427"><ele>487.0</ele><time>2026-04-25T09:43:03.002Z</time></trkpt><trkpt lat="44.225376488596666" lon="11.458794769841738"><ele>487.00000000000006</ele><time>2026-04-25T09:43:04.002Z</time></trkpt><trkpt lat="44.22547397721282" lon="11.458759174243578"><ele>487.00000000000006</ele><time>2026-04-25T09:43:05.002Z</time></trkpt><trkpt lat="44.22556225533029" lon="11.45871019820399"><ele>487.0</ele><time>2026-04-25T09:43:06.001Z</time></trkpt><trkpt lat="44.22563719504148" lon="11.458668112787892"><ele>487.0</ele><time>2026-04-25T09:43:07.001Z</time></trkpt><trkpt lat="44.22570769566756" lon="11.45861906076966"><ele>487.83333333333337</ele><time>2026-04-25T09:43:08.001Z</time></trkpt><trkpt lat="44.225767602673606" lon="11.458553027234206"><ele>488.6666666666667</ele><time>2026-04-25T09:43:09.001Z</time></trkpt><trkpt lat="44.2258154015304" lon="11.458462821641485"><ele>489.5</ele><time>2026-04-25T09:43:10.001Z</time></trkpt><trkpt lat="44.22584842325461" lon="11.458360687253366"><ele>490.33333333333337</ele><time>2026-04-25T09:43:11.001Z</time></trkpt><trkpt lat="44.22585006450659" lon="11.458247262004393"><ele>491.1666666666667</ele><time>2026-04-25T09:43:12Z</time></trkpt><trkpt lat="44.22583466169554" lon="11.458144120723633"><ele>492.0</ele><time>2026-04-25T09:43:13Z</time></trkpt><trkpt lat="44.225783015348085" lon="11.458008454238927"><ele>491.0</ele><time>2026-04-25T09:43:15Z</time></trkpt><trkpt lat="44.22572105189329" lon="11.457905797602848"><ele>490.0</ele><time>2026-04-25T09:43:17Z</time></trkpt><trkpt lat="44.22565758520159" lon="11.457795066255462"><ele>489.0</ele><time>2026-04-25T09:43:19Z</time></trkpt><trkpt lat="44.225602429333996" lon="11.457680497677622"><ele>488.0</ele><time>2026-04-25T09:43:21Z</time></trkpt><trkpt lat="44.225554381231674" lon="11.45758743407015"><ele>487.0</ele><time>2026-04-25T09:43:23Z</time></trkpt><trkpt lat="44.22552362626163" lon="11.457503476198852"><ele>486.0</ele><time>2026-04-25T09:43:25Z</time></trkpt><trkpt lat="44.22547327603188" lon="11.457406267292821"><ele>490.0</ele><time>2026-04-25T09:43:28Z</time></trkpt><trkpt lat="44.22536762668956" lon="11.457478625043022"><ele>494.0</ele><time>2026-04-25T09:43:46.001Z</time></trkpt><trkpt lat="44.22546227458717" lon="11.457385027540944"><ele>498.0</ele><time>2026-04-25T09:43:55.001Z</time></trkpt><trkpt lat="44.22536451356928" lon="11.457480342977766"><ele>502.0</ele><time>2026-04-25T09:43:57.001Z</time></trkpt><trkpt lat="44.225459724151825" lon="11.457380103784319"><ele>502.0</ele><time>2026-04-25T09:44:07.001Z</time></trkpt><trkpt lat="44.22533265266916" lon="11.457445273604707"><ele>502.00000000000006</ele><time>2026-04-25T09:44:15.001Z</time></trkpt><trkpt lat="44.22525685150744" lon="11.457299377871326"><ele>502.00000000000006</ele><time>2026-04-25T09:44:17.001Z</time></trkpt><trkpt lat="44.22520504566145" lon="11.457206800543489"><ele>502.0</ele><time>2026-04-25T09:44:18.001Z</time></trkpt><trkpt lat="44.22514010938964" lon="11.45711823127863"><ele>502.0</ele><time>2026-04-25T09:44:19.001Z</time></trkpt><trkpt lat="44.2250546192836" lon="11.457063545643777"><ele>503.20000000000005</ele><time>2026-04-25T09:44:20.001Z</time></trkpt><trkpt lat="44.22496753766481" lon="11.457009148193857"><ele>504.40000000000003</ele><time>2026-04-25T09:44:21.001Z</time></trkpt><trkpt lat="44.22488088616451" lon="11.456949908397108"><ele>505.59999999999997</ele><time>2026-04-25T09:44:22.001Z</time></trkpt><trkpt lat="44.224781280118215" lon="11.456893889003608"><ele>506.79999999999995</ele><time>2026-04-25T09:44:23.001Z</time></trkpt><trkpt lat="44.22467065691303" lon="11.456834046243273"><ele>508.0</ele><time>2026-04-25T09:44:24.001Z</time></trkpt><trkpt lat="44.2245510194302" lon="11.456754587462003"><ele>508.0</ele><time>2026-04-25T09:44:25.001Z</time></trkpt><trkpt lat="44.22441939094886" lon="11.45665268648433"><ele>508.0</ele><time>2026-04-25T09:44:26.001Z</time></trkpt><trkpt lat="44.224295488815606" lon="11.456577637702404"><ele>508.0</ele><time>2026-04-25T09:44:27.001Z</time></trkpt><trkpt lat="44.224181227506676" lon="11.456517033573617"><ele>508.0</ele><time>2026-04-25T09:44:28.001Z</time></trkpt><trkpt lat="44.224066833026754" lon="11.45644318451847"><ele>510.75</ele><time>2026-04-25T09:44:29.001Z</time></trkpt><trkpt lat="44.22393378674569" lon="11.456405745212301"><ele>513.5</ele><time>2026-04-25T09:44:30.002Z</time></trkpt><trkpt lat="44.22378364220836" lon="11.456424529973921"><ele>516.25</ele><time>2026-04-25T09:44:31.002Z</time></trkpt><trkpt lat="44.223629775330835" lon="11.456478439584188"><ele>519.0</ele><time>2026-04-25T09:44:32.002Z</time></trkpt><trkpt lat="44.22348976860152" lon="11.456522666562504"><ele>519.0</ele><time>2026-04-25T09:44:33.002Z</time></trkpt><trkpt lat="44.223380806074985" lon="11.4565324344147"><ele>519.0</ele><time>2026-04-25T09:44:34.002Z</time></trkpt><trkpt lat="44.22327626956774" lon="11.456500295656669"><ele>519.0</ele><time>2026-04-25T09:44:35.002Z</time></trkpt><trkpt lat="44.223201683464794" lon="11.456430067421742"><ele>519.0</ele><time>2026-04-25T09:44:36.002Z</time></trkpt><trkpt lat="44.22314252972533" lon="11.4563186110286"><ele>519.0</ele><time>2026-04-25T09:44:38.002Z</time></trkpt><trkpt lat="44.2231274787734" lon="11.456206799149768"><ele>520.75</ele><time>2026-04-25T09:44:39.002Z</time></trkpt><trkpt lat="44.22310653885053" lon="11.45606451520916"><ele>522.5</ele><time>2026-04-25T09:44:40.002Z</time></trkpt><trkpt lat="44.22307311036568" lon="11.455909310667664"><ele>524.25</ele><time>2026-04-25T09:44:41.002Z</time></trkpt><trkpt lat="44.2230408477206" lon="11.455743632305078"><ele>526.0</ele><time>2026-04-25T09:44:42.002Z</time></trkpt><trkpt lat="44.2230274388796" lon="11.455568481748097"><ele>523.2</ele><time>2026-04-25T09:44:43.002Z</time></trkpt><trkpt lat="44.222985493418406" lon="11.455413419245591"><ele>520.4000000000001</ele><time>2026-04-25T09:44:44.002Z</time></trkpt><trkpt lat="44.22295248064159" lon="11.455283993859059"><ele>517.6</ele><time>2026-04-25T09:44:45.002Z</time></trkpt><trkpt lat="44.22294722533242" lon="11.45514710848686"><ele>514.8000000000001</ele><time>2026-04-25T09:44:47.002Z</time></trkpt><trkpt lat="44.2230299637761" lon="11.45512059789962"><ele>512.0</ele><time>2026-04-25T09:44:49.002Z</time></trkpt><trkpt lat="44.22310424466011" lon="11.455092217560455"><ele>509.0</ele><time>2026-04-25T09:44:51.002Z</time></trkpt><trkpt lat="44.22315438415188" lon="11.454946375715405"><ele>506.00000000000006</ele><time>2026-04-25T09:44:52.002Z</time></trkpt><trkpt lat="44.22325605477662" lon="11.454827450482577"><ele>503.00000000000006</ele><time>2026-04-25T09:44:54.002Z</time></trkpt><trkpt lat="44.22331170402263" lon="11.454756030960317"><ele>500.0</ele><time>2026-04-25T09:44:55.002Z</time></trkpt><trkpt lat="44.22337368161185" lon="11.45469569139418"><ele>497.0</ele><time>2026-04-25T09:44:56.002Z</time></trkpt><trkpt lat="44.22324248683545" lon="11.45433641491317"><ele>496.75</ele><time>2026-04-25T09:44:57.002Z</time></trkpt><trkpt lat="44.22320945545435" lon="11.454202653429514"><ele>496.5</ele><time>2026-04-25T09:44:58.002Z</time></trkpt><trkpt lat="44.22315649478239" lon="11.454052480788162"><ele>496.25</ele><time>2026-04-25T09:44:59.002Z</time></trkpt><trkpt lat="44.22306992044157" lon="11.45390028425459"><ele>496.0</ele><time>2026-04-25T09:45:00.002Z</time></trkpt><trkpt lat="44.222951317993" lon="11.453780432661919"><ele>496.0</ele><time>2026-04-25T09:45:01.002Z</time></trkpt><trkpt lat="44.22280350274614" lon="11.45368201924906"><ele>496.0</ele><time>2026-04-25T09:45:02.002Z</time></trkpt><trkpt lat="44.22263713606452" lon="11.45358381632202"><ele>496.0</ele><time>2026-04-25T09:45:03.002Z</time></trkpt><trkpt lat="44.222495220540665" lon="11.4534868876238"><ele>496.0</ele><time>2026-04-25T09:45:04.002Z</time></trkpt><trkpt lat="44.22234871040453" lon="11.453362185287128"><ele>496.0</ele><time>2026-04-25T09:45:05.002Z</time></trkpt><trkpt lat="44.222225363623494" lon="11.453162562611269"><ele>496.0</ele><time>2026-04-25T09:45:06.002Z</time></trkpt><trkpt lat="44.222104363552454" lon="11.4529480859043"><ele>497.33333333333337</ele><time>2026-04-25T09:45:07.002Z</time></trkpt><trkpt lat="44.22198789078661" lon="11.4527606408959"><ele>498.66666666666663</ele><time>2026-04-25T09:45:08.002Z</time></trkpt><trkpt lat="44.22188270723431" lon="11.452611764418524"><ele>500.0</ele><time>2026-04-25T09:45:09.002Z</time></trkpt><trkpt lat="44.221803986453345" lon="11.45246043319493"><ele>500.0</ele><time>2026-04-25T09:45:10.002Z</time></trkpt><trkpt lat="44.22171221530564" lon="11.45234998867813"><ele>500.0</ele><time>2026-04-25T09:45:11.002Z</time></trkpt><trkpt lat="44.22161761282266" lon="11.45223996279732"><ele>500.0</ele><time>2026-04-25T09:45:12Z</time></trkpt><trkpt lat="44.221524987913746" lon="11.452131147186595"><ele>500.0</ele><time>2026-04-25T09:45:13Z</time></trkpt><trkpt lat="44.22142044876259" lon="11.452020859038152"><ele>500.75</ele><time>2026-04-25T09:45:14.001Z</time></trkpt><trkpt lat="44.22131848340262" lon="11.451914095799514"><ele>501.5</ele><time>2026-04-25T09:45:15Z</time></trkpt><trkpt lat="44.22122540885255" lon="11.451821940141556"><ele>502.25</ele><time>2026-04-25T09:45:16Z</time></trkpt><trkpt lat="44.22113048268221" lon="11.45174973787125"><ele>503.0</ele><time>2026-04-25T09:45:17Z</time></trkpt><trkpt lat="44.221034490501125" lon="11.451689478578334"><ele>503.0</ele><time>2026-04-25T09:45:18Z</time></trkpt><trkpt lat="44.22093540035109" lon="11.451648982500222"><ele>502.99999999999994</ele><time>2026-04-25T09:45:19Z</time></trkpt><trkpt lat="44.220836241006204" lon="11.451612283898077"><ele>502.99999999999994</ele><time>2026-04-25T09:45:20Z</time></trkpt><trkpt lat="44.22074906005879" lon="11.451589019356712"><ele>503.0</ele><time>2026-04-25T09:45:21Z</time></trkpt><trkpt lat="44.2206673852234" lon="11.451522485277446"><ele>503.0</ele><time>2026-04-25T09:45:22Z</time></trkpt><trkpt lat="44.22059373634294" lon="11.45140782125444"><ele>503.0</ele><time>2026-04-25T09:45:23Z</time></trkpt><trkpt lat="44.220532128100096" lon="11.451273949655207"><ele>502.99999999999994</ele><time>2026-04-25T09:45:24Z</time></trkpt><trkpt lat="44.220466882478355" lon="11.45117070754732"><ele>502.99999999999994</ele><time>2026-04-25T09:45:25Z</time></trkpt><trkpt lat="44.22041445962373" lon="11.45109722331525"><ele>503.0</ele><time>2026-04-25T09:45:26Z</time></trkpt><trkpt lat="44.22031940941048" lon="11.450997996052257"><ele>503.0</ele><time>2026-04-25T09:45:28Z</time></trkpt><trkpt lat="44.220238470474406" lon="11.450951143620411"><ele>503.0</ele><time>2026-04-25T09:45:29Z</time></trkpt><trkpt lat="44.22015697925689" lon="11.450924719889171"><ele>502.99999999999994</ele><time>2026-04-25T09:45:30Z</time></trkpt><trkpt lat="44.220069762898554" lon="11.450908022248617"><ele>502.99999999999994</ele><time>2026-04-25T09:45:31Z</time></trkpt><trkpt lat="44.21997810346047" lon="11.450916803123013"><ele>503.0</ele><time>2026-04-25T09:45:32Z</time></trkpt><trkpt lat="44.21987932958061" lon="11.450869658409628"><ele>503.0</ele><time>2026-04-25T09:45:33Z</time></trkpt><trkpt lat="44.21977777426804" lon="11.45077242190322"><ele>504.0</ele><time>2026-04-25T09:45:34Z</time></trkpt><trkpt lat="44.21971769188719" lon="11.450641507574087"><ele>505.0</ele><time>2026-04-25T09:45:35Z</time></trkpt><trkpt lat="44.21968139122042" lon="11.450461264640596"><ele>506.0</ele><time>2026-04-25T09:45:36Z</time></trkpt><trkpt lat="44.219659951920896" lon="11.450255380435353"><ele>507.0</ele><time>2026-04-25T09:45:37.001Z</time></trkpt><trkpt lat="44.21963125944127" lon="11.450069805058941"><ele>507.0</ele><time>2026-04-25T09:45:38.001Z</time></trkpt><trkpt lat="44.219597136164076" lon="11.449917240433445"><ele>507.0</ele><time>2026-04-25T09:45:39.001Z</time></trkpt><trkpt lat="44.2195498327887" lon="11.449774307991426"><ele>507.0</ele><time>2026-04-25T09:45:40.001Z</time></trkpt><trkpt lat="44.21950197685376" lon="11.449633623759839"><ele>507.0</ele><time>2026-04-25T09:45:41.001Z</time></trkpt><trkpt lat="44.21944019058302" lon="11.44949482069542"><ele>504.25</ele><time>2026-04-25T09:45:42.001Z</time></trkpt><trkpt lat="44.21935858049811" lon="11.449361092315282"><ele>501.5</ele><time>2026-04-25T09:45:43.001Z</time></trkpt><trkpt lat="44.21927403408975" lon="11.449225039549225"><ele>498.75</ele><time>2026-04-25T09:45:44.001Z</time></trkpt><trkpt lat="44.219187045752676" lon="11.449086225504738"><ele>496.0</ele><time>2026-04-25T09:45:45.001Z</time></trkpt><trkpt lat="44.219096212490555" lon="11.448948064736046"><ele>496.0</ele><time>2026-04-25T09:45:46.001Z</time></trkpt><trkpt lat="44.21900081244018" lon="11.44882520575192"><ele>496.0</ele><time>2026-04-25T09:45:47.001Z</time></trkpt><trkpt lat="44.21888859608486" lon="11.448710227590324"><ele>496.0</ele><time>2026-04-25T09:45:48.001Z</time></trkpt><trkpt lat="44.218731468057605" lon="11.448634050179354"><ele>496.0</ele><time>2026-04-25T09:45:49.001Z</time></trkpt><trkpt lat="44.21856283419296" lon="11.448540404357468"><ele>496.0</ele><time>2026-04-25T09:45:50.001Z</time></trkpt><trkpt lat="44.218397433955616" lon="11.448457307443556"><ele>496.0</ele><time>2026-04-25T09:45:51.001Z</time></trkpt><trkpt lat="44.21822514999012" lon="11.448367657278549"><ele>496.0</ele><time>2026-04-25T09:45:52.001Z</time></trkpt><trkpt lat="44.21805196064407" lon="11.448279810364626"><ele>500.0</ele><time>2026-04-25T09:45:53.001Z</time></trkpt><trkpt lat="44.217887951627745" lon="11.448191996113781"><ele>504.0</ele><time>2026-04-25T09:45:54.001Z</time></trkpt><trkpt lat="44.217734769615674" lon="11.448128874151513"><ele>508.0</ele><time>2026-04-25T09:45:55.001Z</time></trkpt><trkpt lat="44.21759412416884" lon="11.448061851087934"><ele>508.0</ele><time>2026-04-25T09:45:56.001Z</time></trkpt><trkpt lat="44.217456882085436" lon="11.448003373371527"><ele>508.0</ele><time>2026-04-25T09:45:57.001Z</time></trkpt><trkpt lat="44.21731955546953" lon="11.447954510550677"><ele>508.0</ele><time>2026-04-25T09:45:58.001Z</time></trkpt><trkpt lat="44.21719051650354" lon="11.447917844310377"><ele>508.0</ele><time>2026-04-25T09:45:59.001Z</time></trkpt><trkpt lat="44.21706762516404" lon="11.447887800997014"><ele>506.5</ele><time>2026-04-25T09:46:00.001Z</time></trkpt><trkpt lat="44.216954698195295" lon="11.447859277277976"><ele>505.0</ele><time>2026-04-25T09:46:01.001Z</time></trkpt><trkpt lat="44.21684353071738" lon="11.447821777946002"><ele>503.5</ele><time>2026-04-25T09:46:02.001Z</time></trkpt><trkpt lat="44.21672855067051" lon="11.44778859645348"><ele>502.0</ele><time>2026-04-25T09:46:03.001Z</time></trkpt><trkpt lat="44.216611760719374" lon="11.447743731656443"><ele>502.0</ele><time>2026-04-25T09:46:04.001Z</time></trkpt><trkpt lat="44.21649439870794" lon="11.447672946281525"><ele>502.0</ele><time>2026-04-25T09:46:05.001Z</time></trkpt><trkpt lat="44.21639144110877" lon="11.447561893334218"><ele>502.0</ele><time>2026-04-25T09:46:06.001Z</time></trkpt><trkpt lat="44.21629687773262" lon="11.447433948599869"><ele>502.0</ele><time>2026-04-25T09:46:07.001Z</time></trkpt><trkpt lat="44.216209927652955" lon="11.4473282224612"><ele>503.0</ele><time>2026-04-25T09:46:08.001Z</time></trkpt><trkpt lat="44.21613058122342" lon="11.447227756079174"><ele>504.00000000000006</ele><time>2026-04-25T09:46:09.001Z</time></trkpt><trkpt lat="44.21605173985112" lon="11.447125859022929"><ele>505.00000000000006</ele><time>2026-04-25T09:46:10.001Z</time></trkpt><trkpt lat="44.21597366531306" lon="11.447022518447215"><ele>506.0</ele><time>2026-04-25T09:46:11.001Z</time></trkpt><trkpt lat="44.21589795839948" lon="11.446922894853532"><ele>507.0</ele><time>2026-04-25T09:46:12.001Z</time></trkpt><trkpt lat="44.215823991652016" lon="11.446817886102334"><ele>507.0</ele><time>2026-04-25T09:46:13.001Z</time></trkpt><trkpt lat="44.21576846806365" lon="11.446710454474852"><ele>507.00000000000006</ele><time>2026-04-25T09:46:14.001Z</time></trkpt><trkpt lat="44.215723762807734" lon="11.44659977224201"><ele>507.00000000000006</ele><time>2026-04-25T09:46:15.001Z</time></trkpt><trkpt lat="44.21569401192049" lon="11.446480729066627"><ele>507.0</ele><time>2026-04-25T09:46:16.001Z</time></trkpt><trkpt lat="44.215669484235875" lon="11.446368275710267"><ele>507.0</ele><time>2026-04-25T09:46:17.001Z</time></trkpt><trkpt lat="44.21564442921847" lon="11.446243957586537"><ele>509.1666666666667</ele><time>2026-04-25T09:46:18.001Z</time></trkpt><trkpt lat="44.21561585067303" lon="11.4461221006912"><ele>511.33333333333337</ele><time>2026-04-25T09:46:19.001Z</time></trkpt><trkpt lat="44.21559325805149" lon="11.446012928996229"><ele>513.5</ele><time>2026-04-25T09:46:20.001Z</time></trkpt><trkpt lat="44.21557495996318" lon="11.445907633087607"><ele>515.6666666666667</ele><time>2026-04-25T09:46:21.001Z</time></trkpt><trkpt lat="44.21555122831704" lon="11.44580581291863"><ele>517.8333333333334</ele><time>2026-04-25T09:46:22.001Z</time></trkpt><trkpt lat="44.21552978974701" lon="11.445705929485653"><ele>520.0</ele><time>2026-04-25T09:46:23.001Z</time></trkpt><trkpt lat="44.21550888335204" lon="11.445607028965881"><ele>520.0</ele><time>2026-04-25T09:46:24.001Z</time></trkpt><trkpt lat="44.215488958894355" lon="11.445510783756989"><ele>520.0</ele><time>2026-04-25T09:46:25.001Z</time></trkpt><trkpt lat="44.21546870217391" lon="11.445421581794593"><ele>520.0</ele><time>2026-04-25T09:46:26.001Z</time></trkpt><trkpt lat="44.215439070358634" lon="11.445265270830378"><ele>520.0</ele><time>2026-04-25T09:46:28.001Z</time></trkpt><trkpt lat="44.215426694382614" lon="11.445133960169239"><ele>520.0</ele><time>2026-04-25T09:46:30.001Z</time></trkpt><trkpt lat="44.21543409019964" lon="11.444996451812475"><ele>520.0</ele><time>2026-04-25T09:46:32.001Z</time></trkpt><trkpt lat="44.215496240312284" lon="11.444852129530044"><ele>519.8333333333334</ele><time>2026-04-25T09:46:34.001Z</time></trkpt><trkpt lat="44.215544861102046" lon="11.444779805172987"><ele>519.6666666666667</ele><time>2026-04-25T09:46:35.001Z</time></trkpt><trkpt lat="44.21559634164838" lon="11.444698877159421"><ele>519.5</ele><time>2026-04-25T09:46:36.001Z</time></trkpt><trkpt lat="44.215647140587095" lon="11.444601987220366"><ele>519.3333333333334</ele><time>2026-04-25T09:46:37.001Z</time></trkpt><trkpt lat="44.21568436318151" lon="11.44448069559737"><ele>519.1666666666666</ele><time>2026-04-25T09:46:38.001Z</time></trkpt><trkpt lat="44.21570067217831" lon="11.444341215234648"><ele>519.0</ele><time>2026-04-25T09:46:39.002Z</time></trkpt><trkpt lat="44.215678610201294" lon="11.444198816140785"><ele>518.8</ele><time>2026-04-25T09:46:40.002Z</time></trkpt><trkpt lat="44.2156510638926" lon="11.444068626770814"><ele>518.5999999999999</ele><time>2026-04-25T09:46:41.002Z</time></trkpt><trkpt lat="44.21565113901405" lon="11.443958907370076"><ele>518.4</ele><time>2026-04-25T09:46:42.002Z</time></trkpt><trkpt lat="44.215585894971916" lon="11.443840255954878"><ele>518.1999999999999</ele><time>2026-04-25T09:46:43.002Z</time></trkpt><trkpt lat="44.215514873221636" lon="11.443749835010836"><ele>518.0</ele><time>2026-04-25T09:46:44.002Z</time></trkpt><trkpt lat="44.215440610165196" lon="11.443664912054254"><ele>515.5</ele><time>2026-04-25T09:46:45.002Z</time></trkpt><trkpt lat="44.215374897159755" lon="11.443569448869212"><ele>513.0</ele><time>2026-04-25T09:46:46.002Z</time></trkpt><trkpt lat="44.215297105773786" lon="11.443465751211718"><ele>510.5</ele><time>2026-04-25T09:46:47.002Z</time></trkpt><trkpt lat="44.21521180974586" lon="11.443340998521334"><ele>508.0</ele><time>2026-04-25T09:46:48.002Z</time></trkpt><trkpt lat="44.215111885528934" lon="11.443186707364891"><ele>508.0</ele><time>2026-04-25T09:46:49.002Z</time></trkpt><trkpt lat="44.21502109958403" lon="11.442999061118051"><ele>508.0</ele><time>2026-04-25T09:46:50.002Z</time></trkpt><trkpt lat="44.2149746289556" lon="11.442782551550843"><ele>508.0</ele><time>2026-04-25T09:46:51.002Z</time></trkpt><trkpt lat="44.21492539296402" lon="11.442550681266386"><ele>505.6666666666667</ele><time>2026-04-25T09:46:52.002Z</time></trkpt><trkpt lat="44.21487852159864" lon="11.44229856157638"><ele>503.33333333333337</ele><time>2026-04-25T09:46:53.002Z</time></trkpt><trkpt lat="44.214830216731634" lon="11.442067682840111"><ele>501.0</ele><time>2026-04-25T09:46:54.002Z</time></trkpt><trkpt lat="44.21477735023014" lon="11.441864901089042"><ele>504.75</ele><time>2026-04-25T09:46:55.002Z</time></trkpt><trkpt lat="44.21473679662728" lon="11.441638437649804"><ele>508.5</ele><time>2026-04-25T09:46:56.002Z</time></trkpt><trkpt lat="44.21468880220795" lon="11.441438647897877"><ele>512.25</ele><time>2026-04-25T09:46:57.002Z</time></trkpt><trkpt lat="44.21467574357153" lon="11.441264369232426"><ele>516.0</ele><time>2026-04-25T09:46:58.002Z</time></trkpt><trkpt lat="44.21473587495858" lon="11.441102865175914"><ele>516.0</ele><time>2026-04-25T09:46:59.002Z</time></trkpt><trkpt lat="44.214806373078694" lon="11.440934110422958"><ele>516.0</ele><time>2026-04-25T09:47:00.002Z</time></trkpt><trkpt lat="44.21488757438962" lon="11.440735933589018"><ele>516.0</ele><time>2026-04-25T09:47:01.002Z</time></trkpt><trkpt lat="44.2149573038244" lon="11.440512414817487"><ele>509.66666666666663</ele><time>2026-04-25T09:47:02.002Z</time></trkpt><trkpt lat="44.21496326651017" lon="11.440264934749537"><ele>503.3333333333333</ele><time>2026-04-25T09:47:03.002Z</time></trkpt><trkpt lat="44.21497894245995" lon="11.440023996606445"><ele>497.0</ele><time>2026-04-25T09:47:04.002Z</time></trkpt><trkpt lat="44.21504263732289" lon="11.439844454985826"><ele>497.0</ele><time>2026-04-25T09:47:05.002Z</time></trkpt><trkpt lat="44.21505657345734" lon="11.439539747266279"><ele>497.0</ele><time>2026-04-25T09:47:06.002Z</time></trkpt><trkpt lat="44.21499989329325" lon="11.439385999990138"><ele>497.0</ele><time>2026-04-25T09:47:07.002Z</time></trkpt><trkpt lat="44.21497014504668" lon="11.439215395916342"><ele>497.0</ele><time>2026-04-25T09:47:08.002Z</time></trkpt><trkpt lat="44.21490651339549" lon="11.43903883627834"><ele>497.0</ele><time>2026-04-25T09:47:09.002Z</time></trkpt><trkpt lat="44.214840013780496" lon="11.4388749314948"><ele>497.0</ele><time>2026-04-25T09:47:10.002Z</time></trkpt><trkpt lat="44.214782630578604" lon="11.438730165487689"><ele>497.0</ele><time>2026-04-25T09:47:11.002Z</time></trkpt><trkpt lat="44.21476502252894" lon="11.438545003107995"><ele>503.0</ele><time>2026-04-25T09:47:12.002Z</time></trkpt><trkpt lat="44.21477589139575" lon="11.438353711840863"><ele>509.0</ele><time>2026-04-25T09:47:13.002Z</time></trkpt><trkpt lat="44.21479812401401" lon="11.438158547336364"><ele>515.0</ele><time>2026-04-25T09:47:14.002Z</time></trkpt><trkpt lat="44.214814335844764" lon="11.437973535416784"><ele>521.0</ele><time>2026-04-25T09:47:15.002Z</time></trkpt><trkpt lat="44.214798595288386" lon="11.437795578655283"><ele>521.0</ele><time>2026-04-25T09:47:16.002Z</time></trkpt><trkpt lat="44.21475131368646" lon="11.43762750101983"><ele>521.0</ele><time>2026-04-25T09:47:17.002Z</time></trkpt><trkpt lat="44.21467730158716" lon="11.437471709325443"><ele>521.0</ele><time>2026-04-25T09:47:18Z</time></trkpt><trkpt lat="44.2145935800612" lon="11.437321680817183"><ele>521.0</ele><time>2026-04-25T09:47:19Z</time></trkpt><trkpt lat="44.21453685637303" lon="11.437174192002574"><ele>518.75</ele><time>2026-04-25T09:47:20Z</time></trkpt><trkpt lat="44.21449833742387" lon="11.437002231660124"><ele>516.5</ele><time>2026-04-25T09:47:21Z</time></trkpt><trkpt lat="44.214501012687386" lon="11.436822974097712"><ele>514.25</ele><time>2026-04-25T09:47:22Z</time></trkpt><trkpt lat="44.21449372849342" lon="11.436625565232468"><ele>512.0</ele><time>2026-04-25T09:47:23Z</time></trkpt><trkpt lat="44.21450386290744" lon="11.436435257238346"><ele>511.25</ele><time>2026-04-25T09:47:24Z</time></trkpt><trkpt lat="44.214510882493215" lon="11.43624954753901"><ele>510.5</ele><time>2026-04-25T09:47:25Z</time></trkpt><trkpt lat="44.21450984754265" lon="11.436067783543477"><ele>509.75</ele><time>2026-04-25T09:47:26Z</time></trkpt><trkpt lat="44.214503921846266" lon="11.43588783568161"><ele>509.0</ele><time>2026-04-25T09:47:27Z</time></trkpt><trkpt lat="44.21449330013245" lon="11.43571524350706"><ele>509.0</ele><time>2026-04-25T09:47:28Z</time></trkpt><trkpt lat="44.214455001418266" lon="11.43554631828194"><ele>509.0</ele><time>2026-04-25T09:47:29Z</time></trkpt><trkpt lat="44.21440645642105" lon="11.43538938746706"><ele>509.0</ele><time>2026-04-25T09:47:30Z</time></trkpt><trkpt lat="44.21437437212602" lon="11.435245757249902"><ele>509.0</ele><time>2026-04-25T09:47:31Z</time></trkpt><trkpt lat="44.21438743423636" lon="11.435105685417112"><ele>509.79999999999995</ele><time>2026-04-25T09:47:32Z</time></trkpt><trkpt lat="44.21444879195611" lon="11.434976873861435"><ele>510.59999999999997</ele><time>2026-04-25T09:47:33Z</time></trkpt><trkpt lat="44.21454052361584" lon="11.434881379702185"><ele>511.4</ele><time>2026-04-25T09:47:34Z</time></trkpt><trkpt lat="44.214612092528704" lon="11.434781218284511"><ele>512.1999999999999</ele><time>2026-04-25T09:47:35Z</time></trkpt><trkpt lat="44.2146382637596" lon="11.4346302284393"><ele>513.0</ele><time>2026-04-25T09:47:36Z</time></trkpt><trkpt lat="44.214618236337735" lon="11.434443838296044"><ele>513.0</ele><time>2026-04-25T09:47:37Z</time></trkpt><trkpt lat="44.21458277451437" lon="11.434255456376569"><ele>513.0</ele><time>2026-04-25T09:47:38Z</time></trkpt><trkpt lat="44.21455769555349" lon="11.434064535749522"><ele>513.0</ele><time>2026-04-25T09:47:39Z</time></trkpt><trkpt lat="44.214550440079606" lon="11.433897494484295"><ele>513.0</ele><time>2026-04-25T09:47:40Z</time></trkpt><trkpt lat="44.2145239628575" lon="11.43377018005584"><ele>511.8333333333333</ele><time>2026-04-25T09:47:41Z</time></trkpt><trkpt lat="44.21446884663545" lon="11.433685536185473"><ele>510.66666666666663</ele><time>2026-04-25T09:47:42Z</time></trkpt><trkpt lat="44.214398788738094" lon="11.43357811209233"><ele>509.5</ele><time>2026-04-25T09:47:44Z</time></trkpt><trkpt lat="44.214363397891546" lon="11.433502595249587"><ele>508.3333333333333</ele><time>2026-04-25T09:47:46Z</time></trkpt><trkpt lat="44.214415000044546" lon="11.43340704961768"><ele>507.16666666666663</ele><time>2026-04-25T09:47:48Z</time></trkpt><trkpt lat="44.21450258052712" lon="11.433469979082052"><ele>506.0</ele><time>2026-04-25T09:47:49Z</time></trkpt><trkpt lat="44.21453869090008" lon="11.433597509552802"><ele>505.99999999999994</ele><time>2026-04-25T09:47:50Z</time></trkpt><trkpt lat="44.21459344426344" lon="11.433691195152624"><ele>506.0</ele><time>2026-04-25T09:47:51Z</time></trkpt><trkpt lat="44.21464879567536" lon="11.433787133171094"><ele>506.0</ele><time>2026-04-25T09:47:52Z</time></trkpt><trkpt lat="44.21470278439332" lon="11.433890134028516"><ele>506.0</ele><time>2026-04-25T09:47:53Z</time></trkpt><trkpt lat="44.214737676322414" lon="11.433998350423886"><ele>505.99999999999994</ele><time>2026-04-25T09:47:54Z</time></trkpt><trkpt lat="44.214766061937766" lon="11.434115045616737"><ele>506.0</ele><time>2026-04-25T09:47:55.001Z</time></trkpt><trkpt lat="44.214780931594944" lon="11.434236281949364"><ele>507.16666666666663</ele><time>2026-04-25T09:47:56.001Z</time></trkpt><trkpt lat="44.214811915178764" lon="11.434321713039719"><ele>508.3333333333333</ele><time>2026-04-25T09:47:57.001Z</time></trkpt><trkpt lat="44.214874782214814" lon="11.43443239199326"><ele>509.5</ele><time>2026-04-25T09:47:59.001Z</time></trkpt><trkpt lat="44.21496007240521" lon="11.434385837891295"><ele>510.66666666666663</ele><time>2026-04-25T09:48:00.001Z</time></trkpt><trkpt lat="44.21498329180782" lon="11.434277943316914"><ele>511.8333333333333</ele><time>2026-04-25T09:48:01.001Z</time></trkpt><trkpt lat="44.214999307660875" lon="11.434156648480583"><ele>513.0</ele><time>2026-04-25T09:48:04.001Z</time></trkpt><trkpt lat="44.215034545118925" lon="11.434046135510577"><ele>506.4</ele><time>2026-04-25T09:48:06.001Z</time></trkpt><trkpt lat="44.21512427068416" lon="11.433971043908906"><ele>499.79999999999995</ele><time>2026-04-25T09:48:08.001Z</time></trkpt><trkpt lat="44.21518712872351" lon="11.433991278915759"><ele>493.2</ele><time>2026-04-25T09:48:09.001Z</time></trkpt><trkpt lat="44.21531041782161" lon="11.433960486649255"><ele>486.6</ele><time>2026-04-25T09:48:11.001Z</time></trkpt><trkpt lat="44.21536753621761" lon="11.43399751379086"><ele>480.0</ele><time>2026-04-25T09:48:12.001Z</time></trkpt><trkpt lat="44.21547616877073" lon="11.43400724767938"><ele>480.0</ele><time>2026-04-25T09:48:14.001Z</time></trkpt><trkpt lat="44.21553751073167" lon="11.433955740983237"><ele>480.0</ele><time>2026-04-25T09:48:15.001Z</time></trkpt><trkpt lat="44.215599467679546" lon="11.433888269812527"><ele>480.0</ele><time>2026-04-25T09:48:16.001Z</time></trkpt><trkpt lat="44.21566414453485" lon="11.43381370866491"><ele>480.0</ele><time>2026-04-25T09:48:17.001Z</time></trkpt><trkpt lat="44.21571610082175" lon="11.433721275515074"><ele>480.0</ele><time>2026-04-25T09:48:18.001Z</time></trkpt><trkpt lat="44.21576014143066" lon="11.433642726145528"><ele>480.0</ele><time>2026-04-25T09:48:19.001Z</time></trkpt><trkpt lat="44.21582953287038" lon="11.433526955521307"><ele>479.6666666666667</ele><time>2026-04-25T09:48:21.001Z</time></trkpt><trkpt lat="44.21592011925237" lon="11.43341069466226"><ele>479.33333333333337</ele><time>2026-04-25T09:48:23.001Z</time></trkpt><trkpt lat="44.21597370445937" lon="11.433346647735458"><ele>479.0</ele><time>2026-04-25T09:48:24.001Z</time></trkpt><trkpt lat="44.21604087805944" lon="11.433298015165404"><ele>478.6666666666667</ele><time>2026-04-25T09:48:25.001Z</time></trkpt><trkpt lat="44.2161122386761" lon="11.433228507650345"><ele>478.33333333333337</ele><time>2026-04-25T09:48:26.001Z</time></trkpt><trkpt lat="44.21617769328216" lon="11.43316450929304"><ele>478.0</ele><time>2026-04-25T09:48:27.001Z</time></trkpt><trkpt lat="44.216277609843" lon="11.433052061310994"><ele>478.79999999999995</ele><time>2026-04-25T09:48:29.001Z</time></trkpt><trkpt lat="44.216328751577336" lon="11.432964959065524"><ele>479.59999999999997</ele><time>2026-04-25T09:48:30.001Z</time></trkpt><trkpt lat="44.21638179014747" lon="11.43287069580959"><ele>480.40000000000003</ele><time>2026-04-25T09:48:31.001Z</time></trkpt><trkpt lat="44.21643858622887" lon="11.432758019763783"><ele>481.20000000000005</ele><time>2026-04-25T09:48:32.001Z</time></trkpt><trkpt lat="44.216474735504725" lon="11.432609811298832"><ele>482.0</ele><time>2026-04-25T09:48:33.001Z</time></trkpt><trkpt lat="44.216508747182985" lon="11.432453117144677"><ele>478.25</ele><time>2026-04-25T09:48:34.001Z</time></trkpt><trkpt lat="44.21653821084021" lon="11.432280212648408"><ele>474.5</ele><time>2026-04-25T09:48:35.001Z</time></trkpt><trkpt lat="44.216571278012786" lon="11.432119655856207"><ele>470.75</ele><time>2026-04-25T09:48:36.001Z</time></trkpt><trkpt lat="44.21661854421168" lon="11.43197476457599"><ele>467.0</ele><time>2026-04-25T09:48:37.001Z</time></trkpt><trkpt lat="44.21667402226078" lon="11.43183839121147"><ele>467.0</ele><time>2026-04-25T09:48:38.001Z</time></trkpt><trkpt lat="44.216735309611806" lon="11.431715925947513"><ele>467.00000000000006</ele><time>2026-04-25T09:48:39.001Z</time></trkpt><trkpt lat="44.21679657255828" lon="11.431597712601446"><ele>467.00000000000006</ele><time>2026-04-25T09:48:40.001Z</time></trkpt><trkpt lat="44.216853650041095" lon="11.431465019735647"><ele>467.0</ele><time>2026-04-25T09:48:41.001Z</time></trkpt><trkpt lat="44.21690120531814" lon="11.431305724880648"><ele>467.0</ele><time>2026-04-25T09:48:42.001Z</time></trkpt><trkpt lat="44.21693708332019" lon="11.431136822150986"><ele>467.25</ele><time>2026-04-25T09:48:43.001Z</time></trkpt><trkpt lat="44.21697324848804" lon="11.430977986504942"><ele>467.5</ele><time>2026-04-25T09:48:44.001Z</time></trkpt><trkpt lat="44.217015313424916" lon="11.430817594306586"><ele>467.75</ele><time>2026-04-25T09:48:45.001Z</time></trkpt><trkpt lat="44.21705425920897" lon="11.43065568339948"><ele>468.0</ele><time>2026-04-25T09:48:46.001Z</time></trkpt><trkpt lat="44.21709669276723" lon="11.430490697283167"><ele>468.5</ele><time>2026-04-25T09:48:47.001Z</time></trkpt><trkpt lat="44.21715750827198" lon="11.430354198666986"><ele>469.0</ele><time>2026-04-25T09:48:48.001Z</time></trkpt><trkpt lat="44.217196559873955" lon="11.430213955796182"><ele>469.5</ele><time>2026-04-25T09:48:49.001Z</time></trkpt><trkpt lat="44.21727432603156" lon="11.43009256524315"><ele>470.0</ele><time>2026-04-25T09:48:50.001Z</time></trkpt><trkpt lat="44.217385643203926" lon="11.43001791124855"><ele>468.6</ele><time>2026-04-25T09:48:51.001Z</time></trkpt><trkpt lat="44.2174670064167" lon="11.42991346901244"><ele>467.2</ele><time>2026-04-25T09:48:52.001Z</time></trkpt><trkpt lat="44.21756064951309" lon="11.429856492218128"><ele>465.79999999999995</ele><time>2026-04-25T09:48:53.001Z</time></trkpt><trkpt lat="44.217655954379424" lon="11.429806309821537"><ele>464.4</ele><time>2026-04-25T09:48:54.001Z</time></trkpt><trkpt lat="44.217767853522645" lon="11.429783743831154"><ele>463.0</ele><time>2026-04-25T09:48:55.002Z</time></trkpt><trkpt lat="44.21788509160985" lon="11.429769029010098"><ele>463.0</ele><time>2026-04-25T09:48:56.002Z</time></trkpt><trkpt lat="44.2180056805943" lon="11.429782338983783"><ele>463.0</ele><time>2026-04-25T09:48:57.002Z</time></trkpt><trkpt lat="44.21815086733881" lon="11.42981044237926"><ele>463.0</ele><time>2026-04-25T09:48:58.002Z</time></trkpt><trkpt lat="44.21829513509246" lon="11.429830928924066"><ele>463.0</ele><time>2026-04-25T09:48:59.002Z</time></trkpt><trkpt lat="44.218411282847455" lon="11.429816780586297"><ele>463.59999999999997</ele><time>2026-04-25T09:49:00.002Z</time></trkpt><trkpt lat="44.21851732779585" lon="11.429821734213855"><ele>464.19999999999993</ele><time>2026-04-25T09:49:01.002Z</time></trkpt><trkpt lat="44.21864039089129" lon="11.429803829462736"><ele>464.8</ele><time>2026-04-25T09:49:02.002Z</time></trkpt><trkpt lat="44.2187556367646" lon="11.429791279997337"><ele>465.4</ele><time>2026-04-25T09:49:03.002Z</time></trkpt><trkpt lat="44.218854498402166" lon="11.42974986638953"><ele>466.0</ele><time>2026-04-25T09:49:04.002Z</time></trkpt><trkpt lat="44.21893756702557" lon="11.429686791137964"><ele>467.75</ele><time>2026-04-25T09:49:05.002Z</time></trkpt><trkpt lat="44.21902317707293" lon="11.42959517953432"><ele>469.5</ele><time>2026-04-25T09:49:06.002Z</time></trkpt><trkpt lat="44.21909236680287" lon="11.429487498556105"><ele>471.25</ele><time>2026-04-25T09:49:07.002Z</time></trkpt><trkpt lat="44.21917116154059" lon="11.429348552428184"><ele>473.0</ele><time>2026-04-25T09:49:08.002Z</time></trkpt><trkpt lat="44.21924632611092" lon="11.429208484375843"><ele>473.0</ele><time>2026-04-25T09:49:09.002Z</time></trkpt><trkpt lat="44.219337918017686" lon="11.429121920950056"><ele>472.99999999999994</ele><time>2026-04-25T09:49:10.002Z</time></trkpt><trkpt lat="44.21941501330392" lon="11.429053085614951"><ele>472.99999999999994</ele><time>2026-04-25T09:49:11.002Z</time></trkpt><trkpt lat="44.21951086630301" lon="11.429000993191092"><ele>473.0</ele><time>2026-04-25T09:49:12.002Z</time></trkpt><trkpt lat="44.219628687602366" lon="11.428926233339718"><ele>473.0</ele><time>2026-04-25T09:49:13.002Z</time></trkpt><trkpt lat="44.21974679602584" lon="11.428868387440328"><ele>473.79999999999995</ele><time>2026-04-25T09:49:14.002Z</time></trkpt><trkpt lat="44.21984755277536" lon="11.428797787236547"><ele>474.59999999999997</ele><time>2026-04-25T09:49:15.002Z</time></trkpt><trkpt lat="44.219951423274544" lon="11.428802908685435"><ele>475.40000000000003</ele><time>2026-04-25T09:49:16.002Z</time></trkpt><trkpt lat="44.2200459489905" lon="11.42879612732639"><ele>476.20000000000005</ele><time>2026-04-25T09:49:17.002Z</time></trkpt><trkpt lat="44.2201301374224" lon="11.428812019554734"><ele>477.0</ele><time>2026-04-25T09:49:18.002Z</time></trkpt><trkpt lat="44.22022310802212" lon="11.428839335451354"><ele>477.0</ele><time>2026-04-25T09:49:19.002Z</time></trkpt><trkpt lat="44.220316155986495" lon="11.42884110223635"><ele>477.00000000000006</ele><time>2026-04-25T09:49:20.002Z</time></trkpt><trkpt lat="44.2204055126732" lon="11.42887755145572"><ele>477.00000000000006</ele><time>2026-04-25T09:49:21.002Z</time></trkpt><trkpt lat="44.22050746616376" lon="11.428907854357979"><ele>477.0</ele><time>2026-04-25T09:49:22.002Z</time></trkpt><trkpt lat="44.22060729633638" lon="11.428910485565467"><ele>477.0</ele><time>2026-04-25T09:49:23.002Z</time></trkpt><trkpt lat="44.22069075788452" lon="11.428874605553371"><ele>477.6666666666667</ele><time>2026-04-25T09:49:24Z</time></trkpt><trkpt lat="44.220769433502575" lon="11.428821124003402"><ele>478.33333333333337</ele><time>2026-04-25T09:49:25Z</time></trkpt><trkpt lat="44.22082491638076" lon="11.42875493700544"><ele>479.0</ele><time>2026-04-25T09:49:26Z</time></trkpt><trkpt lat="44.2208715465863" lon="11.42866081612268"><ele>479.6666666666667</ele><time>2026-04-25T09:49:27Z</time></trkpt><trkpt lat="44.220924633311824" lon="11.428552406961778"><ele>480.33333333333337</ele><time>2026-04-25T09:49:28Z</time></trkpt><trkpt lat="44.22097772010812" lon="11.42844228162027"><ele>481.0</ele><time>2026-04-25T09:49:29Z</time></trkpt><trkpt lat="44.221041311349644" lon="11.428322883193836"><ele>481.6</ele><time>2026-04-25T09:49:30Z</time></trkpt><trkpt lat="44.221097409178036" lon="11.428234978483841"><ele>482.20000000000005</ele><time>2026-04-25T09:49:31Z</time></trkpt><trkpt lat="44.221143303182636" lon="11.428055751569222"><ele>482.79999999999995</ele><time>2026-04-25T09:49:33Z</time></trkpt><trkpt lat="44.22112665307688" lon="11.427957870307376"><ele>483.4</ele><time>2026-04-25T09:49:34Z</time></trkpt><trkpt lat="44.221089398628685" lon="11.427861228605428"><ele>484.0</ele><time>2026-04-25T09:49:35Z</time></trkpt><trkpt lat="44.2210356719377" lon="11.427769929829942"><ele>484.6666666666667</ele><time>2026-04-25T09:49:36Z</time></trkpt><trkpt lat="44.22097715802806" lon="11.42768103959915"><ele>485.33333333333337</ele><time>2026-04-25T09:49:37Z</time></trkpt><trkpt lat="44.22091895750007" lon="11.427565171561803"><ele>486.0</ele><time>2026-04-25T09:49:38Z</time></trkpt><trkpt lat="44.22087176160317" lon="11.427464762903409"><ele>486.66666666666663</ele><time>2026-04-25T09:49:39Z</time></trkpt><trkpt lat="44.22082237395311" lon="11.427357777698525"><ele>487.3333333333333</ele><time>2026-04-25T09:49:40Z</time></trkpt><trkpt lat="44.220775169902176" lon="11.427263098839642"><ele>488.0</ele><time>2026-04-25T09:49:41Z</time></trkpt><trkpt lat="44.22074764556636" lon="11.427173219844104"><ele>489.1428571428571</ele><time>2026-04-25T09:49:42Z</time></trkpt><trkpt lat="44.22073119895811" lon="11.427083992103114"><ele>490.2857142857143</ele><time>2026-04-25T09:49:43Z</time></trkpt><trkpt lat="44.22073555557891" lon="11.426973684466924"><ele>491.42857142857144</ele><time>2026-04-25T09:49:44Z</time></trkpt><trkpt lat="44.22075463192213" lon="11.426849806253818"><ele>492.57142857142856</ele><time>2026-04-25T09:49:45Z</time></trkpt><trkpt lat="44.22078473215423" lon="11.426753988614022"><ele>493.7142857142858</ele><time>2026-04-25T09:49:46Z</time></trkpt><trkpt lat="44.220830045300545" lon="11.426686218920741"><ele>494.8571428571429</ele><time>2026-04-25T09:49:47Z</time></trkpt><trkpt lat="44.22089472017436" lon="11.426650757149588"><ele>496.0</ele><time>2026-04-25T09:49:48Z</time></trkpt><trkpt lat="44.220978605674006" lon="11.426680169949824"><ele>496.0</ele><time>2026-04-25T09:49:49Z</time></trkpt><trkpt lat="44.22106655192543" lon="11.426697383513396"><ele>496.0</ele><time>2026-04-25T09:49:50Z</time></trkpt><trkpt lat="44.221160123697814" lon="11.426710804087952"><ele>496.0</ele><time>2026-04-25T09:49:51Z</time></trkpt><trkpt lat="44.22125349847101" lon="11.426753364968551"><ele>496.0</ele><time>2026-04-25T09:49:52Z</time></trkpt><trkpt lat="44.22134953392751" lon="11.426782412585121"><ele>496.0</ele><time>2026-04-25T09:49:53Z</time></trkpt><trkpt lat="44.22144590516152" lon="11.42681046819165"><ele>496.33333333333337</ele><time>2026-04-25T09:49:54Z</time></trkpt><trkpt lat="44.221535660476974" lon="11.426812930027886"><ele>496.6666666666667</ele><time>2026-04-25T09:49:55Z</time></trkpt><trkpt lat="44.221609194829654" lon="11.426798139999086"><ele>497.0</ele><time>2026-04-25T09:49:56Z</time></trkpt><trkpt lat="44.221678370021856" lon="11.426767398469073"><ele>497.33333333333337</ele><time>2026-04-25T09:49:57.001Z</time></trkpt><trkpt lat="44.221738322818254" lon="11.426712021501638"><ele>497.6666666666667</ele><time>2026-04-25T09:49:58.001Z</time></trkpt><trkpt lat="44.22178777484704" lon="11.42663173818175"><ele>498.0</ele><time>2026-04-25T09:49:59.001Z</time></trkpt><trkpt lat="44.221830165494" lon="11.426511340968233"><ele>498.0</ele><time>2026-04-25T09:50:00.001Z</time></trkpt><trkpt lat="44.22186422706647" lon="11.426381012773488"><ele>497.99999999999994</ele><time>2026-04-25T09:50:01.001Z</time></trkpt><trkpt lat="44.22190063375433" lon="11.426238992730719"><ele>497.99999999999994</ele><time>2026-04-25T09:50:02.001Z</time></trkpt><trkpt lat="44.221959662019316" lon="11.4260960378809"><ele>498.0</ele><time>2026-04-25T09:50:03.001Z</time></trkpt><trkpt lat="44.22201577510428" lon="11.425956593230415"><ele>498.0</ele><time>2026-04-25T09:50:04.001Z</time></trkpt><trkpt lat="44.22206675708827" lon="11.425811913372042"><ele>499.5</ele><time>2026-04-25T09:50:05.001Z</time></trkpt><trkpt lat="44.22211789576896" lon="11.42568162568499"><ele>501.0</ele><time>2026-04-25T09:50:06.001Z</time></trkpt><trkpt lat="44.22216848161009" lon="11.425576890104326"><ele>502.5</ele><time>2026-04-25T09:50:07.001Z</time></trkpt><trkpt lat="44.22221876347172" lon="11.425478829844709"><ele>504.0</ele><time>2026-04-25T09:50:08.001Z</time></trkpt><trkpt lat="44.22226532868429" lon="11.425409228451567"><ele>505.5</ele><time>2026-04-25T09:50:09.001Z</time></trkpt><trkpt lat="44.222331832571825" lon="11.42539687187847"><ele>507.0</ele><time>2026-04-25T09:50:10.001Z</time></trkpt><trkpt lat="44.22246848422485" lon="11.425444495878688"><ele>507.0</ele><time>2026-04-25T09:50:12.001Z</time></trkpt><trkpt lat="44.22258199795314" lon="11.425511807448258"><ele>507.0</ele><time>2026-04-25T09:50:13.001Z</time></trkpt><trkpt lat="44.22269963383762" lon="11.42558214838265"><ele>507.0</ele><time>2026-04-25T09:50:14.001Z</time></trkpt><trkpt lat="44.222798270371406" lon="11.425628010946259"><ele>507.0</ele><time>2026-04-25T09:50:15.001Z</time></trkpt><trkpt lat="44.222901516226536" lon="11.42567348175104"><ele>507.0</ele><time>2026-04-25T09:50:16.001Z</time></trkpt><trkpt lat="44.222996857238684" lon="11.425733959418132"><ele>507.00000000000006</ele><time>2026-04-25T09:50:17.001Z</time></trkpt><trkpt lat="44.223096007548264" lon="11.425749553560799"><ele>507.00000000000006</ele><time>2026-04-25T09:50:18.001Z</time></trkpt><trkpt lat="44.22319910733239" lon="11.425748279920928"><ele>507.0</ele><time>2026-04-25T09:50:19.001Z</time></trkpt><trkpt lat="44.22329728215736" lon="11.425724748367223"><ele>507.0</ele><time>2026-04-25T09:50:20.001Z</time></trkpt><trkpt lat="44.22338824976838" lon="11.425675692043818"><ele>507.6666666666667</ele><time>2026-04-25T09:50:21.001Z</time></trkpt><trkpt lat="44.22347462071196" lon="11.42564249567865"><ele>508.33333333333337</ele><time>2026-04-25T09:50:22.001Z</time></trkpt><trkpt lat="44.2235561004133" lon="11.425620985940709"><ele>509.0</ele><time>2026-04-25T09:50:23.001Z</time></trkpt><trkpt lat="44.2236333352313" lon="11.425625131404896"><ele>509.6666666666667</ele><time>2026-04-25T09:50:24.001Z</time></trkpt><trkpt lat="44.22369319988541" lon="11.425666209932205"><ele>510.33333333333337</ele><time>2026-04-25T09:50:25.001Z</time></trkpt><trkpt lat="44.2237341136717" lon="11.425736936514161"><ele>511.0</ele><time>2026-04-25T09:50:26.001Z</time></trkpt><trkpt lat="44.223762322054014" lon="11.425830568878833"><ele>511.00000000000006</ele><time>2026-04-25T09:50:27.001Z</time></trkpt><trkpt lat="44.22376711086694" lon="11.425920337029876"><ele>511.0</ele><time>2026-04-25T09:50:28.001Z</time></trkpt><trkpt lat="44.22376514511009" lon="11.426016211054497"><ele>511.0</ele><time>2026-04-25T09:50:29.001Z</time></trkpt><trkpt lat="44.22373025718297" lon="11.426110657342763"><ele>511.0</ele><time>2026-04-25T09:50:30.001Z</time></trkpt><trkpt lat="44.22370949224204" lon="11.42623292855597"><ele>511.00000000000006</ele><time>2026-04-25T09:50:31.001Z</time></trkpt><trkpt lat="44.22367037586336" lon="11.426348433470672"><ele>511.0</ele><time>2026-04-25T09:50:32.001Z</time></trkpt><trkpt lat="44.22366202156971" lon="11.426467262044731"><ele>510.6</ele><time>2026-04-25T09:50:33.001Z</time></trkpt><trkpt lat="44.223676042956484" lon="11.426587908855266"><ele>510.20000000000005</ele><time>2026-04-25T09:50:34.001Z</time></trkpt><trkpt lat="44.223732213515206" lon="11.426702338183397"><ele>509.79999999999995</ele><time>2026-04-25T09:50:35.001Z</time></trkpt><trkpt lat="44.22377931313838" lon="11.426837433651656"><ele>509.4</ele><time>2026-04-25T09:50:36.001Z</time></trkpt><trkpt lat="44.22382319381057" lon="11.426964113359176"><ele>509.0</ele><time>2026-04-25T09:50:37.001Z</time></trkpt><trkpt lat="44.22386344714959" lon="11.427095659631528"><ele>510.2</ele><time>2026-04-25T09:50:38.001Z</time></trkpt><trkpt lat="44.223897577538025" lon="11.427223017586442"><ele>511.4</ele><time>2026-04-25T09:50:39.001Z</time></trkpt><trkpt lat="44.22392395681034" lon="11.427346789340543"><ele>512.6</ele><time>2026-04-25T09:50:40.001Z</time></trkpt><trkpt lat="44.22393072348325" lon="11.427450651989433"><ele>513.8</ele><time>2026-04-25T09:50:41.001Z</time></trkpt><trkpt lat="44.22389710970605" lon="11.42760145795265"><ele>515.0</ele><time>2026-04-25T09:50:43.001Z</time></trkpt><trkpt lat="44.22384829817892" lon="11.427686260941393"><ele>515.0</ele><time>2026-04-25T09:50:44.001Z</time></trkpt><trkpt lat="44.223809608006654" lon="11.427814021785549"><ele>515.0</ele><time>2026-04-25T09:50:45.001Z</time></trkpt><trkpt lat="44.22374454694959" lon="11.427943952096765"><ele>515.0</ele><time>2026-04-25T09:50:46.001Z</time></trkpt><trkpt lat="44.223693941663456" lon="11.428093452753611"><ele>515.0</ele><time>2026-04-25T09:50:47.001Z</time></trkpt><trkpt lat="44.22363188660019" lon="11.428233182281055"><ele>515.0</ele><time>2026-04-25T09:50:48.001Z</time></trkpt><trkpt lat="44.22358735986382" lon="11.42835296678161"><ele>516.6</ele><time>2026-04-25T09:50:49.001Z</time></trkpt><trkpt lat="44.22356874857569" lon="11.428473716616136"><ele>518.2</ele><time>2026-04-25T09:50:50.001Z</time></trkpt><trkpt lat="44.223574934511305" lon="11.428598802811392"><ele>519.8</ele><time>2026-04-25T09:50:51.001Z</time></trkpt><trkpt lat="44.22356478456198" lon="11.428729601214041"><ele>521.4</ele><time>2026-04-25T09:50:52.001Z</time></trkpt><trkpt lat="44.223544519441695" lon="11.42886761484216"><ele>523.0</ele><time>2026-04-25T09:50:53.001Z</time></trkpt><trkpt lat="44.223539268338634" lon="11.428980592513401"><ele>524.6</ele><time>2026-04-25T09:50:54.001Z</time></trkpt><trkpt lat="44.22352150644321" lon="11.4291039399703"><ele>526.1999999999999</ele><time>2026-04-25T09:50:55.001Z</time></trkpt><trkpt lat="44.22352980453045" lon="11.429223056441895"><ele>527.8</ele><time>2026-04-25T09:50:56.001Z</time></trkpt><trkpt lat="44.2235598749488" lon="11.429351603937938"><ele>529.4</ele><time>2026-04-25T09:50:57.001Z</time></trkpt><trkpt lat="44.22360729505233" lon="11.429501741419807"><ele>531.0</ele><time>2026-04-25T09:50:58.001Z</time></trkpt><trkpt lat="44.22363325874384" lon="11.4296789084892"><ele>532.5</ele><time>2026-04-25T09:50:59.002Z</time></trkpt><trkpt lat="44.22364075534618" lon="11.42984251593549"><ele>534.0</ele><time>2026-04-25T09:51:00.002Z</time></trkpt><trkpt lat="44.22367337113092" lon="11.430027157372974"><ele>535.5</ele><time>2026-04-25T09:51:01.002Z</time></trkpt><trkpt lat="44.223697265801135" lon="11.430219405981797"><ele>537.0</ele><time>2026-04-25T09:51:02.002Z</time></trkpt><trkpt lat="44.2237379380549" lon="11.430420701097738"><ele>538.5</ele><time>2026-04-25T09:51:03.002Z</time></trkpt><trkpt lat="44.22375764309762" lon="11.430611996002039"><ele>540.0</ele><time>2026-04-25T09:51:04.002Z</time></trkpt><trkpt lat="44.22378054093117" lon="11.43079252703539"><ele>541.5</ele><time>2026-04-25T09:51:05.002Z</time></trkpt><trkpt lat="44.223804561675934" lon="11.430964768224728"><ele>543.0</ele><time>2026-04-25T09:51:06.002Z</time></trkpt><trkpt lat="44.22382355884663" lon="11.431121017015634"><ele>543.0</ele><time>2026-04-25T09:51:07.002Z</time></trkpt><trkpt lat="44.22383112149649" lon="11.43124637629992"><ele>543.0</ele><time>2026-04-25T09:51:08.002Z</time></trkpt><trkpt lat="44.223835249214915" lon="11.431391799063922"><ele>543.0</ele><time>2026-04-25T09:51:09.002Z</time></trkpt><trkpt lat="44.22383961733562" lon="11.431564866800475"><ele>543.0</ele><time>2026-04-25T09:51:10.002Z</time></trkpt><trkpt lat="44.22385166487033" lon="11.431761518800288"><ele>544.5</ele><time>2026-04-25T09:51:11.002Z</time></trkpt><trkpt lat="44.22385655965933" lon="11.431943119735909"><ele>546.0</ele><time>2026-04-25T09:51:12.002Z</time></trkpt><trkpt lat="44.22386354311685" lon="11.432116687568374"><ele>547.5</ele><time>2026-04-25T09:51:13.002Z</time></trkpt><trkpt lat="44.2238665669908" lon="11.432275107830407"><ele>549.0</ele><time>2026-04-25T09:51:14.002Z</time></trkpt><trkpt lat="44.223887902527295" lon="11.432417968892395"><ele>549.8</ele><time>2026-04-25T09:51:15.002Z</time></trkpt><trkpt lat="44.223922341717895" lon="11.432548277983182"><ele>550.5999999999999</ele><time>2026-04-25T09:51:16.002Z</time></trkpt><trkpt lat="44.22396839809387" lon="11.43268953315194"><ele>551.4</ele><time>2026-04-25T09:51:17.002Z</time></trkpt><trkpt lat="44.223991933588664" lon="11.432806276700688"><ele>552.1999999999999</ele><time>2026-04-25T09:51:18.002Z</time></trkpt><trkpt lat="44.224006125047566" lon="11.43292684679703"><ele>553.0</ele><time>2026-04-25T09:51:19.002Z</time></trkpt><trkpt lat="44.22401108540715" lon="11.433060259244886"><ele>555.1999999999999</ele><time>2026-04-25T09:51:20.002Z</time></trkpt><trkpt lat="44.22399558761424" lon="11.433182140320113"><ele>557.4</ele><time>2026-04-25T09:51:21.002Z</time></trkpt><trkpt lat="44.223969958185755" lon="11.433296882794105"><ele>559.5999999999999</ele><time>2026-04-25T09:51:22.002Z</time></trkpt><trkpt lat="44.22394068830928" lon="11.433412537148069"><ele>561.8</ele><time>2026-04-25T09:51:23.002Z</time></trkpt><trkpt lat="44.223922721426845" lon="11.433584176169491"><ele>564.0</ele><time>2026-04-25T09:51:25.002Z</time></trkpt><trkpt lat="44.22394944498565" lon="11.433722683417617"><ele>566.1428571428571</ele><time>2026-04-25T09:51:27.002Z</time></trkpt><trkpt lat="44.22401652106435" lon="11.433751414104965"><ele>568.2857142857142</ele><time>2026-04-25T09:51:28.002Z</time></trkpt><trkpt lat="44.22411119432007" lon="11.433702504393844"><ele>570.4285714285713</ele><time>2026-04-25T09:51:29.002Z</time></trkpt><trkpt lat="44.224162766496825" lon="11.433647381812088"><ele>572.5714285714286</ele><time>2026-04-25T09:51:30Z</time></trkpt><trkpt lat="44.22423053039907" lon="11.433635950322277"><ele>574.7142857142857</ele><time>2026-04-25T09:51:31Z</time></trkpt><trkpt lat="44.22430405274175" lon="11.433625072903082"><ele>576.8571428571428</ele><time>2026-04-25T09:51:32Z</time></trkpt><trkpt lat="44.224358096804814" lon="11.433678433209337"><ele>579.0</ele><time>2026-04-25T09:51:33Z</time></trkpt><trkpt lat="44.2244272353688" lon="11.433700015006579"><ele>579.0</ele><time>2026-04-25T09:51:34Z</time></trkpt><trkpt lat="44.224498060598066" lon="11.433700420536551"><ele>579.0</ele><time>2026-04-25T09:51:35Z</time></trkpt><trkpt lat="44.224559564847084" lon="11.433661212044862"><ele>579.0</ele><time>2026-04-25T09:51:36Z</time></trkpt><trkpt lat="44.2246151174674" lon="11.433504380644779"><ele>579.0</ele><time>2026-04-25T09:51:38Z</time></trkpt><trkpt lat="44.22461194269543" lon="11.433409919663783"><ele>579.0</ele><time>2026-04-25T09:51:39Z</time></trkpt><trkpt lat="44.224601946895746" lon="11.4332896675218"><ele>579.0</ele><time>2026-04-25T09:51:40Z</time></trkpt><trkpt lat="44.22458702652439" lon="11.433163018908349"><ele>579.0</ele><time>2026-04-25T09:51:41Z</time></trkpt><trkpt lat="44.224582457724416" lon="11.433037663063915"><ele>579.0</ele><time>2026-04-25T09:51:42Z</time></trkpt><trkpt lat="44.224604742703605" lon="11.432915227532364"><ele>579.0</ele><time>2026-04-25T09:51:43Z</time></trkpt><trkpt lat="44.224651000327924" lon="11.432782239665688"><ele>579.0</ele><time>2026-04-25T09:51:44Z</time></trkpt><trkpt lat="44.224697409429545" lon="11.432672374193826"><ele>579.0</ele><time>2026-04-25T09:51:45Z</time></trkpt><trkpt lat="44.22476483330727" lon="11.432574302168062"><ele>580.4</ele><time>2026-04-25T09:51:46Z</time></trkpt><trkpt lat="44.224825507399615" lon="11.432480541489234"><ele>581.8</ele><time>2026-04-25T09:51:47Z</time></trkpt><trkpt lat="44.22490294350711" lon="11.432421992402542"><ele>583.2</ele><time>2026-04-25T09:51:48Z</time></trkpt><trkpt lat="44.224990239659746" lon="11.432343314461377"><ele>584.6</ele><time>2026-04-25T09:51:49Z</time></trkpt><trkpt lat="44.22508438846487" lon="11.432255616104419"><ele>586.0</ele><time>2026-04-25T09:51:50Z</time></trkpt><trkpt lat="44.225173777572756" lon="11.432154138659731"><ele>585.5</ele><time>2026-04-25T09:51:51Z</time></trkpt><trkpt lat="44.22527856805872" lon="11.432076236042407"><ele>585.0</ele><time>2026-04-25T09:51:52Z</time></trkpt><trkpt lat="44.225386465137596" lon="11.432007736558669"><ele>584.5</ele><time>2026-04-25T09:51:53Z</time></trkpt><trkpt lat="44.225506423384424" lon="11.431951835239765"><ele>584.0</ele><time>2026-04-25T09:51:54Z</time></trkpt><trkpt lat="44.22562702307411" lon="11.431875413118375"><ele>585.25</ele><time>2026-04-25T09:51:55Z</time></trkpt><trkpt lat="44.225741994636785" lon="11.431812010326837"><ele>586.5</ele><time>2026-04-25T09:51:56.001Z</time></trkpt><trkpt lat="44.225847763136365" lon="11.431708794207811"><ele>587.75</ele><time>2026-04-25T09:51:57.001Z</time></trkpt><trkpt lat="44.22595488591462" lon="11.431592665939558"><ele>589.0</ele><time>2026-04-25T09:51:58.001Z</time></trkpt><trkpt lat="44.22607852730982" lon="11.431459241635062"><ele>589.0</ele><time>2026-04-25T09:51:59.001Z</time></trkpt><trkpt lat="44.22617434918724" lon="11.431315556938278"><ele>589.0</ele><time>2026-04-25T09:52:00.001Z</time></trkpt><trkpt lat="44.226256226922814" lon="11.431165873276354"><ele>589.0</ele><time>2026-04-25T09:52:01.001Z</time></trkpt><trkpt lat="44.22634191652167" lon="11.431013262684308"><ele>589.0</ele><time>2026-04-25T09:52:02.001Z</time></trkpt><trkpt lat="44.226434599184756" lon="11.430876548616416"><ele>590.5</ele><time>2026-04-25T09:52:03.001Z</time></trkpt><trkpt lat="44.226524404003555" lon="11.430747919517632"><ele>592.0</ele><time>2026-04-25T09:52:04.001Z</time></trkpt><trkpt lat="44.226612186138084" lon="11.430634813702847"><ele>593.5</ele><time>2026-04-25T09:52:05.001Z</time></trkpt><trkpt lat="44.22669757619232" lon="11.430520964939044"><ele>595.0</ele><time>2026-04-25T09:52:06.001Z</time></trkpt><trkpt lat="44.22676574820221" lon="11.430411516840838"><ele>596.25</ele><time>2026-04-25T09:52:07.001Z</time></trkpt><trkpt lat="44.2268379236479" lon="11.430289005412472"><ele>597.5</ele><time>2026-04-25T09:52:08.001Z</time></trkpt><trkpt lat="44.226910534394065" lon="11.430142692574286"><ele>598.75</ele><time>2026-04-25T09:52:09.001Z</time></trkpt><trkpt lat="44.22698413884436" lon="11.430005152086869"><ele>600.0</ele><time>2026-04-25T09:52:10.001Z</time></trkpt><trkpt lat="44.22705408964508" lon="11.429864456255208"><ele>600.0</ele><time>2026-04-25T09:52:11.001Z</time></trkpt><trkpt lat="44.227117139465776" lon="11.429707897547038"><ele>600.0</ele><time>2026-04-25T09:52:12.001Z</time></trkpt><trkpt lat="44.227170538759864" lon="11.429546324118636"><ele>600.0</ele><time>2026-04-25T09:52:13.001Z</time></trkpt><trkpt lat="44.22721355334106" lon="11.429375030117459"><ele>600.0</ele><time>2026-04-25T09:52:14.001Z</time></trkpt><trkpt lat="44.227252521423836" lon="11.429203134997255"><ele>599.2</ele><time>2026-04-25T09:52:15.001Z</time></trkpt><trkpt lat="44.22728148933871" lon="11.429037183157929"><ele>598.4</ele><time>2026-04-25T09:52:16.001Z</time></trkpt><trkpt lat="44.227298932772655" lon="11.428894512511015"><ele>597.6</ele><time>2026-04-25T09:52:17.001Z</time></trkpt><trkpt lat="44.22730567270363" lon="11.428740808096304"><ele>596.8</ele><time>2026-04-25T09:52:18.001Z</time></trkpt><trkpt lat="44.22732927549328" lon="11.428587601540402"><ele>596.0</ele><time>2026-04-25T09:52:19.001Z</time></trkpt><trkpt lat="44.22739177583542" lon="11.428453485102835"><ele>599.4</ele><time>2026-04-25T09:52:20.001Z</time></trkpt><trkpt lat="44.22745328533354" lon="11.428343520049427"><ele>602.8</ele><time>2026-04-25T09:52:21.001Z</time></trkpt><trkpt lat="44.22752298307694" lon="11.42822776540388"><ele>606.1999999999999</ele><time>2026-04-25T09:52:22.001Z</time></trkpt><trkpt lat="44.22759461475913" lon="11.428124462644263"><ele>609.6</ele><time>2026-04-25T09:52:23.001Z</time></trkpt><trkpt lat="44.22768415568796" lon="11.428024061389028"><ele>613.0</ele><time>2026-04-25T09:52:24.001Z</time></trkpt><trkpt lat="44.22776910239508" lon="11.42791242426947"><ele>613.0</ele><time>2026-04-25T09:52:25.001Z</time></trkpt><trkpt lat="44.22788189920127" lon="11.427817116151324"><ele>613.0</ele><time>2026-04-25T09:52:26.001Z</time></trkpt><trkpt lat="44.227993564560634" lon="11.427684438058261"><ele>613.0</ele><time>2026-04-25T09:52:27.001Z</time></trkpt><trkpt lat="44.22811963428801" lon="11.427561169915009"><ele>613.0</ele><time>2026-04-25T09:52:28.001Z</time></trkpt><trkpt lat="44.22820922082122" lon="11.42746540306534"><ele>616.5</ele><time>2026-04-25T09:52:29.001Z</time></trkpt><trkpt lat="44.22831849659784" lon="11.427378959139435"><ele>620.0</ele><time>2026-04-25T09:52:30.001Z</time></trkpt><trkpt lat="44.22842543874982" lon="11.427347253513684"><ele>623.5</ele><time>2026-04-25T09:52:31.001Z</time></trkpt><trkpt lat="44.22853378914991" lon="11.427335077720656"><ele>627.0</ele><time>2026-04-25T09:52:32.001Z</time></trkpt><trkpt lat="44.22865814060441" lon="11.42727638501983"><ele>627.0</ele><time>2026-04-25T09:52:33.001Z</time></trkpt><trkpt lat="44.22880309859449" lon="11.427222429145385"><ele>627.0</ele><time>2026-04-25T09:52:34.001Z</time></trkpt><trkpt lat="44.228921549169854" lon="11.42715494032881"><ele>627.0</ele><time>2026-04-25T09:52:35.001Z</time></trkpt><trkpt lat="44.22901773130383" lon="11.42708940874447"><ele>627.0</ele><time>2026-04-25T09:52:36.001Z</time></trkpt><trkpt lat="44.22909486798641" lon="11.427004370200198"><ele>628.75</ele><time>2026-04-25T09:52:37.001Z</time></trkpt><trkpt lat="44.22916000870226" lon="11.426878529217849"><ele>630.5</ele><time>2026-04-25T09:52:38.001Z</time></trkpt><trkpt lat="44.2292094373331" lon="11.42673160693611"><ele>632.25</ele><time>2026-04-25T09:52:39.001Z</time></trkpt><trkpt lat="44.229250693847966" lon="11.426590382052987"><ele>634.0</ele><time>2026-04-25T09:52:40.001Z</time></trkpt><trkpt lat="44.229305055064444" lon="11.426441264721444"><ele>633.75</ele><time>2026-04-25T09:52:41.001Z</time></trkpt><trkpt lat="44.22936512092353" lon="11.426265826830962"><ele>633.5</ele><time>2026-04-25T09:52:42.001Z</time></trkpt><trkpt lat="44.22941276369393" lon="11.426081012493306"><ele>633.25</ele><time>2026-04-25T09:52:43.001Z</time></trkpt><trkpt lat="44.229434842035246" lon="11.42590442321219"><ele>633.0</ele><time>2026-04-25T09:52:44.001Z</time></trkpt><trkpt lat="44.22947331865878" lon="11.425721450685543"><ele>633.0</ele><time>2026-04-25T09:52:45.001Z</time></trkpt><trkpt lat="44.229516225028874" lon="11.425532312454708"><ele>633.0</ele><time>2026-04-25T09:52:46.001Z</time></trkpt><trkpt lat="44.22955916939856" lon="11.425365891682079"><ele>633.0</ele><time>2026-04-25T09:52:47.001Z</time></trkpt><trkpt lat="44.229607013638926" lon="11.425196861685308"><ele>633.0</ele><time>2026-04-25T09:52:48.001Z</time></trkpt><trkpt lat="44.229655843451376" lon="11.425008206646751"><ele>633.0</ele><time>2026-04-25T09:52:49.001Z</time></trkpt><trkpt lat="44.229694113098894" lon="11.424847917659873"><ele>633.0</ele><time>2026-04-25T09:52:50.001Z</time></trkpt><trkpt lat="44.229708679586714" lon="11.424701534809955"><ele>633.0</ele><time>2026-04-25T09:52:51.001Z</time></trkpt><trkpt lat="44.22973702822185" lon="11.42456267660571"><ele>633.0</ele><time>2026-04-25T09:52:52.001Z</time></trkpt><trkpt lat="44.22977008072722" lon="11.424434198691047"><ele>633.0</ele><time>2026-04-25T09:52:53.001Z</time></trkpt><trkpt lat="44.22981721162707" lon="11.42435284115449"><ele>636.8</ele><time>2026-04-25T09:52:54.001Z</time></trkpt><trkpt lat="44.22987467406545" lon="11.424257704917016"><ele>640.5999999999999</ele><time>2026-04-25T09:52:55.001Z</time></trkpt><trkpt lat="44.229953277059785" lon="11.424180707480344"><ele>644.4000000000001</ele><time>2026-04-25T09:52:56.001Z</time></trkpt><trkpt lat="44.23003990554948" lon="11.424095753721694"><ele>648.2</ele><time>2026-04-25T09:52:57.001Z</time></trkpt><trkpt lat="44.23013647269065" lon="11.423993869228264"><ele>652.0</ele><time>2026-04-25T09:52:58.001Z</time></trkpt><trkpt lat="44.23023550771364" lon="11.423895555912928"><ele>652.0</ele><time>2026-04-25T09:52:59.001Z</time></trkpt><trkpt lat="44.230333768169494" lon="11.42382155208281"><ele>652.0</ele><time>2026-04-25T09:53:00.001Z</time></trkpt><trkpt lat="44.23040560209319" lon="11.423717022235667"><ele>652.0</ele><time>2026-04-25T09:53:01.001Z</time></trkpt><trkpt lat="44.230460919131694" lon="11.423585088624558"><ele>652.0</ele><time>2026-04-25T09:53:02.001Z</time></trkpt><trkpt lat="44.23049605372295" lon="11.423462448809913"><ele>652.0</ele><time>2026-04-25T09:53:03.001Z</time></trkpt><trkpt lat="44.23051012457271" lon="11.423316376289094"><ele>649.75</ele><time>2026-04-25T09:53:04.001Z</time></trkpt><trkpt lat="44.230503834430266" lon="11.423172323551498"><ele>647.5</ele><time>2026-04-25T09:53:05.001Z</time></trkpt><trkpt lat="44.230479472269266" lon="11.423003803244931"><ele>645.25</ele><time>2026-04-25T09:53:06.002Z</time></trkpt><trkpt lat="44.230457365057546" lon="11.422832726059617"><ele>643.0</ele><time>2026-04-25T09:53:07.002Z</time></trkpt><trkpt lat="44.230441909070684" lon="11.4226766651918"><ele>643.0</ele><time>2026-04-25T09:53:08.002Z</time></trkpt><trkpt lat="44.23042554874292" lon="11.422516664581591"><ele>643.0</ele><time>2026-04-25T09:53:09.002Z</time></trkpt><trkpt lat="44.2304214092778" lon="11.422376411276886"><ele>643.0</ele><time>2026-04-25T09:53:10.002Z</time></trkpt><trkpt lat="44.230423215548" lon="11.422243738523292"><ele>643.0</ele><time>2026-04-25T09:53:11.002Z</time></trkpt><trkpt lat="44.230465945789085" lon="11.422142684283921"><ele>643.0</ele><time>2026-04-25T09:53:12.002Z</time></trkpt><trkpt lat="44.23051527404194" lon="11.42205318569338"><ele>641.4</ele><time>2026-04-25T09:53:13.002Z</time></trkpt><trkpt lat="44.23057750714091" lon="11.421970874691905"><ele>639.8</ele><time>2026-04-25T09:53:14.002Z</time></trkpt><trkpt lat="44.23064123755691" lon="11.421890125594851"><ele>638.2</ele><time>2026-04-25T09:53:15.002Z</time></trkpt><trkpt lat="44.230738083445935" lon="11.421844219828373"><ele>636.6</ele><time>2026-04-25T09:53:16.002Z</time></trkpt><trkpt lat="44.23082920015696" lon="11.421778871108614"><ele>635.0</ele><time>2026-04-25T09:53:17.002Z</time></trkpt><trkpt lat="44.23092336136243" lon="11.421686893751387"><ele>638.75</ele><time>2026-04-25T09:53:18.002Z</time></trkpt><trkpt lat="44.23103112556157" lon="11.421590586616599"><ele>642.5</ele><time>2026-04-25T09:53:19.002Z</time></trkpt><trkpt lat="44.23111161485895" lon="11.421485649344119"><ele>646.25</ele><time>2026-04-25T09:53:20.002Z</time></trkpt><trkpt lat="44.231176574121505" lon="11.421360496092284"><ele>650.0</ele><time>2026-04-25T09:53:21.002Z</time></trkpt><trkpt lat="44.231230594088046" lon="11.421208327648825"><ele>650.0</ele><time>2026-04-25T09:53:22.002Z</time></trkpt><trkpt lat="44.231272679857334" lon="11.421070109078542"><ele>650.0</ele><time>2026-04-25T09:53:23.002Z</time></trkpt><trkpt lat="44.23132903592695" lon="11.420950283021362"><ele>650.0</ele><time>2026-04-25T09:53:24.002Z</time></trkpt><trkpt lat="44.23140344801004" lon="11.420804568676655"><ele>650.0</ele><time>2026-04-25T09:53:25.002Z</time></trkpt><trkpt lat="44.231449682538006" lon="11.42065073446276"><ele>654.8</ele><time>2026-04-25T09:53:26.002Z</time></trkpt><trkpt lat="44.23149986480425" lon="11.420533071189015"><ele>659.6</ele><time>2026-04-25T09:53:27.002Z</time></trkpt><trkpt lat="44.23151954938287" lon="11.420379536497672"><ele>664.4000000000001</ele><time>2026-04-25T09:53:28.002Z</time></trkpt><trkpt lat="44.23151984393135" lon="11.42021823200763"><ele>669.2</ele><time>2026-04-25T09:53:29.002Z</time></trkpt><trkpt lat="44.231507365406216" lon="11.420070171961152"><ele>674.0</ele><time>2026-04-25T09:53:30.002Z</time></trkpt><trkpt lat="44.23147916468894" lon="11.41995344030854"><ele>673.6</ele><time>2026-04-25T09:53:31.002Z</time></trkpt><trkpt lat="44.23142075357203" lon="11.419847834625953"><ele>673.2</ele><time>2026-04-25T09:53:32.002Z</time></trkpt><trkpt lat="44.2313293536652" lon="11.419758991252428"><ele>672.8000000000001</ele><time>2026-04-25T09:53:33.002Z</time></trkpt><trkpt lat="44.23122733507019" lon="11.419670542158471"><ele>672.4000000000001</ele><time>2026-04-25T09:53:34.002Z</time></trkpt><trkpt lat="44.23113829739861" lon="11.419583793810567"><ele>672.0</ele><time>2026-04-25T09:53:35.002Z</time></trkpt><trkpt lat="44.23106207369491" lon="11.419500788857151"><ele>672.0</ele><time>2026-04-25T09:53:36.001Z</time></trkpt><trkpt lat="44.23100421981513" lon="11.419418041137472"><ele>672.0</ele><time>2026-04-25T09:53:37.001Z</time></trkpt><trkpt lat="44.23094228545347" lon="11.419294528390806"><ele>672.0</ele><time>2026-04-25T09:53:38.001Z</time></trkpt><trkpt lat="44.23088814634066" lon="11.419154532926225"><ele>672.0</ele><time>2026-04-25T09:53:39.001Z</time></trkpt><trkpt lat="44.23083382060868" lon="11.419007464661098"><ele>672.0</ele><time>2026-04-25T09:53:40.001Z</time></trkpt><trkpt lat="44.23080082234393" lon="11.418842305381386"><ele>671.25</ele><time>2026-04-25T09:53:41.001Z</time></trkpt><trkpt lat="44.23075342198242" lon="11.41868404358398"><ele>670.5</ele><time>2026-04-25T09:53:42.001Z</time></trkpt><trkpt lat="44.23069903169441" lon="11.418542246340465"><ele>669.75</ele><time>2026-04-25T09:53:43.001Z</time></trkpt><trkpt lat="44.230635917936915" lon="11.418423261203497"><ele>669.0</ele><time>2026-04-25T09:53:44.001Z</time></trkpt><trkpt lat="44.23054472594566" lon="11.418309444392548"><ele>669.0</ele><time>2026-04-25T09:53:45.001Z</time></trkpt><trkpt lat="44.230430834183835" lon="11.418204684967522"><ele>669.0</ele><time>2026-04-25T09:53:46.001Z</time></trkpt><trkpt lat="44.2303229061306" lon="11.41810336490346"><ele>669.0</ele><time>2026-04-25T09:53:47.001Z</time></trkpt><trkpt lat="44.23022901458642" lon="11.417986422695416"><ele>669.0</ele><time>2026-04-25T09:53:48.001Z</time></trkpt><trkpt lat="44.23016245842413" lon="11.417858764584818"><ele>672.0</ele><time>2026-04-25T09:53:49.001Z</time></trkpt><trkpt lat="44.230109420851974" lon="11.417707022856387"><ele>675.0</ele><time>2026-04-25T09:53:50.001Z</time></trkpt><trkpt lat="44.23005283026764" lon="11.417566243501737"><ele>678.0</ele><time>2026-04-25T09:53:51.001Z</time></trkpt><trkpt lat="44.229991913899475" lon="11.417446091818668"><ele>681.0</ele><time>2026-04-25T09:53:52.001Z</time></trkpt><trkpt lat="44.22992319696506" lon="11.417363664673411"><ele>684.0</ele><time>2026-04-25T09:53:53.001Z</time></trkpt><trkpt lat="44.229828729176646" lon="11.417293238522513"><ele>685.5</ele><time>2026-04-25T09:53:54.001Z</time></trkpt><trkpt lat="44.22972654649235" lon="11.417201714019754"><ele>687.0</ele><time>2026-04-25T09:53:55.001Z</time></trkpt><trkpt lat="44.22963677753651" lon="11.417068767166235"><ele>688.5</ele><time>2026-04-25T09:53:56.001Z</time></trkpt><trkpt lat="44.22955540794551" lon="11.416928981282897"><ele>690.0</ele><time>2026-04-25T09:53:57.001Z</time></trkpt><trkpt lat="44.22948003320749" lon="11.416775506585461"><ele>690.0</ele><time>2026-04-25T09:53:58.001Z</time></trkpt><trkpt lat="44.22940786063624" lon="11.416679483623714"><ele>690.0</ele><time>2026-04-25T09:53:59.001Z</time></trkpt><trkpt lat="44.22932600406972" lon="11.416619122163807"><ele>690.0</ele><time>2026-04-25T09:54:00.001Z</time></trkpt><trkpt lat="44.22924408963743" lon="11.416586075152503"><ele>690.0</ele><time>2026-04-25T09:54:01.001Z</time></trkpt><trkpt lat="44.229181393054716" lon="11.416557916336775"><ele>690.0</ele><time>2026-04-25T09:54:02.001Z</time></trkpt><trkpt lat="44.229109001098976" lon="11.416475525759235"><ele>690.0</ele><time>2026-04-25T09:54:04.001Z</time></trkpt><trkpt lat="44.22914220928654" lon="11.416352646458478"><ele>690.0</ele><time>2026-04-25T09:54:06.001Z</time></trkpt><trkpt lat="44.229274133752" lon="11.416402184616624"><ele>690.0</ele><time>2026-04-25T09:54:08.001Z</time></trkpt><trkpt lat="44.22936355331587" lon="11.416437747531493"><ele>690.0</ele><time>2026-04-25T09:54:09.001Z</time></trkpt><trkpt lat="44.22948556761884" lon="11.416495788480574"><ele>690.0</ele><time>2026-04-25T09:54:10.001Z</time></trkpt><trkpt lat="44.229622965433606" lon="11.41655510242387"><ele>690.0</ele><time>2026-04-25T09:54:11.001Z</time></trkpt><trkpt lat="44.229762946245295" lon="11.416580082639307"><ele>690.0</ele><time>2026-04-25T09:54:12.001Z</time></trkpt><trkpt lat="44.22989387322122" lon="11.416613452411214"><ele>690.0</ele><time>2026-04-25T09:54:13.001Z</time></trkpt><trkpt lat="44.23001724742598" lon="11.416652635780016"><ele>690.0</ele><time>2026-04-25T09:54:14.001Z</time></trkpt><trkpt lat="44.230132117628635" lon="11.41668038204437"><ele>691.6666666666666</ele><time>2026-04-25T09:54:15.001Z</time></trkpt><trkpt lat="44.23022656160904" lon="11.416713320180452"><ele>693.3333333333334</ele><time>2026-04-25T09:54:16.001Z</time></trkpt><trkpt lat="44.2303069266851" lon="11.416753128453083"><ele>695.0</ele><time>2026-04-25T09:54:17.001Z</time></trkpt><trkpt lat="44.23036753230253" lon="11.416802938491667"><ele>696.6666666666667</ele><time>2026-04-25T09:54:18.001Z</time></trkpt><trkpt lat="44.23042948363469" lon="11.41687618202255"><ele>698.3333333333334</ele><time>2026-04-25T09:54:19.001Z</time></trkpt><trkpt lat="44.230516658990254" lon="11.416934069051775"><ele>700.0</ele><time>2026-04-25T09:54:20.001Z</time></trkpt><trkpt lat="44.23060373793436" lon="11.416998687090045"><ele>701.8333333333334</ele><time>2026-04-25T09:54:21.001Z</time></trkpt><trkpt lat="44.23069460109243" lon="11.417021049164484"><ele>703.6666666666667</ele><time>2026-04-25T09:54:22.001Z</time></trkpt><trkpt lat="44.23076557990504" lon="11.417072105118011"><ele>705.5</ele><time>2026-04-25T09:54:23.001Z</time></trkpt><trkpt lat="44.23085218502851" lon="11.417084738976358"><ele>707.3333333333334</ele><time>2026-04-25T09:54:24.001Z</time></trkpt><trkpt lat="44.23093725602686" lon="11.417111458233078"><ele>709.1666666666666</ele><time>2026-04-25T09:54:25.001Z</time></trkpt><trkpt lat="44.23102637894453" lon="11.417105307581643"><ele>711.0</ele><time>2026-04-25T09:54:26.001Z</time></trkpt><trkpt lat="44.23111180689765" lon="11.4170817741963"><ele>711.0</ele><time>2026-04-25T09:54:27.001Z</time></trkpt><trkpt lat="44.231186686315404" lon="11.41705883112949"><ele>711.0</ele><time>2026-04-25T09:54:28.001Z</time></trkpt><trkpt lat="44.23127176693968" lon="11.417072752134784"><ele>711.0</ele><time>2026-04-25T09:54:29.001Z</time></trkpt><trkpt lat="44.2313360083961" lon="11.417099770768804"><ele>711.0</ele><time>2026-04-25T09:54:30.001Z</time></trkpt><trkpt lat="44.231402290890784" lon="11.417127877148497"><ele>711.0</ele><time>2026-04-25T09:54:31.001Z</time></trkpt><trkpt lat="44.23146937588084" lon="11.41718420540277"><ele>711.0</ele><time>2026-04-25T09:54:32.001Z</time></trkpt><trkpt lat="44.231501944455616" lon="11.417270458944186"><ele>711.0</ele><time>2026-04-25T09:54:33.001Z</time></trkpt><trkpt lat="44.23151940036066" lon="11.417367787865928"><ele>711.6666666666666</ele><time>2026-04-25T09:54:34.001Z</time></trkpt><trkpt lat="44.23151762168254" lon="11.417472921429757"><ele>712.3333333333334</ele><time>2026-04-25T09:54:35.001Z</time></trkpt><trkpt lat="44.23153729637707" lon="11.417579214526327"><ele>713.0</ele><time>2026-04-25T09:54:36.001Z</time></trkpt><trkpt lat="44.23159379983816" lon="11.417678020125559"><ele>713.6666666666667</ele><time>2026-04-25T09:54:37.001Z</time></trkpt><trkpt lat="44.23165484981467" lon="11.417770951337243"><ele>714.3333333333334</ele><time>2026-04-25T09:54:38.001Z</time></trkpt><trkpt lat="44.23174250914098" lon="11.417862879624689"><ele>715.0</ele><time>2026-04-25T09:54:39.001Z</time></trkpt><trkpt lat="44.23183487127221" lon="11.417963197432735"><ele>712.75</ele><time>2026-04-25T09:54:40.001Z</time></trkpt><trkpt lat="44.23192392098227" lon="11.418054887087017"><ele>710.5</ele><time>2026-04-25T09:54:41.001Z</time></trkpt><trkpt lat="44.23202650426942" lon="11.418118681062444"><ele>708.25</ele><time>2026-04-25T09:54:42.001Z</time></trkpt><trkpt lat="44.23214125894888" lon="11.418177665599304"><ele>706.0</ele><time>2026-04-25T09:54:43.001Z</time></trkpt><trkpt lat="44.232224909301365" lon="11.418265098849007"><ele>706.0</ele><time>2026-04-25T09:54:44.001Z</time></trkpt><trkpt lat="44.232304294938544" lon="11.418337648234948"><ele>706.0</ele><time>2026-04-25T09:54:45.001Z</time></trkpt><trkpt lat="44.23240111249018" lon="11.418392263389986"><ele>706.0</ele><time>2026-04-25T09:54:46.001Z</time></trkpt><trkpt lat="44.232503327548876" lon="11.418443293368043"><ele>706.0</ele><time>2026-04-25T09:54:47.001Z</time></trkpt><trkpt lat="44.23261268059165" lon="11.418502187491217"><ele>706.0</ele><time>2026-04-25T09:54:48.001Z</time></trkpt><trkpt lat="44.232733462191334" lon="11.418552186386655"><ele>709.4</ele><time>2026-04-25T09:54:49.001Z</time></trkpt><trkpt lat="44.23284284676463" lon="11.418625064213524"><ele>712.8</ele><time>2026-04-25T09:54:50.001Z</time></trkpt><trkpt lat="44.232928577346165" lon="11.418675826736381"><ele>716.1999999999999</ele><time>2026-04-25T09:54:51.001Z</time></trkpt><trkpt lat="44.232995181031626" lon="11.418696939777993"><ele>719.5999999999999</ele><time>2026-04-25T09:54:52.001Z</time></trkpt><trkpt lat="44.233054726283044" lon="11.41873811504497"><ele>723.0</ele><time>2026-04-25T09:54:53.001Z</time></trkpt><trkpt lat="44.233158318389556" lon="11.418786678340267"><ele>723.4</ele><time>2026-04-25T09:54:55.001Z</time></trkpt><trkpt lat="44.23327183124828" lon="11.418839185066286"><ele>723.8</ele><time>2026-04-25T09:54:57.001Z</time></trkpt><trkpt lat="44.23337746763806" lon="11.418898529696062"><ele>724.2</ele><time>2026-04-25T09:54:59.001Z</time></trkpt><trkpt lat="44.23346402948558" lon="11.41897194499354"><ele>724.6</ele><time>2026-04-25T09:55:01.001Z</time></trkpt><trkpt lat="44.23354150218765" lon="11.419085200477268"><ele>725.0</ele><time>2026-04-25T09:55:03.001Z</time></trkpt><trkpt lat="44.23358393372788" lon="11.419161772476942"><ele>725.0</ele><time>2026-04-25T09:55:04.001Z</time></trkpt><trkpt lat="44.233633021833974" lon="11.419327510037471"><ele>725.0</ele><time>2026-04-25T09:55:06.001Z</time></trkpt><trkpt lat="44.23365226136794" lon="11.41941758985982"><ele>725.0</ele><time>2026-04-25T09:55:07.001Z</time></trkpt><trkpt lat="44.23367100565215" lon="11.419522933184844"><ele>725.0</ele><time>2026-04-25T09:55:08.001Z</time></trkpt><trkpt lat="44.2336695527484" lon="11.419644783187122"><ele>725.0</ele><time>2026-04-25T09:55:09.001Z</time></trkpt><trkpt lat="44.23365147894021" lon="11.419748397095708"><ele>725.0</ele><time>2026-04-25T09:55:10.001Z</time></trkpt><trkpt lat="44.233622365842386" lon="11.419875415407232"><ele>725.0</ele><time>2026-04-25T09:55:11.001Z</time></trkpt><trkpt lat="44.23358892885938" lon="11.419978092274636"><ele>725.0</ele><time>2026-04-25T09:55:12.001Z</time></trkpt><trkpt lat="44.23355510303493" lon="11.420069647995826"><ele>725.0</ele><time>2026-04-25T09:55:13.001Z</time></trkpt><trkpt lat="44.23351014210616" lon="11.420173705994083"><ele>725.0</ele><time>2026-04-25T09:55:14.001Z</time></trkpt><trkpt lat="44.233461225890245" lon="11.420266228980113"><ele>725.0</ele><time>2026-04-25T09:55:15.001Z</time></trkpt><trkpt lat="44.23343934028703" lon="11.420366875925692"><ele>725.0</ele><time>2026-04-25T09:55:16.002Z</time></trkpt><trkpt lat="44.233406903327435" lon="11.420462358022567"><ele>725.5</ele><time>2026-04-25T09:55:17.002Z</time></trkpt><trkpt lat="44.23342879908506" lon="11.420586351920523"><ele>726.0</ele><time>2026-04-25T09:55:18.002Z</time></trkpt><trkpt lat="44.23346369504713" lon="11.420701599777297"><ele>726.5</ele><time>2026-04-25T09:55:19.002Z</time></trkpt><trkpt lat="44.233485036809626" lon="11.420841801070313"><ele>727.0</ele><time>2026-04-25T09:55:20.002Z</time></trkpt><trkpt lat="44.23354227877579" lon="11.420926127315076"><ele>727.5</ele><time>2026-04-25T09:55:21.002Z</time></trkpt><trkpt lat="44.2335937494769" lon="11.420997331012932"><ele>728.0</ele><time>2026-04-25T09:55:22.002Z</time></trkpt><trkpt lat="44.233668079149794" lon="11.421060071903174"><ele>728.0</ele><time>2026-04-25T09:55:23.002Z</time></trkpt><trkpt lat="44.233739265282104" lon="11.421144891092066"><ele>728.0</ele><time>2026-04-25T09:55:24.002Z</time></trkpt><trkpt lat="44.233793067566374" lon="11.421214641736995"><ele>728.0</ele><time>2026-04-25T09:55:25.002Z</time></trkpt><trkpt lat="44.2338146127305" lon="11.421300522715093"><ele>728.0</ele><time>2026-04-25T09:55:26.002Z</time></trkpt><trkpt lat="44.233825745419715" lon="11.421419116033222"><ele>728.0</ele><time>2026-04-25T09:55:27.002Z</time></trkpt><trkpt lat="44.23383355608313" lon="11.421558132260852"><ele>728.0</ele><time>2026-04-25T09:55:28.002Z</time></trkpt><trkpt lat="44.23385778817033" lon="11.421708603366422"><ele>727.4</ele><time>2026-04-25T09:55:29.002Z</time></trkpt><trkpt lat="44.23391728312931" lon="11.421851286586"><ele>726.8</ele><time>2026-04-25T09:55:30.002Z</time></trkpt><trkpt lat="44.23394640916425" lon="11.421980942008792"><ele>726.2</ele><time>2026-04-25T09:55:31.002Z</time></trkpt><trkpt lat="44.23395797993262" lon="11.422100523801735"><ele>725.6</ele><time>2026-04-25T09:55:32.002Z</time></trkpt><trkpt lat="44.23394759147016" lon="11.422222603796726"><ele>725.0</ele><time>2026-04-25T09:55:33.002Z</time></trkpt><trkpt lat="44.233940437677354" lon="11.422348712719362"><ele>724.6666666666666</ele><time>2026-04-25T09:55:34.002Z</time></trkpt><trkpt lat="44.233959293837856" lon="11.422456721111603"><ele>724.3333333333333</ele><time>2026-04-25T09:55:35.002Z</time></trkpt><trkpt lat="44.23398665542901" lon="11.422545814562532"><ele>724.0</ele><time>2026-04-25T09:55:36.002Z</time></trkpt><trkpt lat="44.23404176842247" lon="11.422602123225834"><ele>723.6666666666666</ele><time>2026-04-25T09:55:37.002Z</time></trkpt><trkpt lat="44.23411460664462" lon="11.42260830967074"><ele>723.3333333333334</ele><time>2026-04-25T09:55:38.002Z</time></trkpt><trkpt lat="44.23418943256148" lon="11.422553997741455"><ele>723.0</ele><time>2026-04-25T09:55:39.002Z</time></trkpt><trkpt lat="44.23425854527471" lon="11.422473163323971"><ele>726.0</ele><time>2026-04-25T09:55:40.002Z</time></trkpt><trkpt lat="44.23431678723454" lon="11.422378773719558"><ele>729.0</ele><time>2026-04-25T09:55:41.002Z</time></trkpt><trkpt lat="44.23438997070237" lon="11.422273155881355"><ele>732.0</ele><time>2026-04-25T09:55:42.001Z</time></trkpt><trkpt lat="44.23447880730274" lon="11.422165800435465"><ele>735.0</ele><time>2026-04-25T09:55:43.001Z</time></trkpt><trkpt lat="44.234589804111984" lon="11.422098815177964"><ele>738.0</ele><time>2026-04-25T09:55:44.001Z</time></trkpt><trkpt lat="44.23468377250666" lon="11.42200225965342"><ele>739.4</ele><time>2026-04-25T09:55:45.001Z</time></trkpt><trkpt lat="44.234789738678096" lon="11.421932591013514"><ele>740.8</ele><time>2026-04-25T09:55:46.001Z</time></trkpt><trkpt lat="44.234865007819295" lon="11.42182271791858"><ele>742.2</ele><time>2026-04-25T09:55:47.001Z</time></trkpt><trkpt lat="44.234952706645494" lon="11.421751033234996"><ele>743.6</ele><time>2026-04-25T09:55:48.001Z</time></trkpt><trkpt lat="44.235036611313745" lon="11.421705266875048"><ele>745.0</ele><time>2026-04-25T09:55:49.001Z</time></trkpt><trkpt lat="44.23513297258697" lon="11.421638980867185"><ele>745.8</ele><time>2026-04-25T09:55:50.001Z</time></trkpt><trkpt lat="44.235215208737" lon="11.421548952839021"><ele>746.6</ele><time>2026-04-25T09:55:51.001Z</time></trkpt><trkpt lat="44.235287972257304" lon="11.421488315431946"><ele>747.4000000000001</ele><time>2026-04-25T09:55:52.001Z</time></trkpt><trkpt lat="44.23536674258526" lon="11.42139838577141"><ele>748.2</ele><time>2026-04-25T09:55:53.001Z</time></trkpt><trkpt lat="44.235441066774584" lon="11.421328555104992"><ele>749.0</ele><time>2026-04-25T09:55:54.001Z</time></trkpt><trkpt lat="44.23553650046228" lon="11.421263717310838"><ele>749.8000000000001</ele><time>2026-04-25T09:55:55.001Z</time></trkpt><trkpt lat="44.23564519232838" lon="11.42120793243397"><ele>750.6</ele><time>2026-04-25T09:55:56.001Z</time></trkpt><trkpt lat="44.23573350351844" lon="11.421179414482884"><ele>751.4</ele><time>2026-04-25T09:55:57Z</time></trkpt><trkpt lat="44.235817201324345" lon="11.421174903372883"><ele>752.2</ele><time>2026-04-25T09:55:58Z</time></trkpt><trkpt lat="44.235900971917474" lon="11.42119693474129"><ele>753.0</ele><time>2026-04-25T09:55:59Z</time></trkpt><trkpt lat="44.23597980195677" lon="11.421223737439053"><ele>753.0</ele><time>2026-04-25T09:56:00Z</time></trkpt><trkpt lat="44.23605775017921" lon="11.421242579319328"><ele>753.0</ele><time>2026-04-25T09:56:01.001Z</time></trkpt><trkpt lat="44.23613522117176" lon="11.421251255113575"><ele>753.0</ele><time>2026-04-25T09:56:02.001Z</time></trkpt><trkpt lat="44.23621895491485" lon="11.42124299996802"><ele>753.0</ele><time>2026-04-25T09:56:03.001Z</time></trkpt><trkpt lat="44.23630537821506" lon="11.421227123283929"><ele>753.0</ele><time>2026-04-25T09:56:04.001Z</time></trkpt><trkpt lat="44.23639064562282" lon="11.421166987488323"><ele>753.0</ele><time>2026-04-25T09:56:05.001Z</time></trkpt><trkpt lat="44.2364805357945" lon="11.421115536735538"><ele>751.4</ele><time>2026-04-25T09:56:06.001Z</time></trkpt><trkpt lat="44.23656270085763" lon="11.421057350477788"><ele>749.8</ele><time>2026-04-25T09:56:07.001Z</time></trkpt><trkpt lat="44.23665504822521" lon="11.420999962067462"><ele>748.2</ele><time>2026-04-25T09:56:08.001Z</time></trkpt><trkpt lat="44.236755303446245" lon="11.420959758010955"><ele>746.6</ele><time>2026-04-25T09:56:09.001Z</time></trkpt><trkpt lat="44.23682588721293" lon="11.420922208032735"><ele>745.0</ele><time>2026-04-25T09:56:10.001Z</time></trkpt><trkpt lat="44.236909290645755" lon="11.420880792610626"><ele>745.0</ele><time>2026-04-25T09:56:11.001Z</time></trkpt><trkpt lat="44.236985705181525" lon="11.420859549303085"><ele>745.0</ele><time>2026-04-25T09:56:12.001Z</time></trkpt><trkpt lat="44.23705333288015" lon="11.420855228059752"><ele>745.0</ele><time>2026-04-25T09:56:13.001Z</time></trkpt><trkpt lat="44.23717603824285" lon="11.420893343866824"><ele>745.0</ele><time>2026-04-25T09:56:15.001Z</time></trkpt><trkpt lat="44.2372288484861" lon="11.420948076159126"><ele>745.0</ele><time>2026-04-25T09:56:16.001Z</time></trkpt><trkpt lat="44.23729056747119" lon="11.420990658972267"><ele>745.0</ele><time>2026-04-25T09:56:17.001Z</time></trkpt><trkpt lat="44.23736154140438" lon="11.421070181630418"><ele>743.5</ele><time>2026-04-25T09:56:18.001Z</time></trkpt><trkpt lat="44.23742685049804" lon="11.421144648075776"><ele>742.0</ele><time>2026-04-25T09:56:19.001Z</time></trkpt><trkpt lat="44.237485565963354" lon="11.421227626470174"><ele>740.5</ele><time>2026-04-25T09:56:20.001Z</time></trkpt><trkpt lat="44.23754871052121" lon="11.421282628855579"><ele>739.0</ele><time>2026-04-25T09:56:21.001Z</time></trkpt><trkpt lat="44.237606639229725" lon="11.421355834232989"><ele>737.5</ele><time>2026-04-25T09:56:22.001Z</time></trkpt><trkpt lat="44.23767213300646" lon="11.421401292317805"><ele>736.0</ele><time>2026-04-25T09:56:23.001Z</time></trkpt><trkpt lat="44.23775968878652" lon="11.42143689142174"><ele>735.1999999999999</ele><time>2026-04-25T09:56:24.001Z</time></trkpt><trkpt lat="44.23785240684518" lon="11.421454852927603"><ele>734.4</ele><time>2026-04-25T09:56:25.001Z</time></trkpt><trkpt lat="44.23794618260803" lon="11.421455448467613"><ele>733.6</ele><time>2026-04-25T09:56:26.001Z</time></trkpt><trkpt lat="44.23805278238487" lon="11.421432398563002"><ele>732.8</ele><time>2026-04-25T09:56:27.001Z</time></trkpt><trkpt lat="44.238161566196574" lon="11.42139282083276"><ele>732.0</ele><time>2026-04-25T09:56:28.001Z</time></trkpt><trkpt lat="44.238266504060974" lon="11.421400518691605"><ele>731.8</ele><time>2026-04-25T09:56:29.001Z</time></trkpt><trkpt lat="44.23836714226514" lon="11.421418168036219"><ele>731.6</ele><time>2026-04-25T09:56:30.001Z</time></trkpt><trkpt lat="44.23847285187847" lon="11.421421664582759"><ele>731.4</ele><time>2026-04-25T09:56:31.001Z</time></trkpt><trkpt lat="44.238575278710165" lon="11.421428858751854"><ele>731.1999999999999</ele><time>2026-04-25T09:56:32.001Z</time></trkpt><trkpt lat="44.23867855632689" lon="11.421397951080591"><ele>731.0</ele><time>2026-04-25T09:56:33.001Z</time></trkpt><trkpt lat="44.238777948768785" lon="11.421365993738227"><ele>731.0</ele><time>2026-04-25T09:56:34.001Z</time></trkpt><trkpt lat="44.23887909335028" lon="11.421377303243556"><ele>731.0</ele><time>2026-04-25T09:56:35.001Z</time></trkpt><trkpt lat="44.2389823787978" lon="11.421360253835715"><ele>731.0</ele><time>2026-04-25T09:56:36.001Z</time></trkpt><trkpt lat="44.23910607190891" lon="11.42139357272217"><ele>731.0</ele><time>2026-04-25T09:56:37.001Z</time></trkpt><trkpt lat="44.23922685284511" lon="11.421433194973913"><ele>730.8</ele><time>2026-04-25T09:56:38.001Z</time></trkpt><trkpt lat="44.239328343660915" lon="11.421468600806428"><ele>730.5999999999999</ele><time>2026-04-25T09:56:39.001Z</time></trkpt><trkpt lat="44.23941179123641" lon="11.421518708883562"><ele>730.4</ele><time>2026-04-25T09:56:40.001Z</time></trkpt><trkpt lat="44.23950550056421" lon="11.421589123934424"><ele>730.2</ele><time>2026-04-25T09:56:41.001Z</time></trkpt><trkpt lat="44.23959826852485" lon="11.421663491247322"><ele>730.0</ele><time>2026-04-25T09:56:42.001Z</time></trkpt><trkpt lat="44.23968743084095" lon="11.421734968966282"><ele>730.0</ele><time>2026-04-25T09:56:43.001Z</time></trkpt><trkpt lat="44.23975551404444" lon="11.421822401422016"><ele>730.0</ele><time>2026-04-25T09:56:44.001Z</time></trkpt><trkpt lat="44.23980510789431" lon="11.421908110963555"><ele>730.0</ele><time>2026-04-25T09:56:45.001Z</time></trkpt><trkpt lat="44.239862544553915" lon="11.42200589622807"><ele>730.0</ele><time>2026-04-25T09:56:46.001Z</time></trkpt><trkpt lat="44.23992977902125" lon="11.422120831922253"><ele>730.0</ele><time>2026-04-25T09:56:47.001Z</time></trkpt><trkpt lat="44.23999032456436" lon="11.42223512747804"><ele>730.6</ele><time>2026-04-25T09:56:48.001Z</time></trkpt><trkpt lat="44.24004013124557" lon="11.422341115238627"><ele>731.2</ele><time>2026-04-25T09:56:49.001Z</time></trkpt><trkpt lat="44.24008550920805" lon="11.422443223617092"><ele>731.8</ele><time>2026-04-25T09:56:50.001Z</time></trkpt><trkpt lat="44.24013103486684" lon="11.422552361268709"><ele>732.4</ele><time>2026-04-25T09:56:51.001Z</time></trkpt><trkpt lat="44.24017526739817" lon="11.422666279080602"><ele>733.0</ele><time>2026-04-25T09:56:52.001Z</time></trkpt><trkpt lat="44.24023125373228" lon="11.42278406746381"><ele>733.0</ele><time>2026-04-25T09:56:53.001Z</time></trkpt><trkpt lat="44.24027358625472" lon="11.422894957611431"><ele>733.0</ele><time>2026-04-25T09:56:54.001Z</time></trkpt><trkpt lat="44.24033574088441" lon="11.423018704707225"><ele>733.0</ele><time>2026-04-25T09:56:55.001Z</time></trkpt><trkpt lat="44.24041527859963" lon="11.423153585626865"><ele>733.0</ele><time>2026-04-25T09:56:56.001Z</time></trkpt><trkpt lat="44.24049542345467" lon="11.423271972527413"><ele>733.0</ele><time>2026-04-25T09:56:57.001Z</time></trkpt><trkpt lat="44.2405938947431" lon="11.423376879049243"><ele>732.5</ele><time>2026-04-25T09:56:58.001Z</time></trkpt><trkpt lat="44.240695145547406" lon="11.423472685709763"><ele>732.0</ele><time>2026-04-25T09:56:59.001Z</time></trkpt><trkpt lat="44.24079939981632" lon="11.423564286947293"><ele>731.5</ele><time>2026-04-25T09:57:00.001Z</time></trkpt><trkpt lat="44.240911935168704" lon="11.4236452786272"><ele>731.0</ele><time>2026-04-25T09:57:01.001Z</time></trkpt><trkpt lat="44.24102705218607" lon="11.423734970619405"><ele>731.5</ele><time>2026-04-25T09:57:02.001Z</time></trkpt><trkpt lat="44.2411412316183" lon="11.423832107610373"><ele>732.0</ele><time>2026-04-25T09:57:03.001Z</time></trkpt><trkpt lat="44.24126984341912" lon="11.423930604847142"><ele>732.5</ele><time>2026-04-25T09:57:04.001Z</time></trkpt><trkpt lat="44.24139460996552" lon="11.42402615629038"><ele>733.0</ele><time>2026-04-25T09:57:05.001Z</time></trkpt><trkpt lat="44.241512352197674" lon="11.424100072654854"><ele>733.0</ele><time>2026-04-25T09:57:06.001Z</time></trkpt><trkpt lat="44.241607779937326" lon="11.424178598856868"><ele>733.0</ele><time>2026-04-25T09:57:07.001Z</time></trkpt><trkpt lat="44.24169604685751" lon="11.424241889554004"><ele>733.0</ele><time>2026-04-25T09:57:08.001Z</time></trkpt><trkpt lat="44.241772936511275" lon="11.424305391306671"><ele>733.0</ele><time>2026-04-25T09:57:09.001Z</time></trkpt><trkpt lat="44.2418372552337" lon="11.424342623188897"><ele>733.0</ele><time>2026-04-25T09:57:10.001Z</time></trkpt><trkpt lat="44.24190380595073" lon="11.424397267759508"><ele>733.0</ele><time>2026-04-25T09:57:11.001Z</time></trkpt><trkpt lat="44.24198645724583" lon="11.424471416865348"><ele>733.0</ele><time>2026-04-25T09:57:12.001Z</time></trkpt><trkpt lat="44.24207169435946" lon="11.424537643896244"><ele>733.0</ele><time>2026-04-25T09:57:13.001Z</time></trkpt><trkpt lat="44.24214921621707" lon="11.424614042250752"><ele>733.0</ele><time>2026-04-25T09:57:14.001Z</time></trkpt><trkpt lat="44.24222586522396" lon="11.424709082074797"><ele>733.0</ele><time>2026-04-25T09:57:15.001Z</time></trkpt><trkpt lat="44.242297761617124" lon="11.424826643437726"><ele>733.0</ele><time>2026-04-25T09:57:16.001Z</time></trkpt><trkpt lat="44.24235099111738" lon="11.42496709573664"><ele>733.0</ele><time>2026-04-25T09:57:17.001Z</time></trkpt><trkpt lat="44.24242146840332" lon="11.425095750619034"><ele>733.0</ele><time>2026-04-25T09:57:18.001Z</time></trkpt><trkpt lat="44.242501741809534" lon="11.425206943280307"><ele>733.0</ele><time>2026-04-25T09:57:19.001Z</time></trkpt><trkpt lat="44.24257942061869" lon="11.425307198342907"><ele>733.0</ele><time>2026-04-25T09:57:20.001Z</time></trkpt><trkpt lat="44.24267617896608" lon="11.425381802887383"><ele>733.0</ele><time>2026-04-25T09:57:21.001Z</time></trkpt><trkpt lat="44.24279000347961" lon="11.425436729425615"><ele>733.25</ele><time>2026-04-25T09:57:22.001Z</time></trkpt><trkpt lat="44.242907791032835" lon="11.425481159145729"><ele>733.5</ele><time>2026-04-25T09:57:23.001Z</time></trkpt><trkpt lat="44.24302502006246" lon="11.425520556532708"><ele>733.75</ele><time>2026-04-25T09:57:24.001Z</time></trkpt><trkpt lat="44.24314534526794" lon="11.42554974747026"><ele>734.0</ele><time>2026-04-25T09:57:25.001Z</time></trkpt><trkpt lat="44.24326402457337" lon="11.425586298123436"><ele>734.0</ele><time>2026-04-25T09:57:26.001Z</time></trkpt><trkpt lat="44.24338235907346" lon="11.425627985404658"><ele>734.0</ele><time>2026-04-25T09:57:27.001Z</time></trkpt><trkpt lat="44.24350495228652" lon="11.42565481328754"><ele>734.0</ele><time>2026-04-25T09:57:28.001Z</time></trkpt><trkpt lat="44.243625671963535" lon="11.425690691421684"><ele>734.0</ele><time>2026-04-25T09:57:29.001Z</time></trkpt><trkpt lat="44.24373954533874" lon="11.42572529329088"><ele>734.0</ele><time>2026-04-25T09:57:30.001Z</time></trkpt><trkpt lat="44.24385788394738" lon="11.425750829857163"><ele>734.0</ele><time>2026-04-25T09:57:31.001Z</time></trkpt><trkpt lat="44.24397241195821" lon="11.425805113778107"><ele>734.0</ele><time>2026-04-25T09:57:32.001Z</time></trkpt><trkpt lat="44.24408312695648" lon="11.42585717298592"><ele>734.0</ele><time>2026-04-25T09:57:33.001Z</time></trkpt><trkpt lat="44.244186005868976" lon="11.42589262374152"><ele>734.75</ele><time>2026-04-25T09:57:34.002Z</time></trkpt><trkpt lat="44.244299690703556" lon="11.425938214599531"><ele>735.5</ele><time>2026-04-25T09:57:35.002Z</time></trkpt><trkpt lat="44.24441758590039" lon="11.425981786899637"><ele>736.25</ele><time>2026-04-25T09:57:36.002Z</time></trkpt><trkpt lat="44.2445322028621" lon="11.426034679209886"><ele>737.0</ele><time>2026-04-25T09:57:37.002Z</time></trkpt><trkpt lat="44.24465223125276" lon="11.426051930080703"><ele>737.0</ele><time>2026-04-25T09:57:38.002Z</time></trkpt><trkpt lat="44.24476861044334" lon="11.426074667310681"><ele>737.0</ele><time>2026-04-25T09:57:39.002Z</time></trkpt><trkpt lat="44.244881316000814" lon="11.426085190480848"><ele>737.0</ele><time>2026-04-25T09:57:40.002Z</time></trkpt><trkpt lat="44.24498224927574" lon="11.42607574705355"><ele>737.0</ele><time>2026-04-25T09:57:41.002Z</time></trkpt><trkpt lat="44.24509490206098" lon="11.426082223182032"><ele>737.0</ele><time>2026-04-25T09:57:42.002Z</time></trkpt><trkpt lat="44.24519575834081" lon="11.426083205186329"><ele>737.5</ele><time>2026-04-25T09:57:43.002Z</time></trkpt><trkpt lat="44.24530470388625" lon="11.426105701497402"><ele>738.0</ele><time>2026-04-25T09:57:44.002Z</time></trkpt><trkpt lat="44.2454123176251" lon="11.426106998158843"><ele>738.5</ele><time>2026-04-25T09:57:45.002Z</time></trkpt><trkpt lat="44.24553427222024" lon="11.426092715521573"><ele>739.0</ele><time>2026-04-25T09:57:46.002Z</time></trkpt><trkpt lat="44.24566286374656" lon="11.426079192321142"><ele>739.0</ele><time>2026-04-25T09:57:47.002Z</time></trkpt><trkpt lat="44.24578710518707" lon="11.426076808282211"><ele>739.0</ele><time>2026-04-25T09:57:48Z</time></trkpt><trkpt lat="44.24590597623267" lon="11.426080718975669"><ele>739.0</ele><time>2026-04-25T09:57:49Z</time></trkpt><trkpt lat="44.24600712787506" lon="11.42610053346514"><ele>739.0</ele><time>2026-04-25T09:57:50Z</time></trkpt><trkpt lat="44.24610693602862" lon="11.426119507274569"><ele>739.0</ele><time>2026-04-25T09:57:51Z</time></trkpt><trkpt lat="44.24620345175569" lon="11.42613447881235"><ele>739.0</ele><time>2026-04-25T09:57:52Z</time></trkpt><trkpt lat="44.2463075599838" lon="11.42613645589301"><ele>739.0</ele><time>2026-04-25T09:57:53Z</time></trkpt><trkpt lat="44.24642209366243" lon="11.42617934593219"><ele>739.0</ele><time>2026-04-25T09:57:54Z</time></trkpt><trkpt lat="44.24653421787524" lon="11.426184264543654"><ele>739.0</ele><time>2026-04-25T09:57:55Z</time></trkpt><trkpt lat="44.24664763835228" lon="11.426216796414828"><ele>738.4000000000001</ele><time>2026-04-25T09:57:56Z</time></trkpt><trkpt lat="44.24674277066059" lon="11.426259675417151"><ele>737.8</ele><time>2026-04-25T09:57:57Z</time></trkpt><trkpt lat="44.24685135652942" lon="11.426316369783075"><ele>737.2</ele><time>2026-04-25T09:57:58Z</time></trkpt><trkpt lat="44.2469494580008" lon="11.426364273085957"><ele>736.5999999999999</ele><time>2026-04-25T09:57:59Z</time></trkpt><trkpt lat="44.24705944377372" lon="11.426422787493406"><ele>736.0</ele><time>2026-04-25T09:58:00Z</time></trkpt><trkpt lat="44.247155131802295" lon="11.426485748858022"><ele>736.0</ele><time>2026-04-25T09:58:01Z</time></trkpt><trkpt lat="44.24725063290193" lon="11.42655623985166"><ele>736.0</ele><time>2026-04-25T09:58:02Z</time></trkpt><trkpt lat="44.24735370842394" lon="11.42659757282205"><ele>736.0</ele><time>2026-04-25T09:58:03Z</time></trkpt><trkpt lat="44.247467034060485" lon="11.426622402272457"><ele>736.0</ele><time>2026-04-25T09:58:04Z</time></trkpt><trkpt lat="44.247586199806705" lon="11.426639339218083"><ele>735.8</ele><time>2026-04-25T09:58:05Z</time></trkpt><trkpt lat="44.24769226306877" lon="11.42667328456854"><ele>735.5999999999999</ele><time>2026-04-25T09:58:06Z</time></trkpt><trkpt lat="44.24778695918773" lon="11.426726676133914"><ele>735.4</ele><time>2026-04-25T09:58:07Z</time></trkpt><trkpt lat="44.247865061195995" lon="11.426805095149778"><ele>735.2</ele><time>2026-04-25T09:58:08Z</time></trkpt><trkpt lat="44.247902553546155" lon="11.42690620853892"><ele>735.0</ele><time>2026-04-25T09:58:09Z</time></trkpt><trkpt lat="44.24794245729511" lon="11.427000440223793"><ele>735.0</ele><time>2026-04-25T09:58:10Z</time></trkpt><trkpt lat="44.247971992154795" lon="11.427097184819043"><ele>735.0</ele><time>2026-04-25T09:58:11Z</time></trkpt><trkpt lat="44.24799707721522" lon="11.42718549454041"><ele>735.0</ele><time>2026-04-25T09:58:12Z</time></trkpt><trkpt lat="44.24802522414998" lon="11.427287063523472"><ele>735.0</ele><time>2026-04-25T09:58:13Z</time></trkpt><trkpt lat="44.24806449578804" lon="11.427404572829236"><ele>735.0</ele><time>2026-04-25T09:58:14Z</time></trkpt><trkpt lat="44.24810431688756" lon="11.427538051402786"><ele>735.0</ele><time>2026-04-25T09:58:15Z</time></trkpt><trkpt lat="44.24816255824231" lon="11.427666279595046"><ele>734.5</ele><time>2026-04-25T09:58:16Z</time></trkpt><trkpt lat="44.2482309153772" lon="11.42778760747993"><ele>734.0</ele><time>2026-04-25T09:58:17Z</time></trkpt><trkpt lat="44.24830618082574" lon="11.427889071125454"><ele>733.5</ele><time>2026-04-25T09:58:18Z</time></trkpt><trkpt lat="44.24840759035692" lon="11.427953760631041"><ele>733.0</ele><time>2026-04-25T09:58:19Z</time></trkpt><trkpt lat="44.24853133191908" lon="11.42796496012192"><ele>733.0</ele><time>2026-04-25T09:58:20Z</time></trkpt><trkpt lat="44.24865692414457" lon="11.427966702968044"><ele>733.0</ele><time>2026-04-25T09:58:21Z</time></trkpt><trkpt lat="44.24877952917231" lon="11.427942896972386"><ele>733.0</ele><time>2026-04-25T09:58:22Z</time></trkpt><trkpt lat="44.24889835351191" lon="11.427912409770945"><ele>733.0</ele><time>2026-04-25T09:58:23Z</time></trkpt><trkpt lat="44.24901223374202" lon="11.427888498534653"><ele>734.5999999999999</ele><time>2026-04-25T09:58:24Z</time></trkpt><trkpt lat="44.249126831097904" lon="11.427825348367904"><ele>736.1999999999999</ele><time>2026-04-25T09:58:25Z</time></trkpt><trkpt lat="44.24924200729357" lon="11.42782578092722"><ele>737.8</ele><time>2026-04-25T09:58:26Z</time></trkpt><trkpt lat="44.24935133012171" lon="11.427824829052545"><ele>739.4</ele><time>2026-04-25T09:58:27Z</time></trkpt><trkpt lat="44.24945237933636" lon="11.427813586803763"><ele>741.0</ele><time>2026-04-25T09:58:28Z</time></trkpt><trkpt lat="44.24953603727883" lon="11.427799440587838"><ele>741.0</ele><time>2026-04-25T09:58:29Z</time></trkpt><trkpt lat="44.24961404402315" lon="11.427789410734933"><ele>741.0</ele><time>2026-04-25T09:58:31Z</time></trkpt><trkpt lat="44.24968158238639" lon="11.427807843501117"><ele>741.0</ele><time>2026-04-25T10:12:35.999Z</time></trkpt><trkpt lat="44.249651021316296" lon="11.427724742641821"><ele>741.0</ele><time>2026-04-25T10:12:43Z</time></trkpt><trkpt lat="44.24958800873181" lon="11.427747343196806"><ele>741.0</ele><time>2026-04-25T10:12:45Z</time></trkpt><trkpt lat="44.24951845518485" lon="11.427763861570678"><ele>741.0</ele><time>2026-04-25T10:12:47Z</time></trkpt><trkpt lat="44.24945475379239" lon="11.42777439558598"><ele>741.0</ele><time>2026-04-25T10:12:49Z</time></trkpt><trkpt lat="44.249380572973756" lon="11.427783386665148"><ele>741.0</ele><time>2026-04-25T10:12:51Z</time></trkpt><trkpt lat="44.24929891352404" lon="11.427795094257316"><ele>741.0</ele><time>2026-04-25T10:12:53Z</time></trkpt><trkpt lat="44.24920164198177" lon="11.427808214547374"><ele>741.0</ele><time>2026-04-25T10:12:55Z</time></trkpt><trkpt lat="44.249100254518744" lon="11.427807290902617"><ele>741.0</ele><time>2026-04-25T10:12:57Z</time></trkpt><trkpt lat="44.24897689549872" lon="11.427831046103973"><ele>741.0</ele><time>2026-04-25T10:12:59Z</time></trkpt><trkpt lat="44.24891525381616" lon="11.427856778257581"><ele>739.4</ele><time>2026-04-25T10:13:00Z</time></trkpt><trkpt lat="44.248808131913925" lon="11.427902574600928"><ele>737.8</ele><time>2026-04-25T10:13:02Z</time></trkpt><trkpt lat="44.24869506044381" lon="11.427926547376398"><ele>736.1999999999999</ele><time>2026-04-25T10:13:04Z</time></trkpt><trkpt lat="44.248580644233066" lon="11.427934327952563"><ele>734.5999999999999</ele><time>2026-04-25T10:13:06Z</time></trkpt><trkpt lat="44.248479082092096" lon="11.427914909299643"><ele>733.0</ele><time>2026-04-25T10:13:08Z</time></trkpt><trkpt lat="44.24835945964003" lon="11.427868442086675"><ele>733.0</ele><time>2026-04-25T10:13:10Z</time></trkpt><trkpt lat="44.24825250222578" lon="11.427775616492145"><ele>733.0</ele><time>2026-04-25T10:13:12Z</time></trkpt><trkpt lat="44.24816952240747" lon="11.42764305571129"><ele>733.0</ele><time>2026-04-25T10:13:14Z</time></trkpt><trkpt lat="44.24813594902388" lon="11.427560473632722"><ele>733.0</ele><time>2026-04-25T10:13:15Z</time></trkpt><trkpt lat="44.24810774042926" lon="11.42747235099438"><ele>733.0</ele><time>2026-04-25T10:13:16Z</time></trkpt><trkpt lat="44.2480735862968" lon="11.42736212312176"><ele>733.3333333333334</ele><time>2026-04-25T10:13:17Z</time></trkpt><trkpt lat="44.24804299358078" lon="11.427259578131155"><ele>733.6666666666667</ele><time>2026-04-25T10:13:18Z</time></trkpt><trkpt lat="44.24802021181258" lon="11.4271524111605"><ele>734.0</ele><time>2026-04-25T10:13:19Z</time></trkpt><trkpt lat="44.24799987834221" lon="11.427051909789622"><ele>734.3333333333334</ele><time>2026-04-25T10:13:20Z</time></trkpt><trkpt lat="44.24797175002823" lon="11.42695619414925"><ele>734.6666666666666</ele><time>2026-04-25T10:13:21Z</time></trkpt><trkpt lat="44.24794040235811" lon="11.426872185886879"><ele>735.0</ele><time>2026-04-25T10:13:22Z</time></trkpt><trkpt lat="44.247890823841765" lon="11.42679356450211"><ele>735.0</ele><time>2026-04-25T10:13:23Z</time></trkpt><trkpt lat="44.24782995548164" lon="11.426729315929162"><ele>735.0</ele><time>2026-04-25T10:13:24Z</time></trkpt><trkpt lat="44.247764505801605" lon="11.426681391595306"><ele>735.0</ele><time>2026-04-25T10:13:25Z</time></trkpt><trkpt lat="44.247705604116426" lon="11.426639471387388"><ele>735.0</ele><time>2026-04-25T10:13:26Z</time></trkpt><trkpt lat="44.2476440666029" lon="11.426613718799263"><ele>735.0</ele><time>2026-04-25T10:13:27Z</time></trkpt><trkpt lat="44.24757392233464" lon="11.426601504284758"><ele>735.0</ele><time>2026-04-25T10:13:28Z</time></trkpt><trkpt lat="44.247505250297465" lon="11.426588081868756"><ele>735.0</ele><time>2026-04-25T10:13:29Z</time></trkpt><trkpt lat="44.24744199588883" lon="11.426574356035994"><ele>735.0</ele><time>2026-04-25T10:13:30Z</time></trkpt><trkpt lat="44.247377633759065" lon="11.426559109157436"><ele>735.0</ele><time>2026-04-25T10:13:31Z</time></trkpt><trkpt lat="44.24731359332077" lon="11.426535250170863"><ele>735.0</ele><time>2026-04-25T10:13:32Z</time></trkpt><trkpt lat="44.247249518471484" lon="11.426509857912794"><ele>735.0</ele><time>2026-04-25T10:13:33Z</time></trkpt><trkpt lat="44.24718891354648" lon="11.426473636156103"><ele>735.0</ele><time>2026-04-25T10:13:34Z</time></trkpt><trkpt lat="44.247125780961106" lon="11.426435890856233"><ele>735.0</ele><time>2026-04-25T10:13:35Z</time></trkpt><trkpt lat="44.24706997489631" lon="11.426392935404257"><ele>735.0</ele><time>2026-04-25T10:13:36Z</time></trkpt><trkpt lat="44.24700911759365" lon="11.426356210745059"><ele>735.1666666666666</ele><time>2026-04-25T10:13:37Z</time></trkpt><trkpt lat="44.246944001797836" lon="11.426327378733369"><ele>735.3333333333334</ele><time>2026-04-25T10:13:38.001Z</time></trkpt><trkpt lat="44.24683758810211" lon="11.42626286905997"><ele>735.5</ele><time>2026-04-25T10:13:40.001Z</time></trkpt><trkpt lat="44.24677488133857" lon="11.42623706103418"><ele>735.6666666666667</ele><time>2026-04-25T10:13:41.001Z</time></trkpt><trkpt lat="44.246706574455494" lon="11.42621362860051"><ele>735.8333333333334</ele><time>2026-04-25T10:13:42.001Z</time></trkpt><trkpt lat="44.246639461905865" lon="11.42618655936652"><ele>736.0</ele><time>2026-04-25T10:13:43.001Z</time></trkpt><trkpt lat="44.2465714108837" lon="11.426157844927511"><ele>736.0</ele><time>2026-04-25T10:13:44.001Z</time></trkpt><trkpt lat="44.24650003944297" lon="11.426129349306208"><ele>736.0</ele><time>2026-04-25T10:13:45.001Z</time></trkpt><trkpt lat="44.24642862130106" lon="11.42610623378545"><ele>736.0</ele><time>2026-04-25T10:13:46.001Z</time></trkpt><trkpt lat="44.24635900744801" lon="11.426089552522471"><ele>736.0</ele><time>2026-04-25T10:13:47.001Z</time></trkpt><trkpt lat="44.24628828438018" lon="11.426076189205858"><ele>736.0</ele><time>2026-04-25T10:13:48.001Z</time></trkpt><trkpt lat="44.24621519913877" lon="11.426067615166277"><ele>736.0</ele><time>2026-04-25T10:13:49.001Z</time></trkpt><trkpt lat="44.246135724672776" lon="11.42606189003139"><ele>736.0</ele><time>2026-04-25T10:13:50.001Z</time></trkpt><trkpt lat="44.24605309997245" lon="11.426053807122333"><ele>736.5999999999999</ele><time>2026-04-25T10:13:51.001Z</time></trkpt><trkpt lat="44.245966140400746" lon="11.426049567673001"><ele>737.2</ele><time>2026-04-25T10:13:52.001Z</time></trkpt><trkpt lat="44.245874542621785" lon="11.426036203140972"><ele>737.8</ele><time>2026-04-25T10:13:53.001Z</time></trkpt><trkpt lat="44.24577108602645" lon="11.42602783240463"><ele>738.4000000000001</ele><time>2026-04-25T10:13:54.001Z</time></trkpt><trkpt lat="44.24567033458764" lon="11.426021392141363"><ele>739.0</ele><time>2026-04-25T10:13:55.001Z</time></trkpt><trkpt lat="44.24557451526755" lon="11.426018382322892"><ele>739.2</ele><time>2026-04-25T10:13:56.001Z</time></trkpt><trkpt lat="44.245478525643506" lon="11.426033380959408"><ele>739.4000000000001</ele><time>2026-04-25T10:13:57.001Z</time></trkpt><trkpt lat="44.245387698427386" lon="11.426042432664223"><ele>739.6</ele><time>2026-04-25T10:13:58.001Z</time></trkpt><trkpt lat="44.24529297713405" lon="11.426035916465345"><ele>739.8</ele><time>2026-04-25T10:13:59.001Z</time></trkpt><trkpt lat="44.24519686311261" lon="11.426018364277367"><ele>740.0</ele><time>2026-04-25T10:14:00.001Z</time></trkpt><trkpt lat="44.245100118808644" lon="11.426010475253255"><ele>740.0</ele><time>2026-04-25T10:14:01.001Z</time></trkpt><trkpt lat="44.24499154150501" lon="11.426020715679712"><ele>740.0</ele><time>2026-04-25T10:14:02.001Z</time></trkpt><trkpt lat="44.244872784504146" lon="11.426026228821808"><ele>740.0</ele><time>2026-04-25T10:14:03.001Z</time></trkpt><trkpt lat="44.24474179299262" lon="11.426018347411466"><ele>740.0</ele><time>2026-04-25T10:14:04.001Z</time></trkpt><trkpt lat="44.24460930931033" lon="11.425999033023063"><ele>739.25</ele><time>2026-04-25T10:14:05.001Z</time></trkpt><trkpt lat="44.244490075638645" lon="11.425963730523883"><ele>738.5</ele><time>2026-04-25T10:14:06.001Z</time></trkpt><trkpt lat="44.24437998950279" lon="11.42591655595552"><ele>737.75</ele><time>2026-04-25T10:14:07.001Z</time></trkpt><trkpt lat="44.24426378067773" lon="11.425868648039103"><ele>737.0</ele><time>2026-04-25T10:14:08.001Z</time></trkpt><trkpt lat="44.244125811255074" lon="11.425815793327812"><ele>737.0</ele><time>2026-04-25T10:14:09.001Z</time></trkpt><trkpt lat="44.243981238741206" lon="11.425756275324783"><ele>737.0</ele><time>2026-04-25T10:14:10.001Z</time></trkpt><trkpt lat="44.243834030476485" lon="11.42569510762673"><ele>737.0</ele><time>2026-04-25T10:14:11.001Z</time></trkpt><trkpt lat="44.243683625776605" lon="11.4256534608298"><ele>736.25</ele><time>2026-04-25T10:14:12.001Z</time></trkpt><trkpt lat="44.24354561983233" lon="11.425621965752775"><ele>735.5</ele><time>2026-04-25T10:14:13.001Z</time></trkpt><trkpt lat="44.24342180360775" lon="11.425594360770797"><ele>734.75</ele><time>2026-04-25T10:14:14.001Z</time></trkpt><trkpt lat="44.24330100292391" lon="11.425559332919466"><ele>734.0</ele><time>2026-04-25T10:14:15.001Z</time></trkpt><trkpt lat="44.2431821959322" lon="11.425520106462438"><ele>733.8000000000001</ele><time>2026-04-25T10:14:16.001Z</time></trkpt><trkpt lat="44.243078394983726" lon="11.425478461129954"><ele>733.6</ele><time>2026-04-25T10:14:17.001Z</time></trkpt><trkpt lat="44.24298026661669" lon="11.425446838914437"><ele>733.4</ele><time>2026-04-25T10:14:18.001Z</time></trkpt><trkpt lat="44.242883305445936" lon="11.42541291946765"><ele>733.2</ele><time>2026-04-25T10:14:19.001Z</time></trkpt><trkpt lat="44.24279132236834" lon="11.425377853587076"><ele>733.0</ele><time>2026-04-25T10:14:20.001Z</time></trkpt><trkpt lat="44.24270427682557" lon="11.425331846750014"><ele>733.0</ele><time>2026-04-25T10:14:21.001Z</time></trkpt><trkpt lat="44.24261673947963" lon="11.425270641673979"><ele>733.0</ele><time>2026-04-25T10:14:22.001Z</time></trkpt><trkpt lat="44.24253563058698" lon="11.42518118307257"><ele>733.0</ele><time>2026-04-25T10:14:23.001Z</time></trkpt><trkpt lat="44.2424600704127" lon="11.425087720480906"><ele>733.0</ele><time>2026-04-25T10:14:24.001Z</time></trkpt><trkpt lat="44.242383370559544" lon="11.424950966608977"><ele>733.0</ele><time>2026-04-25T10:14:25.001Z</time></trkpt><trkpt lat="44.24231483545431" lon="11.424806505295628"><ele>733.0</ele><time>2026-04-25T10:14:26.001Z</time></trkpt><trkpt lat="44.24223605742395" lon="11.424663304742488"><ele>733.0</ele><time>2026-04-25T10:14:27.001Z</time></trkpt><trkpt lat="44.24215201224255" lon="11.424546343525963"><ele>733.0</ele><time>2026-04-25T10:14:28.001Z</time></trkpt><trkpt lat="44.24205249175056" lon="11.424450657624162"><ele>733.0</ele><time>2026-04-25T10:14:29.001Z</time></trkpt><trkpt lat="44.24194700299912" lon="11.424371510313724"><ele>733.0</ele><time>2026-04-25T10:14:30.001Z</time></trkpt><trkpt lat="44.241834568102064" lon="11.42429160859337"><ele>733.0</ele><time>2026-04-25T10:14:31.001Z</time></trkpt><trkpt lat="44.24171772611822" lon="11.424211135416336"><ele>733.0</ele><time>2026-04-25T10:14:32.001Z</time></trkpt><trkpt lat="44.24159444866375" lon="11.424123442326895"><ele>733.0</ele><time>2026-04-25T10:14:33.001Z</time></trkpt><trkpt lat="44.241475731611786" lon="11.424040583215758"><ele>732.5</ele><time>2026-04-25T10:14:34.001Z</time></trkpt><trkpt lat="44.241363727368174" lon="11.423940907570518"><ele>732.0</ele><time>2026-04-25T10:14:35.001Z</time></trkpt><trkpt lat="44.24125389769257" lon="11.423848038627066"><ele>731.5</ele><time>2026-04-25T10:14:35.999Z</time></trkpt><trkpt lat="44.241133002084666" lon="11.423758923662126"><ele>731.0</ele><time>2026-04-25T10:14:36.999Z</time></trkpt><trkpt lat="44.24101617879153" lon="11.423676613004519"><ele>731.0</ele><time>2026-04-25T10:14:37.999Z</time></trkpt><trkpt lat="44.240913765916005" lon="11.423597760211605"><ele>731.0</ele><time>2026-04-25T10:14:38.999Z</time></trkpt><trkpt lat="44.24078487011959" lon="11.423512919992083"><ele>731.0</ele><time>2026-04-25T10:14:39.999Z</time></trkpt><trkpt lat="44.24066557640484" lon="11.42340806383489"><ele>731.0</ele><time>2026-04-25T10:14:40.999Z</time></trkpt><trkpt lat="44.24054534696571" lon="11.42328551568234"><ele>731.5</ele><time>2026-04-25T10:14:41.999Z</time></trkpt><trkpt lat="44.240443311710884" lon="11.423156014498957"><ele>732.0</ele><time>2026-04-25T10:14:42.999Z</time></trkpt><trkpt lat="44.2403575484831" lon="11.423026497753243"><ele>732.5</ele><time>2026-04-25T10:14:43.999Z</time></trkpt><trkpt lat="44.24030950722376" lon="11.422898154811918"><ele>733.0</ele><time>2026-04-25T10:14:44.999Z</time></trkpt><trkpt lat="44.240246737447535" lon="11.422789865574984"><ele>733.0</ele><time>2026-04-25T10:14:45.999Z</time></trkpt><trkpt lat="44.240195884075874" lon="11.422635491843673"><ele>733.0</ele><time>2026-04-25T10:14:46.999Z</time></trkpt><trkpt lat="44.24015460465528" lon="11.422487278885551"><ele>733.0</ele><time>2026-04-25T10:14:47.999Z</time></trkpt><trkpt lat="44.24009765256297" lon="11.422355794971246"><ele>733.0</ele><time>2026-04-25T10:14:48.999Z</time></trkpt><trkpt lat="44.24002199030087" lon="11.422234588091268"><ele>732.25</ele><time>2026-04-25T10:14:49.999Z</time></trkpt><trkpt lat="44.23995043863348" lon="11.422100984496945"><ele>731.5</ele><time>2026-04-25T10:14:50.999Z</time></trkpt><trkpt lat="44.23987942100129" lon="11.421951338279385"><ele>730.75</ele><time>2026-04-25T10:14:51.999Z</time></trkpt><trkpt lat="44.23980881185668" lon="11.421814779315108"><ele>730.0</ele><time>2026-04-25T10:14:52.999Z</time></trkpt><trkpt lat="44.23973534875475" lon="11.421698930425006"><ele>730.0</ele><time>2026-04-25T10:14:53.999Z</time></trkpt><trkpt lat="44.23964709322971" lon="11.421625333955165"><ele>730.0</ele><time>2026-04-25T10:14:54.999Z</time></trkpt><trkpt lat="44.23954206772976" lon="11.42154717728201"><ele>730.0</ele><time>2026-04-25T10:14:55.999Z</time></trkpt><trkpt lat="44.23943182870686" lon="11.421466073987919"><ele>730.0</ele><time>2026-04-25T10:14:56.999Z</time></trkpt><trkpt lat="44.239313599669664" lon="11.421402782448824"><ele>730.0</ele><time>2026-04-25T10:14:57.999Z</time></trkpt><trkpt lat="44.239200131356824" lon="11.421377901267547"><ele>730.0</ele><time>2026-04-25T10:14:58.999Z</time></trkpt><trkpt lat="44.23909990843628" lon="11.42135231789713"><ele>730.0</ele><time>2026-04-25T10:14:59.999Z</time></trkpt><trkpt lat="44.238985773244785" lon="11.421331310205614"><ele>730.0</ele><time>2026-04-25T10:15:00.999Z</time></trkpt><trkpt lat="44.23885997762078" lon="11.421350596193378"><ele>730.25</ele><time>2026-04-25T10:15:01.999Z</time></trkpt><trkpt lat="44.23873848750861" lon="11.421339506875224"><ele>730.5</ele><time>2026-04-25T10:15:02.999Z</time></trkpt><trkpt lat="44.23859774581598" lon="11.421365796146395"><ele>730.75</ele><time>2026-04-25T10:15:03.999Z</time></trkpt><trkpt lat="44.23847749998474" lon="11.421396099589112"><ele>731.0</ele><time>2026-04-25T10:15:05Z</time></trkpt><trkpt lat="44.238363951557055" lon="11.421371303281706"><ele>731.0</ele><time>2026-04-25T10:15:06Z</time></trkpt><trkpt lat="44.23824835591608" lon="11.421377868922352"><ele>731.0</ele><time>2026-04-25T10:15:07Z</time></trkpt><trkpt lat="44.238134577271126" lon="11.421349730525678"><ele>731.0</ele><time>2026-04-25T10:15:08Z</time></trkpt><trkpt lat="44.23803595640564" lon="11.421366609395385"><ele>731.0</ele><time>2026-04-25T10:15:09Z</time></trkpt><trkpt lat="44.23792847893834" lon="11.421420153605208"><ele>731.0</ele><time>2026-04-25T10:15:10Z</time></trkpt><trkpt lat="44.23783623777728" lon="11.421443236475021"><ele>731.1999999999999</ele><time>2026-04-25T10:15:11Z</time></trkpt><trkpt lat="44.23775106674226" lon="11.421395527703138"><ele>731.4</ele><time>2026-04-25T10:15:12Z</time></trkpt><trkpt lat="44.2376608028034" lon="11.421381345427964"><ele>731.6</ele><time>2026-04-25T10:15:13Z</time></trkpt><trkpt lat="44.23759975171129" lon="11.421295232800466"><ele>731.8</ele><time>2026-04-25T10:15:14Z</time></trkpt><trkpt lat="44.23751963593825" lon="11.42120466876017"><ele>732.0</ele><time>2026-04-25T10:15:15Z</time></trkpt><trkpt lat="44.2374436627817" lon="11.421112234403607"><ele>732.6666666666666</ele><time>2026-04-25T10:15:16Z</time></trkpt><trkpt lat="44.237377634088766" lon="11.421017565469013"><ele>733.3333333333334</ele><time>2026-04-25T10:15:17Z</time></trkpt><trkpt lat="44.23730639347219" lon="11.420941721083535"><ele>734.0</ele><time>2026-04-25T10:15:18Z</time></trkpt><trkpt lat="44.23722644269143" lon="11.42089303096928"><ele>734.6666666666667</ele><time>2026-04-25T10:15:19Z</time></trkpt><trkpt lat="44.23713564420483" lon="11.420830186936005"><ele>735.3333333333334</ele><time>2026-04-25T10:15:20Z</time></trkpt><trkpt lat="44.23707115210775" lon="11.42079663707162"><ele>736.0</ele><time>2026-04-25T10:15:21Z</time></trkpt><trkpt lat="44.23694501455162" lon="11.420819186310451"><ele>737.2857142857143</ele><time>2026-04-25T10:15:23Z</time></trkpt><trkpt lat="44.236876284473084" lon="11.420852329811934"><ele>738.5714285714286</ele><time>2026-04-25T10:15:24Z</time></trkpt><trkpt lat="44.236801897625114" lon="11.420880812153769"><ele>739.8571428571429</ele><time>2026-04-25T10:15:25Z</time></trkpt><trkpt lat="44.23672905053225" lon="11.420921088815223"><ele>741.1428571428571</ele><time>2026-04-25T10:15:26Z</time></trkpt><trkpt lat="44.2366630857681" lon="11.420954558918348"><ele>742.4285714285713</ele><time>2026-04-25T10:15:27Z</time></trkpt><trkpt lat="44.23659817935035" lon="11.420991225968102"><ele>743.7142857142857</ele><time>2026-04-25T10:15:28Z</time></trkpt><trkpt lat="44.23653346117739" lon="11.421029343330266"><ele>745.0</ele><time>2026-04-25T10:15:29Z</time></trkpt><trkpt lat="44.23646414216558" lon="11.421069445238755"><ele>746.3333333333334</ele><time>2026-04-25T10:15:30Z</time></trkpt><trkpt lat="44.236400831234164" lon="11.421110611171645"><ele>747.6666666666667</ele><time>2026-04-25T10:15:31Z</time></trkpt><trkpt lat="44.23633716691951" lon="11.421149174437895"><ele>749.0</ele><time>2026-04-25T10:15:32Z</time></trkpt><trkpt lat="44.236260026540634" lon="11.421184499336606"><ele>750.3333333333334</ele><time>2026-04-25T10:15:33Z</time></trkpt><trkpt lat="44.236146831357765" lon="11.42118973762748"><ele>751.6666666666666</ele><time>2026-04-25T10:15:35Z</time></trkpt><trkpt lat="44.23603212959921" lon="11.421170219440015"><ele>753.0</ele><time>2026-04-25T10:15:37Z</time></trkpt><trkpt lat="44.235961138787694" lon="11.421169780843687"><ele>753.0</ele><time>2026-04-25T10:15:38Z</time></trkpt><trkpt lat="44.23588501348822" lon="11.421151710530152"><ele>753.0</ele><time>2026-04-25T10:15:39Z</time></trkpt><trkpt lat="44.235807007017726" lon="11.421131154195876"><ele>753.0</ele><time>2026-04-25T10:15:40Z</time></trkpt><trkpt lat="44.23572462612311" lon="11.421120937772773"><ele>753.0</ele><time>2026-04-25T10:15:41Z</time></trkpt><trkpt lat="44.2356436750796" lon="11.421138256503315"><ele>753.0</ele><time>2026-04-25T10:15:42Z</time></trkpt><trkpt lat="44.23556038292136" lon="11.421186979976898"><ele>753.0</ele><time>2026-04-25T10:15:43Z</time></trkpt><trkpt lat="44.23548095305208" lon="11.421244489586709"><ele>752.3333333333334</ele><time>2026-04-25T10:15:44Z</time></trkpt><trkpt lat="44.23540164312489" lon="11.42129908221961"><ele>751.6666666666666</ele><time>2026-04-25T10:15:45Z</time></trkpt><trkpt lat="44.23532702423859" lon="11.42136294096142"><ele>751.0</ele><time>2026-04-25T10:15:46Z</time></trkpt><trkpt lat="44.2352730300306" lon="11.42142433605597"><ele>750.3333333333333</ele><time>2026-04-25T10:15:47Z</time></trkpt><trkpt lat="44.23522563222088" lon="11.421491266906486"><ele>749.6666666666666</ele><time>2026-04-25T10:15:48Z</time></trkpt><trkpt lat="44.23518283597722" lon="11.42156503677832"><ele>749.0</ele><time>2026-04-25T10:15:49Z</time></trkpt><trkpt lat="44.235118744054624" lon="11.421599722088958"><ele>749.0</ele><time>2026-04-25T10:15:50Z</time></trkpt><trkpt lat="44.23506207523306" lon="11.421667612008934"><ele>749.0</ele><time>2026-04-25T10:15:51Z</time></trkpt><trkpt lat="44.234985628399045" lon="11.421688304238936"><ele>749.0</ele><time>2026-04-25T10:15:52Z</time></trkpt><trkpt lat="44.23490617111539" lon="11.421726633600619"><ele>749.0</ele><time>2026-04-25T10:15:53Z</time></trkpt><trkpt lat="44.23484370760388" lon="11.421783728900646"><ele>749.0</ele><time>2026-04-25T10:15:54.001Z</time></trkpt><trkpt lat="44.23478590111304" lon="11.421875288125499"><ele>749.0</ele><time>2026-04-25T10:15:55.001Z</time></trkpt><trkpt lat="44.23472150580444" lon="11.421971677416357"><ele>748.2</ele><time>2026-04-25T10:15:56.001Z</time></trkpt><trkpt lat="44.234632226001274" lon="11.422035165070268"><ele>747.4000000000001</ele><time>2026-04-25T10:15:57.001Z</time></trkpt><trkpt lat="44.234541375153235" lon="11.422088276101052"><ele>746.6</ele><time>2026-04-25T10:15:58.001Z</time></trkpt><trkpt lat="44.234454391378854" lon="11.422153740934672"><ele>745.8</ele><time>2026-04-25T10:15:59.001Z</time></trkpt><trkpt lat="44.23438297531648" lon="11.422235177092219"><ele>745.0</ele><time>2026-04-25T10:16:00.001Z</time></trkpt><trkpt lat="44.23431988588974" lon="11.422319967249512"><ele>743.6</ele><time>2026-04-25T10:16:01.001Z</time></trkpt><trkpt lat="44.23426161619698" lon="11.422393446338207"><ele>742.2</ele><time>2026-04-25T10:16:02.001Z</time></trkpt><trkpt lat="44.2342125331461" lon="11.422464227629927"><ele>740.8</ele><time>2026-04-25T10:16:03.001Z</time></trkpt><trkpt lat="44.234163670748984" lon="11.42253108934896"><ele>739.4</ele><time>2026-04-25T10:16:04.001Z</time></trkpt><trkpt lat="44.23405236509211" lon="11.42256767342064"><ele>738.0</ele><time>2026-04-25T10:16:06.001Z</time></trkpt><trkpt lat="44.23396054449526" lon="11.422445748570855"><ele>738.0</ele><time>2026-04-25T10:16:08.001Z</time></trkpt><trkpt lat="44.23397269886002" lon="11.42233970006682"><ele>738.0</ele><time>2026-04-25T10:16:09.001Z</time></trkpt><trkpt lat="44.23396591874383" lon="11.422214822989675"><ele>738.0</ele><time>2026-04-25T10:16:10.001Z</time></trkpt><trkpt lat="44.23397754594835" lon="11.42208023041527"><ele>738.0</ele><time>2026-04-25T10:16:11.001Z</time></trkpt><trkpt lat="44.23398632137512" lon="11.42195079080422"><ele>738.0</ele><time>2026-04-25T10:16:12.001Z</time></trkpt><trkpt lat="44.23395849444614" lon="11.42181376353153"><ele>736.0</ele><time>2026-04-25T10:16:13.001Z</time></trkpt><trkpt lat="44.23390129396229" lon="11.42169153607095"><ele>734.0</ele><time>2026-04-25T10:16:14.001Z</time></trkpt><trkpt lat="44.23386061405564" lon="11.42156609594996"><ele>732.0</ele><time>2026-04-25T10:16:15.001Z</time></trkpt><trkpt lat="44.23386221664532" lon="11.421431645261588"><ele>730.0</ele><time>2026-04-25T10:16:16.001Z</time></trkpt><trkpt lat="44.233842677232865" lon="11.421309211356037"><ele>728.0</ele><time>2026-04-25T10:16:17.001Z</time></trkpt><trkpt lat="44.233827192663114" lon="11.421188156255628"><ele>728.0</ele><time>2026-04-25T10:16:18.001Z</time></trkpt><trkpt lat="44.23378328039267" lon="11.421097142273615"><ele>728.0</ele><time>2026-04-25T10:16:19.001Z</time></trkpt><trkpt lat="44.23372380858085" lon="11.421030096381536"><ele>728.0</ele><time>2026-04-25T10:16:20.001Z</time></trkpt><trkpt lat="44.23366568320569" lon="11.420970888707442"><ele>728.0</ele><time>2026-04-25T10:16:21.001Z</time></trkpt><trkpt lat="44.23359942289116" lon="11.420937098422483"><ele>728.0</ele><time>2026-04-25T10:16:22.001Z</time></trkpt><trkpt lat="44.233550216159934" lon="11.42087800972207"><ele>728.0</ele><time>2026-04-25T10:16:23.001Z</time></trkpt><trkpt lat="44.23350911099039" lon="11.420799131070005"><ele>728.0</ele><time>2026-04-25T10:16:24.001Z</time></trkpt><trkpt lat="44.233481696798805" lon="11.420702172196354"><ele>728.0</ele><time>2026-04-25T10:16:25.001Z</time></trkpt><trkpt lat="44.233459489587155" lon="11.420612131371234"><ele>728.0</ele><time>2026-04-25T10:16:26.001Z</time></trkpt><trkpt lat="44.23345082564338" lon="11.420516398413525"><ele>728.0</ele><time>2026-04-25T10:16:27.001Z</time></trkpt><trkpt lat="44.23344766019712" lon="11.420414285093024"><ele>728.0</ele><time>2026-04-25T10:16:28.001Z</time></trkpt><trkpt lat="44.233462863700616" lon="11.4203130905708"><ele>728.0</ele><time>2026-04-25T10:16:29.001Z</time></trkpt><trkpt lat="44.23350371433723" lon="11.420221484313991"><ele>728.0</ele><time>2026-04-25T10:16:30.001Z</time></trkpt><trkpt lat="44.233569386784836" lon="11.420130048632087"><ele>727.5</ele><time>2026-04-25T10:16:31.001Z</time></trkpt><trkpt lat="44.233612700320464" lon="11.420027809641693"><ele>727.0</ele><time>2026-04-25T10:16:32.001Z</time></trkpt><trkpt lat="44.23365581978925" lon="11.419913897503434"><ele>726.5</ele><time>2026-04-25T10:16:33.001Z</time></trkpt><trkpt lat="44.233684994861974" lon="11.419809890946725"><ele>726.0</ele><time>2026-04-25T10:16:34.001Z</time></trkpt><trkpt lat="44.233705800445414" lon="11.419692913580061"><ele>725.5</ele><time>2026-04-25T10:16:35.001Z</time></trkpt><trkpt lat="44.23371961999052" lon="11.419561828387087"><ele>725.0</ele><time>2026-04-25T10:16:36.001Z</time></trkpt><trkpt lat="44.233716891416755" lon="11.419453206630953"><ele>725.0</ele><time>2026-04-25T10:16:37.001Z</time></trkpt><trkpt lat="44.23369038754604" lon="11.419342013653619"><ele>725.0</ele><time>2026-04-25T10:16:38.001Z</time></trkpt><trkpt lat="44.23365273391183" lon="11.419242918995725"><ele>725.0</ele><time>2026-04-25T10:16:39.001Z</time></trkpt><trkpt lat="44.23361319551799" lon="11.419113638934089"><ele>725.0</ele><time>2026-04-25T10:16:40.001Z</time></trkpt><trkpt lat="44.23358144638111" lon="11.419034746522293"><ele>725.0</ele><time>2026-04-25T10:16:41.001Z</time></trkpt><trkpt lat="44.23353132297382" lon="11.418969602019615"><ele>725.0</ele><time>2026-04-25T10:16:41.999Z</time></trkpt><trkpt lat="44.23344390721269" lon="11.418891387765377"><ele>725.0</ele><time>2026-04-25T10:16:43.999Z</time></trkpt><trkpt lat="44.233346199862005" lon="11.418846335375456"><ele>725.0</ele><time>2026-04-25T10:16:45.999Z</time></trkpt><trkpt lat="44.233281224448895" lon="11.418807174130277"><ele>725.0</ele><time>2026-04-25T10:16:47.999Z</time></trkpt><trkpt lat="44.233182757760815" lon="11.418743220095282"><ele>725.0</ele><time>2026-04-25T10:16:49.999Z</time></trkpt><trkpt lat="44.23307129803755" lon="11.418701363398055"><ele>725.0</ele><time>2026-04-25T10:16:51.999Z</time></trkpt><trkpt lat="44.23300313297501" lon="11.418683402775091"><ele>724.6</ele><time>2026-04-25T10:16:52.999Z</time></trkpt><trkpt lat="44.2329308299146" lon="11.418639578642935"><ele>724.2</ele><time>2026-04-25T10:16:53.999Z</time></trkpt><trkpt lat="44.232854756086745" lon="11.418583715262072"><ele>723.8</ele><time>2026-04-25T10:16:54.999Z</time></trkpt><trkpt lat="44.232793938945875" lon="11.418533279281501"><ele>723.4</ele><time>2026-04-25T10:16:55.999Z</time></trkpt><trkpt lat="44.23269570147152" lon="11.418474542198824"><ele>723.0</ele><time>2026-04-25T10:16:56.999Z</time></trkpt><trkpt lat="44.232588242596734" lon="11.418432611709461"><ele>723.0</ele><time>2026-04-25T10:16:58Z</time></trkpt><trkpt lat="44.23247322942446" lon="11.418402463826153"><ele>723.0</ele><time>2026-04-25T10:16:59Z</time></trkpt><trkpt lat="44.232379341028135" lon="11.418357474623079"><ele>723.0</ele><time>2026-04-25T10:17:00Z</time></trkpt><trkpt lat="44.232295083728005" lon="11.418290811469051"><ele>723.0</ele><time>2026-04-25T10:17:01Z</time></trkpt><trkpt lat="44.23218921912872" lon="11.418223778217829"><ele>723.0</ele><time>2026-04-25T10:17:02Z</time></trkpt><trkpt lat="44.232116798090466" lon="11.41811578066157"><ele>721.4</ele><time>2026-04-25T10:17:03Z</time></trkpt><trkpt lat="44.23204867205058" lon="11.4180642184537"><ele>719.8</ele><time>2026-04-25T10:17:04Z</time></trkpt><trkpt lat="44.23191352016777" lon="11.417992270082328"><ele>718.2</ele><time>2026-04-25T10:17:05Z</time></trkpt><trkpt lat="44.23182290075313" lon="11.417917298730757"><ele>716.6</ele><time>2026-04-25T10:17:06Z</time></trkpt><trkpt lat="44.23176445553252" lon="11.417857195211132"><ele>715.0</ele><time>2026-04-25T10:17:07Z</time></trkpt><trkpt lat="44.23162770181702" lon="11.417671244059322"><ele>715.0</ele><time>2026-04-25T10:17:09Z</time></trkpt><trkpt lat="44.23157394892265" lon="11.417567530960968"><ele>715.0</ele><time>2026-04-25T10:17:10Z</time></trkpt><trkpt lat="44.23154851327832" lon="11.417456332469385"><ele>715.0</ele><time>2026-04-25T10:17:11Z</time></trkpt><trkpt lat="44.231545064818235" lon="11.417330791700286"><ele>715.0</ele><time>2026-04-25T10:17:12Z</time></trkpt><trkpt lat="44.231532405791754" lon="11.417199242319883"><ele>715.0</ele><time>2026-04-25T10:17:13Z</time></trkpt><trkpt lat="44.23148723996343" lon="11.417107767269918"><ele>715.0</ele><time>2026-04-25T10:17:14Z</time></trkpt><trkpt lat="44.231414575474844" lon="11.417052165075097"><ele>714.2</ele><time>2026-04-25T10:17:15Z</time></trkpt><trkpt lat="44.231328996014646" lon="11.417028455580061"><ele>713.4</ele><time>2026-04-25T10:17:16Z</time></trkpt><trkpt lat="44.231224175548284" lon="11.417028642850076"><ele>712.5999999999999</ele><time>2026-04-25T10:17:17Z</time></trkpt><trkpt lat="44.23111814400031" lon="11.417055004874062"><ele>711.8</ele><time>2026-04-25T10:17:18Z</time></trkpt><trkpt lat="44.23100735604169" lon="11.417060451307902"><ele>711.0</ele><time>2026-04-25T10:17:19Z</time></trkpt><trkpt lat="44.23090222335842" lon="11.417064740847358"><ele>711.0</ele><time>2026-04-25T10:17:20Z</time></trkpt><trkpt lat="44.23081864740024" lon="11.417049920594026"><ele>711.0</ele><time>2026-04-25T10:17:21Z</time></trkpt><trkpt lat="44.23073341131039" lon="11.41700956095237"><ele>711.0</ele><time>2026-04-25T10:17:22Z</time></trkpt><trkpt lat="44.23062739411995" lon="11.416978388989932"><ele>711.0</ele><time>2026-04-25T10:17:23Z</time></trkpt><trkpt lat="44.230522932334864" lon="11.416924982312262"><ele>711.0</ele><time>2026-04-25T10:17:24Z</time></trkpt><trkpt lat="44.230444224358905" lon="11.416837513726877"><ele>708.8</ele><time>2026-04-25T10:17:25Z</time></trkpt><trkpt lat="44.23036219603007" lon="11.416767767434068"><ele>706.5999999999999</ele><time>2026-04-25T10:17:26Z</time></trkpt><trkpt lat="44.230307732200885" lon="11.416691526655784"><ele>704.4</ele><time>2026-04-25T10:17:27Z</time></trkpt><trkpt lat="44.230219042019954" lon="11.416651253496637"><ele>702.2</ele><time>2026-04-25T10:17:28Z</time></trkpt><trkpt lat="44.23012220433743" lon="11.416632495024139"><ele>700.0</ele><time>2026-04-25T10:17:29Z</time></trkpt><trkpt lat="44.22999801479277" lon="11.416626647429805"><ele>700.0</ele><time>2026-04-25T10:17:30Z</time></trkpt><trkpt lat="44.22988688887072" lon="11.416574389907048"><ele>700.0</ele><time>2026-04-25T10:17:31Z</time></trkpt><trkpt lat="44.2297750703413" lon="11.416554670049313"><ele>700.0</ele><time>2026-04-25T10:17:32Z</time></trkpt><trkpt lat="44.22967416448353" lon="11.416531123388"><ele>700.0</ele><time>2026-04-25T10:17:33Z</time></trkpt><trkpt lat="44.22958610816243" lon="11.41650138413658"><ele>700.0</ele><time>2026-04-25T10:17:34Z</time></trkpt><trkpt lat="44.229482678134666" lon="11.41646152775772"><ele>698.0</ele><time>2026-04-25T10:17:35Z</time></trkpt><trkpt lat="44.22937613169042" lon="11.416398694649729"><ele>696.0</ele><time>2026-04-25T10:17:36.001Z</time></trkpt><trkpt lat="44.229292688923145" lon="11.416349958455495"><ele>694.0</ele><time>2026-04-25T10:17:37.001Z</time></trkpt><trkpt lat="44.22921743214207" lon="11.416328285160168"><ele>692.0</ele><time>2026-04-25T10:17:38.001Z</time></trkpt><trkpt lat="44.22913338693332" lon="11.416352981815924"><ele>690.0</ele><time>2026-04-25T10:17:40.001Z</time></trkpt><trkpt lat="44.22911521169545" lon="11.416527360167787"><ele>690.0</ele><time>2026-04-25T10:17:43.001Z</time></trkpt><trkpt lat="44.22916888069175" lon="11.416601745659117"><ele>690.0</ele><time>2026-04-25T10:17:44.001Z</time></trkpt><trkpt lat="44.22926151900492" lon="11.416619006218424"><ele>690.0</ele><time>2026-04-25T10:17:45.001Z</time></trkpt><trkpt lat="44.22932905965381" lon="11.416690269314232"><ele>690.0</ele><time>2026-04-25T10:17:46.001Z</time></trkpt><trkpt lat="44.2293922143631" lon="11.416749713528352"><ele>690.0</ele><time>2026-04-25T10:17:47.001Z</time></trkpt><trkpt lat="44.22945607901366" lon="11.4168286095463"><ele>690.0</ele><time>2026-04-25T10:17:48.001Z</time></trkpt><trkpt lat="44.22952409299745" lon="11.41693621511955"><ele>690.0</ele><time>2026-04-25T10:17:49.001Z</time></trkpt><trkpt lat="44.22958980276008" lon="11.41705006203034"><ele>690.0</ele><time>2026-04-25T10:17:50.001Z</time></trkpt><trkpt lat="44.22965282969258" lon="11.417148659242036"><ele>690.0</ele><time>2026-04-25T10:17:51.001Z</time></trkpt><trkpt lat="44.229741840556564" lon="11.417255005773889"><ele>690.0</ele><time>2026-04-25T10:17:52.001Z</time></trkpt><trkpt lat="44.22982983555109" lon="11.417348989871295"><ele>690.0</ele><time>2026-04-25T10:17:53.001Z</time></trkpt><trkpt lat="44.22990529456685" lon="11.417416784879668"><ele>688.8</ele><time>2026-04-25T10:17:54.001Z</time></trkpt><trkpt lat="44.22997162673687" lon="11.417501787220703"><ele>687.6</ele><time>2026-04-25T10:17:55.001Z</time></trkpt><trkpt lat="44.23002064440697" lon="11.417613487267415"><ele>686.4000000000001</ele><time>2026-04-25T10:17:56.001Z</time></trkpt><trkpt lat="44.23007955352769" lon="11.417720133648906"><ele>685.2</ele><time>2026-04-25T10:17:57.001Z</time></trkpt><trkpt lat="44.2301356836816" lon="11.417845102554585"><ele>684.0</ele><time>2026-04-25T10:17:58.001Z</time></trkpt><trkpt lat="44.2301922409859" lon="11.417932576808354"><ele>681.0</ele><time>2026-04-25T10:17:59.001Z</time></trkpt><trkpt lat="44.230236778944985" lon="11.418036979970374"><ele>678.0</ele><time>2026-04-25T10:18:00.001Z</time></trkpt><trkpt lat="44.230300050865175" lon="11.418141176277286"><ele>675.0</ele><time>2026-04-25T10:18:01.001Z</time></trkpt><trkpt lat="44.23038915284822" lon="11.418243154899743"><ele>672.0</ele><time>2026-04-25T10:18:02.001Z</time></trkpt><trkpt lat="44.23048620170914" lon="11.418328103496172"><ele>669.0</ele><time>2026-04-25T10:18:03.001Z</time></trkpt><trkpt lat="44.230582319102105" lon="11.418417400111482"><ele>669.6</ele><time>2026-04-25T10:18:04.001Z</time></trkpt><trkpt lat="44.230650243838284" lon="11.418536059947147"><ele>670.2</ele><time>2026-04-25T10:18:05.001Z</time></trkpt><trkpt lat="44.23069923990869" lon="11.418648961216787"><ele>670.8000000000001</ele><time>2026-04-25T10:18:06.001Z</time></trkpt><trkpt lat="44.230732346329404" lon="11.418750989806414"><ele>671.4000000000001</ele><time>2026-04-25T10:18:07.001Z</time></trkpt><trkpt lat="44.23077876510581" lon="11.418895125424061"><ele>672.0</ele><time>2026-04-25T10:18:08.001Z</time></trkpt><trkpt lat="44.230835596624104" lon="11.419048922365509"><ele>672.0</ele><time>2026-04-25T10:18:09.001Z</time></trkpt><trkpt lat="44.23088451970465" lon="11.41920047877106"><ele>672.0</ele><time>2026-04-25T10:18:10.001Z</time></trkpt><trkpt lat="44.230930391255285" lon="11.419322229072652"><ele>672.0</ele><time>2026-04-25T10:18:11.001Z</time></trkpt><trkpt lat="44.23098953236182" lon="11.41943644137364"><ele>672.0</ele><time>2026-04-25T10:18:12.001Z</time></trkpt><trkpt lat="44.231049560951796" lon="11.419517110700566"><ele>672.0</ele><time>2026-04-25T10:18:13.001Z</time></trkpt><trkpt lat="44.23115143678612" lon="11.41963047730128"><ele>669.4000000000001</ele><time>2026-04-25T10:18:14.001Z</time></trkpt><trkpt lat="44.23124598988548" lon="11.41972325071551"><ele>666.8000000000001</ele><time>2026-04-25T10:18:15.001Z</time></trkpt><trkpt lat="44.23132735614341" lon="11.419834605835321"><ele>664.2</ele><time>2026-04-25T10:18:16.001Z</time></trkpt><trkpt lat="44.231412520839804" lon="11.419927477382231"><ele>661.6</ele><time>2026-04-25T10:18:17.001Z</time></trkpt><trkpt lat="44.23146805521041" lon="11.420015046846038"><ele>659.0</ele><time>2026-04-25T10:18:18.001Z</time></trkpt><trkpt lat="44.23147255170756" lon="11.42014631549267"><ele>657.2</ele><time>2026-04-25T10:18:19.001Z</time></trkpt><trkpt lat="44.23147449148878" lon="11.420261832189048"><ele>655.4000000000001</ele><time>2026-04-25T10:18:20.001Z</time></trkpt><trkpt lat="44.23149002212112" lon="11.420405903115807"><ele>653.6</ele><time>2026-04-25T10:18:21.001Z</time></trkpt><trkpt lat="44.23147108237638" lon="11.420551455854465"><ele>651.8</ele><time>2026-04-25T10:18:22.001Z</time></trkpt><trkpt lat="44.231421047145076" lon="11.4206881004066"><ele>650.0</ele><time>2026-04-25T10:18:23.001Z</time></trkpt><trkpt lat="44.23136787429969" lon="11.420798609386818"><ele>650.0</ele><time>2026-04-25T10:18:24.001Z</time></trkpt><trkpt lat="44.23129838807978" lon="11.420930136367117"><ele>650.0</ele><time>2026-04-25T10:18:25.001Z</time></trkpt><trkpt lat="44.23124075618551" lon="11.421087987635833"><ele>650.0</ele><time>2026-04-25T10:18:26.001Z</time></trkpt><trkpt lat="44.23118953477815" lon="11.421228715663803"><ele>650.0</ele><time>2026-04-25T10:18:27.001Z</time></trkpt><trkpt lat="44.231141456764135" lon="11.421363505741395"><ele>651.4</ele><time>2026-04-25T10:18:28.002Z</time></trkpt><trkpt lat="44.23107662583104" lon="11.421473010063169"><ele>652.8</ele><time>2026-04-25T10:18:29.002Z</time></trkpt><trkpt lat="44.23099394095628" lon="11.421574322362085"><ele>654.2</ele><time>2026-04-25T10:18:30.002Z</time></trkpt><trkpt lat="44.23092134893275" lon="11.421680873094964"><ele>655.6</ele><time>2026-04-25T10:18:31.002Z</time></trkpt><trkpt lat="44.23083135329312" lon="11.421725295983594"><ele>657.0</ele><time>2026-04-25T10:18:32.002Z</time></trkpt><trkpt lat="44.23075824412324" lon="11.42178762797347"><ele>657.0</ele><time>2026-04-25T10:18:33.002Z</time></trkpt><trkpt lat="44.230675188809" lon="11.421840066268357"><ele>657.0</ele><time>2026-04-25T10:18:34.002Z</time></trkpt><trkpt lat="44.23059371433521" lon="11.421891961556272"><ele>657.0</ele><time>2026-04-25T10:18:35.002Z</time></trkpt><trkpt lat="44.23053958678097" lon="11.421973395678537"><ele>657.0</ele><time>2026-04-25T10:18:36.002Z</time></trkpt><trkpt lat="44.23048318564103" lon="11.422066468359766"><ele>657.0</ele><time>2026-04-25T10:18:37.002Z</time></trkpt><trkpt lat="44.23043347724774" lon="11.422170477337918"><ele>657.0</ele><time>2026-04-25T10:18:38.002Z</time></trkpt><trkpt lat="44.230406432216135" lon="11.422277832232757"><ele>654.2</ele><time>2026-04-25T10:18:39.002Z</time></trkpt><trkpt lat="44.23040539596331" lon="11.422400767563639"><ele>651.4000000000001</ele><time>2026-04-25T10:18:40.002Z</time></trkpt><trkpt lat="44.230415346739974" lon="11.422531241253202"><ele>648.5999999999999</ele><time>2026-04-25T10:18:41.002Z</time></trkpt><trkpt lat="44.23042659934675" lon="11.422683549648783"><ele>645.8</ele><time>2026-04-25T10:18:42.002Z</time></trkpt><trkpt lat="44.23042481881627" lon="11.422833221262822"><ele>643.0</ele><time>2026-04-25T10:18:43.002Z</time></trkpt><trkpt lat="44.230439895553545" lon="11.422992776748021"><ele>643.0</ele><time>2026-04-25T10:18:44.002Z</time></trkpt><trkpt lat="44.23045123006955" lon="11.423144694543241"><ele>643.0</ele><time>2026-04-25T10:18:45.002Z</time></trkpt><trkpt lat="44.23045869271754" lon="11.423292212085022"><ele>643.0</ele><time>2026-04-25T10:18:46.002Z</time></trkpt><trkpt lat="44.23045247308725" lon="11.423423424164488"><ele>643.0</ele><time>2026-04-25T10:18:47.002Z</time></trkpt><trkpt lat="44.23042555636417" lon="11.423544232864037"><ele>643.0</ele><time>2026-04-25T10:18:48Z</time></trkpt><trkpt lat="44.230379781691056" lon="11.423657011156019"><ele>643.0</ele><time>2026-04-25T10:18:49Z</time></trkpt><trkpt lat="44.23032247054078" lon="11.423763225750314"><ele>643.0</ele><time>2026-04-25T10:18:50Z</time></trkpt><trkpt lat="44.230250782866264" lon="11.423842813737378"><ele>643.0</ele><time>2026-04-25T10:18:51Z</time></trkpt><trkpt lat="44.230175143303924" lon="11.423939839131197"><ele>643.0</ele><time>2026-04-25T10:18:52Z</time></trkpt><trkpt lat="44.2300757151476" lon="11.424021265386335"><ele>643.0</ele><time>2026-04-25T10:18:53Z</time></trkpt><trkpt lat="44.22997885923814" lon="11.424106093017015"><ele>644.8</ele><time>2026-04-25T10:18:54Z</time></trkpt><trkpt lat="44.22989702995408" lon="11.424194450169324"><ele>646.5999999999999</ele><time>2026-04-25T10:18:55Z</time></trkpt><trkpt lat="44.22982418566746" lon="11.424288629152567"><ele>648.4000000000001</ele><time>2026-04-25T10:18:56Z</time></trkpt><trkpt lat="44.22976552112824" lon="11.424407923241338"><ele>650.2</ele><time>2026-04-25T10:18:57Z</time></trkpt><trkpt lat="44.22972150785006" lon="11.424555293345454"><ele>652.0</ele><time>2026-04-25T10:18:58Z</time></trkpt><trkpt lat="44.22968987896004" lon="11.42473991534015"><ele>647.25</ele><time>2026-04-25T10:18:59Z</time></trkpt><trkpt lat="44.229645362282994" lon="11.424921473869963"><ele>642.5</ele><time>2026-04-25T10:19:00Z</time></trkpt><trkpt lat="44.229599204985405" lon="11.425100822000624"><ele>637.75</ele><time>2026-04-25T10:19:01Z</time></trkpt><trkpt lat="44.229552062097696" lon="11.425275708776036"><ele>633.0</ele><time>2026-04-25T10:19:02Z</time></trkpt><trkpt lat="44.229505218498446" lon="11.425478524091037"><ele>633.0</ele><time>2026-04-25T10:19:03Z</time></trkpt><trkpt lat="44.229459936783066" lon="11.425690232589139"><ele>633.0</ele><time>2026-04-25T10:19:04Z</time></trkpt><trkpt lat="44.22941323771736" lon="11.425906023391388"><ele>633.0</ele><time>2026-04-25T10:19:05Z</time></trkpt><trkpt lat="44.22936648541004" lon="11.426106665980328"><ele>633.0</ele><time>2026-04-25T10:19:06Z</time></trkpt><trkpt lat="44.229325957029445" lon="11.426289544508357"><ele>633.0</ele><time>2026-04-25T10:19:07Z</time></trkpt><trkpt lat="44.229295209590866" lon="11.426456938903623"><ele>633.0</ele><time>2026-04-25T10:19:08Z</time></trkpt><trkpt lat="44.22923817938289" lon="11.42660913237711"><ele>633.0</ele><time>2026-04-25T10:19:09Z</time></trkpt><trkpt lat="44.229168112106365" lon="11.426733615245197"><ele>633.1999999999999</ele><time>2026-04-25T10:19:10Z</time></trkpt><trkpt lat="44.2291226956286" lon="11.426866166750596"><ele>633.4</ele><time>2026-04-25T10:19:11Z</time></trkpt><trkpt lat="44.229071001128986" lon="11.426997071655544"><ele>633.5999999999999</ele><time>2026-04-25T10:19:12Z</time></trkpt><trkpt lat="44.22899105842278" lon="11.42709520302933"><ele>633.8</ele><time>2026-04-25T10:19:13Z</time></trkpt><trkpt lat="44.22889045824315" lon="11.427124798676685"><ele>634.0</ele><time>2026-04-25T10:19:14Z</time></trkpt><trkpt lat="44.22879218784035" lon="11.427201130824654"><ele>632.6</ele><time>2026-04-25T10:19:15Z</time></trkpt><trkpt lat="44.22868890816405" lon="11.427249630705786"><ele>631.2</ele><time>2026-04-25T10:19:16Z</time></trkpt><trkpt lat="44.22859802679064" lon="11.42728217528933"><ele>629.8000000000001</ele><time>2026-04-25T10:19:17Z</time></trkpt><trkpt lat="44.228497115391015" lon="11.42730933475469"><ele>628.4</ele><time>2026-04-25T10:19:18Z</time></trkpt><trkpt lat="44.22840804508978" lon="11.427321888181446"><ele>627.0</ele><time>2026-04-25T10:19:19Z</time></trkpt><trkpt lat="44.22830809789225" lon="11.427356963857543"><ele>627.0</ele><time>2026-04-25T10:19:20Z</time></trkpt><trkpt lat="44.22820909976615" lon="11.427428350820849"><ele>627.0</ele><time>2026-04-25T10:19:21Z</time></trkpt><trkpt lat="44.22811645624551" lon="11.427517441292325"><ele>627.0</ele><time>2026-04-25T10:19:22Z</time></trkpt><trkpt lat="44.22801933382945" lon="11.427628216430866"><ele>627.0</ele><time>2026-04-25T10:19:23Z</time></trkpt><trkpt lat="44.2279285381117" lon="11.42772575536608"><ele>625.0</ele><time>2026-04-25T10:19:24Z</time></trkpt><trkpt lat="44.22783755600427" lon="11.427822621568323"><ele>623.0</ele><time>2026-04-25T10:19:25Z</time></trkpt><trkpt lat="44.22774819461763" lon="11.427908521647442"><ele>621.0</ele><time>2026-04-25T10:19:26Z</time></trkpt><trkpt lat="44.2276662979218" lon="11.427988512200509"><ele>619.0</ele><time>2026-04-25T10:19:27.001Z</time></trkpt><trkpt lat="44.22759285814877" lon="11.428065327083578"><ele>617.0</ele><time>2026-04-25T10:19:28.001Z</time></trkpt><trkpt lat="44.227520438150535" lon="11.428156065322229"><ele>617.0</ele><time>2026-04-25T10:19:29.001Z</time></trkpt><trkpt lat="44.22745422139045" lon="11.42825608905223"><ele>617.0</ele><time>2026-04-25T10:19:30.001Z</time></trkpt><trkpt lat="44.227396481145746" lon="11.428370870660167"><ele>617.0</ele><time>2026-04-25T10:19:31.001Z</time></trkpt><trkpt lat="44.227342691671275" lon="11.428486697590424"><ele>617.0</ele><time>2026-04-25T10:19:32.001Z</time></trkpt><trkpt lat="44.227302418476256" lon="11.428618753965758"><ele>617.0</ele><time>2026-04-25T10:19:33.001Z</time></trkpt><trkpt lat="44.22727407867396" lon="11.428756802607056"><ele>611.75</ele><time>2026-04-25T10:19:34.001Z</time></trkpt><trkpt lat="44.22726776924597" lon="11.428908792962492"><ele>606.5</ele><time>2026-04-25T10:19:35.001Z</time></trkpt><trkpt lat="44.22725662066908" lon="11.429065559661899"><ele>601.25</ele><time>2026-04-25T10:19:36.001Z</time></trkpt><trkpt lat="44.227214768022044" lon="11.42922470938316"><ele>596.0</ele><time>2026-04-25T10:19:37.001Z</time></trkpt><trkpt lat="44.2271678723709" lon="11.429398348873521"><ele>596.0</ele><time>2026-04-25T10:19:38.001Z</time></trkpt><trkpt lat="44.2271127507275" lon="11.429565562894117"><ele>596.0</ele><time>2026-04-25T10:19:39.001Z</time></trkpt><trkpt lat="44.227057106535334" lon="11.4297440259908"><ele>596.0</ele><time>2026-04-25T10:19:40.001Z</time></trkpt><trkpt lat="44.22699765110985" lon="11.42989949403475"><ele>596.0</ele><time>2026-04-25T10:19:41.001Z</time></trkpt><trkpt lat="44.22693145328185" lon="11.430053498975724"><ele>595.75</ele><time>2026-04-25T10:19:42.001Z</time></trkpt><trkpt lat="44.22685083462674" lon="11.430181001044362"><ele>595.5</ele><time>2026-04-25T10:19:43.001Z</time></trkpt><trkpt lat="44.22677085935925" lon="11.430323709810173"><ele>595.25</ele><time>2026-04-25T10:19:44.001Z</time></trkpt><trkpt lat="44.22670234942507" lon="11.430456075477254"><ele>595.0</ele><time>2026-04-25T10:19:45.001Z</time></trkpt><trkpt lat="44.22663172586324" lon="11.430562785701154"><ele>595.0</ele><time>2026-04-25T10:19:46.001Z</time></trkpt><trkpt lat="44.226549053213105" lon="11.430678215333899"><ele>595.0</ele><time>2026-04-25T10:19:47.001Z</time></trkpt><trkpt lat="44.22644900539448" lon="11.430804829404346"><ele>595.0</ele><time>2026-04-25T10:19:48.001Z</time></trkpt><trkpt lat="44.226353047196895" lon="11.430953607474333"><ele>595.0</ele><time>2026-04-25T10:19:49.001Z</time></trkpt><trkpt lat="44.22625998741646" lon="11.431090700022922"><ele>593.5</ele><time>2026-04-25T10:19:50.001Z</time></trkpt><trkpt lat="44.22617875819369" lon="11.43122330709415"><ele>592.0</ele><time>2026-04-25T10:19:51.001Z</time></trkpt><trkpt lat="44.22610611266817" lon="11.431355498143065"><ele>590.5</ele><time>2026-04-25T10:19:52.001Z</time></trkpt><trkpt lat="44.22602717037596" lon="11.431479112597147"><ele>589.0</ele><time>2026-04-25T10:19:53.001Z</time></trkpt><trkpt lat="44.22592317821634" lon="11.431557448917347"><ele>589.0</ele><time>2026-04-25T10:19:54.001Z</time></trkpt><trkpt lat="44.225823721486584" lon="11.431656860392795"><ele>589.0</ele><time>2026-04-25T10:19:55.001Z</time></trkpt><trkpt lat="44.225726643335825" lon="11.431769166461725"><ele>589.0</ele><time>2026-04-25T10:19:56.001Z</time></trkpt><trkpt lat="44.225617621568425" lon="11.431851317693544"><ele>589.0</ele><time>2026-04-25T10:19:57.001Z</time></trkpt><trkpt lat="44.22550216185553" lon="11.431927808732356"><ele>588.25</ele><time>2026-04-25T10:19:58.001Z</time></trkpt><trkpt lat="44.22537598220848" lon="11.431974026333332"><ele>587.5</ele><time>2026-04-25T10:19:59.001Z</time></trkpt><trkpt lat="44.2252548786379" lon="11.432037734571347"><ele>586.75</ele><time>2026-04-25T10:20:00.001Z</time></trkpt><trkpt lat="44.225176515960186" lon="11.43213650159247"><ele>586.0</ele><time>2026-04-25T10:20:01.001Z</time></trkpt><trkpt lat="44.225071194448866" lon="11.432239086125813"><ele>586.0</ele><time>2026-04-25T10:20:02.001Z</time></trkpt><trkpt lat="44.22498999187918" lon="11.432305753790464"><ele>586.0</ele><time>2026-04-25T10:20:03.001Z</time></trkpt><trkpt lat="44.22488086589651" lon="11.432388623462414"><ele>586.0</ele><time>2026-04-25T10:20:04.001Z</time></trkpt><trkpt lat="44.22479531123221" lon="11.432473481033181"><ele>586.0</ele><time>2026-04-25T10:20:05.001Z</time></trkpt><trkpt lat="44.2247290083291" lon="11.432562000966033"><ele>586.0</ele><time>2026-04-25T10:20:06.001Z</time></trkpt><trkpt lat="44.22468748545195" lon="11.432665300395838"><ele>584.6</ele><time>2026-04-25T10:20:07.001Z</time></trkpt><trkpt lat="44.224635708618656" lon="11.43276936399601"><ele>583.2</ele><time>2026-04-25T10:20:08.001Z</time></trkpt><trkpt lat="44.224594273227254" lon="11.432895352377878"><ele>581.8</ele><time>2026-04-25T10:20:09.001Z</time></trkpt><trkpt lat="44.22455832681137" lon="11.43301603207455"><ele>580.4</ele><time>2026-04-25T10:20:10.001Z</time></trkpt><trkpt lat="44.22454450862014" lon="11.433157479534588"><ele>579.0</ele><time>2026-04-25T10:20:11.001Z</time></trkpt><trkpt lat="44.22457382025493" lon="11.433283464850234"><ele>579.0</ele><time>2026-04-25T10:20:12.001Z</time></trkpt><trkpt lat="44.22456041669707" lon="11.433381361650577"><ele>579.0</ele><time>2026-04-25T10:20:13.001Z</time></trkpt><trkpt lat="44.224574652356054" lon="11.433516097896346"><ele>579.0</ele><time>2026-04-25T10:20:15.001Z</time></trkpt><trkpt lat="44.22454933609243" lon="11.433629247177258"><ele>579.0</ele><time>2026-04-25T10:20:17.001Z</time></trkpt><trkpt lat="44.22443847261275" lon="11.433653803994211"><ele>579.0</ele><time>2026-04-25T10:20:19.001Z</time></trkpt><trkpt lat="44.224342612512274" lon="11.433607509239314"><ele>579.0</ele><time>2026-04-25T10:20:21.002Z</time></trkpt><trkpt lat="44.22422968680484" lon="11.433577087975399"><ele>579.0</ele><time>2026-04-25T10:20:23.002Z</time></trkpt><trkpt lat="44.224165319912764" lon="11.433598665248203"><ele>579.0</ele><time>2026-04-25T10:20:24.002Z</time></trkpt><trkpt lat="44.224086907364544" lon="11.43368687056594"><ele>579.0</ele><time>2026-04-25T10:20:26.002Z</time></trkpt><trkpt lat="44.224024349514735" lon="11.433697125974394"><ele>579.0</ele><time>2026-04-25T10:20:27.002Z</time></trkpt><trkpt lat="44.22393848660744" lon="11.43362576994185"><ele>579.0</ele><time>2026-04-25T10:20:29.002Z</time></trkpt><trkpt lat="44.22394628585767" lon="11.433442722225758"><ele>579.0</ele><time>2026-04-25T10:20:31.002Z</time></trkpt><trkpt lat="44.22398870404875" lon="11.433361166687138"><ele>579.0</ele><time>2026-04-25T10:20:32.002Z</time></trkpt><trkpt lat="44.22403515090032" lon="11.43316278316292"><ele>579.0</ele><time>2026-04-25T10:20:34.002Z</time></trkpt><trkpt lat="44.22405599956823" lon="11.433045433886244"><ele>579.0</ele><time>2026-04-25T10:20:35.002Z</time></trkpt><trkpt lat="44.224052739105254" lon="11.43291972910236"><ele>579.0</ele><time>2026-04-25T10:20:36.002Z</time></trkpt><trkpt lat="44.2240402850096" lon="11.432803578390915"><ele>578.0</ele><time>2026-04-25T10:20:37.002Z</time></trkpt><trkpt lat="44.22401300475869" lon="11.432684656879537"><ele>577.0</ele><time>2026-04-25T10:20:38.002Z</time></trkpt><trkpt lat="44.22397597536352" lon="11.432564261302964"><ele>576.0</ele><time>2026-04-25T10:20:39.002Z</time></trkpt><trkpt lat="44.22393250388953" lon="11.432443582504447"><ele>575.0</ele><time>2026-04-25T10:20:40.002Z</time></trkpt><trkpt lat="44.223897503609074" lon="11.43232711523132"><ele>574.0</ele><time>2026-04-25T10:20:41.002Z</time></trkpt><trkpt lat="44.223881360922014" lon="11.432204485025457"><ele>569.0</ele><time>2026-04-25T10:20:42.002Z</time></trkpt><trkpt lat="44.22387859590328" lon="11.43207028076767"><ele>564.0</ele><time>2026-04-25T10:20:43.002Z</time></trkpt><trkpt lat="44.223874405574335" lon="11.431931146576437"><ele>559.0</ele><time>2026-04-25T10:20:44.002Z</time></trkpt><trkpt lat="44.223874367944724" lon="11.431781823339989"><ele>554.0</ele><time>2026-04-25T10:20:45.002Z</time></trkpt><trkpt lat="44.22386867286525" lon="11.431620183253541"><ele>549.0</ele><time>2026-04-25T10:20:46.002Z</time></trkpt><trkpt lat="44.223870895519816" lon="11.431458208140217"><ele>547.8</ele><time>2026-04-25T10:20:47.002Z</time></trkpt><trkpt lat="44.22386532891412" lon="11.43130452849026"><ele>546.5999999999999</ele><time>2026-04-25T10:20:48.002Z</time></trkpt><trkpt lat="44.22386017213529" lon="11.431171028634623"><ele>545.4</ele><time>2026-04-25T10:20:49.002Z</time></trkpt><trkpt lat="44.22385147900332" lon="11.43102877177006"><ele>544.1999999999999</ele><time>2026-04-25T10:20:50.002Z</time></trkpt><trkpt lat="44.223828168122914" lon="11.430866197596902"><ele>543.0</ele><time>2026-04-25T10:20:51.002Z</time></trkpt><trkpt lat="44.223807026096345" lon="11.430704260523425"><ele>543.0</ele><time>2026-04-25T10:20:52.002Z</time></trkpt><trkpt lat="44.22378496671189" lon="11.430559427008594"><ele>543.0</ele><time>2026-04-25T10:20:53.002Z</time></trkpt><trkpt lat="44.2237646746707" lon="11.430401275659683"><ele>543.0</ele><time>2026-04-25T10:20:54Z</time></trkpt><trkpt lat="44.22374231441619" lon="11.430244419685195"><ele>543.0</ele><time>2026-04-25T10:20:55Z</time></trkpt><trkpt lat="44.223715038429155" lon="11.430090788555077"><ele>543.0</ele><time>2026-04-25T10:20:56Z</time></trkpt><trkpt lat="44.223684393110425" lon="11.429944580764715"><ele>541.8</ele><time>2026-04-25T10:20:57Z</time></trkpt><trkpt lat="44.22367206631009" lon="11.429781065434627"><ele>540.5999999999999</ele><time>2026-04-25T10:20:58Z</time></trkpt><trkpt lat="44.223662015907884" lon="11.42963245391707"><ele>539.4000000000001</ele><time>2026-04-25T10:20:59Z</time></trkpt><trkpt lat="44.223643483594444" lon="11.429487038156106"><ele>538.2</ele><time>2026-04-25T10:21:00Z</time></trkpt><trkpt lat="44.22361509916855" lon="11.42936003836779"><ele>537.0</ele><time>2026-04-25T10:21:01Z</time></trkpt><trkpt lat="44.22358045838456" lon="11.429249019623485"><ele>536.0</ele><time>2026-04-25T10:21:02Z</time></trkpt><trkpt lat="44.223552994878354" lon="11.429134253414622"><ele>535.0</ele><time>2026-04-25T10:21:03Z</time></trkpt><trkpt lat="44.223547887814064" lon="11.429021055722556"><ele>534.0</ele><time>2026-04-25T10:21:04Z</time></trkpt><trkpt lat="44.223572466486445" lon="11.42890782404254"><ele>533.0</ele><time>2026-04-25T10:21:05Z</time></trkpt><trkpt lat="44.223589228033056" lon="11.428772210988244"><ele>532.0</ele><time>2026-04-25T10:21:06Z</time></trkpt><trkpt lat="44.22361158165616" lon="11.42864348859715"><ele>531.0</ele><time>2026-04-25T10:21:07Z</time></trkpt><trkpt lat="44.22360897962543" lon="11.428504468139135"><ele>529.4</ele><time>2026-04-25T10:21:08Z</time></trkpt><trkpt lat="44.22360978186461" lon="11.428366314216785"><ele>527.8</ele><time>2026-04-25T10:21:09Z</time></trkpt><trkpt lat="44.22364429717066" lon="11.428253167705792"><ele>526.1999999999999</ele><time>2026-04-25T10:21:10Z</time></trkpt><trkpt lat="44.22369257817523" lon="11.428154827543812"><ele>524.6</ele><time>2026-04-25T10:21:11Z</time></trkpt><trkpt lat="44.22372542951291" lon="11.428029210635549"><ele>523.0</ele><time>2026-04-25T10:21:12Z</time></trkpt><trkpt lat="44.2237778152426" lon="11.427930560834255"><ele>521.6666666666667</ele><time>2026-04-25T10:21:13Z</time></trkpt><trkpt lat="44.22381363508548" lon="11.427815188237732"><ele>520.3333333333334</ele><time>2026-04-25T10:21:14Z</time></trkpt><trkpt lat="44.22386219571001" lon="11.427701273336089"><ele>519.0</ele><time>2026-04-25T10:21:15Z</time></trkpt><trkpt lat="44.2239125636475" lon="11.427638070564539"><ele>517.6666666666666</ele><time>2026-04-25T10:21:16Z</time></trkpt><trkpt lat="44.223936276628386" lon="11.427550927583372"><ele>516.3333333333333</ele><time>2026-04-25T10:21:17Z</time></trkpt><trkpt lat="44.22397651357921" lon="11.427380912155227"><ele>515.0</ele><time>2026-04-25T10:21:19Z</time></trkpt><trkpt lat="44.223954282207615" lon="11.427247788129572"><ele>513.8</ele><time>2026-04-25T10:21:20Z</time></trkpt><trkpt lat="44.22391164159761" lon="11.427089727391158"><ele>512.6</ele><time>2026-04-25T10:21:21.001Z</time></trkpt><trkpt lat="44.22386969222458" lon="11.426949100723498"><ele>511.4</ele><time>2026-04-25T10:21:22.001Z</time></trkpt><trkpt lat="44.22381562028425" lon="11.426826926201041"><ele>510.2</ele><time>2026-04-25T10:21:23.001Z</time></trkpt><trkpt lat="44.22377096812102" lon="11.426707603390625"><ele>509.0</ele><time>2026-04-25T10:21:24.001Z</time></trkpt><trkpt lat="44.22373203280819" lon="11.426612487038527"><ele>508.99999999999994</ele><time>2026-04-25T10:21:25.001Z</time></trkpt><trkpt lat="44.22369292459611" lon="11.426532336368151"><ele>509.0</ele><time>2026-04-25T10:21:26.001Z</time></trkpt><trkpt lat="44.223669545091454" lon="11.426430733830184"><ele>509.0</ele><time>2026-04-25T10:21:27.001Z</time></trkpt><trkpt lat="44.22367767424587" lon="11.426316542551184"><ele>509.0</ele><time>2026-04-25T10:21:28.001Z</time></trkpt><trkpt lat="44.22373675997872" lon="11.426212782163807"><ele>508.99999999999994</ele><time>2026-04-25T10:21:29.001Z</time></trkpt><trkpt lat="44.223759157822705" lon="11.426098243645848"><ele>509.0</ele><time>2026-04-25T10:21:30.001Z</time></trkpt><trkpt lat="44.22380745829208" lon="11.425977072290188"><ele>509.3333333333333</ele><time>2026-04-25T10:21:31.001Z</time></trkpt><trkpt lat="44.22381450233843" lon="11.425870519954282"><ele>509.66666666666663</ele><time>2026-04-25T10:21:32.001Z</time></trkpt><trkpt lat="44.223797335755364" lon="11.425773045039449"><ele>510.0</ele><time>2026-04-25T10:21:33.001Z</time></trkpt><trkpt lat="44.223754461781716" lon="11.425684944321064"><ele>510.33333333333337</ele><time>2026-04-25T10:21:34.001Z</time></trkpt><trkpt lat="44.2236773741176" lon="11.425606688852428"><ele>510.6666666666667</ele><time>2026-04-25T10:21:35.001Z</time></trkpt><trkpt lat="44.22360820726472" lon="11.425558030004515"><ele>511.0</ele><time>2026-04-25T10:21:36.001Z</time></trkpt><trkpt lat="44.22353421639564" lon="11.425546181732392"><ele>511.0</ele><time>2026-04-25T10:21:37.001Z</time></trkpt><trkpt lat="44.22343158074949" lon="11.425571065665478"><ele>511.0</ele><time>2026-04-25T10:21:38.001Z</time></trkpt><trkpt lat="44.22332736227053" lon="11.425629758784885"><ele>511.0</ele><time>2026-04-25T10:21:39.001Z</time></trkpt><trkpt lat="44.223231130887655" lon="11.425705779033004"><ele>511.0</ele><time>2026-04-25T10:21:40.001Z</time></trkpt><trkpt lat="44.22314274193453" lon="11.425732097144417"><ele>511.0</ele><time>2026-04-25T10:21:41.001Z</time></trkpt><trkpt lat="44.223048958847464" lon="11.425698101266537"><ele>510.20000000000005</ele><time>2026-04-25T10:21:42.001Z</time></trkpt><trkpt lat="44.22296223853637" lon="11.425671298315473"><ele>509.40000000000003</ele><time>2026-04-25T10:21:43.001Z</time></trkpt><trkpt lat="44.22287752595023" lon="11.425640919740625"><ele>508.6</ele><time>2026-04-25T10:21:44.001Z</time></trkpt><trkpt lat="44.2227684688935" lon="11.425572476763064"><ele>507.8</ele><time>2026-04-25T10:21:45.001Z</time></trkpt><trkpt lat="44.22265964003139" lon="11.425496191908197"><ele>507.0</ele><time>2026-04-25T10:21:46.001Z</time></trkpt><trkpt lat="44.222547364087525" lon="11.425438831423818"><ele>507.0</ele><time>2026-04-25T10:21:47.001Z</time></trkpt><trkpt lat="44.222452306725415" lon="11.425374825605441"><ele>507.00000000000006</ele><time>2026-04-25T10:21:48.001Z</time></trkpt><trkpt lat="44.22236516794524" lon="11.42533746160361"><ele>507.00000000000006</ele><time>2026-04-25T10:21:49.001Z</time></trkpt><trkpt lat="44.22228461417214" lon="11.425345131882562"><ele>507.0</ele><time>2026-04-25T10:21:50.001Z</time></trkpt><trkpt lat="44.22220864935259" lon="11.425410836594034"><ele>507.0</ele><time>2026-04-25T10:21:51.001Z</time></trkpt><trkpt lat="44.22215788237972" lon="11.425520731647516"><ele>507.0</ele><time>2026-04-25T10:21:52.001Z</time></trkpt><trkpt lat="44.22209468749376" lon="11.425645535307748"><ele>507.0</ele><time>2026-04-25T10:21:53.001Z</time></trkpt><trkpt lat="44.22203260651247" lon="11.425803613368455"><ele>507.0</ele><time>2026-04-25T10:21:54.001Z</time></trkpt><trkpt lat="44.22194499139105" lon="11.426035372975356"><ele>507.0</ele><time>2026-04-25T10:21:55.001Z</time></trkpt><trkpt lat="44.22187319324459" lon="11.426218450031781"><ele>505.20000000000005</ele><time>2026-04-25T10:21:56.001Z</time></trkpt><trkpt lat="44.22182075598357" lon="11.426403130869781"><ele>503.40000000000003</ele><time>2026-04-25T10:21:58.001Z</time></trkpt><trkpt lat="44.22177873763104" lon="11.426515015930248"><ele>501.59999999999997</ele><time>2026-04-25T10:21:59.001Z</time></trkpt><trkpt lat="44.22174130144027" lon="11.42661066982054"><ele>499.79999999999995</ele><time>2026-04-25T10:22:00.001Z</time></trkpt><trkpt lat="44.22169483921215" lon="11.426683032357912"><ele>498.0</ele><time>2026-04-25T10:22:01.001Z</time></trkpt><trkpt lat="44.221631457840004" lon="11.426746963807991"><ele>498.0</ele><time>2026-04-25T10:22:02.001Z</time></trkpt><trkpt lat="44.221543640219714" lon="11.426763145015569"><ele>498.0</ele><time>2026-04-25T10:22:03.001Z</time></trkpt><trkpt lat="44.22147267848179" lon="11.426760048859284"><ele>498.0</ele><time>2026-04-25T10:22:04.001Z</time></trkpt><trkpt lat="44.22137361344781" lon="11.42675951885426"><ele>498.0</ele><time>2026-04-25T10:22:05.001Z</time></trkpt><trkpt lat="44.22127798548144" lon="11.42674193394854"><ele>498.0</ele><time>2026-04-25T10:22:06.001Z</time></trkpt><trkpt lat="44.22119072983873" lon="11.426697662662404"><ele>498.0</ele><time>2026-04-25T10:22:07.001Z</time></trkpt><trkpt lat="44.2210986260852" lon="11.426664678210662"><ele>497.6666666666667</ele><time>2026-04-25T10:22:08.001Z</time></trkpt><trkpt lat="44.22101551207741" lon="11.426633066468934"><ele>497.33333333333337</ele><time>2026-04-25T10:22:09.001Z</time></trkpt><trkpt lat="44.220930162024885" lon="11.426619865881044"><ele>497.0</ele><time>2026-04-25T10:22:10.001Z</time></trkpt><trkpt lat="44.22086051337888" lon="11.426643065917975"><ele>496.6666666666667</ele><time>2026-04-25T10:22:11.001Z</time></trkpt><trkpt lat="44.22078860484929" lon="11.426694263908578"><ele>496.33333333333337</ele><time>2026-04-25T10:22:12.001Z</time></trkpt><trkpt lat="44.220736924939835" lon="11.426773700787079"><ele>496.0</ele><time>2026-04-25T10:22:13.001Z</time></trkpt><trkpt lat="44.220706565293426" lon="11.426885454988344"><ele>496.0</ele><time>2026-04-25T10:22:14.001Z</time></trkpt><trkpt lat="44.22072078192725" lon="11.427024441545063"><ele>496.0</ele><time>2026-04-25T10:22:15.001Z</time></trkpt><trkpt lat="44.22071044110417" lon="11.427146587133551"><ele>496.0</ele><time>2026-04-25T10:22:16.001Z</time></trkpt><trkpt lat="44.22073105359961" lon="11.427262586257317"><ele>496.0</ele><time>2026-04-25T10:22:17.001Z</time></trkpt><trkpt lat="44.22078248264767" lon="11.427397189376242"><ele>496.0</ele><time>2026-04-25T10:22:18.001Z</time></trkpt><trkpt lat="44.22088441395453" lon="11.427544302800303"><ele>494.4</ele><time>2026-04-25T10:22:19.001Z</time></trkpt><trkpt lat="44.22096839802554" lon="11.42771708748704"><ele>492.8</ele><time>2026-04-25T10:22:20.002Z</time></trkpt><trkpt lat="44.22103556829415" lon="11.427853286703742"><ele>491.19999999999993</ele><time>2026-04-25T10:22:21.002Z</time></trkpt><trkpt lat="44.2210879341383" lon="11.42796815423526"><ele>489.59999999999997</ele><time>2026-04-25T10:22:22.002Z</time></trkpt><trkpt lat="44.22111478442156" lon="11.428052997591793"><ele>488.0</ele><time>2026-04-25T10:22:23.002Z</time></trkpt><trkpt lat="44.22110965239948" lon="11.428154985348842"><ele>487.2</ele><time>2026-04-25T10:22:24.002Z</time></trkpt><trkpt lat="44.22108435347014" lon="11.428246069103311"><ele>486.4</ele><time>2026-04-25T10:22:25.002Z</time></trkpt><trkpt lat="44.2210197163462" lon="11.428312338459019"><ele>485.59999999999997</ele><time>2026-04-25T10:22:26.002Z</time></trkpt><trkpt lat="44.220962203527066" lon="11.428447068677666"><ele>484.79999999999995</ele><time>2026-04-25T10:22:27.002Z</time></trkpt><trkpt lat="44.22089357901857" lon="11.428571737891984"><ele>484.0</ele><time>2026-04-25T10:22:28.002Z</time></trkpt><trkpt lat="44.220827955361095" lon="11.428698146130218"><ele>484.0</ele><time>2026-04-25T10:22:29.002Z</time></trkpt><trkpt lat="44.220769012628985" lon="11.428765926472801"><ele>484.0</ele><time>2026-04-25T10:22:30.002Z</time></trkpt><trkpt lat="44.22071196454455" lon="11.428815527174246"><ele>484.0</ele><time>2026-04-25T10:22:31.002Z</time></trkpt><trkpt lat="44.220571764290206" lon="11.428891536491449"><ele>484.0</ele><time>2026-04-25T10:22:33.002Z</time></trkpt><trkpt lat="44.22048598714822" lon="11.428853114952885"><ele>484.0</ele><time>2026-04-25T10:22:34.002Z</time></trkpt><trkpt lat="44.22038938277332" lon="11.428847966123413"><ele>483.6</ele><time>2026-04-25T10:22:35.002Z</time></trkpt><trkpt lat="44.220292384279226" lon="11.428810511114822"><ele>483.2</ele><time>2026-04-25T10:22:36.002Z</time></trkpt><trkpt lat="44.22020107100789" lon="11.428789674876498"><ele>482.80000000000007</ele><time>2026-04-25T10:22:37.002Z</time></trkpt><trkpt lat="44.22009896043503" lon="11.428768195548193"><ele>482.40000000000003</ele><time>2026-04-25T10:22:38.002Z</time></trkpt><trkpt lat="44.2200000125458" lon="11.428746019274639"><ele>482.0</ele><time>2026-04-25T10:22:39.002Z</time></trkpt><trkpt lat="44.219928641008174" lon="11.428724862283982"><ele>482.0</ele><time>2026-04-25T10:22:40.002Z</time></trkpt><trkpt lat="44.219836078577046" lon="11.428757702968865"><ele>482.00000000000006</ele><time>2026-04-25T10:22:41.002Z</time></trkpt><trkpt lat="44.21972439314553" lon="11.42883127420618"><ele>482.00000000000006</ele><time>2026-04-25T10:22:42.002Z</time></trkpt><trkpt lat="44.21961759017241" lon="11.42889111218985"><ele>482.0</ele><time>2026-04-25T10:22:43.002Z</time></trkpt><trkpt lat="44.219517452928834" lon="11.4289473445046"><ele>482.0</ele><time>2026-04-25T10:22:44.002Z</time></trkpt><trkpt lat="44.21940935548681" lon="11.429010839098254"><ele>480.20000000000005</ele><time>2026-04-25T10:22:45.002Z</time></trkpt><trkpt lat="44.21931512005935" lon="11.429086105167968"><ele>478.40000000000003</ele><time>2026-04-25T10:22:46.002Z</time></trkpt><trkpt lat="44.21923109528405" lon="11.429173799297123"><ele>476.59999999999997</ele><time>2026-04-25T10:22:47.002Z</time></trkpt><trkpt lat="44.21916715218817" lon="11.429295937091291"><ele>474.79999999999995</ele><time>2026-04-25T10:22:48.002Z</time></trkpt><trkpt lat="44.21910015738294" lon="11.429421298758927"><ele>473.0</ele><time>2026-04-25T10:22:49.002Z</time></trkpt><trkpt lat="44.2190225193434" lon="11.429510585794247"><ele>472.79999999999995</ele><time>2026-04-25T10:22:50.002Z</time></trkpt><trkpt lat="44.2189676559678" lon="11.429623691991344"><ele>472.59999999999997</ele><time>2026-04-25T10:22:51.002Z</time></trkpt><trkpt lat="44.218884156367274" lon="11.429676992364861"><ele>472.40000000000003</ele><time>2026-04-25T10:22:52.002Z</time></trkpt><trkpt lat="44.2188156379114" lon="11.4297422455209"><ele>472.20000000000005</ele><time>2026-04-25T10:22:53.002Z</time></trkpt><trkpt lat="44.21872461120489" lon="11.429780910432273"><ele>472.0</ele><time>2026-04-25T10:22:54.002Z</time></trkpt><trkpt lat="44.21862807179399" lon="11.429793565376254"><ele>470.5</ele><time>2026-04-25T10:22:55.002Z</time></trkpt><trkpt lat="44.21851804473193" lon="11.42978753479294"><ele>469.0</ele><time>2026-04-25T10:22:56.002Z</time></trkpt><trkpt lat="44.21839652614586" lon="11.42976960580289"><ele>467.5</ele><time>2026-04-25T10:22:57.002Z</time></trkpt><trkpt lat="44.21827133544307" lon="11.429754013675533"><ele>466.0</ele><time>2026-04-25T10:22:58.002Z</time></trkpt><trkpt lat="44.218138981003236" lon="11.429737862921305"><ele>465.25</ele><time>2026-04-25T10:22:59.002Z</time></trkpt><trkpt lat="44.218019581301284" lon="11.42971836146841"><ele>464.5</ele><time>2026-04-25T10:23:00.001Z</time></trkpt><trkpt lat="44.21790426080393" lon="11.4297064896846"><ele>463.75</ele><time>2026-04-25T10:23:01.001Z</time></trkpt><trkpt lat="44.21778413582757" lon="11.429715477711294"><ele>463.0</ele><time>2026-04-25T10:23:02.001Z</time></trkpt><trkpt lat="44.21764254432112" lon="11.429754577748097"><ele>463.0</ele><time>2026-04-25T10:23:03.001Z</time></trkpt><trkpt lat="44.217544115906" lon="11.429811284568633"><ele>462.99999999999994</ele><time>2026-04-25T10:23:04.001Z</time></trkpt><trkpt lat="44.21744792635344" lon="11.429902690252609"><ele>462.99999999999994</ele><time>2026-04-25T10:23:05.001Z</time></trkpt><trkpt lat="44.21737422426511" lon="11.42997676556467"><ele>463.0</ele><time>2026-04-25T10:23:06.001Z</time></trkpt><trkpt lat="44.217284343455326" lon="11.430075689668199"><ele>463.0</ele><time>2026-04-25T10:23:07.001Z</time></trkpt><trkpt lat="44.2171834354957" lon="11.43017450610984"><ele>464.25</ele><time>2026-04-25T10:23:08.001Z</time></trkpt><trkpt lat="44.21713399126144" lon="11.430314678401734"><ele>465.5</ele><time>2026-04-25T10:23:09Z</time></trkpt><trkpt lat="44.217055723302" lon="11.43045843854746"><ele>466.75</ele><time>2026-04-25T10:23:10Z</time></trkpt><trkpt lat="44.216944142004344" lon="11.430557682369196"><ele>468.0</ele><time>2026-04-25T10:23:11Z</time></trkpt><trkpt lat="44.216851614936374" lon="11.430692018984262"><ele>468.0</ele><time>2026-04-25T10:23:12Z</time></trkpt><trkpt lat="44.21677545477119" lon="11.430861163102135"><ele>468.0</ele><time>2026-04-25T10:23:13Z</time></trkpt><trkpt lat="44.21668503346055" lon="11.431020509323139"><ele>468.0</ele><time>2026-04-25T10:23:14Z</time></trkpt><trkpt lat="44.21659554074441" lon="11.431185428797498"><ele>468.0</ele><time>2026-04-25T10:23:15Z</time></trkpt><trkpt lat="44.216537224589096" lon="11.43133770043912"><ele>472.5</ele><time>2026-04-25T10:23:16Z</time></trkpt><trkpt lat="44.21647604339781" lon="11.431480717824288"><ele>477.0</ele><time>2026-04-25T10:23:17Z</time></trkpt><trkpt lat="44.21640188163791" lon="11.431603860392176"><ele>481.5</ele><time>2026-04-25T10:23:18Z</time></trkpt><trkpt lat="44.21631766998731" lon="11.431686144294453"><ele>486.0</ele><time>2026-04-25T10:23:19Z</time></trkpt><trkpt lat="44.21621714569257" lon="11.431767218542438"><ele>486.0</ele><time>2026-04-25T10:23:20Z</time></trkpt><trkpt lat="44.21610488867251" lon="11.431845067361175"><ele>486.0</ele><time>2026-04-25T10:23:21Z</time></trkpt><trkpt lat="44.21600134219775" lon="11.431942555020818"><ele>486.0</ele><time>2026-04-25T10:23:22Z</time></trkpt><trkpt lat="44.21591259743703" lon="11.432060200596382"><ele>486.0</ele><time>2026-04-25T10:23:23Z</time></trkpt><trkpt lat="44.21583638633244" lon="11.432192798298729"><ele>485.0</ele><time>2026-04-25T10:23:24.001Z</time></trkpt><trkpt lat="44.21575387306991" lon="11.43232379824628"><ele>484.0</ele><time>2026-04-25T10:23:25.001Z</time></trkpt><trkpt lat="44.21564978820922" lon="11.432430902484255"><ele>483.0</ele><time>2026-04-25T10:23:26.001Z</time></trkpt><trkpt lat="44.21553531831452" lon="11.432532292674852"><ele>482.0</ele><time>2026-04-25T10:23:27.001Z</time></trkpt><trkpt lat="44.215430123841365" lon="11.43262215151702"><ele>486.25</ele><time>2026-04-25T10:23:28.001Z</time></trkpt><trkpt lat="44.215322437133885" lon="11.432677766085545"><ele>490.5</ele><time>2026-04-25T10:23:29.001Z</time></trkpt><trkpt lat="44.21521085637202" lon="11.432682668627436"><ele>494.75</ele><time>2026-04-25T10:23:30.001Z</time></trkpt><trkpt lat="44.21510103833742" lon="11.432662912532033"><ele>499.0</ele><time>2026-04-25T10:23:31.001Z</time></trkpt><trkpt lat="44.2149991849747" lon="11.43258384992012"><ele>499.0</ele><time>2026-04-25T10:23:32.001Z</time></trkpt><trkpt lat="44.21489116709873" lon="11.432499586063102"><ele>499.0</ele><time>2026-04-25T10:23:33.001Z</time></trkpt><trkpt lat="44.214803313745115" lon="11.432436601878779"><ele>499.0</ele><time>2026-04-25T10:23:34.001Z</time></trkpt><trkpt lat="44.214726898035096" lon="11.43236473019691"><ele>499.0</ele><time>2026-04-25T10:23:35.001Z</time></trkpt><trkpt lat="44.21464404197793" lon="11.43233611724335"><ele>499.0</ele><time>2026-04-25T10:23:36.001Z</time></trkpt><trkpt lat="44.21456046835567" lon="11.432299126229324"><ele>501.4</ele><time>2026-04-25T10:23:37.001Z</time></trkpt><trkpt lat="44.21445820244499" lon="11.432369537775227"><ele>503.79999999999995</ele><time>2026-04-25T10:23:38.001Z</time></trkpt><trkpt lat="44.21437383717442" lon="11.432425251851408"><ele>506.20000000000005</ele><time>2026-04-25T10:23:39.001Z</time></trkpt><trkpt lat="44.21428426199201" lon="11.432446641037677"><ele>508.6</ele><time>2026-04-25T10:23:40.001Z</time></trkpt><trkpt lat="44.21419874135463" lon="11.432455872554085"><ele>511.0</ele><time>2026-04-25T10:23:41.001Z</time></trkpt><trkpt lat="44.21413529200994" lon="11.43243278386195"><ele>511.00000000000006</ele><time>2026-04-25T10:23:42.001Z</time></trkpt><trkpt lat="44.21406485830031" lon="11.432400443069767"><ele>511.0</ele><time>2026-04-25T10:23:44.001Z</time></trkpt><trkpt lat="44.214001763692636" lon="11.432398118105512"><ele>511.0</ele><time>2026-04-25T10:27:12.001Z</time></trkpt><trkpt lat="44.21392957024438" lon="11.432482375095447"><ele>511.0</ele><time>2026-04-25T10:28:02.001Z</time></trkpt><trkpt lat="44.213844661073296" lon="11.432582509114418"><ele>511.00000000000006</ele><time>2026-04-25T10:28:04.001Z</time></trkpt><trkpt lat="44.21376499672381" lon="11.43260199299333"><ele>511.0</ele><time>2026-04-25T10:28:05.001Z</time></trkpt><trkpt lat="44.213690058585485" lon="11.432581382986157"><ele>515.6666666666667</ele><time>2026-04-25T10:28:06.001Z</time></trkpt><trkpt lat="44.21362322205298" lon="11.43255727420257"><ele>520.3333333333334</ele><time>2026-04-25T10:28:07.001Z</time></trkpt><trkpt lat="44.21355854203695" lon="11.4325327585995"><ele>525.0</ele><time>2026-04-25T10:28:08.001Z</time></trkpt><trkpt lat="44.2134941496754" lon="11.432518128505812"><ele>529.6666666666666</ele><time>2026-04-25T10:28:09.001Z</time></trkpt><trkpt lat="44.21342965156084" lon="11.432516905567686"><ele>534.3333333333333</ele><time>2026-04-25T10:28:10.001Z</time></trkpt><trkpt lat="44.21333491163406" lon="11.432624072935816"><ele>539.0</ele><time>2026-04-25T10:28:12.001Z</time></trkpt><trkpt lat="44.21328403406637" lon="11.43270195495011"><ele>539.0</ele><time>2026-04-25T10:28:13.001Z</time></trkpt><trkpt lat="44.213308951371495" lon="11.43284595181452"><ele>539.0</ele><time>2026-04-25T10:28:14.001Z</time></trkpt><trkpt lat="44.21340492489624" lon="11.432954963264839"><ele>539.0</ele><time>2026-04-25T10:28:15.001Z</time></trkpt><trkpt lat="44.21354141335636" lon="11.432901860674802"><ele>539.0</ele><time>2026-04-25T10:28:16.001Z</time></trkpt><trkpt lat="44.21364078860631" lon="11.432951743473893"><ele>538.75</ele><time>2026-04-25T10:28:17.001Z</time></trkpt><trkpt lat="44.213752283355994" lon="11.433008359327884"><ele>538.5</ele><time>2026-04-25T10:28:18.001Z</time></trkpt><trkpt lat="44.21386265608341" lon="11.433065857681635"><ele>538.25</ele><time>2026-04-25T10:28:19.001Z</time></trkpt><trkpt lat="44.21397107647403" lon="11.433146886671974"><ele>538.0</ele><time>2026-04-25T10:28:20.001Z</time></trkpt><trkpt lat="44.21407490580738" lon="11.433254751194088"><ele>530.0</ele><time>2026-04-25T10:28:21.001Z</time></trkpt><trkpt lat="44.21417393107993" lon="11.433386048146605"><ele>522.0</ele><time>2026-04-25T10:28:22.001Z</time></trkpt><trkpt lat="44.214270639758276" lon="11.433529245534517"><ele>514.0</ele><time>2026-04-25T10:28:23.001Z</time></trkpt><trkpt lat="44.21436323086516" lon="11.433650910192428"><ele>506.0</ele><time>2026-04-25T10:28:24.001Z</time></trkpt><trkpt lat="44.21445035003628" lon="11.43376122262302"><ele>507.4</ele><time>2026-04-25T10:28:25.001Z</time></trkpt><trkpt lat="44.21451417553772" lon="11.433861113528422"><ele>508.8</ele><time>2026-04-25T10:28:26.001Z</time></trkpt><trkpt lat="44.21454428814255" lon="11.433961670717308"><ele>510.19999999999993</ele><time>2026-04-25T10:28:27.001Z</time></trkpt><trkpt lat="44.21454989108536" lon="11.434101303486845"><ele>511.59999999999997</ele><time>2026-04-25T10:28:28.001Z</time></trkpt><trkpt lat="44.21455337711454" lon="11.434272124838854"><ele>513.0</ele><time>2026-04-25T10:28:29.001Z</time></trkpt><trkpt lat="44.214566915922056" lon="11.434458000437763"><ele>513.0</ele><time>2026-04-25T10:28:30.001Z</time></trkpt><trkpt lat="44.21458517564024" lon="11.434614585014163"><ele>513.0</ele><time>2026-04-25T10:28:31.001Z</time></trkpt><trkpt lat="44.21458155755827" lon="11.434743299225152"><ele>513.0</ele><time>2026-04-25T10:28:32.001Z</time></trkpt><trkpt lat="44.21454595905176" lon="11.434856544650506"><ele>513.0</ele><time>2026-04-25T10:28:33.001Z</time></trkpt><trkpt lat="44.21447111484252" lon="11.434950457075756"><ele>513.0</ele><time>2026-04-25T10:28:34.001Z</time></trkpt><trkpt lat="44.214395811930814" lon="11.435061724400532"><ele>513.0</ele><time>2026-04-25T10:28:35.001Z</time></trkpt><trkpt lat="44.214353558226335" lon="11.435212440873977"><ele>513.0</ele><time>2026-04-25T10:28:36.001Z</time></trkpt><trkpt lat="44.214345577100595" lon="11.435373294378461"><ele>513.0</ele><time>2026-04-25T10:28:37.001Z</time></trkpt><trkpt lat="44.214414610808895" lon="11.435543228637247"><ele>513.0</ele><time>2026-04-25T10:28:38.001Z</time></trkpt><trkpt lat="44.21445398357404" lon="11.435686122356476"><ele>512.6666666666666</ele><time>2026-04-25T10:28:39.001Z</time></trkpt><trkpt lat="44.21447357996313" lon="11.435878876790932"><ele>512.3333333333333</ele><time>2026-04-25T10:28:40.001Z</time></trkpt><trkpt lat="44.21448170614085" lon="11.436123886742317"><ele>512.0</ele><time>2026-04-25T10:28:41.001Z</time></trkpt><trkpt lat="44.21447375827998" lon="11.436409426150155"><ele>512.0</ele><time>2026-04-25T10:28:42.001Z</time></trkpt><trkpt lat="44.214473329229165" lon="11.436696194336843"><ele>512.0</ele><time>2026-04-25T10:28:43.001Z</time></trkpt><trkpt lat="44.21447814965711" lon="11.436946845847348"><ele>512.0</ele><time>2026-04-25T10:28:44.001Z</time></trkpt><trkpt lat="44.214523045895135" lon="11.43718123870376"><ele>515.0</ele><time>2026-04-25T10:28:45.001Z</time></trkpt><trkpt lat="44.21459007502679" lon="11.437394640218573"><ele>518.0</ele><time>2026-04-25T10:28:46.001Z</time></trkpt><trkpt lat="44.21467156737781" lon="11.437586244175863"><ele>521.0</ele><time>2026-04-25T10:28:47.001Z</time></trkpt><trkpt lat="44.214752250875854" lon="11.437780651715382"><ele>522.3333333333333</ele><time>2026-04-25T10:28:48.001Z</time></trkpt><trkpt lat="44.21478239972876" lon="11.437978447267701"><ele>523.6666666666666</ele><time>2026-04-25T10:28:49.001Z</time></trkpt><trkpt lat="44.21476743688006" lon="11.438197957907727"><ele>525.0</ele><time>2026-04-25T10:28:50.001Z</time></trkpt><trkpt lat="44.214744628134234" lon="11.438430082154719"><ele>525.0</ele><time>2026-04-25T10:28:51.001Z</time></trkpt><trkpt lat="44.2147375624213" lon="11.43865753929778"><ele>525.0</ele><time>2026-04-25T10:28:52.002Z</time></trkpt><trkpt lat="44.21477946326614" lon="11.43887329982222"><ele>525.0</ele><time>2026-04-25T10:28:53.002Z</time></trkpt><trkpt lat="44.2148565388462" lon="11.439094646651974"><ele>515.6666666666666</ele><time>2026-04-25T10:28:54.002Z</time></trkpt><trkpt lat="44.21490789063591" lon="11.439329006412763"><ele>506.3333333333333</ele><time>2026-04-25T10:28:55.002Z</time></trkpt><trkpt lat="44.21489669435814" lon="11.43958954066943"><ele>497.0</ele><time>2026-04-25T10:28:56.002Z</time></trkpt><trkpt lat="44.21484277474049" lon="11.439905029602402"><ele>497.0</ele><time>2026-04-25T10:28:57.002Z</time></trkpt><trkpt lat="44.21477597418722" lon="11.440229868931345"><ele>497.0</ele><time>2026-04-25T10:28:58.002Z</time></trkpt><trkpt lat="44.214962910098095" lon="11.440192801833748"><ele>497.0</ele><time>2026-04-25T10:28:59.002Z</time></trkpt><trkpt lat="44.21495323456088" lon="11.44043091980968"><ele>496.0</ele><time>2026-04-25T10:29:00.002Z</time></trkpt><trkpt lat="44.214890039135064" lon="11.440633047937064"><ele>495.0</ele><time>2026-04-25T10:29:01.002Z</time></trkpt><trkpt lat="44.21481410672247" lon="11.440824327229699"><ele>494.0</ele><time>2026-04-25T10:29:02.002Z</time></trkpt><trkpt lat="44.214731997780746" lon="11.441030190748437"><ele>499.5</ele><time>2026-04-25T10:29:03.002Z</time></trkpt><trkpt lat="44.21468254041949" lon="11.441244567116867"><ele>505.0</ele><time>2026-04-25T10:29:04.002Z</time></trkpt><trkpt lat="44.21465228671388" lon="11.441435133998482"><ele>510.5</ele><time>2026-04-25T10:29:05.002Z</time></trkpt><trkpt lat="44.214671442611426" lon="11.441621152077255"><ele>516.0</ele><time>2026-04-25T10:29:06.002Z</time></trkpt><trkpt lat="44.21471273852545" lon="11.441820813080199"><ele>516.6666666666666</ele><time>2026-04-25T10:29:07.002Z</time></trkpt><trkpt lat="44.21477766526737" lon="11.442051652679666"><ele>517.3333333333333</ele><time>2026-04-25T10:29:08.002Z</time></trkpt><trkpt lat="44.21483816520498" lon="11.442304908913632"><ele>518.0</ele><time>2026-04-25T10:29:09.002Z</time></trkpt><trkpt lat="44.21489575049028" lon="11.442569839721294"><ele>514.6666666666666</ele><time>2026-04-25T10:29:10.002Z</time></trkpt><trkpt lat="44.214952665836606" lon="11.442820131433951"><ele>511.33333333333337</ele><time>2026-04-25T10:29:11.002Z</time></trkpt><trkpt lat="44.21500021223897" lon="11.443027091977083"><ele>508.0</ele><time>2026-04-25T10:29:12.002Z</time></trkpt><trkpt lat="44.215042646805244" lon="11.443184370055059"><ele>508.0</ele><time>2026-04-25T10:29:13.002Z</time></trkpt><trkpt lat="44.2150860432743" lon="11.44327077012492"><ele>507.99999999999994</ele><time>2026-04-25T10:29:14.002Z</time></trkpt><trkpt lat="44.21516205734633" lon="11.443362457971453"><ele>507.99999999999994</ele><time>2026-04-25T10:29:16.002Z</time></trkpt><trkpt lat="44.215273967620234" lon="11.443330609799947"><ele>508.0</ele><time>2026-04-25T10:29:18Z</time></trkpt><trkpt lat="44.21521599260789" lon="11.443449715902767"><ele>508.0</ele><time>2026-04-25T10:29:19Z</time></trkpt><trkpt lat="44.21535056176756" lon="11.44334449167731"><ele>508.00000000000006</ele><time>2026-04-25T10:29:20Z</time></trkpt><trkpt lat="44.21541286155041" lon="11.443402248827244"><ele>508.0</ele><time>2026-04-25T10:29:22Z</time></trkpt><trkpt lat="44.21545024022849" lon="11.443473537492647"><ele>508.0</ele><time>2026-04-25T10:29:26Z</time></trkpt><trkpt lat="44.215438500222504" lon="11.44356332853494"><ele>508.0</ele><time>2026-04-25T10:29:30Z</time></trkpt><trkpt lat="44.21531166711232" lon="11.443494175424048"><ele>508.00000000000006</ele><time>2026-04-25T10:29:35Z</time></trkpt><trkpt lat="44.21527048507567" lon="11.443420567186225"><ele>508.0</ele><time>2026-04-25T10:29:40Z</time></trkpt><trkpt lat="44.21523151867621" lon="11.443330007411737"><ele>508.0</ele><time>2026-04-25T10:29:42Z</time></trkpt></trkseg></trk></gpx>